<?xml version="1.0" encoding="UTF-8" standalone="no" ?>
<gpx xmlns="http://www.topografix.com/GPX/1/1" xmlns:xsi="http://www.w3.org/2001/XMLSchema-instance" xsi:schemaLocation="http://www.topografix.com/GPX/1/1 http://www.topografix.com/GPX/1/1/gpx.xsd" version="1.1" creator="VisuGPX - https://www.visugpx.com">
  <metadata>
    <name>2018-07-10 Bike ride-Amberieux en Dombes O via Toussieux 41k</name>
    <desc><![CDATA[2018-07-10 Bike ride-Amberieux en Dombes O via Toussieux 41k]]></desc>
  </metadata>
  <wpt lat="45.92455" lon="4.73712">
    <ele>174</ele>
    <name><![CDATA[2018-07-10 10:17 (Start)]]></name>
  </wpt>
  <wpt lat="45.9246" lon="4.73706">
    <ele>174</ele>
    <name><![CDATA[2018-07-10 10:17 (End)]]></name>
  </wpt>
  <trk>
    <name><![CDATA[2018-07-10 10:17]]></name>
    <trkseg>
      <trkpt lat="45.92455" lon="4.73712">
        <ele>174</ele>
        <time>2018-07-10T08:17:08.441Z</time>
      </trkpt>
      <trkpt lat="45.92458" lon="4.7371">
        <ele>174</ele>
        <time>2018-07-10T08:17:13.455Z</time>
      </trkpt>
      <trkpt lat="45.9246" lon="4.73712">
        <ele>174</ele>
        <time>2018-07-10T08:17:14Z</time>
      </trkpt>
      <trkpt lat="45.92459" lon="4.73711">
        <ele>174</ele>
        <time>2018-07-10T08:17:24Z</time>
      </trkpt>
      <trkpt lat="45.9246" lon="4.73711">
        <ele>174</ele>
        <time>2018-07-10T08:17:25Z</time>
      </trkpt>
      <trkpt lat="45.92468" lon="4.73707">
        <ele>174</ele>
        <time>2018-07-10T08:17:47Z</time>
      </trkpt>
      <trkpt lat="45.92468" lon="4.73704">
        <ele>174</ele>
        <time>2018-07-10T08:17:48Z</time>
      </trkpt>
      <trkpt lat="45.92469" lon="4.73694">
        <ele>174</ele>
        <time>2018-07-10T08:17:51Z</time>
      </trkpt>
      <trkpt lat="45.92469" lon="4.73691">
        <ele>174</ele>
        <time>2018-07-10T08:17:52Z</time>
      </trkpt>
      <trkpt lat="45.9247" lon="4.73679">
        <ele>174</ele>
        <time>2018-07-10T08:17:55Z</time>
      </trkpt>
      <trkpt lat="45.9247" lon="4.73675">
        <ele>174</ele>
        <time>2018-07-10T08:17:56Z</time>
      </trkpt>
      <trkpt lat="45.92472" lon="4.73665">
        <ele>174</ele>
        <time>2018-07-10T08:17:58Z</time>
      </trkpt>
      <trkpt lat="45.92472" lon="4.73661">
        <ele>174</ele>
        <time>2018-07-10T08:17:59Z</time>
      </trkpt>
      <trkpt lat="45.92474" lon="4.73652">
        <ele>174</ele>
        <time>2018-07-10T08:18:01Z</time>
      </trkpt>
      <trkpt lat="45.9248" lon="4.73641">
        <ele>174</ele>
        <time>2018-07-10T08:18:02Z</time>
      </trkpt>
      <trkpt lat="45.92488" lon="4.73641">
        <ele>174</ele>
        <time>2018-07-10T08:18:04Z</time>
      </trkpt>
      <trkpt lat="45.92491" lon="4.73644">
        <ele>174</ele>
        <time>2018-07-10T08:18:05Z</time>
      </trkpt>
      <trkpt lat="45.92497" lon="4.73644">
        <ele>174</ele>
        <time>2018-07-10T08:18:06Z</time>
      </trkpt>
      <trkpt lat="45.92501" lon="4.73644">
        <ele>174</ele>
        <time>2018-07-10T08:18:07Z</time>
      </trkpt>
      <trkpt lat="45.92509" lon="4.73645">
        <ele>174</ele>
        <time>2018-07-10T08:18:09Z</time>
      </trkpt>
      <trkpt lat="45.92513" lon="4.73645">
        <ele>174</ele>
        <time>2018-07-10T08:18:10Z</time>
      </trkpt>
      <trkpt lat="45.92522" lon="4.73644">
        <ele>173</ele>
        <time>2018-07-10T08:18:12Z</time>
      </trkpt>
      <trkpt lat="45.92528" lon="4.73642">
        <ele>173</ele>
        <time>2018-07-10T08:18:13Z</time>
      </trkpt>
      <trkpt lat="45.92536" lon="4.7364">
        <ele>173</ele>
        <time>2018-07-10T08:18:16.048Z</time>
      </trkpt>
      <trkpt lat="45.9254" lon="4.73639">
        <ele>173</ele>
        <time>2018-07-10T08:18:16Z</time>
      </trkpt>
      <trkpt lat="45.92547" lon="4.73636">
        <ele>173</ele>
        <time>2018-07-10T08:18:18Z</time>
      </trkpt>
      <trkpt lat="45.92553" lon="4.73634">
        <ele>173</ele>
        <time>2018-07-10T08:18:19Z</time>
      </trkpt>
      <trkpt lat="45.92559" lon="4.73632">
        <ele>173</ele>
        <time>2018-07-10T08:18:20Z</time>
      </trkpt>
      <trkpt lat="45.92565" lon="4.73631">
        <ele>173</ele>
        <time>2018-07-10T08:18:21Z</time>
      </trkpt>
      <trkpt lat="45.9257" lon="4.73629">
        <ele>173</ele>
        <time>2018-07-10T08:18:22Z</time>
      </trkpt>
      <trkpt lat="45.92576" lon="4.73629">
        <ele>173</ele>
        <time>2018-07-10T08:18:23Z</time>
      </trkpt>
      <trkpt lat="45.92581" lon="4.73626">
        <ele>173</ele>
        <time>2018-07-10T08:18:24Z</time>
      </trkpt>
      <trkpt lat="45.92587" lon="4.73625">
        <ele>172</ele>
        <time>2018-07-10T08:18:25Z</time>
      </trkpt>
      <trkpt lat="45.92595" lon="4.73624">
        <ele>173</ele>
        <time>2018-07-10T08:18:27Z</time>
      </trkpt>
      <trkpt lat="45.92601" lon="4.73625">
        <ele>173</ele>
        <time>2018-07-10T08:18:28Z</time>
      </trkpt>
      <trkpt lat="45.92606" lon="4.73624">
        <ele>173</ele>
        <time>2018-07-10T08:18:29Z</time>
      </trkpt>
      <trkpt lat="45.92611" lon="4.73625">
        <ele>173</ele>
        <time>2018-07-10T08:18:30Z</time>
      </trkpt>
      <trkpt lat="45.92616" lon="4.7363">
        <ele>173</ele>
        <time>2018-07-10T08:18:31Z</time>
      </trkpt>
      <trkpt lat="45.92618" lon="4.73638">
        <ele>173</ele>
        <time>2018-07-10T08:18:32Z</time>
      </trkpt>
      <trkpt lat="45.92622" lon="4.73646">
        <ele>173</ele>
        <time>2018-07-10T08:18:33Z</time>
      </trkpt>
      <trkpt lat="45.92625" lon="4.73652">
        <ele>173</ele>
        <time>2018-07-10T08:18:34Z</time>
      </trkpt>
      <trkpt lat="45.92628" lon="4.73659">
        <ele>173</ele>
        <time>2018-07-10T08:18:35Z</time>
      </trkpt>
      <trkpt lat="45.92631" lon="4.73666">
        <ele>173</ele>
        <time>2018-07-10T08:18:36Z</time>
      </trkpt>
      <trkpt lat="45.92634" lon="4.73672">
        <ele>173</ele>
        <time>2018-07-10T08:18:37Z</time>
      </trkpt>
      <trkpt lat="45.92638" lon="4.73677">
        <ele>173</ele>
        <time>2018-07-10T08:18:38Z</time>
      </trkpt>
      <trkpt lat="45.92643" lon="4.73683">
        <ele>173</ele>
        <time>2018-07-10T08:18:39Z</time>
      </trkpt>
      <trkpt lat="45.92647" lon="4.73689">
        <ele>173</ele>
        <time>2018-07-10T08:18:40Z</time>
      </trkpt>
      <trkpt lat="45.92652" lon="4.73693">
        <ele>173</ele>
        <time>2018-07-10T08:18:41Z</time>
      </trkpt>
      <trkpt lat="45.92658" lon="4.73699">
        <ele>173</ele>
        <time>2018-07-10T08:18:42Z</time>
      </trkpt>
      <trkpt lat="45.92663" lon="4.73707">
        <ele>173</ele>
        <time>2018-07-10T08:18:44Z</time>
      </trkpt>
      <trkpt lat="45.92668" lon="4.73708">
        <ele>174</ele>
        <time>2018-07-10T08:18:45Z</time>
      </trkpt>
      <trkpt lat="45.92674" lon="4.73709">
        <ele>174</ele>
        <time>2018-07-10T08:18:46Z</time>
      </trkpt>
      <trkpt lat="45.92678" lon="4.7371">
        <ele>173</ele>
        <time>2018-07-10T08:18:47Z</time>
      </trkpt>
      <trkpt lat="45.92684" lon="4.7371">
        <ele>173</ele>
        <time>2018-07-10T08:18:48Z</time>
      </trkpt>
      <trkpt lat="45.92689" lon="4.73711">
        <ele>173</ele>
        <time>2018-07-10T08:18:49Z</time>
      </trkpt>
      <trkpt lat="45.92695" lon="4.73711">
        <ele>173</ele>
        <time>2018-07-10T08:18:50Z</time>
      </trkpt>
      <trkpt lat="45.927" lon="4.73711">
        <ele>173</ele>
        <time>2018-07-10T08:18:51Z</time>
      </trkpt>
      <trkpt lat="45.92707" lon="4.73714">
        <ele>173</ele>
        <time>2018-07-10T08:18:53Z</time>
      </trkpt>
      <trkpt lat="45.92712" lon="4.73715">
        <ele>173</ele>
        <time>2018-07-10T08:18:54Z</time>
      </trkpt>
      <trkpt lat="45.92716" lon="4.73717">
        <ele>173</ele>
        <time>2018-07-10T08:18:55Z</time>
      </trkpt>
      <trkpt lat="45.92722" lon="4.73719">
        <ele>173</ele>
        <time>2018-07-10T08:18:56Z</time>
      </trkpt>
      <trkpt lat="45.92726" lon="4.7372">
        <ele>173</ele>
        <time>2018-07-10T08:18:57Z</time>
      </trkpt>
      <trkpt lat="45.92731" lon="4.73722">
        <ele>173</ele>
        <time>2018-07-10T08:18:58Z</time>
      </trkpt>
      <trkpt lat="45.92736" lon="4.73722">
        <ele>173</ele>
        <time>2018-07-10T08:18:59Z</time>
      </trkpt>
      <trkpt lat="45.92742" lon="4.73723">
        <ele>173</ele>
        <time>2018-07-10T08:19:00Z</time>
      </trkpt>
      <trkpt lat="45.9275" lon="4.73725">
        <ele>172</ele>
        <time>2018-07-10T08:19:02Z</time>
      </trkpt>
      <trkpt lat="45.92755" lon="4.73728">
        <ele>172</ele>
        <time>2018-07-10T08:19:03Z</time>
      </trkpt>
      <trkpt lat="45.92762" lon="4.73734">
        <ele>172</ele>
        <time>2018-07-10T08:19:05Z</time>
      </trkpt>
      <trkpt lat="45.92767" lon="4.73737">
        <ele>172</ele>
        <time>2018-07-10T08:19:06Z</time>
      </trkpt>
      <trkpt lat="45.92775" lon="4.73741">
        <ele>172</ele>
        <time>2018-07-10T08:19:10Z</time>
      </trkpt>
      <trkpt lat="45.92777" lon="4.73742">
        <ele>172</ele>
        <time>2018-07-10T08:19:11Z</time>
      </trkpt>
      <trkpt lat="45.92781" lon="4.73749">
        <ele>172</ele>
        <time>2018-07-10T08:19:14Z</time>
      </trkpt>
      <trkpt lat="45.92783" lon="4.73752">
        <ele>173</ele>
        <time>2018-07-10T08:19:15Z</time>
      </trkpt>
      <trkpt lat="45.92791" lon="4.7376">
        <ele>173</ele>
        <time>2018-07-10T08:19:16Z</time>
      </trkpt>
      <trkpt lat="45.92795" lon="4.73763">
        <ele>173</ele>
        <time>2018-07-10T08:19:17Z</time>
      </trkpt>
      <trkpt lat="45.92801" lon="4.73764">
        <ele>173</ele>
        <time>2018-07-10T08:19:18Z</time>
      </trkpt>
      <trkpt lat="45.92808" lon="4.73768">
        <ele>173</ele>
        <time>2018-07-10T08:19:20Z</time>
      </trkpt>
      <trkpt lat="45.92812" lon="4.7377">
        <ele>173</ele>
        <time>2018-07-10T08:19:21Z</time>
      </trkpt>
      <trkpt lat="45.92817" lon="4.73773">
        <ele>173</ele>
        <time>2018-07-10T08:19:22Z</time>
      </trkpt>
      <trkpt lat="45.92822" lon="4.73776">
        <ele>173</ele>
        <time>2018-07-10T08:19:23Z</time>
      </trkpt>
      <trkpt lat="45.92827" lon="4.73779">
        <ele>173</ele>
        <time>2018-07-10T08:19:24Z</time>
      </trkpt>
      <trkpt lat="45.92832" lon="4.73783">
        <ele>173</ele>
        <time>2018-07-10T08:19:25Z</time>
      </trkpt>
      <trkpt lat="45.92837" lon="4.73784">
        <ele>173</ele>
        <time>2018-07-10T08:19:26Z</time>
      </trkpt>
      <trkpt lat="45.92842" lon="4.73787">
        <ele>173</ele>
        <time>2018-07-10T08:19:27Z</time>
      </trkpt>
      <trkpt lat="45.92848" lon="4.73791">
        <ele>173</ele>
        <time>2018-07-10T08:19:28Z</time>
      </trkpt>
      <trkpt lat="45.92851" lon="4.73795">
        <ele>173</ele>
        <time>2018-07-10T08:19:29Z</time>
      </trkpt>
      <trkpt lat="45.92854" lon="4.73801">
        <ele>173</ele>
        <time>2018-07-10T08:19:30Z</time>
      </trkpt>
      <trkpt lat="45.92855" lon="4.73809">
        <ele>173</ele>
        <time>2018-07-10T08:19:31Z</time>
      </trkpt>
      <trkpt lat="45.92856" lon="4.73817">
        <ele>173</ele>
        <time>2018-07-10T08:19:32Z</time>
      </trkpt>
      <trkpt lat="45.92858" lon="4.73823">
        <ele>173</ele>
        <time>2018-07-10T08:19:33Z</time>
      </trkpt>
      <trkpt lat="45.92861" lon="4.7383">
        <ele>173</ele>
        <time>2018-07-10T08:19:34Z</time>
      </trkpt>
      <trkpt lat="45.92863" lon="4.73839">
        <ele>173</ele>
        <time>2018-07-10T08:19:35Z</time>
      </trkpt>
      <trkpt lat="45.92865" lon="4.73847">
        <ele>173</ele>
        <time>2018-07-10T08:19:36Z</time>
      </trkpt>
      <trkpt lat="45.92867" lon="4.73855">
        <ele>173</ele>
        <time>2018-07-10T08:19:37Z</time>
      </trkpt>
      <trkpt lat="45.92869" lon="4.73862">
        <ele>173</ele>
        <time>2018-07-10T08:19:38Z</time>
      </trkpt>
      <trkpt lat="45.92871" lon="4.73869">
        <ele>173</ele>
        <time>2018-07-10T08:19:39Z</time>
      </trkpt>
      <trkpt lat="45.92874" lon="4.73877">
        <ele>173</ele>
        <time>2018-07-10T08:19:40Z</time>
      </trkpt>
      <trkpt lat="45.92875" lon="4.73884">
        <ele>173</ele>
        <time>2018-07-10T08:19:41Z</time>
      </trkpt>
      <trkpt lat="45.92879" lon="4.73893">
        <ele>173</ele>
        <time>2018-07-10T08:19:42Z</time>
      </trkpt>
      <trkpt lat="45.92879" lon="4.73903">
        <ele>173</ele>
        <time>2018-07-10T08:19:43Z</time>
      </trkpt>
      <trkpt lat="45.92879" lon="4.7391">
        <ele>173</ele>
        <time>2018-07-10T08:19:44Z</time>
      </trkpt>
      <trkpt lat="45.92881" lon="4.73917">
        <ele>172</ele>
        <time>2018-07-10T08:19:45Z</time>
      </trkpt>
      <trkpt lat="45.92881" lon="4.73925">
        <ele>172</ele>
        <time>2018-07-10T08:19:46Z</time>
      </trkpt>
      <trkpt lat="45.92882" lon="4.73932">
        <ele>172</ele>
        <time>2018-07-10T08:19:47Z</time>
      </trkpt>
      <trkpt lat="45.92882" lon="4.73945">
        <ele>172</ele>
        <time>2018-07-10T08:19:49Z</time>
      </trkpt>
      <trkpt lat="45.92882" lon="4.73952">
        <ele>172</ele>
        <time>2018-07-10T08:19:50Z</time>
      </trkpt>
      <trkpt lat="45.92883" lon="4.73958">
        <ele>172</ele>
        <time>2018-07-10T08:19:51Z</time>
      </trkpt>
      <trkpt lat="45.92884" lon="4.73965">
        <ele>172</ele>
        <time>2018-07-10T08:19:52Z</time>
      </trkpt>
      <trkpt lat="45.92884" lon="4.73976">
        <ele>172</ele>
        <time>2018-07-10T08:19:54Z</time>
      </trkpt>
      <trkpt lat="45.92885" lon="4.73982">
        <ele>172</ele>
        <time>2018-07-10T08:19:55Z</time>
      </trkpt>
      <trkpt lat="45.92883" lon="4.7399">
        <ele>172</ele>
        <time>2018-07-10T08:19:56Z</time>
      </trkpt>
      <trkpt lat="45.92881" lon="4.73996">
        <ele>172</ele>
        <time>2018-07-10T08:19:57Z</time>
      </trkpt>
      <trkpt lat="45.9288" lon="4.74004">
        <ele>172</ele>
        <time>2018-07-10T08:19:58Z</time>
      </trkpt>
      <trkpt lat="45.92878" lon="4.74011">
        <ele>172</ele>
        <time>2018-07-10T08:19:59Z</time>
      </trkpt>
      <trkpt lat="45.92877" lon="4.74017">
        <ele>172</ele>
        <time>2018-07-10T08:20:00Z</time>
      </trkpt>
      <trkpt lat="45.92875" lon="4.74024">
        <ele>172</ele>
        <time>2018-07-10T08:20:01Z</time>
      </trkpt>
      <trkpt lat="45.92875" lon="4.74034">
        <ele>172</ele>
        <time>2018-07-10T08:20:02Z</time>
      </trkpt>
      <trkpt lat="45.92871" lon="4.74041">
        <ele>172</ele>
        <time>2018-07-10T08:20:03Z</time>
      </trkpt>
      <trkpt lat="45.92868" lon="4.74049">
        <ele>172</ele>
        <time>2018-07-10T08:20:04Z</time>
      </trkpt>
      <trkpt lat="45.92863" lon="4.74051">
        <ele>172</ele>
        <time>2018-07-10T08:20:05Z</time>
      </trkpt>
      <trkpt lat="45.92859" lon="4.7406">
        <ele>172</ele>
        <time>2018-07-10T08:20:06Z</time>
      </trkpt>
      <trkpt lat="45.92856" lon="4.74067">
        <ele>172</ele>
        <time>2018-07-10T08:20:07Z</time>
      </trkpt>
      <trkpt lat="45.92853" lon="4.74075">
        <ele>172</ele>
        <time>2018-07-10T08:20:08Z</time>
      </trkpt>
      <trkpt lat="45.92849" lon="4.74079">
        <ele>172</ele>
        <time>2018-07-10T08:20:09Z</time>
      </trkpt>
      <trkpt lat="45.92843" lon="4.74086">
        <ele>171</ele>
        <time>2018-07-10T08:20:10Z</time>
      </trkpt>
      <trkpt lat="45.92837" lon="4.74091">
        <ele>171</ele>
        <time>2018-07-10T08:20:11Z</time>
      </trkpt>
      <trkpt lat="45.92833" lon="4.74096">
        <ele>171</ele>
        <time>2018-07-10T08:20:12Z</time>
      </trkpt>
      <trkpt lat="45.92828" lon="4.74101">
        <ele>171</ele>
        <time>2018-07-10T08:20:13Z</time>
      </trkpt>
      <trkpt lat="45.92824" lon="4.74107">
        <ele>171</ele>
        <time>2018-07-10T08:20:14Z</time>
      </trkpt>
      <trkpt lat="45.92819" lon="4.74112">
        <ele>172</ele>
        <time>2018-07-10T08:20:15Z</time>
      </trkpt>
      <trkpt lat="45.92813" lon="4.74115">
        <ele>172</ele>
        <time>2018-07-10T08:20:16Z</time>
      </trkpt>
      <trkpt lat="45.92809" lon="4.74118">
        <ele>172</ele>
        <time>2018-07-10T08:20:17Z</time>
      </trkpt>
      <trkpt lat="45.92805" lon="4.74121">
        <ele>172</ele>
        <time>2018-07-10T08:20:18Z</time>
      </trkpt>
      <trkpt lat="45.928" lon="4.74126">
        <ele>172</ele>
        <time>2018-07-10T08:20:19Z</time>
      </trkpt>
      <trkpt lat="45.92795" lon="4.74129">
        <ele>172</ele>
        <time>2018-07-10T08:20:20Z</time>
      </trkpt>
      <trkpt lat="45.92789" lon="4.74134">
        <ele>172</ele>
        <time>2018-07-10T08:20:21Z</time>
      </trkpt>
      <trkpt lat="45.92784" lon="4.74139">
        <ele>172</ele>
        <time>2018-07-10T08:20:22Z</time>
      </trkpt>
      <trkpt lat="45.92779" lon="4.74146">
        <ele>172</ele>
        <time>2018-07-10T08:20:23Z</time>
      </trkpt>
      <trkpt lat="45.92774" lon="4.74151">
        <ele>172</ele>
        <time>2018-07-10T08:20:24Z</time>
      </trkpt>
      <trkpt lat="45.92768" lon="4.74158">
        <ele>172</ele>
        <time>2018-07-10T08:20:25Z</time>
      </trkpt>
      <trkpt lat="45.92762" lon="4.74165">
        <ele>172</ele>
        <time>2018-07-10T08:20:26Z</time>
      </trkpt>
      <trkpt lat="45.92756" lon="4.74171">
        <ele>172</ele>
        <time>2018-07-10T08:20:27Z</time>
      </trkpt>
      <trkpt lat="45.92752" lon="4.74176">
        <ele>172</ele>
        <time>2018-07-10T08:20:28Z</time>
      </trkpt>
      <trkpt lat="45.92748" lon="4.74181">
        <ele>172</ele>
        <time>2018-07-10T08:20:29Z</time>
      </trkpt>
      <trkpt lat="45.92744" lon="4.74187">
        <ele>172</ele>
        <time>2018-07-10T08:20:30Z</time>
      </trkpt>
      <trkpt lat="45.92739" lon="4.74193">
        <ele>171</ele>
        <time>2018-07-10T08:20:31Z</time>
      </trkpt>
      <trkpt lat="45.92734" lon="4.74199">
        <ele>171</ele>
        <time>2018-07-10T08:20:32Z</time>
      </trkpt>
      <trkpt lat="45.9273" lon="4.74205">
        <ele>171</ele>
        <time>2018-07-10T08:20:33Z</time>
      </trkpt>
      <trkpt lat="45.92726" lon="4.74213">
        <ele>171</ele>
        <time>2018-07-10T08:20:34Z</time>
      </trkpt>
      <trkpt lat="45.92721" lon="4.74219">
        <ele>171</ele>
        <time>2018-07-10T08:20:35Z</time>
      </trkpt>
      <trkpt lat="45.92716" lon="4.74225">
        <ele>171</ele>
        <time>2018-07-10T08:20:36Z</time>
      </trkpt>
      <trkpt lat="45.92712" lon="4.74231">
        <ele>171</ele>
        <time>2018-07-10T08:20:37Z</time>
      </trkpt>
      <trkpt lat="45.92708" lon="4.74237">
        <ele>171</ele>
        <time>2018-07-10T08:20:38Z</time>
      </trkpt>
      <trkpt lat="45.92703" lon="4.74244">
        <ele>171</ele>
        <time>2018-07-10T08:20:39Z</time>
      </trkpt>
      <trkpt lat="45.92697" lon="4.74253">
        <ele>171</ele>
        <time>2018-07-10T08:20:40Z</time>
      </trkpt>
      <trkpt lat="45.92693" lon="4.74261">
        <ele>171</ele>
        <time>2018-07-10T08:20:41Z</time>
      </trkpt>
      <trkpt lat="45.92689" lon="4.74268">
        <ele>171</ele>
        <time>2018-07-10T08:20:42Z</time>
      </trkpt>
      <trkpt lat="45.92684" lon="4.74276">
        <ele>171</ele>
        <time>2018-07-10T08:20:43Z</time>
      </trkpt>
      <trkpt lat="45.9268" lon="4.74283">
        <ele>171</ele>
        <time>2018-07-10T08:20:44Z</time>
      </trkpt>
      <trkpt lat="45.92676" lon="4.74291">
        <ele>171</ele>
        <time>2018-07-10T08:20:45Z</time>
      </trkpt>
      <trkpt lat="45.92672" lon="4.74299">
        <ele>171</ele>
        <time>2018-07-10T08:20:46Z</time>
      </trkpt>
      <trkpt lat="45.9267" lon="4.74307">
        <ele>171</ele>
        <time>2018-07-10T08:20:47Z</time>
      </trkpt>
      <trkpt lat="45.92665" lon="4.74315">
        <ele>171</ele>
        <time>2018-07-10T08:20:48Z</time>
      </trkpt>
      <trkpt lat="45.92661" lon="4.74323">
        <ele>171</ele>
        <time>2018-07-10T08:20:49Z</time>
      </trkpt>
      <trkpt lat="45.92657" lon="4.74332">
        <ele>171</ele>
        <time>2018-07-10T08:20:50Z</time>
      </trkpt>
      <trkpt lat="45.92653" lon="4.7434">
        <ele>171</ele>
        <time>2018-07-10T08:20:51Z</time>
      </trkpt>
      <trkpt lat="45.92648" lon="4.74347">
        <ele>171</ele>
        <time>2018-07-10T08:20:52Z</time>
      </trkpt>
      <trkpt lat="45.92644" lon="4.74355">
        <ele>171</ele>
        <time>2018-07-10T08:20:53Z</time>
      </trkpt>
      <trkpt lat="45.9264" lon="4.74363">
        <ele>171</ele>
        <time>2018-07-10T08:20:54Z</time>
      </trkpt>
      <trkpt lat="45.92634" lon="4.74372">
        <ele>171</ele>
        <time>2018-07-10T08:20:55Z</time>
      </trkpt>
      <trkpt lat="45.9263" lon="4.74378">
        <ele>170</ele>
        <time>2018-07-10T08:20:56Z</time>
      </trkpt>
      <trkpt lat="45.92625" lon="4.74387">
        <ele>170</ele>
        <time>2018-07-10T08:20:57Z</time>
      </trkpt>
      <trkpt lat="45.9262" lon="4.74394">
        <ele>170</ele>
        <time>2018-07-10T08:20:58Z</time>
      </trkpt>
      <trkpt lat="45.92616" lon="4.74401">
        <ele>170</ele>
        <time>2018-07-10T08:20:59Z</time>
      </trkpt>
      <trkpt lat="45.9261" lon="4.74411">
        <ele>170</ele>
        <time>2018-07-10T08:21:00Z</time>
      </trkpt>
      <trkpt lat="45.92606" lon="4.7442">
        <ele>170</ele>
        <time>2018-07-10T08:21:01Z</time>
      </trkpt>
      <trkpt lat="45.92601" lon="4.74429">
        <ele>170</ele>
        <time>2018-07-10T08:21:02Z</time>
      </trkpt>
      <trkpt lat="45.92598" lon="4.74438">
        <ele>170</ele>
        <time>2018-07-10T08:21:03Z</time>
      </trkpt>
      <trkpt lat="45.92594" lon="4.74443">
        <ele>170</ele>
        <time>2018-07-10T08:21:04Z</time>
      </trkpt>
      <trkpt lat="45.92589" lon="4.74451">
        <ele>170</ele>
        <time>2018-07-10T08:21:05Z</time>
      </trkpt>
      <trkpt lat="45.92584" lon="4.74463">
        <ele>170</ele>
        <time>2018-07-10T08:21:06Z</time>
      </trkpt>
      <trkpt lat="45.92581" lon="4.74472">
        <ele>170</ele>
        <time>2018-07-10T08:21:07Z</time>
      </trkpt>
      <trkpt lat="45.92575" lon="4.7448">
        <ele>170</ele>
        <time>2018-07-10T08:21:08Z</time>
      </trkpt>
      <trkpt lat="45.92571" lon="4.74488">
        <ele>170</ele>
        <time>2018-07-10T08:21:09Z</time>
      </trkpt>
      <trkpt lat="45.92567" lon="4.74496">
        <ele>170</ele>
        <time>2018-07-10T08:21:10Z</time>
      </trkpt>
      <trkpt lat="45.92562" lon="4.74503">
        <ele>170</ele>
        <time>2018-07-10T08:21:11Z</time>
      </trkpt>
      <trkpt lat="45.92558" lon="4.74512">
        <ele>170</ele>
        <time>2018-07-10T08:21:12Z</time>
      </trkpt>
      <trkpt lat="45.92554" lon="4.7452">
        <ele>170</ele>
        <time>2018-07-10T08:21:13Z</time>
      </trkpt>
      <trkpt lat="45.92552" lon="4.74523">
        <ele>170</ele>
        <time>2018-07-10T08:21:14Z</time>
      </trkpt>
      <trkpt lat="45.92547" lon="4.7453">
        <ele>170</ele>
        <time>2018-07-10T08:21:15Z</time>
      </trkpt>
      <trkpt lat="45.92544" lon="4.74535">
        <ele>170</ele>
        <time>2018-07-10T08:21:16Z</time>
      </trkpt>
      <trkpt lat="45.92539" lon="4.74542">
        <ele>171</ele>
        <time>2018-07-10T08:21:17Z</time>
      </trkpt>
      <trkpt lat="45.92535" lon="4.74552">
        <ele>171</ele>
        <time>2018-07-10T08:21:18Z</time>
      </trkpt>
      <trkpt lat="45.92531" lon="4.74558">
        <ele>171</ele>
        <time>2018-07-10T08:21:19Z</time>
      </trkpt>
      <trkpt lat="45.92525" lon="4.74565">
        <ele>171</ele>
        <time>2018-07-10T08:21:20Z</time>
      </trkpt>
      <trkpt lat="45.9252" lon="4.74572">
        <ele>171</ele>
        <time>2018-07-10T08:21:21Z</time>
      </trkpt>
      <trkpt lat="45.92514" lon="4.74579">
        <ele>171</ele>
        <time>2018-07-10T08:21:22Z</time>
      </trkpt>
      <trkpt lat="45.92509" lon="4.74585">
        <ele>171</ele>
        <time>2018-07-10T08:21:23Z</time>
      </trkpt>
      <trkpt lat="45.92504" lon="4.7459">
        <ele>171</ele>
        <time>2018-07-10T08:21:24Z</time>
      </trkpt>
      <trkpt lat="45.92499" lon="4.74596">
        <ele>171</ele>
        <time>2018-07-10T08:21:25Z</time>
      </trkpt>
      <trkpt lat="45.92494" lon="4.74603">
        <ele>171</ele>
        <time>2018-07-10T08:21:26Z</time>
      </trkpt>
      <trkpt lat="45.92489" lon="4.74609">
        <ele>171</ele>
        <time>2018-07-10T08:21:27Z</time>
      </trkpt>
      <trkpt lat="45.92485" lon="4.74615">
        <ele>171</ele>
        <time>2018-07-10T08:21:28Z</time>
      </trkpt>
      <trkpt lat="45.9248" lon="4.74623">
        <ele>171</ele>
        <time>2018-07-10T08:21:29Z</time>
      </trkpt>
      <trkpt lat="45.92475" lon="4.7463">
        <ele>171</ele>
        <time>2018-07-10T08:21:30Z</time>
      </trkpt>
      <trkpt lat="45.92471" lon="4.74636">
        <ele>171</ele>
        <time>2018-07-10T08:21:31Z</time>
      </trkpt>
      <trkpt lat="45.92467" lon="4.74644">
        <ele>171</ele>
        <time>2018-07-10T08:21:32Z</time>
      </trkpt>
      <trkpt lat="45.92462" lon="4.74652">
        <ele>171</ele>
        <time>2018-07-10T08:21:33Z</time>
      </trkpt>
      <trkpt lat="45.92457" lon="4.74659">
        <ele>171</ele>
        <time>2018-07-10T08:21:34Z</time>
      </trkpt>
      <trkpt lat="45.92452" lon="4.74666">
        <ele>171</ele>
        <time>2018-07-10T08:21:35Z</time>
      </trkpt>
      <trkpt lat="45.92448" lon="4.74673">
        <ele>171</ele>
        <time>2018-07-10T08:21:36Z</time>
      </trkpt>
      <trkpt lat="45.92446" lon="4.74681">
        <ele>171</ele>
        <time>2018-07-10T08:21:37Z</time>
      </trkpt>
      <trkpt lat="45.92441" lon="4.74686">
        <ele>171</ele>
        <time>2018-07-10T08:21:38Z</time>
      </trkpt>
      <trkpt lat="45.92434" lon="4.74688">
        <ele>171</ele>
        <time>2018-07-10T08:21:39Z</time>
      </trkpt>
      <trkpt lat="45.9243" lon="4.74695">
        <ele>171</ele>
        <time>2018-07-10T08:21:40Z</time>
      </trkpt>
      <trkpt lat="45.92429" lon="4.74703">
        <ele>171</ele>
        <time>2018-07-10T08:21:41Z</time>
      </trkpt>
      <trkpt lat="45.92426" lon="4.7471">
        <ele>171</ele>
        <time>2018-07-10T08:21:42Z</time>
      </trkpt>
      <trkpt lat="45.92421" lon="4.74721">
        <ele>171</ele>
        <time>2018-07-10T08:21:44Z</time>
      </trkpt>
      <trkpt lat="45.92417" lon="4.74731">
        <ele>171</ele>
        <time>2018-07-10T08:21:45Z</time>
      </trkpt>
      <trkpt lat="45.92415" lon="4.74739">
        <ele>172</ele>
        <time>2018-07-10T08:21:46Z</time>
      </trkpt>
      <trkpt lat="45.92412" lon="4.74749">
        <ele>172</ele>
        <time>2018-07-10T08:21:47Z</time>
      </trkpt>
      <trkpt lat="45.9241" lon="4.74757">
        <ele>172</ele>
        <time>2018-07-10T08:21:48Z</time>
      </trkpt>
      <trkpt lat="45.92409" lon="4.74766">
        <ele>172</ele>
        <time>2018-07-10T08:21:49Z</time>
      </trkpt>
      <trkpt lat="45.92407" lon="4.74776">
        <ele>171</ele>
        <time>2018-07-10T08:21:50Z</time>
      </trkpt>
      <trkpt lat="45.92406" lon="4.74785">
        <ele>171</ele>
        <time>2018-07-10T08:21:51Z</time>
      </trkpt>
      <trkpt lat="45.92404" lon="4.74795">
        <ele>171</ele>
        <time>2018-07-10T08:21:52Z</time>
      </trkpt>
      <trkpt lat="45.92402" lon="4.74802">
        <ele>171</ele>
        <time>2018-07-10T08:21:53Z</time>
      </trkpt>
      <trkpt lat="45.92401" lon="4.74811">
        <ele>171</ele>
        <time>2018-07-10T08:21:54Z</time>
      </trkpt>
      <trkpt lat="45.92399" lon="4.7482">
        <ele>171</ele>
        <time>2018-07-10T08:21:55Z</time>
      </trkpt>
      <trkpt lat="45.92398" lon="4.7483">
        <ele>171</ele>
        <time>2018-07-10T08:21:56Z</time>
      </trkpt>
      <trkpt lat="45.92396" lon="4.74838">
        <ele>171</ele>
        <time>2018-07-10T08:21:57Z</time>
      </trkpt>
      <trkpt lat="45.92394" lon="4.74845">
        <ele>171</ele>
        <time>2018-07-10T08:21:58Z</time>
      </trkpt>
      <trkpt lat="45.92391" lon="4.74852">
        <ele>171</ele>
        <time>2018-07-10T08:21:59Z</time>
      </trkpt>
      <trkpt lat="45.92388" lon="4.74861">
        <ele>171</ele>
        <time>2018-07-10T08:22:00Z</time>
      </trkpt>
      <trkpt lat="45.92384" lon="4.74869">
        <ele>171</ele>
        <time>2018-07-10T08:22:01Z</time>
      </trkpt>
      <trkpt lat="45.92381" lon="4.7488">
        <ele>171</ele>
        <time>2018-07-10T08:22:02Z</time>
      </trkpt>
      <trkpt lat="45.92378" lon="4.74889">
        <ele>171</ele>
        <time>2018-07-10T08:22:03Z</time>
      </trkpt>
      <trkpt lat="45.92376" lon="4.74899">
        <ele>171</ele>
        <time>2018-07-10T08:22:04Z</time>
      </trkpt>
      <trkpt lat="45.92372" lon="4.74909">
        <ele>171</ele>
        <time>2018-07-10T08:22:05Z</time>
      </trkpt>
      <trkpt lat="45.92369" lon="4.7492">
        <ele>170</ele>
        <time>2018-07-10T08:22:06Z</time>
      </trkpt>
      <trkpt lat="45.92366" lon="4.74928">
        <ele>170</ele>
        <time>2018-07-10T08:22:07Z</time>
      </trkpt>
      <trkpt lat="45.92363" lon="4.74936">
        <ele>170</ele>
        <time>2018-07-10T08:22:08Z</time>
      </trkpt>
      <trkpt lat="45.92359" lon="4.74944">
        <ele>170</ele>
        <time>2018-07-10T08:22:09Z</time>
      </trkpt>
      <trkpt lat="45.92356" lon="4.74953">
        <ele>170</ele>
        <time>2018-07-10T08:22:10Z</time>
      </trkpt>
      <trkpt lat="45.92353" lon="4.74961">
        <ele>170</ele>
        <time>2018-07-10T08:22:11Z</time>
      </trkpt>
      <trkpt lat="45.9235" lon="4.74971">
        <ele>170</ele>
        <time>2018-07-10T08:22:12Z</time>
      </trkpt>
      <trkpt lat="45.92347" lon="4.7498">
        <ele>170</ele>
        <time>2018-07-10T08:22:13Z</time>
      </trkpt>
      <trkpt lat="45.92344" lon="4.74988">
        <ele>170</ele>
        <time>2018-07-10T08:22:14Z</time>
      </trkpt>
      <trkpt lat="45.9234" lon="4.74995">
        <ele>170</ele>
        <time>2018-07-10T08:22:15Z</time>
      </trkpt>
      <trkpt lat="45.92337" lon="4.75001">
        <ele>170</ele>
        <time>2018-07-10T08:22:16Z</time>
      </trkpt>
      <trkpt lat="45.92334" lon="4.75009">
        <ele>170</ele>
        <time>2018-07-10T08:22:17Z</time>
      </trkpt>
      <trkpt lat="45.9233" lon="4.75018">
        <ele>171</ele>
        <time>2018-07-10T08:22:18Z</time>
      </trkpt>
      <trkpt lat="45.92326" lon="4.75028">
        <ele>171</ele>
        <time>2018-07-10T08:22:19Z</time>
      </trkpt>
      <trkpt lat="45.92323" lon="4.75036">
        <ele>171</ele>
        <time>2018-07-10T08:22:20Z</time>
      </trkpt>
      <trkpt lat="45.92318" lon="4.75044">
        <ele>172</ele>
        <time>2018-07-10T08:22:21Z</time>
      </trkpt>
      <trkpt lat="45.92313" lon="4.75052">
        <ele>172</ele>
        <time>2018-07-10T08:22:22Z</time>
      </trkpt>
      <trkpt lat="45.92308" lon="4.75059">
        <ele>172</ele>
        <time>2018-07-10T08:22:23Z</time>
      </trkpt>
      <trkpt lat="45.92303" lon="4.75066">
        <ele>172</ele>
        <time>2018-07-10T08:22:24Z</time>
      </trkpt>
      <trkpt lat="45.92298" lon="4.75072">
        <ele>172</ele>
        <time>2018-07-10T08:22:25Z</time>
      </trkpt>
      <trkpt lat="45.92292" lon="4.75078">
        <ele>172</ele>
        <time>2018-07-10T08:22:26Z</time>
      </trkpt>
      <trkpt lat="45.92287" lon="4.75084">
        <ele>173</ele>
        <time>2018-07-10T08:22:27Z</time>
      </trkpt>
      <trkpt lat="45.92283" lon="4.75091">
        <ele>173</ele>
        <time>2018-07-10T08:22:28Z</time>
      </trkpt>
      <trkpt lat="45.92278" lon="4.75096">
        <ele>173</ele>
        <time>2018-07-10T08:22:29Z</time>
      </trkpt>
      <trkpt lat="45.92273" lon="4.75104">
        <ele>173</ele>
        <time>2018-07-10T08:22:30Z</time>
      </trkpt>
      <trkpt lat="45.92267" lon="4.7511">
        <ele>174</ele>
        <time>2018-07-10T08:22:31Z</time>
      </trkpt>
      <trkpt lat="45.92261" lon="4.75116">
        <ele>174</ele>
        <time>2018-07-10T08:22:32Z</time>
      </trkpt>
      <trkpt lat="45.92256" lon="4.75119">
        <ele>174</ele>
        <time>2018-07-10T08:22:33Z</time>
      </trkpt>
      <trkpt lat="45.9225" lon="4.75124">
        <ele>174</ele>
        <time>2018-07-10T08:22:34Z</time>
      </trkpt>
      <trkpt lat="45.92245" lon="4.7513">
        <ele>174</ele>
        <time>2018-07-10T08:22:35Z</time>
      </trkpt>
      <trkpt lat="45.92241" lon="4.75136">
        <ele>174</ele>
        <time>2018-07-10T08:22:36Z</time>
      </trkpt>
      <trkpt lat="45.92237" lon="4.75144">
        <ele>174</ele>
        <time>2018-07-10T08:22:37Z</time>
      </trkpt>
      <trkpt lat="45.92233" lon="4.75151">
        <ele>174</ele>
        <time>2018-07-10T08:22:38Z</time>
      </trkpt>
      <trkpt lat="45.92229" lon="4.7516">
        <ele>174</ele>
        <time>2018-07-10T08:22:39Z</time>
      </trkpt>
      <trkpt lat="45.92226" lon="4.75167">
        <ele>175</ele>
        <time>2018-07-10T08:22:40Z</time>
      </trkpt>
      <trkpt lat="45.92223" lon="4.75176">
        <ele>175</ele>
        <time>2018-07-10T08:22:41Z</time>
      </trkpt>
      <trkpt lat="45.92219" lon="4.75184">
        <ele>175</ele>
        <time>2018-07-10T08:22:42Z</time>
      </trkpt>
      <trkpt lat="45.92217" lon="4.75193">
        <ele>175</ele>
        <time>2018-07-10T08:22:43Z</time>
      </trkpt>
      <trkpt lat="45.92215" lon="4.75202">
        <ele>175</ele>
        <time>2018-07-10T08:22:44Z</time>
      </trkpt>
      <trkpt lat="45.92213" lon="4.75211">
        <ele>175</ele>
        <time>2018-07-10T08:22:45Z</time>
      </trkpt>
      <trkpt lat="45.92212" lon="4.7522">
        <ele>175</ele>
        <time>2018-07-10T08:22:46Z</time>
      </trkpt>
      <trkpt lat="45.92211" lon="4.75228">
        <ele>175</ele>
        <time>2018-07-10T08:22:47Z</time>
      </trkpt>
      <trkpt lat="45.92211" lon="4.75237">
        <ele>175</ele>
        <time>2018-07-10T08:22:48Z</time>
      </trkpt>
      <trkpt lat="45.9221" lon="4.75244">
        <ele>175</ele>
        <time>2018-07-10T08:22:49Z</time>
      </trkpt>
      <trkpt lat="45.92209" lon="4.75253">
        <ele>175</ele>
        <time>2018-07-10T08:22:50Z</time>
      </trkpt>
      <trkpt lat="45.9221" lon="4.7526">
        <ele>176</ele>
        <time>2018-07-10T08:22:51Z</time>
      </trkpt>
      <trkpt lat="45.9221" lon="4.75267">
        <ele>176</ele>
        <time>2018-07-10T08:22:52Z</time>
      </trkpt>
      <trkpt lat="45.92209" lon="4.75275">
        <ele>176</ele>
        <time>2018-07-10T08:22:53Z</time>
      </trkpt>
      <trkpt lat="45.9221" lon="4.75282">
        <ele>176</ele>
        <time>2018-07-10T08:22:54Z</time>
      </trkpt>
      <trkpt lat="45.92209" lon="4.75291">
        <ele>176</ele>
        <time>2018-07-10T08:22:55Z</time>
      </trkpt>
      <trkpt lat="45.92209" lon="4.75299">
        <ele>176</ele>
        <time>2018-07-10T08:22:56Z</time>
      </trkpt>
      <trkpt lat="45.92209" lon="4.75306">
        <ele>176</ele>
        <time>2018-07-10T08:22:57Z</time>
      </trkpt>
      <trkpt lat="45.92207" lon="4.75314">
        <ele>176</ele>
        <time>2018-07-10T08:22:58Z</time>
      </trkpt>
      <trkpt lat="45.92206" lon="4.75321">
        <ele>176</ele>
        <time>2018-07-10T08:22:59Z</time>
      </trkpt>
      <trkpt lat="45.92204" lon="4.7533">
        <ele>176</ele>
        <time>2018-07-10T08:23:00Z</time>
      </trkpt>
      <trkpt lat="45.92204" lon="4.7534">
        <ele>177</ele>
        <time>2018-07-10T08:23:01Z</time>
      </trkpt>
      <trkpt lat="45.92202" lon="4.75348">
        <ele>177</ele>
        <time>2018-07-10T08:23:02Z</time>
      </trkpt>
      <trkpt lat="45.922" lon="4.75355">
        <ele>177</ele>
        <time>2018-07-10T08:23:03Z</time>
      </trkpt>
      <trkpt lat="45.92198" lon="4.75362">
        <ele>177</ele>
        <time>2018-07-10T08:23:04Z</time>
      </trkpt>
      <trkpt lat="45.92195" lon="4.7537">
        <ele>177</ele>
        <time>2018-07-10T08:23:05Z</time>
      </trkpt>
      <trkpt lat="45.92192" lon="4.75377">
        <ele>177</ele>
        <time>2018-07-10T08:23:06Z</time>
      </trkpt>
      <trkpt lat="45.92189" lon="4.75384">
        <ele>177</ele>
        <time>2018-07-10T08:23:07Z</time>
      </trkpt>
      <trkpt lat="45.92187" lon="4.75392">
        <ele>177</ele>
        <time>2018-07-10T08:23:08Z</time>
      </trkpt>
      <trkpt lat="45.92183" lon="4.754">
        <ele>177</ele>
        <time>2018-07-10T08:23:09Z</time>
      </trkpt>
      <trkpt lat="45.9218" lon="4.75408">
        <ele>177</ele>
        <time>2018-07-10T08:23:10Z</time>
      </trkpt>
      <trkpt lat="45.92177" lon="4.75415">
        <ele>178</ele>
        <time>2018-07-10T08:23:11Z</time>
      </trkpt>
      <trkpt lat="45.92174" lon="4.75424">
        <ele>177</ele>
        <time>2018-07-10T08:23:12Z</time>
      </trkpt>
      <trkpt lat="45.92172" lon="4.75433">
        <ele>177</ele>
        <time>2018-07-10T08:23:13Z</time>
      </trkpt>
      <trkpt lat="45.92169" lon="4.7544">
        <ele>177</ele>
        <time>2018-07-10T08:23:14Z</time>
      </trkpt>
      <trkpt lat="45.92166" lon="4.75448">
        <ele>176</ele>
        <time>2018-07-10T08:23:15Z</time>
      </trkpt>
      <trkpt lat="45.92164" lon="4.75456">
        <ele>176</ele>
        <time>2018-07-10T08:23:16Z</time>
      </trkpt>
      <trkpt lat="45.92161" lon="4.75462">
        <ele>176</ele>
        <time>2018-07-10T08:23:17Z</time>
      </trkpt>
      <trkpt lat="45.92156" lon="4.75469">
        <ele>176</ele>
        <time>2018-07-10T08:23:18Z</time>
      </trkpt>
      <trkpt lat="45.92152" lon="4.75477">
        <ele>176</ele>
        <time>2018-07-10T08:23:19Z</time>
      </trkpt>
      <trkpt lat="45.92146" lon="4.75484">
        <ele>176</ele>
        <time>2018-07-10T08:23:20Z</time>
      </trkpt>
      <trkpt lat="45.92144" lon="4.75494">
        <ele>176</ele>
        <time>2018-07-10T08:23:21Z</time>
      </trkpt>
      <trkpt lat="45.9214" lon="4.75503">
        <ele>174</ele>
        <time>2018-07-10T08:23:22Z</time>
      </trkpt>
      <trkpt lat="45.92136" lon="4.7551">
        <ele>174</ele>
        <time>2018-07-10T08:23:23Z</time>
      </trkpt>
      <trkpt lat="45.92132" lon="4.75516">
        <ele>174</ele>
        <time>2018-07-10T08:23:24Z</time>
      </trkpt>
      <trkpt lat="45.92128" lon="4.75524">
        <ele>174</ele>
        <time>2018-07-10T08:23:25Z</time>
      </trkpt>
      <trkpt lat="45.92124" lon="4.75532">
        <ele>174</ele>
        <time>2018-07-10T08:23:26Z</time>
      </trkpt>
      <trkpt lat="45.92121" lon="4.7554">
        <ele>174</ele>
        <time>2018-07-10T08:23:27Z</time>
      </trkpt>
      <trkpt lat="45.92118" lon="4.75548">
        <ele>174</ele>
        <time>2018-07-10T08:23:28Z</time>
      </trkpt>
      <trkpt lat="45.92115" lon="4.75554">
        <ele>174</ele>
        <time>2018-07-10T08:23:29Z</time>
      </trkpt>
      <trkpt lat="45.92111" lon="4.75562">
        <ele>174</ele>
        <time>2018-07-10T08:23:30Z</time>
      </trkpt>
      <trkpt lat="45.92109" lon="4.75572">
        <ele>174</ele>
        <time>2018-07-10T08:23:31Z</time>
      </trkpt>
      <trkpt lat="45.92108" lon="4.7558">
        <ele>174</ele>
        <time>2018-07-10T08:23:32Z</time>
      </trkpt>
      <trkpt lat="45.92112" lon="4.75587">
        <ele>174</ele>
        <time>2018-07-10T08:23:33Z</time>
      </trkpt>
      <trkpt lat="45.92117" lon="4.75593">
        <ele>174</ele>
        <time>2018-07-10T08:23:34Z</time>
      </trkpt>
      <trkpt lat="45.92121" lon="4.75598">
        <ele>174</ele>
        <time>2018-07-10T08:23:35Z</time>
      </trkpt>
      <trkpt lat="45.92126" lon="4.75602">
        <ele>174</ele>
        <time>2018-07-10T08:23:36Z</time>
      </trkpt>
      <trkpt lat="45.92131" lon="4.75606">
        <ele>174</ele>
        <time>2018-07-10T08:23:37Z</time>
      </trkpt>
      <trkpt lat="45.92135" lon="4.7561">
        <ele>174</ele>
        <time>2018-07-10T08:23:38Z</time>
      </trkpt>
      <trkpt lat="45.9214" lon="4.75614">
        <ele>174</ele>
        <time>2018-07-10T08:23:39Z</time>
      </trkpt>
      <trkpt lat="45.92145" lon="4.75619">
        <ele>174</ele>
        <time>2018-07-10T08:23:40Z</time>
      </trkpt>
      <trkpt lat="45.9215" lon="4.75624">
        <ele>174</ele>
        <time>2018-07-10T08:23:41Z</time>
      </trkpt>
      <trkpt lat="45.92155" lon="4.7563">
        <ele>174</ele>
        <time>2018-07-10T08:23:42Z</time>
      </trkpt>
      <trkpt lat="45.9216" lon="4.75635">
        <ele>174</ele>
        <time>2018-07-10T08:23:43Z</time>
      </trkpt>
      <trkpt lat="45.92164" lon="4.75641">
        <ele>174</ele>
        <time>2018-07-10T08:23:44Z</time>
      </trkpt>
      <trkpt lat="45.92169" lon="4.75645">
        <ele>174</ele>
        <time>2018-07-10T08:23:45Z</time>
      </trkpt>
      <trkpt lat="45.92174" lon="4.7565">
        <ele>174</ele>
        <time>2018-07-10T08:23:46Z</time>
      </trkpt>
      <trkpt lat="45.92179" lon="4.75655">
        <ele>174</ele>
        <time>2018-07-10T08:23:47Z</time>
      </trkpt>
      <trkpt lat="45.92183" lon="4.75662">
        <ele>174</ele>
        <time>2018-07-10T08:23:48Z</time>
      </trkpt>
      <trkpt lat="45.9219" lon="4.75668">
        <ele>174</ele>
        <time>2018-07-10T08:23:49Z</time>
      </trkpt>
      <trkpt lat="45.92195" lon="4.75673">
        <ele>174</ele>
        <time>2018-07-10T08:23:50Z</time>
      </trkpt>
      <trkpt lat="45.92199" lon="4.75675">
        <ele>174</ele>
        <time>2018-07-10T08:23:51Z</time>
      </trkpt>
      <trkpt lat="45.92203" lon="4.7568">
        <ele>174</ele>
        <time>2018-07-10T08:23:52Z</time>
      </trkpt>
      <trkpt lat="45.92208" lon="4.75685">
        <ele>174</ele>
        <time>2018-07-10T08:23:53Z</time>
      </trkpt>
      <trkpt lat="45.92213" lon="4.75689">
        <ele>174</ele>
        <time>2018-07-10T08:23:54Z</time>
      </trkpt>
      <trkpt lat="45.92219" lon="4.75694">
        <ele>174</ele>
        <time>2018-07-10T08:23:55Z</time>
      </trkpt>
      <trkpt lat="45.92224" lon="4.75698">
        <ele>174</ele>
        <time>2018-07-10T08:23:56Z</time>
      </trkpt>
      <trkpt lat="45.92227" lon="4.75703">
        <ele>174</ele>
        <time>2018-07-10T08:23:57Z</time>
      </trkpt>
      <trkpt lat="45.92232" lon="4.75708">
        <ele>174</ele>
        <time>2018-07-10T08:23:58Z</time>
      </trkpt>
      <trkpt lat="45.92237" lon="4.75714">
        <ele>174</ele>
        <time>2018-07-10T08:23:59Z</time>
      </trkpt>
      <trkpt lat="45.92239" lon="4.75721">
        <ele>174</ele>
        <time>2018-07-10T08:24:00Z</time>
      </trkpt>
      <trkpt lat="45.92241" lon="4.75728">
        <ele>174</ele>
        <time>2018-07-10T08:24:01Z</time>
      </trkpt>
      <trkpt lat="45.92243" lon="4.75735">
        <ele>174</ele>
        <time>2018-07-10T08:24:02Z</time>
      </trkpt>
      <trkpt lat="45.92246" lon="4.75742">
        <ele>174</ele>
        <time>2018-07-10T08:24:03Z</time>
      </trkpt>
      <trkpt lat="45.92247" lon="4.7575">
        <ele>174</ele>
        <time>2018-07-10T08:24:04Z</time>
      </trkpt>
      <trkpt lat="45.92249" lon="4.75758">
        <ele>174</ele>
        <time>2018-07-10T08:24:05Z</time>
      </trkpt>
      <trkpt lat="45.92249" lon="4.75766">
        <ele>174</ele>
        <time>2018-07-10T08:24:06Z</time>
      </trkpt>
      <trkpt lat="45.9225" lon="4.75773">
        <ele>174</ele>
        <time>2018-07-10T08:24:07Z</time>
      </trkpt>
      <trkpt lat="45.9225" lon="4.7578">
        <ele>174</ele>
        <time>2018-07-10T08:24:08Z</time>
      </trkpt>
      <trkpt lat="45.92251" lon="4.75787">
        <ele>174</ele>
        <time>2018-07-10T08:24:09Z</time>
      </trkpt>
      <trkpt lat="45.92254" lon="4.75793">
        <ele>174</ele>
        <time>2018-07-10T08:24:10Z</time>
      </trkpt>
      <trkpt lat="45.92256" lon="4.75801">
        <ele>174</ele>
        <time>2018-07-10T08:24:11Z</time>
      </trkpt>
      <trkpt lat="45.92259" lon="4.75809">
        <ele>174</ele>
        <time>2018-07-10T08:24:12Z</time>
      </trkpt>
      <trkpt lat="45.92262" lon="4.75816">
        <ele>174</ele>
        <time>2018-07-10T08:24:13Z</time>
      </trkpt>
      <trkpt lat="45.92267" lon="4.75822">
        <ele>174</ele>
        <time>2018-07-10T08:24:14Z</time>
      </trkpt>
      <trkpt lat="45.92271" lon="4.75827">
        <ele>174</ele>
        <time>2018-07-10T08:24:15Z</time>
      </trkpt>
      <trkpt lat="45.92276" lon="4.75831">
        <ele>174</ele>
        <time>2018-07-10T08:24:16Z</time>
      </trkpt>
      <trkpt lat="45.92281" lon="4.75836">
        <ele>173</ele>
        <time>2018-07-10T08:24:17Z</time>
      </trkpt>
      <trkpt lat="45.92286" lon="4.75839">
        <ele>173</ele>
        <time>2018-07-10T08:24:18Z</time>
      </trkpt>
      <trkpt lat="45.92292" lon="4.75842">
        <ele>173</ele>
        <time>2018-07-10T08:24:19Z</time>
      </trkpt>
      <trkpt lat="45.92297" lon="4.75845">
        <ele>173</ele>
        <time>2018-07-10T08:24:20Z</time>
      </trkpt>
      <trkpt lat="45.92303" lon="4.7585">
        <ele>173</ele>
        <time>2018-07-10T08:24:21Z</time>
      </trkpt>
      <trkpt lat="45.92308" lon="4.75854">
        <ele>173</ele>
        <time>2018-07-10T08:24:22Z</time>
      </trkpt>
      <trkpt lat="45.92315" lon="4.75859">
        <ele>173</ele>
        <time>2018-07-10T08:24:23Z</time>
      </trkpt>
      <trkpt lat="45.92323" lon="4.75862">
        <ele>173</ele>
        <time>2018-07-10T08:24:24Z</time>
      </trkpt>
      <trkpt lat="45.92329" lon="4.75866">
        <ele>173</ele>
        <time>2018-07-10T08:24:25Z</time>
      </trkpt>
      <trkpt lat="45.92335" lon="4.75869">
        <ele>173</ele>
        <time>2018-07-10T08:24:26Z</time>
      </trkpt>
      <trkpt lat="45.92339" lon="4.75873">
        <ele>173</ele>
        <time>2018-07-10T08:24:27Z</time>
      </trkpt>
      <trkpt lat="45.92345" lon="4.75877">
        <ele>173</ele>
        <time>2018-07-10T08:24:28Z</time>
      </trkpt>
      <trkpt lat="45.92352" lon="4.75881">
        <ele>173</ele>
        <time>2018-07-10T08:24:29Z</time>
      </trkpt>
      <trkpt lat="45.92358" lon="4.75885">
        <ele>173</ele>
        <time>2018-07-10T08:24:30Z</time>
      </trkpt>
      <trkpt lat="45.92365" lon="4.7589">
        <ele>173</ele>
        <time>2018-07-10T08:24:31Z</time>
      </trkpt>
      <trkpt lat="45.9237" lon="4.75892">
        <ele>173</ele>
        <time>2018-07-10T08:24:32Z</time>
      </trkpt>
      <trkpt lat="45.92376" lon="4.75896">
        <ele>173</ele>
        <time>2018-07-10T08:24:33Z</time>
      </trkpt>
      <trkpt lat="45.92382" lon="4.75899">
        <ele>173</ele>
        <time>2018-07-10T08:24:34Z</time>
      </trkpt>
      <trkpt lat="45.92388" lon="4.75901">
        <ele>173</ele>
        <time>2018-07-10T08:24:35Z</time>
      </trkpt>
      <trkpt lat="45.92394" lon="4.75905">
        <ele>173</ele>
        <time>2018-07-10T08:24:36Z</time>
      </trkpt>
      <trkpt lat="45.924" lon="4.75908">
        <ele>173</ele>
        <time>2018-07-10T08:24:37Z</time>
      </trkpt>
      <trkpt lat="45.92406" lon="4.75912">
        <ele>172</ele>
        <time>2018-07-10T08:24:38Z</time>
      </trkpt>
      <trkpt lat="45.92412" lon="4.75916">
        <ele>172</ele>
        <time>2018-07-10T08:24:39Z</time>
      </trkpt>
      <trkpt lat="45.92418" lon="4.75921">
        <ele>172</ele>
        <time>2018-07-10T08:24:40Z</time>
      </trkpt>
      <trkpt lat="45.92424" lon="4.75925">
        <ele>172</ele>
        <time>2018-07-10T08:24:41Z</time>
      </trkpt>
      <trkpt lat="45.92429" lon="4.7593">
        <ele>172</ele>
        <time>2018-07-10T08:24:42Z</time>
      </trkpt>
      <trkpt lat="45.92434" lon="4.75934">
        <ele>172</ele>
        <time>2018-07-10T08:24:43Z</time>
      </trkpt>
      <trkpt lat="45.92439" lon="4.75939">
        <ele>172</ele>
        <time>2018-07-10T08:24:44Z</time>
      </trkpt>
      <trkpt lat="45.92444" lon="4.75943">
        <ele>172</ele>
        <time>2018-07-10T08:24:45Z</time>
      </trkpt>
      <trkpt lat="45.9245" lon="4.75946">
        <ele>172</ele>
        <time>2018-07-10T08:24:46Z</time>
      </trkpt>
      <trkpt lat="45.92455" lon="4.75949">
        <ele>172</ele>
        <time>2018-07-10T08:24:47Z</time>
      </trkpt>
      <trkpt lat="45.92458" lon="4.75953">
        <ele>172</ele>
        <time>2018-07-10T08:24:48Z</time>
      </trkpt>
      <trkpt lat="45.92463" lon="4.75957">
        <ele>172</ele>
        <time>2018-07-10T08:24:49Z</time>
      </trkpt>
      <trkpt lat="45.92467" lon="4.75961">
        <ele>172</ele>
        <time>2018-07-10T08:24:50Z</time>
      </trkpt>
      <trkpt lat="45.92471" lon="4.75964">
        <ele>172</ele>
        <time>2018-07-10T08:24:51Z</time>
      </trkpt>
      <trkpt lat="45.92476" lon="4.75968">
        <ele>172</ele>
        <time>2018-07-10T08:24:52Z</time>
      </trkpt>
      <trkpt lat="45.9248" lon="4.75971">
        <ele>172</ele>
        <time>2018-07-10T08:24:53Z</time>
      </trkpt>
      <trkpt lat="45.92484" lon="4.75975">
        <ele>172</ele>
        <time>2018-07-10T08:24:54Z</time>
      </trkpt>
      <trkpt lat="45.92488" lon="4.75979">
        <ele>172</ele>
        <time>2018-07-10T08:24:55Z</time>
      </trkpt>
      <trkpt lat="45.92492" lon="4.75982">
        <ele>172</ele>
        <time>2018-07-10T08:24:56Z</time>
      </trkpt>
      <trkpt lat="45.92497" lon="4.75985">
        <ele>172</ele>
        <time>2018-07-10T08:24:57Z</time>
      </trkpt>
      <trkpt lat="45.92502" lon="4.75989">
        <ele>172</ele>
        <time>2018-07-10T08:24:58Z</time>
      </trkpt>
      <trkpt lat="45.92506" lon="4.75992">
        <ele>172</ele>
        <time>2018-07-10T08:24:59Z</time>
      </trkpt>
      <trkpt lat="45.9251" lon="4.75995">
        <ele>172</ele>
        <time>2018-07-10T08:25:00Z</time>
      </trkpt>
      <trkpt lat="45.92515" lon="4.75999">
        <ele>172</ele>
        <time>2018-07-10T08:25:01Z</time>
      </trkpt>
      <trkpt lat="45.92519" lon="4.76003">
        <ele>172</ele>
        <time>2018-07-10T08:25:02Z</time>
      </trkpt>
      <trkpt lat="45.92524" lon="4.76007">
        <ele>172</ele>
        <time>2018-07-10T08:25:03Z</time>
      </trkpt>
      <trkpt lat="45.92529" lon="4.7601">
        <ele>172</ele>
        <time>2018-07-10T08:25:04Z</time>
      </trkpt>
      <trkpt lat="45.92536" lon="4.76012">
        <ele>172</ele>
        <time>2018-07-10T08:25:05Z</time>
      </trkpt>
      <trkpt lat="45.9254" lon="4.76016">
        <ele>172</ele>
        <time>2018-07-10T08:25:06Z</time>
      </trkpt>
      <trkpt lat="45.92545" lon="4.7602">
        <ele>172</ele>
        <time>2018-07-10T08:25:07Z</time>
      </trkpt>
      <trkpt lat="45.92549" lon="4.76023">
        <ele>172</ele>
        <time>2018-07-10T08:25:08Z</time>
      </trkpt>
      <trkpt lat="45.92553" lon="4.76027">
        <ele>172</ele>
        <time>2018-07-10T08:25:09Z</time>
      </trkpt>
      <trkpt lat="45.92558" lon="4.76031">
        <ele>172</ele>
        <time>2018-07-10T08:25:10Z</time>
      </trkpt>
      <trkpt lat="45.92562" lon="4.76034">
        <ele>172</ele>
        <time>2018-07-10T08:25:11Z</time>
      </trkpt>
      <trkpt lat="45.92568" lon="4.76037">
        <ele>172</ele>
        <time>2018-07-10T08:25:12Z</time>
      </trkpt>
      <trkpt lat="45.92573" lon="4.76041">
        <ele>172</ele>
        <time>2018-07-10T08:25:13Z</time>
      </trkpt>
      <trkpt lat="45.92577" lon="4.76045">
        <ele>171</ele>
        <time>2018-07-10T08:25:14Z</time>
      </trkpt>
      <trkpt lat="45.92582" lon="4.76048">
        <ele>171</ele>
        <time>2018-07-10T08:25:15Z</time>
      </trkpt>
      <trkpt lat="45.92587" lon="4.76052">
        <ele>171</ele>
        <time>2018-07-10T08:25:16Z</time>
      </trkpt>
      <trkpt lat="45.92592" lon="4.76055">
        <ele>171</ele>
        <time>2018-07-10T08:25:17Z</time>
      </trkpt>
      <trkpt lat="45.92597" lon="4.7606">
        <ele>171</ele>
        <time>2018-07-10T08:25:18Z</time>
      </trkpt>
      <trkpt lat="45.92603" lon="4.76064">
        <ele>171</ele>
        <time>2018-07-10T08:25:19Z</time>
      </trkpt>
      <trkpt lat="45.92608" lon="4.76068">
        <ele>171</ele>
        <time>2018-07-10T08:25:20Z</time>
      </trkpt>
      <trkpt lat="45.92613" lon="4.76072">
        <ele>171</ele>
        <time>2018-07-10T08:25:21Z</time>
      </trkpt>
      <trkpt lat="45.92621" lon="4.76075">
        <ele>171</ele>
        <time>2018-07-10T08:25:22Z</time>
      </trkpt>
      <trkpt lat="45.92627" lon="4.76079">
        <ele>170</ele>
        <time>2018-07-10T08:25:23Z</time>
      </trkpt>
      <trkpt lat="45.92632" lon="4.76082">
        <ele>170</ele>
        <time>2018-07-10T08:25:24Z</time>
      </trkpt>
      <trkpt lat="45.92638" lon="4.76086">
        <ele>170</ele>
        <time>2018-07-10T08:25:25Z</time>
      </trkpt>
      <trkpt lat="45.92644" lon="4.7609">
        <ele>170</ele>
        <time>2018-07-10T08:25:26Z</time>
      </trkpt>
      <trkpt lat="45.92651" lon="4.76095">
        <ele>170</ele>
        <time>2018-07-10T08:25:27Z</time>
      </trkpt>
      <trkpt lat="45.92656" lon="4.76099">
        <ele>170</ele>
        <time>2018-07-10T08:25:28Z</time>
      </trkpt>
      <trkpt lat="45.92662" lon="4.76103">
        <ele>170</ele>
        <time>2018-07-10T08:25:29Z</time>
      </trkpt>
      <trkpt lat="45.92669" lon="4.76107">
        <ele>169</ele>
        <time>2018-07-10T08:25:30Z</time>
      </trkpt>
      <trkpt lat="45.92675" lon="4.76111">
        <ele>169</ele>
        <time>2018-07-10T08:25:31Z</time>
      </trkpt>
      <trkpt lat="45.92681" lon="4.76116">
        <ele>169</ele>
        <time>2018-07-10T08:25:32Z</time>
      </trkpt>
      <trkpt lat="45.92688" lon="4.7612">
        <ele>169</ele>
        <time>2018-07-10T08:25:33Z</time>
      </trkpt>
      <trkpt lat="45.92695" lon="4.76125">
        <ele>169</ele>
        <time>2018-07-10T08:25:34Z</time>
      </trkpt>
      <trkpt lat="45.92701" lon="4.76129">
        <ele>169</ele>
        <time>2018-07-10T08:25:35Z</time>
      </trkpt>
      <trkpt lat="45.92708" lon="4.76133">
        <ele>169</ele>
        <time>2018-07-10T08:25:36Z</time>
      </trkpt>
      <trkpt lat="45.92714" lon="4.76137">
        <ele>168</ele>
        <time>2018-07-10T08:25:37Z</time>
      </trkpt>
      <trkpt lat="45.92719" lon="4.76143">
        <ele>168</ele>
        <time>2018-07-10T08:25:38Z</time>
      </trkpt>
      <trkpt lat="45.92725" lon="4.76148">
        <ele>168</ele>
        <time>2018-07-10T08:25:39Z</time>
      </trkpt>
      <trkpt lat="45.92731" lon="4.76152">
        <ele>168</ele>
        <time>2018-07-10T08:25:40Z</time>
      </trkpt>
      <trkpt lat="45.92737" lon="4.76155">
        <ele>168</ele>
        <time>2018-07-10T08:25:41Z</time>
      </trkpt>
      <trkpt lat="45.92743" lon="4.76161">
        <ele>167</ele>
        <time>2018-07-10T08:25:42Z</time>
      </trkpt>
      <trkpt lat="45.92749" lon="4.76165">
        <ele>167</ele>
        <time>2018-07-10T08:25:43Z</time>
      </trkpt>
      <trkpt lat="45.92754" lon="4.76171">
        <ele>167</ele>
        <time>2018-07-10T08:25:44Z</time>
      </trkpt>
      <trkpt lat="45.92759" lon="4.76175">
        <ele>167</ele>
        <time>2018-07-10T08:25:45Z</time>
      </trkpt>
      <trkpt lat="45.92765" lon="4.76179">
        <ele>167</ele>
        <time>2018-07-10T08:25:46Z</time>
      </trkpt>
      <trkpt lat="45.9277" lon="4.76184">
        <ele>167</ele>
        <time>2018-07-10T08:25:47Z</time>
      </trkpt>
      <trkpt lat="45.92775" lon="4.76189">
        <ele>168</ele>
        <time>2018-07-10T08:25:48Z</time>
      </trkpt>
      <trkpt lat="45.92781" lon="4.76194">
        <ele>168</ele>
        <time>2018-07-10T08:25:49Z</time>
      </trkpt>
      <trkpt lat="45.92785" lon="4.762">
        <ele>168</ele>
        <time>2018-07-10T08:25:50Z</time>
      </trkpt>
      <trkpt lat="45.9279" lon="4.76206">
        <ele>168</ele>
        <time>2018-07-10T08:25:51Z</time>
      </trkpt>
      <trkpt lat="45.92796" lon="4.76212">
        <ele>168</ele>
        <time>2018-07-10T08:25:52Z</time>
      </trkpt>
      <trkpt lat="45.92803" lon="4.76217">
        <ele>168</ele>
        <time>2018-07-10T08:25:53Z</time>
      </trkpt>
      <trkpt lat="45.92809" lon="4.76222">
        <ele>168</ele>
        <time>2018-07-10T08:25:54Z</time>
      </trkpt>
      <trkpt lat="45.92815" lon="4.76226">
        <ele>168</ele>
        <time>2018-07-10T08:25:55Z</time>
      </trkpt>
      <trkpt lat="45.92821" lon="4.7623">
        <ele>168</ele>
        <time>2018-07-10T08:25:56Z</time>
      </trkpt>
      <trkpt lat="45.92826" lon="4.76234">
        <ele>168</ele>
        <time>2018-07-10T08:25:57Z</time>
      </trkpt>
      <trkpt lat="45.92831" lon="4.76239">
        <ele>169</ele>
        <time>2018-07-10T08:25:58Z</time>
      </trkpt>
      <trkpt lat="45.92836" lon="4.76244">
        <ele>169</ele>
        <time>2018-07-10T08:25:59Z</time>
      </trkpt>
      <trkpt lat="45.92841" lon="4.76249">
        <ele>169</ele>
        <time>2018-07-10T08:26:00Z</time>
      </trkpt>
      <trkpt lat="45.92847" lon="4.76255">
        <ele>169</ele>
        <time>2018-07-10T08:26:01Z</time>
      </trkpt>
      <trkpt lat="45.92853" lon="4.76261">
        <ele>169</ele>
        <time>2018-07-10T08:26:02Z</time>
      </trkpt>
      <trkpt lat="45.92858" lon="4.76267">
        <ele>169</ele>
        <time>2018-07-10T08:26:03Z</time>
      </trkpt>
      <trkpt lat="45.92864" lon="4.76272">
        <ele>169</ele>
        <time>2018-07-10T08:26:04Z</time>
      </trkpt>
      <trkpt lat="45.92869" lon="4.76278">
        <ele>169</ele>
        <time>2018-07-10T08:26:05Z</time>
      </trkpt>
      <trkpt lat="45.92875" lon="4.76283">
        <ele>169</ele>
        <time>2018-07-10T08:26:06Z</time>
      </trkpt>
      <trkpt lat="45.92879" lon="4.76288">
        <ele>169</ele>
        <time>2018-07-10T08:26:07Z</time>
      </trkpt>
      <trkpt lat="45.92885" lon="4.76292">
        <ele>169</ele>
        <time>2018-07-10T08:26:08Z</time>
      </trkpt>
      <trkpt lat="45.9289" lon="4.76296">
        <ele>169</ele>
        <time>2018-07-10T08:26:09Z</time>
      </trkpt>
      <trkpt lat="45.92894" lon="4.76302">
        <ele>169</ele>
        <time>2018-07-10T08:26:10Z</time>
      </trkpt>
      <trkpt lat="45.92898" lon="4.76307">
        <ele>169</ele>
        <time>2018-07-10T08:26:11Z</time>
      </trkpt>
      <trkpt lat="45.92903" lon="4.76312">
        <ele>169</ele>
        <time>2018-07-10T08:26:12Z</time>
      </trkpt>
      <trkpt lat="45.92907" lon="4.76318">
        <ele>169</ele>
        <time>2018-07-10T08:26:13Z</time>
      </trkpt>
      <trkpt lat="45.92913" lon="4.76323">
        <ele>169</ele>
        <time>2018-07-10T08:26:14Z</time>
      </trkpt>
      <trkpt lat="45.92919" lon="4.76327">
        <ele>169</ele>
        <time>2018-07-10T08:26:15Z</time>
      </trkpt>
      <trkpt lat="45.92924" lon="4.76331">
        <ele>169</ele>
        <time>2018-07-10T08:26:16Z</time>
      </trkpt>
      <trkpt lat="45.92929" lon="4.76335">
        <ele>169</ele>
        <time>2018-07-10T08:26:17Z</time>
      </trkpt>
      <trkpt lat="45.92933" lon="4.76341">
        <ele>169</ele>
        <time>2018-07-10T08:26:18Z</time>
      </trkpt>
      <trkpt lat="45.92938" lon="4.76347">
        <ele>169</ele>
        <time>2018-07-10T08:26:19Z</time>
      </trkpt>
      <trkpt lat="45.92944" lon="4.76352">
        <ele>169</ele>
        <time>2018-07-10T08:26:20Z</time>
      </trkpt>
      <trkpt lat="45.92948" lon="4.76357">
        <ele>169</ele>
        <time>2018-07-10T08:26:21Z</time>
      </trkpt>
      <trkpt lat="45.92953" lon="4.76362">
        <ele>169</ele>
        <time>2018-07-10T08:26:22Z</time>
      </trkpt>
      <trkpt lat="45.92958" lon="4.76367">
        <ele>169</ele>
        <time>2018-07-10T08:26:23Z</time>
      </trkpt>
      <trkpt lat="45.92963" lon="4.76372">
        <ele>169</ele>
        <time>2018-07-10T08:26:24Z</time>
      </trkpt>
      <trkpt lat="45.92967" lon="4.76376">
        <ele>169</ele>
        <time>2018-07-10T08:26:25Z</time>
      </trkpt>
      <trkpt lat="45.92972" lon="4.76382">
        <ele>169</ele>
        <time>2018-07-10T08:26:26Z</time>
      </trkpt>
      <trkpt lat="45.92976" lon="4.76387">
        <ele>169</ele>
        <time>2018-07-10T08:26:27Z</time>
      </trkpt>
      <trkpt lat="45.92981" lon="4.76391">
        <ele>169</ele>
        <time>2018-07-10T08:26:28Z</time>
      </trkpt>
      <trkpt lat="45.92985" lon="4.76395">
        <ele>169</ele>
        <time>2018-07-10T08:26:29Z</time>
      </trkpt>
      <trkpt lat="45.9299" lon="4.764">
        <ele>169</ele>
        <time>2018-07-10T08:26:30Z</time>
      </trkpt>
      <trkpt lat="45.92995" lon="4.76404">
        <ele>169</ele>
        <time>2018-07-10T08:26:31Z</time>
      </trkpt>
      <trkpt lat="45.93002" lon="4.7641">
        <ele>169</ele>
        <time>2018-07-10T08:26:32Z</time>
      </trkpt>
      <trkpt lat="45.93008" lon="4.76415">
        <ele>169</ele>
        <time>2018-07-10T08:26:33Z</time>
      </trkpt>
      <trkpt lat="45.93013" lon="4.76421">
        <ele>169</ele>
        <time>2018-07-10T08:26:34Z</time>
      </trkpt>
      <trkpt lat="45.93021" lon="4.76425">
        <ele>169</ele>
        <time>2018-07-10T08:26:35Z</time>
      </trkpt>
      <trkpt lat="45.93025" lon="4.76431">
        <ele>169</ele>
        <time>2018-07-10T08:26:36Z</time>
      </trkpt>
      <trkpt lat="45.93029" lon="4.76435">
        <ele>169</ele>
        <time>2018-07-10T08:26:37Z</time>
      </trkpt>
      <trkpt lat="45.93034" lon="4.7644">
        <ele>169</ele>
        <time>2018-07-10T08:26:38Z</time>
      </trkpt>
      <trkpt lat="45.93038" lon="4.76444">
        <ele>169</ele>
        <time>2018-07-10T08:26:39Z</time>
      </trkpt>
      <trkpt lat="45.93043" lon="4.76449">
        <ele>169</ele>
        <time>2018-07-10T08:26:40Z</time>
      </trkpt>
      <trkpt lat="45.93049" lon="4.76454">
        <ele>169</ele>
        <time>2018-07-10T08:26:41Z</time>
      </trkpt>
      <trkpt lat="45.93053" lon="4.76458">
        <ele>169</ele>
        <time>2018-07-10T08:26:42Z</time>
      </trkpt>
      <trkpt lat="45.93058" lon="4.76463">
        <ele>169</ele>
        <time>2018-07-10T08:26:43Z</time>
      </trkpt>
      <trkpt lat="45.93063" lon="4.76467">
        <ele>169</ele>
        <time>2018-07-10T08:26:44Z</time>
      </trkpt>
      <trkpt lat="45.93067" lon="4.76471">
        <ele>169</ele>
        <time>2018-07-10T08:26:45Z</time>
      </trkpt>
      <trkpt lat="45.93072" lon="4.76474">
        <ele>169</ele>
        <time>2018-07-10T08:26:46Z</time>
      </trkpt>
      <trkpt lat="45.93076" lon="4.76478">
        <ele>169</ele>
        <time>2018-07-10T08:26:47Z</time>
      </trkpt>
      <trkpt lat="45.9308" lon="4.76484">
        <ele>169</ele>
        <time>2018-07-10T08:26:48Z</time>
      </trkpt>
      <trkpt lat="45.93084" lon="4.76488">
        <ele>170</ele>
        <time>2018-07-10T08:26:49Z</time>
      </trkpt>
      <trkpt lat="45.93088" lon="4.76492">
        <ele>170</ele>
        <time>2018-07-10T08:26:50Z</time>
      </trkpt>
      <trkpt lat="45.93093" lon="4.76497">
        <ele>170</ele>
        <time>2018-07-10T08:26:51Z</time>
      </trkpt>
      <trkpt lat="45.93098" lon="4.76501">
        <ele>170</ele>
        <time>2018-07-10T08:26:52Z</time>
      </trkpt>
      <trkpt lat="45.93101" lon="4.76506">
        <ele>170</ele>
        <time>2018-07-10T08:26:53Z</time>
      </trkpt>
      <trkpt lat="45.93106" lon="4.76511">
        <ele>170</ele>
        <time>2018-07-10T08:26:54Z</time>
      </trkpt>
      <trkpt lat="45.93111" lon="4.76514">
        <ele>170</ele>
        <time>2018-07-10T08:26:55Z</time>
      </trkpt>
      <trkpt lat="45.93115" lon="4.76519">
        <ele>170</ele>
        <time>2018-07-10T08:26:56Z</time>
      </trkpt>
      <trkpt lat="45.9312" lon="4.76524">
        <ele>170</ele>
        <time>2018-07-10T08:26:57Z</time>
      </trkpt>
      <trkpt lat="45.93125" lon="4.76528">
        <ele>170</ele>
        <time>2018-07-10T08:26:58Z</time>
      </trkpt>
      <trkpt lat="45.93128" lon="4.76533">
        <ele>170</ele>
        <time>2018-07-10T08:26:59Z</time>
      </trkpt>
      <trkpt lat="45.93133" lon="4.76537">
        <ele>170</ele>
        <time>2018-07-10T08:27:00Z</time>
      </trkpt>
      <trkpt lat="45.93138" lon="4.76542">
        <ele>170</ele>
        <time>2018-07-10T08:27:01Z</time>
      </trkpt>
      <trkpt lat="45.93144" lon="4.76548">
        <ele>170</ele>
        <time>2018-07-10T08:27:02Z</time>
      </trkpt>
      <trkpt lat="45.93149" lon="4.76553">
        <ele>170</ele>
        <time>2018-07-10T08:27:03Z</time>
      </trkpt>
      <trkpt lat="45.93153" lon="4.76557">
        <ele>170</ele>
        <time>2018-07-10T08:27:04Z</time>
      </trkpt>
      <trkpt lat="45.93156" lon="4.76563">
        <ele>170</ele>
        <time>2018-07-10T08:27:05Z</time>
      </trkpt>
      <trkpt lat="45.93159" lon="4.76568">
        <ele>170</ele>
        <time>2018-07-10T08:27:06Z</time>
      </trkpt>
      <trkpt lat="45.93163" lon="4.76572">
        <ele>170</ele>
        <time>2018-07-10T08:27:07Z</time>
      </trkpt>
      <trkpt lat="45.93168" lon="4.76576">
        <ele>170</ele>
        <time>2018-07-10T08:27:08Z</time>
      </trkpt>
      <trkpt lat="45.93172" lon="4.7658">
        <ele>170</ele>
        <time>2018-07-10T08:27:09Z</time>
      </trkpt>
      <trkpt lat="45.93176" lon="4.76583">
        <ele>170</ele>
        <time>2018-07-10T08:27:10Z</time>
      </trkpt>
      <trkpt lat="45.93183" lon="4.76588">
        <ele>171</ele>
        <time>2018-07-10T08:27:11Z</time>
      </trkpt>
      <trkpt lat="45.93189" lon="4.76592">
        <ele>170</ele>
        <time>2018-07-10T08:27:12Z</time>
      </trkpt>
      <trkpt lat="45.93194" lon="4.76597">
        <ele>170</ele>
        <time>2018-07-10T08:27:13Z</time>
      </trkpt>
      <trkpt lat="45.93198" lon="4.76602">
        <ele>170</ele>
        <time>2018-07-10T08:27:14Z</time>
      </trkpt>
      <trkpt lat="45.93202" lon="4.76607">
        <ele>170</ele>
        <time>2018-07-10T08:27:15Z</time>
      </trkpt>
      <trkpt lat="45.93206" lon="4.76611">
        <ele>170</ele>
        <time>2018-07-10T08:27:16Z</time>
      </trkpt>
      <trkpt lat="45.9321" lon="4.76616">
        <ele>170</ele>
        <time>2018-07-10T08:27:17Z</time>
      </trkpt>
      <trkpt lat="45.93215" lon="4.76621">
        <ele>170</ele>
        <time>2018-07-10T08:27:18Z</time>
      </trkpt>
      <trkpt lat="45.93219" lon="4.76625">
        <ele>170</ele>
        <time>2018-07-10T08:27:19Z</time>
      </trkpt>
      <trkpt lat="45.93224" lon="4.7663">
        <ele>170</ele>
        <time>2018-07-10T08:27:20Z</time>
      </trkpt>
      <trkpt lat="45.93229" lon="4.76634">
        <ele>171</ele>
        <time>2018-07-10T08:27:21Z</time>
      </trkpt>
      <trkpt lat="45.93233" lon="4.76638">
        <ele>171</ele>
        <time>2018-07-10T08:27:22Z</time>
      </trkpt>
      <trkpt lat="45.93236" lon="4.76643">
        <ele>171</ele>
        <time>2018-07-10T08:27:23Z</time>
      </trkpt>
      <trkpt lat="45.9324" lon="4.76647">
        <ele>171</ele>
        <time>2018-07-10T08:27:24Z</time>
      </trkpt>
      <trkpt lat="45.93243" lon="4.76652">
        <ele>171</ele>
        <time>2018-07-10T08:27:25Z</time>
      </trkpt>
      <trkpt lat="45.93247" lon="4.76657">
        <ele>171</ele>
        <time>2018-07-10T08:27:26Z</time>
      </trkpt>
      <trkpt lat="45.93252" lon="4.76661">
        <ele>171</ele>
        <time>2018-07-10T08:27:27Z</time>
      </trkpt>
      <trkpt lat="45.93256" lon="4.76666">
        <ele>171</ele>
        <time>2018-07-10T08:27:28Z</time>
      </trkpt>
      <trkpt lat="45.93261" lon="4.7667">
        <ele>172</ele>
        <time>2018-07-10T08:27:29Z</time>
      </trkpt>
      <trkpt lat="45.93266" lon="4.76675">
        <ele>172</ele>
        <time>2018-07-10T08:27:30Z</time>
      </trkpt>
      <trkpt lat="45.9327" lon="4.7668">
        <ele>172</ele>
        <time>2018-07-10T08:27:31Z</time>
      </trkpt>
      <trkpt lat="45.93277" lon="4.76686">
        <ele>172</ele>
        <time>2018-07-10T08:27:32Z</time>
      </trkpt>
      <trkpt lat="45.93281" lon="4.76691">
        <ele>172</ele>
        <time>2018-07-10T08:27:33Z</time>
      </trkpt>
      <trkpt lat="45.93286" lon="4.76697">
        <ele>172</ele>
        <time>2018-07-10T08:27:34Z</time>
      </trkpt>
      <trkpt lat="45.9329" lon="4.76701">
        <ele>172</ele>
        <time>2018-07-10T08:27:35Z</time>
      </trkpt>
      <trkpt lat="45.93296" lon="4.76704">
        <ele>172</ele>
        <time>2018-07-10T08:27:36Z</time>
      </trkpt>
      <trkpt lat="45.93301" lon="4.76707">
        <ele>172</ele>
        <time>2018-07-10T08:27:37Z</time>
      </trkpt>
      <trkpt lat="45.93306" lon="4.76711">
        <ele>172</ele>
        <time>2018-07-10T08:27:38Z</time>
      </trkpt>
      <trkpt lat="45.9331" lon="4.76716">
        <ele>172</ele>
        <time>2018-07-10T08:27:39Z</time>
      </trkpt>
      <trkpt lat="45.93314" lon="4.76719">
        <ele>172</ele>
        <time>2018-07-10T08:27:40Z</time>
      </trkpt>
      <trkpt lat="45.93318" lon="4.76724">
        <ele>172</ele>
        <time>2018-07-10T08:27:41Z</time>
      </trkpt>
      <trkpt lat="45.93323" lon="4.76728">
        <ele>172</ele>
        <time>2018-07-10T08:27:42Z</time>
      </trkpt>
      <trkpt lat="45.93326" lon="4.76733">
        <ele>172</ele>
        <time>2018-07-10T08:27:43Z</time>
      </trkpt>
      <trkpt lat="45.93331" lon="4.76737">
        <ele>172</ele>
        <time>2018-07-10T08:27:44Z</time>
      </trkpt>
      <trkpt lat="45.93336" lon="4.76743">
        <ele>173</ele>
        <time>2018-07-10T08:27:45Z</time>
      </trkpt>
      <trkpt lat="45.9334" lon="4.76747">
        <ele>173</ele>
        <time>2018-07-10T08:27:46Z</time>
      </trkpt>
      <trkpt lat="45.93345" lon="4.76751">
        <ele>172</ele>
        <time>2018-07-10T08:27:47Z</time>
      </trkpt>
      <trkpt lat="45.93351" lon="4.76756">
        <ele>172</ele>
        <time>2018-07-10T08:27:48Z</time>
      </trkpt>
      <trkpt lat="45.93355" lon="4.76761">
        <ele>172</ele>
        <time>2018-07-10T08:27:49Z</time>
      </trkpt>
      <trkpt lat="45.93361" lon="4.76766">
        <ele>172</ele>
        <time>2018-07-10T08:27:50Z</time>
      </trkpt>
      <trkpt lat="45.93366" lon="4.76772">
        <ele>172</ele>
        <time>2018-07-10T08:27:51Z</time>
      </trkpt>
      <trkpt lat="45.93373" lon="4.76776">
        <ele>172</ele>
        <time>2018-07-10T08:27:52Z</time>
      </trkpt>
      <trkpt lat="45.93377" lon="4.76782">
        <ele>172</ele>
        <time>2018-07-10T08:27:53Z</time>
      </trkpt>
      <trkpt lat="45.93382" lon="4.76787">
        <ele>172</ele>
        <time>2018-07-10T08:27:54Z</time>
      </trkpt>
      <trkpt lat="45.93387" lon="4.76793">
        <ele>172</ele>
        <time>2018-07-10T08:27:55Z</time>
      </trkpt>
      <trkpt lat="45.93392" lon="4.76799">
        <ele>172</ele>
        <time>2018-07-10T08:27:56Z</time>
      </trkpt>
      <trkpt lat="45.93395" lon="4.76804">
        <ele>172</ele>
        <time>2018-07-10T08:27:57Z</time>
      </trkpt>
      <trkpt lat="45.93401" lon="4.7681">
        <ele>172</ele>
        <time>2018-07-10T08:27:58Z</time>
      </trkpt>
      <trkpt lat="45.93405" lon="4.76816">
        <ele>172</ele>
        <time>2018-07-10T08:27:59Z</time>
      </trkpt>
      <trkpt lat="45.9341" lon="4.76822">
        <ele>172</ele>
        <time>2018-07-10T08:28:00Z</time>
      </trkpt>
      <trkpt lat="45.93413" lon="4.76829">
        <ele>172</ele>
        <time>2018-07-10T08:28:01Z</time>
      </trkpt>
      <trkpt lat="45.93416" lon="4.76836">
        <ele>172</ele>
        <time>2018-07-10T08:28:02Z</time>
      </trkpt>
      <trkpt lat="45.9342" lon="4.76843">
        <ele>171</ele>
        <time>2018-07-10T08:28:03Z</time>
      </trkpt>
      <trkpt lat="45.93424" lon="4.7685">
        <ele>171</ele>
        <time>2018-07-10T08:28:04Z</time>
      </trkpt>
      <trkpt lat="45.93428" lon="4.76858">
        <ele>171</ele>
        <time>2018-07-10T08:28:05Z</time>
      </trkpt>
      <trkpt lat="45.93432" lon="4.76866">
        <ele>171</ele>
        <time>2018-07-10T08:28:06Z</time>
      </trkpt>
      <trkpt lat="45.93435" lon="4.76875">
        <ele>171</ele>
        <time>2018-07-10T08:28:07Z</time>
      </trkpt>
      <trkpt lat="45.93438" lon="4.76883">
        <ele>171</ele>
        <time>2018-07-10T08:28:08Z</time>
      </trkpt>
      <trkpt lat="45.9344" lon="4.76893">
        <ele>170</ele>
        <time>2018-07-10T08:28:09Z</time>
      </trkpt>
      <trkpt lat="45.93442" lon="4.76902">
        <ele>170</ele>
        <time>2018-07-10T08:28:10Z</time>
      </trkpt>
      <trkpt lat="45.93445" lon="4.76911">
        <ele>170</ele>
        <time>2018-07-10T08:28:11Z</time>
      </trkpt>
      <trkpt lat="45.93447" lon="4.76919">
        <ele>170</ele>
        <time>2018-07-10T08:28:12Z</time>
      </trkpt>
      <trkpt lat="45.93449" lon="4.76928">
        <ele>170</ele>
        <time>2018-07-10T08:28:13Z</time>
      </trkpt>
      <trkpt lat="45.93449" lon="4.76937">
        <ele>170</ele>
        <time>2018-07-10T08:28:14Z</time>
      </trkpt>
      <trkpt lat="45.9345" lon="4.76947">
        <ele>170</ele>
        <time>2018-07-10T08:28:15Z</time>
      </trkpt>
      <trkpt lat="45.93452" lon="4.76956">
        <ele>170</ele>
        <time>2018-07-10T08:28:16Z</time>
      </trkpt>
      <trkpt lat="45.93453" lon="4.76965">
        <ele>170</ele>
        <time>2018-07-10T08:28:17Z</time>
      </trkpt>
      <trkpt lat="45.93455" lon="4.76972">
        <ele>170</ele>
        <time>2018-07-10T08:28:18Z</time>
      </trkpt>
      <trkpt lat="45.93456" lon="4.7698">
        <ele>170</ele>
        <time>2018-07-10T08:28:19Z</time>
      </trkpt>
      <trkpt lat="45.93457" lon="4.76988">
        <ele>170</ele>
        <time>2018-07-10T08:28:20Z</time>
      </trkpt>
      <trkpt lat="45.9346" lon="4.76997">
        <ele>170</ele>
        <time>2018-07-10T08:28:21Z</time>
      </trkpt>
      <trkpt lat="45.93461" lon="4.77005">
        <ele>170</ele>
        <time>2018-07-10T08:28:22Z</time>
      </trkpt>
      <trkpt lat="45.93463" lon="4.77013">
        <ele>170</ele>
        <time>2018-07-10T08:28:23Z</time>
      </trkpt>
      <trkpt lat="45.93465" lon="4.7702">
        <ele>170</ele>
        <time>2018-07-10T08:28:24Z</time>
      </trkpt>
      <trkpt lat="45.93465" lon="4.77027">
        <ele>170</ele>
        <time>2018-07-10T08:28:25Z</time>
      </trkpt>
      <trkpt lat="45.93466" lon="4.77036">
        <ele>170</ele>
        <time>2018-07-10T08:28:26Z</time>
      </trkpt>
      <trkpt lat="45.93467" lon="4.77045">
        <ele>170</ele>
        <time>2018-07-10T08:28:27Z</time>
      </trkpt>
      <trkpt lat="45.93469" lon="4.77053">
        <ele>170</ele>
        <time>2018-07-10T08:28:28Z</time>
      </trkpt>
      <trkpt lat="45.9347" lon="4.77061">
        <ele>170</ele>
        <time>2018-07-10T08:28:29Z</time>
      </trkpt>
      <trkpt lat="45.93471" lon="4.77069">
        <ele>170</ele>
        <time>2018-07-10T08:28:30Z</time>
      </trkpt>
      <trkpt lat="45.93471" lon="4.77076">
        <ele>170</ele>
        <time>2018-07-10T08:28:31Z</time>
      </trkpt>
      <trkpt lat="45.93473" lon="4.77084">
        <ele>169</ele>
        <time>2018-07-10T08:28:32Z</time>
      </trkpt>
      <trkpt lat="45.93476" lon="4.77091">
        <ele>169</ele>
        <time>2018-07-10T08:28:33Z</time>
      </trkpt>
      <trkpt lat="45.93477" lon="4.77099">
        <ele>169</ele>
        <time>2018-07-10T08:28:34Z</time>
      </trkpt>
      <trkpt lat="45.93476" lon="4.77106">
        <ele>169</ele>
        <time>2018-07-10T08:28:35Z</time>
      </trkpt>
      <trkpt lat="45.93477" lon="4.77114">
        <ele>169</ele>
        <time>2018-07-10T08:28:36Z</time>
      </trkpt>
      <trkpt lat="45.93479" lon="4.77121">
        <ele>169</ele>
        <time>2018-07-10T08:28:37Z</time>
      </trkpt>
      <trkpt lat="45.9348" lon="4.77129">
        <ele>169</ele>
        <time>2018-07-10T08:28:38Z</time>
      </trkpt>
      <trkpt lat="45.93482" lon="4.77136">
        <ele>169</ele>
        <time>2018-07-10T08:28:39Z</time>
      </trkpt>
      <trkpt lat="45.93484" lon="4.77144">
        <ele>169</ele>
        <time>2018-07-10T08:28:40Z</time>
      </trkpt>
      <trkpt lat="45.93486" lon="4.77151">
        <ele>169</ele>
        <time>2018-07-10T08:28:41Z</time>
      </trkpt>
      <trkpt lat="45.93488" lon="4.77158">
        <ele>169</ele>
        <time>2018-07-10T08:28:42Z</time>
      </trkpt>
      <trkpt lat="45.93489" lon="4.77167">
        <ele>169</ele>
        <time>2018-07-10T08:28:43Z</time>
      </trkpt>
      <trkpt lat="45.93491" lon="4.77175">
        <ele>169</ele>
        <time>2018-07-10T08:28:44Z</time>
      </trkpt>
      <trkpt lat="45.93492" lon="4.77183">
        <ele>169</ele>
        <time>2018-07-10T08:28:45Z</time>
      </trkpt>
      <trkpt lat="45.93494" lon="4.77191">
        <ele>169</ele>
        <time>2018-07-10T08:28:46Z</time>
      </trkpt>
      <trkpt lat="45.93496" lon="4.772">
        <ele>169</ele>
        <time>2018-07-10T08:28:47Z</time>
      </trkpt>
      <trkpt lat="45.93499" lon="4.77207">
        <ele>169</ele>
        <time>2018-07-10T08:28:48Z</time>
      </trkpt>
      <trkpt lat="45.93501" lon="4.77215">
        <ele>169</ele>
        <time>2018-07-10T08:28:49Z</time>
      </trkpt>
      <trkpt lat="45.93503" lon="4.77224">
        <ele>169</ele>
        <time>2018-07-10T08:28:50Z</time>
      </trkpt>
      <trkpt lat="45.93504" lon="4.77231">
        <ele>169</ele>
        <time>2018-07-10T08:28:51Z</time>
      </trkpt>
      <trkpt lat="45.93506" lon="4.77239">
        <ele>169</ele>
        <time>2018-07-10T08:28:52Z</time>
      </trkpt>
      <trkpt lat="45.93508" lon="4.77247">
        <ele>170</ele>
        <time>2018-07-10T08:28:53Z</time>
      </trkpt>
      <trkpt lat="45.9351" lon="4.77254">
        <ele>170</ele>
        <time>2018-07-10T08:28:54Z</time>
      </trkpt>
      <trkpt lat="45.9351" lon="4.77261">
        <ele>170</ele>
        <time>2018-07-10T08:28:55Z</time>
      </trkpt>
      <trkpt lat="45.93512" lon="4.77269">
        <ele>170</ele>
        <time>2018-07-10T08:28:56Z</time>
      </trkpt>
      <trkpt lat="45.93513" lon="4.77277">
        <ele>170</ele>
        <time>2018-07-10T08:28:57Z</time>
      </trkpt>
      <trkpt lat="45.93515" lon="4.77284">
        <ele>170</ele>
        <time>2018-07-10T08:28:58Z</time>
      </trkpt>
      <trkpt lat="45.93516" lon="4.77294">
        <ele>170</ele>
        <time>2018-07-10T08:28:59Z</time>
      </trkpt>
      <trkpt lat="45.93518" lon="4.77301">
        <ele>170</ele>
        <time>2018-07-10T08:29:00Z</time>
      </trkpt>
      <trkpt lat="45.93521" lon="4.7731">
        <ele>170</ele>
        <time>2018-07-10T08:29:01Z</time>
      </trkpt>
      <trkpt lat="45.93523" lon="4.77317">
        <ele>170</ele>
        <time>2018-07-10T08:29:02Z</time>
      </trkpt>
      <trkpt lat="45.93525" lon="4.77326">
        <ele>170</ele>
        <time>2018-07-10T08:29:03Z</time>
      </trkpt>
      <trkpt lat="45.93526" lon="4.77333">
        <ele>170</ele>
        <time>2018-07-10T08:29:04Z</time>
      </trkpt>
      <trkpt lat="45.93527" lon="4.77342">
        <ele>170</ele>
        <time>2018-07-10T08:29:05Z</time>
      </trkpt>
      <trkpt lat="45.93529" lon="4.77349">
        <ele>170</ele>
        <time>2018-07-10T08:29:06Z</time>
      </trkpt>
      <trkpt lat="45.93529" lon="4.77357">
        <ele>170</ele>
        <time>2018-07-10T08:29:07Z</time>
      </trkpt>
      <trkpt lat="45.93531" lon="4.77363">
        <ele>170</ele>
        <time>2018-07-10T08:29:08Z</time>
      </trkpt>
      <trkpt lat="45.9353" lon="4.77372">
        <ele>170</ele>
        <time>2018-07-10T08:29:09Z</time>
      </trkpt>
      <trkpt lat="45.93532" lon="4.77378">
        <ele>170</ele>
        <time>2018-07-10T08:29:10Z</time>
      </trkpt>
      <trkpt lat="45.93534" lon="4.77386">
        <ele>170</ele>
        <time>2018-07-10T08:29:11Z</time>
      </trkpt>
      <trkpt lat="45.93536" lon="4.77393">
        <ele>170</ele>
        <time>2018-07-10T08:29:12Z</time>
      </trkpt>
      <trkpt lat="45.93537" lon="4.77399">
        <ele>170</ele>
        <time>2018-07-10T08:29:13Z</time>
      </trkpt>
      <trkpt lat="45.93538" lon="4.77407">
        <ele>170</ele>
        <time>2018-07-10T08:29:14Z</time>
      </trkpt>
      <trkpt lat="45.9354" lon="4.77415">
        <ele>170</ele>
        <time>2018-07-10T08:29:15Z</time>
      </trkpt>
      <trkpt lat="45.93543" lon="4.77423">
        <ele>170</ele>
        <time>2018-07-10T08:29:16Z</time>
      </trkpt>
      <trkpt lat="45.93546" lon="4.77431">
        <ele>169</ele>
        <time>2018-07-10T08:29:17Z</time>
      </trkpt>
      <trkpt lat="45.93548" lon="4.77438">
        <ele>169</ele>
        <time>2018-07-10T08:29:18Z</time>
      </trkpt>
      <trkpt lat="45.9355" lon="4.77446">
        <ele>169</ele>
        <time>2018-07-10T08:29:19Z</time>
      </trkpt>
      <trkpt lat="45.93552" lon="4.77455">
        <ele>169</ele>
        <time>2018-07-10T08:29:20Z</time>
      </trkpt>
      <trkpt lat="45.93553" lon="4.77464">
        <ele>169</ele>
        <time>2018-07-10T08:29:21Z</time>
      </trkpt>
      <trkpt lat="45.93555" lon="4.77472">
        <ele>169</ele>
        <time>2018-07-10T08:29:22Z</time>
      </trkpt>
      <trkpt lat="45.93558" lon="4.77478">
        <ele>169</ele>
        <time>2018-07-10T08:29:23Z</time>
      </trkpt>
      <trkpt lat="45.93561" lon="4.77485">
        <ele>169</ele>
        <time>2018-07-10T08:29:24Z</time>
      </trkpt>
      <trkpt lat="45.93561" lon="4.77494">
        <ele>169</ele>
        <time>2018-07-10T08:29:25Z</time>
      </trkpt>
      <trkpt lat="45.93563" lon="4.77502">
        <ele>169</ele>
        <time>2018-07-10T08:29:26Z</time>
      </trkpt>
      <trkpt lat="45.93565" lon="4.77511">
        <ele>169</ele>
        <time>2018-07-10T08:29:27Z</time>
      </trkpt>
      <trkpt lat="45.93567" lon="4.77519">
        <ele>169</ele>
        <time>2018-07-10T08:29:28Z</time>
      </trkpt>
      <trkpt lat="45.93569" lon="4.77527">
        <ele>169</ele>
        <time>2018-07-10T08:29:29Z</time>
      </trkpt>
      <trkpt lat="45.93571" lon="4.77534">
        <ele>169</ele>
        <time>2018-07-10T08:29:30Z</time>
      </trkpt>
      <trkpt lat="45.93573" lon="4.77539">
        <ele>169</ele>
        <time>2018-07-10T08:29:31Z</time>
      </trkpt>
      <trkpt lat="45.93575" lon="4.77546">
        <ele>169</ele>
        <time>2018-07-10T08:29:32Z</time>
      </trkpt>
      <trkpt lat="45.93581" lon="4.77554">
        <ele>169</ele>
        <time>2018-07-10T08:29:33Z</time>
      </trkpt>
      <trkpt lat="45.93584" lon="4.77562">
        <ele>170</ele>
        <time>2018-07-10T08:29:34Z</time>
      </trkpt>
      <trkpt lat="45.93586" lon="4.77571">
        <ele>170</ele>
        <time>2018-07-10T08:29:35Z</time>
      </trkpt>
      <trkpt lat="45.9359" lon="4.77579">
        <ele>170</ele>
        <time>2018-07-10T08:29:36Z</time>
      </trkpt>
      <trkpt lat="45.93592" lon="4.77586">
        <ele>170</ele>
        <time>2018-07-10T08:29:37Z</time>
      </trkpt>
      <trkpt lat="45.93594" lon="4.77593">
        <ele>170</ele>
        <time>2018-07-10T08:29:38Z</time>
      </trkpt>
      <trkpt lat="45.93596" lon="4.776">
        <ele>170</ele>
        <time>2018-07-10T08:29:39Z</time>
      </trkpt>
      <trkpt lat="45.93598" lon="4.77607">
        <ele>170</ele>
        <time>2018-07-10T08:29:40Z</time>
      </trkpt>
      <trkpt lat="45.936" lon="4.77614">
        <ele>170</ele>
        <time>2018-07-10T08:29:41Z</time>
      </trkpt>
      <trkpt lat="45.93602" lon="4.77621">
        <ele>170</ele>
        <time>2018-07-10T08:29:42Z</time>
      </trkpt>
      <trkpt lat="45.93605" lon="4.77628">
        <ele>169</ele>
        <time>2018-07-10T08:29:43Z</time>
      </trkpt>
      <trkpt lat="45.93607" lon="4.77636">
        <ele>169</ele>
        <time>2018-07-10T08:29:44Z</time>
      </trkpt>
      <trkpt lat="45.93609" lon="4.77642">
        <ele>169</ele>
        <time>2018-07-10T08:29:45Z</time>
      </trkpt>
      <trkpt lat="45.93612" lon="4.77651">
        <ele>169</ele>
        <time>2018-07-10T08:29:46Z</time>
      </trkpt>
      <trkpt lat="45.93615" lon="4.77658">
        <ele>169</ele>
        <time>2018-07-10T08:29:47Z</time>
      </trkpt>
      <trkpt lat="45.93619" lon="4.77664">
        <ele>169</ele>
        <time>2018-07-10T08:29:48Z</time>
      </trkpt>
      <trkpt lat="45.93621" lon="4.77671">
        <ele>169</ele>
        <time>2018-07-10T08:29:49Z</time>
      </trkpt>
      <trkpt lat="45.93624" lon="4.77677">
        <ele>169</ele>
        <time>2018-07-10T08:29:50Z</time>
      </trkpt>
      <trkpt lat="45.93627" lon="4.77683">
        <ele>169</ele>
        <time>2018-07-10T08:29:51Z</time>
      </trkpt>
      <trkpt lat="45.93629" lon="4.7769">
        <ele>169</ele>
        <time>2018-07-10T08:29:52Z</time>
      </trkpt>
      <trkpt lat="45.93631" lon="4.77697">
        <ele>169</ele>
        <time>2018-07-10T08:29:53Z</time>
      </trkpt>
      <trkpt lat="45.93634" lon="4.77704">
        <ele>170</ele>
        <time>2018-07-10T08:29:54Z</time>
      </trkpt>
      <trkpt lat="45.93636" lon="4.77708">
        <ele>170</ele>
        <time>2018-07-10T08:29:55Z</time>
      </trkpt>
      <trkpt lat="45.93642" lon="4.77717">
        <ele>170</ele>
        <time>2018-07-10T08:29:57Z</time>
      </trkpt>
      <trkpt lat="45.93644" lon="4.77722">
        <ele>170</ele>
        <time>2018-07-10T08:29:58Z</time>
      </trkpt>
      <trkpt lat="45.93648" lon="4.77726">
        <ele>170</ele>
        <time>2018-07-10T08:29:59Z</time>
      </trkpt>
      <trkpt lat="45.93651" lon="4.77731">
        <ele>170</ele>
        <time>2018-07-10T08:30:00Z</time>
      </trkpt>
      <trkpt lat="45.93654" lon="4.77735">
        <ele>170</ele>
        <time>2018-07-10T08:30:01Z</time>
      </trkpt>
      <trkpt lat="45.93657" lon="4.77741">
        <ele>170</ele>
        <time>2018-07-10T08:30:02Z</time>
      </trkpt>
      <trkpt lat="45.93661" lon="4.77746">
        <ele>171</ele>
        <time>2018-07-10T08:30:03Z</time>
      </trkpt>
      <trkpt lat="45.93664" lon="4.7775">
        <ele>171</ele>
        <time>2018-07-10T08:30:04Z</time>
      </trkpt>
      <trkpt lat="45.93667" lon="4.77754">
        <ele>171</ele>
        <time>2018-07-10T08:30:05Z</time>
      </trkpt>
      <trkpt lat="45.9367" lon="4.7776">
        <ele>170</ele>
        <time>2018-07-10T08:30:06Z</time>
      </trkpt>
      <trkpt lat="45.93676" lon="4.77768">
        <ele>170</ele>
        <time>2018-07-10T08:30:08Z</time>
      </trkpt>
      <trkpt lat="45.93679" lon="4.77773">
        <ele>170</ele>
        <time>2018-07-10T08:30:09Z</time>
      </trkpt>
      <trkpt lat="45.93683" lon="4.77778">
        <ele>170</ele>
        <time>2018-07-10T08:30:10Z</time>
      </trkpt>
      <trkpt lat="45.93686" lon="4.77782">
        <ele>170</ele>
        <time>2018-07-10T08:30:11Z</time>
      </trkpt>
      <trkpt lat="45.93693" lon="4.77789">
        <ele>170</ele>
        <time>2018-07-10T08:30:13Z</time>
      </trkpt>
      <trkpt lat="45.93695" lon="4.77794">
        <ele>169</ele>
        <time>2018-07-10T08:30:14Z</time>
      </trkpt>
      <trkpt lat="45.93701" lon="4.77802">
        <ele>169</ele>
        <time>2018-07-10T08:30:16Z</time>
      </trkpt>
      <trkpt lat="45.93703" lon="4.77806">
        <ele>169</ele>
        <time>2018-07-10T08:30:17Z</time>
      </trkpt>
      <trkpt lat="45.93709" lon="4.77814">
        <ele>169</ele>
        <time>2018-07-10T08:30:19Z</time>
      </trkpt>
      <trkpt lat="45.93712" lon="4.77818">
        <ele>169</ele>
        <time>2018-07-10T08:30:20Z</time>
      </trkpt>
      <trkpt lat="45.93719" lon="4.77826">
        <ele>168</ele>
        <time>2018-07-10T08:30:22Z</time>
      </trkpt>
      <trkpt lat="45.93723" lon="4.77831">
        <ele>168</ele>
        <time>2018-07-10T08:30:23Z</time>
      </trkpt>
      <trkpt lat="45.93727" lon="4.77835">
        <ele>167</ele>
        <time>2018-07-10T08:30:24Z</time>
      </trkpt>
      <trkpt lat="45.93731" lon="4.7784">
        <ele>167</ele>
        <time>2018-07-10T08:30:25Z</time>
      </trkpt>
      <trkpt lat="45.93734" lon="4.77844">
        <ele>167</ele>
        <time>2018-07-10T08:30:26Z</time>
      </trkpt>
      <trkpt lat="45.93739" lon="4.77848">
        <ele>167</ele>
        <time>2018-07-10T08:30:27Z</time>
      </trkpt>
      <trkpt lat="45.93744" lon="4.77857">
        <ele>167</ele>
        <time>2018-07-10T08:30:29Z</time>
      </trkpt>
      <trkpt lat="45.93748" lon="4.77862">
        <ele>167</ele>
        <time>2018-07-10T08:30:30Z</time>
      </trkpt>
      <trkpt lat="45.93752" lon="4.77866">
        <ele>166</ele>
        <time>2018-07-10T08:30:31Z</time>
      </trkpt>
      <trkpt lat="45.93755" lon="4.77871">
        <ele>166</ele>
        <time>2018-07-10T08:30:32Z</time>
      </trkpt>
      <trkpt lat="45.93762" lon="4.77879">
        <ele>166</ele>
        <time>2018-07-10T08:30:34Z</time>
      </trkpt>
      <trkpt lat="45.93765" lon="4.77884">
        <ele>166</ele>
        <time>2018-07-10T08:30:35Z</time>
      </trkpt>
      <trkpt lat="45.93769" lon="4.77888">
        <ele>166</ele>
        <time>2018-07-10T08:30:36Z</time>
      </trkpt>
      <trkpt lat="45.93772" lon="4.77892">
        <ele>166</ele>
        <time>2018-07-10T08:30:37Z</time>
      </trkpt>
      <trkpt lat="45.93778" lon="4.77901">
        <ele>166</ele>
        <time>2018-07-10T08:30:39Z</time>
      </trkpt>
      <trkpt lat="45.93782" lon="4.77906">
        <ele>166</ele>
        <time>2018-07-10T08:30:40Z</time>
      </trkpt>
      <trkpt lat="45.93785" lon="4.77911">
        <ele>166</ele>
        <time>2018-07-10T08:30:41Z</time>
      </trkpt>
      <trkpt lat="45.93789" lon="4.77917">
        <ele>168</ele>
        <time>2018-07-10T08:30:42Z</time>
      </trkpt>
      <trkpt lat="45.93795" lon="4.77926">
        <ele>168</ele>
        <time>2018-07-10T08:30:44Z</time>
      </trkpt>
      <trkpt lat="45.93798" lon="4.7793">
        <ele>168</ele>
        <time>2018-07-10T08:30:45Z</time>
      </trkpt>
      <trkpt lat="45.93802" lon="4.77935">
        <ele>169</ele>
        <time>2018-07-10T08:30:46Z</time>
      </trkpt>
      <trkpt lat="45.93806" lon="4.7794">
        <ele>169</ele>
        <time>2018-07-10T08:30:47Z</time>
      </trkpt>
      <trkpt lat="45.93809" lon="4.77944">
        <ele>169</ele>
        <time>2018-07-10T08:30:48Z</time>
      </trkpt>
      <trkpt lat="45.93813" lon="4.77949">
        <ele>169</ele>
        <time>2018-07-10T08:30:49Z</time>
      </trkpt>
      <trkpt lat="45.93817" lon="4.77954">
        <ele>170</ele>
        <time>2018-07-10T08:30:50Z</time>
      </trkpt>
      <trkpt lat="45.93822" lon="4.77959">
        <ele>170</ele>
        <time>2018-07-10T08:30:51Z</time>
      </trkpt>
      <trkpt lat="45.93825" lon="4.77963">
        <ele>171</ele>
        <time>2018-07-10T08:30:52Z</time>
      </trkpt>
      <trkpt lat="45.93829" lon="4.77969">
        <ele>172</ele>
        <time>2018-07-10T08:30:53Z</time>
      </trkpt>
      <trkpt lat="45.93832" lon="4.77975">
        <ele>173</ele>
        <time>2018-07-10T08:30:54Z</time>
      </trkpt>
      <trkpt lat="45.93837" lon="4.7798">
        <ele>178</ele>
        <time>2018-07-10T08:30:55Z</time>
      </trkpt>
      <trkpt lat="45.93842" lon="4.77987">
        <ele>179</ele>
        <time>2018-07-10T08:30:56Z</time>
      </trkpt>
      <trkpt lat="45.93845" lon="4.77994">
        <ele>179</ele>
        <time>2018-07-10T08:30:57Z</time>
      </trkpt>
      <trkpt lat="45.93845" lon="4.78002">
        <ele>181</ele>
        <time>2018-07-10T08:30:58Z</time>
      </trkpt>
      <trkpt lat="45.93847" lon="4.7801">
        <ele>181</ele>
        <time>2018-07-10T08:30:59Z</time>
      </trkpt>
      <trkpt lat="45.93848" lon="4.78017">
        <ele>182</ele>
        <time>2018-07-10T08:31:00Z</time>
      </trkpt>
      <trkpt lat="45.9385" lon="4.78024">
        <ele>182</ele>
        <time>2018-07-10T08:31:01Z</time>
      </trkpt>
      <trkpt lat="45.93854" lon="4.78029">
        <ele>183</ele>
        <time>2018-07-10T08:31:02Z</time>
      </trkpt>
      <trkpt lat="45.93858" lon="4.78032">
        <ele>183</ele>
        <time>2018-07-10T08:31:03Z</time>
      </trkpt>
      <trkpt lat="45.93866" lon="4.78032">
        <ele>183</ele>
        <time>2018-07-10T08:31:05Z</time>
      </trkpt>
      <trkpt lat="45.93871" lon="4.78031">
        <ele>183</ele>
        <time>2018-07-10T08:31:06Z</time>
      </trkpt>
      <trkpt lat="45.93878" lon="4.78029">
        <ele>184</ele>
        <time>2018-07-10T08:31:09Z</time>
      </trkpt>
      <trkpt lat="45.93884" lon="4.78026">
        <ele>184</ele>
        <time>2018-07-10T08:31:10Z</time>
      </trkpt>
      <trkpt lat="45.93891" lon="4.78019">
        <ele>184</ele>
        <time>2018-07-10T08:31:14Z</time>
      </trkpt>
      <trkpt lat="45.93894" lon="4.78016">
        <ele>184</ele>
        <time>2018-07-10T08:31:15Z</time>
      </trkpt>
      <trkpt lat="45.93899" lon="4.78009">
        <ele>185</ele>
        <time>2018-07-10T08:31:18Z</time>
      </trkpt>
      <trkpt lat="45.939" lon="4.78007">
        <ele>185</ele>
        <time>2018-07-10T08:31:19Z</time>
      </trkpt>
      <trkpt lat="45.93905" lon="4.77998">
        <ele>183</ele>
        <time>2018-07-10T08:31:23Z</time>
      </trkpt>
      <trkpt lat="45.93906" lon="4.77996">
        <ele>184</ele>
        <time>2018-07-10T08:31:24Z</time>
      </trkpt>
      <trkpt lat="45.93912" lon="4.77988">
        <ele>183</ele>
        <time>2018-07-10T08:31:28Z</time>
      </trkpt>
      <trkpt lat="45.93914" lon="4.77987">
        <ele>183</ele>
        <time>2018-07-10T08:31:29Z</time>
      </trkpt>
      <trkpt lat="45.93921" lon="4.77979">
        <ele>188</ele>
        <time>2018-07-10T08:31:33Z</time>
      </trkpt>
      <trkpt lat="45.93923" lon="4.77978">
        <ele>188</ele>
        <time>2018-07-10T08:31:34Z</time>
      </trkpt>
      <trkpt lat="45.9393" lon="4.77972">
        <ele>189</ele>
        <time>2018-07-10T08:31:38Z</time>
      </trkpt>
      <trkpt lat="45.93932" lon="4.7797">
        <ele>189</ele>
        <time>2018-07-10T08:31:39Z</time>
      </trkpt>
      <trkpt lat="45.93938" lon="4.77966">
        <ele>189</ele>
        <time>2018-07-10T08:31:42Z</time>
      </trkpt>
      <trkpt lat="45.93941" lon="4.77965">
        <ele>189</ele>
        <time>2018-07-10T08:31:43Z</time>
      </trkpt>
      <trkpt lat="45.93948" lon="4.77961">
        <ele>189</ele>
        <time>2018-07-10T08:31:47Z</time>
      </trkpt>
      <trkpt lat="45.9395" lon="4.7796">
        <ele>190</ele>
        <time>2018-07-10T08:31:48Z</time>
      </trkpt>
      <trkpt lat="45.93958" lon="4.77956">
        <ele>190</ele>
        <time>2018-07-10T08:31:52Z</time>
      </trkpt>
      <trkpt lat="45.9396" lon="4.77955">
        <ele>190</ele>
        <time>2018-07-10T08:31:53Z</time>
      </trkpt>
      <trkpt lat="45.93969" lon="4.77951">
        <ele>191</ele>
        <time>2018-07-10T08:31:57Z</time>
      </trkpt>
      <trkpt lat="45.9397" lon="4.77951">
        <ele>191</ele>
        <time>2018-07-10T08:31:58Z</time>
      </trkpt>
      <trkpt lat="45.93978" lon="4.77948">
        <ele>191</ele>
        <time>2018-07-10T08:32:03Z</time>
      </trkpt>
      <trkpt lat="45.9398" lon="4.77948">
        <ele>191</ele>
        <time>2018-07-10T08:32:04Z</time>
      </trkpt>
      <trkpt lat="45.93988" lon="4.77944">
        <ele>192</ele>
        <time>2018-07-10T08:32:08Z</time>
      </trkpt>
      <trkpt lat="45.9399" lon="4.77942">
        <ele>192</ele>
        <time>2018-07-10T08:32:09Z</time>
      </trkpt>
      <trkpt lat="45.93997" lon="4.77935">
        <ele>192</ele>
        <time>2018-07-10T08:32:13Z</time>
      </trkpt>
      <trkpt lat="45.93999" lon="4.77934">
        <ele>192</ele>
        <time>2018-07-10T08:32:14Z</time>
      </trkpt>
      <trkpt lat="45.94007" lon="4.77931">
        <ele>197</ele>
        <time>2018-07-10T08:32:18Z</time>
      </trkpt>
      <trkpt lat="45.94009" lon="4.77931">
        <ele>198</ele>
        <time>2018-07-10T08:32:19Z</time>
      </trkpt>
      <trkpt lat="45.94015" lon="4.77939">
        <ele>199</ele>
        <time>2018-07-10T08:32:24Z</time>
      </trkpt>
      <trkpt lat="45.94015" lon="4.77942">
        <ele>199</ele>
        <time>2018-07-10T08:32:25Z</time>
      </trkpt>
      <trkpt lat="45.94017" lon="4.77951">
        <ele>200</ele>
        <time>2018-07-10T08:32:28Z</time>
      </trkpt>
      <trkpt lat="45.94017" lon="4.77954">
        <ele>200</ele>
        <time>2018-07-10T08:32:29Z</time>
      </trkpt>
      <trkpt lat="45.94016" lon="4.77965">
        <ele>200</ele>
        <time>2018-07-10T08:32:32Z</time>
      </trkpt>
      <trkpt lat="45.94015" lon="4.77969">
        <ele>200</ele>
        <time>2018-07-10T08:32:33Z</time>
      </trkpt>
      <trkpt lat="45.94013" lon="4.7798">
        <ele>199</ele>
        <time>2018-07-10T08:32:36Z</time>
      </trkpt>
      <trkpt lat="45.94012" lon="4.77983">
        <ele>199</ele>
        <time>2018-07-10T08:32:37Z</time>
      </trkpt>
      <trkpt lat="45.94012" lon="4.77987">
        <ele>199</ele>
        <time>2018-07-10T08:32:38Z</time>
      </trkpt>
      <trkpt lat="45.9401" lon="4.77998">
        <ele>198</ele>
        <time>2018-07-10T08:32:39Z</time>
      </trkpt>
      <trkpt lat="45.94009" lon="4.7801">
        <ele>199</ele>
        <time>2018-07-10T08:32:44Z</time>
      </trkpt>
      <trkpt lat="45.94009" lon="4.78013">
        <ele>199</ele>
        <time>2018-07-10T08:32:45Z</time>
      </trkpt>
      <trkpt lat="45.94008" lon="4.78022">
        <ele>200</ele>
        <time>2018-07-10T08:32:48Z</time>
      </trkpt>
      <trkpt lat="45.94008" lon="4.78026">
        <ele>200</ele>
        <time>2018-07-10T08:32:49Z</time>
      </trkpt>
      <trkpt lat="45.94006" lon="4.78037">
        <ele>201</ele>
        <time>2018-07-10T08:32:52Z</time>
      </trkpt>
      <trkpt lat="45.94005" lon="4.78041">
        <ele>201</ele>
        <time>2018-07-10T08:32:53Z</time>
      </trkpt>
      <trkpt lat="45.94003" lon="4.7805">
        <ele>201</ele>
        <time>2018-07-10T08:32:55Z</time>
      </trkpt>
      <trkpt lat="45.94002" lon="4.78054">
        <ele>201</ele>
        <time>2018-07-10T08:32:56Z</time>
      </trkpt>
      <trkpt lat="45.94001" lon="4.78063">
        <ele>201</ele>
        <time>2018-07-10T08:32:58Z</time>
      </trkpt>
      <trkpt lat="45.94" lon="4.78067">
        <ele>201</ele>
        <time>2018-07-10T08:32:59Z</time>
      </trkpt>
      <trkpt lat="45.93999" lon="4.78077">
        <ele>198</ele>
        <time>2018-07-10T08:33:01Z</time>
      </trkpt>
      <trkpt lat="45.93998" lon="4.78082">
        <ele>198</ele>
        <time>2018-07-10T08:33:02Z</time>
      </trkpt>
      <trkpt lat="45.93997" lon="4.78092">
        <ele>198</ele>
        <time>2018-07-10T08:33:04Z</time>
      </trkpt>
      <trkpt lat="45.93996" lon="4.78097">
        <ele>198</ele>
        <time>2018-07-10T08:33:05Z</time>
      </trkpt>
      <trkpt lat="45.93994" lon="4.78107">
        <ele>197</ele>
        <time>2018-07-10T08:33:07Z</time>
      </trkpt>
      <trkpt lat="45.93994" lon="4.78111">
        <ele>197</ele>
        <time>2018-07-10T08:33:08Z</time>
      </trkpt>
      <trkpt lat="45.93992" lon="4.78124">
        <ele>197</ele>
        <time>2018-07-10T08:33:11Z</time>
      </trkpt>
      <trkpt lat="45.9399" lon="4.78138">
        <ele>198</ele>
        <time>2018-07-10T08:33:12Z</time>
      </trkpt>
      <trkpt lat="45.93989" lon="4.78147">
        <ele>198</ele>
        <time>2018-07-10T08:33:14Z</time>
      </trkpt>
      <trkpt lat="45.9399" lon="4.78151">
        <ele>198</ele>
        <time>2018-07-10T08:33:15Z</time>
      </trkpt>
      <trkpt lat="45.93991" lon="4.78155">
        <ele>199</ele>
        <time>2018-07-10T08:33:16Z</time>
      </trkpt>
      <trkpt lat="45.93995" lon="4.78164">
        <ele>200</ele>
        <time>2018-07-10T08:33:17Z</time>
      </trkpt>
      <trkpt lat="45.94001" lon="4.78169">
        <ele>201</ele>
        <time>2018-07-10T08:33:20Z</time>
      </trkpt>
      <trkpt lat="45.94003" lon="4.7817">
        <ele>202</ele>
        <time>2018-07-10T08:33:21Z</time>
      </trkpt>
      <trkpt lat="45.9401" lon="4.78175">
        <ele>203</ele>
        <time>2018-07-10T08:33:24Z</time>
      </trkpt>
      <trkpt lat="45.94012" lon="4.78177">
        <ele>203</ele>
        <time>2018-07-10T08:33:25Z</time>
      </trkpt>
      <trkpt lat="45.94018" lon="4.78178">
        <ele>203</ele>
        <time>2018-07-10T08:33:29Z</time>
      </trkpt>
      <trkpt lat="45.94023" lon="4.7818">
        <ele>204</ele>
        <time>2018-07-10T08:33:30Z</time>
      </trkpt>
      <trkpt lat="45.94029" lon="4.78183">
        <ele>204</ele>
        <time>2018-07-10T08:33:32Z</time>
      </trkpt>
      <trkpt lat="45.94031" lon="4.78185">
        <ele>204</ele>
        <time>2018-07-10T08:33:33Z</time>
      </trkpt>
      <trkpt lat="45.94037" lon="4.78191">
        <ele>205</ele>
        <time>2018-07-10T08:33:36Z</time>
      </trkpt>
      <trkpt lat="45.94039" lon="4.78192">
        <ele>205</ele>
        <time>2018-07-10T08:33:37Z</time>
      </trkpt>
      <trkpt lat="45.94047" lon="4.78198">
        <ele>205</ele>
        <time>2018-07-10T08:33:41Z</time>
      </trkpt>
      <trkpt lat="45.94048" lon="4.782">
        <ele>205</ele>
        <time>2018-07-10T08:33:42Z</time>
      </trkpt>
      <trkpt lat="45.94054" lon="4.78205">
        <ele>205</ele>
        <time>2018-07-10T08:33:45Z</time>
      </trkpt>
      <trkpt lat="45.94056" lon="4.78207">
        <ele>206</ele>
        <time>2018-07-10T08:33:46Z</time>
      </trkpt>
      <trkpt lat="45.94061" lon="4.78214">
        <ele>206</ele>
        <time>2018-07-10T08:33:49Z</time>
      </trkpt>
      <trkpt lat="45.94064" lon="4.78216">
        <ele>206</ele>
        <time>2018-07-10T08:33:50Z</time>
      </trkpt>
      <trkpt lat="45.94071" lon="4.78221">
        <ele>206</ele>
        <time>2018-07-10T08:33:53Z</time>
      </trkpt>
      <trkpt lat="45.94073" lon="4.78222">
        <ele>206</ele>
        <time>2018-07-10T08:33:54Z</time>
      </trkpt>
      <trkpt lat="45.9408" lon="4.78227">
        <ele>206</ele>
        <time>2018-07-10T08:33:57Z</time>
      </trkpt>
      <trkpt lat="45.94082" lon="4.78229">
        <ele>206</ele>
        <time>2018-07-10T08:33:58Z</time>
      </trkpt>
      <trkpt lat="45.94088" lon="4.78233">
        <ele>212</ele>
        <time>2018-07-10T08:34:01Z</time>
      </trkpt>
      <trkpt lat="45.94091" lon="4.78234">
        <ele>212</ele>
        <time>2018-07-10T08:34:02Z</time>
      </trkpt>
      <trkpt lat="45.94097" lon="4.7824">
        <ele>212</ele>
        <time>2018-07-10T08:34:05Z</time>
      </trkpt>
      <trkpt lat="45.94099" lon="4.78242">
        <ele>212</ele>
        <time>2018-07-10T08:34:06Z</time>
      </trkpt>
      <trkpt lat="45.94104" lon="4.78249">
        <ele>212</ele>
        <time>2018-07-10T08:34:09Z</time>
      </trkpt>
      <trkpt lat="45.94106" lon="4.78251">
        <ele>212</ele>
        <time>2018-07-10T08:34:10Z</time>
      </trkpt>
      <trkpt lat="45.94113" lon="4.78256">
        <ele>213</ele>
        <time>2018-07-10T08:34:14Z</time>
      </trkpt>
      <trkpt lat="45.94115" lon="4.78257">
        <ele>213</ele>
        <time>2018-07-10T08:34:15Z</time>
      </trkpt>
      <trkpt lat="45.94124" lon="4.78258">
        <ele>214</ele>
        <time>2018-07-10T08:34:19Z</time>
      </trkpt>
      <trkpt lat="45.94127" lon="4.78259">
        <ele>214</ele>
        <time>2018-07-10T08:34:20Z</time>
      </trkpt>
      <trkpt lat="45.94135" lon="4.78262">
        <ele>215</ele>
        <time>2018-07-10T08:34:23Z</time>
      </trkpt>
      <trkpt lat="45.94138" lon="4.78264">
        <ele>215</ele>
        <time>2018-07-10T08:34:24Z</time>
      </trkpt>
      <trkpt lat="45.94144" lon="4.78267">
        <ele>215</ele>
        <time>2018-07-10T08:34:26Z</time>
      </trkpt>
      <trkpt lat="45.94147" lon="4.78268">
        <ele>215</ele>
        <time>2018-07-10T08:34:27Z</time>
      </trkpt>
      <trkpt lat="45.94157" lon="4.78273">
        <ele>216</ele>
        <time>2018-07-10T08:34:28Z</time>
      </trkpt>
      <trkpt lat="45.94163" lon="4.78277">
        <ele>216</ele>
        <time>2018-07-10T08:34:31Z</time>
      </trkpt>
      <trkpt lat="45.94166" lon="4.78279">
        <ele>216</ele>
        <time>2018-07-10T08:34:32Z</time>
      </trkpt>
      <trkpt lat="45.94174" lon="4.78284">
        <ele>221</ele>
        <time>2018-07-10T08:34:35Z</time>
      </trkpt>
      <trkpt lat="45.94176" lon="4.78286">
        <ele>221</ele>
        <time>2018-07-10T08:34:36Z</time>
      </trkpt>
      <trkpt lat="45.94183" lon="4.78291">
        <ele>221</ele>
        <time>2018-07-10T08:34:39Z</time>
      </trkpt>
      <trkpt lat="45.94186" lon="4.78292">
        <ele>221</ele>
        <time>2018-07-10T08:34:40Z</time>
      </trkpt>
      <trkpt lat="45.94194" lon="4.78295">
        <ele>221</ele>
        <time>2018-07-10T08:34:43Z</time>
      </trkpt>
      <trkpt lat="45.94197" lon="4.78295">
        <ele>221</ele>
        <time>2018-07-10T08:34:44Z</time>
      </trkpt>
      <trkpt lat="45.942" lon="4.78296">
        <ele>221</ele>
        <time>2018-07-10T08:34:45Z</time>
      </trkpt>
      <trkpt lat="45.94208" lon="4.78297">
        <ele>221</ele>
        <time>2018-07-10T08:34:46Z</time>
      </trkpt>
      <trkpt lat="45.94216" lon="4.78298">
        <ele>222</ele>
        <time>2018-07-10T08:34:50Z</time>
      </trkpt>
      <trkpt lat="45.94218" lon="4.78298">
        <ele>222</ele>
        <time>2018-07-10T08:34:51Z</time>
      </trkpt>
      <trkpt lat="45.94225" lon="4.783">
        <ele>222</ele>
        <time>2018-07-10T08:34:54Z</time>
      </trkpt>
      <trkpt lat="45.94227" lon="4.78301">
        <ele>222</ele>
        <time>2018-07-10T08:34:55Z</time>
      </trkpt>
      <trkpt lat="45.94236" lon="4.78303">
        <ele>222</ele>
        <time>2018-07-10T08:34:58Z</time>
      </trkpt>
      <trkpt lat="45.94239" lon="4.78304">
        <ele>222</ele>
        <time>2018-07-10T08:34:59Z</time>
      </trkpt>
      <trkpt lat="45.94247" lon="4.78306">
        <ele>222</ele>
        <time>2018-07-10T08:35:02Z</time>
      </trkpt>
      <trkpt lat="45.9425" lon="4.78307">
        <ele>222</ele>
        <time>2018-07-10T08:35:03Z</time>
      </trkpt>
      <trkpt lat="45.94256" lon="4.78308">
        <ele>227</ele>
        <time>2018-07-10T08:35:05Z</time>
      </trkpt>
      <trkpt lat="45.94259" lon="4.78309">
        <ele>227</ele>
        <time>2018-07-10T08:35:06Z</time>
      </trkpt>
      <trkpt lat="45.94265" lon="4.78312">
        <ele>227</ele>
        <time>2018-07-10T08:35:08Z</time>
      </trkpt>
      <trkpt lat="45.94268" lon="4.78314">
        <ele>227</ele>
        <time>2018-07-10T08:35:09Z</time>
      </trkpt>
      <trkpt lat="45.94273" lon="4.78319">
        <ele>227</ele>
        <time>2018-07-10T08:35:11Z</time>
      </trkpt>
      <trkpt lat="45.94276" lon="4.78322">
        <ele>227</ele>
        <time>2018-07-10T08:35:12Z</time>
      </trkpt>
      <trkpt lat="45.94281" lon="4.78327">
        <ele>228</ele>
        <time>2018-07-10T08:35:14Z</time>
      </trkpt>
      <trkpt lat="45.94283" lon="4.7833">
        <ele>228</ele>
        <time>2018-07-10T08:35:15Z</time>
      </trkpt>
      <trkpt lat="45.94288" lon="4.78337">
        <ele>228</ele>
        <time>2018-07-10T08:35:17Z</time>
      </trkpt>
      <trkpt lat="45.9429" lon="4.7834">
        <ele>228</ele>
        <time>2018-07-10T08:35:18Z</time>
      </trkpt>
      <trkpt lat="45.94296" lon="4.78349">
        <ele>228</ele>
        <time>2018-07-10T08:35:21Z</time>
      </trkpt>
      <trkpt lat="45.94298" lon="4.78352">
        <ele>229</ele>
        <time>2018-07-10T08:35:22Z</time>
      </trkpt>
      <trkpt lat="45.94303" lon="4.78362">
        <ele>229</ele>
        <time>2018-07-10T08:35:25Z</time>
      </trkpt>
      <trkpt lat="45.94304" lon="4.78366">
        <ele>229</ele>
        <time>2018-07-10T08:35:26Z</time>
      </trkpt>
      <trkpt lat="45.94309" lon="4.78376">
        <ele>230</ele>
        <time>2018-07-10T08:35:29Z</time>
      </trkpt>
      <trkpt lat="45.9431" lon="4.7838">
        <ele>230</ele>
        <time>2018-07-10T08:35:30Z</time>
      </trkpt>
      <trkpt lat="45.94314" lon="4.78389">
        <ele>230</ele>
        <time>2018-07-10T08:35:33Z</time>
      </trkpt>
      <trkpt lat="45.94316" lon="4.78393">
        <ele>230</ele>
        <time>2018-07-10T08:35:34Z</time>
      </trkpt>
      <trkpt lat="45.94321" lon="4.78403">
        <ele>230</ele>
        <time>2018-07-10T08:35:37Z</time>
      </trkpt>
      <trkpt lat="45.94322" lon="4.78406">
        <ele>230</ele>
        <time>2018-07-10T08:35:38Z</time>
      </trkpt>
      <trkpt lat="45.94327" lon="4.78416">
        <ele>229</ele>
        <time>2018-07-10T08:35:41Z</time>
      </trkpt>
      <trkpt lat="45.94328" lon="4.78419">
        <ele>231</ele>
        <time>2018-07-10T08:35:42Z</time>
      </trkpt>
      <trkpt lat="45.94333" lon="4.78427">
        <ele>233</ele>
        <time>2018-07-10T08:35:45Z</time>
      </trkpt>
      <trkpt lat="45.94334" lon="4.7843">
        <ele>232</ele>
        <time>2018-07-10T08:35:46Z</time>
      </trkpt>
      <trkpt lat="45.94339" lon="4.78439">
        <ele>233</ele>
        <time>2018-07-10T08:35:49Z</time>
      </trkpt>
      <trkpt lat="45.94341" lon="4.78442">
        <ele>234</ele>
        <time>2018-07-10T08:35:50Z</time>
      </trkpt>
      <trkpt lat="45.94347" lon="4.7845">
        <ele>235</ele>
        <time>2018-07-10T08:35:53Z</time>
      </trkpt>
      <trkpt lat="45.94349" lon="4.78452">
        <ele>235</ele>
        <time>2018-07-10T08:35:54Z</time>
      </trkpt>
      <trkpt lat="45.94355" lon="4.7846">
        <ele>236</ele>
        <time>2018-07-10T08:35:57Z</time>
      </trkpt>
      <trkpt lat="45.94357" lon="4.78462">
        <ele>236</ele>
        <time>2018-07-10T08:35:58Z</time>
      </trkpt>
      <trkpt lat="45.94363" lon="4.7847">
        <ele>236</ele>
        <time>2018-07-10T08:36:01Z</time>
      </trkpt>
      <trkpt lat="45.94365" lon="4.78472">
        <ele>236</ele>
        <time>2018-07-10T08:36:02Z</time>
      </trkpt>
      <trkpt lat="45.9437" lon="4.78479">
        <ele>236</ele>
        <time>2018-07-10T08:36:05Z</time>
      </trkpt>
      <trkpt lat="45.94371" lon="4.78482">
        <ele>236</ele>
        <time>2018-07-10T08:36:06Z</time>
      </trkpt>
      <trkpt lat="45.94376" lon="4.78489">
        <ele>236</ele>
        <time>2018-07-10T08:36:09Z</time>
      </trkpt>
      <trkpt lat="45.94378" lon="4.78491">
        <ele>236</ele>
        <time>2018-07-10T08:36:10Z</time>
      </trkpt>
      <trkpt lat="45.94384" lon="4.78499">
        <ele>236</ele>
        <time>2018-07-10T08:36:13Z</time>
      </trkpt>
      <trkpt lat="45.94387" lon="4.78501">
        <ele>238</ele>
        <time>2018-07-10T08:36:14Z</time>
      </trkpt>
      <trkpt lat="45.94392" lon="4.7851">
        <ele>237</ele>
        <time>2018-07-10T08:36:17Z</time>
      </trkpt>
      <trkpt lat="45.94394" lon="4.78514">
        <ele>237</ele>
        <time>2018-07-10T08:36:18Z</time>
      </trkpt>
      <trkpt lat="45.944" lon="4.78521">
        <ele>237</ele>
        <time>2018-07-10T08:36:21Z</time>
      </trkpt>
      <trkpt lat="45.94403" lon="4.78524">
        <ele>237</ele>
        <time>2018-07-10T08:36:22Z</time>
      </trkpt>
      <trkpt lat="45.94409" lon="4.78531">
        <ele>237</ele>
        <time>2018-07-10T08:36:25Z</time>
      </trkpt>
      <trkpt lat="45.94411" lon="4.78533">
        <ele>238</ele>
        <time>2018-07-10T08:36:26Z</time>
      </trkpt>
      <trkpt lat="45.94417" lon="4.78541">
        <ele>238</ele>
        <time>2018-07-10T08:36:29Z</time>
      </trkpt>
      <trkpt lat="45.94419" lon="4.78544">
        <ele>238</ele>
        <time>2018-07-10T08:36:30Z</time>
      </trkpt>
      <trkpt lat="45.94425" lon="4.78552">
        <ele>238</ele>
        <time>2018-07-10T08:36:33Z</time>
      </trkpt>
      <trkpt lat="45.94426" lon="4.78555">
        <ele>238</ele>
        <time>2018-07-10T08:36:34Z</time>
      </trkpt>
      <trkpt lat="45.94432" lon="4.78563">
        <ele>238</ele>
        <time>2018-07-10T08:36:37Z</time>
      </trkpt>
      <trkpt lat="45.94434" lon="4.78566">
        <ele>238</ele>
        <time>2018-07-10T08:36:38Z</time>
      </trkpt>
      <trkpt lat="45.9444" lon="4.78575">
        <ele>239</ele>
        <time>2018-07-10T08:36:41Z</time>
      </trkpt>
      <trkpt lat="45.94441" lon="4.78578">
        <ele>239</ele>
        <time>2018-07-10T08:36:42Z</time>
      </trkpt>
      <trkpt lat="45.94447" lon="4.78587">
        <ele>240</ele>
        <time>2018-07-10T08:36:45Z</time>
      </trkpt>
      <trkpt lat="45.94449" lon="4.7859">
        <ele>240</ele>
        <time>2018-07-10T08:36:46Z</time>
      </trkpt>
      <trkpt lat="45.94453" lon="4.78598">
        <ele>240</ele>
        <time>2018-07-10T08:36:49Z</time>
      </trkpt>
      <trkpt lat="45.94455" lon="4.78601">
        <ele>240</ele>
        <time>2018-07-10T08:36:50Z</time>
      </trkpt>
      <trkpt lat="45.9446" lon="4.7861">
        <ele>241</ele>
        <time>2018-07-10T08:36:53Z</time>
      </trkpt>
      <trkpt lat="45.94461" lon="4.78613">
        <ele>241</ele>
        <time>2018-07-10T08:36:54Z</time>
      </trkpt>
      <trkpt lat="45.94464" lon="4.78622">
        <ele>241</ele>
        <time>2018-07-10T08:36:57Z</time>
      </trkpt>
      <trkpt lat="45.94464" lon="4.78625">
        <ele>241</ele>
        <time>2018-07-10T08:36:58Z</time>
      </trkpt>
      <trkpt lat="45.94467" lon="4.78635">
        <ele>241</ele>
        <time>2018-07-10T08:37:01Z</time>
      </trkpt>
      <trkpt lat="45.94467" lon="4.78638">
        <ele>241</ele>
        <time>2018-07-10T08:37:02Z</time>
      </trkpt>
      <trkpt lat="45.94469" lon="4.7865">
        <ele>241</ele>
        <time>2018-07-10T08:37:06Z</time>
      </trkpt>
      <trkpt lat="45.94469" lon="4.78653">
        <ele>241</ele>
        <time>2018-07-10T08:37:07Z</time>
      </trkpt>
      <trkpt lat="45.94469" lon="4.78663">
        <ele>241</ele>
        <time>2018-07-10T08:37:10Z</time>
      </trkpt>
      <trkpt lat="45.9447" lon="4.78666">
        <ele>241</ele>
        <time>2018-07-10T08:37:11Z</time>
      </trkpt>
      <trkpt lat="45.94471" lon="4.78677">
        <ele>244</ele>
        <time>2018-07-10T08:37:15Z</time>
      </trkpt>
      <trkpt lat="45.94471" lon="4.7868">
        <ele>244</ele>
        <time>2018-07-10T08:37:16Z</time>
      </trkpt>
      <trkpt lat="45.94473" lon="4.78691">
        <ele>244</ele>
        <time>2018-07-10T08:37:20Z</time>
      </trkpt>
      <trkpt lat="45.94474" lon="4.78693">
        <ele>244</ele>
        <time>2018-07-10T08:37:21Z</time>
      </trkpt>
      <trkpt lat="45.94476" lon="4.78705">
        <ele>245</ele>
        <time>2018-07-10T08:37:26Z</time>
      </trkpt>
      <trkpt lat="45.94476" lon="4.78708">
        <ele>245</ele>
        <time>2018-07-10T08:37:27Z</time>
      </trkpt>
      <trkpt lat="45.94477" lon="4.7872">
        <ele>245</ele>
        <time>2018-07-10T08:37:31Z</time>
      </trkpt>
      <trkpt lat="45.94478" lon="4.78723">
        <ele>246</ele>
        <time>2018-07-10T08:37:32Z</time>
      </trkpt>
      <trkpt lat="45.94479" lon="4.78736">
        <ele>246</ele>
        <time>2018-07-10T08:37:38Z</time>
      </trkpt>
      <trkpt lat="45.94479" lon="4.78738">
        <ele>246</ele>
        <time>2018-07-10T08:37:39Z</time>
      </trkpt>
      <trkpt lat="45.94479" lon="4.7875">
        <ele>246</ele>
        <time>2018-07-10T08:37:44Z</time>
      </trkpt>
      <trkpt lat="45.94478" lon="4.78753">
        <ele>249</ele>
        <time>2018-07-10T08:37:45Z</time>
      </trkpt>
      <trkpt lat="45.94476" lon="4.78764">
        <ele>249</ele>
        <time>2018-07-10T08:37:50Z</time>
      </trkpt>
      <trkpt lat="45.94476" lon="4.78765">
        <ele>249</ele>
        <time>2018-07-10T08:37:51Z</time>
      </trkpt>
      <trkpt lat="45.94472" lon="4.78775">
        <ele>250</ele>
        <time>2018-07-10T08:37:56Z</time>
      </trkpt>
      <trkpt lat="45.94471" lon="4.78777">
        <ele>250</ele>
        <time>2018-07-10T08:37:57Z</time>
      </trkpt>
      <trkpt lat="45.94468" lon="4.78787">
        <ele>250</ele>
        <time>2018-07-10T08:38:01Z</time>
      </trkpt>
      <trkpt lat="45.94467" lon="4.7879">
        <ele>250</ele>
        <time>2018-07-10T08:38:02Z</time>
      </trkpt>
      <trkpt lat="45.94465" lon="4.78801">
        <ele>251</ele>
        <time>2018-07-10T08:38:06Z</time>
      </trkpt>
      <trkpt lat="45.94465" lon="4.78803">
        <ele>251</ele>
        <time>2018-07-10T08:38:07Z</time>
      </trkpt>
      <trkpt lat="45.94462" lon="4.78815">
        <ele>251</ele>
        <time>2018-07-10T08:38:11Z</time>
      </trkpt>
      <trkpt lat="45.94461" lon="4.78818">
        <ele>251</ele>
        <time>2018-07-10T08:38:12Z</time>
      </trkpt>
      <trkpt lat="45.94459" lon="4.78831">
        <ele>251</ele>
        <time>2018-07-10T08:38:16Z</time>
      </trkpt>
      <trkpt lat="45.94459" lon="4.78834">
        <ele>253</ele>
        <time>2018-07-10T08:38:17Z</time>
      </trkpt>
      <trkpt lat="45.94457" lon="4.78844">
        <ele>253</ele>
        <time>2018-07-10T08:38:21Z</time>
      </trkpt>
      <trkpt lat="45.94457" lon="4.78847">
        <ele>253</ele>
        <time>2018-07-10T08:38:22Z</time>
      </trkpt>
      <trkpt lat="45.94456" lon="4.78858">
        <ele>253</ele>
        <time>2018-07-10T08:38:26Z</time>
      </trkpt>
      <trkpt lat="45.94456" lon="4.78861">
        <ele>253</ele>
        <time>2018-07-10T08:38:27Z</time>
      </trkpt>
      <trkpt lat="45.94461" lon="4.78869">
        <ele>253</ele>
        <time>2018-07-10T08:38:34Z</time>
      </trkpt>
      <trkpt lat="45.94462" lon="4.78871">
        <ele>253</ele>
        <time>2018-07-10T08:38:35Z</time>
      </trkpt>
      <trkpt lat="45.94463" lon="4.78882">
        <ele>253</ele>
        <time>2018-07-10T08:38:39Z</time>
      </trkpt>
      <trkpt lat="45.94463" lon="4.78885">
        <ele>253</ele>
        <time>2018-07-10T08:38:40Z</time>
      </trkpt>
      <trkpt lat="45.94463" lon="4.78898">
        <ele>253</ele>
        <time>2018-07-10T08:38:44Z</time>
      </trkpt>
      <trkpt lat="45.94462" lon="4.78901">
        <ele>253</ele>
        <time>2018-07-10T08:38:45Z</time>
      </trkpt>
      <trkpt lat="45.94463" lon="4.78911">
        <ele>253</ele>
        <time>2018-07-10T08:38:48Z</time>
      </trkpt>
      <trkpt lat="45.94462" lon="4.78915">
        <ele>253</ele>
        <time>2018-07-10T08:38:49Z</time>
      </trkpt>
      <trkpt lat="45.94461" lon="4.78925">
        <ele>254</ele>
        <time>2018-07-10T08:38:52Z</time>
      </trkpt>
      <trkpt lat="45.94462" lon="4.78928">
        <ele>254</ele>
        <time>2018-07-10T08:38:53Z</time>
      </trkpt>
      <trkpt lat="45.94464" lon="4.78939">
        <ele>254</ele>
        <time>2018-07-10T08:38:57Z</time>
      </trkpt>
      <trkpt lat="45.94465" lon="4.78941">
        <ele>254</ele>
        <time>2018-07-10T08:38:58Z</time>
      </trkpt>
      <trkpt lat="45.94468" lon="4.78951">
        <ele>254</ele>
        <time>2018-07-10T08:39:02Z</time>
      </trkpt>
      <trkpt lat="45.94469" lon="4.78953">
        <ele>254</ele>
        <time>2018-07-10T08:39:03Z</time>
      </trkpt>
      <trkpt lat="45.94473" lon="4.78964">
        <ele>254</ele>
        <time>2018-07-10T08:39:07Z</time>
      </trkpt>
      <trkpt lat="45.94473" lon="4.78966">
        <ele>254</ele>
        <time>2018-07-10T08:39:08Z</time>
      </trkpt>
      <trkpt lat="45.94475" lon="4.78978">
        <ele>254</ele>
        <time>2018-07-10T08:39:12Z</time>
      </trkpt>
      <trkpt lat="45.94477" lon="4.78982">
        <ele>254</ele>
        <time>2018-07-10T08:39:13Z</time>
      </trkpt>
      <trkpt lat="45.9448" lon="4.78992">
        <ele>254</ele>
        <time>2018-07-10T08:39:17Z</time>
      </trkpt>
      <trkpt lat="45.94481" lon="4.78994">
        <ele>254</ele>
        <time>2018-07-10T08:39:18Z</time>
      </trkpt>
      <trkpt lat="45.94487" lon="4.79002">
        <ele>254</ele>
        <time>2018-07-10T08:39:22Z</time>
      </trkpt>
      <trkpt lat="45.94489" lon="4.79004">
        <ele>254</ele>
        <time>2018-07-10T08:39:23Z</time>
      </trkpt>
      <trkpt lat="45.94494" lon="4.79011">
        <ele>254</ele>
        <time>2018-07-10T08:39:26Z</time>
      </trkpt>
      <trkpt lat="45.94496" lon="4.79013">
        <ele>254</ele>
        <time>2018-07-10T08:39:27Z</time>
      </trkpt>
      <trkpt lat="45.94501" lon="4.79022">
        <ele>255</ele>
        <time>2018-07-10T08:39:30Z</time>
      </trkpt>
      <trkpt lat="45.94503" lon="4.79025">
        <ele>255</ele>
        <time>2018-07-10T08:39:31Z</time>
      </trkpt>
      <trkpt lat="45.94507" lon="4.79036">
        <ele>255</ele>
        <time>2018-07-10T08:39:34Z</time>
      </trkpt>
      <trkpt lat="45.94508" lon="4.79039">
        <ele>255</ele>
        <time>2018-07-10T08:39:35Z</time>
      </trkpt>
      <trkpt lat="45.94512" lon="4.79047">
        <ele>255</ele>
        <time>2018-07-10T08:39:37Z</time>
      </trkpt>
      <trkpt lat="45.94513" lon="4.7905">
        <ele>255</ele>
        <time>2018-07-10T08:39:38Z</time>
      </trkpt>
      <trkpt lat="45.94517" lon="4.79058">
        <ele>255</ele>
        <time>2018-07-10T08:39:40Z</time>
      </trkpt>
      <trkpt lat="45.94519" lon="4.79061">
        <ele>255</ele>
        <time>2018-07-10T08:39:41Z</time>
      </trkpt>
      <trkpt lat="45.94523" lon="4.79069">
        <ele>255</ele>
        <time>2018-07-10T08:39:43Z</time>
      </trkpt>
      <trkpt lat="45.94526" lon="4.79073">
        <ele>255</ele>
        <time>2018-07-10T08:39:44Z</time>
      </trkpt>
      <trkpt lat="45.9453" lon="4.79081">
        <ele>255</ele>
        <time>2018-07-10T08:39:46Z</time>
      </trkpt>
      <trkpt lat="45.94531" lon="4.79085">
        <ele>256</ele>
        <time>2018-07-10T08:39:47Z</time>
      </trkpt>
      <trkpt lat="45.94537" lon="4.79097">
        <ele>256</ele>
        <time>2018-07-10T08:39:48Z</time>
      </trkpt>
      <trkpt lat="45.94542" lon="4.79106">
        <ele>256</ele>
        <time>2018-07-10T08:39:50Z</time>
      </trkpt>
      <trkpt lat="45.94544" lon="4.7911">
        <ele>256</ele>
        <time>2018-07-10T08:39:51Z</time>
      </trkpt>
      <trkpt lat="45.94549" lon="4.7912">
        <ele>256</ele>
        <time>2018-07-10T08:39:53Z</time>
      </trkpt>
      <trkpt lat="45.94551" lon="4.79125">
        <ele>257</ele>
        <time>2018-07-10T08:39:54Z</time>
      </trkpt>
      <trkpt lat="45.94554" lon="4.7913">
        <ele>257</ele>
        <time>2018-07-10T08:39:55Z</time>
      </trkpt>
      <trkpt lat="45.94557" lon="4.79135">
        <ele>257</ele>
        <time>2018-07-10T08:39:56Z</time>
      </trkpt>
      <trkpt lat="45.94561" lon="4.7914">
        <ele>257</ele>
        <time>2018-07-10T08:39:57Z</time>
      </trkpt>
      <trkpt lat="45.94563" lon="4.79145">
        <ele>257</ele>
        <time>2018-07-10T08:39:58Z</time>
      </trkpt>
      <trkpt lat="45.94569" lon="4.79153">
        <ele>257</ele>
        <time>2018-07-10T08:40:00Z</time>
      </trkpt>
      <trkpt lat="45.94571" lon="4.79158">
        <ele>258</ele>
        <time>2018-07-10T08:40:01Z</time>
      </trkpt>
      <trkpt lat="45.94574" lon="4.79164">
        <ele>258</ele>
        <time>2018-07-10T08:40:02Z</time>
      </trkpt>
      <trkpt lat="45.94575" lon="4.7917">
        <ele>258</ele>
        <time>2018-07-10T08:40:03Z</time>
      </trkpt>
      <trkpt lat="45.94579" lon="4.79181">
        <ele>257</ele>
        <time>2018-07-10T08:40:05Z</time>
      </trkpt>
      <trkpt lat="45.9458" lon="4.79187">
        <ele>257</ele>
        <time>2018-07-10T08:40:06Z</time>
      </trkpt>
      <trkpt lat="45.94586" lon="4.79195">
        <ele>257</ele>
        <time>2018-07-10T08:40:08Z</time>
      </trkpt>
      <trkpt lat="45.94586" lon="4.79198">
        <ele>257</ele>
        <time>2018-07-10T08:40:09Z</time>
      </trkpt>
      <trkpt lat="45.94589" lon="4.79205">
        <ele>257</ele>
        <time>2018-07-10T08:40:10Z</time>
      </trkpt>
      <trkpt lat="45.9459" lon="4.7921">
        <ele>257</ele>
        <time>2018-07-10T08:40:11Z</time>
      </trkpt>
      <trkpt lat="45.94595" lon="4.79219">
        <ele>256</ele>
        <time>2018-07-10T08:40:13Z</time>
      </trkpt>
      <trkpt lat="45.94598" lon="4.79223">
        <ele>256</ele>
        <time>2018-07-10T08:40:14Z</time>
      </trkpt>
      <trkpt lat="45.94603" lon="4.79232">
        <ele>256</ele>
        <time>2018-07-10T08:40:16Z</time>
      </trkpt>
      <trkpt lat="45.94606" lon="4.79237">
        <ele>256</ele>
        <time>2018-07-10T08:40:17Z</time>
      </trkpt>
      <trkpt lat="45.9461" lon="4.79245">
        <ele>256</ele>
        <time>2018-07-10T08:40:19Z</time>
      </trkpt>
      <trkpt lat="45.94613" lon="4.7925">
        <ele>256</ele>
        <time>2018-07-10T08:40:20Z</time>
      </trkpt>
      <trkpt lat="45.94619" lon="4.79259">
        <ele>255</ele>
        <time>2018-07-10T08:40:22Z</time>
      </trkpt>
      <trkpt lat="45.94622" lon="4.79267">
        <ele>255</ele>
        <time>2018-07-10T08:40:23Z</time>
      </trkpt>
      <trkpt lat="45.94625" lon="4.79273">
        <ele>255</ele>
        <time>2018-07-10T08:40:24Z</time>
      </trkpt>
      <trkpt lat="45.94629" lon="4.79278">
        <ele>254</ele>
        <time>2018-07-10T08:40:25Z</time>
      </trkpt>
      <trkpt lat="45.94634" lon="4.79282">
        <ele>254</ele>
        <time>2018-07-10T08:40:26Z</time>
      </trkpt>
      <trkpt lat="45.94636" lon="4.79287">
        <ele>254</ele>
        <time>2018-07-10T08:40:27Z</time>
      </trkpt>
      <trkpt lat="45.9464" lon="4.79295">
        <ele>254</ele>
        <time>2018-07-10T08:40:29Z</time>
      </trkpt>
      <trkpt lat="45.94642" lon="4.793">
        <ele>254</ele>
        <time>2018-07-10T08:40:30Z</time>
      </trkpt>
      <trkpt lat="45.94646" lon="4.79309">
        <ele>254</ele>
        <time>2018-07-10T08:40:32Z</time>
      </trkpt>
      <trkpt lat="45.94649" lon="4.79315">
        <ele>254</ele>
        <time>2018-07-10T08:40:33Z</time>
      </trkpt>
      <trkpt lat="45.94651" lon="4.79321">
        <ele>254</ele>
        <time>2018-07-10T08:40:34Z</time>
      </trkpt>
      <trkpt lat="45.94653" lon="4.79327">
        <ele>254</ele>
        <time>2018-07-10T08:40:35Z</time>
      </trkpt>
      <trkpt lat="45.94656" lon="4.79333">
        <ele>254</ele>
        <time>2018-07-10T08:40:36Z</time>
      </trkpt>
      <trkpt lat="45.94659" lon="4.79338">
        <ele>254</ele>
        <time>2018-07-10T08:40:37Z</time>
      </trkpt>
      <trkpt lat="45.94664" lon="4.79347">
        <ele>254</ele>
        <time>2018-07-10T08:40:39Z</time>
      </trkpt>
      <trkpt lat="45.94666" lon="4.79351">
        <ele>254</ele>
        <time>2018-07-10T08:40:40Z</time>
      </trkpt>
      <trkpt lat="45.94673" lon="4.79358">
        <ele>253</ele>
        <time>2018-07-10T08:40:42Z</time>
      </trkpt>
      <trkpt lat="45.94674" lon="4.79363">
        <ele>253</ele>
        <time>2018-07-10T08:40:43Z</time>
      </trkpt>
      <trkpt lat="45.94679" lon="4.79374">
        <ele>253</ele>
        <time>2018-07-10T08:40:45Z</time>
      </trkpt>
      <trkpt lat="45.94681" lon="4.79379">
        <ele>253</ele>
        <time>2018-07-10T08:40:46Z</time>
      </trkpt>
      <trkpt lat="45.94683" lon="4.79386">
        <ele>253</ele>
        <time>2018-07-10T08:40:47Z</time>
      </trkpt>
      <trkpt lat="45.94686" lon="4.79392">
        <ele>253</ele>
        <time>2018-07-10T08:40:48Z</time>
      </trkpt>
      <trkpt lat="45.94691" lon="4.79397">
        <ele>253</ele>
        <time>2018-07-10T08:40:49Z</time>
      </trkpt>
      <trkpt lat="45.94694" lon="4.79402">
        <ele>253</ele>
        <time>2018-07-10T08:40:50Z</time>
      </trkpt>
      <trkpt lat="45.94696" lon="4.79408">
        <ele>253</ele>
        <time>2018-07-10T08:40:51Z</time>
      </trkpt>
      <trkpt lat="45.94699" lon="4.79414">
        <ele>253</ele>
        <time>2018-07-10T08:40:52Z</time>
      </trkpt>
      <trkpt lat="45.947" lon="4.79421">
        <ele>253</ele>
        <time>2018-07-10T08:40:53Z</time>
      </trkpt>
      <trkpt lat="45.94703" lon="4.79428">
        <ele>253</ele>
        <time>2018-07-10T08:40:54Z</time>
      </trkpt>
      <trkpt lat="45.94707" lon="4.79438">
        <ele>253</ele>
        <time>2018-07-10T08:40:56Z</time>
      </trkpt>
      <trkpt lat="45.9471" lon="4.79445">
        <ele>253</ele>
        <time>2018-07-10T08:40:57Z</time>
      </trkpt>
      <trkpt lat="45.94713" lon="4.79451">
        <ele>253</ele>
        <time>2018-07-10T08:40:58Z</time>
      </trkpt>
      <trkpt lat="45.94715" lon="4.79458">
        <ele>253</ele>
        <time>2018-07-10T08:40:59Z</time>
      </trkpt>
      <trkpt lat="45.94718" lon="4.79463">
        <ele>253</ele>
        <time>2018-07-10T08:41:00Z</time>
      </trkpt>
      <trkpt lat="45.94721" lon="4.7947">
        <ele>253</ele>
        <time>2018-07-10T08:41:01Z</time>
      </trkpt>
      <trkpt lat="45.94725" lon="4.79477">
        <ele>253</ele>
        <time>2018-07-10T08:41:02Z</time>
      </trkpt>
      <trkpt lat="45.94731" lon="4.79483">
        <ele>253</ele>
        <time>2018-07-10T08:41:03Z</time>
      </trkpt>
      <trkpt lat="45.94734" lon="4.79491">
        <ele>253</ele>
        <time>2018-07-10T08:41:04Z</time>
      </trkpt>
      <trkpt lat="45.94737" lon="4.79498">
        <ele>252</ele>
        <time>2018-07-10T08:41:05Z</time>
      </trkpt>
      <trkpt lat="45.9474" lon="4.79505">
        <ele>252</ele>
        <time>2018-07-10T08:41:06Z</time>
      </trkpt>
      <trkpt lat="45.94742" lon="4.79511">
        <ele>252</ele>
        <time>2018-07-10T08:41:07Z</time>
      </trkpt>
      <trkpt lat="45.94744" lon="4.79517">
        <ele>252</ele>
        <time>2018-07-10T08:41:08Z</time>
      </trkpt>
      <trkpt lat="45.94746" lon="4.79522">
        <ele>253</ele>
        <time>2018-07-10T08:41:09Z</time>
      </trkpt>
      <trkpt lat="45.94749" lon="4.79528">
        <ele>253</ele>
        <time>2018-07-10T08:41:10Z</time>
      </trkpt>
      <trkpt lat="45.94751" lon="4.79534">
        <ele>252</ele>
        <time>2018-07-10T08:41:11Z</time>
      </trkpt>
      <trkpt lat="45.94753" lon="4.79541">
        <ele>252</ele>
        <time>2018-07-10T08:41:12Z</time>
      </trkpt>
      <trkpt lat="45.94756" lon="4.79546">
        <ele>252</ele>
        <time>2018-07-10T08:41:13Z</time>
      </trkpt>
      <trkpt lat="45.94759" lon="4.79552">
        <ele>252</ele>
        <time>2018-07-10T08:41:14Z</time>
      </trkpt>
      <trkpt lat="45.94761" lon="4.79557">
        <ele>252</ele>
        <time>2018-07-10T08:41:15Z</time>
      </trkpt>
      <trkpt lat="45.94762" lon="4.79565">
        <ele>252</ele>
        <time>2018-07-10T08:41:16Z</time>
      </trkpt>
      <trkpt lat="45.94763" lon="4.79571">
        <ele>252</ele>
        <time>2018-07-10T08:41:17Z</time>
      </trkpt>
      <trkpt lat="45.94762" lon="4.7958">
        <ele>252</ele>
        <time>2018-07-10T08:41:18Z</time>
      </trkpt>
      <trkpt lat="45.94762" lon="4.79587">
        <ele>253</ele>
        <time>2018-07-10T08:41:19Z</time>
      </trkpt>
      <trkpt lat="45.94761" lon="4.79594">
        <ele>253</ele>
        <time>2018-07-10T08:41:20Z</time>
      </trkpt>
      <trkpt lat="45.94762" lon="4.796">
        <ele>253</ele>
        <time>2018-07-10T08:41:21Z</time>
      </trkpt>
      <trkpt lat="45.94764" lon="4.79611">
        <ele>253</ele>
        <time>2018-07-10T08:41:23Z</time>
      </trkpt>
      <trkpt lat="45.94767" lon="4.79618">
        <ele>253</ele>
        <time>2018-07-10T08:41:24Z</time>
      </trkpt>
      <trkpt lat="45.94769" lon="4.79625">
        <ele>253</ele>
        <time>2018-07-10T08:41:25Z</time>
      </trkpt>
      <trkpt lat="45.9477" lon="4.79631">
        <ele>253</ele>
        <time>2018-07-10T08:41:26Z</time>
      </trkpt>
      <trkpt lat="45.94773" lon="4.79638">
        <ele>254</ele>
        <time>2018-07-10T08:41:27Z</time>
      </trkpt>
      <trkpt lat="45.94775" lon="4.79644">
        <ele>254</ele>
        <time>2018-07-10T08:41:28Z</time>
      </trkpt>
      <trkpt lat="45.94775" lon="4.79651">
        <ele>254</ele>
        <time>2018-07-10T08:41:29Z</time>
      </trkpt>
      <trkpt lat="45.94777" lon="4.79659">
        <ele>254</ele>
        <time>2018-07-10T08:41:30Z</time>
      </trkpt>
      <trkpt lat="45.94778" lon="4.79666">
        <ele>254</ele>
        <time>2018-07-10T08:41:31Z</time>
      </trkpt>
      <trkpt lat="45.94781" lon="4.79672">
        <ele>254</ele>
        <time>2018-07-10T08:41:32Z</time>
      </trkpt>
      <trkpt lat="45.94783" lon="4.7968">
        <ele>254</ele>
        <time>2018-07-10T08:41:33Z</time>
      </trkpt>
      <trkpt lat="45.94784" lon="4.79687">
        <ele>254</ele>
        <time>2018-07-10T08:41:34Z</time>
      </trkpt>
      <trkpt lat="45.94787" lon="4.79693">
        <ele>254</ele>
        <time>2018-07-10T08:41:35Z</time>
      </trkpt>
      <trkpt lat="45.94789" lon="4.79699">
        <ele>254</ele>
        <time>2018-07-10T08:41:36Z</time>
      </trkpt>
      <trkpt lat="45.9479" lon="4.79705">
        <ele>254</ele>
        <time>2018-07-10T08:41:37Z</time>
      </trkpt>
      <trkpt lat="45.94792" lon="4.79712">
        <ele>254</ele>
        <time>2018-07-10T08:41:38Z</time>
      </trkpt>
      <trkpt lat="45.94795" lon="4.7972">
        <ele>254</ele>
        <time>2018-07-10T08:41:39Z</time>
      </trkpt>
      <trkpt lat="45.94796" lon="4.79727">
        <ele>254</ele>
        <time>2018-07-10T08:41:40Z</time>
      </trkpt>
      <trkpt lat="45.94799" lon="4.79733">
        <ele>254</ele>
        <time>2018-07-10T08:41:41Z</time>
      </trkpt>
      <trkpt lat="45.94798" lon="4.79742">
        <ele>254</ele>
        <time>2018-07-10T08:41:42Z</time>
      </trkpt>
      <trkpt lat="45.94799" lon="4.79749">
        <ele>254</ele>
        <time>2018-07-10T08:41:43Z</time>
      </trkpt>
      <trkpt lat="45.94801" lon="4.79756">
        <ele>254</ele>
        <time>2018-07-10T08:41:44Z</time>
      </trkpt>
      <trkpt lat="45.94803" lon="4.79764">
        <ele>254</ele>
        <time>2018-07-10T08:41:45Z</time>
      </trkpt>
      <trkpt lat="45.94805" lon="4.79771">
        <ele>254</ele>
        <time>2018-07-10T08:41:46Z</time>
      </trkpt>
      <trkpt lat="45.94806" lon="4.79778">
        <ele>254</ele>
        <time>2018-07-10T08:41:47Z</time>
      </trkpt>
      <trkpt lat="45.94809" lon="4.79785">
        <ele>254</ele>
        <time>2018-07-10T08:41:48Z</time>
      </trkpt>
      <trkpt lat="45.94809" lon="4.79793">
        <ele>254</ele>
        <time>2018-07-10T08:41:49Z</time>
      </trkpt>
      <trkpt lat="45.94812" lon="4.798">
        <ele>254</ele>
        <time>2018-07-10T08:41:50Z</time>
      </trkpt>
      <trkpt lat="45.94813" lon="4.79806">
        <ele>254</ele>
        <time>2018-07-10T08:41:51Z</time>
      </trkpt>
      <trkpt lat="45.94814" lon="4.79813">
        <ele>254</ele>
        <time>2018-07-10T08:41:52Z</time>
      </trkpt>
      <trkpt lat="45.94817" lon="4.79818">
        <ele>254</ele>
        <time>2018-07-10T08:41:53Z</time>
      </trkpt>
      <trkpt lat="45.94819" lon="4.79825">
        <ele>254</ele>
        <time>2018-07-10T08:41:54Z</time>
      </trkpt>
      <trkpt lat="45.94822" lon="4.79831">
        <ele>254</ele>
        <time>2018-07-10T08:41:55Z</time>
      </trkpt>
      <trkpt lat="45.94823" lon="4.79839">
        <ele>254</ele>
        <time>2018-07-10T08:41:56Z</time>
      </trkpt>
      <trkpt lat="45.94828" lon="4.79845">
        <ele>254</ele>
        <time>2018-07-10T08:41:57Z</time>
      </trkpt>
      <trkpt lat="45.94831" lon="4.79851">
        <ele>254</ele>
        <time>2018-07-10T08:41:58Z</time>
      </trkpt>
      <trkpt lat="45.94834" lon="4.79857">
        <ele>255</ele>
        <time>2018-07-10T08:41:59Z</time>
      </trkpt>
      <trkpt lat="45.94835" lon="4.79863">
        <ele>255</ele>
        <time>2018-07-10T08:42:00Z</time>
      </trkpt>
      <trkpt lat="45.94837" lon="4.79871">
        <ele>255</ele>
        <time>2018-07-10T08:42:02Z</time>
      </trkpt>
      <trkpt lat="45.94838" lon="4.79881">
        <ele>255</ele>
        <time>2018-07-10T08:42:03Z</time>
      </trkpt>
      <trkpt lat="45.9484" lon="4.79887">
        <ele>255</ele>
        <time>2018-07-10T08:42:04Z</time>
      </trkpt>
      <trkpt lat="45.94842" lon="4.79893">
        <ele>255</ele>
        <time>2018-07-10T08:42:05Z</time>
      </trkpt>
      <trkpt lat="45.94846" lon="4.79904">
        <ele>255</ele>
        <time>2018-07-10T08:42:07Z</time>
      </trkpt>
      <trkpt lat="45.94846" lon="4.79911">
        <ele>256</ele>
        <time>2018-07-10T08:42:08Z</time>
      </trkpt>
      <trkpt lat="45.94852" lon="4.79921">
        <ele>256</ele>
        <time>2018-07-10T08:42:10Z</time>
      </trkpt>
      <trkpt lat="45.94855" lon="4.79926">
        <ele>256</ele>
        <time>2018-07-10T08:42:11Z</time>
      </trkpt>
      <trkpt lat="45.94859" lon="4.7993">
        <ele>256</ele>
        <time>2018-07-10T08:42:12Z</time>
      </trkpt>
      <trkpt lat="45.94862" lon="4.79936">
        <ele>256</ele>
        <time>2018-07-10T08:42:13Z</time>
      </trkpt>
      <trkpt lat="45.94865" lon="4.79942">
        <ele>256</ele>
        <time>2018-07-10T08:42:14Z</time>
      </trkpt>
      <trkpt lat="45.94867" lon="4.79947">
        <ele>256</ele>
        <time>2018-07-10T08:42:15Z</time>
      </trkpt>
      <trkpt lat="45.9487" lon="4.79954">
        <ele>256</ele>
        <time>2018-07-10T08:42:16Z</time>
      </trkpt>
      <trkpt lat="45.94873" lon="4.7996">
        <ele>256</ele>
        <time>2018-07-10T08:42:17Z</time>
      </trkpt>
      <trkpt lat="45.94876" lon="4.79967">
        <ele>256</ele>
        <time>2018-07-10T08:42:18Z</time>
      </trkpt>
      <trkpt lat="45.94879" lon="4.79974">
        <ele>256</ele>
        <time>2018-07-10T08:42:19Z</time>
      </trkpt>
      <trkpt lat="45.9488" lon="4.79981">
        <ele>256</ele>
        <time>2018-07-10T08:42:20Z</time>
      </trkpt>
      <trkpt lat="45.94882" lon="4.79987">
        <ele>256</ele>
        <time>2018-07-10T08:42:21Z</time>
      </trkpt>
      <trkpt lat="45.94886" lon="4.79998">
        <ele>256</ele>
        <time>2018-07-10T08:42:23Z</time>
      </trkpt>
      <trkpt lat="45.94888" lon="4.80002">
        <ele>256</ele>
        <time>2018-07-10T08:42:24Z</time>
      </trkpt>
      <trkpt lat="45.94891" lon="4.8001">
        <ele>256</ele>
        <time>2018-07-10T08:42:26Z</time>
      </trkpt>
      <trkpt lat="45.94895" lon="4.80018">
        <ele>256</ele>
        <time>2018-07-10T08:42:27Z</time>
      </trkpt>
      <trkpt lat="45.94897" lon="4.80023">
        <ele>256</ele>
        <time>2018-07-10T08:42:28Z</time>
      </trkpt>
      <trkpt lat="45.94897" lon="4.80031">
        <ele>256</ele>
        <time>2018-07-10T08:42:29Z</time>
      </trkpt>
      <trkpt lat="45.94899" lon="4.80041">
        <ele>256</ele>
        <time>2018-07-10T08:42:31Z</time>
      </trkpt>
      <trkpt lat="45.94901" lon="4.80048">
        <ele>256</ele>
        <time>2018-07-10T08:42:32Z</time>
      </trkpt>
      <trkpt lat="45.94905" lon="4.8006">
        <ele>256</ele>
        <time>2018-07-10T08:42:34Z</time>
      </trkpt>
      <trkpt lat="45.94907" lon="4.80066">
        <ele>256</ele>
        <time>2018-07-10T08:42:35Z</time>
      </trkpt>
      <trkpt lat="45.94909" lon="4.80077">
        <ele>257</ele>
        <time>2018-07-10T08:42:37Z</time>
      </trkpt>
      <trkpt lat="45.94909" lon="4.80084">
        <ele>257</ele>
        <time>2018-07-10T08:42:38Z</time>
      </trkpt>
      <trkpt lat="45.94911" lon="4.80091">
        <ele>257</ele>
        <time>2018-07-10T08:42:39Z</time>
      </trkpt>
      <trkpt lat="45.94913" lon="4.80097">
        <ele>257</ele>
        <time>2018-07-10T08:42:40Z</time>
      </trkpt>
      <trkpt lat="45.94915" lon="4.80103">
        <ele>256</ele>
        <time>2018-07-10T08:42:41Z</time>
      </trkpt>
      <trkpt lat="45.94919" lon="4.80109">
        <ele>256</ele>
        <time>2018-07-10T08:42:42Z</time>
      </trkpt>
      <trkpt lat="45.9492" lon="4.80115">
        <ele>256</ele>
        <time>2018-07-10T08:42:43Z</time>
      </trkpt>
      <trkpt lat="45.94921" lon="4.80122">
        <ele>256</ele>
        <time>2018-07-10T08:42:44Z</time>
      </trkpt>
      <trkpt lat="45.94922" lon="4.8013">
        <ele>256</ele>
        <time>2018-07-10T08:42:45Z</time>
      </trkpt>
      <trkpt lat="45.94923" lon="4.80137">
        <ele>256</ele>
        <time>2018-07-10T08:42:46Z</time>
      </trkpt>
      <trkpt lat="45.94923" lon="4.80143">
        <ele>256</ele>
        <time>2018-07-10T08:42:47Z</time>
      </trkpt>
      <trkpt lat="45.94926" lon="4.80151">
        <ele>255</ele>
        <time>2018-07-10T08:42:48Z</time>
      </trkpt>
      <trkpt lat="45.94927" lon="4.80164">
        <ele>255</ele>
        <time>2018-07-10T08:42:50Z</time>
      </trkpt>
      <trkpt lat="45.94926" lon="4.80169">
        <ele>255</ele>
        <time>2018-07-10T08:42:51Z</time>
      </trkpt>
      <trkpt lat="45.94928" lon="4.80178">
        <ele>256</ele>
        <time>2018-07-10T08:42:53Z</time>
      </trkpt>
      <trkpt lat="45.94929" lon="4.80183">
        <ele>256</ele>
        <time>2018-07-10T08:42:54Z</time>
      </trkpt>
      <trkpt lat="45.94931" lon="4.80193">
        <ele>256</ele>
        <time>2018-07-10T08:42:56Z</time>
      </trkpt>
      <trkpt lat="45.94932" lon="4.80199">
        <ele>256</ele>
        <time>2018-07-10T08:42:57Z</time>
      </trkpt>
      <trkpt lat="45.94933" lon="4.80211">
        <ele>256</ele>
        <time>2018-07-10T08:42:59Z</time>
      </trkpt>
      <trkpt lat="45.94934" lon="4.80217">
        <ele>256</ele>
        <time>2018-07-10T08:43:00Z</time>
      </trkpt>
      <trkpt lat="45.94936" lon="4.80223">
        <ele>256</ele>
        <time>2018-07-10T08:43:01Z</time>
      </trkpt>
      <trkpt lat="45.94937" lon="4.8023">
        <ele>256</ele>
        <time>2018-07-10T08:43:02Z</time>
      </trkpt>
      <trkpt lat="45.94938" lon="4.8024">
        <ele>256</ele>
        <time>2018-07-10T08:43:04Z</time>
      </trkpt>
      <trkpt lat="45.94939" lon="4.80247">
        <ele>256</ele>
        <time>2018-07-10T08:43:05Z</time>
      </trkpt>
      <trkpt lat="45.94939" lon="4.80255">
        <ele>257</ele>
        <time>2018-07-10T08:43:06Z</time>
      </trkpt>
      <trkpt lat="45.94939" lon="4.80262">
        <ele>257</ele>
        <time>2018-07-10T08:43:07Z</time>
      </trkpt>
      <trkpt lat="45.9494" lon="4.8027">
        <ele>257</ele>
        <time>2018-07-10T08:43:08Z</time>
      </trkpt>
      <trkpt lat="45.9494" lon="4.80278">
        <ele>257</ele>
        <time>2018-07-10T08:43:09Z</time>
      </trkpt>
      <trkpt lat="45.9494" lon="4.80285">
        <ele>257</ele>
        <time>2018-07-10T08:43:10Z</time>
      </trkpt>
      <trkpt lat="45.94941" lon="4.80293">
        <ele>257</ele>
        <time>2018-07-10T08:43:11Z</time>
      </trkpt>
      <trkpt lat="45.94942" lon="4.803">
        <ele>257</ele>
        <time>2018-07-10T08:43:12Z</time>
      </trkpt>
      <trkpt lat="45.94942" lon="4.80308">
        <ele>257</ele>
        <time>2018-07-10T08:43:13Z</time>
      </trkpt>
      <trkpt lat="45.94942" lon="4.80316">
        <ele>257</ele>
        <time>2018-07-10T08:43:14Z</time>
      </trkpt>
      <trkpt lat="45.94942" lon="4.80323">
        <ele>257</ele>
        <time>2018-07-10T08:43:15Z</time>
      </trkpt>
      <trkpt lat="45.94942" lon="4.8033">
        <ele>257</ele>
        <time>2018-07-10T08:43:16Z</time>
      </trkpt>
      <trkpt lat="45.94941" lon="4.80336">
        <ele>258</ele>
        <time>2018-07-10T08:43:17Z</time>
      </trkpt>
      <trkpt lat="45.94939" lon="4.80345">
        <ele>258</ele>
        <time>2018-07-10T08:43:18Z</time>
      </trkpt>
      <trkpt lat="45.94939" lon="4.80353">
        <ele>258</ele>
        <time>2018-07-10T08:43:19Z</time>
      </trkpt>
      <trkpt lat="45.94939" lon="4.80361">
        <ele>258</ele>
        <time>2018-07-10T08:43:20Z</time>
      </trkpt>
      <trkpt lat="45.94939" lon="4.80368">
        <ele>258</ele>
        <time>2018-07-10T08:43:21Z</time>
      </trkpt>
      <trkpt lat="45.9494" lon="4.80375">
        <ele>258</ele>
        <time>2018-07-10T08:43:22Z</time>
      </trkpt>
      <trkpt lat="45.9494" lon="4.80383">
        <ele>258</ele>
        <time>2018-07-10T08:43:23Z</time>
      </trkpt>
      <trkpt lat="45.9494" lon="4.8039">
        <ele>258</ele>
        <time>2018-07-10T08:43:24Z</time>
      </trkpt>
      <trkpt lat="45.9494" lon="4.80397">
        <ele>258</ele>
        <time>2018-07-10T08:43:25Z</time>
      </trkpt>
      <trkpt lat="45.9494" lon="4.80403">
        <ele>259</ele>
        <time>2018-07-10T08:43:26Z</time>
      </trkpt>
      <trkpt lat="45.94942" lon="4.8041">
        <ele>259</ele>
        <time>2018-07-10T08:43:27Z</time>
      </trkpt>
      <trkpt lat="45.94943" lon="4.80422">
        <ele>259</ele>
        <time>2018-07-10T08:43:29Z</time>
      </trkpt>
      <trkpt lat="45.94943" lon="4.80429">
        <ele>259</ele>
        <time>2018-07-10T08:43:30Z</time>
      </trkpt>
      <trkpt lat="45.94943" lon="4.80435">
        <ele>259</ele>
        <time>2018-07-10T08:43:31Z</time>
      </trkpt>
      <trkpt lat="45.94943" lon="4.80442">
        <ele>259</ele>
        <time>2018-07-10T08:43:32Z</time>
      </trkpt>
      <trkpt lat="45.94943" lon="4.80449">
        <ele>259</ele>
        <time>2018-07-10T08:43:33Z</time>
      </trkpt>
      <trkpt lat="45.94944" lon="4.80456">
        <ele>258</ele>
        <time>2018-07-10T08:43:34Z</time>
      </trkpt>
      <trkpt lat="45.94945" lon="4.80463">
        <ele>258</ele>
        <time>2018-07-10T08:43:35Z</time>
      </trkpt>
      <trkpt lat="45.94944" lon="4.80471">
        <ele>258</ele>
        <time>2018-07-10T08:43:36Z</time>
      </trkpt>
      <trkpt lat="45.94943" lon="4.80479">
        <ele>258</ele>
        <time>2018-07-10T08:43:37Z</time>
      </trkpt>
      <trkpt lat="45.94944" lon="4.80486">
        <ele>258</ele>
        <time>2018-07-10T08:43:38Z</time>
      </trkpt>
      <trkpt lat="45.94943" lon="4.80494">
        <ele>258</ele>
        <time>2018-07-10T08:43:39Z</time>
      </trkpt>
      <trkpt lat="45.94943" lon="4.80502">
        <ele>258</ele>
        <time>2018-07-10T08:43:40Z</time>
      </trkpt>
      <trkpt lat="45.94944" lon="4.80509">
        <ele>258</ele>
        <time>2018-07-10T08:43:41Z</time>
      </trkpt>
      <trkpt lat="45.94945" lon="4.80515">
        <ele>258</ele>
        <time>2018-07-10T08:43:42Z</time>
      </trkpt>
      <trkpt lat="45.94945" lon="4.80523">
        <ele>258</ele>
        <time>2018-07-10T08:43:43Z</time>
      </trkpt>
      <trkpt lat="45.94944" lon="4.8053">
        <ele>258</ele>
        <time>2018-07-10T08:43:44Z</time>
      </trkpt>
      <trkpt lat="45.94944" lon="4.80543">
        <ele>258</ele>
        <time>2018-07-10T08:43:46Z</time>
      </trkpt>
      <trkpt lat="45.94945" lon="4.80549">
        <ele>258</ele>
        <time>2018-07-10T08:43:47Z</time>
      </trkpt>
      <trkpt lat="45.94945" lon="4.80557">
        <ele>257</ele>
        <time>2018-07-10T08:43:48Z</time>
      </trkpt>
      <trkpt lat="45.94943" lon="4.80563">
        <ele>257</ele>
        <time>2018-07-10T08:43:49Z</time>
      </trkpt>
      <trkpt lat="45.94943" lon="4.80576">
        <ele>257</ele>
        <time>2018-07-10T08:43:51Z</time>
      </trkpt>
      <trkpt lat="45.94942" lon="4.80584">
        <ele>258</ele>
        <time>2018-07-10T08:43:52Z</time>
      </trkpt>
      <trkpt lat="45.94943" lon="4.80593">
        <ele>258</ele>
        <time>2018-07-10T08:43:53Z</time>
      </trkpt>
      <trkpt lat="45.94942" lon="4.80601">
        <ele>258</ele>
        <time>2018-07-10T08:43:54Z</time>
      </trkpt>
      <trkpt lat="45.94944" lon="4.80609">
        <ele>258</ele>
        <time>2018-07-10T08:43:55Z</time>
      </trkpt>
      <trkpt lat="45.94945" lon="4.80615">
        <ele>258</ele>
        <time>2018-07-10T08:43:56Z</time>
      </trkpt>
      <trkpt lat="45.94945" lon="4.80623">
        <ele>258</ele>
        <time>2018-07-10T08:43:57Z</time>
      </trkpt>
      <trkpt lat="45.94946" lon="4.80628">
        <ele>258</ele>
        <time>2018-07-10T08:43:58Z</time>
      </trkpt>
      <trkpt lat="45.94946" lon="4.80641">
        <ele>259</ele>
        <time>2018-07-10T08:44:00Z</time>
      </trkpt>
      <trkpt lat="45.94948" lon="4.80647">
        <ele>259</ele>
        <time>2018-07-10T08:44:01Z</time>
      </trkpt>
      <trkpt lat="45.94948" lon="4.80654">
        <ele>259</ele>
        <time>2018-07-10T08:44:02Z</time>
      </trkpt>
      <trkpt lat="45.94948" lon="4.80661">
        <ele>259</ele>
        <time>2018-07-10T08:44:03Z</time>
      </trkpt>
      <trkpt lat="45.94948" lon="4.80674">
        <ele>259</ele>
        <time>2018-07-10T08:44:05Z</time>
      </trkpt>
      <trkpt lat="45.94946" lon="4.80681">
        <ele>259</ele>
        <time>2018-07-10T08:44:06Z</time>
      </trkpt>
      <trkpt lat="45.94946" lon="4.80693">
        <ele>259</ele>
        <time>2018-07-10T08:44:08Z</time>
      </trkpt>
      <trkpt lat="45.94947" lon="4.80699">
        <ele>259</ele>
        <time>2018-07-10T08:44:09Z</time>
      </trkpt>
      <trkpt lat="45.94947" lon="4.80706">
        <ele>259</ele>
        <time>2018-07-10T08:44:10Z</time>
      </trkpt>
      <trkpt lat="45.94949" lon="4.80714">
        <ele>259</ele>
        <time>2018-07-10T08:44:11Z</time>
      </trkpt>
      <trkpt lat="45.9495" lon="4.8072">
        <ele>259</ele>
        <time>2018-07-10T08:44:12Z</time>
      </trkpt>
      <trkpt lat="45.9495" lon="4.80727">
        <ele>259</ele>
        <time>2018-07-10T08:44:13Z</time>
      </trkpt>
      <trkpt lat="45.94951" lon="4.80734">
        <ele>259</ele>
        <time>2018-07-10T08:44:14Z</time>
      </trkpt>
      <trkpt lat="45.94951" lon="4.80741">
        <ele>259</ele>
        <time>2018-07-10T08:44:15Z</time>
      </trkpt>
      <trkpt lat="45.94951" lon="4.80747">
        <ele>259</ele>
        <time>2018-07-10T08:44:16Z</time>
      </trkpt>
      <trkpt lat="45.94951" lon="4.80754">
        <ele>259</ele>
        <time>2018-07-10T08:44:17Z</time>
      </trkpt>
      <trkpt lat="45.9495" lon="4.80761">
        <ele>259</ele>
        <time>2018-07-10T08:44:18Z</time>
      </trkpt>
      <trkpt lat="45.9495" lon="4.80768">
        <ele>259</ele>
        <time>2018-07-10T08:44:19Z</time>
      </trkpt>
      <trkpt lat="45.94948" lon="4.8078">
        <ele>259</ele>
        <time>2018-07-10T08:44:21Z</time>
      </trkpt>
      <trkpt lat="45.94947" lon="4.80782">
        <ele>259</ele>
        <time>2018-07-10T08:44:22Z</time>
      </trkpt>
      <trkpt lat="45.94946" lon="4.80794">
        <ele>259</ele>
        <time>2018-07-10T08:44:26Z</time>
      </trkpt>
      <trkpt lat="45.94946" lon="4.80796">
        <ele>259</ele>
        <time>2018-07-10T08:44:27Z</time>
      </trkpt>
      <trkpt lat="45.94949" lon="4.80806">
        <ele>259</ele>
        <time>2018-07-10T08:44:33Z</time>
      </trkpt>
      <trkpt lat="45.9495" lon="4.80809">
        <ele>258</ele>
        <time>2018-07-10T08:44:34Z</time>
      </trkpt>
      <trkpt lat="45.94954" lon="4.80818">
        <ele>258</ele>
        <time>2018-07-10T08:44:37Z</time>
      </trkpt>
      <trkpt lat="45.94956" lon="4.8082">
        <ele>258</ele>
        <time>2018-07-10T08:44:38Z</time>
      </trkpt>
      <trkpt lat="45.94958" lon="4.80823">
        <ele>258</ele>
        <time>2018-07-10T08:44:39Z</time>
      </trkpt>
      <trkpt lat="45.94963" lon="4.80834">
        <ele>259</ele>
        <time>2018-07-10T08:44:40Z</time>
      </trkpt>
      <trkpt lat="45.94962" lon="4.8084">
        <ele>259</ele>
        <time>2018-07-10T08:44:41Z</time>
      </trkpt>
      <trkpt lat="45.94963" lon="4.80847">
        <ele>259</ele>
        <time>2018-07-10T08:44:42Z</time>
      </trkpt>
      <trkpt lat="45.94964" lon="4.80854">
        <ele>259</ele>
        <time>2018-07-10T08:44:43Z</time>
      </trkpt>
      <trkpt lat="45.94965" lon="4.80861">
        <ele>259</ele>
        <time>2018-07-10T08:44:44Z</time>
      </trkpt>
      <trkpt lat="45.94966" lon="4.80868">
        <ele>259</ele>
        <time>2018-07-10T08:44:45Z</time>
      </trkpt>
      <trkpt lat="45.94967" lon="4.80874">
        <ele>259</ele>
        <time>2018-07-10T08:44:46Z</time>
      </trkpt>
      <trkpt lat="45.94969" lon="4.80886">
        <ele>258</ele>
        <time>2018-07-10T08:44:48Z</time>
      </trkpt>
      <trkpt lat="45.9497" lon="4.80895">
        <ele>258</ele>
        <time>2018-07-10T08:44:49Z</time>
      </trkpt>
      <trkpt lat="45.94971" lon="4.80902">
        <ele>258</ele>
        <time>2018-07-10T08:44:50Z</time>
      </trkpt>
      <trkpt lat="45.94973" lon="4.80909">
        <ele>258</ele>
        <time>2018-07-10T08:44:51Z</time>
      </trkpt>
      <trkpt lat="45.94974" lon="4.80916">
        <ele>258</ele>
        <time>2018-07-10T08:44:52Z</time>
      </trkpt>
      <trkpt lat="45.94975" lon="4.80922">
        <ele>258</ele>
        <time>2018-07-10T08:44:53Z</time>
      </trkpt>
      <trkpt lat="45.94976" lon="4.80935">
        <ele>258</ele>
        <time>2018-07-10T08:44:55Z</time>
      </trkpt>
      <trkpt lat="45.94979" lon="4.80941">
        <ele>258</ele>
        <time>2018-07-10T08:44:56Z</time>
      </trkpt>
      <trkpt lat="45.94981" lon="4.80953">
        <ele>258</ele>
        <time>2018-07-10T08:44:58Z</time>
      </trkpt>
      <trkpt lat="45.94982" lon="4.8096">
        <ele>258</ele>
        <time>2018-07-10T08:44:59Z</time>
      </trkpt>
      <trkpt lat="45.94982" lon="4.80966">
        <ele>258</ele>
        <time>2018-07-10T08:45:00Z</time>
      </trkpt>
      <trkpt lat="45.94983" lon="4.80974">
        <ele>258</ele>
        <time>2018-07-10T08:45:01Z</time>
      </trkpt>
      <trkpt lat="45.94984" lon="4.8098">
        <ele>258</ele>
        <time>2018-07-10T08:45:02Z</time>
      </trkpt>
      <trkpt lat="45.94984" lon="4.80988">
        <ele>258</ele>
        <time>2018-07-10T08:45:03Z</time>
      </trkpt>
      <trkpt lat="45.94985" lon="4.80996">
        <ele>257</ele>
        <time>2018-07-10T08:45:04Z</time>
      </trkpt>
      <trkpt lat="45.94986" lon="4.81003">
        <ele>257</ele>
        <time>2018-07-10T08:45:05Z</time>
      </trkpt>
      <trkpt lat="45.94987" lon="4.81009">
        <ele>257</ele>
        <time>2018-07-10T08:45:06Z</time>
      </trkpt>
      <trkpt lat="45.94989" lon="4.81017">
        <ele>257</ele>
        <time>2018-07-10T08:45:07Z</time>
      </trkpt>
      <trkpt lat="45.94989" lon="4.81023">
        <ele>257</ele>
        <time>2018-07-10T08:45:08Z</time>
      </trkpt>
      <trkpt lat="45.9499" lon="4.8103">
        <ele>257</ele>
        <time>2018-07-10T08:45:09Z</time>
      </trkpt>
      <trkpt lat="45.94988" lon="4.81037">
        <ele>257</ele>
        <time>2018-07-10T08:45:10Z</time>
      </trkpt>
      <trkpt lat="45.94989" lon="4.81044">
        <ele>257</ele>
        <time>2018-07-10T08:45:11Z</time>
      </trkpt>
      <trkpt lat="45.9499" lon="4.81055">
        <ele>257</ele>
        <time>2018-07-10T08:45:13Z</time>
      </trkpt>
      <trkpt lat="45.9499" lon="4.81061">
        <ele>257</ele>
        <time>2018-07-10T08:45:14Z</time>
      </trkpt>
      <trkpt lat="45.94991" lon="4.81073">
        <ele>257</ele>
        <time>2018-07-10T08:45:16Z</time>
      </trkpt>
      <trkpt lat="45.94993" lon="4.8108">
        <ele>257</ele>
        <time>2018-07-10T08:45:17Z</time>
      </trkpt>
      <trkpt lat="45.94993" lon="4.81092">
        <ele>257</ele>
        <time>2018-07-10T08:45:19Z</time>
      </trkpt>
      <trkpt lat="45.94995" lon="4.811">
        <ele>257</ele>
        <time>2018-07-10T08:45:20Z</time>
      </trkpt>
      <trkpt lat="45.94996" lon="4.81113">
        <ele>257</ele>
        <time>2018-07-10T08:45:22Z</time>
      </trkpt>
      <trkpt lat="45.94997" lon="4.81121">
        <ele>257</ele>
        <time>2018-07-10T08:45:23Z</time>
      </trkpt>
      <trkpt lat="45.94997" lon="4.81129">
        <ele>256</ele>
        <time>2018-07-10T08:45:24Z</time>
      </trkpt>
      <trkpt lat="45.94997" lon="4.81136">
        <ele>256</ele>
        <time>2018-07-10T08:45:25Z</time>
      </trkpt>
      <trkpt lat="45.94998" lon="4.81145">
        <ele>256</ele>
        <time>2018-07-10T08:45:26Z</time>
      </trkpt>
      <trkpt lat="45.94999" lon="4.81151">
        <ele>256</ele>
        <time>2018-07-10T08:45:27Z</time>
      </trkpt>
      <trkpt lat="45.95" lon="4.81159">
        <ele>256</ele>
        <time>2018-07-10T08:45:28Z</time>
      </trkpt>
      <trkpt lat="45.95002" lon="4.81168">
        <ele>256</ele>
        <time>2018-07-10T08:45:29Z</time>
      </trkpt>
      <trkpt lat="45.95002" lon="4.81175">
        <ele>256</ele>
        <time>2018-07-10T08:45:30Z</time>
      </trkpt>
      <trkpt lat="45.95002" lon="4.81183">
        <ele>256</ele>
        <time>2018-07-10T08:45:31Z</time>
      </trkpt>
      <trkpt lat="45.95003" lon="4.81192">
        <ele>256</ele>
        <time>2018-07-10T08:45:32Z</time>
      </trkpt>
      <trkpt lat="45.95004" lon="4.81199">
        <ele>256</ele>
        <time>2018-07-10T08:45:33Z</time>
      </trkpt>
      <trkpt lat="45.95005" lon="4.81206">
        <ele>256</ele>
        <time>2018-07-10T08:45:34Z</time>
      </trkpt>
      <trkpt lat="45.95006" lon="4.81214">
        <ele>256</ele>
        <time>2018-07-10T08:45:35Z</time>
      </trkpt>
      <trkpt lat="45.95007" lon="4.81222">
        <ele>256</ele>
        <time>2018-07-10T08:45:36Z</time>
      </trkpt>
      <trkpt lat="45.95008" lon="4.81229">
        <ele>256</ele>
        <time>2018-07-10T08:45:37Z</time>
      </trkpt>
      <trkpt lat="45.95009" lon="4.81236">
        <ele>256</ele>
        <time>2018-07-10T08:45:38Z</time>
      </trkpt>
      <trkpt lat="45.95009" lon="4.81243">
        <ele>256</ele>
        <time>2018-07-10T08:45:39Z</time>
      </trkpt>
      <trkpt lat="45.9501" lon="4.8125">
        <ele>256</ele>
        <time>2018-07-10T08:45:40Z</time>
      </trkpt>
      <trkpt lat="45.95011" lon="4.81258">
        <ele>256</ele>
        <time>2018-07-10T08:45:41Z</time>
      </trkpt>
      <trkpt lat="45.95012" lon="4.81265">
        <ele>256</ele>
        <time>2018-07-10T08:45:42Z</time>
      </trkpt>
      <trkpt lat="45.95014" lon="4.81272">
        <ele>255</ele>
        <time>2018-07-10T08:45:43Z</time>
      </trkpt>
      <trkpt lat="45.95015" lon="4.81279">
        <ele>255</ele>
        <time>2018-07-10T08:45:44Z</time>
      </trkpt>
      <trkpt lat="45.95017" lon="4.81286">
        <ele>255</ele>
        <time>2018-07-10T08:45:45Z</time>
      </trkpt>
      <trkpt lat="45.95019" lon="4.81294">
        <ele>255</ele>
        <time>2018-07-10T08:45:46Z</time>
      </trkpt>
      <trkpt lat="45.9502" lon="4.81302">
        <ele>255</ele>
        <time>2018-07-10T08:45:47Z</time>
      </trkpt>
      <trkpt lat="45.95023" lon="4.81309">
        <ele>255</ele>
        <time>2018-07-10T08:45:48Z</time>
      </trkpt>
      <trkpt lat="45.95025" lon="4.81316">
        <ele>255</ele>
        <time>2018-07-10T08:45:49Z</time>
      </trkpt>
      <trkpt lat="45.95027" lon="4.81321">
        <ele>255</ele>
        <time>2018-07-10T08:45:50Z</time>
      </trkpt>
      <trkpt lat="45.9503" lon="4.81329">
        <ele>255</ele>
        <time>2018-07-10T08:45:51Z</time>
      </trkpt>
      <trkpt lat="45.95032" lon="4.81335">
        <ele>254</ele>
        <time>2018-07-10T08:45:52Z</time>
      </trkpt>
      <trkpt lat="45.95033" lon="4.81343">
        <ele>254</ele>
        <time>2018-07-10T08:45:53Z</time>
      </trkpt>
      <trkpt lat="45.95036" lon="4.8135">
        <ele>254</ele>
        <time>2018-07-10T08:45:54Z</time>
      </trkpt>
      <trkpt lat="45.95038" lon="4.81357">
        <ele>254</ele>
        <time>2018-07-10T08:45:55Z</time>
      </trkpt>
      <trkpt lat="45.95041" lon="4.81364">
        <ele>254</ele>
        <time>2018-07-10T08:45:56Z</time>
      </trkpt>
      <trkpt lat="45.95042" lon="4.81374">
        <ele>254</ele>
        <time>2018-07-10T08:45:57Z</time>
      </trkpt>
      <trkpt lat="45.95044" lon="4.81382">
        <ele>254</ele>
        <time>2018-07-10T08:45:58Z</time>
      </trkpt>
      <trkpt lat="45.95048" lon="4.81389">
        <ele>253</ele>
        <time>2018-07-10T08:45:59Z</time>
      </trkpt>
      <trkpt lat="45.95051" lon="4.81396">
        <ele>253</ele>
        <time>2018-07-10T08:46:00Z</time>
      </trkpt>
      <trkpt lat="45.95054" lon="4.81404">
        <ele>253</ele>
        <time>2018-07-10T08:46:01Z</time>
      </trkpt>
      <trkpt lat="45.95058" lon="4.81413">
        <ele>253</ele>
        <time>2018-07-10T08:46:02Z</time>
      </trkpt>
      <trkpt lat="45.95061" lon="4.81422">
        <ele>252</ele>
        <time>2018-07-10T08:46:03Z</time>
      </trkpt>
      <trkpt lat="45.95064" lon="4.81431">
        <ele>252</ele>
        <time>2018-07-10T08:46:04Z</time>
      </trkpt>
      <trkpt lat="45.95068" lon="4.8144">
        <ele>253</ele>
        <time>2018-07-10T08:46:05Z</time>
      </trkpt>
      <trkpt lat="45.95071" lon="4.81448">
        <ele>253</ele>
        <time>2018-07-10T08:46:06Z</time>
      </trkpt>
      <trkpt lat="45.95075" lon="4.81456">
        <ele>253</ele>
        <time>2018-07-10T08:46:07Z</time>
      </trkpt>
      <trkpt lat="45.95077" lon="4.81463">
        <ele>253</ele>
        <time>2018-07-10T08:46:08Z</time>
      </trkpt>
      <trkpt lat="45.95081" lon="4.81473">
        <ele>253</ele>
        <time>2018-07-10T08:46:09Z</time>
      </trkpt>
      <trkpt lat="45.95084" lon="4.81482">
        <ele>251</ele>
        <time>2018-07-10T08:46:10Z</time>
      </trkpt>
      <trkpt lat="45.95087" lon="4.81493">
        <ele>251</ele>
        <time>2018-07-10T08:46:11Z</time>
      </trkpt>
      <trkpt lat="45.9509" lon="4.81503">
        <ele>252</ele>
        <time>2018-07-10T08:46:12Z</time>
      </trkpt>
      <trkpt lat="45.95094" lon="4.81513">
        <ele>251</ele>
        <time>2018-07-10T08:46:13Z</time>
      </trkpt>
      <trkpt lat="45.95096" lon="4.81522">
        <ele>251</ele>
        <time>2018-07-10T08:46:14Z</time>
      </trkpt>
      <trkpt lat="45.95099" lon="4.81532">
        <ele>251</ele>
        <time>2018-07-10T08:46:15Z</time>
      </trkpt>
      <trkpt lat="45.95102" lon="4.81539">
        <ele>251</ele>
        <time>2018-07-10T08:46:16Z</time>
      </trkpt>
      <trkpt lat="45.95105" lon="4.81548">
        <ele>251</ele>
        <time>2018-07-10T08:46:17Z</time>
      </trkpt>
      <trkpt lat="45.95108" lon="4.81557">
        <ele>251</ele>
        <time>2018-07-10T08:46:18Z</time>
      </trkpt>
      <trkpt lat="45.95111" lon="4.81564">
        <ele>251</ele>
        <time>2018-07-10T08:46:19Z</time>
      </trkpt>
      <trkpt lat="45.95114" lon="4.81572">
        <ele>251</ele>
        <time>2018-07-10T08:46:20Z</time>
      </trkpt>
      <trkpt lat="45.95117" lon="4.81581">
        <ele>251</ele>
        <time>2018-07-10T08:46:21Z</time>
      </trkpt>
      <trkpt lat="45.9512" lon="4.81588">
        <ele>252</ele>
        <time>2018-07-10T08:46:22Z</time>
      </trkpt>
      <trkpt lat="45.95121" lon="4.81595">
        <ele>252</ele>
        <time>2018-07-10T08:46:23Z</time>
      </trkpt>
      <trkpt lat="45.95124" lon="4.81602">
        <ele>252</ele>
        <time>2018-07-10T08:46:24Z</time>
      </trkpt>
      <trkpt lat="45.95127" lon="4.81608">
        <ele>252</ele>
        <time>2018-07-10T08:46:25Z</time>
      </trkpt>
      <trkpt lat="45.95128" lon="4.81614">
        <ele>252</ele>
        <time>2018-07-10T08:46:26Z</time>
      </trkpt>
      <trkpt lat="45.9513" lon="4.81621">
        <ele>252</ele>
        <time>2018-07-10T08:46:27Z</time>
      </trkpt>
      <trkpt lat="45.95132" lon="4.81627">
        <ele>253</ele>
        <time>2018-07-10T08:46:28Z</time>
      </trkpt>
      <trkpt lat="45.95133" lon="4.81634">
        <ele>253</ele>
        <time>2018-07-10T08:46:29Z</time>
      </trkpt>
      <trkpt lat="45.95136" lon="4.8164">
        <ele>253</ele>
        <time>2018-07-10T08:46:30Z</time>
      </trkpt>
      <trkpt lat="45.95139" lon="4.81645">
        <ele>253</ele>
        <time>2018-07-10T08:46:31Z</time>
      </trkpt>
      <trkpt lat="45.9514" lon="4.81652">
        <ele>253</ele>
        <time>2018-07-10T08:46:32Z</time>
      </trkpt>
      <trkpt lat="45.95142" lon="4.81658">
        <ele>253</ele>
        <time>2018-07-10T08:46:33Z</time>
      </trkpt>
      <trkpt lat="45.95144" lon="4.81664">
        <ele>253</ele>
        <time>2018-07-10T08:46:34Z</time>
      </trkpt>
      <trkpt lat="45.95145" lon="4.81671">
        <ele>255</ele>
        <time>2018-07-10T08:46:35Z</time>
      </trkpt>
      <trkpt lat="45.95148" lon="4.81681">
        <ele>255</ele>
        <time>2018-07-10T08:46:37Z</time>
      </trkpt>
      <trkpt lat="45.9515" lon="4.81685">
        <ele>255</ele>
        <time>2018-07-10T08:46:38Z</time>
      </trkpt>
      <trkpt lat="45.95153" lon="4.81694">
        <ele>255</ele>
        <time>2018-07-10T08:46:40Z</time>
      </trkpt>
      <trkpt lat="45.95155" lon="4.81698">
        <ele>255</ele>
        <time>2018-07-10T08:46:41Z</time>
      </trkpt>
      <trkpt lat="45.95157" lon="4.81706">
        <ele>255</ele>
        <time>2018-07-10T08:46:43Z</time>
      </trkpt>
      <trkpt lat="45.95159" lon="4.81714">
        <ele>256</ele>
        <time>2018-07-10T08:46:44Z</time>
      </trkpt>
      <trkpt lat="45.95164" lon="4.81724">
        <ele>256</ele>
        <time>2018-07-10T08:46:46Z</time>
      </trkpt>
      <trkpt lat="45.95165" lon="4.81726">
        <ele>256</ele>
        <time>2018-07-10T08:46:47Z</time>
      </trkpt>
      <trkpt lat="45.95169" lon="4.81732">
        <ele>257</ele>
        <time>2018-07-10T08:46:48Z</time>
      </trkpt>
      <trkpt lat="45.95171" lon="4.81737">
        <ele>257</ele>
        <time>2018-07-10T08:46:49Z</time>
      </trkpt>
      <trkpt lat="45.95175" lon="4.81746">
        <ele>257</ele>
        <time>2018-07-10T08:46:51Z</time>
      </trkpt>
      <trkpt lat="45.95178" lon="4.81751">
        <ele>258</ele>
        <time>2018-07-10T08:46:52Z</time>
      </trkpt>
      <trkpt lat="45.95183" lon="4.81759">
        <ele>258</ele>
        <time>2018-07-10T08:46:54Z</time>
      </trkpt>
      <trkpt lat="45.95186" lon="4.81763">
        <ele>258</ele>
        <time>2018-07-10T08:46:55Z</time>
      </trkpt>
      <trkpt lat="45.95191" lon="4.81771">
        <ele>258</ele>
        <time>2018-07-10T08:46:57Z</time>
      </trkpt>
      <trkpt lat="45.95195" lon="4.81775">
        <ele>258</ele>
        <time>2018-07-10T08:46:58Z</time>
      </trkpt>
      <trkpt lat="45.95198" lon="4.8178">
        <ele>258</ele>
        <time>2018-07-10T08:46:59Z</time>
      </trkpt>
      <trkpt lat="45.95202" lon="4.81784">
        <ele>258</ele>
        <time>2018-07-10T08:47:00Z</time>
      </trkpt>
      <trkpt lat="45.95209" lon="4.81792">
        <ele>259</ele>
        <time>2018-07-10T08:47:02Z</time>
      </trkpt>
      <trkpt lat="45.95212" lon="4.81797">
        <ele>259</ele>
        <time>2018-07-10T08:47:03Z</time>
      </trkpt>
      <trkpt lat="45.95218" lon="4.81806">
        <ele>259</ele>
        <time>2018-07-10T08:47:05Z</time>
      </trkpt>
      <trkpt lat="45.95221" lon="4.8181">
        <ele>259</ele>
        <time>2018-07-10T08:47:06Z</time>
      </trkpt>
      <trkpt lat="45.95227" lon="4.81818">
        <ele>259</ele>
        <time>2018-07-10T08:47:08Z</time>
      </trkpt>
      <trkpt lat="45.95231" lon="4.81822">
        <ele>259</ele>
        <time>2018-07-10T08:47:09Z</time>
      </trkpt>
      <trkpt lat="45.95236" lon="4.81832">
        <ele>259</ele>
        <time>2018-07-10T08:47:11Z</time>
      </trkpt>
      <trkpt lat="45.95239" lon="4.81836">
        <ele>259</ele>
        <time>2018-07-10T08:47:12Z</time>
      </trkpt>
      <trkpt lat="45.95245" lon="4.81843">
        <ele>259</ele>
        <time>2018-07-10T08:47:14Z</time>
      </trkpt>
      <trkpt lat="45.95247" lon="4.81848">
        <ele>260</ele>
        <time>2018-07-10T08:47:15Z</time>
      </trkpt>
      <trkpt lat="45.95252" lon="4.81857">
        <ele>260</ele>
        <time>2018-07-10T08:47:17Z</time>
      </trkpt>
      <trkpt lat="45.95256" lon="4.8186">
        <ele>260</ele>
        <time>2018-07-10T08:47:18Z</time>
      </trkpt>
      <trkpt lat="45.95261" lon="4.81868">
        <ele>260</ele>
        <time>2018-07-10T08:47:20Z</time>
      </trkpt>
      <trkpt lat="45.95264" lon="4.81873">
        <ele>260</ele>
        <time>2018-07-10T08:47:21Z</time>
      </trkpt>
      <trkpt lat="45.9527" lon="4.81882">
        <ele>260</ele>
        <time>2018-07-10T08:47:23Z</time>
      </trkpt>
      <trkpt lat="45.95272" lon="4.81887">
        <ele>260</ele>
        <time>2018-07-10T08:47:24Z</time>
      </trkpt>
      <trkpt lat="45.95278" lon="4.81896">
        <ele>260</ele>
        <time>2018-07-10T08:47:26Z</time>
      </trkpt>
      <trkpt lat="45.95282" lon="4.819">
        <ele>260</ele>
        <time>2018-07-10T08:47:27Z</time>
      </trkpt>
      <trkpt lat="45.95287" lon="4.81904">
        <ele>260</ele>
        <time>2018-07-10T08:47:28Z</time>
      </trkpt>
      <trkpt lat="45.95291" lon="4.81908">
        <ele>260</ele>
        <time>2018-07-10T08:47:29Z</time>
      </trkpt>
      <trkpt lat="45.95295" lon="4.81917">
        <ele>261</ele>
        <time>2018-07-10T08:47:31Z</time>
      </trkpt>
      <trkpt lat="45.95298" lon="4.81921">
        <ele>261</ele>
        <time>2018-07-10T08:47:32Z</time>
      </trkpt>
      <trkpt lat="45.95301" lon="4.81926">
        <ele>261</ele>
        <time>2018-07-10T08:47:33Z</time>
      </trkpt>
      <trkpt lat="45.95304" lon="4.81931">
        <ele>261</ele>
        <time>2018-07-10T08:47:34Z</time>
      </trkpt>
      <trkpt lat="45.95307" lon="4.81936">
        <ele>261</ele>
        <time>2018-07-10T08:47:35Z</time>
      </trkpt>
      <trkpt lat="45.95311" lon="4.8194">
        <ele>261</ele>
        <time>2018-07-10T08:47:36Z</time>
      </trkpt>
      <trkpt lat="45.95313" lon="4.81945">
        <ele>261</ele>
        <time>2018-07-10T08:47:37Z</time>
      </trkpt>
      <trkpt lat="45.95316" lon="4.8195">
        <ele>262</ele>
        <time>2018-07-10T08:47:38Z</time>
      </trkpt>
      <trkpt lat="45.95322" lon="4.81958">
        <ele>262</ele>
        <time>2018-07-10T08:47:40Z</time>
      </trkpt>
      <trkpt lat="45.95325" lon="4.81962">
        <ele>262</ele>
        <time>2018-07-10T08:47:41Z</time>
      </trkpt>
      <trkpt lat="45.95331" lon="4.81966">
        <ele>262</ele>
        <time>2018-07-10T08:47:42Z</time>
      </trkpt>
      <trkpt lat="45.95334" lon="4.81971">
        <ele>262</ele>
        <time>2018-07-10T08:47:43Z</time>
      </trkpt>
      <trkpt lat="45.95339" lon="4.81977">
        <ele>262</ele>
        <time>2018-07-10T08:47:44Z</time>
      </trkpt>
      <trkpt lat="45.95344" lon="4.8198">
        <ele>262</ele>
        <time>2018-07-10T08:47:45Z</time>
      </trkpt>
      <trkpt lat="45.95348" lon="4.81984">
        <ele>262</ele>
        <time>2018-07-10T08:47:46Z</time>
      </trkpt>
      <trkpt lat="45.95352" lon="4.81988">
        <ele>262</ele>
        <time>2018-07-10T08:47:47Z</time>
      </trkpt>
      <trkpt lat="45.95356" lon="4.81992">
        <ele>262</ele>
        <time>2018-07-10T08:47:48Z</time>
      </trkpt>
      <trkpt lat="45.9536" lon="4.81996">
        <ele>261</ele>
        <time>2018-07-10T08:47:49Z</time>
      </trkpt>
      <trkpt lat="45.95365" lon="4.81998">
        <ele>261</ele>
        <time>2018-07-10T08:47:50Z</time>
      </trkpt>
      <trkpt lat="45.95369" lon="4.82002">
        <ele>262</ele>
        <time>2018-07-10T08:47:51Z</time>
      </trkpt>
      <trkpt lat="45.95375" lon="4.8201">
        <ele>262</ele>
        <time>2018-07-10T08:47:53Z</time>
      </trkpt>
      <trkpt lat="45.95379" lon="4.82014">
        <ele>262</ele>
        <time>2018-07-10T08:47:54Z</time>
      </trkpt>
      <trkpt lat="45.95382" lon="4.82018">
        <ele>262</ele>
        <time>2018-07-10T08:47:55Z</time>
      </trkpt>
      <trkpt lat="45.95387" lon="4.82022">
        <ele>261</ele>
        <time>2018-07-10T08:47:56Z</time>
      </trkpt>
      <trkpt lat="45.9539" lon="4.82026">
        <ele>261</ele>
        <time>2018-07-10T08:47:57Z</time>
      </trkpt>
      <trkpt lat="45.95394" lon="4.8203">
        <ele>261</ele>
        <time>2018-07-10T08:47:58Z</time>
      </trkpt>
      <trkpt lat="45.95396" lon="4.82038">
        <ele>261</ele>
        <time>2018-07-10T08:47:59Z</time>
      </trkpt>
      <trkpt lat="45.95401" lon="4.82041">
        <ele>261</ele>
        <time>2018-07-10T08:48:00Z</time>
      </trkpt>
      <trkpt lat="45.95404" lon="4.82046">
        <ele>261</ele>
        <time>2018-07-10T08:48:01Z</time>
      </trkpt>
      <trkpt lat="45.9541" lon="4.82048">
        <ele>261</ele>
        <time>2018-07-10T08:48:02Z</time>
      </trkpt>
      <trkpt lat="45.95414" lon="4.82052">
        <ele>261</ele>
        <time>2018-07-10T08:48:03Z</time>
      </trkpt>
      <trkpt lat="45.95418" lon="4.82058">
        <ele>260</ele>
        <time>2018-07-10T08:48:04Z</time>
      </trkpt>
      <trkpt lat="45.95422" lon="4.82063">
        <ele>260</ele>
        <time>2018-07-10T08:48:05Z</time>
      </trkpt>
      <trkpt lat="45.95426" lon="4.82067">
        <ele>260</ele>
        <time>2018-07-10T08:48:06Z</time>
      </trkpt>
      <trkpt lat="45.95431" lon="4.82073">
        <ele>260</ele>
        <time>2018-07-10T08:48:07Z</time>
      </trkpt>
      <trkpt lat="45.95434" lon="4.82077">
        <ele>260</ele>
        <time>2018-07-10T08:48:08Z</time>
      </trkpt>
      <trkpt lat="45.95437" lon="4.82081">
        <ele>260</ele>
        <time>2018-07-10T08:48:09Z</time>
      </trkpt>
      <trkpt lat="45.95443" lon="4.82084">
        <ele>260</ele>
        <time>2018-07-10T08:48:10Z</time>
      </trkpt>
      <trkpt lat="45.95448" lon="4.82088">
        <ele>260</ele>
        <time>2018-07-10T08:48:11Z</time>
      </trkpt>
      <trkpt lat="45.95453" lon="4.82092">
        <ele>260</ele>
        <time>2018-07-10T08:48:12Z</time>
      </trkpt>
      <trkpt lat="45.95459" lon="4.821">
        <ele>260</ele>
        <time>2018-07-10T08:48:14Z</time>
      </trkpt>
      <trkpt lat="45.95464" lon="4.82104">
        <ele>260</ele>
        <time>2018-07-10T08:48:15Z</time>
      </trkpt>
      <trkpt lat="45.95467" lon="4.82108">
        <ele>260</ele>
        <time>2018-07-10T08:48:16Z</time>
      </trkpt>
      <trkpt lat="45.95471" lon="4.82112">
        <ele>260</ele>
        <time>2018-07-10T08:48:17Z</time>
      </trkpt>
      <trkpt lat="45.95477" lon="4.8212">
        <ele>260</ele>
        <time>2018-07-10T08:48:19Z</time>
      </trkpt>
      <trkpt lat="45.95481" lon="4.82123">
        <ele>260</ele>
        <time>2018-07-10T08:48:20Z</time>
      </trkpt>
      <trkpt lat="45.95487" lon="4.82132">
        <ele>260</ele>
        <time>2018-07-10T08:48:22Z</time>
      </trkpt>
      <trkpt lat="45.9549" lon="4.82135">
        <ele>260</ele>
        <time>2018-07-10T08:48:23Z</time>
      </trkpt>
      <trkpt lat="45.95495" lon="4.82144">
        <ele>260</ele>
        <time>2018-07-10T08:48:25Z</time>
      </trkpt>
      <trkpt lat="45.95499" lon="4.82146">
        <ele>260</ele>
        <time>2018-07-10T08:48:26Z</time>
      </trkpt>
      <trkpt lat="45.95503" lon="4.8215">
        <ele>259</ele>
        <time>2018-07-10T08:48:27Z</time>
      </trkpt>
      <trkpt lat="45.95507" lon="4.82154">
        <ele>260</ele>
        <time>2018-07-10T08:48:28Z</time>
      </trkpt>
      <trkpt lat="45.95511" lon="4.82159">
        <ele>260</ele>
        <time>2018-07-10T08:48:29Z</time>
      </trkpt>
      <trkpt lat="45.95515" lon="4.82162">
        <ele>259</ele>
        <time>2018-07-10T08:48:30Z</time>
      </trkpt>
      <trkpt lat="45.95519" lon="4.82166">
        <ele>259</ele>
        <time>2018-07-10T08:48:31Z</time>
      </trkpt>
      <trkpt lat="45.95524" lon="4.82169">
        <ele>259</ele>
        <time>2018-07-10T08:48:32Z</time>
      </trkpt>
      <trkpt lat="45.9553" lon="4.82173">
        <ele>259</ele>
        <time>2018-07-10T08:48:33Z</time>
      </trkpt>
      <trkpt lat="45.95534" lon="4.82178">
        <ele>259</ele>
        <time>2018-07-10T08:48:34Z</time>
      </trkpt>
      <trkpt lat="45.95538" lon="4.82182">
        <ele>259</ele>
        <time>2018-07-10T08:48:35Z</time>
      </trkpt>
      <trkpt lat="45.95543" lon="4.82186">
        <ele>259</ele>
        <time>2018-07-10T08:48:36Z</time>
      </trkpt>
      <trkpt lat="45.95551" lon="4.82192">
        <ele>259</ele>
        <time>2018-07-10T08:48:38Z</time>
      </trkpt>
      <trkpt lat="45.95557" lon="4.82196">
        <ele>259</ele>
        <time>2018-07-10T08:48:39Z</time>
      </trkpt>
      <trkpt lat="45.95561" lon="4.82199">
        <ele>259</ele>
        <time>2018-07-10T08:48:40Z</time>
      </trkpt>
      <trkpt lat="45.95564" lon="4.82203">
        <ele>258</ele>
        <time>2018-07-10T08:48:41Z</time>
      </trkpt>
      <trkpt lat="45.95569" lon="4.82207">
        <ele>258</ele>
        <time>2018-07-10T08:48:42Z</time>
      </trkpt>
      <trkpt lat="45.95573" lon="4.82212">
        <ele>258</ele>
        <time>2018-07-10T08:48:43Z</time>
      </trkpt>
      <trkpt lat="45.95578" lon="4.82216">
        <ele>258</ele>
        <time>2018-07-10T08:48:44Z</time>
      </trkpt>
      <trkpt lat="45.95582" lon="4.8222">
        <ele>258</ele>
        <time>2018-07-10T08:48:45Z</time>
      </trkpt>
      <trkpt lat="45.95589" lon="4.82223">
        <ele>257</ele>
        <time>2018-07-10T08:48:46Z</time>
      </trkpt>
      <trkpt lat="45.95594" lon="4.82225">
        <ele>257</ele>
        <time>2018-07-10T08:48:47Z</time>
      </trkpt>
      <trkpt lat="45.95599" lon="4.82228">
        <ele>257</ele>
        <time>2018-07-10T08:48:48Z</time>
      </trkpt>
      <trkpt lat="45.95606" lon="4.82229">
        <ele>257</ele>
        <time>2018-07-10T08:48:49Z</time>
      </trkpt>
      <trkpt lat="45.95611" lon="4.82229">
        <ele>257</ele>
        <time>2018-07-10T08:48:50Z</time>
      </trkpt>
      <trkpt lat="45.95617" lon="4.82229">
        <ele>257</ele>
        <time>2018-07-10T08:48:51Z</time>
      </trkpt>
      <trkpt lat="45.95623" lon="4.82229">
        <ele>257</ele>
        <time>2018-07-10T08:48:53Z</time>
      </trkpt>
      <trkpt lat="45.95628" lon="4.8223">
        <ele>257</ele>
        <time>2018-07-10T08:48:54Z</time>
      </trkpt>
      <trkpt lat="45.95636" lon="4.82229">
        <ele>257</ele>
        <time>2018-07-10T08:48:55Z</time>
      </trkpt>
      <trkpt lat="45.9564" lon="4.82231">
        <ele>257</ele>
        <time>2018-07-10T08:48:56Z</time>
      </trkpt>
      <trkpt lat="45.95646" lon="4.8223">
        <ele>257</ele>
        <time>2018-07-10T08:48:57Z</time>
      </trkpt>
      <trkpt lat="45.95656" lon="4.82231">
        <ele>257</ele>
        <time>2018-07-10T08:48:58Z</time>
      </trkpt>
      <trkpt lat="45.95661" lon="4.82234">
        <ele>256</ele>
        <time>2018-07-10T08:48:59Z</time>
      </trkpt>
      <trkpt lat="45.95665" lon="4.82237">
        <ele>256</ele>
        <time>2018-07-10T08:49:00Z</time>
      </trkpt>
      <trkpt lat="45.9567" lon="4.82241">
        <ele>255</ele>
        <time>2018-07-10T08:49:01Z</time>
      </trkpt>
      <trkpt lat="45.95675" lon="4.82245">
        <ele>255</ele>
        <time>2018-07-10T08:49:02Z</time>
      </trkpt>
      <trkpt lat="45.9568" lon="4.82248">
        <ele>255</ele>
        <time>2018-07-10T08:49:03Z</time>
      </trkpt>
      <trkpt lat="45.95685" lon="4.82252">
        <ele>256</ele>
        <time>2018-07-10T08:49:04Z</time>
      </trkpt>
      <trkpt lat="45.95687" lon="4.82259">
        <ele>256</ele>
        <time>2018-07-10T08:49:05Z</time>
      </trkpt>
      <trkpt lat="45.95692" lon="4.82264">
        <ele>255</ele>
        <time>2018-07-10T08:49:06Z</time>
      </trkpt>
      <trkpt lat="45.95696" lon="4.8227">
        <ele>255</ele>
        <time>2018-07-10T08:49:07Z</time>
      </trkpt>
      <trkpt lat="45.957" lon="4.82275">
        <ele>255</ele>
        <time>2018-07-10T08:49:08Z</time>
      </trkpt>
      <trkpt lat="45.95704" lon="4.8228">
        <ele>255</ele>
        <time>2018-07-10T08:49:09Z</time>
      </trkpt>
      <trkpt lat="45.95711" lon="4.82278">
        <ele>255</ele>
        <time>2018-07-10T08:49:10Z</time>
      </trkpt>
      <trkpt lat="45.95714" lon="4.82284">
        <ele>255</ele>
        <time>2018-07-10T08:49:11Z</time>
      </trkpt>
      <trkpt lat="45.95719" lon="4.82289">
        <ele>255</ele>
        <time>2018-07-10T08:49:12Z</time>
      </trkpt>
      <trkpt lat="45.95723" lon="4.82295">
        <ele>255</ele>
        <time>2018-07-10T08:49:13Z</time>
      </trkpt>
      <trkpt lat="45.95728" lon="4.82302">
        <ele>255</ele>
        <time>2018-07-10T08:49:14Z</time>
      </trkpt>
      <trkpt lat="45.95733" lon="4.82307">
        <ele>255</ele>
        <time>2018-07-10T08:49:15Z</time>
      </trkpt>
      <trkpt lat="45.95738" lon="4.82312">
        <ele>256</ele>
        <time>2018-07-10T08:49:16Z</time>
      </trkpt>
      <trkpt lat="45.95741" lon="4.82318">
        <ele>256</ele>
        <time>2018-07-10T08:49:17Z</time>
      </trkpt>
      <trkpt lat="45.95749" lon="4.8232">
        <ele>256</ele>
        <time>2018-07-10T08:49:18Z</time>
      </trkpt>
      <trkpt lat="45.95757" lon="4.82323">
        <ele>253</ele>
        <time>2018-07-10T08:49:19Z</time>
      </trkpt>
      <trkpt lat="45.95763" lon="4.82328">
        <ele>253</ele>
        <time>2018-07-10T08:49:20Z</time>
      </trkpt>
      <trkpt lat="45.95768" lon="4.82334">
        <ele>254</ele>
        <time>2018-07-10T08:49:21Z</time>
      </trkpt>
      <trkpt lat="45.95774" lon="4.8234">
        <ele>254</ele>
        <time>2018-07-10T08:49:22Z</time>
      </trkpt>
      <trkpt lat="45.95777" lon="4.82346">
        <ele>253</ele>
        <time>2018-07-10T08:49:23Z</time>
      </trkpt>
      <trkpt lat="45.9578" lon="4.82351">
        <ele>253</ele>
        <time>2018-07-10T08:49:24Z</time>
      </trkpt>
      <trkpt lat="45.95788" lon="4.82354">
        <ele>253</ele>
        <time>2018-07-10T08:49:25Z</time>
      </trkpt>
      <trkpt lat="45.95796" lon="4.82357">
        <ele>252</ele>
        <time>2018-07-10T08:49:26Z</time>
      </trkpt>
      <trkpt lat="45.95802" lon="4.8236">
        <ele>252</ele>
        <time>2018-07-10T08:49:27Z</time>
      </trkpt>
      <trkpt lat="45.9581" lon="4.82362">
        <ele>252</ele>
        <time>2018-07-10T08:49:28Z</time>
      </trkpt>
      <trkpt lat="45.95816" lon="4.82363">
        <ele>251</ele>
        <time>2018-07-10T08:49:29Z</time>
      </trkpt>
      <trkpt lat="45.95824" lon="4.82365">
        <ele>251</ele>
        <time>2018-07-10T08:49:30Z</time>
      </trkpt>
      <trkpt lat="45.95831" lon="4.82366">
        <ele>251</ele>
        <time>2018-07-10T08:49:31Z</time>
      </trkpt>
      <trkpt lat="45.9584" lon="4.82368">
        <ele>246</ele>
        <time>2018-07-10T08:49:32Z</time>
      </trkpt>
      <trkpt lat="45.95849" lon="4.82369">
        <ele>246</ele>
        <time>2018-07-10T08:49:33Z</time>
      </trkpt>
      <trkpt lat="45.95858" lon="4.8237">
        <ele>245</ele>
        <time>2018-07-10T08:49:34Z</time>
      </trkpt>
      <trkpt lat="45.95869" lon="4.82371">
        <ele>245</ele>
        <time>2018-07-10T08:49:35Z</time>
      </trkpt>
      <trkpt lat="45.95876" lon="4.82371">
        <ele>244</ele>
        <time>2018-07-10T08:49:36Z</time>
      </trkpt>
      <trkpt lat="45.95885" lon="4.82371">
        <ele>244</ele>
        <time>2018-07-10T08:49:37Z</time>
      </trkpt>
      <trkpt lat="45.95895" lon="4.82369">
        <ele>243</ele>
        <time>2018-07-10T08:49:38Z</time>
      </trkpt>
      <trkpt lat="45.95904" lon="4.82369">
        <ele>243</ele>
        <time>2018-07-10T08:49:39Z</time>
      </trkpt>
      <trkpt lat="45.95914" lon="4.82368">
        <ele>242</ele>
        <time>2018-07-10T08:49:40Z</time>
      </trkpt>
      <trkpt lat="45.95924" lon="4.82365">
        <ele>238</ele>
        <time>2018-07-10T08:49:41Z</time>
      </trkpt>
      <trkpt lat="45.95933" lon="4.82362">
        <ele>238</ele>
        <time>2018-07-10T08:49:42Z</time>
      </trkpt>
      <trkpt lat="45.95941" lon="4.8236">
        <ele>237</ele>
        <time>2018-07-10T08:49:43Z</time>
      </trkpt>
      <trkpt lat="45.9595" lon="4.82358">
        <ele>237</ele>
        <time>2018-07-10T08:49:44Z</time>
      </trkpt>
      <trkpt lat="45.95964" lon="4.82356">
        <ele>237</ele>
        <time>2018-07-10T08:49:45Z</time>
      </trkpt>
      <trkpt lat="45.95971" lon="4.82356">
        <ele>237</ele>
        <time>2018-07-10T08:49:46Z</time>
      </trkpt>
      <trkpt lat="45.9598" lon="4.82354">
        <ele>237</ele>
        <time>2018-07-10T08:49:47Z</time>
      </trkpt>
      <trkpt lat="45.95987" lon="4.82355">
        <ele>236</ele>
        <time>2018-07-10T08:49:48Z</time>
      </trkpt>
      <trkpt lat="45.95994" lon="4.82356">
        <ele>236</ele>
        <time>2018-07-10T08:49:49Z</time>
      </trkpt>
      <trkpt lat="45.96002" lon="4.82356">
        <ele>235</ele>
        <time>2018-07-10T08:49:50Z</time>
      </trkpt>
      <trkpt lat="45.96008" lon="4.82358">
        <ele>235</ele>
        <time>2018-07-10T08:49:51Z</time>
      </trkpt>
      <trkpt lat="45.96013" lon="4.8236">
        <ele>235</ele>
        <time>2018-07-10T08:49:52Z</time>
      </trkpt>
      <trkpt lat="45.96018" lon="4.82363">
        <ele>235</ele>
        <time>2018-07-10T08:49:53Z</time>
      </trkpt>
      <trkpt lat="45.96022" lon="4.82368">
        <ele>235</ele>
        <time>2018-07-10T08:49:54Z</time>
      </trkpt>
      <trkpt lat="45.96023" lon="4.82376">
        <ele>235</ele>
        <time>2018-07-10T08:49:55Z</time>
      </trkpt>
      <trkpt lat="45.96023" lon="4.82384">
        <ele>235</ele>
        <time>2018-07-10T08:49:56Z</time>
      </trkpt>
      <trkpt lat="45.9602" lon="4.82393">
        <ele>235</ele>
        <time>2018-07-10T08:49:57Z</time>
      </trkpt>
      <trkpt lat="45.96018" lon="4.82401">
        <ele>235</ele>
        <time>2018-07-10T08:49:58Z</time>
      </trkpt>
      <trkpt lat="45.96018" lon="4.82407">
        <ele>235</ele>
        <time>2018-07-10T08:49:59Z</time>
      </trkpt>
      <trkpt lat="45.96017" lon="4.82415">
        <ele>235</ele>
        <time>2018-07-10T08:50:00Z</time>
      </trkpt>
      <trkpt lat="45.96016" lon="4.82423">
        <ele>235</ele>
        <time>2018-07-10T08:50:01Z</time>
      </trkpt>
      <trkpt lat="45.96014" lon="4.82431">
        <ele>235</ele>
        <time>2018-07-10T08:50:02Z</time>
      </trkpt>
      <trkpt lat="45.96015" lon="4.82439">
        <ele>235</ele>
        <time>2018-07-10T08:50:03Z</time>
      </trkpt>
      <trkpt lat="45.96012" lon="4.82448">
        <ele>235</ele>
        <time>2018-07-10T08:50:04Z</time>
      </trkpt>
      <trkpt lat="45.96012" lon="4.82456">
        <ele>235</ele>
        <time>2018-07-10T08:50:05Z</time>
      </trkpt>
      <trkpt lat="45.96011" lon="4.82463">
        <ele>235</ele>
        <time>2018-07-10T08:50:06Z</time>
      </trkpt>
      <trkpt lat="45.96011" lon="4.82471">
        <ele>235</ele>
        <time>2018-07-10T08:50:07Z</time>
      </trkpt>
      <trkpt lat="45.96011" lon="4.82483">
        <ele>235</ele>
        <time>2018-07-10T08:50:09Z</time>
      </trkpt>
      <trkpt lat="45.96011" lon="4.82489">
        <ele>235</ele>
        <time>2018-07-10T08:50:10Z</time>
      </trkpt>
      <trkpt lat="45.96009" lon="4.82501">
        <ele>235</ele>
        <time>2018-07-10T08:50:12Z</time>
      </trkpt>
      <trkpt lat="45.96009" lon="4.82507">
        <ele>235</ele>
        <time>2018-07-10T08:50:13Z</time>
      </trkpt>
      <trkpt lat="45.96007" lon="4.8252">
        <ele>235</ele>
        <time>2018-07-10T08:50:15Z</time>
      </trkpt>
      <trkpt lat="45.96008" lon="4.82529">
        <ele>235</ele>
        <time>2018-07-10T08:50:16Z</time>
      </trkpt>
      <trkpt lat="45.96007" lon="4.82535">
        <ele>235</ele>
        <time>2018-07-10T08:50:17Z</time>
      </trkpt>
      <trkpt lat="45.96007" lon="4.82543">
        <ele>235</ele>
        <time>2018-07-10T08:50:18Z</time>
      </trkpt>
      <trkpt lat="45.96006" lon="4.82549">
        <ele>235</ele>
        <time>2018-07-10T08:50:19Z</time>
      </trkpt>
      <trkpt lat="45.96007" lon="4.82556">
        <ele>235</ele>
        <time>2018-07-10T08:50:20Z</time>
      </trkpt>
      <trkpt lat="45.96008" lon="4.82563">
        <ele>234</ele>
        <time>2018-07-10T08:50:21Z</time>
      </trkpt>
      <trkpt lat="45.96008" lon="4.82569">
        <ele>234</ele>
        <time>2018-07-10T08:50:22Z</time>
      </trkpt>
      <trkpt lat="45.96008" lon="4.82576">
        <ele>234</ele>
        <time>2018-07-10T08:50:23Z</time>
      </trkpt>
      <trkpt lat="45.9601" lon="4.82583">
        <ele>234</ele>
        <time>2018-07-10T08:50:24Z</time>
      </trkpt>
      <trkpt lat="45.96012" lon="4.8259">
        <ele>235</ele>
        <time>2018-07-10T08:50:25Z</time>
      </trkpt>
      <trkpt lat="45.96014" lon="4.82596">
        <ele>235</ele>
        <time>2018-07-10T08:50:26Z</time>
      </trkpt>
      <trkpt lat="45.96017" lon="4.82603">
        <ele>235</ele>
        <time>2018-07-10T08:50:27Z</time>
      </trkpt>
      <trkpt lat="45.96019" lon="4.82609">
        <ele>235</ele>
        <time>2018-07-10T08:50:28Z</time>
      </trkpt>
      <trkpt lat="45.96021" lon="4.82615">
        <ele>235</ele>
        <time>2018-07-10T08:50:29Z</time>
      </trkpt>
      <trkpt lat="45.96023" lon="4.82621">
        <ele>235</ele>
        <time>2018-07-10T08:50:30Z</time>
      </trkpt>
      <trkpt lat="45.96028" lon="4.82632">
        <ele>235</ele>
        <time>2018-07-10T08:50:32Z</time>
      </trkpt>
      <trkpt lat="45.96031" lon="4.82637">
        <ele>235</ele>
        <time>2018-07-10T08:50:33Z</time>
      </trkpt>
      <trkpt lat="45.96032" lon="4.82643">
        <ele>235</ele>
        <time>2018-07-10T08:50:34Z</time>
      </trkpt>
      <trkpt lat="45.96034" lon="4.8265">
        <ele>235</ele>
        <time>2018-07-10T08:50:35Z</time>
      </trkpt>
      <trkpt lat="45.96038" lon="4.82655">
        <ele>235</ele>
        <time>2018-07-10T08:50:36Z</time>
      </trkpt>
      <trkpt lat="45.9604" lon="4.82662">
        <ele>235</ele>
        <time>2018-07-10T08:50:37Z</time>
      </trkpt>
      <trkpt lat="45.96044" lon="4.82673">
        <ele>236</ele>
        <time>2018-07-10T08:50:39Z</time>
      </trkpt>
      <trkpt lat="45.96046" lon="4.82679">
        <ele>236</ele>
        <time>2018-07-10T08:50:40Z</time>
      </trkpt>
      <trkpt lat="45.96049" lon="4.82685">
        <ele>236</ele>
        <time>2018-07-10T08:50:41Z</time>
      </trkpt>
      <trkpt lat="45.96053" lon="4.82692">
        <ele>237</ele>
        <time>2018-07-10T08:50:42Z</time>
      </trkpt>
      <trkpt lat="45.96057" lon="4.82702">
        <ele>237</ele>
        <time>2018-07-10T08:50:44Z</time>
      </trkpt>
      <trkpt lat="45.96059" lon="4.82708">
        <ele>237</ele>
        <time>2018-07-10T08:50:45Z</time>
      </trkpt>
      <trkpt lat="45.96061" lon="4.82715">
        <ele>237</ele>
        <time>2018-07-10T08:50:46Z</time>
      </trkpt>
      <trkpt lat="45.96063" lon="4.82721">
        <ele>237</ele>
        <time>2018-07-10T08:50:47Z</time>
      </trkpt>
      <trkpt lat="45.96068" lon="4.82731">
        <ele>237</ele>
        <time>2018-07-10T08:50:49Z</time>
      </trkpt>
      <trkpt lat="45.9607" lon="4.82736">
        <ele>237</ele>
        <time>2018-07-10T08:50:50Z</time>
      </trkpt>
      <trkpt lat="45.96072" lon="4.82748">
        <ele>237</ele>
        <time>2018-07-10T08:50:52Z</time>
      </trkpt>
      <trkpt lat="45.96076" lon="4.82752">
        <ele>237</ele>
        <time>2018-07-10T08:50:53Z</time>
      </trkpt>
      <trkpt lat="45.9608" lon="4.82762">
        <ele>238</ele>
        <time>2018-07-10T08:50:55Z</time>
      </trkpt>
      <trkpt lat="45.96083" lon="4.82768">
        <ele>238</ele>
        <time>2018-07-10T08:50:56Z</time>
      </trkpt>
      <trkpt lat="45.96086" lon="4.82775">
        <ele>237</ele>
        <time>2018-07-10T08:50:57Z</time>
      </trkpt>
      <trkpt lat="45.96087" lon="4.82781">
        <ele>237</ele>
        <time>2018-07-10T08:50:58Z</time>
      </trkpt>
      <trkpt lat="45.96089" lon="4.82788">
        <ele>237</ele>
        <time>2018-07-10T08:50:59Z</time>
      </trkpt>
      <trkpt lat="45.96091" lon="4.82794">
        <ele>237</ele>
        <time>2018-07-10T08:51:00Z</time>
      </trkpt>
      <trkpt lat="45.96092" lon="4.82801">
        <ele>237</ele>
        <time>2018-07-10T08:51:01Z</time>
      </trkpt>
      <trkpt lat="45.96094" lon="4.82807">
        <ele>237</ele>
        <time>2018-07-10T08:51:02Z</time>
      </trkpt>
      <trkpt lat="45.96094" lon="4.82816">
        <ele>237</ele>
        <time>2018-07-10T08:51:03Z</time>
      </trkpt>
      <trkpt lat="45.96096" lon="4.82824">
        <ele>237</ele>
        <time>2018-07-10T08:51:04Z</time>
      </trkpt>
      <trkpt lat="45.96095" lon="4.8283">
        <ele>237</ele>
        <time>2018-07-10T08:51:05Z</time>
      </trkpt>
      <trkpt lat="45.96096" lon="4.82837">
        <ele>237</ele>
        <time>2018-07-10T08:51:06Z</time>
      </trkpt>
      <trkpt lat="45.96095" lon="4.82849">
        <ele>237</ele>
        <time>2018-07-10T08:51:08Z</time>
      </trkpt>
      <trkpt lat="45.96095" lon="4.82855">
        <ele>237</ele>
        <time>2018-07-10T08:51:09Z</time>
      </trkpt>
      <trkpt lat="45.96093" lon="4.82863">
        <ele>237</ele>
        <time>2018-07-10T08:51:10Z</time>
      </trkpt>
      <trkpt lat="45.96092" lon="4.82869">
        <ele>237</ele>
        <time>2018-07-10T08:51:11Z</time>
      </trkpt>
      <trkpt lat="45.96091" lon="4.82876">
        <ele>237</ele>
        <time>2018-07-10T08:51:12Z</time>
      </trkpt>
      <trkpt lat="45.9609" lon="4.82882">
        <ele>237</ele>
        <time>2018-07-10T08:51:13Z</time>
      </trkpt>
      <trkpt lat="45.96089" lon="4.8289">
        <ele>237</ele>
        <time>2018-07-10T08:51:14Z</time>
      </trkpt>
      <trkpt lat="45.96088" lon="4.82897">
        <ele>238</ele>
        <time>2018-07-10T08:51:15Z</time>
      </trkpt>
      <trkpt lat="45.96085" lon="4.82903">
        <ele>238</ele>
        <time>2018-07-10T08:51:16Z</time>
      </trkpt>
      <trkpt lat="45.96082" lon="4.82909">
        <ele>239</ele>
        <time>2018-07-10T08:51:17Z</time>
      </trkpt>
      <trkpt lat="45.9608" lon="4.82921">
        <ele>239</ele>
        <time>2018-07-10T08:51:19Z</time>
      </trkpt>
      <trkpt lat="45.96078" lon="4.82926">
        <ele>239</ele>
        <time>2018-07-10T08:51:20Z</time>
      </trkpt>
      <trkpt lat="45.96076" lon="4.82933">
        <ele>240</ele>
        <time>2018-07-10T08:51:21Z</time>
      </trkpt>
      <trkpt lat="45.96072" lon="4.82938">
        <ele>241</ele>
        <time>2018-07-10T08:51:22Z</time>
      </trkpt>
      <trkpt lat="45.9607" lon="4.82945">
        <ele>241</ele>
        <time>2018-07-10T08:51:23Z</time>
      </trkpt>
      <trkpt lat="45.96068" lon="4.82952">
        <ele>241</ele>
        <time>2018-07-10T08:51:24Z</time>
      </trkpt>
      <trkpt lat="45.96064" lon="4.82962">
        <ele>241</ele>
        <time>2018-07-10T08:51:26Z</time>
      </trkpt>
      <trkpt lat="45.96062" lon="4.82969">
        <ele>241</ele>
        <time>2018-07-10T08:51:27Z</time>
      </trkpt>
      <trkpt lat="45.96059" lon="4.8298">
        <ele>242</ele>
        <time>2018-07-10T08:51:29Z</time>
      </trkpt>
      <trkpt lat="45.96057" lon="4.82986">
        <ele>242</ele>
        <time>2018-07-10T08:51:30Z</time>
      </trkpt>
      <trkpt lat="45.96057" lon="4.82996">
        <ele>242</ele>
        <time>2018-07-10T08:51:32Z</time>
      </trkpt>
      <trkpt lat="45.96057" lon="4.82999">
        <ele>242</ele>
        <time>2018-07-10T08:51:33Z</time>
      </trkpt>
      <trkpt lat="45.9606" lon="4.8301">
        <ele>242</ele>
        <time>2018-07-10T08:51:34Z</time>
      </trkpt>
      <trkpt lat="45.96061" lon="4.83016">
        <ele>242</ele>
        <time>2018-07-10T08:51:35Z</time>
      </trkpt>
      <trkpt lat="45.96062" lon="4.83022">
        <ele>243</ele>
        <time>2018-07-10T08:51:36Z</time>
      </trkpt>
      <trkpt lat="45.96062" lon="4.8303">
        <ele>243</ele>
        <time>2018-07-10T08:51:37Z</time>
      </trkpt>
      <trkpt lat="45.96063" lon="4.83037">
        <ele>243</ele>
        <time>2018-07-10T08:51:38Z</time>
      </trkpt>
      <trkpt lat="45.96066" lon="4.83042">
        <ele>243</ele>
        <time>2018-07-10T08:51:39Z</time>
      </trkpt>
      <trkpt lat="45.96068" lon="4.83048">
        <ele>243</ele>
        <time>2018-07-10T08:51:40Z</time>
      </trkpt>
      <trkpt lat="45.9607" lon="4.83054">
        <ele>243</ele>
        <time>2018-07-10T08:51:41Z</time>
      </trkpt>
      <trkpt lat="45.96071" lon="4.83066">
        <ele>242</ele>
        <time>2018-07-10T08:51:43Z</time>
      </trkpt>
      <trkpt lat="45.96074" lon="4.83072">
        <ele>242</ele>
        <time>2018-07-10T08:51:44Z</time>
      </trkpt>
      <trkpt lat="45.96075" lon="4.8308">
        <ele>241</ele>
        <time>2018-07-10T08:51:45Z</time>
      </trkpt>
      <trkpt lat="45.96077" lon="4.83088">
        <ele>241</ele>
        <time>2018-07-10T08:51:46Z</time>
      </trkpt>
      <trkpt lat="45.96079" lon="4.83094">
        <ele>241</ele>
        <time>2018-07-10T08:51:47Z</time>
      </trkpt>
      <trkpt lat="45.9608" lon="4.831">
        <ele>242</ele>
        <time>2018-07-10T08:51:48Z</time>
      </trkpt>
      <trkpt lat="45.96081" lon="4.83106">
        <ele>242</ele>
        <time>2018-07-10T08:51:49Z</time>
      </trkpt>
      <trkpt lat="45.9608" lon="4.83113">
        <ele>242</ele>
        <time>2018-07-10T08:51:50Z</time>
      </trkpt>
      <trkpt lat="45.96079" lon="4.8312">
        <ele>242</ele>
        <time>2018-07-10T08:51:51Z</time>
      </trkpt>
      <trkpt lat="45.96079" lon="4.83127">
        <ele>242</ele>
        <time>2018-07-10T08:51:52Z</time>
      </trkpt>
      <trkpt lat="45.96079" lon="4.83135">
        <ele>242</ele>
        <time>2018-07-10T08:51:53Z</time>
      </trkpt>
      <trkpt lat="45.96086" lon="4.83141">
        <ele>240</ele>
        <time>2018-07-10T08:51:54Z</time>
      </trkpt>
      <trkpt lat="45.96085" lon="4.83148">
        <ele>240</ele>
        <time>2018-07-10T08:51:55Z</time>
      </trkpt>
      <trkpt lat="45.96084" lon="4.83154">
        <ele>240</ele>
        <time>2018-07-10T08:51:56Z</time>
      </trkpt>
      <trkpt lat="45.96083" lon="4.83162">
        <ele>241</ele>
        <time>2018-07-10T08:51:57Z</time>
      </trkpt>
      <trkpt lat="45.96084" lon="4.83169">
        <ele>240</ele>
        <time>2018-07-10T08:51:58Z</time>
      </trkpt>
      <trkpt lat="45.96084" lon="4.83176">
        <ele>240</ele>
        <time>2018-07-10T08:51:59Z</time>
      </trkpt>
      <trkpt lat="45.96083" lon="4.83184">
        <ele>241</ele>
        <time>2018-07-10T08:52:00Z</time>
      </trkpt>
      <trkpt lat="45.96083" lon="4.83191">
        <ele>241</ele>
        <time>2018-07-10T08:52:01Z</time>
      </trkpt>
      <trkpt lat="45.96083" lon="4.83198">
        <ele>241</ele>
        <time>2018-07-10T08:52:02Z</time>
      </trkpt>
      <trkpt lat="45.96084" lon="4.83204">
        <ele>240</ele>
        <time>2018-07-10T08:52:03Z</time>
      </trkpt>
      <trkpt lat="45.96085" lon="4.83211">
        <ele>240</ele>
        <time>2018-07-10T08:52:04Z</time>
      </trkpt>
      <trkpt lat="45.96087" lon="4.83223">
        <ele>240</ele>
        <time>2018-07-10T08:52:06Z</time>
      </trkpt>
      <trkpt lat="45.96087" lon="4.8323">
        <ele>240</ele>
        <time>2018-07-10T08:52:07Z</time>
      </trkpt>
      <trkpt lat="45.96088" lon="4.83241">
        <ele>240</ele>
        <time>2018-07-10T08:52:09Z</time>
      </trkpt>
      <trkpt lat="45.96088" lon="4.83247">
        <ele>240</ele>
        <time>2018-07-10T08:52:10Z</time>
      </trkpt>
      <trkpt lat="45.96089" lon="4.83254">
        <ele>240</ele>
        <time>2018-07-10T08:52:11Z</time>
      </trkpt>
      <trkpt lat="45.96089" lon="4.83261">
        <ele>241</ele>
        <time>2018-07-10T08:52:12Z</time>
      </trkpt>
      <trkpt lat="45.96088" lon="4.83268">
        <ele>241</ele>
        <time>2018-07-10T08:52:13Z</time>
      </trkpt>
      <trkpt lat="45.96088" lon="4.83276">
        <ele>241</ele>
        <time>2018-07-10T08:52:14Z</time>
      </trkpt>
      <trkpt lat="45.96088" lon="4.83282">
        <ele>241</ele>
        <time>2018-07-10T08:52:15Z</time>
      </trkpt>
      <trkpt lat="45.96088" lon="4.8329">
        <ele>241</ele>
        <time>2018-07-10T08:52:16Z</time>
      </trkpt>
      <trkpt lat="45.96088" lon="4.83296">
        <ele>241</ele>
        <time>2018-07-10T08:52:17Z</time>
      </trkpt>
      <trkpt lat="45.96089" lon="4.83304">
        <ele>241</ele>
        <time>2018-07-10T08:52:18Z</time>
      </trkpt>
      <trkpt lat="45.96089" lon="4.83311">
        <ele>241</ele>
        <time>2018-07-10T08:52:19Z</time>
      </trkpt>
      <trkpt lat="45.9609" lon="4.83317">
        <ele>241</ele>
        <time>2018-07-10T08:52:20Z</time>
      </trkpt>
      <trkpt lat="45.96092" lon="4.83324">
        <ele>241</ele>
        <time>2018-07-10T08:52:21Z</time>
      </trkpt>
      <trkpt lat="45.96093" lon="4.83332">
        <ele>241</ele>
        <time>2018-07-10T08:52:22Z</time>
      </trkpt>
      <trkpt lat="45.96094" lon="4.83339">
        <ele>242</ele>
        <time>2018-07-10T08:52:23Z</time>
      </trkpt>
      <trkpt lat="45.96096" lon="4.83346">
        <ele>242</ele>
        <time>2018-07-10T08:52:24Z</time>
      </trkpt>
      <trkpt lat="45.96098" lon="4.83358">
        <ele>242</ele>
        <time>2018-07-10T08:52:26Z</time>
      </trkpt>
      <trkpt lat="45.96097" lon="4.83363">
        <ele>242</ele>
        <time>2018-07-10T08:52:27Z</time>
      </trkpt>
      <trkpt lat="45.96098" lon="4.83369">
        <ele>242</ele>
        <time>2018-07-10T08:52:28Z</time>
      </trkpt>
      <trkpt lat="45.96098" lon="4.83376">
        <ele>242</ele>
        <time>2018-07-10T08:52:29Z</time>
      </trkpt>
      <trkpt lat="45.961" lon="4.83382">
        <ele>242</ele>
        <time>2018-07-10T08:52:30Z</time>
      </trkpt>
      <trkpt lat="45.96102" lon="4.83389">
        <ele>243</ele>
        <time>2018-07-10T08:52:31Z</time>
      </trkpt>
      <trkpt lat="45.96104" lon="4.83396">
        <ele>243</ele>
        <time>2018-07-10T08:52:32Z</time>
      </trkpt>
      <trkpt lat="45.96105" lon="4.83402">
        <ele>243</ele>
        <time>2018-07-10T08:52:33Z</time>
      </trkpt>
      <trkpt lat="45.96108" lon="4.83409">
        <ele>243</ele>
        <time>2018-07-10T08:52:34Z</time>
      </trkpt>
      <trkpt lat="45.9611" lon="4.83414">
        <ele>243</ele>
        <time>2018-07-10T08:52:35Z</time>
      </trkpt>
      <trkpt lat="45.96112" lon="4.83421">
        <ele>243</ele>
        <time>2018-07-10T08:52:36Z</time>
      </trkpt>
      <trkpt lat="45.96113" lon="4.83427">
        <ele>243</ele>
        <time>2018-07-10T08:52:37Z</time>
      </trkpt>
      <trkpt lat="45.96116" lon="4.83438">
        <ele>242</ele>
        <time>2018-07-10T08:52:39Z</time>
      </trkpt>
      <trkpt lat="45.96116" lon="4.83445">
        <ele>242</ele>
        <time>2018-07-10T08:52:40Z</time>
      </trkpt>
      <trkpt lat="45.96117" lon="4.83452">
        <ele>242</ele>
        <time>2018-07-10T08:52:41Z</time>
      </trkpt>
      <trkpt lat="45.96118" lon="4.83458">
        <ele>242</ele>
        <time>2018-07-10T08:52:42Z</time>
      </trkpt>
      <trkpt lat="45.96122" lon="4.83468">
        <ele>242</ele>
        <time>2018-07-10T08:52:44Z</time>
      </trkpt>
      <trkpt lat="45.96125" lon="4.83473">
        <ele>242</ele>
        <time>2018-07-10T08:52:45Z</time>
      </trkpt>
      <trkpt lat="45.96129" lon="4.83484">
        <ele>242</ele>
        <time>2018-07-10T08:52:47Z</time>
      </trkpt>
      <trkpt lat="45.9613" lon="4.83491">
        <ele>242</ele>
        <time>2018-07-10T08:52:48Z</time>
      </trkpt>
      <trkpt lat="45.96134" lon="4.83496">
        <ele>242</ele>
        <time>2018-07-10T08:52:49Z</time>
      </trkpt>
      <trkpt lat="45.96137" lon="4.83503">
        <ele>241</ele>
        <time>2018-07-10T08:52:50Z</time>
      </trkpt>
      <trkpt lat="45.96137" lon="4.83512">
        <ele>242</ele>
        <time>2018-07-10T08:52:52Z</time>
      </trkpt>
      <trkpt lat="45.96137" lon="4.83519">
        <ele>242</ele>
        <time>2018-07-10T08:52:53Z</time>
      </trkpt>
      <trkpt lat="45.96139" lon="4.83529">
        <ele>242</ele>
        <time>2018-07-10T08:52:56Z</time>
      </trkpt>
      <trkpt lat="45.96142" lon="4.83539">
        <ele>242</ele>
        <time>2018-07-10T08:52:57Z</time>
      </trkpt>
      <trkpt lat="45.96144" lon="4.83545">
        <ele>242</ele>
        <time>2018-07-10T08:52:58Z</time>
      </trkpt>
      <trkpt lat="45.96146" lon="4.83551">
        <ele>242</ele>
        <time>2018-07-10T08:52:59Z</time>
      </trkpt>
      <trkpt lat="45.96146" lon="4.83562">
        <ele>241</ele>
        <time>2018-07-10T08:53:01Z</time>
      </trkpt>
      <trkpt lat="45.96147" lon="4.83568">
        <ele>241</ele>
        <time>2018-07-10T08:53:02Z</time>
      </trkpt>
      <trkpt lat="45.96148" lon="4.8358">
        <ele>241</ele>
        <time>2018-07-10T08:53:04Z</time>
      </trkpt>
      <trkpt lat="45.96151" lon="4.83586">
        <ele>242</ele>
        <time>2018-07-10T08:53:05Z</time>
      </trkpt>
      <trkpt lat="45.96153" lon="4.83591">
        <ele>242</ele>
        <time>2018-07-10T08:53:06Z</time>
      </trkpt>
      <trkpt lat="45.96155" lon="4.83598">
        <ele>242</ele>
        <time>2018-07-10T08:53:07Z</time>
      </trkpt>
      <trkpt lat="45.96157" lon="4.8361">
        <ele>242</ele>
        <time>2018-07-10T08:53:09Z</time>
      </trkpt>
      <trkpt lat="45.96158" lon="4.83616">
        <ele>242</ele>
        <time>2018-07-10T08:53:10Z</time>
      </trkpt>
      <trkpt lat="45.9616" lon="4.83623">
        <ele>242</ele>
        <time>2018-07-10T08:53:11Z</time>
      </trkpt>
      <trkpt lat="45.96163" lon="4.83628">
        <ele>242</ele>
        <time>2018-07-10T08:53:12Z</time>
      </trkpt>
      <trkpt lat="45.96165" lon="4.83635">
        <ele>243</ele>
        <time>2018-07-10T08:53:13Z</time>
      </trkpt>
      <trkpt lat="45.96171" lon="4.83642">
        <ele>242</ele>
        <time>2018-07-10T08:53:14Z</time>
      </trkpt>
      <trkpt lat="45.96176" lon="4.83652">
        <ele>242</ele>
        <time>2018-07-10T08:53:16Z</time>
      </trkpt>
      <trkpt lat="45.96179" lon="4.83657">
        <ele>242</ele>
        <time>2018-07-10T08:53:17Z</time>
      </trkpt>
      <trkpt lat="45.96181" lon="4.83663">
        <ele>242</ele>
        <time>2018-07-10T08:53:18Z</time>
      </trkpt>
      <trkpt lat="45.96185" lon="4.83668">
        <ele>243</ele>
        <time>2018-07-10T08:53:19Z</time>
      </trkpt>
      <trkpt lat="45.96188" lon="4.83672">
        <ele>243</ele>
        <time>2018-07-10T08:53:20Z</time>
      </trkpt>
      <trkpt lat="45.96192" lon="4.83675">
        <ele>243</ele>
        <time>2018-07-10T08:53:21Z</time>
      </trkpt>
      <trkpt lat="45.96195" lon="4.8368">
        <ele>243</ele>
        <time>2018-07-10T08:53:22Z</time>
      </trkpt>
      <trkpt lat="45.962" lon="4.83684">
        <ele>243</ele>
        <time>2018-07-10T08:53:23Z</time>
      </trkpt>
      <trkpt lat="45.96204" lon="4.83688">
        <ele>243</ele>
        <time>2018-07-10T08:53:24Z</time>
      </trkpt>
      <trkpt lat="45.96208" lon="4.83693">
        <ele>243</ele>
        <time>2018-07-10T08:53:25Z</time>
      </trkpt>
      <trkpt lat="45.96214" lon="4.83696">
        <ele>243</ele>
        <time>2018-07-10T08:53:26Z</time>
      </trkpt>
      <trkpt lat="45.96217" lon="4.83701">
        <ele>244</ele>
        <time>2018-07-10T08:53:27Z</time>
      </trkpt>
      <trkpt lat="45.96218" lon="4.83712">
        <ele>244</ele>
        <time>2018-07-10T08:53:29Z</time>
      </trkpt>
      <trkpt lat="45.96221" lon="4.83717">
        <ele>244</ele>
        <time>2018-07-10T08:53:30Z</time>
      </trkpt>
      <trkpt lat="45.96225" lon="4.83721">
        <ele>244</ele>
        <time>2018-07-10T08:53:31Z</time>
      </trkpt>
      <trkpt lat="45.96229" lon="4.83725">
        <ele>244</ele>
        <time>2018-07-10T08:53:32Z</time>
      </trkpt>
      <trkpt lat="45.96233" lon="4.83734">
        <ele>244</ele>
        <time>2018-07-10T08:53:34Z</time>
      </trkpt>
      <trkpt lat="45.96237" lon="4.83737">
        <ele>244</ele>
        <time>2018-07-10T08:53:35Z</time>
      </trkpt>
      <trkpt lat="45.96243" lon="4.83744">
        <ele>244</ele>
        <time>2018-07-10T08:53:37Z</time>
      </trkpt>
      <trkpt lat="45.96246" lon="4.83748">
        <ele>244</ele>
        <time>2018-07-10T08:53:38Z</time>
      </trkpt>
      <trkpt lat="45.96249" lon="4.83753">
        <ele>244</ele>
        <time>2018-07-10T08:53:39Z</time>
      </trkpt>
      <trkpt lat="45.96253" lon="4.83758">
        <ele>244</ele>
        <time>2018-07-10T08:53:40Z</time>
      </trkpt>
      <trkpt lat="45.9626" lon="4.83765">
        <ele>245</ele>
        <time>2018-07-10T08:53:42Z</time>
      </trkpt>
      <trkpt lat="45.96265" lon="4.83768">
        <ele>245</ele>
        <time>2018-07-10T08:53:43Z</time>
      </trkpt>
      <trkpt lat="45.96271" lon="4.83776">
        <ele>245</ele>
        <time>2018-07-10T08:53:45Z</time>
      </trkpt>
      <trkpt lat="45.96275" lon="4.8378">
        <ele>245</ele>
        <time>2018-07-10T08:53:46Z</time>
      </trkpt>
      <trkpt lat="45.96279" lon="4.83782">
        <ele>245</ele>
        <time>2018-07-10T08:53:47Z</time>
      </trkpt>
      <trkpt lat="45.96284" lon="4.83783">
        <ele>245</ele>
        <time>2018-07-10T08:53:48Z</time>
      </trkpt>
      <trkpt lat="45.9629" lon="4.83789">
        <ele>245</ele>
        <time>2018-07-10T08:53:50Z</time>
      </trkpt>
      <trkpt lat="45.96294" lon="4.83792">
        <ele>245</ele>
        <time>2018-07-10T08:53:51Z</time>
      </trkpt>
      <trkpt lat="45.96297" lon="4.83795">
        <ele>245</ele>
        <time>2018-07-10T08:53:52Z</time>
      </trkpt>
      <trkpt lat="45.96304" lon="4.83796">
        <ele>245</ele>
        <time>2018-07-10T08:53:53Z</time>
      </trkpt>
      <trkpt lat="45.96311" lon="4.83803">
        <ele>245</ele>
        <time>2018-07-10T08:53:55Z</time>
      </trkpt>
      <trkpt lat="45.96316" lon="4.83805">
        <ele>245</ele>
        <time>2018-07-10T08:53:56Z</time>
      </trkpt>
      <trkpt lat="45.96322" lon="4.83812">
        <ele>244</ele>
        <time>2018-07-10T08:53:58Z</time>
      </trkpt>
      <trkpt lat="45.96326" lon="4.83815">
        <ele>244</ele>
        <time>2018-07-10T08:53:59Z</time>
      </trkpt>
      <trkpt lat="45.96333" lon="4.83821">
        <ele>244</ele>
        <time>2018-07-10T08:54:01Z</time>
      </trkpt>
      <trkpt lat="45.96337" lon="4.83825">
        <ele>244</ele>
        <time>2018-07-10T08:54:02Z</time>
      </trkpt>
      <trkpt lat="45.96341" lon="4.83831">
        <ele>244</ele>
        <time>2018-07-10T08:54:04Z</time>
      </trkpt>
      <trkpt lat="45.96346" lon="4.83836">
        <ele>245</ele>
        <time>2018-07-10T08:54:05Z</time>
      </trkpt>
      <trkpt lat="45.96351" lon="4.83842">
        <ele>245</ele>
        <time>2018-07-10T08:54:07Z</time>
      </trkpt>
      <trkpt lat="45.96355" lon="4.83847">
        <ele>246</ele>
        <time>2018-07-10T08:54:08Z</time>
      </trkpt>
      <trkpt lat="45.9636" lon="4.83856">
        <ele>246</ele>
        <time>2018-07-10T08:54:10Z</time>
      </trkpt>
      <trkpt lat="45.96363" lon="4.8386">
        <ele>247</ele>
        <time>2018-07-10T08:54:11Z</time>
      </trkpt>
      <trkpt lat="45.96365" lon="4.83864">
        <ele>247</ele>
        <time>2018-07-10T08:54:13Z</time>
      </trkpt>
      <trkpt lat="45.96369" lon="4.83871">
        <ele>247</ele>
        <time>2018-07-10T08:54:14Z</time>
      </trkpt>
      <trkpt lat="45.96373" lon="4.8388">
        <ele>247</ele>
        <time>2018-07-10T08:54:17Z</time>
      </trkpt>
      <trkpt lat="45.96374" lon="4.83883">
        <ele>247</ele>
        <time>2018-07-10T08:54:18Z</time>
      </trkpt>
      <trkpt lat="45.96378" lon="4.83893">
        <ele>248</ele>
        <time>2018-07-10T08:54:21Z</time>
      </trkpt>
      <trkpt lat="45.9638" lon="4.83897">
        <ele>248</ele>
        <time>2018-07-10T08:54:22Z</time>
      </trkpt>
      <trkpt lat="45.96383" lon="4.83904">
        <ele>248</ele>
        <time>2018-07-10T08:54:24Z</time>
      </trkpt>
      <trkpt lat="45.96385" lon="4.83908">
        <ele>248</ele>
        <time>2018-07-10T08:54:25Z</time>
      </trkpt>
      <trkpt lat="45.96389" lon="4.83917">
        <ele>248</ele>
        <time>2018-07-10T08:54:27Z</time>
      </trkpt>
      <trkpt lat="45.96391" lon="4.8392">
        <ele>251</ele>
        <time>2018-07-10T08:54:28Z</time>
      </trkpt>
      <trkpt lat="45.96394" lon="4.83928">
        <ele>251</ele>
        <time>2018-07-10T08:54:30Z</time>
      </trkpt>
      <trkpt lat="45.96396" lon="4.83932">
        <ele>251</ele>
        <time>2018-07-10T08:54:31Z</time>
      </trkpt>
      <trkpt lat="45.96399" lon="4.83939">
        <ele>251</ele>
        <time>2018-07-10T08:54:33Z</time>
      </trkpt>
      <trkpt lat="45.96401" lon="4.83943">
        <ele>251</ele>
        <time>2018-07-10T08:54:34Z</time>
      </trkpt>
      <trkpt lat="45.96404" lon="4.83951">
        <ele>252</ele>
        <time>2018-07-10T08:54:36Z</time>
      </trkpt>
      <trkpt lat="45.96406" lon="4.83955">
        <ele>252</ele>
        <time>2018-07-10T08:54:37Z</time>
      </trkpt>
      <trkpt lat="45.9641" lon="4.83962">
        <ele>252</ele>
        <time>2018-07-10T08:54:39Z</time>
      </trkpt>
      <trkpt lat="45.96412" lon="4.83966">
        <ele>252</ele>
        <time>2018-07-10T08:54:40Z</time>
      </trkpt>
      <trkpt lat="45.96417" lon="4.83975">
        <ele>250</ele>
        <time>2018-07-10T08:54:43Z</time>
      </trkpt>
      <trkpt lat="45.96419" lon="4.83978">
        <ele>250</ele>
        <time>2018-07-10T08:54:44Z</time>
      </trkpt>
      <trkpt lat="45.96423" lon="4.83987">
        <ele>251</ele>
        <time>2018-07-10T08:54:47Z</time>
      </trkpt>
      <trkpt lat="45.96424" lon="4.83991">
        <ele>251</ele>
        <time>2018-07-10T08:54:48Z</time>
      </trkpt>
      <trkpt lat="45.96429" lon="4.84">
        <ele>251</ele>
        <time>2018-07-10T08:54:51Z</time>
      </trkpt>
      <trkpt lat="45.96431" lon="4.84002">
        <ele>252</ele>
        <time>2018-07-10T08:54:52Z</time>
      </trkpt>
      <trkpt lat="45.96435" lon="4.84012">
        <ele>251</ele>
        <time>2018-07-10T08:54:55Z</time>
      </trkpt>
      <trkpt lat="45.96437" lon="4.84015">
        <ele>251</ele>
        <time>2018-07-10T08:54:56Z</time>
      </trkpt>
      <trkpt lat="45.9644" lon="4.84025">
        <ele>251</ele>
        <time>2018-07-10T08:54:59Z</time>
      </trkpt>
      <trkpt lat="45.96441" lon="4.84029">
        <ele>251</ele>
        <time>2018-07-10T08:55:00Z</time>
      </trkpt>
      <trkpt lat="45.96445" lon="4.84036">
        <ele>251</ele>
        <time>2018-07-10T08:55:02Z</time>
      </trkpt>
      <trkpt lat="45.96446" lon="4.84041">
        <ele>251</ele>
        <time>2018-07-10T08:55:03Z</time>
      </trkpt>
      <trkpt lat="45.9645" lon="4.84049">
        <ele>251</ele>
        <time>2018-07-10T08:55:05Z</time>
      </trkpt>
      <trkpt lat="45.96453" lon="4.84062">
        <ele>251</ele>
        <time>2018-07-10T08:55:06Z</time>
      </trkpt>
      <trkpt lat="45.96457" lon="4.84073">
        <ele>251</ele>
        <time>2018-07-10T08:55:10Z</time>
      </trkpt>
      <trkpt lat="45.96458" lon="4.84076">
        <ele>251</ele>
        <time>2018-07-10T08:55:11Z</time>
      </trkpt>
      <trkpt lat="45.96461" lon="4.84086">
        <ele>251</ele>
        <time>2018-07-10T08:55:14Z</time>
      </trkpt>
      <trkpt lat="45.96462" lon="4.84089">
        <ele>251</ele>
        <time>2018-07-10T08:55:15Z</time>
      </trkpt>
      <trkpt lat="45.96465" lon="4.84097">
        <ele>251</ele>
        <time>2018-07-10T08:55:17Z</time>
      </trkpt>
      <trkpt lat="45.96466" lon="4.84101">
        <ele>251</ele>
        <time>2018-07-10T08:55:18Z</time>
      </trkpt>
      <trkpt lat="45.96469" lon="4.84109">
        <ele>251</ele>
        <time>2018-07-10T08:55:20Z</time>
      </trkpt>
      <trkpt lat="45.96471" lon="4.84113">
        <ele>251</ele>
        <time>2018-07-10T08:55:21Z</time>
      </trkpt>
      <trkpt lat="45.96474" lon="4.8412">
        <ele>251</ele>
        <time>2018-07-10T08:55:23Z</time>
      </trkpt>
      <trkpt lat="45.96475" lon="4.84124">
        <ele>251</ele>
        <time>2018-07-10T08:55:24Z</time>
      </trkpt>
      <trkpt lat="45.9648" lon="4.84135">
        <ele>251</ele>
        <time>2018-07-10T08:55:25Z</time>
      </trkpt>
      <trkpt lat="45.96483" lon="4.84144">
        <ele>251</ele>
        <time>2018-07-10T08:55:27Z</time>
      </trkpt>
      <trkpt lat="45.96484" lon="4.84149">
        <ele>251</ele>
        <time>2018-07-10T08:55:28Z</time>
      </trkpt>
      <trkpt lat="45.96486" lon="4.84159">
        <ele>250</ele>
        <time>2018-07-10T08:55:30Z</time>
      </trkpt>
      <trkpt lat="45.96487" lon="4.84163">
        <ele>250</ele>
        <time>2018-07-10T08:55:31Z</time>
      </trkpt>
      <trkpt lat="45.96489" lon="4.84173">
        <ele>250</ele>
        <time>2018-07-10T08:55:33Z</time>
      </trkpt>
      <trkpt lat="45.9649" lon="4.84178">
        <ele>250</ele>
        <time>2018-07-10T08:55:34Z</time>
      </trkpt>
      <trkpt lat="45.96491" lon="4.84184">
        <ele>251</ele>
        <time>2018-07-10T08:55:36Z</time>
      </trkpt>
      <trkpt lat="45.96493" lon="4.84193">
        <ele>251</ele>
        <time>2018-07-10T08:55:37Z</time>
      </trkpt>
      <trkpt lat="45.96494" lon="4.84205">
        <ele>251</ele>
        <time>2018-07-10T08:55:39Z</time>
      </trkpt>
      <trkpt lat="45.96495" lon="4.84212">
        <ele>251</ele>
        <time>2018-07-10T08:55:40Z</time>
      </trkpt>
      <trkpt lat="45.96496" lon="4.84218">
        <ele>252</ele>
        <time>2018-07-10T08:55:41Z</time>
      </trkpt>
      <trkpt lat="45.96497" lon="4.84224">
        <ele>252</ele>
        <time>2018-07-10T08:55:42Z</time>
      </trkpt>
      <trkpt lat="45.96498" lon="4.8423">
        <ele>251</ele>
        <time>2018-07-10T08:55:43Z</time>
      </trkpt>
      <trkpt lat="45.96499" lon="4.84237">
        <ele>251</ele>
        <time>2018-07-10T08:55:44Z</time>
      </trkpt>
      <trkpt lat="45.965" lon="4.84244">
        <ele>251</ele>
        <time>2018-07-10T08:55:45Z</time>
      </trkpt>
      <trkpt lat="45.96501" lon="4.84251">
        <ele>251</ele>
        <time>2018-07-10T08:55:46Z</time>
      </trkpt>
      <trkpt lat="45.96503" lon="4.84256">
        <ele>251</ele>
        <time>2018-07-10T08:55:47Z</time>
      </trkpt>
      <trkpt lat="45.96504" lon="4.84263">
        <ele>251</ele>
        <time>2018-07-10T08:55:48Z</time>
      </trkpt>
      <trkpt lat="45.96506" lon="4.8427">
        <ele>250</ele>
        <time>2018-07-10T08:55:49Z</time>
      </trkpt>
      <trkpt lat="45.96508" lon="4.84278">
        <ele>250</ele>
        <time>2018-07-10T08:55:50Z</time>
      </trkpt>
      <trkpt lat="45.96509" lon="4.84284">
        <ele>250</ele>
        <time>2018-07-10T08:55:51Z</time>
      </trkpt>
      <trkpt lat="45.96511" lon="4.84291">
        <ele>250</ele>
        <time>2018-07-10T08:55:52Z</time>
      </trkpt>
      <trkpt lat="45.96514" lon="4.84298">
        <ele>250</ele>
        <time>2018-07-10T08:55:53Z</time>
      </trkpt>
      <trkpt lat="45.96516" lon="4.84306">
        <ele>250</ele>
        <time>2018-07-10T08:55:54Z</time>
      </trkpt>
      <trkpt lat="45.96517" lon="4.84312">
        <ele>250</ele>
        <time>2018-07-10T08:55:55Z</time>
      </trkpt>
      <trkpt lat="45.96519" lon="4.84319">
        <ele>250</ele>
        <time>2018-07-10T08:55:56Z</time>
      </trkpt>
      <trkpt lat="45.9652" lon="4.84327">
        <ele>250</ele>
        <time>2018-07-10T08:55:57Z</time>
      </trkpt>
      <trkpt lat="45.96522" lon="4.84333">
        <ele>250</ele>
        <time>2018-07-10T08:55:58Z</time>
      </trkpt>
      <trkpt lat="45.96524" lon="4.8434">
        <ele>251</ele>
        <time>2018-07-10T08:55:59Z</time>
      </trkpt>
      <trkpt lat="45.96526" lon="4.84346">
        <ele>251</ele>
        <time>2018-07-10T08:56:00Z</time>
      </trkpt>
      <trkpt lat="45.96529" lon="4.84354">
        <ele>251</ele>
        <time>2018-07-10T08:56:01Z</time>
      </trkpt>
      <trkpt lat="45.9653" lon="4.84359">
        <ele>251</ele>
        <time>2018-07-10T08:56:02Z</time>
      </trkpt>
      <trkpt lat="45.96531" lon="4.84368">
        <ele>251</ele>
        <time>2018-07-10T08:56:03Z</time>
      </trkpt>
      <trkpt lat="45.96533" lon="4.84374">
        <ele>251</ele>
        <time>2018-07-10T08:56:04Z</time>
      </trkpt>
      <trkpt lat="45.96533" lon="4.84382">
        <ele>252</ele>
        <time>2018-07-10T08:56:05Z</time>
      </trkpt>
      <trkpt lat="45.96533" lon="4.84389">
        <ele>252</ele>
        <time>2018-07-10T08:56:06Z</time>
      </trkpt>
      <trkpt lat="45.96533" lon="4.84397">
        <ele>252</ele>
        <time>2018-07-10T08:56:07Z</time>
      </trkpt>
      <trkpt lat="45.96533" lon="4.84404">
        <ele>252</ele>
        <time>2018-07-10T08:56:08Z</time>
      </trkpt>
      <trkpt lat="45.96532" lon="4.84412">
        <ele>252</ele>
        <time>2018-07-10T08:56:09Z</time>
      </trkpt>
      <trkpt lat="45.96531" lon="4.84422">
        <ele>253</ele>
        <time>2018-07-10T08:56:10Z</time>
      </trkpt>
      <trkpt lat="45.96531" lon="4.8443">
        <ele>253</ele>
        <time>2018-07-10T08:56:11Z</time>
      </trkpt>
      <trkpt lat="45.9653" lon="4.84436">
        <ele>253</ele>
        <time>2018-07-10T08:56:12Z</time>
      </trkpt>
      <trkpt lat="45.96528" lon="4.84444">
        <ele>253</ele>
        <time>2018-07-10T08:56:13Z</time>
      </trkpt>
      <trkpt lat="45.96528" lon="4.84451">
        <ele>253</ele>
        <time>2018-07-10T08:56:14Z</time>
      </trkpt>
      <trkpt lat="45.96528" lon="4.84458">
        <ele>253</ele>
        <time>2018-07-10T08:56:15Z</time>
      </trkpt>
      <trkpt lat="45.96527" lon="4.84466">
        <ele>253</ele>
        <time>2018-07-10T08:56:16Z</time>
      </trkpt>
      <trkpt lat="45.96528" lon="4.84478">
        <ele>253</ele>
        <time>2018-07-10T08:56:18Z</time>
      </trkpt>
      <trkpt lat="45.96527" lon="4.84488">
        <ele>253</ele>
        <time>2018-07-10T08:56:19Z</time>
      </trkpt>
      <trkpt lat="45.96527" lon="4.84496">
        <ele>253</ele>
        <time>2018-07-10T08:56:20Z</time>
      </trkpt>
      <trkpt lat="45.96527" lon="4.84504">
        <ele>253</ele>
        <time>2018-07-10T08:56:21Z</time>
      </trkpt>
      <trkpt lat="45.96526" lon="4.84516">
        <ele>253</ele>
        <time>2018-07-10T08:56:23Z</time>
      </trkpt>
      <trkpt lat="45.96526" lon="4.84522">
        <ele>253</ele>
        <time>2018-07-10T08:56:24Z</time>
      </trkpt>
      <trkpt lat="45.96523" lon="4.84534">
        <ele>253</ele>
        <time>2018-07-10T08:56:26Z</time>
      </trkpt>
      <trkpt lat="45.96523" lon="4.84541">
        <ele>253</ele>
        <time>2018-07-10T08:56:27Z</time>
      </trkpt>
      <trkpt lat="45.96521" lon="4.84552">
        <ele>253</ele>
        <time>2018-07-10T08:56:29Z</time>
      </trkpt>
      <trkpt lat="45.96521" lon="4.84559">
        <ele>253</ele>
        <time>2018-07-10T08:56:30Z</time>
      </trkpt>
      <trkpt lat="45.9652" lon="4.84566">
        <ele>253</ele>
        <time>2018-07-10T08:56:31Z</time>
      </trkpt>
      <trkpt lat="45.9652" lon="4.84572">
        <ele>253</ele>
        <time>2018-07-10T08:56:32Z</time>
      </trkpt>
      <trkpt lat="45.9652" lon="4.8458">
        <ele>252</ele>
        <time>2018-07-10T08:56:33Z</time>
      </trkpt>
      <trkpt lat="45.96519" lon="4.84586">
        <ele>252</ele>
        <time>2018-07-10T08:56:34Z</time>
      </trkpt>
      <trkpt lat="45.96518" lon="4.84592">
        <ele>252</ele>
        <time>2018-07-10T08:56:35Z</time>
      </trkpt>
      <trkpt lat="45.96518" lon="4.84599">
        <ele>252</ele>
        <time>2018-07-10T08:56:36Z</time>
      </trkpt>
      <trkpt lat="45.96517" lon="4.84607">
        <ele>252</ele>
        <time>2018-07-10T08:56:37Z</time>
      </trkpt>
      <trkpt lat="45.96516" lon="4.84613">
        <ele>252</ele>
        <time>2018-07-10T08:56:38Z</time>
      </trkpt>
      <trkpt lat="45.96516" lon="4.84624">
        <ele>252</ele>
        <time>2018-07-10T08:56:40Z</time>
      </trkpt>
      <trkpt lat="45.96516" lon="4.8463">
        <ele>252</ele>
        <time>2018-07-10T08:56:41Z</time>
      </trkpt>
      <trkpt lat="45.96516" lon="4.84642">
        <ele>252</ele>
        <time>2018-07-10T08:56:43Z</time>
      </trkpt>
      <trkpt lat="45.96518" lon="4.84649">
        <ele>252</ele>
        <time>2018-07-10T08:56:44Z</time>
      </trkpt>
      <trkpt lat="45.96519" lon="4.84659">
        <ele>252</ele>
        <time>2018-07-10T08:56:46Z</time>
      </trkpt>
      <trkpt lat="45.9652" lon="4.84666">
        <ele>252</ele>
        <time>2018-07-10T08:56:47Z</time>
      </trkpt>
      <trkpt lat="45.96522" lon="4.84678">
        <ele>252</ele>
        <time>2018-07-10T08:56:49Z</time>
      </trkpt>
      <trkpt lat="45.96523" lon="4.84684">
        <ele>252</ele>
        <time>2018-07-10T08:56:50Z</time>
      </trkpt>
      <trkpt lat="45.96526" lon="4.84696">
        <ele>253</ele>
        <time>2018-07-10T08:56:52Z</time>
      </trkpt>
      <trkpt lat="45.96528" lon="4.84701">
        <ele>253</ele>
        <time>2018-07-10T08:56:53Z</time>
      </trkpt>
      <trkpt lat="45.96528" lon="4.84708">
        <ele>253</ele>
        <time>2018-07-10T08:56:54Z</time>
      </trkpt>
      <trkpt lat="45.96529" lon="4.84716">
        <ele>253</ele>
        <time>2018-07-10T08:56:55Z</time>
      </trkpt>
      <trkpt lat="45.96528" lon="4.84722">
        <ele>253</ele>
        <time>2018-07-10T08:56:56Z</time>
      </trkpt>
      <trkpt lat="45.96527" lon="4.84729">
        <ele>253</ele>
        <time>2018-07-10T08:56:57Z</time>
      </trkpt>
      <trkpt lat="45.96525" lon="4.84741">
        <ele>252</ele>
        <time>2018-07-10T08:56:59Z</time>
      </trkpt>
      <trkpt lat="45.96524" lon="4.84747">
        <ele>252</ele>
        <time>2018-07-10T08:57:00Z</time>
      </trkpt>
      <trkpt lat="45.96522" lon="4.84752">
        <ele>253</ele>
        <time>2018-07-10T08:57:01Z</time>
      </trkpt>
      <trkpt lat="45.96521" lon="4.84759">
        <ele>253</ele>
        <time>2018-07-10T08:57:02Z</time>
      </trkpt>
      <trkpt lat="45.96519" lon="4.84771">
        <ele>253</ele>
        <time>2018-07-10T08:57:04Z</time>
      </trkpt>
      <trkpt lat="45.96517" lon="4.84776">
        <ele>253</ele>
        <time>2018-07-10T08:57:05Z</time>
      </trkpt>
      <trkpt lat="45.96514" lon="4.84787">
        <ele>254</ele>
        <time>2018-07-10T08:57:07Z</time>
      </trkpt>
      <trkpt lat="45.96513" lon="4.84794">
        <ele>254</ele>
        <time>2018-07-10T08:57:08Z</time>
      </trkpt>
      <trkpt lat="45.96511" lon="4.84807">
        <ele>254</ele>
        <time>2018-07-10T08:57:10Z</time>
      </trkpt>
      <trkpt lat="45.96509" lon="4.84814">
        <ele>254</ele>
        <time>2018-07-10T08:57:11Z</time>
      </trkpt>
      <trkpt lat="45.96507" lon="4.84825">
        <ele>254</ele>
        <time>2018-07-10T08:57:14Z</time>
      </trkpt>
      <trkpt lat="45.96506" lon="4.84829">
        <ele>253</ele>
        <time>2018-07-10T08:57:15Z</time>
      </trkpt>
      <trkpt lat="45.96504" lon="4.8484">
        <ele>255</ele>
        <time>2018-07-10T08:57:18Z</time>
      </trkpt>
      <trkpt lat="45.96502" lon="4.84851">
        <ele>256</ele>
        <time>2018-07-10T08:57:19Z</time>
      </trkpt>
      <trkpt lat="45.96498" lon="4.84861">
        <ele>254</ele>
        <time>2018-07-10T08:57:22Z</time>
      </trkpt>
      <trkpt lat="45.96498" lon="4.84864">
        <ele>255</ele>
        <time>2018-07-10T08:57:23Z</time>
      </trkpt>
      <trkpt lat="45.96495" lon="4.84875">
        <ele>255</ele>
        <time>2018-07-10T08:57:26Z</time>
      </trkpt>
      <trkpt lat="45.96494" lon="4.8488">
        <ele>255</ele>
        <time>2018-07-10T08:57:27Z</time>
      </trkpt>
      <trkpt lat="45.96492" lon="4.84888">
        <ele>255</ele>
        <time>2018-07-10T08:57:29Z</time>
      </trkpt>
      <trkpt lat="45.96491" lon="4.84893">
        <ele>256</ele>
        <time>2018-07-10T08:57:30Z</time>
      </trkpt>
      <trkpt lat="45.96489" lon="4.84902">
        <ele>256</ele>
        <time>2018-07-10T08:57:32Z</time>
      </trkpt>
      <trkpt lat="45.96488" lon="4.84906">
        <ele>256</ele>
        <time>2018-07-10T08:57:33Z</time>
      </trkpt>
      <trkpt lat="45.96486" lon="4.84915">
        <ele>256</ele>
        <time>2018-07-10T08:57:35Z</time>
      </trkpt>
      <trkpt lat="45.96485" lon="4.8492">
        <ele>259</ele>
        <time>2018-07-10T08:57:36Z</time>
      </trkpt>
      <trkpt lat="45.96483" lon="4.84928">
        <ele>259</ele>
        <time>2018-07-10T08:57:38Z</time>
      </trkpt>
      <trkpt lat="45.96481" lon="4.84932">
        <ele>259</ele>
        <time>2018-07-10T08:57:39Z</time>
      </trkpt>
      <trkpt lat="45.96479" lon="4.84944">
        <ele>260</ele>
        <time>2018-07-10T08:57:42Z</time>
      </trkpt>
      <trkpt lat="45.96478" lon="4.84948">
        <ele>260</ele>
        <time>2018-07-10T08:57:43Z</time>
      </trkpt>
      <trkpt lat="45.96476" lon="4.84959">
        <ele>261</ele>
        <time>2018-07-10T08:57:46Z</time>
      </trkpt>
      <trkpt lat="45.96476" lon="4.84963">
        <ele>261</ele>
        <time>2018-07-10T08:57:47Z</time>
      </trkpt>
      <trkpt lat="45.96474" lon="4.84972">
        <ele>262</ele>
        <time>2018-07-10T08:57:50Z</time>
      </trkpt>
      <trkpt lat="45.96474" lon="4.84975">
        <ele>262</ele>
        <time>2018-07-10T08:57:51Z</time>
      </trkpt>
      <trkpt lat="45.96472" lon="4.84986">
        <ele>262</ele>
        <time>2018-07-10T08:57:54Z</time>
      </trkpt>
      <trkpt lat="45.96472" lon="4.84989">
        <ele>262</ele>
        <time>2018-07-10T08:57:55Z</time>
      </trkpt>
      <trkpt lat="45.96472" lon="4.85002">
        <ele>266</ele>
        <time>2018-07-10T08:57:58Z</time>
      </trkpt>
      <trkpt lat="45.96472" lon="4.85006">
        <ele>266</ele>
        <time>2018-07-10T08:57:59Z</time>
      </trkpt>
      <trkpt lat="45.96473" lon="4.85017">
        <ele>266</ele>
        <time>2018-07-10T08:58:02Z</time>
      </trkpt>
      <trkpt lat="45.96473" lon="4.85021">
        <ele>266</ele>
        <time>2018-07-10T08:58:03Z</time>
      </trkpt>
      <trkpt lat="45.96472" lon="4.85034">
        <ele>266</ele>
        <time>2018-07-10T08:58:06Z</time>
      </trkpt>
      <trkpt lat="45.96472" lon="4.85038">
        <ele>266</ele>
        <time>2018-07-10T08:58:07Z</time>
      </trkpt>
      <trkpt lat="45.96471" lon="4.8505">
        <ele>266</ele>
        <time>2018-07-10T08:58:10Z</time>
      </trkpt>
      <trkpt lat="45.96471" lon="4.85054">
        <ele>266</ele>
        <time>2018-07-10T08:58:11Z</time>
      </trkpt>
      <trkpt lat="45.9647" lon="4.85066">
        <ele>266</ele>
        <time>2018-07-10T08:58:14Z</time>
      </trkpt>
      <trkpt lat="45.9647" lon="4.85071">
        <ele>266</ele>
        <time>2018-07-10T08:58:15Z</time>
      </trkpt>
      <trkpt lat="45.96469" lon="4.8508">
        <ele>267</ele>
        <time>2018-07-10T08:58:17Z</time>
      </trkpt>
      <trkpt lat="45.96469" lon="4.85084">
        <ele>268</ele>
        <time>2018-07-10T08:58:18Z</time>
      </trkpt>
      <trkpt lat="45.96468" lon="4.85093">
        <ele>268</ele>
        <time>2018-07-10T08:58:20Z</time>
      </trkpt>
      <trkpt lat="45.96467" lon="4.85097">
        <ele>268</ele>
        <time>2018-07-10T08:58:21Z</time>
      </trkpt>
      <trkpt lat="45.96466" lon="4.85106">
        <ele>268</ele>
        <time>2018-07-10T08:58:23Z</time>
      </trkpt>
      <trkpt lat="45.96465" lon="4.8511">
        <ele>268</ele>
        <time>2018-07-10T08:58:24Z</time>
      </trkpt>
      <trkpt lat="45.96464" lon="4.85119">
        <ele>268</ele>
        <time>2018-07-10T08:58:26Z</time>
      </trkpt>
      <trkpt lat="45.96463" lon="4.85123">
        <ele>268</ele>
        <time>2018-07-10T08:58:27Z</time>
      </trkpt>
      <trkpt lat="45.9646" lon="4.85135">
        <ele>268</ele>
        <time>2018-07-10T08:58:30Z</time>
      </trkpt>
      <trkpt lat="45.96459" lon="4.85138">
        <ele>268</ele>
        <time>2018-07-10T08:58:31Z</time>
      </trkpt>
      <trkpt lat="45.96457" lon="4.85149">
        <ele>268</ele>
        <time>2018-07-10T08:58:34Z</time>
      </trkpt>
      <trkpt lat="45.96456" lon="4.85153">
        <ele>268</ele>
        <time>2018-07-10T08:58:35Z</time>
      </trkpt>
      <trkpt lat="45.96454" lon="4.85165">
        <ele>268</ele>
        <time>2018-07-10T08:58:38Z</time>
      </trkpt>
      <trkpt lat="45.96453" lon="4.85169">
        <ele>269</ele>
        <time>2018-07-10T08:58:39Z</time>
      </trkpt>
      <trkpt lat="45.96453" lon="4.85178">
        <ele>269</ele>
        <time>2018-07-10T08:58:41Z</time>
      </trkpt>
      <trkpt lat="45.96452" lon="4.85182">
        <ele>269</ele>
        <time>2018-07-10T08:58:42Z</time>
      </trkpt>
      <trkpt lat="45.96452" lon="4.85192">
        <ele>269</ele>
        <time>2018-07-10T08:58:44Z</time>
      </trkpt>
      <trkpt lat="45.96452" lon="4.85197">
        <ele>269</ele>
        <time>2018-07-10T08:58:45Z</time>
      </trkpt>
      <trkpt lat="45.96453" lon="4.85206">
        <ele>269</ele>
        <time>2018-07-10T08:58:47Z</time>
      </trkpt>
      <trkpt lat="45.96452" lon="4.85211">
        <ele>269</ele>
        <time>2018-07-10T08:58:48Z</time>
      </trkpt>
      <trkpt lat="45.96452" lon="4.85219">
        <ele>269</ele>
        <time>2018-07-10T08:58:50Z</time>
      </trkpt>
      <trkpt lat="45.96452" lon="4.85224">
        <ele>269</ele>
        <time>2018-07-10T08:58:51Z</time>
      </trkpt>
      <trkpt lat="45.96452" lon="4.85233">
        <ele>269</ele>
        <time>2018-07-10T08:58:53Z</time>
      </trkpt>
      <trkpt lat="45.96452" lon="4.85237">
        <ele>269</ele>
        <time>2018-07-10T08:58:54Z</time>
      </trkpt>
      <trkpt lat="45.96452" lon="4.85251">
        <ele>270</ele>
        <time>2018-07-10T08:58:55Z</time>
      </trkpt>
      <trkpt lat="45.96451" lon="4.85261">
        <ele>270</ele>
        <time>2018-07-10T08:58:57Z</time>
      </trkpt>
      <trkpt lat="45.96451" lon="4.85267">
        <ele>270</ele>
        <time>2018-07-10T08:58:58Z</time>
      </trkpt>
      <trkpt lat="45.96449" lon="4.85279">
        <ele>270</ele>
        <time>2018-07-10T08:59:00Z</time>
      </trkpt>
      <trkpt lat="45.96449" lon="4.85285">
        <ele>270</ele>
        <time>2018-07-10T08:59:01Z</time>
      </trkpt>
      <trkpt lat="45.96449" lon="4.85296">
        <ele>270</ele>
        <time>2018-07-10T08:59:03Z</time>
      </trkpt>
      <trkpt lat="45.9645" lon="4.85301">
        <ele>270</ele>
        <time>2018-07-10T08:59:04Z</time>
      </trkpt>
      <trkpt lat="45.96451" lon="4.85312">
        <ele>271</ele>
        <time>2018-07-10T08:59:06Z</time>
      </trkpt>
      <trkpt lat="45.96451" lon="4.85318">
        <ele>271</ele>
        <time>2018-07-10T08:59:07Z</time>
      </trkpt>
      <trkpt lat="45.96453" lon="4.85329">
        <ele>271</ele>
        <time>2018-07-10T08:59:09Z</time>
      </trkpt>
      <trkpt lat="45.96454" lon="4.85335">
        <ele>272</ele>
        <time>2018-07-10T08:59:10Z</time>
      </trkpt>
      <trkpt lat="45.96456" lon="4.85348">
        <ele>272</ele>
        <time>2018-07-10T08:59:12Z</time>
      </trkpt>
      <trkpt lat="45.96456" lon="4.85354">
        <ele>272</ele>
        <time>2018-07-10T08:59:13Z</time>
      </trkpt>
      <trkpt lat="45.96456" lon="4.85366">
        <ele>272</ele>
        <time>2018-07-10T08:59:15Z</time>
      </trkpt>
      <trkpt lat="45.96457" lon="4.85373">
        <ele>272</ele>
        <time>2018-07-10T08:59:16Z</time>
      </trkpt>
      <trkpt lat="45.96457" lon="4.85384">
        <ele>272</ele>
        <time>2018-07-10T08:59:18Z</time>
      </trkpt>
      <trkpt lat="45.96457" lon="4.8539">
        <ele>272</ele>
        <time>2018-07-10T08:59:19Z</time>
      </trkpt>
      <trkpt lat="45.9646" lon="4.85402">
        <ele>272</ele>
        <time>2018-07-10T08:59:21Z</time>
      </trkpt>
      <trkpt lat="45.96461" lon="4.85406">
        <ele>272</ele>
        <time>2018-07-10T08:59:22Z</time>
      </trkpt>
      <trkpt lat="45.96462" lon="4.85418">
        <ele>272</ele>
        <time>2018-07-10T08:59:24Z</time>
      </trkpt>
      <trkpt lat="45.96462" lon="4.85423">
        <ele>272</ele>
        <time>2018-07-10T08:59:25Z</time>
      </trkpt>
      <trkpt lat="45.96463" lon="4.85432">
        <ele>272</ele>
        <time>2018-07-10T08:59:27Z</time>
      </trkpt>
      <trkpt lat="45.96464" lon="4.85439">
        <ele>272</ele>
        <time>2018-07-10T08:59:28Z</time>
      </trkpt>
      <trkpt lat="45.96463" lon="4.8545">
        <ele>272</ele>
        <time>2018-07-10T08:59:30Z</time>
      </trkpt>
      <trkpt lat="45.96464" lon="4.85458">
        <ele>272</ele>
        <time>2018-07-10T08:59:31Z</time>
      </trkpt>
      <trkpt lat="45.96465" lon="4.85466">
        <ele>272</ele>
        <time>2018-07-10T08:59:32Z</time>
      </trkpt>
      <trkpt lat="45.96464" lon="4.85473">
        <ele>272</ele>
        <time>2018-07-10T08:59:33Z</time>
      </trkpt>
      <trkpt lat="45.96463" lon="4.8548">
        <ele>272</ele>
        <time>2018-07-10T08:59:34Z</time>
      </trkpt>
      <trkpt lat="45.96461" lon="4.85487">
        <ele>272</ele>
        <time>2018-07-10T08:59:35Z</time>
      </trkpt>
      <trkpt lat="45.96462" lon="4.85499">
        <ele>272</ele>
        <time>2018-07-10T08:59:37Z</time>
      </trkpt>
      <trkpt lat="45.96462" lon="4.85504">
        <ele>272</ele>
        <time>2018-07-10T08:59:38Z</time>
      </trkpt>
      <trkpt lat="45.96463" lon="4.85516">
        <ele>272</ele>
        <time>2018-07-10T08:59:40Z</time>
      </trkpt>
      <trkpt lat="45.96463" lon="4.85522">
        <ele>272</ele>
        <time>2018-07-10T08:59:41Z</time>
      </trkpt>
      <trkpt lat="45.96464" lon="4.85533">
        <ele>272</ele>
        <time>2018-07-10T08:59:44Z</time>
      </trkpt>
      <trkpt lat="45.96465" lon="4.85545">
        <ele>272</ele>
        <time>2018-07-10T08:59:45Z</time>
      </trkpt>
      <trkpt lat="45.96467" lon="4.85557">
        <ele>272</ele>
        <time>2018-07-10T08:59:47Z</time>
      </trkpt>
      <trkpt lat="45.96468" lon="4.85563">
        <ele>272</ele>
        <time>2018-07-10T08:59:48Z</time>
      </trkpt>
      <trkpt lat="45.96468" lon="4.85575">
        <ele>272</ele>
        <time>2018-07-10T08:59:50Z</time>
      </trkpt>
      <trkpt lat="45.96469" lon="4.85581">
        <ele>272</ele>
        <time>2018-07-10T08:59:51Z</time>
      </trkpt>
      <trkpt lat="45.96469" lon="4.8559">
        <ele>271</ele>
        <time>2018-07-10T08:59:53Z</time>
      </trkpt>
      <trkpt lat="45.9647" lon="4.85598">
        <ele>271</ele>
        <time>2018-07-10T08:59:54Z</time>
      </trkpt>
      <trkpt lat="45.96471" lon="4.8561">
        <ele>271</ele>
        <time>2018-07-10T08:59:56Z</time>
      </trkpt>
      <trkpt lat="45.96472" lon="4.85615">
        <ele>271</ele>
        <time>2018-07-10T08:59:57Z</time>
      </trkpt>
      <trkpt lat="45.96474" lon="4.85626">
        <ele>271</ele>
        <time>2018-07-10T08:59:59Z</time>
      </trkpt>
      <trkpt lat="45.96475" lon="4.85632">
        <ele>271</ele>
        <time>2018-07-10T09:00:00Z</time>
      </trkpt>
      <trkpt lat="45.96477" lon="4.85643">
        <ele>271</ele>
        <time>2018-07-10T09:00:02Z</time>
      </trkpt>
      <trkpt lat="45.96478" lon="4.85648">
        <ele>271</ele>
        <time>2018-07-10T09:00:03Z</time>
      </trkpt>
      <trkpt lat="45.96478" lon="4.85659">
        <ele>271</ele>
        <time>2018-07-10T09:00:05Z</time>
      </trkpt>
      <trkpt lat="45.96478" lon="4.85665">
        <ele>271</ele>
        <time>2018-07-10T09:00:06Z</time>
      </trkpt>
      <trkpt lat="45.96478" lon="4.85675">
        <ele>272</ele>
        <time>2018-07-10T09:00:08Z</time>
      </trkpt>
      <trkpt lat="45.96479" lon="4.85681">
        <ele>272</ele>
        <time>2018-07-10T09:00:09Z</time>
      </trkpt>
      <trkpt lat="45.9648" lon="4.85692">
        <ele>272</ele>
        <time>2018-07-10T09:00:11Z</time>
      </trkpt>
      <trkpt lat="45.96481" lon="4.85697">
        <ele>272</ele>
        <time>2018-07-10T09:00:12Z</time>
      </trkpt>
      <trkpt lat="45.96483" lon="4.85708">
        <ele>272</ele>
        <time>2018-07-10T09:00:14Z</time>
      </trkpt>
      <trkpt lat="45.96484" lon="4.85714">
        <ele>272</ele>
        <time>2018-07-10T09:00:15Z</time>
      </trkpt>
      <trkpt lat="45.96485" lon="4.85726">
        <ele>273</ele>
        <time>2018-07-10T09:00:17Z</time>
      </trkpt>
      <trkpt lat="45.96486" lon="4.85732">
        <ele>273</ele>
        <time>2018-07-10T09:00:18Z</time>
      </trkpt>
      <trkpt lat="45.96486" lon="4.85743">
        <ele>273</ele>
        <time>2018-07-10T09:00:20Z</time>
      </trkpt>
      <trkpt lat="45.96486" lon="4.85746">
        <ele>273</ele>
        <time>2018-07-10T09:00:21Z</time>
      </trkpt>
      <trkpt lat="45.96488" lon="4.85753">
        <ele>274</ele>
        <time>2018-07-10T09:00:23Z</time>
      </trkpt>
      <trkpt lat="45.9649" lon="4.85764">
        <ele>274</ele>
        <time>2018-07-10T09:00:24Z</time>
      </trkpt>
      <trkpt lat="45.96491" lon="4.85775">
        <ele>274</ele>
        <time>2018-07-10T09:00:26Z</time>
      </trkpt>
      <trkpt lat="45.96491" lon="4.85781">
        <ele>274</ele>
        <time>2018-07-10T09:00:27Z</time>
      </trkpt>
      <trkpt lat="45.96491" lon="4.85793">
        <ele>274</ele>
        <time>2018-07-10T09:00:29Z</time>
      </trkpt>
      <trkpt lat="45.96493" lon="4.85799">
        <ele>274</ele>
        <time>2018-07-10T09:00:30Z</time>
      </trkpt>
      <trkpt lat="45.96495" lon="4.8581">
        <ele>274</ele>
        <time>2018-07-10T09:00:32Z</time>
      </trkpt>
      <trkpt lat="45.96495" lon="4.85816">
        <ele>274</ele>
        <time>2018-07-10T09:00:33Z</time>
      </trkpt>
      <trkpt lat="45.96497" lon="4.85827">
        <ele>275</ele>
        <time>2018-07-10T09:00:35Z</time>
      </trkpt>
      <trkpt lat="45.96497" lon="4.85834">
        <ele>275</ele>
        <time>2018-07-10T09:00:36Z</time>
      </trkpt>
      <trkpt lat="45.96499" lon="4.85845">
        <ele>275</ele>
        <time>2018-07-10T09:00:38Z</time>
      </trkpt>
      <trkpt lat="45.965" lon="4.8585">
        <ele>275</ele>
        <time>2018-07-10T09:00:39Z</time>
      </trkpt>
      <trkpt lat="45.96502" lon="4.85862">
        <ele>275</ele>
        <time>2018-07-10T09:00:41Z</time>
      </trkpt>
      <trkpt lat="45.96503" lon="4.85868">
        <ele>275</ele>
        <time>2018-07-10T09:00:42Z</time>
      </trkpt>
      <trkpt lat="45.96506" lon="4.8588">
        <ele>275</ele>
        <time>2018-07-10T09:00:44Z</time>
      </trkpt>
      <trkpt lat="45.96507" lon="4.85886">
        <ele>275</ele>
        <time>2018-07-10T09:00:45Z</time>
      </trkpt>
      <trkpt lat="45.96509" lon="4.85897">
        <ele>275</ele>
        <time>2018-07-10T09:00:47Z</time>
      </trkpt>
      <trkpt lat="45.96511" lon="4.85903">
        <ele>275</ele>
        <time>2018-07-10T09:00:48Z</time>
      </trkpt>
      <trkpt lat="45.96513" lon="4.85914">
        <ele>275</ele>
        <time>2018-07-10T09:00:50Z</time>
      </trkpt>
      <trkpt lat="45.96514" lon="4.85919">
        <ele>275</ele>
        <time>2018-07-10T09:00:51Z</time>
      </trkpt>
      <trkpt lat="45.96517" lon="4.8593">
        <ele>275</ele>
        <time>2018-07-10T09:00:53Z</time>
      </trkpt>
      <trkpt lat="45.96519" lon="4.85935">
        <ele>275</ele>
        <time>2018-07-10T09:00:54Z</time>
      </trkpt>
      <trkpt lat="45.96522" lon="4.85946">
        <ele>275</ele>
        <time>2018-07-10T09:00:56Z</time>
      </trkpt>
      <trkpt lat="45.96526" lon="4.85952">
        <ele>275</ele>
        <time>2018-07-10T09:00:57Z</time>
      </trkpt>
      <trkpt lat="45.96529" lon="4.85962">
        <ele>275</ele>
        <time>2018-07-10T09:00:59Z</time>
      </trkpt>
      <trkpt lat="45.96531" lon="4.85967">
        <ele>275</ele>
        <time>2018-07-10T09:01:00Z</time>
      </trkpt>
      <trkpt lat="45.96535" lon="4.85978">
        <ele>275</ele>
        <time>2018-07-10T09:01:02Z</time>
      </trkpt>
      <trkpt lat="45.96538" lon="4.85982">
        <ele>275</ele>
        <time>2018-07-10T09:01:03Z</time>
      </trkpt>
      <trkpt lat="45.96542" lon="4.85991">
        <ele>275</ele>
        <time>2018-07-10T09:01:05Z</time>
      </trkpt>
      <trkpt lat="45.96545" lon="4.85995">
        <ele>275</ele>
        <time>2018-07-10T09:01:06Z</time>
      </trkpt>
      <trkpt lat="45.96549" lon="4.86004">
        <ele>276</ele>
        <time>2018-07-10T09:01:08Z</time>
      </trkpt>
      <trkpt lat="45.96551" lon="4.86008">
        <ele>276</ele>
        <time>2018-07-10T09:01:09Z</time>
      </trkpt>
      <trkpt lat="45.96556" lon="4.86017">
        <ele>276</ele>
        <time>2018-07-10T09:01:11Z</time>
      </trkpt>
      <trkpt lat="45.96558" lon="4.86021">
        <ele>276</ele>
        <time>2018-07-10T09:01:12Z</time>
      </trkpt>
      <trkpt lat="45.96562" lon="4.86029">
        <ele>276</ele>
        <time>2018-07-10T09:01:14Z</time>
      </trkpt>
      <trkpt lat="45.96565" lon="4.86033">
        <ele>276</ele>
        <time>2018-07-10T09:01:15Z</time>
      </trkpt>
      <trkpt lat="45.9657" lon="4.86041">
        <ele>276</ele>
        <time>2018-07-10T09:01:17Z</time>
      </trkpt>
      <trkpt lat="45.96572" lon="4.86044">
        <ele>276</ele>
        <time>2018-07-10T09:01:18Z</time>
      </trkpt>
      <trkpt lat="45.96576" lon="4.86052">
        <ele>276</ele>
        <time>2018-07-10T09:01:21Z</time>
      </trkpt>
      <trkpt lat="45.96577" lon="4.86056">
        <ele>277</ele>
        <time>2018-07-10T09:01:22Z</time>
      </trkpt>
      <trkpt lat="45.96579" lon="4.8606">
        <ele>277</ele>
        <time>2018-07-10T09:01:23Z</time>
      </trkpt>
      <trkpt lat="45.96583" lon="4.8607">
        <ele>277</ele>
        <time>2018-07-10T09:01:24Z</time>
      </trkpt>
      <trkpt lat="45.96586" lon="4.86079">
        <ele>279</ele>
        <time>2018-07-10T09:01:26Z</time>
      </trkpt>
      <trkpt lat="45.96587" lon="4.86084">
        <ele>279</ele>
        <time>2018-07-10T09:01:27Z</time>
      </trkpt>
      <trkpt lat="45.96589" lon="4.86091">
        <ele>279</ele>
        <time>2018-07-10T09:01:29Z</time>
      </trkpt>
      <trkpt lat="45.96591" lon="4.86098">
        <ele>280</ele>
        <time>2018-07-10T09:01:30Z</time>
      </trkpt>
      <trkpt lat="45.96592" lon="4.86104">
        <ele>280</ele>
        <time>2018-07-10T09:01:32Z</time>
      </trkpt>
      <trkpt lat="45.96593" lon="4.86114">
        <ele>281</ele>
        <time>2018-07-10T09:01:33Z</time>
      </trkpt>
      <trkpt lat="45.96593" lon="4.86125">
        <ele>281</ele>
        <time>2018-07-10T09:01:35Z</time>
      </trkpt>
      <trkpt lat="45.96593" lon="4.8613">
        <ele>281</ele>
        <time>2018-07-10T09:01:36Z</time>
      </trkpt>
      <trkpt lat="45.96592" lon="4.86141">
        <ele>281</ele>
        <time>2018-07-10T09:01:38Z</time>
      </trkpt>
      <trkpt lat="45.96592" lon="4.86146">
        <ele>281</ele>
        <time>2018-07-10T09:01:39Z</time>
      </trkpt>
      <trkpt lat="45.9659" lon="4.86158">
        <ele>281</ele>
        <time>2018-07-10T09:01:41Z</time>
      </trkpt>
      <trkpt lat="45.9659" lon="4.86164">
        <ele>280</ele>
        <time>2018-07-10T09:01:42Z</time>
      </trkpt>
      <trkpt lat="45.96589" lon="4.86176">
        <ele>281</ele>
        <time>2018-07-10T09:01:45Z</time>
      </trkpt>
      <trkpt lat="45.96588" lon="4.86186">
        <ele>281</ele>
        <time>2018-07-10T09:01:46Z</time>
      </trkpt>
      <trkpt lat="45.96586" lon="4.86197">
        <ele>282</ele>
        <time>2018-07-10T09:01:49Z</time>
      </trkpt>
      <trkpt lat="45.96586" lon="4.86206">
        <ele>282</ele>
        <time>2018-07-10T09:01:50Z</time>
      </trkpt>
      <trkpt lat="45.96585" lon="4.86212">
        <ele>282</ele>
        <time>2018-07-10T09:01:52Z</time>
      </trkpt>
      <trkpt lat="45.96585" lon="4.86223">
        <ele>282</ele>
        <time>2018-07-10T09:01:53Z</time>
      </trkpt>
      <trkpt lat="45.96584" lon="4.86234">
        <ele>282</ele>
        <time>2018-07-10T09:01:56Z</time>
      </trkpt>
      <trkpt lat="45.96584" lon="4.86243">
        <ele>281</ele>
        <time>2018-07-10T09:01:57Z</time>
      </trkpt>
      <trkpt lat="45.96583" lon="4.86253">
        <ele>281</ele>
        <time>2018-07-10T09:02:00Z</time>
      </trkpt>
      <trkpt lat="45.96583" lon="4.86264">
        <ele>281</ele>
        <time>2018-07-10T09:02:01Z</time>
      </trkpt>
      <trkpt lat="45.96583" lon="4.86275">
        <ele>283</ele>
        <time>2018-07-10T09:02:03Z</time>
      </trkpt>
      <trkpt lat="45.96584" lon="4.8628">
        <ele>284</ele>
        <time>2018-07-10T09:02:04Z</time>
      </trkpt>
      <trkpt lat="45.96583" lon="4.8629">
        <ele>282</ele>
        <time>2018-07-10T09:02:07Z</time>
      </trkpt>
      <trkpt lat="45.96582" lon="4.86301">
        <ele>283</ele>
        <time>2018-07-10T09:02:08Z</time>
      </trkpt>
      <trkpt lat="45.96582" lon="4.86313">
        <ele>283</ele>
        <time>2018-07-10T09:02:12Z</time>
      </trkpt>
      <trkpt lat="45.96582" lon="4.86316">
        <ele>283</ele>
        <time>2018-07-10T09:02:13Z</time>
      </trkpt>
      <trkpt lat="45.96582" lon="4.86327">
        <ele>284</ele>
        <time>2018-07-10T09:02:16Z</time>
      </trkpt>
      <trkpt lat="45.96582" lon="4.86332">
        <ele>285</ele>
        <time>2018-07-10T09:02:17Z</time>
      </trkpt>
      <trkpt lat="45.96581" lon="4.86344">
        <ele>285</ele>
        <time>2018-07-10T09:02:20Z</time>
      </trkpt>
      <trkpt lat="45.96581" lon="4.86348">
        <ele>285</ele>
        <time>2018-07-10T09:02:21Z</time>
      </trkpt>
      <trkpt lat="45.9658" lon="4.86357">
        <ele>285</ele>
        <time>2018-07-10T09:02:23Z</time>
      </trkpt>
      <trkpt lat="45.9658" lon="4.86363">
        <ele>286</ele>
        <time>2018-07-10T09:02:24Z</time>
      </trkpt>
      <trkpt lat="45.96579" lon="4.86372">
        <ele>286</ele>
        <time>2018-07-10T09:02:26Z</time>
      </trkpt>
      <trkpt lat="45.96579" lon="4.86377">
        <ele>286</ele>
        <time>2018-07-10T09:02:27Z</time>
      </trkpt>
      <trkpt lat="45.96579" lon="4.86386">
        <ele>287</ele>
        <time>2018-07-10T09:02:29Z</time>
      </trkpt>
      <trkpt lat="45.96579" lon="4.8639">
        <ele>287</ele>
        <time>2018-07-10T09:02:30Z</time>
      </trkpt>
      <trkpt lat="45.96579" lon="4.86399">
        <ele>288</ele>
        <time>2018-07-10T09:02:32Z</time>
      </trkpt>
      <trkpt lat="45.96579" lon="4.86403">
        <ele>288</ele>
        <time>2018-07-10T09:02:33Z</time>
      </trkpt>
      <trkpt lat="45.96578" lon="4.86412">
        <ele>289</ele>
        <time>2018-07-10T09:02:35Z</time>
      </trkpt>
      <trkpt lat="45.96578" lon="4.86416">
        <ele>289</ele>
        <time>2018-07-10T09:02:36Z</time>
      </trkpt>
      <trkpt lat="45.96578" lon="4.86429">
        <ele>289</ele>
        <time>2018-07-10T09:02:39Z</time>
      </trkpt>
      <trkpt lat="45.96578" lon="4.86433">
        <ele>289</ele>
        <time>2018-07-10T09:02:40Z</time>
      </trkpt>
      <trkpt lat="45.96577" lon="4.86444">
        <ele>289</ele>
        <time>2018-07-10T09:02:43Z</time>
      </trkpt>
      <trkpt lat="45.96577" lon="4.86448">
        <ele>289</ele>
        <time>2018-07-10T09:02:44Z</time>
      </trkpt>
      <trkpt lat="45.96576" lon="4.86461">
        <ele>289</ele>
        <time>2018-07-10T09:02:47Z</time>
      </trkpt>
      <trkpt lat="45.96576" lon="4.86475">
        <ele>290</ele>
        <time>2018-07-10T09:02:48Z</time>
      </trkpt>
      <trkpt lat="45.96579" lon="4.86486">
        <ele>290</ele>
        <time>2018-07-10T09:02:52Z</time>
      </trkpt>
      <trkpt lat="45.9658" lon="4.8649">
        <ele>291</ele>
        <time>2018-07-10T09:02:53Z</time>
      </trkpt>
      <trkpt lat="45.96583" lon="4.86496">
        <ele>291</ele>
        <time>2018-07-10T09:02:55Z</time>
      </trkpt>
      <trkpt lat="45.96585" lon="4.865">
        <ele>292</ele>
        <time>2018-07-10T09:02:56Z</time>
      </trkpt>
      <trkpt lat="45.9659" lon="4.86507">
        <ele>292</ele>
        <time>2018-07-10T09:02:58Z</time>
      </trkpt>
      <trkpt lat="45.96592" lon="4.8651">
        <ele>291</ele>
        <time>2018-07-10T09:02:59Z</time>
      </trkpt>
      <trkpt lat="45.966" lon="4.86518">
        <ele>291</ele>
        <time>2018-07-10T09:03:00Z</time>
      </trkpt>
      <trkpt lat="45.96606" lon="4.86522">
        <ele>291</ele>
        <time>2018-07-10T09:03:03Z</time>
      </trkpt>
      <trkpt lat="45.96608" lon="4.86524">
        <ele>291</ele>
        <time>2018-07-10T09:03:04Z</time>
      </trkpt>
      <trkpt lat="45.96614" lon="4.8653">
        <ele>291</ele>
        <time>2018-07-10T09:03:07Z</time>
      </trkpt>
      <trkpt lat="45.96617" lon="4.86533">
        <ele>291</ele>
        <time>2018-07-10T09:03:08Z</time>
      </trkpt>
      <trkpt lat="45.96622" lon="4.86538">
        <ele>291</ele>
        <time>2018-07-10T09:03:10Z</time>
      </trkpt>
      <trkpt lat="45.96624" lon="4.8654">
        <ele>291</ele>
        <time>2018-07-10T09:03:11Z</time>
      </trkpt>
      <trkpt lat="45.96632" lon="4.86547">
        <ele>291</ele>
        <time>2018-07-10T09:03:12Z</time>
      </trkpt>
      <trkpt lat="45.96637" lon="4.86553">
        <ele>291</ele>
        <time>2018-07-10T09:03:15Z</time>
      </trkpt>
      <trkpt lat="45.96639" lon="4.86556">
        <ele>291</ele>
        <time>2018-07-10T09:03:16Z</time>
      </trkpt>
      <trkpt lat="45.96642" lon="4.86558">
        <ele>291</ele>
        <time>2018-07-10T09:03:17Z</time>
      </trkpt>
      <trkpt lat="45.96649" lon="4.86566">
        <ele>290</ele>
        <time>2018-07-10T09:03:18Z</time>
      </trkpt>
      <trkpt lat="45.96653" lon="4.86569">
        <ele>290</ele>
        <time>2018-07-10T09:03:20Z</time>
      </trkpt>
      <trkpt lat="45.96658" lon="4.86574">
        <ele>290</ele>
        <time>2018-07-10T09:03:21Z</time>
      </trkpt>
      <trkpt lat="45.96664" lon="4.8658">
        <ele>290</ele>
        <time>2018-07-10T09:03:23Z</time>
      </trkpt>
      <trkpt lat="45.96667" lon="4.86583">
        <ele>290</ele>
        <time>2018-07-10T09:03:24Z</time>
      </trkpt>
      <trkpt lat="45.96674" lon="4.8659">
        <ele>290</ele>
        <time>2018-07-10T09:03:26Z</time>
      </trkpt>
      <trkpt lat="45.96678" lon="4.86593">
        <ele>290</ele>
        <time>2018-07-10T09:03:27Z</time>
      </trkpt>
      <trkpt lat="45.96685" lon="4.86599">
        <ele>290</ele>
        <time>2018-07-10T09:03:29Z</time>
      </trkpt>
      <trkpt lat="45.96689" lon="4.86602">
        <ele>290</ele>
        <time>2018-07-10T09:03:30Z</time>
      </trkpt>
      <trkpt lat="45.96695" lon="4.86609">
        <ele>290</ele>
        <time>2018-07-10T09:03:32Z</time>
      </trkpt>
      <trkpt lat="45.96698" lon="4.86612">
        <ele>290</ele>
        <time>2018-07-10T09:03:33Z</time>
      </trkpt>
      <trkpt lat="45.96705" lon="4.86618">
        <ele>290</ele>
        <time>2018-07-10T09:03:35Z</time>
      </trkpt>
      <trkpt lat="45.96708" lon="4.86621">
        <ele>290</ele>
        <time>2018-07-10T09:03:36Z</time>
      </trkpt>
      <trkpt lat="45.96715" lon="4.86625">
        <ele>290</ele>
        <time>2018-07-10T09:03:38Z</time>
      </trkpt>
      <trkpt lat="45.96719" lon="4.86627">
        <ele>290</ele>
        <time>2018-07-10T09:03:39Z</time>
      </trkpt>
      <trkpt lat="45.96726" lon="4.86631">
        <ele>290</ele>
        <time>2018-07-10T09:03:41Z</time>
      </trkpt>
      <trkpt lat="45.96729" lon="4.86632">
        <ele>290</ele>
        <time>2018-07-10T09:03:42Z</time>
      </trkpt>
      <trkpt lat="45.96736" lon="4.86636">
        <ele>290</ele>
        <time>2018-07-10T09:03:44Z</time>
      </trkpt>
      <trkpt lat="45.96739" lon="4.8664">
        <ele>290</ele>
        <time>2018-07-10T09:03:45Z</time>
      </trkpt>
      <trkpt lat="45.96741" lon="4.86648">
        <ele>290</ele>
        <time>2018-07-10T09:03:46Z</time>
      </trkpt>
      <trkpt lat="45.96738" lon="4.86654">
        <ele>290</ele>
        <time>2018-07-10T09:03:47Z</time>
      </trkpt>
      <trkpt lat="45.96735" lon="4.86664">
        <ele>290</ele>
        <time>2018-07-10T09:03:49Z</time>
      </trkpt>
      <trkpt lat="45.96732" lon="4.86669">
        <ele>290</ele>
        <time>2018-07-10T09:03:50Z</time>
      </trkpt>
      <trkpt lat="45.96729" lon="4.86674">
        <ele>289</ele>
        <time>2018-07-10T09:03:51Z</time>
      </trkpt>
      <trkpt lat="45.96726" lon="4.86679">
        <ele>289</ele>
        <time>2018-07-10T09:03:52Z</time>
      </trkpt>
      <trkpt lat="45.96723" lon="4.86685">
        <ele>289</ele>
        <time>2018-07-10T09:03:53Z</time>
      </trkpt>
      <trkpt lat="45.9672" lon="4.8669">
        <ele>289</ele>
        <time>2018-07-10T09:03:54Z</time>
      </trkpt>
      <trkpt lat="45.96717" lon="4.86696">
        <ele>289</ele>
        <time>2018-07-10T09:03:55Z</time>
      </trkpt>
      <trkpt lat="45.96715" lon="4.86703">
        <ele>289</ele>
        <time>2018-07-10T09:03:56Z</time>
      </trkpt>
      <trkpt lat="45.96712" lon="4.86709">
        <ele>289</ele>
        <time>2018-07-10T09:03:57Z</time>
      </trkpt>
      <trkpt lat="45.96709" lon="4.86715">
        <ele>289</ele>
        <time>2018-07-10T09:03:58Z</time>
      </trkpt>
      <trkpt lat="45.96706" lon="4.86722">
        <ele>289</ele>
        <time>2018-07-10T09:03:59Z</time>
      </trkpt>
      <trkpt lat="45.96702" lon="4.86727">
        <ele>289</ele>
        <time>2018-07-10T09:04:00Z</time>
      </trkpt>
      <trkpt lat="45.96697" lon="4.86733">
        <ele>289</ele>
        <time>2018-07-10T09:04:01Z</time>
      </trkpt>
      <trkpt lat="45.96694" lon="4.86739">
        <ele>289</ele>
        <time>2018-07-10T09:04:02Z</time>
      </trkpt>
      <trkpt lat="45.9669" lon="4.86743">
        <ele>289</ele>
        <time>2018-07-10T09:04:03Z</time>
      </trkpt>
      <trkpt lat="45.96686" lon="4.86749">
        <ele>289</ele>
        <time>2018-07-10T09:04:04Z</time>
      </trkpt>
      <trkpt lat="45.96683" lon="4.86757">
        <ele>289</ele>
        <time>2018-07-10T09:04:05Z</time>
      </trkpt>
      <trkpt lat="45.9668" lon="4.86763">
        <ele>289</ele>
        <time>2018-07-10T09:04:06Z</time>
      </trkpt>
      <trkpt lat="45.96676" lon="4.86769">
        <ele>289</ele>
        <time>2018-07-10T09:04:07Z</time>
      </trkpt>
      <trkpt lat="45.96672" lon="4.86774">
        <ele>289</ele>
        <time>2018-07-10T09:04:08Z</time>
      </trkpt>
      <trkpt lat="45.96669" lon="4.86782">
        <ele>289</ele>
        <time>2018-07-10T09:04:09Z</time>
      </trkpt>
      <trkpt lat="45.96667" lon="4.86786">
        <ele>289</ele>
        <time>2018-07-10T09:04:10Z</time>
      </trkpt>
      <trkpt lat="45.96665" lon="4.86793">
        <ele>288</ele>
        <time>2018-07-10T09:04:11Z</time>
      </trkpt>
      <trkpt lat="45.96661" lon="4.86798">
        <ele>288</ele>
        <time>2018-07-10T09:04:12Z</time>
      </trkpt>
      <trkpt lat="45.96658" lon="4.86804">
        <ele>288</ele>
        <time>2018-07-10T09:04:13Z</time>
      </trkpt>
      <trkpt lat="45.96654" lon="4.8681">
        <ele>288</ele>
        <time>2018-07-10T09:04:14Z</time>
      </trkpt>
      <trkpt lat="45.9665" lon="4.86814">
        <ele>288</ele>
        <time>2018-07-10T09:04:15Z</time>
      </trkpt>
      <trkpt lat="45.96647" lon="4.86821">
        <ele>288</ele>
        <time>2018-07-10T09:04:16Z</time>
      </trkpt>
      <trkpt lat="45.96645" lon="4.86829">
        <ele>288</ele>
        <time>2018-07-10T09:04:17Z</time>
      </trkpt>
      <trkpt lat="45.96642" lon="4.86834">
        <ele>287</ele>
        <time>2018-07-10T09:04:18Z</time>
      </trkpt>
      <trkpt lat="45.96639" lon="4.8684">
        <ele>287</ele>
        <time>2018-07-10T09:04:19Z</time>
      </trkpt>
      <trkpt lat="45.96635" lon="4.86845">
        <ele>287</ele>
        <time>2018-07-10T09:04:20Z</time>
      </trkpt>
      <trkpt lat="45.96631" lon="4.86851">
        <ele>287</ele>
        <time>2018-07-10T09:04:21Z</time>
      </trkpt>
      <trkpt lat="45.96628" lon="4.86856">
        <ele>287</ele>
        <time>2018-07-10T09:04:22Z</time>
      </trkpt>
      <trkpt lat="45.96625" lon="4.86861">
        <ele>287</ele>
        <time>2018-07-10T09:04:23Z</time>
      </trkpt>
      <trkpt lat="45.96617" lon="4.86864">
        <ele>287</ele>
        <time>2018-07-10T09:04:24Z</time>
      </trkpt>
      <trkpt lat="45.96614" lon="4.86868">
        <ele>287</ele>
        <time>2018-07-10T09:04:25Z</time>
      </trkpt>
      <trkpt lat="45.96611" lon="4.86875">
        <ele>287</ele>
        <time>2018-07-10T09:04:26Z</time>
      </trkpt>
      <trkpt lat="45.96609" lon="4.86881">
        <ele>287</ele>
        <time>2018-07-10T09:04:27Z</time>
      </trkpt>
      <trkpt lat="45.96606" lon="4.86887">
        <ele>287</ele>
        <time>2018-07-10T09:04:28Z</time>
      </trkpt>
      <trkpt lat="45.966" lon="4.86893">
        <ele>286</ele>
        <time>2018-07-10T09:04:29Z</time>
      </trkpt>
      <trkpt lat="45.96596" lon="4.86899">
        <ele>286</ele>
        <time>2018-07-10T09:04:30Z</time>
      </trkpt>
      <trkpt lat="45.96593" lon="4.86907">
        <ele>286</ele>
        <time>2018-07-10T09:04:31Z</time>
      </trkpt>
      <trkpt lat="45.9659" lon="4.86913">
        <ele>286</ele>
        <time>2018-07-10T09:04:32Z</time>
      </trkpt>
      <trkpt lat="45.96586" lon="4.8692">
        <ele>285</ele>
        <time>2018-07-10T09:04:33Z</time>
      </trkpt>
      <trkpt lat="45.96582" lon="4.86927">
        <ele>284</ele>
        <time>2018-07-10T09:04:34Z</time>
      </trkpt>
      <trkpt lat="45.96578" lon="4.86934">
        <ele>284</ele>
        <time>2018-07-10T09:04:35Z</time>
      </trkpt>
      <trkpt lat="45.96574" lon="4.86941">
        <ele>284</ele>
        <time>2018-07-10T09:04:36Z</time>
      </trkpt>
      <trkpt lat="45.9657" lon="4.86947">
        <ele>284</ele>
        <time>2018-07-10T09:04:37Z</time>
      </trkpt>
      <trkpt lat="45.96566" lon="4.86952">
        <ele>284</ele>
        <time>2018-07-10T09:04:38Z</time>
      </trkpt>
      <trkpt lat="45.96562" lon="4.86958">
        <ele>283</ele>
        <time>2018-07-10T09:04:39Z</time>
      </trkpt>
      <trkpt lat="45.96558" lon="4.86963">
        <ele>283</ele>
        <time>2018-07-10T09:04:40Z</time>
      </trkpt>
      <trkpt lat="45.96555" lon="4.86969">
        <ele>283</ele>
        <time>2018-07-10T09:04:41Z</time>
      </trkpt>
      <trkpt lat="45.96552" lon="4.86973">
        <ele>283</ele>
        <time>2018-07-10T09:04:42Z</time>
      </trkpt>
      <trkpt lat="45.96548" lon="4.86979">
        <ele>283</ele>
        <time>2018-07-10T09:04:44Z</time>
      </trkpt>
      <trkpt lat="45.96544" lon="4.86988">
        <ele>283</ele>
        <time>2018-07-10T09:04:45Z</time>
      </trkpt>
      <trkpt lat="45.96542" lon="4.87">
        <ele>283</ele>
        <time>2018-07-10T09:04:50Z</time>
      </trkpt>
      <trkpt lat="45.96543" lon="4.87002">
        <ele>283</ele>
        <time>2018-07-10T09:04:51Z</time>
      </trkpt>
      <trkpt lat="45.96543" lon="4.87013">
        <ele>283</ele>
        <time>2018-07-10T09:04:55Z</time>
      </trkpt>
      <trkpt lat="45.96544" lon="4.87016">
        <ele>283</ele>
        <time>2018-07-10T09:04:56Z</time>
      </trkpt>
      <trkpt lat="45.96549" lon="4.87027">
        <ele>283</ele>
        <time>2018-07-10T09:05:02Z</time>
      </trkpt>
      <trkpt lat="45.96549" lon="4.87027">
        <ele>283</ele>
        <time>2018-07-10T09:05:03Z</time>
      </trkpt>
      <trkpt lat="45.96541" lon="4.87028">
        <ele>283</ele>
        <time>2018-07-10T09:10:05Z</time>
      </trkpt>
      <trkpt lat="45.96539" lon="4.87027">
        <ele>283</ele>
        <time>2018-07-10T09:10:06Z</time>
      </trkpt>
      <trkpt lat="45.96536" lon="4.87026">
        <ele>283</ele>
        <time>2018-07-10T09:10:10Z</time>
      </trkpt>
      <trkpt lat="45.96535" lon="4.87026">
        <ele>283</ele>
        <time>2018-07-10T09:10:11Z</time>
      </trkpt>
      <trkpt lat="45.96535" lon="4.87025">
        <ele>283</ele>
        <time>2018-07-10T09:10:12Z</time>
      </trkpt>
      <trkpt lat="45.96542" lon="4.87028">
        <ele>283</ele>
        <time>2018-07-10T09:10:41Z</time>
      </trkpt>
      <trkpt lat="45.96544" lon="4.87028">
        <ele>283</ele>
        <time>2018-07-10T09:10:42Z</time>
      </trkpt>
      <trkpt lat="45.96552" lon="4.8703">
        <ele>283</ele>
        <time>2018-07-10T09:12:22Z</time>
      </trkpt>
      <trkpt lat="45.96554" lon="4.87032">
        <ele>283</ele>
        <time>2018-07-10T09:12:23Z</time>
      </trkpt>
      <trkpt lat="45.96556" lon="4.87041">
        <ele>283</ele>
        <time>2018-07-10T09:12:26Z</time>
      </trkpt>
      <trkpt lat="45.96557" lon="4.87045">
        <ele>283</ele>
        <time>2018-07-10T09:12:27Z</time>
      </trkpt>
      <trkpt lat="45.96559" lon="4.87057">
        <ele>283</ele>
        <time>2018-07-10T09:12:30Z</time>
      </trkpt>
      <trkpt lat="45.9656" lon="4.8706">
        <ele>283</ele>
        <time>2018-07-10T09:12:31Z</time>
      </trkpt>
      <trkpt lat="45.96556" lon="4.87071">
        <ele>283</ele>
        <time>2018-07-10T09:12:36Z</time>
      </trkpt>
      <trkpt lat="45.96554" lon="4.87072">
        <ele>283</ele>
        <time>2018-07-10T09:12:37Z</time>
      </trkpt>
      <trkpt lat="45.96547" lon="4.87071">
        <ele>283</ele>
        <time>2018-07-10T09:12:40Z</time>
      </trkpt>
      <trkpt lat="45.96544" lon="4.8707">
        <ele>283</ele>
        <time>2018-07-10T09:12:41Z</time>
      </trkpt>
      <trkpt lat="45.96539" lon="4.87063">
        <ele>283</ele>
        <time>2018-07-10T09:12:43Z</time>
      </trkpt>
      <trkpt lat="45.96535" lon="4.8705">
        <ele>283</ele>
        <time>2018-07-10T09:12:44Z</time>
      </trkpt>
      <trkpt lat="45.96535" lon="4.8704">
        <ele>283</ele>
        <time>2018-07-10T09:12:47Z</time>
      </trkpt>
      <trkpt lat="45.96535" lon="4.87036">
        <ele>283</ele>
        <time>2018-07-10T09:12:48Z</time>
      </trkpt>
      <trkpt lat="45.96537" lon="4.87026">
        <ele>283</ele>
        <time>2018-07-10T09:12:51Z</time>
      </trkpt>
      <trkpt lat="45.96538" lon="4.87023">
        <ele>283</ele>
        <time>2018-07-10T09:12:52Z</time>
      </trkpt>
      <trkpt lat="45.9654" lon="4.87012">
        <ele>283</ele>
        <time>2018-07-10T09:12:55Z</time>
      </trkpt>
      <trkpt lat="45.96541" lon="4.87009">
        <ele>283</ele>
        <time>2018-07-10T09:12:56Z</time>
      </trkpt>
      <trkpt lat="45.96541" lon="4.87005">
        <ele>283</ele>
        <time>2018-07-10T09:12:57Z</time>
      </trkpt>
      <trkpt lat="45.96543" lon="4.86993">
        <ele>283</ele>
        <time>2018-07-10T09:12:58Z</time>
      </trkpt>
      <trkpt lat="45.96549" lon="4.86986">
        <ele>283</ele>
        <time>2018-07-10T09:13:02Z</time>
      </trkpt>
      <trkpt lat="45.96551" lon="4.86985">
        <ele>283</ele>
        <time>2018-07-10T09:13:03Z</time>
      </trkpt>
      <trkpt lat="45.96558" lon="4.86988">
        <ele>284</ele>
        <time>2018-07-10T09:13:07Z</time>
      </trkpt>
      <trkpt lat="45.96571" lon="4.86989">
        <ele>284</ele>
        <time>2018-07-10T09:13:08Z</time>
      </trkpt>
      <trkpt lat="45.96577" lon="4.8699">
        <ele>284</ele>
        <time>2018-07-10T09:13:10Z</time>
      </trkpt>
      <trkpt lat="45.96583" lon="4.86991">
        <ele>284</ele>
        <time>2018-07-10T09:13:11Z</time>
      </trkpt>
      <trkpt lat="45.96592" lon="4.8699">
        <ele>285</ele>
        <time>2018-07-10T09:13:14Z</time>
      </trkpt>
      <trkpt lat="45.96594" lon="4.8699">
        <ele>286</ele>
        <time>2018-07-10T09:13:15Z</time>
      </trkpt>
      <trkpt lat="45.966" lon="4.8699">
        <ele>286</ele>
        <time>2018-07-10T09:13:17Z</time>
      </trkpt>
      <trkpt lat="45.96604" lon="4.8699">
        <ele>286</ele>
        <time>2018-07-10T09:13:18Z</time>
      </trkpt>
      <trkpt lat="45.9661" lon="4.86989">
        <ele>286</ele>
        <time>2018-07-10T09:13:20Z</time>
      </trkpt>
      <trkpt lat="45.96613" lon="4.86988">
        <ele>286</ele>
        <time>2018-07-10T09:13:21Z</time>
      </trkpt>
      <trkpt lat="45.96619" lon="4.86986">
        <ele>286</ele>
        <time>2018-07-10T09:13:23Z</time>
      </trkpt>
      <trkpt lat="45.96622" lon="4.86985">
        <ele>286</ele>
        <time>2018-07-10T09:13:24Z</time>
      </trkpt>
      <trkpt lat="45.96629" lon="4.86984">
        <ele>286</ele>
        <time>2018-07-10T09:13:26Z</time>
      </trkpt>
      <trkpt lat="45.96631" lon="4.86983">
        <ele>286</ele>
        <time>2018-07-10T09:13:27Z</time>
      </trkpt>
      <trkpt lat="45.96638" lon="4.86982">
        <ele>286</ele>
        <time>2018-07-10T09:13:29Z</time>
      </trkpt>
      <trkpt lat="45.96641" lon="4.86982">
        <ele>286</ele>
        <time>2018-07-10T09:13:30Z</time>
      </trkpt>
      <trkpt lat="45.96647" lon="4.86985">
        <ele>287</ele>
        <time>2018-07-10T09:13:32Z</time>
      </trkpt>
      <trkpt lat="45.9665" lon="4.86987">
        <ele>287</ele>
        <time>2018-07-10T09:13:33Z</time>
      </trkpt>
      <trkpt lat="45.96654" lon="4.86993">
        <ele>287</ele>
        <time>2018-07-10T09:13:35Z</time>
      </trkpt>
      <trkpt lat="45.96656" lon="4.86997">
        <ele>287</ele>
        <time>2018-07-10T09:13:36Z</time>
      </trkpt>
      <trkpt lat="45.96658" lon="4.87001">
        <ele>286</ele>
        <time>2018-07-10T09:13:37Z</time>
      </trkpt>
      <trkpt lat="45.96665" lon="4.87014">
        <ele>286</ele>
        <time>2018-07-10T09:13:38Z</time>
      </trkpt>
      <trkpt lat="45.96668" lon="4.87019">
        <ele>287</ele>
        <time>2018-07-10T09:13:39Z</time>
      </trkpt>
      <trkpt lat="45.96672" lon="4.87023">
        <ele>287</ele>
        <time>2018-07-10T09:13:40Z</time>
      </trkpt>
      <trkpt lat="45.96676" lon="4.87028">
        <ele>287</ele>
        <time>2018-07-10T09:13:41Z</time>
      </trkpt>
      <trkpt lat="45.9668" lon="4.87032">
        <ele>287</ele>
        <time>2018-07-10T09:13:42Z</time>
      </trkpt>
      <trkpt lat="45.96687" lon="4.87038">
        <ele>287</ele>
        <time>2018-07-10T09:13:44Z</time>
      </trkpt>
      <trkpt lat="45.96689" lon="4.87041">
        <ele>287</ele>
        <time>2018-07-10T09:13:45Z</time>
      </trkpt>
      <trkpt lat="45.96696" lon="4.87048">
        <ele>287</ele>
        <time>2018-07-10T09:13:47Z</time>
      </trkpt>
      <trkpt lat="45.96699" lon="4.87051">
        <ele>287</ele>
        <time>2018-07-10T09:13:48Z</time>
      </trkpt>
      <trkpt lat="45.96707" lon="4.87057">
        <ele>287</ele>
        <time>2018-07-10T09:13:50Z</time>
      </trkpt>
      <trkpt lat="45.96712" lon="4.87059">
        <ele>287</ele>
        <time>2018-07-10T09:13:51Z</time>
      </trkpt>
      <trkpt lat="45.96716" lon="4.87061">
        <ele>287</ele>
        <time>2018-07-10T09:13:52Z</time>
      </trkpt>
      <trkpt lat="45.96721" lon="4.87063">
        <ele>287</ele>
        <time>2018-07-10T09:13:53Z</time>
      </trkpt>
      <trkpt lat="45.96725" lon="4.87065">
        <ele>287</ele>
        <time>2018-07-10T09:13:54Z</time>
      </trkpt>
      <trkpt lat="45.96729" lon="4.87067">
        <ele>287</ele>
        <time>2018-07-10T09:13:55Z</time>
      </trkpt>
      <trkpt lat="45.96735" lon="4.87073">
        <ele>287</ele>
        <time>2018-07-10T09:13:57Z</time>
      </trkpt>
      <trkpt lat="45.96739" lon="4.87076">
        <ele>287</ele>
        <time>2018-07-10T09:13:58Z</time>
      </trkpt>
      <trkpt lat="45.96744" lon="4.87083">
        <ele>287</ele>
        <time>2018-07-10T09:14:00Z</time>
      </trkpt>
      <trkpt lat="45.96748" lon="4.87087">
        <ele>287</ele>
        <time>2018-07-10T09:14:01Z</time>
      </trkpt>
      <trkpt lat="45.96754" lon="4.87096">
        <ele>287</ele>
        <time>2018-07-10T09:14:03Z</time>
      </trkpt>
      <trkpt lat="45.96757" lon="4.87101">
        <ele>287</ele>
        <time>2018-07-10T09:14:04Z</time>
      </trkpt>
      <trkpt lat="45.9676" lon="4.87106">
        <ele>286</ele>
        <time>2018-07-10T09:14:05Z</time>
      </trkpt>
      <trkpt lat="45.96763" lon="4.87111">
        <ele>286</ele>
        <time>2018-07-10T09:14:06Z</time>
      </trkpt>
      <trkpt lat="45.96766" lon="4.87116">
        <ele>286</ele>
        <time>2018-07-10T09:14:07Z</time>
      </trkpt>
      <trkpt lat="45.9677" lon="4.8712">
        <ele>286</ele>
        <time>2018-07-10T09:14:08Z</time>
      </trkpt>
      <trkpt lat="45.96775" lon="4.87125">
        <ele>286</ele>
        <time>2018-07-10T09:14:09Z</time>
      </trkpt>
      <trkpt lat="45.96778" lon="4.8713">
        <ele>286</ele>
        <time>2018-07-10T09:14:10Z</time>
      </trkpt>
      <trkpt lat="45.96785" lon="4.87138">
        <ele>286</ele>
        <time>2018-07-10T09:14:12Z</time>
      </trkpt>
      <trkpt lat="45.96787" lon="4.87141">
        <ele>286</ele>
        <time>2018-07-10T09:14:13Z</time>
      </trkpt>
      <trkpt lat="45.96795" lon="4.8714">
        <ele>286</ele>
        <time>2018-07-10T09:14:16Z</time>
      </trkpt>
      <trkpt lat="45.96796" lon="4.87135">
        <ele>286</ele>
        <time>2018-07-10T09:14:17Z</time>
      </trkpt>
      <trkpt lat="45.96798" lon="4.8713">
        <ele>286</ele>
        <time>2018-07-10T09:14:18Z</time>
      </trkpt>
      <trkpt lat="45.96802" lon="4.87123">
        <ele>286</ele>
        <time>2018-07-10T09:14:19Z</time>
      </trkpt>
      <trkpt lat="45.96805" lon="4.87112">
        <ele>286</ele>
        <time>2018-07-10T09:14:21Z</time>
      </trkpt>
      <trkpt lat="45.96808" lon="4.87108">
        <ele>286</ele>
        <time>2018-07-10T09:14:22Z</time>
      </trkpt>
      <trkpt lat="45.96811" lon="4.87097">
        <ele>287</ele>
        <time>2018-07-10T09:14:24Z</time>
      </trkpt>
      <trkpt lat="45.96812" lon="4.87091">
        <ele>287</ele>
        <time>2018-07-10T09:14:25Z</time>
      </trkpt>
      <trkpt lat="45.96816" lon="4.8708">
        <ele>287</ele>
        <time>2018-07-10T09:14:27Z</time>
      </trkpt>
      <trkpt lat="45.96817" lon="4.87073">
        <ele>287</ele>
        <time>2018-07-10T09:14:28Z</time>
      </trkpt>
      <trkpt lat="45.9682" lon="4.87062">
        <ele>287</ele>
        <time>2018-07-10T09:14:30Z</time>
      </trkpt>
      <trkpt lat="45.96821" lon="4.87057">
        <ele>287</ele>
        <time>2018-07-10T09:14:31Z</time>
      </trkpt>
      <trkpt lat="45.96825" lon="4.87046">
        <ele>287</ele>
        <time>2018-07-10T09:14:33Z</time>
      </trkpt>
      <trkpt lat="45.96828" lon="4.87041">
        <ele>288</ele>
        <time>2018-07-10T09:14:34Z</time>
      </trkpt>
      <trkpt lat="45.96832" lon="4.8703">
        <ele>288</ele>
        <time>2018-07-10T09:14:36Z</time>
      </trkpt>
      <trkpt lat="45.96834" lon="4.87024">
        <ele>287</ele>
        <time>2018-07-10T09:14:37Z</time>
      </trkpt>
      <trkpt lat="45.96837" lon="4.87018">
        <ele>287</ele>
        <time>2018-07-10T09:14:38Z</time>
      </trkpt>
      <trkpt lat="45.96839" lon="4.87012">
        <ele>288</ele>
        <time>2018-07-10T09:14:39Z</time>
      </trkpt>
      <trkpt lat="45.96842" lon="4.87002">
        <ele>288</ele>
        <time>2018-07-10T09:14:41Z</time>
      </trkpt>
      <trkpt lat="45.96845" lon="4.86996">
        <ele>288</ele>
        <time>2018-07-10T09:14:42Z</time>
      </trkpt>
      <trkpt lat="45.96846" lon="4.86991">
        <ele>288</ele>
        <time>2018-07-10T09:14:44Z</time>
      </trkpt>
      <trkpt lat="45.9685" lon="4.86984">
        <ele>288</ele>
        <time>2018-07-10T09:14:45Z</time>
      </trkpt>
      <trkpt lat="45.96852" lon="4.86973">
        <ele>288</ele>
        <time>2018-07-10T09:14:47Z</time>
      </trkpt>
      <trkpt lat="45.96855" lon="4.86968">
        <ele>288</ele>
        <time>2018-07-10T09:14:48Z</time>
      </trkpt>
      <trkpt lat="45.96856" lon="4.86956">
        <ele>288</ele>
        <time>2018-07-10T09:14:50Z</time>
      </trkpt>
      <trkpt lat="45.96857" lon="4.86953">
        <ele>288</ele>
        <time>2018-07-10T09:14:51Z</time>
      </trkpt>
      <trkpt lat="45.96858" lon="4.86951">
        <ele>288</ele>
        <time>2018-07-10T09:14:52Z</time>
      </trkpt>
      <trkpt lat="45.96862" lon="4.86943">
        <ele>288</ele>
        <time>2018-07-10T09:14:53Z</time>
      </trkpt>
      <trkpt lat="45.96865" lon="4.86933">
        <ele>288</ele>
        <time>2018-07-10T09:14:55Z</time>
      </trkpt>
      <trkpt lat="45.96866" lon="4.86927">
        <ele>288</ele>
        <time>2018-07-10T09:14:56Z</time>
      </trkpt>
      <trkpt lat="45.9687" lon="4.86915">
        <ele>289</ele>
        <time>2018-07-10T09:14:58Z</time>
      </trkpt>
      <trkpt lat="45.96872" lon="4.8691">
        <ele>289</ele>
        <time>2018-07-10T09:14:59Z</time>
      </trkpt>
      <trkpt lat="45.96873" lon="4.86903">
        <ele>289</ele>
        <time>2018-07-10T09:15:00Z</time>
      </trkpt>
      <trkpt lat="45.96875" lon="4.86897">
        <ele>289</ele>
        <time>2018-07-10T09:15:01Z</time>
      </trkpt>
      <trkpt lat="45.96879" lon="4.86887">
        <ele>289</ele>
        <time>2018-07-10T09:15:03Z</time>
      </trkpt>
      <trkpt lat="45.96881" lon="4.86881">
        <ele>289</ele>
        <time>2018-07-10T09:15:04Z</time>
      </trkpt>
      <trkpt lat="45.96884" lon="4.86869">
        <ele>289</ele>
        <time>2018-07-10T09:15:06Z</time>
      </trkpt>
      <trkpt lat="45.96887" lon="4.86864">
        <ele>289</ele>
        <time>2018-07-10T09:15:07Z</time>
      </trkpt>
      <trkpt lat="45.96891" lon="4.86853">
        <ele>289</ele>
        <time>2018-07-10T09:15:09Z</time>
      </trkpt>
      <trkpt lat="45.96892" lon="4.86847">
        <ele>289</ele>
        <time>2018-07-10T09:15:10Z</time>
      </trkpt>
      <trkpt lat="45.96894" lon="4.86837">
        <ele>289</ele>
        <time>2018-07-10T09:15:12Z</time>
      </trkpt>
      <trkpt lat="45.96896" lon="4.86832">
        <ele>288</ele>
        <time>2018-07-10T09:15:13Z</time>
      </trkpt>
      <trkpt lat="45.96899" lon="4.86822">
        <ele>288</ele>
        <time>2018-07-10T09:15:16Z</time>
      </trkpt>
      <trkpt lat="45.96901" lon="4.86819">
        <ele>288</ele>
        <time>2018-07-10T09:15:17Z</time>
      </trkpt>
      <trkpt lat="45.96907" lon="4.86812">
        <ele>288</ele>
        <time>2018-07-10T09:15:20Z</time>
      </trkpt>
      <trkpt lat="45.96909" lon="4.8681">
        <ele>288</ele>
        <time>2018-07-10T09:15:21Z</time>
      </trkpt>
      <trkpt lat="45.96916" lon="4.86808">
        <ele>288</ele>
        <time>2018-07-10T09:15:22Z</time>
      </trkpt>
      <trkpt lat="45.9692" lon="4.8681">
        <ele>287</ele>
        <time>2018-07-10T09:15:23Z</time>
      </trkpt>
      <trkpt lat="45.96923" lon="4.86814">
        <ele>287</ele>
        <time>2018-07-10T09:15:24Z</time>
      </trkpt>
      <trkpt lat="45.96929" lon="4.86819">
        <ele>287</ele>
        <time>2018-07-10T09:15:25Z</time>
      </trkpt>
      <trkpt lat="45.96933" lon="4.86822">
        <ele>287</ele>
        <time>2018-07-10T09:15:26Z</time>
      </trkpt>
      <trkpt lat="45.96938" lon="4.86826">
        <ele>287</ele>
        <time>2018-07-10T09:15:27Z</time>
      </trkpt>
      <trkpt lat="45.96942" lon="4.86828">
        <ele>287</ele>
        <time>2018-07-10T09:15:28Z</time>
      </trkpt>
      <trkpt lat="45.96946" lon="4.8683">
        <ele>287</ele>
        <time>2018-07-10T09:15:29Z</time>
      </trkpt>
      <trkpt lat="45.9695" lon="4.86833">
        <ele>287</ele>
        <time>2018-07-10T09:15:30Z</time>
      </trkpt>
      <trkpt lat="45.96954" lon="4.86836">
        <ele>287</ele>
        <time>2018-07-10T09:15:31Z</time>
      </trkpt>
      <trkpt lat="45.96959" lon="4.86838">
        <ele>287</ele>
        <time>2018-07-10T09:15:32Z</time>
      </trkpt>
      <trkpt lat="45.96964" lon="4.86839">
        <ele>287</ele>
        <time>2018-07-10T09:15:33Z</time>
      </trkpt>
      <trkpt lat="45.96969" lon="4.86841">
        <ele>286</ele>
        <time>2018-07-10T09:15:34Z</time>
      </trkpt>
      <trkpt lat="45.96974" lon="4.86843">
        <ele>286</ele>
        <time>2018-07-10T09:15:35Z</time>
      </trkpt>
      <trkpt lat="45.96979" lon="4.86844">
        <ele>286</ele>
        <time>2018-07-10T09:15:36Z</time>
      </trkpt>
      <trkpt lat="45.96984" lon="4.86845">
        <ele>286</ele>
        <time>2018-07-10T09:15:37Z</time>
      </trkpt>
      <trkpt lat="45.96989" lon="4.86846">
        <ele>286</ele>
        <time>2018-07-10T09:15:38Z</time>
      </trkpt>
      <trkpt lat="45.96994" lon="4.86847">
        <ele>286</ele>
        <time>2018-07-10T09:15:39Z</time>
      </trkpt>
      <trkpt lat="45.97" lon="4.86847">
        <ele>286</ele>
        <time>2018-07-10T09:15:40Z</time>
      </trkpt>
      <trkpt lat="45.97004" lon="4.86848">
        <ele>285</ele>
        <time>2018-07-10T09:15:41Z</time>
      </trkpt>
      <trkpt lat="45.9701" lon="4.86847">
        <ele>285</ele>
        <time>2018-07-10T09:15:42Z</time>
      </trkpt>
      <trkpt lat="45.97016" lon="4.86846">
        <ele>285</ele>
        <time>2018-07-10T09:15:43Z</time>
      </trkpt>
      <trkpt lat="45.97021" lon="4.86846">
        <ele>285</ele>
        <time>2018-07-10T09:15:44Z</time>
      </trkpt>
      <trkpt lat="45.97027" lon="4.86846">
        <ele>285</ele>
        <time>2018-07-10T09:15:45Z</time>
      </trkpt>
      <trkpt lat="45.97033" lon="4.86844">
        <ele>285</ele>
        <time>2018-07-10T09:15:46Z</time>
      </trkpt>
      <trkpt lat="45.97039" lon="4.86843">
        <ele>285</ele>
        <time>2018-07-10T09:15:47Z</time>
      </trkpt>
      <trkpt lat="45.97045" lon="4.86842">
        <ele>285</ele>
        <time>2018-07-10T09:15:48Z</time>
      </trkpt>
      <trkpt lat="45.9705" lon="4.86841">
        <ele>285</ele>
        <time>2018-07-10T09:15:49Z</time>
      </trkpt>
      <trkpt lat="45.97055" lon="4.8684">
        <ele>285</ele>
        <time>2018-07-10T09:15:50Z</time>
      </trkpt>
      <trkpt lat="45.97062" lon="4.86839">
        <ele>284</ele>
        <time>2018-07-10T09:15:51Z</time>
      </trkpt>
      <trkpt lat="45.97066" lon="4.86838">
        <ele>284</ele>
        <time>2018-07-10T09:15:52Z</time>
      </trkpt>
      <trkpt lat="45.97071" lon="4.86837">
        <ele>284</ele>
        <time>2018-07-10T09:15:53Z</time>
      </trkpt>
      <trkpt lat="45.97076" lon="4.86836">
        <ele>284</ele>
        <time>2018-07-10T09:15:54Z</time>
      </trkpt>
      <trkpt lat="45.97081" lon="4.86836">
        <ele>284</ele>
        <time>2018-07-10T09:15:55Z</time>
      </trkpt>
      <trkpt lat="45.97086" lon="4.86835">
        <ele>284</ele>
        <time>2018-07-10T09:15:56Z</time>
      </trkpt>
      <trkpt lat="45.97091" lon="4.86834">
        <ele>284</ele>
        <time>2018-07-10T09:15:57Z</time>
      </trkpt>
      <trkpt lat="45.97099" lon="4.86831">
        <ele>284</ele>
        <time>2018-07-10T09:15:59Z</time>
      </trkpt>
      <trkpt lat="45.97104" lon="4.8683">
        <ele>284</ele>
        <time>2018-07-10T09:16:00Z</time>
      </trkpt>
      <trkpt lat="45.9711" lon="4.86828">
        <ele>283</ele>
        <time>2018-07-10T09:16:01Z</time>
      </trkpt>
      <trkpt lat="45.97116" lon="4.86826">
        <ele>283</ele>
        <time>2018-07-10T09:16:02Z</time>
      </trkpt>
      <trkpt lat="45.97121" lon="4.86824">
        <ele>283</ele>
        <time>2018-07-10T09:16:03Z</time>
      </trkpt>
      <trkpt lat="45.97126" lon="4.86822">
        <ele>283</ele>
        <time>2018-07-10T09:16:04Z</time>
      </trkpt>
      <trkpt lat="45.9713" lon="4.86821">
        <ele>283</ele>
        <time>2018-07-10T09:16:05Z</time>
      </trkpt>
      <trkpt lat="45.97135" lon="4.86819">
        <ele>283</ele>
        <time>2018-07-10T09:16:06Z</time>
      </trkpt>
      <trkpt lat="45.97141" lon="4.86815">
        <ele>283</ele>
        <time>2018-07-10T09:16:07Z</time>
      </trkpt>
      <trkpt lat="45.97146" lon="4.86813">
        <ele>283</ele>
        <time>2018-07-10T09:16:08Z</time>
      </trkpt>
      <trkpt lat="45.97149" lon="4.86812">
        <ele>283</ele>
        <time>2018-07-10T09:16:09Z</time>
      </trkpt>
      <trkpt lat="45.97155" lon="4.8681">
        <ele>283</ele>
        <time>2018-07-10T09:16:10Z</time>
      </trkpt>
      <trkpt lat="45.9716" lon="4.86809">
        <ele>283</ele>
        <time>2018-07-10T09:16:11Z</time>
      </trkpt>
      <trkpt lat="45.97164" lon="4.86806">
        <ele>283</ele>
        <time>2018-07-10T09:16:12Z</time>
      </trkpt>
      <trkpt lat="45.97168" lon="4.86804">
        <ele>283</ele>
        <time>2018-07-10T09:16:13Z</time>
      </trkpt>
      <trkpt lat="45.97173" lon="4.86802">
        <ele>283</ele>
        <time>2018-07-10T09:16:14Z</time>
      </trkpt>
      <trkpt lat="45.97179" lon="4.868">
        <ele>284</ele>
        <time>2018-07-10T09:16:15Z</time>
      </trkpt>
      <trkpt lat="45.97184" lon="4.86798">
        <ele>284</ele>
        <time>2018-07-10T09:16:16Z</time>
      </trkpt>
      <trkpt lat="45.97189" lon="4.86796">
        <ele>284</ele>
        <time>2018-07-10T09:16:17Z</time>
      </trkpt>
      <trkpt lat="45.97194" lon="4.86796">
        <ele>284</ele>
        <time>2018-07-10T09:16:18Z</time>
      </trkpt>
      <trkpt lat="45.97199" lon="4.86794">
        <ele>284</ele>
        <time>2018-07-10T09:16:19Z</time>
      </trkpt>
      <trkpt lat="45.97204" lon="4.86793">
        <ele>284</ele>
        <time>2018-07-10T09:16:20Z</time>
      </trkpt>
      <trkpt lat="45.97208" lon="4.86791">
        <ele>284</ele>
        <time>2018-07-10T09:16:21Z</time>
      </trkpt>
      <trkpt lat="45.97214" lon="4.86789">
        <ele>284</ele>
        <time>2018-07-10T09:16:22Z</time>
      </trkpt>
      <trkpt lat="45.97222" lon="4.86788">
        <ele>284</ele>
        <time>2018-07-10T09:16:24Z</time>
      </trkpt>
      <trkpt lat="45.97228" lon="4.8679">
        <ele>284</ele>
        <time>2018-07-10T09:16:25Z</time>
      </trkpt>
      <trkpt lat="45.97232" lon="4.86792">
        <ele>284</ele>
        <time>2018-07-10T09:16:26Z</time>
      </trkpt>
      <trkpt lat="45.97238" lon="4.86793">
        <ele>284</ele>
        <time>2018-07-10T09:16:27Z</time>
      </trkpt>
      <trkpt lat="45.97242" lon="4.86796">
        <ele>284</ele>
        <time>2018-07-10T09:16:28Z</time>
      </trkpt>
      <trkpt lat="45.97246" lon="4.868">
        <ele>284</ele>
        <time>2018-07-10T09:16:29Z</time>
      </trkpt>
      <trkpt lat="45.97249" lon="4.86804">
        <ele>284</ele>
        <time>2018-07-10T09:16:30Z</time>
      </trkpt>
      <trkpt lat="45.97253" lon="4.86809">
        <ele>285</ele>
        <time>2018-07-10T09:16:31Z</time>
      </trkpt>
      <trkpt lat="45.97256" lon="4.86813">
        <ele>285</ele>
        <time>2018-07-10T09:16:32Z</time>
      </trkpt>
      <trkpt lat="45.97259" lon="4.86819">
        <ele>285</ele>
        <time>2018-07-10T09:16:33Z</time>
      </trkpt>
      <trkpt lat="45.97261" lon="4.86825">
        <ele>285</ele>
        <time>2018-07-10T09:16:34Z</time>
      </trkpt>
      <trkpt lat="45.97264" lon="4.8683">
        <ele>285</ele>
        <time>2018-07-10T09:16:35Z</time>
      </trkpt>
      <trkpt lat="45.97269" lon="4.86841">
        <ele>285</ele>
        <time>2018-07-10T09:16:37Z</time>
      </trkpt>
      <trkpt lat="45.97272" lon="4.86844">
        <ele>285</ele>
        <time>2018-07-10T09:16:38Z</time>
      </trkpt>
      <trkpt lat="45.97275" lon="4.8685">
        <ele>285</ele>
        <time>2018-07-10T09:16:39Z</time>
      </trkpt>
      <trkpt lat="45.97278" lon="4.86856">
        <ele>285</ele>
        <time>2018-07-10T09:16:40Z</time>
      </trkpt>
      <trkpt lat="45.97281" lon="4.86862">
        <ele>285</ele>
        <time>2018-07-10T09:16:41Z</time>
      </trkpt>
      <trkpt lat="45.97285" lon="4.86867">
        <ele>285</ele>
        <time>2018-07-10T09:16:42Z</time>
      </trkpt>
      <trkpt lat="45.97289" lon="4.86873">
        <ele>285</ele>
        <time>2018-07-10T09:16:43Z</time>
      </trkpt>
      <trkpt lat="45.97292" lon="4.86878">
        <ele>284</ele>
        <time>2018-07-10T09:16:44Z</time>
      </trkpt>
      <trkpt lat="45.97296" lon="4.86883">
        <ele>284</ele>
        <time>2018-07-10T09:16:45Z</time>
      </trkpt>
      <trkpt lat="45.97299" lon="4.86886">
        <ele>284</ele>
        <time>2018-07-10T09:16:46Z</time>
      </trkpt>
      <trkpt lat="45.97303" lon="4.86891">
        <ele>284</ele>
        <time>2018-07-10T09:16:47Z</time>
      </trkpt>
      <trkpt lat="45.97307" lon="4.86897">
        <ele>284</ele>
        <time>2018-07-10T09:16:48Z</time>
      </trkpt>
      <trkpt lat="45.9731" lon="4.86901">
        <ele>284</ele>
        <time>2018-07-10T09:16:49Z</time>
      </trkpt>
      <trkpt lat="45.97319" lon="4.86906">
        <ele>284</ele>
        <time>2018-07-10T09:16:50Z</time>
      </trkpt>
      <trkpt lat="45.97323" lon="4.86911">
        <ele>284</ele>
        <time>2018-07-10T09:16:51Z</time>
      </trkpt>
      <trkpt lat="45.97326" lon="4.86917">
        <ele>284</ele>
        <time>2018-07-10T09:16:52Z</time>
      </trkpt>
      <trkpt lat="45.97328" lon="4.86922">
        <ele>284</ele>
        <time>2018-07-10T09:16:53Z</time>
      </trkpt>
      <trkpt lat="45.97333" lon="4.86927">
        <ele>284</ele>
        <time>2018-07-10T09:16:54Z</time>
      </trkpt>
      <trkpt lat="45.97337" lon="4.86931">
        <ele>284</ele>
        <time>2018-07-10T09:16:55Z</time>
      </trkpt>
      <trkpt lat="45.97341" lon="4.86936">
        <ele>284</ele>
        <time>2018-07-10T09:16:56Z</time>
      </trkpt>
      <trkpt lat="45.97347" lon="4.86945">
        <ele>284</ele>
        <time>2018-07-10T09:16:58Z</time>
      </trkpt>
      <trkpt lat="45.9735" lon="4.86949">
        <ele>284</ele>
        <time>2018-07-10T09:16:59Z</time>
      </trkpt>
      <trkpt lat="45.97355" lon="4.86958">
        <ele>284</ele>
        <time>2018-07-10T09:17:01Z</time>
      </trkpt>
      <trkpt lat="45.97358" lon="4.86963">
        <ele>285</ele>
        <time>2018-07-10T09:17:02Z</time>
      </trkpt>
      <trkpt lat="45.97362" lon="4.86972">
        <ele>285</ele>
        <time>2018-07-10T09:17:04Z</time>
      </trkpt>
      <trkpt lat="45.97365" lon="4.86978">
        <ele>285</ele>
        <time>2018-07-10T09:17:05Z</time>
      </trkpt>
      <trkpt lat="45.97369" lon="4.86983">
        <ele>285</ele>
        <time>2018-07-10T09:17:06Z</time>
      </trkpt>
      <trkpt lat="45.97373" lon="4.86988">
        <ele>285</ele>
        <time>2018-07-10T09:17:07Z</time>
      </trkpt>
      <trkpt lat="45.97377" lon="4.86993">
        <ele>285</ele>
        <time>2018-07-10T09:17:08Z</time>
      </trkpt>
      <trkpt lat="45.97382" lon="4.86997">
        <ele>285</ele>
        <time>2018-07-10T09:17:09Z</time>
      </trkpt>
      <trkpt lat="45.97389" lon="4.87001">
        <ele>285</ele>
        <time>2018-07-10T09:17:10Z</time>
      </trkpt>
      <trkpt lat="45.97393" lon="4.87005">
        <ele>285</ele>
        <time>2018-07-10T09:17:11Z</time>
      </trkpt>
      <trkpt lat="45.97399" lon="4.87008">
        <ele>285</ele>
        <time>2018-07-10T09:17:12Z</time>
      </trkpt>
      <trkpt lat="45.97403" lon="4.87013">
        <ele>285</ele>
        <time>2018-07-10T09:17:13Z</time>
      </trkpt>
      <trkpt lat="45.97409" lon="4.87021">
        <ele>285</ele>
        <time>2018-07-10T09:17:15Z</time>
      </trkpt>
      <trkpt lat="45.97413" lon="4.87024">
        <ele>285</ele>
        <time>2018-07-10T09:17:16Z</time>
      </trkpt>
      <trkpt lat="45.97418" lon="4.87027">
        <ele>284</ele>
        <time>2018-07-10T09:17:17Z</time>
      </trkpt>
      <trkpt lat="45.97422" lon="4.87031">
        <ele>284</ele>
        <time>2018-07-10T09:17:18Z</time>
      </trkpt>
      <trkpt lat="45.97426" lon="4.87036">
        <ele>284</ele>
        <time>2018-07-10T09:17:19Z</time>
      </trkpt>
      <trkpt lat="45.97429" lon="4.87041">
        <ele>284</ele>
        <time>2018-07-10T09:17:20Z</time>
      </trkpt>
      <trkpt lat="45.97433" lon="4.87044">
        <ele>284</ele>
        <time>2018-07-10T09:17:21Z</time>
      </trkpt>
      <trkpt lat="45.97438" lon="4.87048">
        <ele>284</ele>
        <time>2018-07-10T09:17:22Z</time>
      </trkpt>
      <trkpt lat="45.97441" lon="4.87053">
        <ele>284</ele>
        <time>2018-07-10T09:17:23Z</time>
      </trkpt>
      <trkpt lat="45.97445" lon="4.87057">
        <ele>284</ele>
        <time>2018-07-10T09:17:24Z</time>
      </trkpt>
      <trkpt lat="45.97449" lon="4.87061">
        <ele>284</ele>
        <time>2018-07-10T09:17:25Z</time>
      </trkpt>
      <trkpt lat="45.97454" lon="4.87066">
        <ele>284</ele>
        <time>2018-07-10T09:17:26Z</time>
      </trkpt>
      <trkpt lat="45.97458" lon="4.87071">
        <ele>284</ele>
        <time>2018-07-10T09:17:27Z</time>
      </trkpt>
      <trkpt lat="45.97462" lon="4.87075">
        <ele>284</ele>
        <time>2018-07-10T09:17:28Z</time>
      </trkpt>
      <trkpt lat="45.97465" lon="4.87079">
        <ele>284</ele>
        <time>2018-07-10T09:17:29Z</time>
      </trkpt>
      <trkpt lat="45.97469" lon="4.87084">
        <ele>283</ele>
        <time>2018-07-10T09:17:30Z</time>
      </trkpt>
      <trkpt lat="45.97473" lon="4.8709">
        <ele>283</ele>
        <time>2018-07-10T09:17:31Z</time>
      </trkpt>
      <trkpt lat="45.97477" lon="4.87095">
        <ele>283</ele>
        <time>2018-07-10T09:17:32Z</time>
      </trkpt>
      <trkpt lat="45.97483" lon="4.87099">
        <ele>283</ele>
        <time>2018-07-10T09:17:33Z</time>
      </trkpt>
      <trkpt lat="45.97486" lon="4.87103">
        <ele>283</ele>
        <time>2018-07-10T09:17:34Z</time>
      </trkpt>
      <trkpt lat="45.97489" lon="4.87107">
        <ele>283</ele>
        <time>2018-07-10T09:17:35Z</time>
      </trkpt>
      <trkpt lat="45.97494" lon="4.87111">
        <ele>283</ele>
        <time>2018-07-10T09:17:36Z</time>
      </trkpt>
      <trkpt lat="45.97502" lon="4.87118">
        <ele>283</ele>
        <time>2018-07-10T09:17:38Z</time>
      </trkpt>
      <trkpt lat="45.97506" lon="4.87121">
        <ele>283</ele>
        <time>2018-07-10T09:17:39Z</time>
      </trkpt>
      <trkpt lat="45.9751" lon="4.87124">
        <ele>283</ele>
        <time>2018-07-10T09:17:40Z</time>
      </trkpt>
      <trkpt lat="45.97514" lon="4.87128">
        <ele>283</ele>
        <time>2018-07-10T09:17:41Z</time>
      </trkpt>
      <trkpt lat="45.97517" lon="4.87134">
        <ele>283</ele>
        <time>2018-07-10T09:17:42Z</time>
      </trkpt>
      <trkpt lat="45.97521" lon="4.87139">
        <ele>283</ele>
        <time>2018-07-10T09:17:43Z</time>
      </trkpt>
      <trkpt lat="45.97527" lon="4.87144">
        <ele>283</ele>
        <time>2018-07-10T09:17:44Z</time>
      </trkpt>
      <trkpt lat="45.9753" lon="4.87149">
        <ele>283</ele>
        <time>2018-07-10T09:17:45Z</time>
      </trkpt>
      <trkpt lat="45.97534" lon="4.87153">
        <ele>283</ele>
        <time>2018-07-10T09:17:46Z</time>
      </trkpt>
      <trkpt lat="45.97539" lon="4.87157">
        <ele>283</ele>
        <time>2018-07-10T09:17:47Z</time>
      </trkpt>
      <trkpt lat="45.97545" lon="4.87162">
        <ele>283</ele>
        <time>2018-07-10T09:17:48Z</time>
      </trkpt>
      <trkpt lat="45.97549" lon="4.87166">
        <ele>283</ele>
        <time>2018-07-10T09:17:49Z</time>
      </trkpt>
      <trkpt lat="45.97553" lon="4.8717">
        <ele>283</ele>
        <time>2018-07-10T09:17:50Z</time>
      </trkpt>
      <trkpt lat="45.97557" lon="4.87174">
        <ele>283</ele>
        <time>2018-07-10T09:17:51Z</time>
      </trkpt>
      <trkpt lat="45.97562" lon="4.87182">
        <ele>283</ele>
        <time>2018-07-10T09:17:53Z</time>
      </trkpt>
      <trkpt lat="45.97565" lon="4.87187">
        <ele>283</ele>
        <time>2018-07-10T09:17:54Z</time>
      </trkpt>
      <trkpt lat="45.97571" lon="4.8719">
        <ele>283</ele>
        <time>2018-07-10T09:17:55Z</time>
      </trkpt>
      <trkpt lat="45.97574" lon="4.87196">
        <ele>283</ele>
        <time>2018-07-10T09:17:56Z</time>
      </trkpt>
      <trkpt lat="45.97581" lon="4.872">
        <ele>283</ele>
        <time>2018-07-10T09:17:57Z</time>
      </trkpt>
      <trkpt lat="45.97584" lon="4.87204">
        <ele>283</ele>
        <time>2018-07-10T09:17:58Z</time>
      </trkpt>
      <trkpt lat="45.97593" lon="4.87208">
        <ele>284</ele>
        <time>2018-07-10T09:17:59Z</time>
      </trkpt>
      <trkpt lat="45.97599" lon="4.87212">
        <ele>284</ele>
        <time>2018-07-10T09:18:00Z</time>
      </trkpt>
      <trkpt lat="45.97604" lon="4.87216">
        <ele>284</ele>
        <time>2018-07-10T09:18:01Z</time>
      </trkpt>
      <trkpt lat="45.9761" lon="4.87223">
        <ele>284</ele>
        <time>2018-07-10T09:18:03Z</time>
      </trkpt>
      <trkpt lat="45.97615" lon="4.87227">
        <ele>284</ele>
        <time>2018-07-10T09:18:04Z</time>
      </trkpt>
      <trkpt lat="45.97619" lon="4.8723">
        <ele>284</ele>
        <time>2018-07-10T09:18:05Z</time>
      </trkpt>
      <trkpt lat="45.97626" lon="4.87233">
        <ele>284</ele>
        <time>2018-07-10T09:18:06Z</time>
      </trkpt>
      <trkpt lat="45.97632" lon="4.87241">
        <ele>284</ele>
        <time>2018-07-10T09:18:08Z</time>
      </trkpt>
      <trkpt lat="45.97637" lon="4.87245">
        <ele>284</ele>
        <time>2018-07-10T09:18:09Z</time>
      </trkpt>
      <trkpt lat="45.97642" lon="4.87249">
        <ele>285</ele>
        <time>2018-07-10T09:18:10Z</time>
      </trkpt>
      <trkpt lat="45.97648" lon="4.87253">
        <ele>285</ele>
        <time>2018-07-10T09:18:11Z</time>
      </trkpt>
      <trkpt lat="45.97654" lon="4.87261">
        <ele>285</ele>
        <time>2018-07-10T09:18:13Z</time>
      </trkpt>
      <trkpt lat="45.97659" lon="4.87265">
        <ele>285</ele>
        <time>2018-07-10T09:18:14Z</time>
      </trkpt>
      <trkpt lat="45.97663" lon="4.8727">
        <ele>285</ele>
        <time>2018-07-10T09:18:15Z</time>
      </trkpt>
      <trkpt lat="45.97666" lon="4.87274">
        <ele>285</ele>
        <time>2018-07-10T09:18:16Z</time>
      </trkpt>
      <trkpt lat="45.97672" lon="4.87278">
        <ele>286</ele>
        <time>2018-07-10T09:18:17Z</time>
      </trkpt>
      <trkpt lat="45.97677" lon="4.87282">
        <ele>286</ele>
        <time>2018-07-10T09:18:18Z</time>
      </trkpt>
      <trkpt lat="45.97681" lon="4.87286">
        <ele>286</ele>
        <time>2018-07-10T09:18:19Z</time>
      </trkpt>
      <trkpt lat="45.97685" lon="4.87291">
        <ele>286</ele>
        <time>2018-07-10T09:18:20Z</time>
      </trkpt>
      <trkpt lat="45.97691" lon="4.87293">
        <ele>286</ele>
        <time>2018-07-10T09:18:21Z</time>
      </trkpt>
      <trkpt lat="45.97695" lon="4.87298">
        <ele>286</ele>
        <time>2018-07-10T09:18:22Z</time>
      </trkpt>
      <trkpt lat="45.977" lon="4.87304">
        <ele>286</ele>
        <time>2018-07-10T09:18:23Z</time>
      </trkpt>
      <trkpt lat="45.97704" lon="4.8731">
        <ele>286</ele>
        <time>2018-07-10T09:18:24Z</time>
      </trkpt>
      <trkpt lat="45.97708" lon="4.87313">
        <ele>286</ele>
        <time>2018-07-10T09:18:25Z</time>
      </trkpt>
      <trkpt lat="45.97712" lon="4.87318">
        <ele>286</ele>
        <time>2018-07-10T09:18:26Z</time>
      </trkpt>
      <trkpt lat="45.97719" lon="4.87323">
        <ele>286</ele>
        <time>2018-07-10T09:18:27Z</time>
      </trkpt>
      <trkpt lat="45.97721" lon="4.87329">
        <ele>286</ele>
        <time>2018-07-10T09:18:28Z</time>
      </trkpt>
      <trkpt lat="45.97725" lon="4.87334">
        <ele>286</ele>
        <time>2018-07-10T09:18:29Z</time>
      </trkpt>
      <trkpt lat="45.9773" lon="4.87338">
        <ele>286</ele>
        <time>2018-07-10T09:18:30Z</time>
      </trkpt>
      <trkpt lat="45.97737" lon="4.87346">
        <ele>286</ele>
        <time>2018-07-10T09:18:32Z</time>
      </trkpt>
      <trkpt lat="45.97741" lon="4.8735">
        <ele>286</ele>
        <time>2018-07-10T09:18:33Z</time>
      </trkpt>
      <trkpt lat="45.97744" lon="4.87357">
        <ele>286</ele>
        <time>2018-07-10T09:18:34Z</time>
      </trkpt>
      <trkpt lat="45.97749" lon="4.87362">
        <ele>285</ele>
        <time>2018-07-10T09:18:35Z</time>
      </trkpt>
      <trkpt lat="45.97754" lon="4.87368">
        <ele>285</ele>
        <time>2018-07-10T09:18:36Z</time>
      </trkpt>
      <trkpt lat="45.97758" lon="4.87375">
        <ele>285</ele>
        <time>2018-07-10T09:18:37Z</time>
      </trkpt>
      <trkpt lat="45.97762" lon="4.87381">
        <ele>284</ele>
        <time>2018-07-10T09:18:38Z</time>
      </trkpt>
      <trkpt lat="45.97767" lon="4.87388">
        <ele>284</ele>
        <time>2018-07-10T09:18:39Z</time>
      </trkpt>
      <trkpt lat="45.9777" lon="4.87394">
        <ele>284</ele>
        <time>2018-07-10T09:18:40Z</time>
      </trkpt>
      <trkpt lat="45.97773" lon="4.87401">
        <ele>284</ele>
        <time>2018-07-10T09:18:41Z</time>
      </trkpt>
      <trkpt lat="45.9778" lon="4.87405">
        <ele>284</ele>
        <time>2018-07-10T09:18:42Z</time>
      </trkpt>
      <trkpt lat="45.97782" lon="4.8741">
        <ele>284</ele>
        <time>2018-07-10T09:18:43Z</time>
      </trkpt>
      <trkpt lat="45.97787" lon="4.87414">
        <ele>284</ele>
        <time>2018-07-10T09:18:44Z</time>
      </trkpt>
      <trkpt lat="45.97791" lon="4.87418">
        <ele>283</ele>
        <time>2018-07-10T09:18:45Z</time>
      </trkpt>
      <trkpt lat="45.97796" lon="4.87425">
        <ele>283</ele>
        <time>2018-07-10T09:18:46Z</time>
      </trkpt>
      <trkpt lat="45.978" lon="4.87431">
        <ele>283</ele>
        <time>2018-07-10T09:18:47Z</time>
      </trkpt>
      <trkpt lat="45.97804" lon="4.87436">
        <ele>283</ele>
        <time>2018-07-10T09:18:48Z</time>
      </trkpt>
      <trkpt lat="45.97809" lon="4.87441">
        <ele>282</ele>
        <time>2018-07-10T09:18:49Z</time>
      </trkpt>
      <trkpt lat="45.97814" lon="4.87448">
        <ele>282</ele>
        <time>2018-07-10T09:18:50Z</time>
      </trkpt>
      <trkpt lat="45.97818" lon="4.87452">
        <ele>282</ele>
        <time>2018-07-10T09:18:51Z</time>
      </trkpt>
      <trkpt lat="45.97824" lon="4.87458">
        <ele>282</ele>
        <time>2018-07-10T09:18:52Z</time>
      </trkpt>
      <trkpt lat="45.97829" lon="4.87463">
        <ele>282</ele>
        <time>2018-07-10T09:18:53Z</time>
      </trkpt>
      <trkpt lat="45.97833" lon="4.87469">
        <ele>281</ele>
        <time>2018-07-10T09:18:54Z</time>
      </trkpt>
      <trkpt lat="45.97839" lon="4.87473">
        <ele>281</ele>
        <time>2018-07-10T09:18:55Z</time>
      </trkpt>
      <trkpt lat="45.97845" lon="4.8748">
        <ele>281</ele>
        <time>2018-07-10T09:18:56Z</time>
      </trkpt>
      <trkpt lat="45.9785" lon="4.87485">
        <ele>281</ele>
        <time>2018-07-10T09:18:57Z</time>
      </trkpt>
      <trkpt lat="45.97856" lon="4.8749">
        <ele>281</ele>
        <time>2018-07-10T09:18:58Z</time>
      </trkpt>
      <trkpt lat="45.97861" lon="4.87495">
        <ele>281</ele>
        <time>2018-07-10T09:18:59Z</time>
      </trkpt>
      <trkpt lat="45.97868" lon="4.875">
        <ele>280</ele>
        <time>2018-07-10T09:19:00Z</time>
      </trkpt>
      <trkpt lat="45.97872" lon="4.87505">
        <ele>281</ele>
        <time>2018-07-10T09:19:01Z</time>
      </trkpt>
      <trkpt lat="45.97878" lon="4.87508">
        <ele>281</ele>
        <time>2018-07-10T09:19:02Z</time>
      </trkpt>
      <trkpt lat="45.97885" lon="4.87511">
        <ele>281</ele>
        <time>2018-07-10T09:19:03Z</time>
      </trkpt>
      <trkpt lat="45.9789" lon="4.87514">
        <ele>280</ele>
        <time>2018-07-10T09:19:04Z</time>
      </trkpt>
      <trkpt lat="45.97895" lon="4.87517">
        <ele>280</ele>
        <time>2018-07-10T09:19:05Z</time>
      </trkpt>
      <trkpt lat="45.979" lon="4.8752">
        <ele>280</ele>
        <time>2018-07-10T09:19:06Z</time>
      </trkpt>
      <trkpt lat="45.97905" lon="4.87522">
        <ele>280</ele>
        <time>2018-07-10T09:19:07Z</time>
      </trkpt>
      <trkpt lat="45.97912" lon="4.87525">
        <ele>280</ele>
        <time>2018-07-10T09:19:08Z</time>
      </trkpt>
      <trkpt lat="45.97917" lon="4.87527">
        <ele>279</ele>
        <time>2018-07-10T09:19:09Z</time>
      </trkpt>
      <trkpt lat="45.97922" lon="4.87527">
        <ele>279</ele>
        <time>2018-07-10T09:19:10Z</time>
      </trkpt>
      <trkpt lat="45.97928" lon="4.87529">
        <ele>279</ele>
        <time>2018-07-10T09:19:11Z</time>
      </trkpt>
      <trkpt lat="45.97932" lon="4.87528">
        <ele>279</ele>
        <time>2018-07-10T09:19:12Z</time>
      </trkpt>
      <trkpt lat="45.97938" lon="4.87529">
        <ele>279</ele>
        <time>2018-07-10T09:19:13Z</time>
      </trkpt>
      <trkpt lat="45.97947" lon="4.87536">
        <ele>279</ele>
        <time>2018-07-10T09:19:14Z</time>
      </trkpt>
      <trkpt lat="45.97952" lon="4.8754">
        <ele>279</ele>
        <time>2018-07-10T09:19:15Z</time>
      </trkpt>
      <trkpt lat="45.97957" lon="4.87542">
        <ele>279</ele>
        <time>2018-07-10T09:19:16Z</time>
      </trkpt>
      <trkpt lat="45.97963" lon="4.87546">
        <ele>279</ele>
        <time>2018-07-10T09:19:17Z</time>
      </trkpt>
      <trkpt lat="45.97968" lon="4.8755">
        <ele>279</ele>
        <time>2018-07-10T09:19:18Z</time>
      </trkpt>
      <trkpt lat="45.97972" lon="4.87555">
        <ele>279</ele>
        <time>2018-07-10T09:19:19Z</time>
      </trkpt>
      <trkpt lat="45.97977" lon="4.87559">
        <ele>279</ele>
        <time>2018-07-10T09:19:20Z</time>
      </trkpt>
      <trkpt lat="45.97982" lon="4.87564">
        <ele>279</ele>
        <time>2018-07-10T09:19:21Z</time>
      </trkpt>
      <trkpt lat="45.97987" lon="4.87571">
        <ele>280</ele>
        <time>2018-07-10T09:19:22Z</time>
      </trkpt>
      <trkpt lat="45.97992" lon="4.87576">
        <ele>280</ele>
        <time>2018-07-10T09:19:23Z</time>
      </trkpt>
      <trkpt lat="45.97993" lon="4.87583">
        <ele>280</ele>
        <time>2018-07-10T09:19:24Z</time>
      </trkpt>
      <trkpt lat="45.97995" lon="4.87589">
        <ele>280</ele>
        <time>2018-07-10T09:19:25Z</time>
      </trkpt>
      <trkpt lat="45.97998" lon="4.87596">
        <ele>280</ele>
        <time>2018-07-10T09:19:26Z</time>
      </trkpt>
      <trkpt lat="45.98" lon="4.87601">
        <ele>280</ele>
        <time>2018-07-10T09:19:27Z</time>
      </trkpt>
      <trkpt lat="45.98003" lon="4.87607">
        <ele>280</ele>
        <time>2018-07-10T09:19:28Z</time>
      </trkpt>
      <trkpt lat="45.98006" lon="4.87615">
        <ele>280</ele>
        <time>2018-07-10T09:19:29Z</time>
      </trkpt>
      <trkpt lat="45.98009" lon="4.87622">
        <ele>280</ele>
        <time>2018-07-10T09:19:30Z</time>
      </trkpt>
      <trkpt lat="45.98011" lon="4.87628">
        <ele>280</ele>
        <time>2018-07-10T09:19:31Z</time>
      </trkpt>
      <trkpt lat="45.98013" lon="4.87636">
        <ele>280</ele>
        <time>2018-07-10T09:19:32Z</time>
      </trkpt>
      <trkpt lat="45.98016" lon="4.87642">
        <ele>280</ele>
        <time>2018-07-10T09:19:33Z</time>
      </trkpt>
      <trkpt lat="45.98018" lon="4.8765">
        <ele>280</ele>
        <time>2018-07-10T09:19:34Z</time>
      </trkpt>
      <trkpt lat="45.9802" lon="4.87658">
        <ele>280</ele>
        <time>2018-07-10T09:19:35Z</time>
      </trkpt>
      <trkpt lat="45.98022" lon="4.87664">
        <ele>280</ele>
        <time>2018-07-10T09:19:36Z</time>
      </trkpt>
      <trkpt lat="45.98025" lon="4.87672">
        <ele>280</ele>
        <time>2018-07-10T09:19:37Z</time>
      </trkpt>
      <trkpt lat="45.98027" lon="4.8768">
        <ele>280</ele>
        <time>2018-07-10T09:19:38Z</time>
      </trkpt>
      <trkpt lat="45.9803" lon="4.87687">
        <ele>280</ele>
        <time>2018-07-10T09:19:39Z</time>
      </trkpt>
      <trkpt lat="45.98032" lon="4.87695">
        <ele>280</ele>
        <time>2018-07-10T09:19:40Z</time>
      </trkpt>
      <trkpt lat="45.98034" lon="4.87702">
        <ele>280</ele>
        <time>2018-07-10T09:19:41Z</time>
      </trkpt>
      <trkpt lat="45.98035" lon="4.8771">
        <ele>279</ele>
        <time>2018-07-10T09:19:42Z</time>
      </trkpt>
      <trkpt lat="45.98037" lon="4.87717">
        <ele>279</ele>
        <time>2018-07-10T09:19:43Z</time>
      </trkpt>
      <trkpt lat="45.98038" lon="4.87724">
        <ele>279</ele>
        <time>2018-07-10T09:19:44Z</time>
      </trkpt>
      <trkpt lat="45.98041" lon="4.87731">
        <ele>279</ele>
        <time>2018-07-10T09:19:45Z</time>
      </trkpt>
      <trkpt lat="45.98043" lon="4.87739">
        <ele>280</ele>
        <time>2018-07-10T09:19:46Z</time>
      </trkpt>
      <trkpt lat="45.98045" lon="4.87747">
        <ele>280</ele>
        <time>2018-07-10T09:19:47Z</time>
      </trkpt>
      <trkpt lat="45.98047" lon="4.87754">
        <ele>280</ele>
        <time>2018-07-10T09:19:48Z</time>
      </trkpt>
      <trkpt lat="45.98049" lon="4.87762">
        <ele>280</ele>
        <time>2018-07-10T09:19:49Z</time>
      </trkpt>
      <trkpt lat="45.98051" lon="4.87771">
        <ele>280</ele>
        <time>2018-07-10T09:19:50Z</time>
      </trkpt>
      <trkpt lat="45.98055" lon="4.87779">
        <ele>280</ele>
        <time>2018-07-10T09:19:51Z</time>
      </trkpt>
      <trkpt lat="45.98058" lon="4.87787">
        <ele>280</ele>
        <time>2018-07-10T09:19:52Z</time>
      </trkpt>
      <trkpt lat="45.98061" lon="4.87794">
        <ele>280</ele>
        <time>2018-07-10T09:19:53Z</time>
      </trkpt>
      <trkpt lat="45.98063" lon="4.87801">
        <ele>280</ele>
        <time>2018-07-10T09:19:54Z</time>
      </trkpt>
      <trkpt lat="45.98065" lon="4.87809">
        <ele>280</ele>
        <time>2018-07-10T09:19:55Z</time>
      </trkpt>
      <trkpt lat="45.98067" lon="4.87817">
        <ele>280</ele>
        <time>2018-07-10T09:19:56Z</time>
      </trkpt>
      <trkpt lat="45.9807" lon="4.87824">
        <ele>279</ele>
        <time>2018-07-10T09:19:57Z</time>
      </trkpt>
      <trkpt lat="45.98072" lon="4.87831">
        <ele>279</ele>
        <time>2018-07-10T09:19:58Z</time>
      </trkpt>
      <trkpt lat="45.98074" lon="4.87839">
        <ele>279</ele>
        <time>2018-07-10T09:19:59Z</time>
      </trkpt>
      <trkpt lat="45.98076" lon="4.87846">
        <ele>279</ele>
        <time>2018-07-10T09:20:00Z</time>
      </trkpt>
      <trkpt lat="45.98079" lon="4.87854">
        <ele>280</ele>
        <time>2018-07-10T09:20:01Z</time>
      </trkpt>
      <trkpt lat="45.98081" lon="4.87862">
        <ele>280</ele>
        <time>2018-07-10T09:20:02Z</time>
      </trkpt>
      <trkpt lat="45.98083" lon="4.8787">
        <ele>280</ele>
        <time>2018-07-10T09:20:03Z</time>
      </trkpt>
      <trkpt lat="45.98086" lon="4.87877">
        <ele>278</ele>
        <time>2018-07-10T09:20:04Z</time>
      </trkpt>
      <trkpt lat="45.98088" lon="4.87885">
        <ele>278</ele>
        <time>2018-07-10T09:20:05Z</time>
      </trkpt>
      <trkpt lat="45.98089" lon="4.87894">
        <ele>278</ele>
        <time>2018-07-10T09:20:06Z</time>
      </trkpt>
      <trkpt lat="45.98092" lon="4.87903">
        <ele>278</ele>
        <time>2018-07-10T09:20:07Z</time>
      </trkpt>
      <trkpt lat="45.98094" lon="4.87912">
        <ele>278</ele>
        <time>2018-07-10T09:20:08Z</time>
      </trkpt>
      <trkpt lat="45.98097" lon="4.87921">
        <ele>278</ele>
        <time>2018-07-10T09:20:09Z</time>
      </trkpt>
      <trkpt lat="45.98099" lon="4.87931">
        <ele>277</ele>
        <time>2018-07-10T09:20:10Z</time>
      </trkpt>
      <trkpt lat="45.98101" lon="4.87941">
        <ele>277</ele>
        <time>2018-07-10T09:20:11Z</time>
      </trkpt>
      <trkpt lat="45.98105" lon="4.8795">
        <ele>277</ele>
        <time>2018-07-10T09:20:12Z</time>
      </trkpt>
      <trkpt lat="45.98109" lon="4.87959">
        <ele>277</ele>
        <time>2018-07-10T09:20:13Z</time>
      </trkpt>
      <trkpt lat="45.98111" lon="4.87968">
        <ele>277</ele>
        <time>2018-07-10T09:20:14Z</time>
      </trkpt>
      <trkpt lat="45.98113" lon="4.87978">
        <ele>277</ele>
        <time>2018-07-10T09:20:15Z</time>
      </trkpt>
      <trkpt lat="45.98116" lon="4.87987">
        <ele>277</ele>
        <time>2018-07-10T09:20:16Z</time>
      </trkpt>
      <trkpt lat="45.98118" lon="4.87996">
        <ele>277</ele>
        <time>2018-07-10T09:20:17Z</time>
      </trkpt>
      <trkpt lat="45.98119" lon="4.88005">
        <ele>276</ele>
        <time>2018-07-10T09:20:18Z</time>
      </trkpt>
      <trkpt lat="45.98122" lon="4.88014">
        <ele>276</ele>
        <time>2018-07-10T09:20:19Z</time>
      </trkpt>
      <trkpt lat="45.98126" lon="4.88024">
        <ele>276</ele>
        <time>2018-07-10T09:20:20Z</time>
      </trkpt>
      <trkpt lat="45.98129" lon="4.88034">
        <ele>276</ele>
        <time>2018-07-10T09:20:21Z</time>
      </trkpt>
      <trkpt lat="45.98132" lon="4.88043">
        <ele>276</ele>
        <time>2018-07-10T09:20:22Z</time>
      </trkpt>
      <trkpt lat="45.98135" lon="4.88051">
        <ele>275</ele>
        <time>2018-07-10T09:20:23Z</time>
      </trkpt>
      <trkpt lat="45.98137" lon="4.8806">
        <ele>275</ele>
        <time>2018-07-10T09:20:24Z</time>
      </trkpt>
      <trkpt lat="45.9814" lon="4.88071">
        <ele>275</ele>
        <time>2018-07-10T09:20:25Z</time>
      </trkpt>
      <trkpt lat="45.98143" lon="4.8808">
        <ele>275</ele>
        <time>2018-07-10T09:20:26Z</time>
      </trkpt>
      <trkpt lat="45.98145" lon="4.88088">
        <ele>274</ele>
        <time>2018-07-10T09:20:27Z</time>
      </trkpt>
      <trkpt lat="45.98148" lon="4.88098">
        <ele>274</ele>
        <time>2018-07-10T09:20:28Z</time>
      </trkpt>
      <trkpt lat="45.98151" lon="4.88106">
        <ele>274</ele>
        <time>2018-07-10T09:20:29Z</time>
      </trkpt>
      <trkpt lat="45.98153" lon="4.88116">
        <ele>274</ele>
        <time>2018-07-10T09:20:30Z</time>
      </trkpt>
      <trkpt lat="45.98156" lon="4.88125">
        <ele>274</ele>
        <time>2018-07-10T09:20:31Z</time>
      </trkpt>
      <trkpt lat="45.98158" lon="4.88136">
        <ele>274</ele>
        <time>2018-07-10T09:20:32Z</time>
      </trkpt>
      <trkpt lat="45.98161" lon="4.88146">
        <ele>274</ele>
        <time>2018-07-10T09:20:33Z</time>
      </trkpt>
      <trkpt lat="45.98163" lon="4.88155">
        <ele>274</ele>
        <time>2018-07-10T09:20:34Z</time>
      </trkpt>
      <trkpt lat="45.98167" lon="4.88164">
        <ele>273</ele>
        <time>2018-07-10T09:20:35Z</time>
      </trkpt>
      <trkpt lat="45.98169" lon="4.88175">
        <ele>273</ele>
        <time>2018-07-10T09:20:36Z</time>
      </trkpt>
      <trkpt lat="45.98172" lon="4.88184">
        <ele>273</ele>
        <time>2018-07-10T09:20:37Z</time>
      </trkpt>
      <trkpt lat="45.98177" lon="4.88192">
        <ele>273</ele>
        <time>2018-07-10T09:20:38Z</time>
      </trkpt>
      <trkpt lat="45.98179" lon="4.88201">
        <ele>273</ele>
        <time>2018-07-10T09:20:39Z</time>
      </trkpt>
      <trkpt lat="45.98179" lon="4.88209">
        <ele>273</ele>
        <time>2018-07-10T09:20:40Z</time>
      </trkpt>
      <trkpt lat="45.98183" lon="4.88217">
        <ele>273</ele>
        <time>2018-07-10T09:20:41Z</time>
      </trkpt>
      <trkpt lat="45.98185" lon="4.88224">
        <ele>273</ele>
        <time>2018-07-10T09:20:42Z</time>
      </trkpt>
      <trkpt lat="45.98186" lon="4.88231">
        <ele>273</ele>
        <time>2018-07-10T09:20:43Z</time>
      </trkpt>
      <trkpt lat="45.98186" lon="4.88239">
        <ele>273</ele>
        <time>2018-07-10T09:20:44Z</time>
      </trkpt>
      <trkpt lat="45.98189" lon="4.88247">
        <ele>273</ele>
        <time>2018-07-10T09:20:45Z</time>
      </trkpt>
      <trkpt lat="45.98191" lon="4.88256">
        <ele>274</ele>
        <time>2018-07-10T09:20:46Z</time>
      </trkpt>
      <trkpt lat="45.98192" lon="4.88263">
        <ele>274</ele>
        <time>2018-07-10T09:20:47Z</time>
      </trkpt>
      <trkpt lat="45.98194" lon="4.8827">
        <ele>274</ele>
        <time>2018-07-10T09:20:48Z</time>
      </trkpt>
      <trkpt lat="45.98197" lon="4.88278">
        <ele>274</ele>
        <time>2018-07-10T09:20:49Z</time>
      </trkpt>
      <trkpt lat="45.98198" lon="4.88285">
        <ele>274</ele>
        <time>2018-07-10T09:20:50Z</time>
      </trkpt>
      <trkpt lat="45.98202" lon="4.88292">
        <ele>274</ele>
        <time>2018-07-10T09:20:51Z</time>
      </trkpt>
      <trkpt lat="45.98203" lon="4.88298">
        <ele>274</ele>
        <time>2018-07-10T09:20:52Z</time>
      </trkpt>
      <trkpt lat="45.98203" lon="4.88305">
        <ele>274</ele>
        <time>2018-07-10T09:20:53Z</time>
      </trkpt>
      <trkpt lat="45.98206" lon="4.88313">
        <ele>274</ele>
        <time>2018-07-10T09:20:54Z</time>
      </trkpt>
      <trkpt lat="45.98205" lon="4.8832">
        <ele>274</ele>
        <time>2018-07-10T09:20:55Z</time>
      </trkpt>
      <trkpt lat="45.98206" lon="4.88327">
        <ele>274</ele>
        <time>2018-07-10T09:20:56Z</time>
      </trkpt>
      <trkpt lat="45.98207" lon="4.88335">
        <ele>275</ele>
        <time>2018-07-10T09:20:57Z</time>
      </trkpt>
      <trkpt lat="45.98207" lon="4.88342">
        <ele>275</ele>
        <time>2018-07-10T09:20:58Z</time>
      </trkpt>
      <trkpt lat="45.98209" lon="4.88348">
        <ele>275</ele>
        <time>2018-07-10T09:20:59Z</time>
      </trkpt>
      <trkpt lat="45.98209" lon="4.88355">
        <ele>275</ele>
        <time>2018-07-10T09:21:00Z</time>
      </trkpt>
      <trkpt lat="45.9821" lon="4.88364">
        <ele>275</ele>
        <time>2018-07-10T09:21:01Z</time>
      </trkpt>
      <trkpt lat="45.98212" lon="4.88372">
        <ele>275</ele>
        <time>2018-07-10T09:21:02Z</time>
      </trkpt>
      <trkpt lat="45.98212" lon="4.8838">
        <ele>275</ele>
        <time>2018-07-10T09:21:03Z</time>
      </trkpt>
      <trkpt lat="45.98214" lon="4.88386">
        <ele>275</ele>
        <time>2018-07-10T09:21:04Z</time>
      </trkpt>
      <trkpt lat="45.98215" lon="4.88393">
        <ele>275</ele>
        <time>2018-07-10T09:21:05Z</time>
      </trkpt>
      <trkpt lat="45.98215" lon="4.88399">
        <ele>275</ele>
        <time>2018-07-10T09:21:06Z</time>
      </trkpt>
      <trkpt lat="45.98219" lon="4.88405">
        <ele>275</ele>
        <time>2018-07-10T09:21:07Z</time>
      </trkpt>
      <trkpt lat="45.98222" lon="4.88412">
        <ele>275</ele>
        <time>2018-07-10T09:21:08Z</time>
      </trkpt>
      <trkpt lat="45.98225" lon="4.88419">
        <ele>276</ele>
        <time>2018-07-10T09:21:09Z</time>
      </trkpt>
      <trkpt lat="45.98227" lon="4.88426">
        <ele>276</ele>
        <time>2018-07-10T09:21:10Z</time>
      </trkpt>
      <trkpt lat="45.9823" lon="4.88433">
        <ele>276</ele>
        <time>2018-07-10T09:21:11Z</time>
      </trkpt>
      <trkpt lat="45.98232" lon="4.88439">
        <ele>276</ele>
        <time>2018-07-10T09:21:12Z</time>
      </trkpt>
      <trkpt lat="45.98233" lon="4.88446">
        <ele>276</ele>
        <time>2018-07-10T09:21:13Z</time>
      </trkpt>
      <trkpt lat="45.98236" lon="4.88453">
        <ele>276</ele>
        <time>2018-07-10T09:21:14Z</time>
      </trkpt>
      <trkpt lat="45.98238" lon="4.8846">
        <ele>276</ele>
        <time>2018-07-10T09:21:15Z</time>
      </trkpt>
      <trkpt lat="45.98239" lon="4.88467">
        <ele>276</ele>
        <time>2018-07-10T09:21:16Z</time>
      </trkpt>
      <trkpt lat="45.98237" lon="4.88474">
        <ele>276</ele>
        <time>2018-07-10T09:21:17Z</time>
      </trkpt>
      <trkpt lat="45.98238" lon="4.88481">
        <ele>276</ele>
        <time>2018-07-10T09:21:18Z</time>
      </trkpt>
      <trkpt lat="45.9824" lon="4.88489">
        <ele>276</ele>
        <time>2018-07-10T09:21:19Z</time>
      </trkpt>
      <trkpt lat="45.98242" lon="4.88497">
        <ele>277</ele>
        <time>2018-07-10T09:21:20Z</time>
      </trkpt>
      <trkpt lat="45.98243" lon="4.88504">
        <ele>277</ele>
        <time>2018-07-10T09:21:21Z</time>
      </trkpt>
      <trkpt lat="45.98245" lon="4.88512">
        <ele>276</ele>
        <time>2018-07-10T09:21:22Z</time>
      </trkpt>
      <trkpt lat="45.98246" lon="4.88519">
        <ele>276</ele>
        <time>2018-07-10T09:21:23Z</time>
      </trkpt>
      <trkpt lat="45.98248" lon="4.88526">
        <ele>276</ele>
        <time>2018-07-10T09:21:24Z</time>
      </trkpt>
      <trkpt lat="45.98249" lon="4.88533">
        <ele>276</ele>
        <time>2018-07-10T09:21:25Z</time>
      </trkpt>
      <trkpt lat="45.98251" lon="4.8854">
        <ele>276</ele>
        <time>2018-07-10T09:21:26Z</time>
      </trkpt>
      <trkpt lat="45.98253" lon="4.88547">
        <ele>276</ele>
        <time>2018-07-10T09:21:27Z</time>
      </trkpt>
      <trkpt lat="45.98255" lon="4.88553">
        <ele>276</ele>
        <time>2018-07-10T09:21:28Z</time>
      </trkpt>
      <trkpt lat="45.98257" lon="4.88562">
        <ele>276</ele>
        <time>2018-07-10T09:21:29Z</time>
      </trkpt>
      <trkpt lat="45.98259" lon="4.88568">
        <ele>276</ele>
        <time>2018-07-10T09:21:30Z</time>
      </trkpt>
      <trkpt lat="45.9826" lon="4.88576">
        <ele>276</ele>
        <time>2018-07-10T09:21:31Z</time>
      </trkpt>
      <trkpt lat="45.98261" lon="4.88582">
        <ele>276</ele>
        <time>2018-07-10T09:21:32Z</time>
      </trkpt>
      <trkpt lat="45.98263" lon="4.88589">
        <ele>275</ele>
        <time>2018-07-10T09:21:33Z</time>
      </trkpt>
      <trkpt lat="45.98264" lon="4.88597">
        <ele>275</ele>
        <time>2018-07-10T09:21:34Z</time>
      </trkpt>
      <trkpt lat="45.98265" lon="4.88604">
        <ele>275</ele>
        <time>2018-07-10T09:21:35Z</time>
      </trkpt>
      <trkpt lat="45.98266" lon="4.88612">
        <ele>276</ele>
        <time>2018-07-10T09:21:36Z</time>
      </trkpt>
      <trkpt lat="45.98267" lon="4.8862">
        <ele>276</ele>
        <time>2018-07-10T09:21:37Z</time>
      </trkpt>
      <trkpt lat="45.98269" lon="4.88626">
        <ele>276</ele>
        <time>2018-07-10T09:21:38Z</time>
      </trkpt>
      <trkpt lat="45.98271" lon="4.88634">
        <ele>276</ele>
        <time>2018-07-10T09:21:39Z</time>
      </trkpt>
      <trkpt lat="45.98273" lon="4.88641">
        <ele>276</ele>
        <time>2018-07-10T09:21:40Z</time>
      </trkpt>
      <trkpt lat="45.98274" lon="4.88649">
        <ele>276</ele>
        <time>2018-07-10T09:21:41Z</time>
      </trkpt>
      <trkpt lat="45.98276" lon="4.88657">
        <ele>276</ele>
        <time>2018-07-10T09:21:42Z</time>
      </trkpt>
      <trkpt lat="45.98278" lon="4.88664">
        <ele>276</ele>
        <time>2018-07-10T09:21:43Z</time>
      </trkpt>
      <trkpt lat="45.9828" lon="4.88669">
        <ele>276</ele>
        <time>2018-07-10T09:21:44Z</time>
      </trkpt>
      <trkpt lat="45.98282" lon="4.88681">
        <ele>276</ele>
        <time>2018-07-10T09:21:46Z</time>
      </trkpt>
      <trkpt lat="45.98284" lon="4.88688">
        <ele>276</ele>
        <time>2018-07-10T09:21:47Z</time>
      </trkpt>
      <trkpt lat="45.98285" lon="4.88696">
        <ele>276</ele>
        <time>2018-07-10T09:21:48Z</time>
      </trkpt>
      <trkpt lat="45.98286" lon="4.88703">
        <ele>276</ele>
        <time>2018-07-10T09:21:49Z</time>
      </trkpt>
      <trkpt lat="45.98287" lon="4.88709">
        <ele>276</ele>
        <time>2018-07-10T09:21:50Z</time>
      </trkpt>
      <trkpt lat="45.9829" lon="4.88716">
        <ele>276</ele>
        <time>2018-07-10T09:21:51Z</time>
      </trkpt>
      <trkpt lat="45.98294" lon="4.88722">
        <ele>276</ele>
        <time>2018-07-10T09:21:52Z</time>
      </trkpt>
      <trkpt lat="45.98296" lon="4.88729">
        <ele>276</ele>
        <time>2018-07-10T09:21:53Z</time>
      </trkpt>
      <trkpt lat="45.98298" lon="4.88741">
        <ele>276</ele>
        <time>2018-07-10T09:21:55Z</time>
      </trkpt>
      <trkpt lat="45.983" lon="4.88748">
        <ele>276</ele>
        <time>2018-07-10T09:21:56Z</time>
      </trkpt>
      <trkpt lat="45.98301" lon="4.88756">
        <ele>276</ele>
        <time>2018-07-10T09:21:57Z</time>
      </trkpt>
      <trkpt lat="45.98303" lon="4.88762">
        <ele>277</ele>
        <time>2018-07-10T09:21:58Z</time>
      </trkpt>
      <trkpt lat="45.98307" lon="4.88769">
        <ele>277</ele>
        <time>2018-07-10T09:21:59Z</time>
      </trkpt>
      <trkpt lat="45.98309" lon="4.88775">
        <ele>277</ele>
        <time>2018-07-10T09:22:00Z</time>
      </trkpt>
      <trkpt lat="45.98311" lon="4.88783">
        <ele>277</ele>
        <time>2018-07-10T09:22:01Z</time>
      </trkpt>
      <trkpt lat="45.98313" lon="4.8879">
        <ele>277</ele>
        <time>2018-07-10T09:22:02Z</time>
      </trkpt>
      <trkpt lat="45.98316" lon="4.88796">
        <ele>277</ele>
        <time>2018-07-10T09:22:03Z</time>
      </trkpt>
      <trkpt lat="45.98317" lon="4.88804">
        <ele>277</ele>
        <time>2018-07-10T09:22:04Z</time>
      </trkpt>
      <trkpt lat="45.98319" lon="4.88811">
        <ele>277</ele>
        <time>2018-07-10T09:22:05Z</time>
      </trkpt>
      <trkpt lat="45.98321" lon="4.88818">
        <ele>277</ele>
        <time>2018-07-10T09:22:06Z</time>
      </trkpt>
      <trkpt lat="45.98323" lon="4.88825">
        <ele>277</ele>
        <time>2018-07-10T09:22:07Z</time>
      </trkpt>
      <trkpt lat="45.98324" lon="4.88831">
        <ele>278</ele>
        <time>2018-07-10T09:22:08Z</time>
      </trkpt>
      <trkpt lat="45.98326" lon="4.88838">
        <ele>278</ele>
        <time>2018-07-10T09:22:09Z</time>
      </trkpt>
      <trkpt lat="45.98327" lon="4.88844">
        <ele>278</ele>
        <time>2018-07-10T09:22:10Z</time>
      </trkpt>
      <trkpt lat="45.98329" lon="4.8885">
        <ele>278</ele>
        <time>2018-07-10T09:22:11Z</time>
      </trkpt>
      <trkpt lat="45.98331" lon="4.88858">
        <ele>278</ele>
        <time>2018-07-10T09:22:12Z</time>
      </trkpt>
      <trkpt lat="45.98332" lon="4.88864">
        <ele>278</ele>
        <time>2018-07-10T09:22:13Z</time>
      </trkpt>
      <trkpt lat="45.98332" lon="4.88871">
        <ele>278</ele>
        <time>2018-07-10T09:22:14Z</time>
      </trkpt>
      <trkpt lat="45.98334" lon="4.88878">
        <ele>280</ele>
        <time>2018-07-10T09:22:15Z</time>
      </trkpt>
      <trkpt lat="45.98336" lon="4.88885">
        <ele>280</ele>
        <time>2018-07-10T09:22:16Z</time>
      </trkpt>
      <trkpt lat="45.98337" lon="4.88892">
        <ele>280</ele>
        <time>2018-07-10T09:22:17Z</time>
      </trkpt>
      <trkpt lat="45.98339" lon="4.88898">
        <ele>280</ele>
        <time>2018-07-10T09:22:18Z</time>
      </trkpt>
      <trkpt lat="45.9834" lon="4.88905">
        <ele>280</ele>
        <time>2018-07-10T09:22:19Z</time>
      </trkpt>
      <trkpt lat="45.98341" lon="4.88912">
        <ele>280</ele>
        <time>2018-07-10T09:22:20Z</time>
      </trkpt>
      <trkpt lat="45.98343" lon="4.88919">
        <ele>280</ele>
        <time>2018-07-10T09:22:21Z</time>
      </trkpt>
      <trkpt lat="45.98344" lon="4.88926">
        <ele>281</ele>
        <time>2018-07-10T09:22:22Z</time>
      </trkpt>
      <trkpt lat="45.98346" lon="4.88932">
        <ele>281</ele>
        <time>2018-07-10T09:22:23Z</time>
      </trkpt>
      <trkpt lat="45.98347" lon="4.88939">
        <ele>281</ele>
        <time>2018-07-10T09:22:24Z</time>
      </trkpt>
      <trkpt lat="45.98349" lon="4.88944">
        <ele>282</ele>
        <time>2018-07-10T09:22:25Z</time>
      </trkpt>
      <trkpt lat="45.98352" lon="4.88951">
        <ele>282</ele>
        <time>2018-07-10T09:22:26Z</time>
      </trkpt>
      <trkpt lat="45.98352" lon="4.88958">
        <ele>282</ele>
        <time>2018-07-10T09:22:27Z</time>
      </trkpt>
      <trkpt lat="45.98353" lon="4.88965">
        <ele>282</ele>
        <time>2018-07-10T09:22:28Z</time>
      </trkpt>
      <trkpt lat="45.98354" lon="4.88971">
        <ele>282</ele>
        <time>2018-07-10T09:22:29Z</time>
      </trkpt>
      <trkpt lat="45.98356" lon="4.88978">
        <ele>282</ele>
        <time>2018-07-10T09:22:30Z</time>
      </trkpt>
      <trkpt lat="45.98358" lon="4.8899">
        <ele>282</ele>
        <time>2018-07-10T09:22:32Z</time>
      </trkpt>
      <trkpt lat="45.9836" lon="4.88996">
        <ele>282</ele>
        <time>2018-07-10T09:22:33Z</time>
      </trkpt>
      <trkpt lat="45.98364" lon="4.89002">
        <ele>283</ele>
        <time>2018-07-10T09:22:34Z</time>
      </trkpt>
      <trkpt lat="45.98365" lon="4.89008">
        <ele>283</ele>
        <time>2018-07-10T09:22:35Z</time>
      </trkpt>
      <trkpt lat="45.98367" lon="4.89019">
        <ele>283</ele>
        <time>2018-07-10T09:22:37Z</time>
      </trkpt>
      <trkpt lat="45.98368" lon="4.89026">
        <ele>284</ele>
        <time>2018-07-10T09:22:38Z</time>
      </trkpt>
      <trkpt lat="45.98369" lon="4.89032">
        <ele>284</ele>
        <time>2018-07-10T09:22:39Z</time>
      </trkpt>
      <trkpt lat="45.9837" lon="4.89039">
        <ele>284</ele>
        <time>2018-07-10T09:22:40Z</time>
      </trkpt>
      <trkpt lat="45.98373" lon="4.89049">
        <ele>284</ele>
        <time>2018-07-10T09:22:42Z</time>
      </trkpt>
      <trkpt lat="45.98373" lon="4.89055">
        <ele>284</ele>
        <time>2018-07-10T09:22:43Z</time>
      </trkpt>
      <trkpt lat="45.98376" lon="4.89065">
        <ele>284</ele>
        <time>2018-07-10T09:22:45Z</time>
      </trkpt>
      <trkpt lat="45.98379" lon="4.89068">
        <ele>284</ele>
        <time>2018-07-10T09:22:46Z</time>
      </trkpt>
      <trkpt lat="45.98382" lon="4.89078">
        <ele>285</ele>
        <time>2018-07-10T09:22:48Z</time>
      </trkpt>
      <trkpt lat="45.98384" lon="4.89083">
        <ele>285</ele>
        <time>2018-07-10T09:22:49Z</time>
      </trkpt>
      <trkpt lat="45.98388" lon="4.89092">
        <ele>285</ele>
        <time>2018-07-10T09:22:51Z</time>
      </trkpt>
      <trkpt lat="45.98389" lon="4.89094">
        <ele>285</ele>
        <time>2018-07-10T09:22:52Z</time>
      </trkpt>
      <trkpt lat="45.98393" lon="4.89105">
        <ele>285</ele>
        <time>2018-07-10T09:22:58Z</time>
      </trkpt>
      <trkpt lat="45.98393" lon="4.89106">
        <ele>285</ele>
        <time>2018-07-10T09:22:59Z</time>
      </trkpt>
      <trkpt lat="45.984" lon="4.89113">
        <ele>285</ele>
        <time>2018-07-10T09:23:43Z</time>
      </trkpt>
      <trkpt lat="45.98401" lon="4.89115">
        <ele>285</ele>
        <time>2018-07-10T09:23:44Z</time>
      </trkpt>
      <trkpt lat="45.98405" lon="4.89122">
        <ele>285</ele>
        <time>2018-07-10T09:23:48Z</time>
      </trkpt>
      <trkpt lat="45.98407" lon="4.89125">
        <ele>285</ele>
        <time>2018-07-10T09:23:49Z</time>
      </trkpt>
      <trkpt lat="45.98412" lon="4.89133">
        <ele>285</ele>
        <time>2018-07-10T09:23:52Z</time>
      </trkpt>
      <trkpt lat="45.98414" lon="4.89136">
        <ele>285</ele>
        <time>2018-07-10T09:23:53Z</time>
      </trkpt>
      <trkpt lat="45.98419" lon="4.89143">
        <ele>288</ele>
        <time>2018-07-10T09:23:55Z</time>
      </trkpt>
      <trkpt lat="45.98421" lon="4.89146">
        <ele>288</ele>
        <time>2018-07-10T09:23:56Z</time>
      </trkpt>
      <trkpt lat="45.98424" lon="4.89153">
        <ele>288</ele>
        <time>2018-07-10T09:23:58Z</time>
      </trkpt>
      <trkpt lat="45.9843" lon="4.89164">
        <ele>288</ele>
        <time>2018-07-10T09:23:59Z</time>
      </trkpt>
      <trkpt lat="45.98436" lon="4.89172">
        <ele>288</ele>
        <time>2018-07-10T09:24:01Z</time>
      </trkpt>
      <trkpt lat="45.98439" lon="4.89177">
        <ele>288</ele>
        <time>2018-07-10T09:24:02Z</time>
      </trkpt>
      <trkpt lat="45.98443" lon="4.89186">
        <ele>288</ele>
        <time>2018-07-10T09:24:04Z</time>
      </trkpt>
      <trkpt lat="45.98445" lon="4.89191">
        <ele>288</ele>
        <time>2018-07-10T09:24:05Z</time>
      </trkpt>
      <trkpt lat="45.98449" lon="4.89202">
        <ele>289</ele>
        <time>2018-07-10T09:24:07Z</time>
      </trkpt>
      <trkpt lat="45.98452" lon="4.89206">
        <ele>289</ele>
        <time>2018-07-10T09:24:08Z</time>
      </trkpt>
      <trkpt lat="45.98457" lon="4.89216">
        <ele>289</ele>
        <time>2018-07-10T09:24:10Z</time>
      </trkpt>
      <trkpt lat="45.98458" lon="4.89218">
        <ele>289</ele>
        <time>2018-07-10T09:24:11Z</time>
      </trkpt>
      <trkpt lat="45.9846" lon="4.89227">
        <ele>289</ele>
        <time>2018-07-10T09:24:14Z</time>
      </trkpt>
      <trkpt lat="45.98464" lon="4.89237">
        <ele>289</ele>
        <time>2018-07-10T09:24:15Z</time>
      </trkpt>
      <trkpt lat="45.98468" lon="4.89247">
        <ele>289</ele>
        <time>2018-07-10T09:24:18Z</time>
      </trkpt>
      <trkpt lat="45.98469" lon="4.8925">
        <ele>289</ele>
        <time>2018-07-10T09:24:19Z</time>
      </trkpt>
      <trkpt lat="45.98472" lon="4.89257">
        <ele>291</ele>
        <time>2018-07-10T09:24:21Z</time>
      </trkpt>
      <trkpt lat="45.98477" lon="4.89268">
        <ele>292</ele>
        <time>2018-07-10T09:24:22Z</time>
      </trkpt>
      <trkpt lat="45.98482" lon="4.89274">
        <ele>292</ele>
        <time>2018-07-10T09:24:24Z</time>
      </trkpt>
      <trkpt lat="45.98484" lon="4.89276">
        <ele>292</ele>
        <time>2018-07-10T09:24:25Z</time>
      </trkpt>
      <trkpt lat="45.9849" lon="4.89282">
        <ele>292</ele>
        <time>2018-07-10T09:24:26Z</time>
      </trkpt>
      <trkpt lat="45.98493" lon="4.89286">
        <ele>292</ele>
        <time>2018-07-10T09:24:27Z</time>
      </trkpt>
      <trkpt lat="45.98497" lon="4.89291">
        <ele>293</ele>
        <time>2018-07-10T09:24:29Z</time>
      </trkpt>
      <trkpt lat="45.98501" lon="4.89298">
        <ele>293</ele>
        <time>2018-07-10T09:24:30Z</time>
      </trkpt>
      <trkpt lat="45.98506" lon="4.89307">
        <ele>293</ele>
        <time>2018-07-10T09:24:32Z</time>
      </trkpt>
      <trkpt lat="45.9851" lon="4.89311">
        <ele>293</ele>
        <time>2018-07-10T09:24:33Z</time>
      </trkpt>
      <trkpt lat="45.98516" lon="4.8932">
        <ele>294</ele>
        <time>2018-07-10T09:24:35Z</time>
      </trkpt>
      <trkpt lat="45.98522" lon="4.89326">
        <ele>294</ele>
        <time>2018-07-10T09:24:36Z</time>
      </trkpt>
      <trkpt lat="45.98524" lon="4.89328">
        <ele>293</ele>
        <time>2018-07-10T09:24:37Z</time>
      </trkpt>
      <trkpt lat="45.98529" lon="4.89334">
        <ele>295</ele>
        <time>2018-07-10T09:24:38Z</time>
      </trkpt>
      <trkpt lat="45.98534" lon="4.8934">
        <ele>295</ele>
        <time>2018-07-10T09:24:41Z</time>
      </trkpt>
      <trkpt lat="45.98536" lon="4.89343">
        <ele>295</ele>
        <time>2018-07-10T09:24:42Z</time>
      </trkpt>
      <trkpt lat="45.98542" lon="4.8935">
        <ele>295</ele>
        <time>2018-07-10T09:24:43Z</time>
      </trkpt>
      <trkpt lat="45.98545" lon="4.89355">
        <ele>295</ele>
        <time>2018-07-10T09:24:44Z</time>
      </trkpt>
      <trkpt lat="45.98551" lon="4.89364">
        <ele>295</ele>
        <time>2018-07-10T09:24:46Z</time>
      </trkpt>
      <trkpt lat="45.98558" lon="4.89368">
        <ele>295</ele>
        <time>2018-07-10T09:24:47Z</time>
      </trkpt>
      <trkpt lat="45.98561" lon="4.89372">
        <ele>295</ele>
        <time>2018-07-10T09:24:48Z</time>
      </trkpt>
      <trkpt lat="45.98566" lon="4.89375">
        <ele>295</ele>
        <time>2018-07-10T09:24:49Z</time>
      </trkpt>
      <trkpt lat="45.98569" lon="4.8938">
        <ele>295</ele>
        <time>2018-07-10T09:24:50Z</time>
      </trkpt>
      <trkpt lat="45.98573" lon="4.89384">
        <ele>295</ele>
        <time>2018-07-10T09:24:51Z</time>
      </trkpt>
      <trkpt lat="45.98579" lon="4.89388">
        <ele>295</ele>
        <time>2018-07-10T09:24:52Z</time>
      </trkpt>
      <trkpt lat="45.98584" lon="4.89393">
        <ele>292</ele>
        <time>2018-07-10T09:24:53Z</time>
      </trkpt>
      <trkpt lat="45.98591" lon="4.89395">
        <ele>292</ele>
        <time>2018-07-10T09:24:54Z</time>
      </trkpt>
      <trkpt lat="45.98595" lon="4.89399">
        <ele>292</ele>
        <time>2018-07-10T09:24:55Z</time>
      </trkpt>
      <trkpt lat="45.986" lon="4.89403">
        <ele>292</ele>
        <time>2018-07-10T09:24:56Z</time>
      </trkpt>
      <trkpt lat="45.98604" lon="4.89407">
        <ele>292</ele>
        <time>2018-07-10T09:24:57Z</time>
      </trkpt>
      <trkpt lat="45.98611" lon="4.89414">
        <ele>291</ele>
        <time>2018-07-10T09:24:59Z</time>
      </trkpt>
      <trkpt lat="45.98613" lon="4.89418">
        <ele>292</ele>
        <time>2018-07-10T09:25:00Z</time>
      </trkpt>
      <trkpt lat="45.98619" lon="4.89426">
        <ele>291</ele>
        <time>2018-07-10T09:25:02Z</time>
      </trkpt>
      <trkpt lat="45.98623" lon="4.8943">
        <ele>291</ele>
        <time>2018-07-10T09:25:03Z</time>
      </trkpt>
      <trkpt lat="45.98627" lon="4.89436">
        <ele>291</ele>
        <time>2018-07-10T09:25:04Z</time>
      </trkpt>
      <trkpt lat="45.9863" lon="4.89441">
        <ele>291</ele>
        <time>2018-07-10T09:25:05Z</time>
      </trkpt>
      <trkpt lat="45.98633" lon="4.89446">
        <ele>291</ele>
        <time>2018-07-10T09:25:06Z</time>
      </trkpt>
      <trkpt lat="45.98637" lon="4.8945">
        <ele>291</ele>
        <time>2018-07-10T09:25:07Z</time>
      </trkpt>
      <trkpt lat="45.98642" lon="4.89454">
        <ele>291</ele>
        <time>2018-07-10T09:25:08Z</time>
      </trkpt>
      <trkpt lat="45.98646" lon="4.8946">
        <ele>291</ele>
        <time>2018-07-10T09:25:09Z</time>
      </trkpt>
      <trkpt lat="45.98652" lon="4.89468">
        <ele>290</ele>
        <time>2018-07-10T09:25:11Z</time>
      </trkpt>
      <trkpt lat="45.98655" lon="4.89473">
        <ele>290</ele>
        <time>2018-07-10T09:25:12Z</time>
      </trkpt>
      <trkpt lat="45.98661" lon="4.8948">
        <ele>290</ele>
        <time>2018-07-10T09:25:14Z</time>
      </trkpt>
      <trkpt lat="45.98664" lon="4.89485">
        <ele>290</ele>
        <time>2018-07-10T09:25:15Z</time>
      </trkpt>
      <trkpt lat="45.98667" lon="4.8949">
        <ele>290</ele>
        <time>2018-07-10T09:25:16Z</time>
      </trkpt>
      <trkpt lat="45.98672" lon="4.89494">
        <ele>289</ele>
        <time>2018-07-10T09:25:17Z</time>
      </trkpt>
      <trkpt lat="45.98675" lon="4.89498">
        <ele>289</ele>
        <time>2018-07-10T09:25:18Z</time>
      </trkpt>
      <trkpt lat="45.98679" lon="4.89502">
        <ele>289</ele>
        <time>2018-07-10T09:25:19Z</time>
      </trkpt>
      <trkpt lat="45.98681" lon="4.89507">
        <ele>289</ele>
        <time>2018-07-10T09:25:20Z</time>
      </trkpt>
      <trkpt lat="45.98684" lon="4.89513">
        <ele>289</ele>
        <time>2018-07-10T09:25:21Z</time>
      </trkpt>
      <trkpt lat="45.98688" lon="4.89518">
        <ele>289</ele>
        <time>2018-07-10T09:25:22Z</time>
      </trkpt>
      <trkpt lat="45.98692" lon="4.89523">
        <ele>289</ele>
        <time>2018-07-10T09:25:23Z</time>
      </trkpt>
      <trkpt lat="45.98696" lon="4.89527">
        <ele>289</ele>
        <time>2018-07-10T09:25:24Z</time>
      </trkpt>
      <trkpt lat="45.987" lon="4.89532">
        <ele>289</ele>
        <time>2018-07-10T09:25:25Z</time>
      </trkpt>
      <trkpt lat="45.98704" lon="4.89537">
        <ele>289</ele>
        <time>2018-07-10T09:25:26Z</time>
      </trkpt>
      <trkpt lat="45.98707" lon="4.89543">
        <ele>289</ele>
        <time>2018-07-10T09:25:27Z</time>
      </trkpt>
      <trkpt lat="45.98712" lon="4.89547">
        <ele>290</ele>
        <time>2018-07-10T09:25:28Z</time>
      </trkpt>
      <trkpt lat="45.98715" lon="4.89553">
        <ele>290</ele>
        <time>2018-07-10T09:25:29Z</time>
      </trkpt>
      <trkpt lat="45.98717" lon="4.8956">
        <ele>290</ele>
        <time>2018-07-10T09:25:30Z</time>
      </trkpt>
      <trkpt lat="45.9872" lon="4.89565">
        <ele>290</ele>
        <time>2018-07-10T09:25:31Z</time>
      </trkpt>
      <trkpt lat="45.98725" lon="4.89568">
        <ele>290</ele>
        <time>2018-07-10T09:25:32Z</time>
      </trkpt>
      <trkpt lat="45.98728" lon="4.89573">
        <ele>290</ele>
        <time>2018-07-10T09:25:33Z</time>
      </trkpt>
      <trkpt lat="45.98733" lon="4.89577">
        <ele>290</ele>
        <time>2018-07-10T09:25:34Z</time>
      </trkpt>
      <trkpt lat="45.98735" lon="4.89583">
        <ele>290</ele>
        <time>2018-07-10T09:25:35Z</time>
      </trkpt>
      <trkpt lat="45.9874" lon="4.89593">
        <ele>291</ele>
        <time>2018-07-10T09:25:37Z</time>
      </trkpt>
      <trkpt lat="45.98744" lon="4.89597">
        <ele>291</ele>
        <time>2018-07-10T09:25:38Z</time>
      </trkpt>
      <trkpt lat="45.9875" lon="4.89601">
        <ele>290</ele>
        <time>2018-07-10T09:25:39Z</time>
      </trkpt>
      <trkpt lat="45.98753" lon="4.89605">
        <ele>291</ele>
        <time>2018-07-10T09:25:40Z</time>
      </trkpt>
      <trkpt lat="45.98754" lon="4.89611">
        <ele>291</ele>
        <time>2018-07-10T09:25:41Z</time>
      </trkpt>
      <trkpt lat="45.98757" lon="4.89617">
        <ele>291</ele>
        <time>2018-07-10T09:25:42Z</time>
      </trkpt>
      <trkpt lat="45.9876" lon="4.89622">
        <ele>291</ele>
        <time>2018-07-10T09:25:43Z</time>
      </trkpt>
      <trkpt lat="45.98764" lon="4.89627">
        <ele>291</ele>
        <time>2018-07-10T09:25:44Z</time>
      </trkpt>
      <trkpt lat="45.98769" lon="4.89637">
        <ele>291</ele>
        <time>2018-07-10T09:25:46Z</time>
      </trkpt>
      <trkpt lat="45.98772" lon="4.89642">
        <ele>291</ele>
        <time>2018-07-10T09:25:47Z</time>
      </trkpt>
      <trkpt lat="45.98776" lon="4.89646">
        <ele>291</ele>
        <time>2018-07-10T09:25:48Z</time>
      </trkpt>
      <trkpt lat="45.98783" lon="4.89648">
        <ele>291</ele>
        <time>2018-07-10T09:25:49Z</time>
      </trkpt>
      <trkpt lat="45.98787" lon="4.89653">
        <ele>291</ele>
        <time>2018-07-10T09:25:50Z</time>
      </trkpt>
      <trkpt lat="45.98791" lon="4.89656">
        <ele>291</ele>
        <time>2018-07-10T09:25:51Z</time>
      </trkpt>
      <trkpt lat="45.98797" lon="4.89664">
        <ele>291</ele>
        <time>2018-07-10T09:25:53Z</time>
      </trkpt>
      <trkpt lat="45.98802" lon="4.89667">
        <ele>291</ele>
        <time>2018-07-10T09:25:54Z</time>
      </trkpt>
      <trkpt lat="45.98809" lon="4.89675">
        <ele>292</ele>
        <time>2018-07-10T09:25:56Z</time>
      </trkpt>
      <trkpt lat="45.98813" lon="4.89678">
        <ele>292</ele>
        <time>2018-07-10T09:25:57Z</time>
      </trkpt>
      <trkpt lat="45.98819" lon="4.89685">
        <ele>292</ele>
        <time>2018-07-10T09:25:59Z</time>
      </trkpt>
      <trkpt lat="45.98823" lon="4.89689">
        <ele>292</ele>
        <time>2018-07-10T09:26:00Z</time>
      </trkpt>
      <trkpt lat="45.98829" lon="4.89697">
        <ele>292</ele>
        <time>2018-07-10T09:26:02Z</time>
      </trkpt>
      <trkpt lat="45.98833" lon="4.89701">
        <ele>292</ele>
        <time>2018-07-10T09:26:03Z</time>
      </trkpt>
      <trkpt lat="45.9884" lon="4.89708">
        <ele>292</ele>
        <time>2018-07-10T09:26:05Z</time>
      </trkpt>
      <trkpt lat="45.98843" lon="4.89711">
        <ele>293</ele>
        <time>2018-07-10T09:26:06Z</time>
      </trkpt>
      <trkpt lat="45.9885" lon="4.89717">
        <ele>293</ele>
        <time>2018-07-10T09:26:08Z</time>
      </trkpt>
      <trkpt lat="45.98854" lon="4.8972">
        <ele>293</ele>
        <time>2018-07-10T09:26:09Z</time>
      </trkpt>
      <trkpt lat="45.9886" lon="4.89727">
        <ele>293</ele>
        <time>2018-07-10T09:26:11Z</time>
      </trkpt>
      <trkpt lat="45.98864" lon="4.89731">
        <ele>293</ele>
        <time>2018-07-10T09:26:12Z</time>
      </trkpt>
      <trkpt lat="45.9887" lon="4.89737">
        <ele>293</ele>
        <time>2018-07-10T09:26:14Z</time>
      </trkpt>
      <trkpt lat="45.98874" lon="4.8974">
        <ele>293</ele>
        <time>2018-07-10T09:26:15Z</time>
      </trkpt>
      <trkpt lat="45.98879" lon="4.89745">
        <ele>293</ele>
        <time>2018-07-10T09:26:17Z</time>
      </trkpt>
      <trkpt lat="45.98882" lon="4.89748">
        <ele>293</ele>
        <time>2018-07-10T09:26:18Z</time>
      </trkpt>
      <trkpt lat="45.98887" lon="4.89754">
        <ele>293</ele>
        <time>2018-07-10T09:26:20Z</time>
      </trkpt>
      <trkpt lat="45.9889" lon="4.89757">
        <ele>293</ele>
        <time>2018-07-10T09:26:21Z</time>
      </trkpt>
      <trkpt lat="45.98894" lon="4.89759">
        <ele>293</ele>
        <time>2018-07-10T09:26:22Z</time>
      </trkpt>
      <trkpt lat="45.989" lon="4.89759">
        <ele>293</ele>
        <time>2018-07-10T09:26:23Z</time>
      </trkpt>
      <trkpt lat="45.98908" lon="4.89765">
        <ele>293</ele>
        <time>2018-07-10T09:26:25Z</time>
      </trkpt>
      <trkpt lat="45.98912" lon="4.89767">
        <ele>293</ele>
        <time>2018-07-10T09:26:26Z</time>
      </trkpt>
      <trkpt lat="45.98919" lon="4.89773">
        <ele>293</ele>
        <time>2018-07-10T09:26:28Z</time>
      </trkpt>
      <trkpt lat="45.98922" lon="4.89776">
        <ele>293</ele>
        <time>2018-07-10T09:26:29Z</time>
      </trkpt>
      <trkpt lat="45.98928" lon="4.89779">
        <ele>293</ele>
        <time>2018-07-10T09:26:30Z</time>
      </trkpt>
      <trkpt lat="45.98933" lon="4.89781">
        <ele>293</ele>
        <time>2018-07-10T09:26:31Z</time>
      </trkpt>
      <trkpt lat="45.98937" lon="4.89785">
        <ele>293</ele>
        <time>2018-07-10T09:26:32Z</time>
      </trkpt>
      <trkpt lat="45.98941" lon="4.89788">
        <ele>293</ele>
        <time>2018-07-10T09:26:33Z</time>
      </trkpt>
      <trkpt lat="45.9895" lon="4.89789">
        <ele>293</ele>
        <time>2018-07-10T09:26:34Z</time>
      </trkpt>
      <trkpt lat="45.98953" lon="4.89792">
        <ele>293</ele>
        <time>2018-07-10T09:26:35Z</time>
      </trkpt>
      <trkpt lat="45.98958" lon="4.89795">
        <ele>293</ele>
        <time>2018-07-10T09:26:36Z</time>
      </trkpt>
      <trkpt lat="45.98962" lon="4.89799">
        <ele>293</ele>
        <time>2018-07-10T09:26:37Z</time>
      </trkpt>
      <trkpt lat="45.98966" lon="4.89803">
        <ele>293</ele>
        <time>2018-07-10T09:26:38Z</time>
      </trkpt>
      <trkpt lat="45.9897" lon="4.89807">
        <ele>293</ele>
        <time>2018-07-10T09:26:39Z</time>
      </trkpt>
      <trkpt lat="45.98974" lon="4.89811">
        <ele>293</ele>
        <time>2018-07-10T09:26:40Z</time>
      </trkpt>
      <trkpt lat="45.9898" lon="4.89815">
        <ele>293</ele>
        <time>2018-07-10T09:26:41Z</time>
      </trkpt>
      <trkpt lat="45.98984" lon="4.89819">
        <ele>293</ele>
        <time>2018-07-10T09:26:42Z</time>
      </trkpt>
      <trkpt lat="45.98992" lon="4.89822">
        <ele>293</ele>
        <time>2018-07-10T09:26:43Z</time>
      </trkpt>
      <trkpt lat="45.98994" lon="4.89829">
        <ele>293</ele>
        <time>2018-07-10T09:26:44Z</time>
      </trkpt>
      <trkpt lat="45.98998" lon="4.89834">
        <ele>293</ele>
        <time>2018-07-10T09:26:45Z</time>
      </trkpt>
      <trkpt lat="45.99002" lon="4.89845">
        <ele>293</ele>
        <time>2018-07-10T09:26:47Z</time>
      </trkpt>
      <trkpt lat="45.99001" lon="4.89848">
        <ele>293</ele>
        <time>2018-07-10T09:26:48Z</time>
      </trkpt>
      <trkpt lat="45.99006" lon="4.89858">
        <ele>293</ele>
        <time>2018-07-10T09:26:50Z</time>
      </trkpt>
      <trkpt lat="45.99012" lon="4.8986">
        <ele>293</ele>
        <time>2018-07-10T09:26:51Z</time>
      </trkpt>
      <trkpt lat="45.99015" lon="4.89865">
        <ele>293</ele>
        <time>2018-07-10T09:26:52Z</time>
      </trkpt>
      <trkpt lat="45.99019" lon="4.89869">
        <ele>293</ele>
        <time>2018-07-10T09:26:53Z</time>
      </trkpt>
      <trkpt lat="45.99024" lon="4.89878">
        <ele>293</ele>
        <time>2018-07-10T09:26:55Z</time>
      </trkpt>
      <trkpt lat="45.99024" lon="4.89884">
        <ele>293</ele>
        <time>2018-07-10T09:26:56Z</time>
      </trkpt>
      <trkpt lat="45.99029" lon="4.89888">
        <ele>293</ele>
        <time>2018-07-10T09:26:57Z</time>
      </trkpt>
      <trkpt lat="45.99032" lon="4.89893">
        <ele>293</ele>
        <time>2018-07-10T09:26:58Z</time>
      </trkpt>
      <trkpt lat="45.99036" lon="4.89898">
        <ele>293</ele>
        <time>2018-07-10T09:26:59Z</time>
      </trkpt>
      <trkpt lat="45.99039" lon="4.89903">
        <ele>293</ele>
        <time>2018-07-10T09:27:00Z</time>
      </trkpt>
      <trkpt lat="45.99043" lon="4.89907">
        <ele>293</ele>
        <time>2018-07-10T09:27:01Z</time>
      </trkpt>
      <trkpt lat="45.99046" lon="4.89911">
        <ele>293</ele>
        <time>2018-07-10T09:27:02Z</time>
      </trkpt>
      <trkpt lat="45.9905" lon="4.89921">
        <ele>294</ele>
        <time>2018-07-10T09:27:04Z</time>
      </trkpt>
      <trkpt lat="45.99053" lon="4.89925">
        <ele>294</ele>
        <time>2018-07-10T09:27:05Z</time>
      </trkpt>
      <trkpt lat="45.99057" lon="4.89928">
        <ele>294</ele>
        <time>2018-07-10T09:27:06Z</time>
      </trkpt>
      <trkpt lat="45.99061" lon="4.89933">
        <ele>294</ele>
        <time>2018-07-10T09:27:07Z</time>
      </trkpt>
      <trkpt lat="45.99063" lon="4.89939">
        <ele>294</ele>
        <time>2018-07-10T09:27:08Z</time>
      </trkpt>
      <trkpt lat="45.99069" lon="4.89943">
        <ele>294</ele>
        <time>2018-07-10T09:27:09Z</time>
      </trkpt>
      <trkpt lat="45.99072" lon="4.89949">
        <ele>294</ele>
        <time>2018-07-10T09:27:10Z</time>
      </trkpt>
      <trkpt lat="45.99075" lon="4.89953">
        <ele>294</ele>
        <time>2018-07-10T09:27:11Z</time>
      </trkpt>
      <trkpt lat="45.9908" lon="4.89957">
        <ele>294</ele>
        <time>2018-07-10T09:27:12Z</time>
      </trkpt>
      <trkpt lat="45.99082" lon="4.89962">
        <ele>294</ele>
        <time>2018-07-10T09:27:13Z</time>
      </trkpt>
      <trkpt lat="45.99088" lon="4.8997">
        <ele>295</ele>
        <time>2018-07-10T09:27:15Z</time>
      </trkpt>
      <trkpt lat="45.99091" lon="4.89974">
        <ele>295</ele>
        <time>2018-07-10T09:27:16Z</time>
      </trkpt>
      <trkpt lat="45.99095" lon="4.89979">
        <ele>295</ele>
        <time>2018-07-10T09:27:17Z</time>
      </trkpt>
      <trkpt lat="45.99098" lon="4.89983">
        <ele>295</ele>
        <time>2018-07-10T09:27:18Z</time>
      </trkpt>
      <trkpt lat="45.99103" lon="4.89991">
        <ele>295</ele>
        <time>2018-07-10T09:27:20Z</time>
      </trkpt>
      <trkpt lat="45.99107" lon="4.89995">
        <ele>295</ele>
        <time>2018-07-10T09:27:21Z</time>
      </trkpt>
      <trkpt lat="45.9911" lon="4.90001">
        <ele>296</ele>
        <time>2018-07-10T09:27:22Z</time>
      </trkpt>
      <trkpt lat="45.99114" lon="4.90005">
        <ele>296</ele>
        <time>2018-07-10T09:27:23Z</time>
      </trkpt>
      <trkpt lat="45.99118" lon="4.90009">
        <ele>296</ele>
        <time>2018-07-10T09:27:24Z</time>
      </trkpt>
      <trkpt lat="45.99123" lon="4.90015">
        <ele>296</ele>
        <time>2018-07-10T09:27:25Z</time>
      </trkpt>
      <trkpt lat="45.99128" lon="4.90019">
        <ele>296</ele>
        <time>2018-07-10T09:27:26Z</time>
      </trkpt>
      <trkpt lat="45.99132" lon="4.90025">
        <ele>297</ele>
        <time>2018-07-10T09:27:27Z</time>
      </trkpt>
      <trkpt lat="45.99136" lon="4.9003">
        <ele>297</ele>
        <time>2018-07-10T09:27:28Z</time>
      </trkpt>
      <trkpt lat="45.99139" lon="4.90034">
        <ele>297</ele>
        <time>2018-07-10T09:27:29Z</time>
      </trkpt>
      <trkpt lat="45.99146" lon="4.90042">
        <ele>297</ele>
        <time>2018-07-10T09:27:31Z</time>
      </trkpt>
      <trkpt lat="45.9915" lon="4.90046">
        <ele>297</ele>
        <time>2018-07-10T09:27:32Z</time>
      </trkpt>
      <trkpt lat="45.99153" lon="4.9005">
        <ele>297</ele>
        <time>2018-07-10T09:27:33Z</time>
      </trkpt>
      <trkpt lat="45.99157" lon="4.90055">
        <ele>297</ele>
        <time>2018-07-10T09:27:34Z</time>
      </trkpt>
      <trkpt lat="45.9916" lon="4.90061">
        <ele>297</ele>
        <time>2018-07-10T09:27:35Z</time>
      </trkpt>
      <trkpt lat="45.99162" lon="4.90067">
        <ele>297</ele>
        <time>2018-07-10T09:27:36Z</time>
      </trkpt>
      <trkpt lat="45.99168" lon="4.90075">
        <ele>298</ele>
        <time>2018-07-10T09:27:38Z</time>
      </trkpt>
      <trkpt lat="45.99171" lon="4.90079">
        <ele>298</ele>
        <time>2018-07-10T09:27:39Z</time>
      </trkpt>
      <trkpt lat="45.99176" lon="4.90085">
        <ele>298</ele>
        <time>2018-07-10T09:27:40Z</time>
      </trkpt>
      <trkpt lat="45.99181" lon="4.90089">
        <ele>297</ele>
        <time>2018-07-10T09:27:41Z</time>
      </trkpt>
      <trkpt lat="45.99188" lon="4.90097">
        <ele>297</ele>
        <time>2018-07-10T09:27:43Z</time>
      </trkpt>
      <trkpt lat="45.9919" lon="4.90102">
        <ele>297</ele>
        <time>2018-07-10T09:27:44Z</time>
      </trkpt>
      <trkpt lat="45.99193" lon="4.90107">
        <ele>297</ele>
        <time>2018-07-10T09:27:45Z</time>
      </trkpt>
      <trkpt lat="45.99198" lon="4.90111">
        <ele>297</ele>
        <time>2018-07-10T09:27:46Z</time>
      </trkpt>
      <trkpt lat="45.99201" lon="4.90116">
        <ele>297</ele>
        <time>2018-07-10T09:27:47Z</time>
      </trkpt>
      <trkpt lat="45.99204" lon="4.9012">
        <ele>297</ele>
        <time>2018-07-10T09:27:48Z</time>
      </trkpt>
      <trkpt lat="45.99207" lon="4.90126">
        <ele>297</ele>
        <time>2018-07-10T09:27:49Z</time>
      </trkpt>
      <trkpt lat="45.99213" lon="4.9013">
        <ele>297</ele>
        <time>2018-07-10T09:27:50Z</time>
      </trkpt>
      <trkpt lat="45.99218" lon="4.90133">
        <ele>297</ele>
        <time>2018-07-10T09:27:51Z</time>
      </trkpt>
      <trkpt lat="45.99222" lon="4.90138">
        <ele>297</ele>
        <time>2018-07-10T09:27:52Z</time>
      </trkpt>
      <trkpt lat="45.99226" lon="4.90149">
        <ele>297</ele>
        <time>2018-07-10T09:27:54Z</time>
      </trkpt>
      <trkpt lat="45.99231" lon="4.90154">
        <ele>297</ele>
        <time>2018-07-10T09:27:55Z</time>
      </trkpt>
      <trkpt lat="45.99236" lon="4.90158">
        <ele>297</ele>
        <time>2018-07-10T09:27:56Z</time>
      </trkpt>
      <trkpt lat="45.99242" lon="4.90162">
        <ele>297</ele>
        <time>2018-07-10T09:27:57Z</time>
      </trkpt>
      <trkpt lat="45.99247" lon="4.90166">
        <ele>297</ele>
        <time>2018-07-10T09:27:58Z</time>
      </trkpt>
      <trkpt lat="45.99249" lon="4.90173">
        <ele>297</ele>
        <time>2018-07-10T09:27:59Z</time>
      </trkpt>
      <trkpt lat="45.99253" lon="4.90178">
        <ele>297</ele>
        <time>2018-07-10T09:28:00Z</time>
      </trkpt>
      <trkpt lat="45.99257" lon="4.90184">
        <ele>298</ele>
        <time>2018-07-10T09:28:01Z</time>
      </trkpt>
      <trkpt lat="45.99261" lon="4.90189">
        <ele>298</ele>
        <time>2018-07-10T09:28:02Z</time>
      </trkpt>
      <trkpt lat="45.99264" lon="4.90194">
        <ele>298</ele>
        <time>2018-07-10T09:28:03Z</time>
      </trkpt>
      <trkpt lat="45.99268" lon="4.90205">
        <ele>298</ele>
        <time>2018-07-10T09:28:06Z</time>
      </trkpt>
      <trkpt lat="45.99272" lon="4.90211">
        <ele>298</ele>
        <time>2018-07-10T09:28:07Z</time>
      </trkpt>
      <trkpt lat="45.99277" lon="4.9022">
        <ele>298</ele>
        <time>2018-07-10T09:28:09Z</time>
      </trkpt>
      <trkpt lat="45.99285" lon="4.90225">
        <ele>298</ele>
        <time>2018-07-10T09:28:10Z</time>
      </trkpt>
      <trkpt lat="45.99289" lon="4.90236">
        <ele>298</ele>
        <time>2018-07-10T09:28:12Z</time>
      </trkpt>
      <trkpt lat="45.99292" lon="4.9024">
        <ele>298</ele>
        <time>2018-07-10T09:28:13Z</time>
      </trkpt>
      <trkpt lat="45.99296" lon="4.90244">
        <ele>298</ele>
        <time>2018-07-10T09:28:14Z</time>
      </trkpt>
      <trkpt lat="45.99298" lon="4.90249">
        <ele>298</ele>
        <time>2018-07-10T09:28:15Z</time>
      </trkpt>
      <trkpt lat="45.99304" lon="4.90258">
        <ele>299</ele>
        <time>2018-07-10T09:28:17Z</time>
      </trkpt>
      <trkpt lat="45.99306" lon="4.90263">
        <ele>299</ele>
        <time>2018-07-10T09:28:18Z</time>
      </trkpt>
      <trkpt lat="45.9931" lon="4.90272">
        <ele>299</ele>
        <time>2018-07-10T09:28:21Z</time>
      </trkpt>
      <trkpt lat="45.99311" lon="4.90275">
        <ele>299</ele>
        <time>2018-07-10T09:28:22Z</time>
      </trkpt>
      <trkpt lat="45.99312" lon="4.90283">
        <ele>299</ele>
        <time>2018-07-10T09:28:24Z</time>
      </trkpt>
      <trkpt lat="45.99317" lon="4.90291">
        <ele>299</ele>
        <time>2018-07-10T09:28:25Z</time>
      </trkpt>
      <trkpt lat="45.99324" lon="4.90294">
        <ele>299</ele>
        <time>2018-07-10T09:28:27Z</time>
      </trkpt>
      <trkpt lat="45.99329" lon="4.90295">
        <ele>299</ele>
        <time>2018-07-10T09:28:28Z</time>
      </trkpt>
      <trkpt lat="45.99337" lon="4.90296">
        <ele>300</ele>
        <time>2018-07-10T09:28:30Z</time>
      </trkpt>
      <trkpt lat="45.99341" lon="4.90296">
        <ele>300</ele>
        <time>2018-07-10T09:28:31Z</time>
      </trkpt>
      <trkpt lat="45.9935" lon="4.90297">
        <ele>300</ele>
        <time>2018-07-10T09:28:33Z</time>
      </trkpt>
      <trkpt lat="45.99354" lon="4.90297">
        <ele>300</ele>
        <time>2018-07-10T09:28:34Z</time>
      </trkpt>
      <trkpt lat="45.9936" lon="4.90296">
        <ele>300</ele>
        <time>2018-07-10T09:28:35Z</time>
      </trkpt>
      <trkpt lat="45.99365" lon="4.90297">
        <ele>300</ele>
        <time>2018-07-10T09:28:36Z</time>
      </trkpt>
      <trkpt lat="45.99371" lon="4.90297">
        <ele>300</ele>
        <time>2018-07-10T09:28:37Z</time>
      </trkpt>
      <trkpt lat="45.99376" lon="4.90297">
        <ele>300</ele>
        <time>2018-07-10T09:28:38Z</time>
      </trkpt>
      <trkpt lat="45.99381" lon="4.90298">
        <ele>300</ele>
        <time>2018-07-10T09:28:39Z</time>
      </trkpt>
      <trkpt lat="45.99386" lon="4.90298">
        <ele>300</ele>
        <time>2018-07-10T09:28:40Z</time>
      </trkpt>
      <trkpt lat="45.99394" lon="4.90297">
        <ele>300</ele>
        <time>2018-07-10T09:28:42Z</time>
      </trkpt>
      <trkpt lat="45.99397" lon="4.90297">
        <ele>300</ele>
        <time>2018-07-10T09:28:43Z</time>
      </trkpt>
      <trkpt lat="45.99403" lon="4.90298">
        <ele>300</ele>
        <time>2018-07-10T09:28:45Z</time>
      </trkpt>
      <trkpt lat="45.99407" lon="4.90298">
        <ele>300</ele>
        <time>2018-07-10T09:28:46Z</time>
      </trkpt>
      <trkpt lat="45.99416" lon="4.90298">
        <ele>300</ele>
        <time>2018-07-10T09:28:48Z</time>
      </trkpt>
      <trkpt lat="45.9942" lon="4.90298">
        <ele>300</ele>
        <time>2018-07-10T09:28:49Z</time>
      </trkpt>
      <trkpt lat="45.99425" lon="4.90299">
        <ele>300</ele>
        <time>2018-07-10T09:28:50Z</time>
      </trkpt>
      <trkpt lat="45.9943" lon="4.90299">
        <ele>300</ele>
        <time>2018-07-10T09:28:51Z</time>
      </trkpt>
      <trkpt lat="45.99438" lon="4.90299">
        <ele>300</ele>
        <time>2018-07-10T09:28:53Z</time>
      </trkpt>
      <trkpt lat="45.99443" lon="4.90299">
        <ele>300</ele>
        <time>2018-07-10T09:28:54Z</time>
      </trkpt>
      <trkpt lat="45.9945" lon="4.90302">
        <ele>300</ele>
        <time>2018-07-10T09:28:56Z</time>
      </trkpt>
      <trkpt lat="45.99455" lon="4.90302">
        <ele>300</ele>
        <time>2018-07-10T09:28:57Z</time>
      </trkpt>
      <trkpt lat="45.9946" lon="4.90302">
        <ele>300</ele>
        <time>2018-07-10T09:28:58Z</time>
      </trkpt>
      <trkpt lat="45.99464" lon="4.90302">
        <ele>300</ele>
        <time>2018-07-10T09:28:59Z</time>
      </trkpt>
      <trkpt lat="45.99469" lon="4.90302">
        <ele>300</ele>
        <time>2018-07-10T09:29:00Z</time>
      </trkpt>
      <trkpt lat="45.99474" lon="4.90305">
        <ele>300</ele>
        <time>2018-07-10T09:29:01Z</time>
      </trkpt>
      <trkpt lat="45.99483" lon="4.90306">
        <ele>300</ele>
        <time>2018-07-10T09:29:03Z</time>
      </trkpt>
      <trkpt lat="45.99484" lon="4.90306">
        <ele>300</ele>
        <time>2018-07-10T09:29:04Z</time>
      </trkpt>
      <trkpt lat="45.99491" lon="4.90306">
        <ele>300</ele>
        <time>2018-07-10T09:29:05Z</time>
      </trkpt>
      <trkpt lat="45.99495" lon="4.90307">
        <ele>300</ele>
        <time>2018-07-10T09:29:06Z</time>
      </trkpt>
      <trkpt lat="45.99502" lon="4.90309">
        <ele>300</ele>
        <time>2018-07-10T09:29:08Z</time>
      </trkpt>
      <trkpt lat="45.99505" lon="4.90311">
        <ele>300</ele>
        <time>2018-07-10T09:29:09Z</time>
      </trkpt>
      <trkpt lat="45.99513" lon="4.90312">
        <ele>300</ele>
        <time>2018-07-10T09:29:11Z</time>
      </trkpt>
      <trkpt lat="45.99517" lon="4.90312">
        <ele>300</ele>
        <time>2018-07-10T09:29:12Z</time>
      </trkpt>
      <trkpt lat="45.99525" lon="4.90313">
        <ele>300</ele>
        <time>2018-07-10T09:29:14Z</time>
      </trkpt>
      <trkpt lat="45.99529" lon="4.90314">
        <ele>300</ele>
        <time>2018-07-10T09:29:15Z</time>
      </trkpt>
      <trkpt lat="45.99536" lon="4.90317">
        <ele>300</ele>
        <time>2018-07-10T09:29:17Z</time>
      </trkpt>
      <trkpt lat="45.99542" lon="4.90317">
        <ele>300</ele>
        <time>2018-07-10T09:29:18Z</time>
      </trkpt>
      <trkpt lat="45.99549" lon="4.9032">
        <ele>300</ele>
        <time>2018-07-10T09:29:20Z</time>
      </trkpt>
      <trkpt lat="45.99553" lon="4.90321">
        <ele>301</ele>
        <time>2018-07-10T09:29:21Z</time>
      </trkpt>
      <trkpt lat="45.99556" lon="4.90323">
        <ele>301</ele>
        <time>2018-07-10T09:29:23Z</time>
      </trkpt>
      <trkpt lat="45.99563" lon="4.90325">
        <ele>301</ele>
        <time>2018-07-10T09:29:24Z</time>
      </trkpt>
      <trkpt lat="45.99566" lon="4.90325">
        <ele>301</ele>
        <time>2018-07-10T09:29:25Z</time>
      </trkpt>
      <trkpt lat="45.99572" lon="4.90327">
        <ele>301</ele>
        <time>2018-07-10T09:29:26Z</time>
      </trkpt>
      <trkpt lat="45.99579" lon="4.90328">
        <ele>301</ele>
        <time>2018-07-10T09:29:28Z</time>
      </trkpt>
      <trkpt lat="45.99583" lon="4.90329">
        <ele>301</ele>
        <time>2018-07-10T09:29:29Z</time>
      </trkpt>
      <trkpt lat="45.9959" lon="4.90329">
        <ele>301</ele>
        <time>2018-07-10T09:29:31Z</time>
      </trkpt>
      <trkpt lat="45.99594" lon="4.90329">
        <ele>301</ele>
        <time>2018-07-10T09:29:32Z</time>
      </trkpt>
      <trkpt lat="45.99602" lon="4.90328">
        <ele>301</ele>
        <time>2018-07-10T09:29:34Z</time>
      </trkpt>
      <trkpt lat="45.99603" lon="4.90328">
        <ele>301</ele>
        <time>2018-07-10T09:29:35Z</time>
      </trkpt>
      <trkpt lat="45.99609" lon="4.90329">
        <ele>301</ele>
        <time>2018-07-10T09:29:36Z</time>
      </trkpt>
      <trkpt lat="45.99613" lon="4.90329">
        <ele>302</ele>
        <time>2018-07-10T09:29:37Z</time>
      </trkpt>
      <trkpt lat="45.99618" lon="4.9033">
        <ele>302</ele>
        <time>2018-07-10T09:29:39Z</time>
      </trkpt>
      <trkpt lat="45.99623" lon="4.9033">
        <ele>302</ele>
        <time>2018-07-10T09:29:40Z</time>
      </trkpt>
      <trkpt lat="45.99631" lon="4.90329">
        <ele>302</ele>
        <time>2018-07-10T09:29:42Z</time>
      </trkpt>
      <trkpt lat="45.99635" lon="4.90328">
        <ele>302</ele>
        <time>2018-07-10T09:29:43Z</time>
      </trkpt>
      <trkpt lat="45.99643" lon="4.90329">
        <ele>302</ele>
        <time>2018-07-10T09:29:45Z</time>
      </trkpt>
      <trkpt lat="45.99645" lon="4.9033">
        <ele>302</ele>
        <time>2018-07-10T09:29:46Z</time>
      </trkpt>
      <trkpt lat="45.99652" lon="4.90331">
        <ele>302</ele>
        <time>2018-07-10T09:29:49Z</time>
      </trkpt>
      <trkpt lat="45.99654" lon="4.90332">
        <ele>302</ele>
        <time>2018-07-10T09:29:50Z</time>
      </trkpt>
      <trkpt lat="45.99663" lon="4.90332">
        <ele>302</ele>
        <time>2018-07-10T09:29:55Z</time>
      </trkpt>
      <trkpt lat="45.99664" lon="4.90332">
        <ele>302</ele>
        <time>2018-07-10T09:29:56Z</time>
      </trkpt>
      <trkpt lat="45.99667" lon="4.90321">
        <ele>303</ele>
        <time>2018-07-10T09:30:01Z</time>
      </trkpt>
      <trkpt lat="45.99667" lon="4.90317">
        <ele>303</ele>
        <time>2018-07-10T09:30:02Z</time>
      </trkpt>
      <trkpt lat="45.99668" lon="4.90305">
        <ele>304</ele>
        <time>2018-07-10T09:30:05Z</time>
      </trkpt>
      <trkpt lat="45.99668" lon="4.90301">
        <ele>304</ele>
        <time>2018-07-10T09:30:06Z</time>
      </trkpt>
      <trkpt lat="45.9967" lon="4.90292">
        <ele>304</ele>
        <time>2018-07-10T09:30:08Z</time>
      </trkpt>
      <trkpt lat="45.99672" lon="4.90287">
        <ele>304</ele>
        <time>2018-07-10T09:30:09Z</time>
      </trkpt>
      <trkpt lat="45.99673" lon="4.90282">
        <ele>304</ele>
        <time>2018-07-10T09:30:10Z</time>
      </trkpt>
      <trkpt lat="45.99676" lon="4.90267">
        <ele>304</ele>
        <time>2018-07-10T09:30:11Z</time>
      </trkpt>
      <trkpt lat="45.99679" lon="4.90256">
        <ele>304</ele>
        <time>2018-07-10T09:30:13Z</time>
      </trkpt>
      <trkpt lat="45.9968" lon="4.9025">
        <ele>304</ele>
        <time>2018-07-10T09:30:14Z</time>
      </trkpt>
      <trkpt lat="45.99679" lon="4.90243">
        <ele>304</ele>
        <time>2018-07-10T09:30:15Z</time>
      </trkpt>
      <trkpt lat="45.99676" lon="4.90236">
        <ele>304</ele>
        <time>2018-07-10T09:30:16Z</time>
      </trkpt>
      <trkpt lat="45.99675" lon="4.90224">
        <ele>304</ele>
        <time>2018-07-10T09:30:18Z</time>
      </trkpt>
      <trkpt lat="45.99673" lon="4.90218">
        <ele>303</ele>
        <time>2018-07-10T09:30:19Z</time>
      </trkpt>
      <trkpt lat="45.99672" lon="4.90211">
        <ele>303</ele>
        <time>2018-07-10T09:30:20Z</time>
      </trkpt>
      <trkpt lat="45.9967" lon="4.90204">
        <ele>303</ele>
        <time>2018-07-10T09:30:21Z</time>
      </trkpt>
      <trkpt lat="45.99668" lon="4.90196">
        <ele>303</ele>
        <time>2018-07-10T09:30:22Z</time>
      </trkpt>
      <trkpt lat="45.99667" lon="4.90186">
        <ele>302</ele>
        <time>2018-07-10T09:30:23Z</time>
      </trkpt>
      <trkpt lat="45.99665" lon="4.90178">
        <ele>301</ele>
        <time>2018-07-10T09:30:24Z</time>
      </trkpt>
      <trkpt lat="45.99663" lon="4.90169">
        <ele>301</ele>
        <time>2018-07-10T09:30:25Z</time>
      </trkpt>
      <trkpt lat="45.99663" lon="4.9016">
        <ele>300</ele>
        <time>2018-07-10T09:30:26Z</time>
      </trkpt>
      <trkpt lat="45.99661" lon="4.90152">
        <ele>300</ele>
        <time>2018-07-10T09:30:27Z</time>
      </trkpt>
      <trkpt lat="45.99655" lon="4.90141">
        <ele>300</ele>
        <time>2018-07-10T09:30:28Z</time>
      </trkpt>
      <trkpt lat="45.99653" lon="4.9013">
        <ele>299</ele>
        <time>2018-07-10T09:30:29Z</time>
      </trkpt>
      <trkpt lat="45.99651" lon="4.90119">
        <ele>299</ele>
        <time>2018-07-10T09:30:30Z</time>
      </trkpt>
      <trkpt lat="45.9965" lon="4.9011">
        <ele>299</ele>
        <time>2018-07-10T09:30:31Z</time>
      </trkpt>
      <trkpt lat="45.99645" lon="4.90098">
        <ele>299</ele>
        <time>2018-07-10T09:30:32Z</time>
      </trkpt>
      <trkpt lat="45.99644" lon="4.90088">
        <ele>298</ele>
        <time>2018-07-10T09:30:33Z</time>
      </trkpt>
      <trkpt lat="45.99641" lon="4.90078">
        <ele>297</ele>
        <time>2018-07-10T09:30:34Z</time>
      </trkpt>
      <trkpt lat="45.99639" lon="4.90068">
        <ele>297</ele>
        <time>2018-07-10T09:30:35Z</time>
      </trkpt>
      <trkpt lat="45.99635" lon="4.90057">
        <ele>297</ele>
        <time>2018-07-10T09:30:36Z</time>
      </trkpt>
      <trkpt lat="45.99631" lon="4.90048">
        <ele>297</ele>
        <time>2018-07-10T09:30:37Z</time>
      </trkpt>
      <trkpt lat="45.99624" lon="4.90038">
        <ele>296</ele>
        <time>2018-07-10T09:30:38Z</time>
      </trkpt>
      <trkpt lat="45.99619" lon="4.90027">
        <ele>296</ele>
        <time>2018-07-10T09:30:39Z</time>
      </trkpt>
      <trkpt lat="45.99617" lon="4.90016">
        <ele>296</ele>
        <time>2018-07-10T09:30:40Z</time>
      </trkpt>
      <trkpt lat="45.99613" lon="4.90005">
        <ele>296</ele>
        <time>2018-07-10T09:30:41Z</time>
      </trkpt>
      <trkpt lat="45.9961" lon="4.89994">
        <ele>294</ele>
        <time>2018-07-10T09:30:42Z</time>
      </trkpt>
      <trkpt lat="45.99609" lon="4.89984">
        <ele>294</ele>
        <time>2018-07-10T09:30:43Z</time>
      </trkpt>
      <trkpt lat="45.99608" lon="4.89973">
        <ele>294</ele>
        <time>2018-07-10T09:30:44Z</time>
      </trkpt>
      <trkpt lat="45.99606" lon="4.89963">
        <ele>294</ele>
        <time>2018-07-10T09:30:45Z</time>
      </trkpt>
      <trkpt lat="45.99607" lon="4.89953">
        <ele>294</ele>
        <time>2018-07-10T09:30:46Z</time>
      </trkpt>
      <trkpt lat="45.99605" lon="4.89942">
        <ele>294</ele>
        <time>2018-07-10T09:30:47Z</time>
      </trkpt>
      <trkpt lat="45.99605" lon="4.89931">
        <ele>293</ele>
        <time>2018-07-10T09:30:48Z</time>
      </trkpt>
      <trkpt lat="45.99605" lon="4.89921">
        <ele>293</ele>
        <time>2018-07-10T09:30:49Z</time>
      </trkpt>
      <trkpt lat="45.99604" lon="4.89912">
        <ele>292</ele>
        <time>2018-07-10T09:30:50Z</time>
      </trkpt>
      <trkpt lat="45.99605" lon="4.89902">
        <ele>292</ele>
        <time>2018-07-10T09:30:51Z</time>
      </trkpt>
      <trkpt lat="45.99604" lon="4.89891">
        <ele>292</ele>
        <time>2018-07-10T09:30:52Z</time>
      </trkpt>
      <trkpt lat="45.99603" lon="4.89882">
        <ele>292</ele>
        <time>2018-07-10T09:30:53Z</time>
      </trkpt>
      <trkpt lat="45.99604" lon="4.89872">
        <ele>293</ele>
        <time>2018-07-10T09:30:54Z</time>
      </trkpt>
      <trkpt lat="45.99605" lon="4.89863">
        <ele>293</ele>
        <time>2018-07-10T09:30:55Z</time>
      </trkpt>
      <trkpt lat="45.99605" lon="4.89854">
        <ele>293</ele>
        <time>2018-07-10T09:30:56Z</time>
      </trkpt>
      <trkpt lat="45.99606" lon="4.89845">
        <ele>293</ele>
        <time>2018-07-10T09:30:57Z</time>
      </trkpt>
      <trkpt lat="45.99604" lon="4.89836">
        <ele>293</ele>
        <time>2018-07-10T09:30:58Z</time>
      </trkpt>
      <trkpt lat="45.99605" lon="4.89827">
        <ele>292</ele>
        <time>2018-07-10T09:30:59Z</time>
      </trkpt>
      <trkpt lat="45.99606" lon="4.89819">
        <ele>292</ele>
        <time>2018-07-10T09:31:00Z</time>
      </trkpt>
      <trkpt lat="45.99606" lon="4.89809">
        <ele>292</ele>
        <time>2018-07-10T09:31:01Z</time>
      </trkpt>
      <trkpt lat="45.99607" lon="4.89801">
        <ele>292</ele>
        <time>2018-07-10T09:31:02Z</time>
      </trkpt>
      <trkpt lat="45.9961" lon="4.89792">
        <ele>292</ele>
        <time>2018-07-10T09:31:03Z</time>
      </trkpt>
      <trkpt lat="45.99611" lon="4.89784">
        <ele>292</ele>
        <time>2018-07-10T09:31:04Z</time>
      </trkpt>
      <trkpt lat="45.99612" lon="4.89774">
        <ele>292</ele>
        <time>2018-07-10T09:31:05Z</time>
      </trkpt>
      <trkpt lat="45.99613" lon="4.89765">
        <ele>292</ele>
        <time>2018-07-10T09:31:06Z</time>
      </trkpt>
      <trkpt lat="45.9961" lon="4.89756">
        <ele>292</ele>
        <time>2018-07-10T09:31:07Z</time>
      </trkpt>
      <trkpt lat="45.99609" lon="4.89748">
        <ele>292</ele>
        <time>2018-07-10T09:31:08Z</time>
      </trkpt>
      <trkpt lat="45.99609" lon="4.89738">
        <ele>292</ele>
        <time>2018-07-10T09:31:09Z</time>
      </trkpt>
      <trkpt lat="45.9961" lon="4.89729">
        <ele>292</ele>
        <time>2018-07-10T09:31:10Z</time>
      </trkpt>
      <trkpt lat="45.99611" lon="4.8972">
        <ele>292</ele>
        <time>2018-07-10T09:31:11Z</time>
      </trkpt>
      <trkpt lat="45.99611" lon="4.89709">
        <ele>291</ele>
        <time>2018-07-10T09:31:12Z</time>
      </trkpt>
      <trkpt lat="45.9961" lon="4.897">
        <ele>291</ele>
        <time>2018-07-10T09:31:13Z</time>
      </trkpt>
      <trkpt lat="45.99608" lon="4.89691">
        <ele>291</ele>
        <time>2018-07-10T09:31:14Z</time>
      </trkpt>
      <trkpt lat="45.99609" lon="4.89683">
        <ele>291</ele>
        <time>2018-07-10T09:31:15Z</time>
      </trkpt>
      <trkpt lat="45.99609" lon="4.89674">
        <ele>291</ele>
        <time>2018-07-10T09:31:16Z</time>
      </trkpt>
      <trkpt lat="45.99608" lon="4.89665">
        <ele>291</ele>
        <time>2018-07-10T09:31:17Z</time>
      </trkpt>
      <trkpt lat="45.99608" lon="4.89657">
        <ele>291</ele>
        <time>2018-07-10T09:31:18Z</time>
      </trkpt>
      <trkpt lat="45.99607" lon="4.89648">
        <ele>291</ele>
        <time>2018-07-10T09:31:19Z</time>
      </trkpt>
      <trkpt lat="45.99607" lon="4.8964">
        <ele>291</ele>
        <time>2018-07-10T09:31:20Z</time>
      </trkpt>
      <trkpt lat="45.99607" lon="4.89632">
        <ele>291</ele>
        <time>2018-07-10T09:31:21Z</time>
      </trkpt>
      <trkpt lat="45.99607" lon="4.89624">
        <ele>291</ele>
        <time>2018-07-10T09:31:22Z</time>
      </trkpt>
      <trkpt lat="45.99608" lon="4.89614">
        <ele>291</ele>
        <time>2018-07-10T09:31:23Z</time>
      </trkpt>
      <trkpt lat="45.99607" lon="4.89605">
        <ele>291</ele>
        <time>2018-07-10T09:31:24Z</time>
      </trkpt>
      <trkpt lat="45.99608" lon="4.89595">
        <ele>292</ele>
        <time>2018-07-10T09:31:25Z</time>
      </trkpt>
      <trkpt lat="45.99608" lon="4.89585">
        <ele>292</ele>
        <time>2018-07-10T09:31:26Z</time>
      </trkpt>
      <trkpt lat="45.99608" lon="4.89577">
        <ele>291</ele>
        <time>2018-07-10T09:31:27Z</time>
      </trkpt>
      <trkpt lat="45.99606" lon="4.89569">
        <ele>291</ele>
        <time>2018-07-10T09:31:28Z</time>
      </trkpt>
      <trkpt lat="45.99606" lon="4.89559">
        <ele>291</ele>
        <time>2018-07-10T09:31:29Z</time>
      </trkpt>
      <trkpt lat="45.99606" lon="4.8955">
        <ele>291</ele>
        <time>2018-07-10T09:31:30Z</time>
      </trkpt>
      <trkpt lat="45.99605" lon="4.89541">
        <ele>291</ele>
        <time>2018-07-10T09:31:31Z</time>
      </trkpt>
      <trkpt lat="45.99603" lon="4.89532">
        <ele>291</ele>
        <time>2018-07-10T09:31:32Z</time>
      </trkpt>
      <trkpt lat="45.99602" lon="4.89523">
        <ele>291</ele>
        <time>2018-07-10T09:31:33Z</time>
      </trkpt>
      <trkpt lat="45.99602" lon="4.89514">
        <ele>290</ele>
        <time>2018-07-10T09:31:34Z</time>
      </trkpt>
      <trkpt lat="45.99601" lon="4.89506">
        <ele>290</ele>
        <time>2018-07-10T09:31:35Z</time>
      </trkpt>
      <trkpt lat="45.99601" lon="4.89498">
        <ele>290</ele>
        <time>2018-07-10T09:31:36Z</time>
      </trkpt>
      <trkpt lat="45.99601" lon="4.8949">
        <ele>290</ele>
        <time>2018-07-10T09:31:37Z</time>
      </trkpt>
      <trkpt lat="45.996" lon="4.89481">
        <ele>290</ele>
        <time>2018-07-10T09:31:38Z</time>
      </trkpt>
      <trkpt lat="45.99596" lon="4.89472">
        <ele>290</ele>
        <time>2018-07-10T09:31:39Z</time>
      </trkpt>
      <trkpt lat="45.99595" lon="4.89463">
        <ele>290</ele>
        <time>2018-07-10T09:31:40Z</time>
      </trkpt>
      <trkpt lat="45.99595" lon="4.89454">
        <ele>290</ele>
        <time>2018-07-10T09:31:41Z</time>
      </trkpt>
      <trkpt lat="45.99595" lon="4.89445">
        <ele>290</ele>
        <time>2018-07-10T09:31:42Z</time>
      </trkpt>
      <trkpt lat="45.99595" lon="4.89436">
        <ele>290</ele>
        <time>2018-07-10T09:31:43Z</time>
      </trkpt>
      <trkpt lat="45.99595" lon="4.89428">
        <ele>290</ele>
        <time>2018-07-10T09:31:44Z</time>
      </trkpt>
      <trkpt lat="45.99595" lon="4.89419">
        <ele>290</ele>
        <time>2018-07-10T09:31:45Z</time>
      </trkpt>
      <trkpt lat="45.99595" lon="4.89411">
        <ele>290</ele>
        <time>2018-07-10T09:31:46Z</time>
      </trkpt>
      <trkpt lat="45.99596" lon="4.89403">
        <ele>290</ele>
        <time>2018-07-10T09:31:47Z</time>
      </trkpt>
      <trkpt lat="45.99595" lon="4.89396">
        <ele>290</ele>
        <time>2018-07-10T09:31:48Z</time>
      </trkpt>
      <trkpt lat="45.99595" lon="4.89388">
        <ele>290</ele>
        <time>2018-07-10T09:31:49Z</time>
      </trkpt>
      <trkpt lat="45.99594" lon="4.8938">
        <ele>290</ele>
        <time>2018-07-10T09:31:50Z</time>
      </trkpt>
      <trkpt lat="45.99593" lon="4.89374">
        <ele>289</ele>
        <time>2018-07-10T09:31:51Z</time>
      </trkpt>
      <trkpt lat="45.99593" lon="4.89367">
        <ele>289</ele>
        <time>2018-07-10T09:31:52Z</time>
      </trkpt>
      <trkpt lat="45.99591" lon="4.89359">
        <ele>289</ele>
        <time>2018-07-10T09:31:53Z</time>
      </trkpt>
      <trkpt lat="45.99592" lon="4.89352">
        <ele>289</ele>
        <time>2018-07-10T09:31:54Z</time>
      </trkpt>
      <trkpt lat="45.99592" lon="4.89343">
        <ele>289</ele>
        <time>2018-07-10T09:31:55Z</time>
      </trkpt>
      <trkpt lat="45.99591" lon="4.89334">
        <ele>289</ele>
        <time>2018-07-10T09:31:56Z</time>
      </trkpt>
      <trkpt lat="45.9959" lon="4.89325">
        <ele>289</ele>
        <time>2018-07-10T09:31:57Z</time>
      </trkpt>
      <trkpt lat="45.99589" lon="4.89316">
        <ele>289</ele>
        <time>2018-07-10T09:31:58Z</time>
      </trkpt>
      <trkpt lat="45.99588" lon="4.89308">
        <ele>289</ele>
        <time>2018-07-10T09:31:59Z</time>
      </trkpt>
      <trkpt lat="45.99588" lon="4.89299">
        <ele>289</ele>
        <time>2018-07-10T09:32:00Z</time>
      </trkpt>
      <trkpt lat="45.99587" lon="4.89289">
        <ele>289</ele>
        <time>2018-07-10T09:32:01Z</time>
      </trkpt>
      <trkpt lat="45.99587" lon="4.8928">
        <ele>289</ele>
        <time>2018-07-10T09:32:02Z</time>
      </trkpt>
      <trkpt lat="45.99588" lon="4.89272">
        <ele>288</ele>
        <time>2018-07-10T09:32:03Z</time>
      </trkpt>
      <trkpt lat="45.99588" lon="4.89263">
        <ele>288</ele>
        <time>2018-07-10T09:32:04Z</time>
      </trkpt>
      <trkpt lat="45.99587" lon="4.89255">
        <ele>288</ele>
        <time>2018-07-10T09:32:05Z</time>
      </trkpt>
      <trkpt lat="45.99587" lon="4.89247">
        <ele>288</ele>
        <time>2018-07-10T09:32:06Z</time>
      </trkpt>
      <trkpt lat="45.99587" lon="4.89239">
        <ele>288</ele>
        <time>2018-07-10T09:32:07Z</time>
      </trkpt>
      <trkpt lat="45.99586" lon="4.8923">
        <ele>288</ele>
        <time>2018-07-10T09:32:08Z</time>
      </trkpt>
      <trkpt lat="45.99586" lon="4.89222">
        <ele>288</ele>
        <time>2018-07-10T09:32:09Z</time>
      </trkpt>
      <trkpt lat="45.99585" lon="4.89214">
        <ele>288</ele>
        <time>2018-07-10T09:32:10Z</time>
      </trkpt>
      <trkpt lat="45.99584" lon="4.89205">
        <ele>288</ele>
        <time>2018-07-10T09:32:11Z</time>
      </trkpt>
      <trkpt lat="45.99584" lon="4.89196">
        <ele>288</ele>
        <time>2018-07-10T09:32:12Z</time>
      </trkpt>
      <trkpt lat="45.99584" lon="4.89187">
        <ele>288</ele>
        <time>2018-07-10T09:32:13Z</time>
      </trkpt>
      <trkpt lat="45.99584" lon="4.89179">
        <ele>288</ele>
        <time>2018-07-10T09:32:14Z</time>
      </trkpt>
      <trkpt lat="45.99583" lon="4.8917">
        <ele>288</ele>
        <time>2018-07-10T09:32:15Z</time>
      </trkpt>
      <trkpt lat="45.99583" lon="4.89162">
        <ele>288</ele>
        <time>2018-07-10T09:32:16Z</time>
      </trkpt>
      <trkpt lat="45.99582" lon="4.89153">
        <ele>288</ele>
        <time>2018-07-10T09:32:17Z</time>
      </trkpt>
      <trkpt lat="45.99582" lon="4.89145">
        <ele>289</ele>
        <time>2018-07-10T09:32:18Z</time>
      </trkpt>
      <trkpt lat="45.9958" lon="4.89137">
        <ele>289</ele>
        <time>2018-07-10T09:32:19Z</time>
      </trkpt>
      <trkpt lat="45.99581" lon="4.8913">
        <ele>289</ele>
        <time>2018-07-10T09:32:20Z</time>
      </trkpt>
      <trkpt lat="45.99582" lon="4.89122">
        <ele>289</ele>
        <time>2018-07-10T09:32:21Z</time>
      </trkpt>
      <trkpt lat="45.99582" lon="4.89115">
        <ele>289</ele>
        <time>2018-07-10T09:32:22Z</time>
      </trkpt>
      <trkpt lat="45.99582" lon="4.89107">
        <ele>289</ele>
        <time>2018-07-10T09:32:23Z</time>
      </trkpt>
      <trkpt lat="45.99582" lon="4.89098">
        <ele>289</ele>
        <time>2018-07-10T09:32:24Z</time>
      </trkpt>
      <trkpt lat="45.99581" lon="4.8909">
        <ele>289</ele>
        <time>2018-07-10T09:32:25Z</time>
      </trkpt>
      <trkpt lat="45.99582" lon="4.89081">
        <ele>289</ele>
        <time>2018-07-10T09:32:26Z</time>
      </trkpt>
      <trkpt lat="45.99584" lon="4.89072">
        <ele>289</ele>
        <time>2018-07-10T09:32:27Z</time>
      </trkpt>
      <trkpt lat="45.99583" lon="4.89063">
        <ele>289</ele>
        <time>2018-07-10T09:32:28Z</time>
      </trkpt>
      <trkpt lat="45.99583" lon="4.89053">
        <ele>288</ele>
        <time>2018-07-10T09:32:29Z</time>
      </trkpt>
      <trkpt lat="45.99586" lon="4.89044">
        <ele>289</ele>
        <time>2018-07-10T09:32:30Z</time>
      </trkpt>
      <trkpt lat="45.99589" lon="4.89034">
        <ele>289</ele>
        <time>2018-07-10T09:32:31Z</time>
      </trkpt>
      <trkpt lat="45.99587" lon="4.89023">
        <ele>288</ele>
        <time>2018-07-10T09:32:32Z</time>
      </trkpt>
      <trkpt lat="45.99588" lon="4.89014">
        <ele>288</ele>
        <time>2018-07-10T09:32:33Z</time>
      </trkpt>
      <trkpt lat="45.99591" lon="4.89005">
        <ele>288</ele>
        <time>2018-07-10T09:32:34Z</time>
      </trkpt>
      <trkpt lat="45.99593" lon="4.88997">
        <ele>288</ele>
        <time>2018-07-10T09:32:35Z</time>
      </trkpt>
      <trkpt lat="45.99591" lon="4.88986">
        <ele>288</ele>
        <time>2018-07-10T09:32:36Z</time>
      </trkpt>
      <trkpt lat="45.99591" lon="4.88977">
        <ele>288</ele>
        <time>2018-07-10T09:32:37Z</time>
      </trkpt>
      <trkpt lat="45.99588" lon="4.88967">
        <ele>288</ele>
        <time>2018-07-10T09:32:38Z</time>
      </trkpt>
      <trkpt lat="45.99587" lon="4.88957">
        <ele>287</ele>
        <time>2018-07-10T09:32:39Z</time>
      </trkpt>
      <trkpt lat="45.9959" lon="4.88947">
        <ele>287</ele>
        <time>2018-07-10T09:32:40Z</time>
      </trkpt>
      <trkpt lat="45.99588" lon="4.88938">
        <ele>287</ele>
        <time>2018-07-10T09:32:41Z</time>
      </trkpt>
      <trkpt lat="45.99586" lon="4.88929">
        <ele>287</ele>
        <time>2018-07-10T09:32:42Z</time>
      </trkpt>
      <trkpt lat="45.99583" lon="4.88919">
        <ele>287</ele>
        <time>2018-07-10T09:32:43Z</time>
      </trkpt>
      <trkpt lat="45.99585" lon="4.88909">
        <ele>287</ele>
        <time>2018-07-10T09:32:44Z</time>
      </trkpt>
      <trkpt lat="45.99583" lon="4.88899">
        <ele>287</ele>
        <time>2018-07-10T09:32:45Z</time>
      </trkpt>
      <trkpt lat="45.99581" lon="4.88889">
        <ele>287</ele>
        <time>2018-07-10T09:32:46Z</time>
      </trkpt>
      <trkpt lat="45.99579" lon="4.88879">
        <ele>287</ele>
        <time>2018-07-10T09:32:47Z</time>
      </trkpt>
      <trkpt lat="45.99578" lon="4.88869">
        <ele>287</ele>
        <time>2018-07-10T09:32:48Z</time>
      </trkpt>
      <trkpt lat="45.99577" lon="4.88859">
        <ele>287</ele>
        <time>2018-07-10T09:32:49Z</time>
      </trkpt>
      <trkpt lat="45.99575" lon="4.88848">
        <ele>287</ele>
        <time>2018-07-10T09:32:50Z</time>
      </trkpt>
      <trkpt lat="45.99574" lon="4.88838">
        <ele>287</ele>
        <time>2018-07-10T09:32:51Z</time>
      </trkpt>
      <trkpt lat="45.99572" lon="4.88826">
        <ele>287</ele>
        <time>2018-07-10T09:32:52Z</time>
      </trkpt>
      <trkpt lat="45.9957" lon="4.88815">
        <ele>287</ele>
        <time>2018-07-10T09:32:53Z</time>
      </trkpt>
      <trkpt lat="45.9957" lon="4.88805">
        <ele>287</ele>
        <time>2018-07-10T09:32:54Z</time>
      </trkpt>
      <trkpt lat="45.99569" lon="4.88796">
        <ele>287</ele>
        <time>2018-07-10T09:32:55Z</time>
      </trkpt>
      <trkpt lat="45.99568" lon="4.88785">
        <ele>287</ele>
        <time>2018-07-10T09:32:56Z</time>
      </trkpt>
      <trkpt lat="45.99568" lon="4.88775">
        <ele>287</ele>
        <time>2018-07-10T09:32:57Z</time>
      </trkpt>
      <trkpt lat="45.99567" lon="4.88765">
        <ele>287</ele>
        <time>2018-07-10T09:32:58Z</time>
      </trkpt>
      <trkpt lat="45.99568" lon="4.88756">
        <ele>287</ele>
        <time>2018-07-10T09:32:59Z</time>
      </trkpt>
      <trkpt lat="45.99567" lon="4.88747">
        <ele>287</ele>
        <time>2018-07-10T09:33:00Z</time>
      </trkpt>
      <trkpt lat="45.99567" lon="4.88737">
        <ele>287</ele>
        <time>2018-07-10T09:33:01Z</time>
      </trkpt>
      <trkpt lat="45.99564" lon="4.88727">
        <ele>287</ele>
        <time>2018-07-10T09:33:02Z</time>
      </trkpt>
      <trkpt lat="45.99564" lon="4.88717">
        <ele>286</ele>
        <time>2018-07-10T09:33:03Z</time>
      </trkpt>
      <trkpt lat="45.99563" lon="4.88707">
        <ele>286</ele>
        <time>2018-07-10T09:33:04Z</time>
      </trkpt>
      <trkpt lat="45.99563" lon="4.88696">
        <ele>286</ele>
        <time>2018-07-10T09:33:05Z</time>
      </trkpt>
      <trkpt lat="45.99561" lon="4.88686">
        <ele>286</ele>
        <time>2018-07-10T09:33:06Z</time>
      </trkpt>
      <trkpt lat="45.99561" lon="4.88676">
        <ele>286</ele>
        <time>2018-07-10T09:33:07Z</time>
      </trkpt>
      <trkpt lat="45.99561" lon="4.88666">
        <ele>286</ele>
        <time>2018-07-10T09:33:08Z</time>
      </trkpt>
      <trkpt lat="45.9956" lon="4.88655">
        <ele>286</ele>
        <time>2018-07-10T09:33:09Z</time>
      </trkpt>
      <trkpt lat="45.99558" lon="4.88644">
        <ele>286</ele>
        <time>2018-07-10T09:33:10Z</time>
      </trkpt>
      <trkpt lat="45.99557" lon="4.88633">
        <ele>286</ele>
        <time>2018-07-10T09:33:11Z</time>
      </trkpt>
      <trkpt lat="45.99555" lon="4.88622">
        <ele>286</ele>
        <time>2018-07-10T09:33:12Z</time>
      </trkpt>
      <trkpt lat="45.99554" lon="4.8861">
        <ele>286</ele>
        <time>2018-07-10T09:33:13Z</time>
      </trkpt>
      <trkpt lat="45.99552" lon="4.88599">
        <ele>286</ele>
        <time>2018-07-10T09:33:14Z</time>
      </trkpt>
      <trkpt lat="45.9955" lon="4.88589">
        <ele>286</ele>
        <time>2018-07-10T09:33:15Z</time>
      </trkpt>
      <trkpt lat="45.99548" lon="4.88579">
        <ele>286</ele>
        <time>2018-07-10T09:33:16Z</time>
      </trkpt>
      <trkpt lat="45.99546" lon="4.88569">
        <ele>286</ele>
        <time>2018-07-10T09:33:17Z</time>
      </trkpt>
      <trkpt lat="45.99544" lon="4.8856">
        <ele>285</ele>
        <time>2018-07-10T09:33:18Z</time>
      </trkpt>
      <trkpt lat="45.99539" lon="4.8855">
        <ele>285</ele>
        <time>2018-07-10T09:33:19Z</time>
      </trkpt>
      <trkpt lat="45.99535" lon="4.88541">
        <ele>285</ele>
        <time>2018-07-10T09:33:20Z</time>
      </trkpt>
      <trkpt lat="45.99531" lon="4.88532">
        <ele>285</ele>
        <time>2018-07-10T09:33:21Z</time>
      </trkpt>
      <trkpt lat="45.99526" lon="4.88523">
        <ele>285</ele>
        <time>2018-07-10T09:33:22Z</time>
      </trkpt>
      <trkpt lat="45.99522" lon="4.88514">
        <ele>285</ele>
        <time>2018-07-10T09:33:23Z</time>
      </trkpt>
      <trkpt lat="45.99518" lon="4.88505">
        <ele>285</ele>
        <time>2018-07-10T09:33:24Z</time>
      </trkpt>
      <trkpt lat="45.99514" lon="4.88496">
        <ele>284</ele>
        <time>2018-07-10T09:33:25Z</time>
      </trkpt>
      <trkpt lat="45.99509" lon="4.88487">
        <ele>284</ele>
        <time>2018-07-10T09:33:26Z</time>
      </trkpt>
      <trkpt lat="45.99504" lon="4.88479">
        <ele>284</ele>
        <time>2018-07-10T09:33:27Z</time>
      </trkpt>
      <trkpt lat="45.995" lon="4.88471">
        <ele>284</ele>
        <time>2018-07-10T09:33:28Z</time>
      </trkpt>
      <trkpt lat="45.99497" lon="4.88462">
        <ele>284</ele>
        <time>2018-07-10T09:33:29Z</time>
      </trkpt>
      <trkpt lat="45.99492" lon="4.88453">
        <ele>284</ele>
        <time>2018-07-10T09:33:30Z</time>
      </trkpt>
      <trkpt lat="45.99487" lon="4.88445">
        <ele>284</ele>
        <time>2018-07-10T09:33:31Z</time>
      </trkpt>
      <trkpt lat="45.99481" lon="4.88437">
        <ele>284</ele>
        <time>2018-07-10T09:33:32Z</time>
      </trkpt>
      <trkpt lat="45.99475" lon="4.8843">
        <ele>284</ele>
        <time>2018-07-10T09:33:33Z</time>
      </trkpt>
      <trkpt lat="45.99468" lon="4.88425">
        <ele>284</ele>
        <time>2018-07-10T09:33:34Z</time>
      </trkpt>
      <trkpt lat="45.99461" lon="4.88418">
        <ele>284</ele>
        <time>2018-07-10T09:33:35Z</time>
      </trkpt>
      <trkpt lat="45.99454" lon="4.88411">
        <ele>283</ele>
        <time>2018-07-10T09:33:36Z</time>
      </trkpt>
      <trkpt lat="45.99447" lon="4.88404">
        <ele>283</ele>
        <time>2018-07-10T09:33:37Z</time>
      </trkpt>
      <trkpt lat="45.9944" lon="4.88396">
        <ele>283</ele>
        <time>2018-07-10T09:33:38Z</time>
      </trkpt>
      <trkpt lat="45.99436" lon="4.88388">
        <ele>283</ele>
        <time>2018-07-10T09:33:39Z</time>
      </trkpt>
      <trkpt lat="45.99432" lon="4.88378">
        <ele>283</ele>
        <time>2018-07-10T09:33:40Z</time>
      </trkpt>
      <trkpt lat="45.99427" lon="4.88369">
        <ele>283</ele>
        <time>2018-07-10T09:33:41Z</time>
      </trkpt>
      <trkpt lat="45.99423" lon="4.88359">
        <ele>283</ele>
        <time>2018-07-10T09:33:42Z</time>
      </trkpt>
      <trkpt lat="45.9942" lon="4.88349">
        <ele>282</ele>
        <time>2018-07-10T09:33:43Z</time>
      </trkpt>
      <trkpt lat="45.99416" lon="4.88338">
        <ele>282</ele>
        <time>2018-07-10T09:33:44Z</time>
      </trkpt>
      <trkpt lat="45.99413" lon="4.88329">
        <ele>282</ele>
        <time>2018-07-10T09:33:45Z</time>
      </trkpt>
      <trkpt lat="45.99409" lon="4.88319">
        <ele>283</ele>
        <time>2018-07-10T09:33:46Z</time>
      </trkpt>
      <trkpt lat="45.99405" lon="4.88309">
        <ele>283</ele>
        <time>2018-07-10T09:33:47Z</time>
      </trkpt>
      <trkpt lat="45.99401" lon="4.88299">
        <ele>284</ele>
        <time>2018-07-10T09:33:48Z</time>
      </trkpt>
      <trkpt lat="45.99397" lon="4.88289">
        <ele>284</ele>
        <time>2018-07-10T09:33:49Z</time>
      </trkpt>
      <trkpt lat="45.99392" lon="4.8828">
        <ele>284</ele>
        <time>2018-07-10T09:33:50Z</time>
      </trkpt>
      <trkpt lat="45.99388" lon="4.88271">
        <ele>285</ele>
        <time>2018-07-10T09:33:51Z</time>
      </trkpt>
      <trkpt lat="45.99384" lon="4.88262">
        <ele>285</ele>
        <time>2018-07-10T09:33:52Z</time>
      </trkpt>
      <trkpt lat="45.9938" lon="4.88254">
        <ele>285</ele>
        <time>2018-07-10T09:33:53Z</time>
      </trkpt>
      <trkpt lat="45.99375" lon="4.88246">
        <ele>287</ele>
        <time>2018-07-10T09:33:54Z</time>
      </trkpt>
      <trkpt lat="45.9937" lon="4.88238">
        <ele>287</ele>
        <time>2018-07-10T09:33:55Z</time>
      </trkpt>
      <trkpt lat="45.99363" lon="4.88231">
        <ele>287</ele>
        <time>2018-07-10T09:33:56Z</time>
      </trkpt>
      <trkpt lat="45.99356" lon="4.88224">
        <ele>287</ele>
        <time>2018-07-10T09:33:57Z</time>
      </trkpt>
      <trkpt lat="45.99349" lon="4.88218">
        <ele>287</ele>
        <time>2018-07-10T09:33:58Z</time>
      </trkpt>
      <trkpt lat="45.99343" lon="4.88211">
        <ele>287</ele>
        <time>2018-07-10T09:33:59Z</time>
      </trkpt>
      <trkpt lat="45.99335" lon="4.88203">
        <ele>288</ele>
        <time>2018-07-10T09:34:00Z</time>
      </trkpt>
      <trkpt lat="45.99328" lon="4.88196">
        <ele>285</ele>
        <time>2018-07-10T09:34:01Z</time>
      </trkpt>
      <trkpt lat="45.99321" lon="4.88189">
        <ele>285</ele>
        <time>2018-07-10T09:34:02Z</time>
      </trkpt>
      <trkpt lat="45.99316" lon="4.88184">
        <ele>285</ele>
        <time>2018-07-10T09:34:03Z</time>
      </trkpt>
      <trkpt lat="45.99309" lon="4.88178">
        <ele>285</ele>
        <time>2018-07-10T09:34:04Z</time>
      </trkpt>
      <trkpt lat="45.99302" lon="4.88171">
        <ele>285</ele>
        <time>2018-07-10T09:34:05Z</time>
      </trkpt>
      <trkpt lat="45.99295" lon="4.88165">
        <ele>284</ele>
        <time>2018-07-10T09:34:06Z</time>
      </trkpt>
      <trkpt lat="45.99287" lon="4.88158">
        <ele>284</ele>
        <time>2018-07-10T09:34:07Z</time>
      </trkpt>
      <trkpt lat="45.99281" lon="4.88152">
        <ele>284</ele>
        <time>2018-07-10T09:34:08Z</time>
      </trkpt>
      <trkpt lat="45.99273" lon="4.88145">
        <ele>283</ele>
        <time>2018-07-10T09:34:09Z</time>
      </trkpt>
      <trkpt lat="45.99266" lon="4.88138">
        <ele>283</ele>
        <time>2018-07-10T09:34:10Z</time>
      </trkpt>
      <trkpt lat="45.99258" lon="4.88132">
        <ele>283</ele>
        <time>2018-07-10T09:34:11Z</time>
      </trkpt>
      <trkpt lat="45.9925" lon="4.88126">
        <ele>280</ele>
        <time>2018-07-10T09:34:12Z</time>
      </trkpt>
      <trkpt lat="45.99243" lon="4.88119">
        <ele>280</ele>
        <time>2018-07-10T09:34:13Z</time>
      </trkpt>
      <trkpt lat="45.99237" lon="4.88113">
        <ele>280</ele>
        <time>2018-07-10T09:34:14Z</time>
      </trkpt>
      <trkpt lat="45.99228" lon="4.88106">
        <ele>280</ele>
        <time>2018-07-10T09:34:15Z</time>
      </trkpt>
      <trkpt lat="45.9922" lon="4.88098">
        <ele>280</ele>
        <time>2018-07-10T09:34:16Z</time>
      </trkpt>
      <trkpt lat="45.99214" lon="4.88091">
        <ele>280</ele>
        <time>2018-07-10T09:34:17Z</time>
      </trkpt>
      <trkpt lat="45.99207" lon="4.88085">
        <ele>280</ele>
        <time>2018-07-10T09:34:18Z</time>
      </trkpt>
      <trkpt lat="45.992" lon="4.88079">
        <ele>280</ele>
        <time>2018-07-10T09:34:19Z</time>
      </trkpt>
      <trkpt lat="45.99193" lon="4.88073">
        <ele>280</ele>
        <time>2018-07-10T09:34:20Z</time>
      </trkpt>
      <trkpt lat="45.99186" lon="4.88066">
        <ele>280</ele>
        <time>2018-07-10T09:34:21Z</time>
      </trkpt>
      <trkpt lat="45.99179" lon="4.88062">
        <ele>279</ele>
        <time>2018-07-10T09:34:22Z</time>
      </trkpt>
      <trkpt lat="45.99171" lon="4.88056">
        <ele>279</ele>
        <time>2018-07-10T09:34:23Z</time>
      </trkpt>
      <trkpt lat="45.99163" lon="4.8805">
        <ele>279</ele>
        <time>2018-07-10T09:34:24Z</time>
      </trkpt>
      <trkpt lat="45.99155" lon="4.88046">
        <ele>279</ele>
        <time>2018-07-10T09:34:25Z</time>
      </trkpt>
      <trkpt lat="45.99147" lon="4.88041">
        <ele>279</ele>
        <time>2018-07-10T09:34:26Z</time>
      </trkpt>
      <trkpt lat="45.9914" lon="4.88036">
        <ele>279</ele>
        <time>2018-07-10T09:34:27Z</time>
      </trkpt>
      <trkpt lat="45.99132" lon="4.88031">
        <ele>279</ele>
        <time>2018-07-10T09:34:28Z</time>
      </trkpt>
      <trkpt lat="45.99122" lon="4.88027">
        <ele>278</ele>
        <time>2018-07-10T09:34:29Z</time>
      </trkpt>
      <trkpt lat="45.99114" lon="4.88023">
        <ele>278</ele>
        <time>2018-07-10T09:34:30Z</time>
      </trkpt>
      <trkpt lat="45.99105" lon="4.88018">
        <ele>278</ele>
        <time>2018-07-10T09:34:31Z</time>
      </trkpt>
      <trkpt lat="45.99098" lon="4.88013">
        <ele>278</ele>
        <time>2018-07-10T09:34:32Z</time>
      </trkpt>
      <trkpt lat="45.9909" lon="4.88009">
        <ele>278</ele>
        <time>2018-07-10T09:34:33Z</time>
      </trkpt>
      <trkpt lat="45.99082" lon="4.88005">
        <ele>278</ele>
        <time>2018-07-10T09:34:34Z</time>
      </trkpt>
      <trkpt lat="45.99076" lon="4.88">
        <ele>278</ele>
        <time>2018-07-10T09:34:35Z</time>
      </trkpt>
      <trkpt lat="45.99068" lon="4.87995">
        <ele>277</ele>
        <time>2018-07-10T09:34:36Z</time>
      </trkpt>
      <trkpt lat="45.99062" lon="4.87989">
        <ele>277</ele>
        <time>2018-07-10T09:34:37Z</time>
      </trkpt>
      <trkpt lat="45.99055" lon="4.87984">
        <ele>277</ele>
        <time>2018-07-10T09:34:38Z</time>
      </trkpt>
      <trkpt lat="45.99048" lon="4.8798">
        <ele>277</ele>
        <time>2018-07-10T09:34:39Z</time>
      </trkpt>
      <trkpt lat="45.99039" lon="4.87976">
        <ele>276</ele>
        <time>2018-07-10T09:34:40Z</time>
      </trkpt>
      <trkpt lat="45.99032" lon="4.87972">
        <ele>276</ele>
        <time>2018-07-10T09:34:41Z</time>
      </trkpt>
      <trkpt lat="45.99024" lon="4.87968">
        <ele>276</ele>
        <time>2018-07-10T09:34:42Z</time>
      </trkpt>
      <trkpt lat="45.99014" lon="4.87962">
        <ele>276</ele>
        <time>2018-07-10T09:34:43Z</time>
      </trkpt>
      <trkpt lat="45.99007" lon="4.87958">
        <ele>276</ele>
        <time>2018-07-10T09:34:44Z</time>
      </trkpt>
      <trkpt lat="45.99" lon="4.87954">
        <ele>274</ele>
        <time>2018-07-10T09:34:45Z</time>
      </trkpt>
      <trkpt lat="45.98992" lon="4.8795">
        <ele>274</ele>
        <time>2018-07-10T09:34:46Z</time>
      </trkpt>
      <trkpt lat="45.98984" lon="4.87946">
        <ele>274</ele>
        <time>2018-07-10T09:34:47Z</time>
      </trkpt>
      <trkpt lat="45.98975" lon="4.87941">
        <ele>274</ele>
        <time>2018-07-10T09:34:48Z</time>
      </trkpt>
      <trkpt lat="45.98969" lon="4.87937">
        <ele>274</ele>
        <time>2018-07-10T09:34:49Z</time>
      </trkpt>
      <trkpt lat="45.98961" lon="4.87932">
        <ele>273</ele>
        <time>2018-07-10T09:34:50Z</time>
      </trkpt>
      <trkpt lat="45.98952" lon="4.87928">
        <ele>273</ele>
        <time>2018-07-10T09:34:51Z</time>
      </trkpt>
      <trkpt lat="45.98945" lon="4.87922">
        <ele>273</ele>
        <time>2018-07-10T09:34:52Z</time>
      </trkpt>
      <trkpt lat="45.98934" lon="4.87918">
        <ele>272</ele>
        <time>2018-07-10T09:34:53Z</time>
      </trkpt>
      <trkpt lat="45.98925" lon="4.87911">
        <ele>272</ele>
        <time>2018-07-10T09:34:54Z</time>
      </trkpt>
      <trkpt lat="45.98917" lon="4.87902">
        <ele>272</ele>
        <time>2018-07-10T09:34:55Z</time>
      </trkpt>
      <trkpt lat="45.98909" lon="4.87894">
        <ele>272</ele>
        <time>2018-07-10T09:34:56Z</time>
      </trkpt>
      <trkpt lat="45.98901" lon="4.87885">
        <ele>272</ele>
        <time>2018-07-10T09:34:57Z</time>
      </trkpt>
      <trkpt lat="45.98894" lon="4.87877">
        <ele>272</ele>
        <time>2018-07-10T09:34:58Z</time>
      </trkpt>
      <trkpt lat="45.98889" lon="4.87867">
        <ele>272</ele>
        <time>2018-07-10T09:34:59Z</time>
      </trkpt>
      <trkpt lat="45.98882" lon="4.87857">
        <ele>272</ele>
        <time>2018-07-10T09:35:00Z</time>
      </trkpt>
      <trkpt lat="45.98875" lon="4.87846">
        <ele>272</ele>
        <time>2018-07-10T09:35:01Z</time>
      </trkpt>
      <trkpt lat="45.9887" lon="4.87835">
        <ele>273</ele>
        <time>2018-07-10T09:35:02Z</time>
      </trkpt>
      <trkpt lat="45.98865" lon="4.87824">
        <ele>273</ele>
        <time>2018-07-10T09:35:03Z</time>
      </trkpt>
      <trkpt lat="45.98863" lon="4.87816">
        <ele>273</ele>
        <time>2018-07-10T09:35:04Z</time>
      </trkpt>
      <trkpt lat="45.98859" lon="4.87805">
        <ele>273</ele>
        <time>2018-07-10T09:35:05Z</time>
      </trkpt>
      <trkpt lat="45.98856" lon="4.87794">
        <ele>273</ele>
        <time>2018-07-10T09:35:06Z</time>
      </trkpt>
      <trkpt lat="45.98852" lon="4.87785">
        <ele>273</ele>
        <time>2018-07-10T09:35:07Z</time>
      </trkpt>
      <trkpt lat="45.9885" lon="4.87773">
        <ele>273</ele>
        <time>2018-07-10T09:35:08Z</time>
      </trkpt>
      <trkpt lat="45.98848" lon="4.87762">
        <ele>273</ele>
        <time>2018-07-10T09:35:09Z</time>
      </trkpt>
      <trkpt lat="45.98844" lon="4.87752">
        <ele>273</ele>
        <time>2018-07-10T09:35:10Z</time>
      </trkpt>
      <trkpt lat="45.98842" lon="4.8774">
        <ele>273</ele>
        <time>2018-07-10T09:35:11Z</time>
      </trkpt>
      <trkpt lat="45.9884" lon="4.87731">
        <ele>273</ele>
        <time>2018-07-10T09:35:12Z</time>
      </trkpt>
      <trkpt lat="45.98838" lon="4.8772">
        <ele>273</ele>
        <time>2018-07-10T09:35:13Z</time>
      </trkpt>
      <trkpt lat="45.98836" lon="4.8771">
        <ele>273</ele>
        <time>2018-07-10T09:35:14Z</time>
      </trkpt>
      <trkpt lat="45.98834" lon="4.877">
        <ele>273</ele>
        <time>2018-07-10T09:35:15Z</time>
      </trkpt>
      <trkpt lat="45.98831" lon="4.87689">
        <ele>273</ele>
        <time>2018-07-10T09:35:16Z</time>
      </trkpt>
      <trkpt lat="45.98829" lon="4.87679">
        <ele>273</ele>
        <time>2018-07-10T09:35:17Z</time>
      </trkpt>
      <trkpt lat="45.98827" lon="4.87668">
        <ele>272</ele>
        <time>2018-07-10T09:35:18Z</time>
      </trkpt>
      <trkpt lat="45.98826" lon="4.87658">
        <ele>272</ele>
        <time>2018-07-10T09:35:19Z</time>
      </trkpt>
      <trkpt lat="45.98823" lon="4.87649">
        <ele>272</ele>
        <time>2018-07-10T09:35:20Z</time>
      </trkpt>
      <trkpt lat="45.9882" lon="4.8764">
        <ele>272</ele>
        <time>2018-07-10T09:35:21Z</time>
      </trkpt>
      <trkpt lat="45.98817" lon="4.8763">
        <ele>271</ele>
        <time>2018-07-10T09:35:22Z</time>
      </trkpt>
      <trkpt lat="45.98815" lon="4.87621">
        <ele>271</ele>
        <time>2018-07-10T09:35:23Z</time>
      </trkpt>
      <trkpt lat="45.9881" lon="4.87614">
        <ele>271</ele>
        <time>2018-07-10T09:35:24Z</time>
      </trkpt>
      <trkpt lat="45.98808" lon="4.87606">
        <ele>271</ele>
        <time>2018-07-10T09:35:25Z</time>
      </trkpt>
      <trkpt lat="45.98802" lon="4.87599">
        <ele>271</ele>
        <time>2018-07-10T09:35:26Z</time>
      </trkpt>
      <trkpt lat="45.98796" lon="4.87592">
        <ele>271</ele>
        <time>2018-07-10T09:35:27Z</time>
      </trkpt>
      <trkpt lat="45.98789" lon="4.87583">
        <ele>269</ele>
        <time>2018-07-10T09:35:28Z</time>
      </trkpt>
      <trkpt lat="45.98786" lon="4.87578">
        <ele>269</ele>
        <time>2018-07-10T09:35:29Z</time>
      </trkpt>
      <trkpt lat="45.98778" lon="4.87573">
        <ele>269</ele>
        <time>2018-07-10T09:35:30Z</time>
      </trkpt>
      <trkpt lat="45.98772" lon="4.87566">
        <ele>269</ele>
        <time>2018-07-10T09:35:31Z</time>
      </trkpt>
      <trkpt lat="45.98766" lon="4.87561">
        <ele>269</ele>
        <time>2018-07-10T09:35:32Z</time>
      </trkpt>
      <trkpt lat="45.98761" lon="4.87555">
        <ele>269</ele>
        <time>2018-07-10T09:35:33Z</time>
      </trkpt>
      <trkpt lat="45.98753" lon="4.87551">
        <ele>269</ele>
        <time>2018-07-10T09:35:34Z</time>
      </trkpt>
      <trkpt lat="45.98744" lon="4.87547">
        <ele>267</ele>
        <time>2018-07-10T09:35:35Z</time>
      </trkpt>
      <trkpt lat="45.98732" lon="4.87544">
        <ele>267</ele>
        <time>2018-07-10T09:35:36Z</time>
      </trkpt>
      <trkpt lat="45.98726" lon="4.87542">
        <ele>267</ele>
        <time>2018-07-10T09:35:37Z</time>
      </trkpt>
      <trkpt lat="45.98721" lon="4.87541">
        <ele>267</ele>
        <time>2018-07-10T09:35:38Z</time>
      </trkpt>
      <trkpt lat="45.98713" lon="4.87544">
        <ele>267</ele>
        <time>2018-07-10T09:35:40Z</time>
      </trkpt>
      <trkpt lat="45.98708" lon="4.87545">
        <ele>267</ele>
        <time>2018-07-10T09:35:41Z</time>
      </trkpt>
      <trkpt lat="45.98701" lon="4.87548">
        <ele>267</ele>
        <time>2018-07-10T09:35:42Z</time>
      </trkpt>
      <trkpt lat="45.98694" lon="4.87551">
        <ele>267</ele>
        <time>2018-07-10T09:35:43Z</time>
      </trkpt>
      <trkpt lat="45.98688" lon="4.87554">
        <ele>267</ele>
        <time>2018-07-10T09:35:44Z</time>
      </trkpt>
      <trkpt lat="45.98682" lon="4.87558">
        <ele>267</ele>
        <time>2018-07-10T09:35:45Z</time>
      </trkpt>
      <trkpt lat="45.98679" lon="4.8756">
        <ele>267</ele>
        <time>2018-07-10T09:35:46Z</time>
      </trkpt>
      <trkpt lat="45.98669" lon="4.87562">
        <ele>267</ele>
        <time>2018-07-10T09:35:47Z</time>
      </trkpt>
      <trkpt lat="45.98661" lon="4.87566">
        <ele>267</ele>
        <time>2018-07-10T09:35:49Z</time>
      </trkpt>
      <trkpt lat="45.98655" lon="4.87567">
        <ele>267</ele>
        <time>2018-07-10T09:35:50Z</time>
      </trkpt>
      <trkpt lat="45.9865" lon="4.87565">
        <ele>267</ele>
        <time>2018-07-10T09:35:51Z</time>
      </trkpt>
      <trkpt lat="45.98647" lon="4.8756">
        <ele>267</ele>
        <time>2018-07-10T09:35:52Z</time>
      </trkpt>
      <trkpt lat="45.98647" lon="4.8756">
        <ele>267</ele>
        <time>2018-07-10T09:35:53Z</time>
      </trkpt>
      <trkpt lat="45.98647" lon="4.87547">
        <ele>267</ele>
        <time>2018-07-10T09:35:54Z</time>
      </trkpt>
      <trkpt lat="45.98646" lon="4.87536">
        <ele>267</ele>
        <time>2018-07-10T09:35:56Z</time>
      </trkpt>
      <trkpt lat="45.98644" lon="4.87527">
        <ele>267</ele>
        <time>2018-07-10T09:35:57Z</time>
      </trkpt>
      <trkpt lat="45.98642" lon="4.87521">
        <ele>267</ele>
        <time>2018-07-10T09:35:58Z</time>
      </trkpt>
      <trkpt lat="45.98641" lon="4.87515">
        <ele>267</ele>
        <time>2018-07-10T09:35:59Z</time>
      </trkpt>
      <trkpt lat="45.98636" lon="4.87506">
        <ele>267</ele>
        <time>2018-07-10T09:36:00Z</time>
      </trkpt>
      <trkpt lat="45.98634" lon="4.87498">
        <ele>267</ele>
        <time>2018-07-10T09:36:01Z</time>
      </trkpt>
      <trkpt lat="45.98634" lon="4.87491">
        <ele>267</ele>
        <time>2018-07-10T09:36:02Z</time>
      </trkpt>
      <trkpt lat="45.98634" lon="4.87485">
        <ele>268</ele>
        <time>2018-07-10T09:36:03Z</time>
      </trkpt>
      <trkpt lat="45.98632" lon="4.87478">
        <ele>268</ele>
        <time>2018-07-10T09:36:04Z</time>
      </trkpt>
      <trkpt lat="45.9863" lon="4.8747">
        <ele>268</ele>
        <time>2018-07-10T09:36:05Z</time>
      </trkpt>
      <trkpt lat="45.98628" lon="4.87464">
        <ele>268</ele>
        <time>2018-07-10T09:36:06Z</time>
      </trkpt>
      <trkpt lat="45.98627" lon="4.87458">
        <ele>268</ele>
        <time>2018-07-10T09:36:07Z</time>
      </trkpt>
      <trkpt lat="45.98623" lon="4.87451">
        <ele>268</ele>
        <time>2018-07-10T09:36:08Z</time>
      </trkpt>
      <trkpt lat="45.98623" lon="4.87444">
        <ele>269</ele>
        <time>2018-07-10T09:36:09Z</time>
      </trkpt>
      <trkpt lat="45.98621" lon="4.87432">
        <ele>269</ele>
        <time>2018-07-10T09:36:11Z</time>
      </trkpt>
      <trkpt lat="45.9862" lon="4.87425">
        <ele>269</ele>
        <time>2018-07-10T09:36:12Z</time>
      </trkpt>
      <trkpt lat="45.98618" lon="4.87413">
        <ele>271</ele>
        <time>2018-07-10T09:36:14Z</time>
      </trkpt>
      <trkpt lat="45.98617" lon="4.87407">
        <ele>271</ele>
        <time>2018-07-10T09:36:15Z</time>
      </trkpt>
      <trkpt lat="45.98616" lon="4.87395">
        <ele>271</ele>
        <time>2018-07-10T09:36:17Z</time>
      </trkpt>
      <trkpt lat="45.98617" lon="4.8739">
        <ele>271</ele>
        <time>2018-07-10T09:36:18Z</time>
      </trkpt>
      <trkpt lat="45.98614" lon="4.87378">
        <ele>271</ele>
        <time>2018-07-10T09:36:20Z</time>
      </trkpt>
      <trkpt lat="45.98614" lon="4.87373">
        <ele>271</ele>
        <time>2018-07-10T09:36:21Z</time>
      </trkpt>
      <trkpt lat="45.98612" lon="4.87361">
        <ele>272</ele>
        <time>2018-07-10T09:36:23Z</time>
      </trkpt>
      <trkpt lat="45.98611" lon="4.87355">
        <ele>272</ele>
        <time>2018-07-10T09:36:24Z</time>
      </trkpt>
      <trkpt lat="45.9861" lon="4.87343">
        <ele>272</ele>
        <time>2018-07-10T09:36:26Z</time>
      </trkpt>
      <trkpt lat="45.9861" lon="4.87337">
        <ele>272</ele>
        <time>2018-07-10T09:36:27Z</time>
      </trkpt>
      <trkpt lat="45.98608" lon="4.87327">
        <ele>274</ele>
        <time>2018-07-10T09:36:29Z</time>
      </trkpt>
      <trkpt lat="45.98607" lon="4.87321">
        <ele>274</ele>
        <time>2018-07-10T09:36:30Z</time>
      </trkpt>
      <trkpt lat="45.98607" lon="4.8731">
        <ele>274</ele>
        <time>2018-07-10T09:36:32Z</time>
      </trkpt>
      <trkpt lat="45.98607" lon="4.87304">
        <ele>274</ele>
        <time>2018-07-10T09:36:33Z</time>
      </trkpt>
      <trkpt lat="45.98607" lon="4.87292">
        <ele>275</ele>
        <time>2018-07-10T09:36:35Z</time>
      </trkpt>
      <trkpt lat="45.98608" lon="4.87286">
        <ele>275</ele>
        <time>2018-07-10T09:36:36Z</time>
      </trkpt>
      <trkpt lat="45.9861" lon="4.87275">
        <ele>275</ele>
        <time>2018-07-10T09:36:38Z</time>
      </trkpt>
      <trkpt lat="45.98611" lon="4.8727">
        <ele>275</ele>
        <time>2018-07-10T09:36:39Z</time>
      </trkpt>
      <trkpt lat="45.98612" lon="4.87264">
        <ele>275</ele>
        <time>2018-07-10T09:36:40Z</time>
      </trkpt>
      <trkpt lat="45.98608" lon="4.87256">
        <ele>275</ele>
        <time>2018-07-10T09:36:41Z</time>
      </trkpt>
      <trkpt lat="45.9861" lon="4.87248">
        <ele>277</ele>
        <time>2018-07-10T09:36:43Z</time>
      </trkpt>
      <trkpt lat="45.98606" lon="4.87241">
        <ele>277</ele>
        <time>2018-07-10T09:36:44Z</time>
      </trkpt>
      <trkpt lat="45.98609" lon="4.8723">
        <ele>277</ele>
        <time>2018-07-10T09:36:46Z</time>
      </trkpt>
      <trkpt lat="45.9861" lon="4.87229">
        <ele>277</ele>
        <time>2018-07-10T09:36:47Z</time>
      </trkpt>
      <trkpt lat="45.98611" lon="4.87218">
        <ele>277</ele>
        <time>2018-07-10T09:36:49Z</time>
      </trkpt>
      <trkpt lat="45.98608" lon="4.87215">
        <ele>277</ele>
        <time>2018-07-10T09:36:50Z</time>
      </trkpt>
      <trkpt lat="45.98606" lon="4.87205">
        <ele>277</ele>
        <time>2018-07-10T09:36:51Z</time>
      </trkpt>
      <trkpt lat="45.98606" lon="4.87196">
        <ele>277</ele>
        <time>2018-07-10T09:36:52Z</time>
      </trkpt>
      <trkpt lat="45.98606" lon="4.87187">
        <ele>277</ele>
        <time>2018-07-10T09:36:53Z</time>
      </trkpt>
      <trkpt lat="45.98607" lon="4.87181">
        <ele>277</ele>
        <time>2018-07-10T09:36:54Z</time>
      </trkpt>
      <trkpt lat="45.98609" lon="4.87173">
        <ele>278</ele>
        <time>2018-07-10T09:36:55Z</time>
      </trkpt>
      <trkpt lat="45.98611" lon="4.87166">
        <ele>278</ele>
        <time>2018-07-10T09:36:56Z</time>
      </trkpt>
      <trkpt lat="45.98611" lon="4.87155">
        <ele>278</ele>
        <time>2018-07-10T09:36:58Z</time>
      </trkpt>
      <trkpt lat="45.9861" lon="4.87146">
        <ele>278</ele>
        <time>2018-07-10T09:36:59Z</time>
      </trkpt>
      <trkpt lat="45.98613" lon="4.87139">
        <ele>279</ele>
        <time>2018-07-10T09:37:00Z</time>
      </trkpt>
      <trkpt lat="45.98612" lon="4.87133">
        <ele>279</ele>
        <time>2018-07-10T09:37:01Z</time>
      </trkpt>
      <trkpt lat="45.98612" lon="4.87124">
        <ele>279</ele>
        <time>2018-07-10T09:37:02Z</time>
      </trkpt>
      <trkpt lat="45.98611" lon="4.87118">
        <ele>279</ele>
        <time>2018-07-10T09:37:03Z</time>
      </trkpt>
      <trkpt lat="45.98612" lon="4.87113">
        <ele>279</ele>
        <time>2018-07-10T09:37:04Z</time>
      </trkpt>
      <trkpt lat="45.98608" lon="4.87105">
        <ele>279</ele>
        <time>2018-07-10T09:37:05Z</time>
      </trkpt>
      <trkpt lat="45.98606" lon="4.87093">
        <ele>279</ele>
        <time>2018-07-10T09:37:07Z</time>
      </trkpt>
      <trkpt lat="45.98604" lon="4.87085">
        <ele>279</ele>
        <time>2018-07-10T09:37:08Z</time>
      </trkpt>
      <trkpt lat="45.98604" lon="4.87074">
        <ele>279</ele>
        <time>2018-07-10T09:37:10Z</time>
      </trkpt>
      <trkpt lat="45.98602" lon="4.87068">
        <ele>279</ele>
        <time>2018-07-10T09:37:11Z</time>
      </trkpt>
      <trkpt lat="45.986" lon="4.87056">
        <ele>279</ele>
        <time>2018-07-10T09:37:13Z</time>
      </trkpt>
      <trkpt lat="45.98598" lon="4.87049">
        <ele>279</ele>
        <time>2018-07-10T09:37:14Z</time>
      </trkpt>
      <trkpt lat="45.98593" lon="4.87042">
        <ele>279</ele>
        <time>2018-07-10T09:37:15Z</time>
      </trkpt>
      <trkpt lat="45.98592" lon="4.87036">
        <ele>279</ele>
        <time>2018-07-10T09:37:16Z</time>
      </trkpt>
      <trkpt lat="45.9859" lon="4.87025">
        <ele>279</ele>
        <time>2018-07-10T09:37:18Z</time>
      </trkpt>
      <trkpt lat="45.9859" lon="4.87019">
        <ele>279</ele>
        <time>2018-07-10T09:37:19Z</time>
      </trkpt>
      <trkpt lat="45.9859" lon="4.87007">
        <ele>279</ele>
        <time>2018-07-10T09:37:21Z</time>
      </trkpt>
      <trkpt lat="45.98588" lon="4.87001">
        <ele>280</ele>
        <time>2018-07-10T09:37:22Z</time>
      </trkpt>
      <trkpt lat="45.98588" lon="4.86989">
        <ele>279</ele>
        <time>2018-07-10T09:37:24Z</time>
      </trkpt>
      <trkpt lat="45.98587" lon="4.8698">
        <ele>279</ele>
        <time>2018-07-10T09:37:25Z</time>
      </trkpt>
      <trkpt lat="45.98587" lon="4.86967">
        <ele>279</ele>
        <time>2018-07-10T09:37:27Z</time>
      </trkpt>
      <trkpt lat="45.98588" lon="4.86961">
        <ele>279</ele>
        <time>2018-07-10T09:37:28Z</time>
      </trkpt>
      <trkpt lat="45.98589" lon="4.86956">
        <ele>279</ele>
        <time>2018-07-10T09:37:29Z</time>
      </trkpt>
      <trkpt lat="45.98589" lon="4.86948">
        <ele>278</ele>
        <time>2018-07-10T09:37:30Z</time>
      </trkpt>
      <trkpt lat="45.9859" lon="4.86942">
        <ele>278</ele>
        <time>2018-07-10T09:37:31Z</time>
      </trkpt>
      <trkpt lat="45.98591" lon="4.86936">
        <ele>279</ele>
        <time>2018-07-10T09:37:32Z</time>
      </trkpt>
      <trkpt lat="45.98593" lon="4.86929">
        <ele>279</ele>
        <time>2018-07-10T09:37:33Z</time>
      </trkpt>
      <trkpt lat="45.98593" lon="4.86922">
        <ele>279</ele>
        <time>2018-07-10T09:37:34Z</time>
      </trkpt>
      <trkpt lat="45.98591" lon="4.86915">
        <ele>278</ele>
        <time>2018-07-10T09:37:35Z</time>
      </trkpt>
      <trkpt lat="45.98592" lon="4.86908">
        <ele>278</ele>
        <time>2018-07-10T09:37:36Z</time>
      </trkpt>
      <trkpt lat="45.98592" lon="4.86902">
        <ele>278</ele>
        <time>2018-07-10T09:37:37Z</time>
      </trkpt>
      <trkpt lat="45.98597" lon="4.86897">
        <ele>278</ele>
        <time>2018-07-10T09:37:38Z</time>
      </trkpt>
      <trkpt lat="45.98594" lon="4.86886">
        <ele>278</ele>
        <time>2018-07-10T09:37:40Z</time>
      </trkpt>
      <trkpt lat="45.98594" lon="4.8688">
        <ele>277</ele>
        <time>2018-07-10T09:37:41Z</time>
      </trkpt>
      <trkpt lat="45.98593" lon="4.86873">
        <ele>277</ele>
        <time>2018-07-10T09:37:42Z</time>
      </trkpt>
      <trkpt lat="45.98593" lon="4.86867">
        <ele>277</ele>
        <time>2018-07-10T09:37:43Z</time>
      </trkpt>
      <trkpt lat="45.98591" lon="4.8686">
        <ele>277</ele>
        <time>2018-07-10T09:37:44Z</time>
      </trkpt>
      <trkpt lat="45.98591" lon="4.86854">
        <ele>277</ele>
        <time>2018-07-10T09:37:45Z</time>
      </trkpt>
      <trkpt lat="45.9859" lon="4.86842">
        <ele>277</ele>
        <time>2018-07-10T09:37:47Z</time>
      </trkpt>
      <trkpt lat="45.98589" lon="4.86836">
        <ele>277</ele>
        <time>2018-07-10T09:37:48Z</time>
      </trkpt>
      <trkpt lat="45.9859" lon="4.86826">
        <ele>277</ele>
        <time>2018-07-10T09:37:50Z</time>
      </trkpt>
      <trkpt lat="45.98588" lon="4.8682">
        <ele>276</ele>
        <time>2018-07-10T09:37:51Z</time>
      </trkpt>
      <trkpt lat="45.98586" lon="4.86808">
        <ele>276</ele>
        <time>2018-07-10T09:37:53Z</time>
      </trkpt>
      <trkpt lat="45.98585" lon="4.86802">
        <ele>276</ele>
        <time>2018-07-10T09:37:54Z</time>
      </trkpt>
      <trkpt lat="45.98584" lon="4.86796">
        <ele>276</ele>
        <time>2018-07-10T09:37:55Z</time>
      </trkpt>
      <trkpt lat="45.98583" lon="4.86789">
        <ele>276</ele>
        <time>2018-07-10T09:37:56Z</time>
      </trkpt>
      <trkpt lat="45.98582" lon="4.86783">
        <ele>277</ele>
        <time>2018-07-10T09:37:57Z</time>
      </trkpt>
      <trkpt lat="45.98581" lon="4.86775">
        <ele>277</ele>
        <time>2018-07-10T09:37:58Z</time>
      </trkpt>
      <trkpt lat="45.9858" lon="4.86769">
        <ele>277</ele>
        <time>2018-07-10T09:37:59Z</time>
      </trkpt>
      <trkpt lat="45.98578" lon="4.86762">
        <ele>277</ele>
        <time>2018-07-10T09:38:00Z</time>
      </trkpt>
      <trkpt lat="45.98577" lon="4.86755">
        <ele>277</ele>
        <time>2018-07-10T09:38:01Z</time>
      </trkpt>
      <trkpt lat="45.98576" lon="4.86748">
        <ele>276</ele>
        <time>2018-07-10T09:38:02Z</time>
      </trkpt>
      <trkpt lat="45.98576" lon="4.86741">
        <ele>277</ele>
        <time>2018-07-10T09:38:03Z</time>
      </trkpt>
      <trkpt lat="45.98574" lon="4.86735">
        <ele>277</ele>
        <time>2018-07-10T09:38:04Z</time>
      </trkpt>
      <trkpt lat="45.98574" lon="4.86727">
        <ele>277</ele>
        <time>2018-07-10T09:38:05Z</time>
      </trkpt>
      <trkpt lat="45.98573" lon="4.86719">
        <ele>277</ele>
        <time>2018-07-10T09:38:06Z</time>
      </trkpt>
      <trkpt lat="45.98572" lon="4.86711">
        <ele>277</ele>
        <time>2018-07-10T09:38:07Z</time>
      </trkpt>
      <trkpt lat="45.98573" lon="4.86705">
        <ele>277</ele>
        <time>2018-07-10T09:38:08Z</time>
      </trkpt>
      <trkpt lat="45.98573" lon="4.86698">
        <ele>277</ele>
        <time>2018-07-10T09:38:09Z</time>
      </trkpt>
      <trkpt lat="45.98573" lon="4.86691">
        <ele>277</ele>
        <time>2018-07-10T09:38:10Z</time>
      </trkpt>
      <trkpt lat="45.98572" lon="4.86684">
        <ele>276</ele>
        <time>2018-07-10T09:38:11Z</time>
      </trkpt>
      <trkpt lat="45.98571" lon="4.86677">
        <ele>276</ele>
        <time>2018-07-10T09:38:12Z</time>
      </trkpt>
      <trkpt lat="45.9857" lon="4.8667">
        <ele>276</ele>
        <time>2018-07-10T09:38:13Z</time>
      </trkpt>
      <trkpt lat="45.98569" lon="4.86664">
        <ele>276</ele>
        <time>2018-07-10T09:38:14Z</time>
      </trkpt>
      <trkpt lat="45.98569" lon="4.86657">
        <ele>277</ele>
        <time>2018-07-10T09:38:15Z</time>
      </trkpt>
      <trkpt lat="45.98568" lon="4.8665">
        <ele>277</ele>
        <time>2018-07-10T09:38:16Z</time>
      </trkpt>
      <trkpt lat="45.98567" lon="4.86642">
        <ele>277</ele>
        <time>2018-07-10T09:38:17Z</time>
      </trkpt>
      <trkpt lat="45.98565" lon="4.86636">
        <ele>277</ele>
        <time>2018-07-10T09:38:18Z</time>
      </trkpt>
      <trkpt lat="45.98563" lon="4.86628">
        <ele>278</ele>
        <time>2018-07-10T09:38:19Z</time>
      </trkpt>
      <trkpt lat="45.98564" lon="4.86621">
        <ele>278</ele>
        <time>2018-07-10T09:38:20Z</time>
      </trkpt>
      <trkpt lat="45.98564" lon="4.86613">
        <ele>278</ele>
        <time>2018-07-10T09:38:21Z</time>
      </trkpt>
      <trkpt lat="45.98562" lon="4.86607">
        <ele>278</ele>
        <time>2018-07-10T09:38:22Z</time>
      </trkpt>
      <trkpt lat="45.98559" lon="4.866">
        <ele>278</ele>
        <time>2018-07-10T09:38:23Z</time>
      </trkpt>
      <trkpt lat="45.98558" lon="4.86592">
        <ele>278</ele>
        <time>2018-07-10T09:38:24Z</time>
      </trkpt>
      <trkpt lat="45.98556" lon="4.86584">
        <ele>278</ele>
        <time>2018-07-10T09:38:25Z</time>
      </trkpt>
      <trkpt lat="45.98554" lon="4.86577">
        <ele>278</ele>
        <time>2018-07-10T09:38:26Z</time>
      </trkpt>
      <trkpt lat="45.98552" lon="4.86571">
        <ele>278</ele>
        <time>2018-07-10T09:38:27Z</time>
      </trkpt>
      <trkpt lat="45.98551" lon="4.86564">
        <ele>278</ele>
        <time>2018-07-10T09:38:28Z</time>
      </trkpt>
      <trkpt lat="45.98547" lon="4.86557">
        <ele>278</ele>
        <time>2018-07-10T09:38:29Z</time>
      </trkpt>
      <trkpt lat="45.98544" lon="4.86551">
        <ele>278</ele>
        <time>2018-07-10T09:38:30Z</time>
      </trkpt>
      <trkpt lat="45.98539" lon="4.86545">
        <ele>278</ele>
        <time>2018-07-10T09:38:31Z</time>
      </trkpt>
      <trkpt lat="45.98535" lon="4.8654">
        <ele>278</ele>
        <time>2018-07-10T09:38:32Z</time>
      </trkpt>
      <trkpt lat="45.98531" lon="4.86534">
        <ele>279</ele>
        <time>2018-07-10T09:38:33Z</time>
      </trkpt>
      <trkpt lat="45.98528" lon="4.86528">
        <ele>279</ele>
        <time>2018-07-10T09:38:34Z</time>
      </trkpt>
      <trkpt lat="45.98526" lon="4.86521">
        <ele>279</ele>
        <time>2018-07-10T09:38:35Z</time>
      </trkpt>
      <trkpt lat="45.98523" lon="4.86515">
        <ele>279</ele>
        <time>2018-07-10T09:38:36Z</time>
      </trkpt>
      <trkpt lat="45.98519" lon="4.86509">
        <ele>279</ele>
        <time>2018-07-10T09:38:37Z</time>
      </trkpt>
      <trkpt lat="45.98516" lon="4.86503">
        <ele>279</ele>
        <time>2018-07-10T09:38:38Z</time>
      </trkpt>
      <trkpt lat="45.98513" lon="4.86497">
        <ele>279</ele>
        <time>2018-07-10T09:38:39Z</time>
      </trkpt>
      <trkpt lat="45.9851" lon="4.86491">
        <ele>279</ele>
        <time>2018-07-10T09:38:40Z</time>
      </trkpt>
      <trkpt lat="45.98506" lon="4.86484">
        <ele>279</ele>
        <time>2018-07-10T09:38:41Z</time>
      </trkpt>
      <trkpt lat="45.98502" lon="4.86479">
        <ele>278</ele>
        <time>2018-07-10T09:38:42Z</time>
      </trkpt>
      <trkpt lat="45.98499" lon="4.86474">
        <ele>279</ele>
        <time>2018-07-10T09:38:43Z</time>
      </trkpt>
      <trkpt lat="45.98496" lon="4.86467">
        <ele>279</ele>
        <time>2018-07-10T09:38:44Z</time>
      </trkpt>
      <trkpt lat="45.98493" lon="4.86456">
        <ele>278</ele>
        <time>2018-07-10T09:38:46Z</time>
      </trkpt>
      <trkpt lat="45.9849" lon="4.86449">
        <ele>278</ele>
        <time>2018-07-10T09:38:47Z</time>
      </trkpt>
      <trkpt lat="45.98486" lon="4.86444">
        <ele>278</ele>
        <time>2018-07-10T09:38:48Z</time>
      </trkpt>
      <trkpt lat="45.98483" lon="4.86438">
        <ele>278</ele>
        <time>2018-07-10T09:38:49Z</time>
      </trkpt>
      <trkpt lat="45.9848" lon="4.86433">
        <ele>278</ele>
        <time>2018-07-10T09:38:50Z</time>
      </trkpt>
      <trkpt lat="45.98478" lon="4.86427">
        <ele>278</ele>
        <time>2018-07-10T09:38:51Z</time>
      </trkpt>
      <trkpt lat="45.98474" lon="4.8642">
        <ele>278</ele>
        <time>2018-07-10T09:38:52Z</time>
      </trkpt>
      <trkpt lat="45.98473" lon="4.86414">
        <ele>277</ele>
        <time>2018-07-10T09:38:53Z</time>
      </trkpt>
      <trkpt lat="45.9847" lon="4.86407">
        <ele>277</ele>
        <time>2018-07-10T09:38:54Z</time>
      </trkpt>
      <trkpt lat="45.98468" lon="4.86401">
        <ele>277</ele>
        <time>2018-07-10T09:38:55Z</time>
      </trkpt>
      <trkpt lat="45.98466" lon="4.86393">
        <ele>277</ele>
        <time>2018-07-10T09:38:56Z</time>
      </trkpt>
      <trkpt lat="45.98463" lon="4.86387">
        <ele>277</ele>
        <time>2018-07-10T09:38:57Z</time>
      </trkpt>
      <trkpt lat="45.98458" lon="4.8638">
        <ele>277</ele>
        <time>2018-07-10T09:38:58Z</time>
      </trkpt>
      <trkpt lat="45.98457" lon="4.86373">
        <ele>277</ele>
        <time>2018-07-10T09:38:59Z</time>
      </trkpt>
      <trkpt lat="45.98455" lon="4.86367">
        <ele>277</ele>
        <time>2018-07-10T09:39:00Z</time>
      </trkpt>
      <trkpt lat="45.98453" lon="4.8636">
        <ele>277</ele>
        <time>2018-07-10T09:39:01Z</time>
      </trkpt>
      <trkpt lat="45.9845" lon="4.86353">
        <ele>277</ele>
        <time>2018-07-10T09:39:02Z</time>
      </trkpt>
      <trkpt lat="45.98448" lon="4.86346">
        <ele>277</ele>
        <time>2018-07-10T09:39:03Z</time>
      </trkpt>
      <trkpt lat="45.98447" lon="4.86338">
        <ele>277</ele>
        <time>2018-07-10T09:39:04Z</time>
      </trkpt>
      <trkpt lat="45.98443" lon="4.8633">
        <ele>276</ele>
        <time>2018-07-10T09:39:05Z</time>
      </trkpt>
      <trkpt lat="45.98441" lon="4.86324">
        <ele>276</ele>
        <time>2018-07-10T09:39:06Z</time>
      </trkpt>
      <trkpt lat="45.98442" lon="4.86317">
        <ele>276</ele>
        <time>2018-07-10T09:39:07Z</time>
      </trkpt>
      <trkpt lat="45.98441" lon="4.8631">
        <ele>276</ele>
        <time>2018-07-10T09:39:08Z</time>
      </trkpt>
      <trkpt lat="45.98444" lon="4.86303">
        <ele>276</ele>
        <time>2018-07-10T09:39:09Z</time>
      </trkpt>
      <trkpt lat="45.98445" lon="4.86295">
        <ele>276</ele>
        <time>2018-07-10T09:39:10Z</time>
      </trkpt>
      <trkpt lat="45.98446" lon="4.86288">
        <ele>276</ele>
        <time>2018-07-10T09:39:11Z</time>
      </trkpt>
      <trkpt lat="45.98445" lon="4.86281">
        <ele>276</ele>
        <time>2018-07-10T09:39:12Z</time>
      </trkpt>
      <trkpt lat="45.98444" lon="4.86275">
        <ele>276</ele>
        <time>2018-07-10T09:39:13Z</time>
      </trkpt>
      <trkpt lat="45.98446" lon="4.86264">
        <ele>275</ele>
        <time>2018-07-10T09:39:15Z</time>
      </trkpt>
      <trkpt lat="45.98444" lon="4.86257">
        <ele>275</ele>
        <time>2018-07-10T09:39:16Z</time>
      </trkpt>
      <trkpt lat="45.98442" lon="4.86246">
        <ele>275</ele>
        <time>2018-07-10T09:39:18Z</time>
      </trkpt>
      <trkpt lat="45.9844" lon="4.86241">
        <ele>275</ele>
        <time>2018-07-10T09:39:19Z</time>
      </trkpt>
      <trkpt lat="45.98437" lon="4.8623">
        <ele>275</ele>
        <time>2018-07-10T09:39:21Z</time>
      </trkpt>
      <trkpt lat="45.98436" lon="4.86225">
        <ele>275</ele>
        <time>2018-07-10T09:39:22Z</time>
      </trkpt>
      <trkpt lat="45.98434" lon="4.86215">
        <ele>275</ele>
        <time>2018-07-10T09:39:24Z</time>
      </trkpt>
      <trkpt lat="45.98432" lon="4.86209">
        <ele>275</ele>
        <time>2018-07-10T09:39:25Z</time>
      </trkpt>
      <trkpt lat="45.98429" lon="4.86198">
        <ele>275</ele>
        <time>2018-07-10T09:39:27Z</time>
      </trkpt>
      <trkpt lat="45.98428" lon="4.86192">
        <ele>275</ele>
        <time>2018-07-10T09:39:28Z</time>
      </trkpt>
      <trkpt lat="45.98427" lon="4.86186">
        <ele>275</ele>
        <time>2018-07-10T09:39:29Z</time>
      </trkpt>
      <trkpt lat="45.98426" lon="4.86179">
        <ele>275</ele>
        <time>2018-07-10T09:39:30Z</time>
      </trkpt>
      <trkpt lat="45.98423" lon="4.86167">
        <ele>276</ele>
        <time>2018-07-10T09:39:32Z</time>
      </trkpt>
      <trkpt lat="45.98421" lon="4.86161">
        <ele>276</ele>
        <time>2018-07-10T09:39:33Z</time>
      </trkpt>
      <trkpt lat="45.98419" lon="4.86149">
        <ele>276</ele>
        <time>2018-07-10T09:39:35Z</time>
      </trkpt>
      <trkpt lat="45.98418" lon="4.86143">
        <ele>276</ele>
        <time>2018-07-10T09:39:36Z</time>
      </trkpt>
      <trkpt lat="45.98415" lon="4.86136">
        <ele>276</ele>
        <time>2018-07-10T09:39:37Z</time>
      </trkpt>
      <trkpt lat="45.98414" lon="4.8613">
        <ele>276</ele>
        <time>2018-07-10T09:39:38Z</time>
      </trkpt>
      <trkpt lat="45.98414" lon="4.86122">
        <ele>277</ele>
        <time>2018-07-10T09:39:39Z</time>
      </trkpt>
      <trkpt lat="45.98413" lon="4.86115">
        <ele>277</ele>
        <time>2018-07-10T09:39:40Z</time>
      </trkpt>
      <trkpt lat="45.98412" lon="4.86107">
        <ele>277</ele>
        <time>2018-07-10T09:39:41Z</time>
      </trkpt>
      <trkpt lat="45.9841" lon="4.86099">
        <ele>277</ele>
        <time>2018-07-10T09:39:42Z</time>
      </trkpt>
      <trkpt lat="45.98409" lon="4.8609">
        <ele>277</ele>
        <time>2018-07-10T09:39:43Z</time>
      </trkpt>
      <trkpt lat="45.98406" lon="4.8608">
        <ele>277</ele>
        <time>2018-07-10T09:39:44Z</time>
      </trkpt>
      <trkpt lat="45.98404" lon="4.8607">
        <ele>277</ele>
        <time>2018-07-10T09:39:45Z</time>
      </trkpt>
      <trkpt lat="45.98402" lon="4.8606">
        <ele>277</ele>
        <time>2018-07-10T09:39:46Z</time>
      </trkpt>
      <trkpt lat="45.984" lon="4.8605">
        <ele>277</ele>
        <time>2018-07-10T09:39:47Z</time>
      </trkpt>
      <trkpt lat="45.98396" lon="4.8604">
        <ele>277</ele>
        <time>2018-07-10T09:39:48Z</time>
      </trkpt>
      <trkpt lat="45.98394" lon="4.8603">
        <ele>277</ele>
        <time>2018-07-10T09:39:49Z</time>
      </trkpt>
      <trkpt lat="45.9839" lon="4.8602">
        <ele>277</ele>
        <time>2018-07-10T09:39:50Z</time>
      </trkpt>
      <trkpt lat="45.98387" lon="4.86011">
        <ele>277</ele>
        <time>2018-07-10T09:39:51Z</time>
      </trkpt>
      <trkpt lat="45.98384" lon="4.86002">
        <ele>277</ele>
        <time>2018-07-10T09:39:52Z</time>
      </trkpt>
      <trkpt lat="45.98379" lon="4.85993">
        <ele>277</ele>
        <time>2018-07-10T09:39:53Z</time>
      </trkpt>
      <trkpt lat="45.98376" lon="4.85984">
        <ele>276</ele>
        <time>2018-07-10T09:39:54Z</time>
      </trkpt>
      <trkpt lat="45.98373" lon="4.85977">
        <ele>276</ele>
        <time>2018-07-10T09:39:55Z</time>
      </trkpt>
      <trkpt lat="45.98369" lon="4.85969">
        <ele>276</ele>
        <time>2018-07-10T09:39:56Z</time>
      </trkpt>
      <trkpt lat="45.98368" lon="4.85961">
        <ele>276</ele>
        <time>2018-07-10T09:39:57Z</time>
      </trkpt>
      <trkpt lat="45.98364" lon="4.85954">
        <ele>276</ele>
        <time>2018-07-10T09:39:58Z</time>
      </trkpt>
      <trkpt lat="45.98363" lon="4.85941">
        <ele>276</ele>
        <time>2018-07-10T09:40:00Z</time>
      </trkpt>
      <trkpt lat="45.98359" lon="4.85933">
        <ele>276</ele>
        <time>2018-07-10T09:40:01Z</time>
      </trkpt>
      <trkpt lat="45.98356" lon="4.85925">
        <ele>276</ele>
        <time>2018-07-10T09:40:02Z</time>
      </trkpt>
      <trkpt lat="45.98353" lon="4.85918">
        <ele>276</ele>
        <time>2018-07-10T09:40:03Z</time>
      </trkpt>
      <trkpt lat="45.98345" lon="4.85909">
        <ele>276</ele>
        <time>2018-07-10T09:40:04Z</time>
      </trkpt>
      <trkpt lat="45.98341" lon="4.85902">
        <ele>276</ele>
        <time>2018-07-10T09:40:05Z</time>
      </trkpt>
      <trkpt lat="45.98341" lon="4.85895">
        <ele>276</ele>
        <time>2018-07-10T09:40:06Z</time>
      </trkpt>
      <trkpt lat="45.98337" lon="4.85887">
        <ele>276</ele>
        <time>2018-07-10T09:40:07Z</time>
      </trkpt>
      <trkpt lat="45.98335" lon="4.85878">
        <ele>276</ele>
        <time>2018-07-10T09:40:08Z</time>
      </trkpt>
      <trkpt lat="45.98334" lon="4.85871">
        <ele>276</ele>
        <time>2018-07-10T09:40:09Z</time>
      </trkpt>
      <trkpt lat="45.9833" lon="4.85863">
        <ele>276</ele>
        <time>2018-07-10T09:40:10Z</time>
      </trkpt>
      <trkpt lat="45.98326" lon="4.85855">
        <ele>276</ele>
        <time>2018-07-10T09:40:11Z</time>
      </trkpt>
      <trkpt lat="45.98325" lon="4.85847">
        <ele>276</ele>
        <time>2018-07-10T09:40:12Z</time>
      </trkpt>
      <trkpt lat="45.98322" lon="4.85839">
        <ele>276</ele>
        <time>2018-07-10T09:40:13Z</time>
      </trkpt>
      <trkpt lat="45.98317" lon="4.85832">
        <ele>276</ele>
        <time>2018-07-10T09:40:14Z</time>
      </trkpt>
      <trkpt lat="45.98316" lon="4.85824">
        <ele>275</ele>
        <time>2018-07-10T09:40:15Z</time>
      </trkpt>
      <trkpt lat="45.98311" lon="4.85816">
        <ele>275</ele>
        <time>2018-07-10T09:40:16Z</time>
      </trkpt>
      <trkpt lat="45.98309" lon="4.85809">
        <ele>275</ele>
        <time>2018-07-10T09:40:17Z</time>
      </trkpt>
      <trkpt lat="45.98306" lon="4.85801">
        <ele>275</ele>
        <time>2018-07-10T09:40:18Z</time>
      </trkpt>
      <trkpt lat="45.98302" lon="4.85795">
        <ele>275</ele>
        <time>2018-07-10T09:40:19Z</time>
      </trkpt>
      <trkpt lat="45.98299" lon="4.85787">
        <ele>275</ele>
        <time>2018-07-10T09:40:20Z</time>
      </trkpt>
      <trkpt lat="45.98296" lon="4.85779">
        <ele>275</ele>
        <time>2018-07-10T09:40:21Z</time>
      </trkpt>
      <trkpt lat="45.98294" lon="4.85772">
        <ele>275</ele>
        <time>2018-07-10T09:40:22Z</time>
      </trkpt>
      <trkpt lat="45.98292" lon="4.85765">
        <ele>275</ele>
        <time>2018-07-10T09:40:23Z</time>
      </trkpt>
      <trkpt lat="45.98292" lon="4.85757">
        <ele>275</ele>
        <time>2018-07-10T09:40:24Z</time>
      </trkpt>
      <trkpt lat="45.98286" lon="4.85751">
        <ele>275</ele>
        <time>2018-07-10T09:40:25Z</time>
      </trkpt>
      <trkpt lat="45.98283" lon="4.85743">
        <ele>274</ele>
        <time>2018-07-10T09:40:26Z</time>
      </trkpt>
      <trkpt lat="45.98278" lon="4.85736">
        <ele>274</ele>
        <time>2018-07-10T09:40:27Z</time>
      </trkpt>
      <trkpt lat="45.98276" lon="4.85728">
        <ele>274</ele>
        <time>2018-07-10T09:40:28Z</time>
      </trkpt>
      <trkpt lat="45.98272" lon="4.85719">
        <ele>274</ele>
        <time>2018-07-10T09:40:29Z</time>
      </trkpt>
      <trkpt lat="45.98269" lon="4.85712">
        <ele>275</ele>
        <time>2018-07-10T09:40:30Z</time>
      </trkpt>
      <trkpt lat="45.98266" lon="4.85705">
        <ele>275</ele>
        <time>2018-07-10T09:40:31Z</time>
      </trkpt>
      <trkpt lat="45.98261" lon="4.85697">
        <ele>275</ele>
        <time>2018-07-10T09:40:32Z</time>
      </trkpt>
      <trkpt lat="45.98259" lon="4.85689">
        <ele>275</ele>
        <time>2018-07-10T09:40:33Z</time>
      </trkpt>
      <trkpt lat="45.98258" lon="4.85684">
        <ele>275</ele>
        <time>2018-07-10T09:40:34Z</time>
      </trkpt>
      <trkpt lat="45.98256" lon="4.85676">
        <ele>275</ele>
        <time>2018-07-10T09:40:35Z</time>
      </trkpt>
      <trkpt lat="45.98252" lon="4.85668">
        <ele>276</ele>
        <time>2018-07-10T09:40:36Z</time>
      </trkpt>
      <trkpt lat="45.98249" lon="4.8566">
        <ele>276</ele>
        <time>2018-07-10T09:40:37Z</time>
      </trkpt>
      <trkpt lat="45.98246" lon="4.85651">
        <ele>276</ele>
        <time>2018-07-10T09:40:38Z</time>
      </trkpt>
      <trkpt lat="45.98242" lon="4.85643">
        <ele>277</ele>
        <time>2018-07-10T09:40:39Z</time>
      </trkpt>
      <trkpt lat="45.98236" lon="4.85635">
        <ele>277</ele>
        <time>2018-07-10T09:40:40Z</time>
      </trkpt>
      <trkpt lat="45.98232" lon="4.85627">
        <ele>277</ele>
        <time>2018-07-10T09:40:41Z</time>
      </trkpt>
      <trkpt lat="45.98228" lon="4.85619">
        <ele>277</ele>
        <time>2018-07-10T09:40:42Z</time>
      </trkpt>
      <trkpt lat="45.98224" lon="4.85611">
        <ele>277</ele>
        <time>2018-07-10T09:40:43Z</time>
      </trkpt>
      <trkpt lat="45.98221" lon="4.85603">
        <ele>277</ele>
        <time>2018-07-10T09:40:44Z</time>
      </trkpt>
      <trkpt lat="45.98218" lon="4.85596">
        <ele>277</ele>
        <time>2018-07-10T09:40:45Z</time>
      </trkpt>
      <trkpt lat="45.98214" lon="4.85588">
        <ele>277</ele>
        <time>2018-07-10T09:40:46Z</time>
      </trkpt>
      <trkpt lat="45.98211" lon="4.85579">
        <ele>276</ele>
        <time>2018-07-10T09:40:47Z</time>
      </trkpt>
      <trkpt lat="45.98207" lon="4.85572">
        <ele>276</ele>
        <time>2018-07-10T09:40:48Z</time>
      </trkpt>
      <trkpt lat="45.98206" lon="4.85562">
        <ele>276</ele>
        <time>2018-07-10T09:40:49Z</time>
      </trkpt>
      <trkpt lat="45.98203" lon="4.85553">
        <ele>276</ele>
        <time>2018-07-10T09:40:50Z</time>
      </trkpt>
      <trkpt lat="45.98199" lon="4.85544">
        <ele>276</ele>
        <time>2018-07-10T09:40:51Z</time>
      </trkpt>
      <trkpt lat="45.98195" lon="4.85536">
        <ele>276</ele>
        <time>2018-07-10T09:40:52Z</time>
      </trkpt>
      <trkpt lat="45.98192" lon="4.85527">
        <ele>276</ele>
        <time>2018-07-10T09:40:53Z</time>
      </trkpt>
      <trkpt lat="45.98188" lon="4.85518">
        <ele>275</ele>
        <time>2018-07-10T09:40:54Z</time>
      </trkpt>
      <trkpt lat="45.98184" lon="4.8551">
        <ele>275</ele>
        <time>2018-07-10T09:40:55Z</time>
      </trkpt>
      <trkpt lat="45.98181" lon="4.85502">
        <ele>275</ele>
        <time>2018-07-10T09:40:56Z</time>
      </trkpt>
      <trkpt lat="45.98178" lon="4.85493">
        <ele>275</ele>
        <time>2018-07-10T09:40:57Z</time>
      </trkpt>
      <trkpt lat="45.98174" lon="4.85485">
        <ele>275</ele>
        <time>2018-07-10T09:40:58Z</time>
      </trkpt>
      <trkpt lat="45.98171" lon="4.85477">
        <ele>275</ele>
        <time>2018-07-10T09:40:59Z</time>
      </trkpt>
      <trkpt lat="45.98167" lon="4.85471">
        <ele>275</ele>
        <time>2018-07-10T09:41:00Z</time>
      </trkpt>
      <trkpt lat="45.98165" lon="4.85463">
        <ele>275</ele>
        <time>2018-07-10T09:41:01Z</time>
      </trkpt>
      <trkpt lat="45.98164" lon="4.85455">
        <ele>276</ele>
        <time>2018-07-10T09:41:02Z</time>
      </trkpt>
      <trkpt lat="45.98162" lon="4.85448">
        <ele>276</ele>
        <time>2018-07-10T09:41:03Z</time>
      </trkpt>
      <trkpt lat="45.98159" lon="4.8544">
        <ele>276</ele>
        <time>2018-07-10T09:41:04Z</time>
      </trkpt>
      <trkpt lat="45.98153" lon="4.85432">
        <ele>276</ele>
        <time>2018-07-10T09:41:05Z</time>
      </trkpt>
      <trkpt lat="45.9815" lon="4.85424">
        <ele>276</ele>
        <time>2018-07-10T09:41:06Z</time>
      </trkpt>
      <trkpt lat="45.98148" lon="4.85416">
        <ele>276</ele>
        <time>2018-07-10T09:41:07Z</time>
      </trkpt>
      <trkpt lat="45.98143" lon="4.85407">
        <ele>276</ele>
        <time>2018-07-10T09:41:08Z</time>
      </trkpt>
      <trkpt lat="45.98141" lon="4.85399">
        <ele>276</ele>
        <time>2018-07-10T09:41:09Z</time>
      </trkpt>
      <trkpt lat="45.98137" lon="4.85391">
        <ele>276</ele>
        <time>2018-07-10T09:41:10Z</time>
      </trkpt>
      <trkpt lat="45.98134" lon="4.85383">
        <ele>276</ele>
        <time>2018-07-10T09:41:11Z</time>
      </trkpt>
      <trkpt lat="45.9813" lon="4.85376">
        <ele>276</ele>
        <time>2018-07-10T09:41:12Z</time>
      </trkpt>
      <trkpt lat="45.98125" lon="4.85367">
        <ele>276</ele>
        <time>2018-07-10T09:41:13Z</time>
      </trkpt>
      <trkpt lat="45.98122" lon="4.8536">
        <ele>276</ele>
        <time>2018-07-10T09:41:14Z</time>
      </trkpt>
      <trkpt lat="45.98119" lon="4.85353">
        <ele>276</ele>
        <time>2018-07-10T09:41:15Z</time>
      </trkpt>
      <trkpt lat="45.98117" lon="4.85347">
        <ele>276</ele>
        <time>2018-07-10T09:41:16Z</time>
      </trkpt>
      <trkpt lat="45.98115" lon="4.8534">
        <ele>276</ele>
        <time>2018-07-10T09:41:17Z</time>
      </trkpt>
      <trkpt lat="45.98113" lon="4.85333">
        <ele>276</ele>
        <time>2018-07-10T09:41:18Z</time>
      </trkpt>
      <trkpt lat="45.9811" lon="4.85326">
        <ele>276</ele>
        <time>2018-07-10T09:41:19Z</time>
      </trkpt>
      <trkpt lat="45.98107" lon="4.85318">
        <ele>276</ele>
        <time>2018-07-10T09:41:20Z</time>
      </trkpt>
      <trkpt lat="45.98105" lon="4.85311">
        <ele>276</ele>
        <time>2018-07-10T09:41:21Z</time>
      </trkpt>
      <trkpt lat="45.98102" lon="4.85304">
        <ele>276</ele>
        <time>2018-07-10T09:41:22Z</time>
      </trkpt>
      <trkpt lat="45.981" lon="4.85297">
        <ele>276</ele>
        <time>2018-07-10T09:41:23Z</time>
      </trkpt>
      <trkpt lat="45.98095" lon="4.85291">
        <ele>276</ele>
        <time>2018-07-10T09:41:24Z</time>
      </trkpt>
      <trkpt lat="45.98091" lon="4.85285">
        <ele>276</ele>
        <time>2018-07-10T09:41:25Z</time>
      </trkpt>
      <trkpt lat="45.98088" lon="4.85278">
        <ele>276</ele>
        <time>2018-07-10T09:41:26Z</time>
      </trkpt>
      <trkpt lat="45.98085" lon="4.85272">
        <ele>276</ele>
        <time>2018-07-10T09:41:27Z</time>
      </trkpt>
      <trkpt lat="45.98081" lon="4.85267">
        <ele>276</ele>
        <time>2018-07-10T09:41:28Z</time>
      </trkpt>
      <trkpt lat="45.98078" lon="4.85261">
        <ele>276</ele>
        <time>2018-07-10T09:41:29Z</time>
      </trkpt>
      <trkpt lat="45.98075" lon="4.85255">
        <ele>276</ele>
        <time>2018-07-10T09:41:30Z</time>
      </trkpt>
      <trkpt lat="45.98073" lon="4.8525">
        <ele>276</ele>
        <time>2018-07-10T09:41:31Z</time>
      </trkpt>
      <trkpt lat="45.9807" lon="4.85244">
        <ele>276</ele>
        <time>2018-07-10T09:41:32Z</time>
      </trkpt>
      <trkpt lat="45.98065" lon="4.85234">
        <ele>276</ele>
        <time>2018-07-10T09:41:34Z</time>
      </trkpt>
      <trkpt lat="45.98062" lon="4.8523">
        <ele>276</ele>
        <time>2018-07-10T09:41:35Z</time>
      </trkpt>
      <trkpt lat="45.9806" lon="4.85221">
        <ele>276</ele>
        <time>2018-07-10T09:41:39Z</time>
      </trkpt>
      <trkpt lat="45.98059" lon="4.85214">
        <ele>276</ele>
        <time>2018-07-10T09:41:40Z</time>
      </trkpt>
      <trkpt lat="45.98054" lon="4.85205">
        <ele>276</ele>
        <time>2018-07-10T09:41:42Z</time>
      </trkpt>
      <trkpt lat="45.9805" lon="4.85198">
        <ele>276</ele>
        <time>2018-07-10T09:41:43Z</time>
      </trkpt>
      <trkpt lat="45.98047" lon="4.85191">
        <ele>276</ele>
        <time>2018-07-10T09:41:44Z</time>
      </trkpt>
      <trkpt lat="45.98046" lon="4.85184">
        <ele>276</ele>
        <time>2018-07-10T09:41:45Z</time>
      </trkpt>
      <trkpt lat="45.98044" lon="4.85177">
        <ele>276</ele>
        <time>2018-07-10T09:41:46Z</time>
      </trkpt>
      <trkpt lat="45.98043" lon="4.8517">
        <ele>275</ele>
        <time>2018-07-10T09:41:47Z</time>
      </trkpt>
      <trkpt lat="45.98041" lon="4.85164">
        <ele>275</ele>
        <time>2018-07-10T09:41:48Z</time>
      </trkpt>
      <trkpt lat="45.98038" lon="4.85156">
        <ele>275</ele>
        <time>2018-07-10T09:41:49Z</time>
      </trkpt>
      <trkpt lat="45.98035" lon="4.85149">
        <ele>275</ele>
        <time>2018-07-10T09:41:50Z</time>
      </trkpt>
      <trkpt lat="45.98033" lon="4.8514">
        <ele>275</ele>
        <time>2018-07-10T09:41:51Z</time>
      </trkpt>
      <trkpt lat="45.9803" lon="4.85131">
        <ele>274</ele>
        <time>2018-07-10T09:41:52Z</time>
      </trkpt>
      <trkpt lat="45.98028" lon="4.85123">
        <ele>274</ele>
        <time>2018-07-10T09:41:53Z</time>
      </trkpt>
      <trkpt lat="45.98025" lon="4.85114">
        <ele>274</ele>
        <time>2018-07-10T09:41:54Z</time>
      </trkpt>
      <trkpt lat="45.98023" lon="4.85104">
        <ele>274</ele>
        <time>2018-07-10T09:41:55Z</time>
      </trkpt>
      <trkpt lat="45.98021" lon="4.85095">
        <ele>274</ele>
        <time>2018-07-10T09:41:56Z</time>
      </trkpt>
      <trkpt lat="45.9802" lon="4.85085">
        <ele>274</ele>
        <time>2018-07-10T09:41:57Z</time>
      </trkpt>
      <trkpt lat="45.9802" lon="4.85076">
        <ele>273</ele>
        <time>2018-07-10T09:41:58Z</time>
      </trkpt>
      <trkpt lat="45.98019" lon="4.85066">
        <ele>273</ele>
        <time>2018-07-10T09:41:59Z</time>
      </trkpt>
      <trkpt lat="45.98019" lon="4.85058">
        <ele>273</ele>
        <time>2018-07-10T09:42:00Z</time>
      </trkpt>
      <trkpt lat="45.98019" lon="4.85048">
        <ele>273</ele>
        <time>2018-07-10T09:42:01Z</time>
      </trkpt>
      <trkpt lat="45.9802" lon="4.8504">
        <ele>273</ele>
        <time>2018-07-10T09:42:02Z</time>
      </trkpt>
      <trkpt lat="45.9802" lon="4.85031">
        <ele>273</ele>
        <time>2018-07-10T09:42:03Z</time>
      </trkpt>
      <trkpt lat="45.9802" lon="4.85022">
        <ele>273</ele>
        <time>2018-07-10T09:42:04Z</time>
      </trkpt>
      <trkpt lat="45.98018" lon="4.85013">
        <ele>273</ele>
        <time>2018-07-10T09:42:05Z</time>
      </trkpt>
      <trkpt lat="45.98018" lon="4.85005">
        <ele>272</ele>
        <time>2018-07-10T09:42:06Z</time>
      </trkpt>
      <trkpt lat="45.98018" lon="4.84997">
        <ele>272</ele>
        <time>2018-07-10T09:42:07Z</time>
      </trkpt>
      <trkpt lat="45.98017" lon="4.84988">
        <ele>272</ele>
        <time>2018-07-10T09:42:08Z</time>
      </trkpt>
      <trkpt lat="45.98016" lon="4.8498">
        <ele>272</ele>
        <time>2018-07-10T09:42:09Z</time>
      </trkpt>
      <trkpt lat="45.98014" lon="4.84971">
        <ele>272</ele>
        <time>2018-07-10T09:42:10Z</time>
      </trkpt>
      <trkpt lat="45.98011" lon="4.84962">
        <ele>272</ele>
        <time>2018-07-10T09:42:11Z</time>
      </trkpt>
      <trkpt lat="45.98011" lon="4.84953">
        <ele>272</ele>
        <time>2018-07-10T09:42:12Z</time>
      </trkpt>
      <trkpt lat="45.9801" lon="4.84945">
        <ele>272</ele>
        <time>2018-07-10T09:42:13Z</time>
      </trkpt>
      <trkpt lat="45.9801" lon="4.84936">
        <ele>272</ele>
        <time>2018-07-10T09:42:14Z</time>
      </trkpt>
      <trkpt lat="45.98008" lon="4.84927">
        <ele>272</ele>
        <time>2018-07-10T09:42:15Z</time>
      </trkpt>
      <trkpt lat="45.98007" lon="4.84918">
        <ele>272</ele>
        <time>2018-07-10T09:42:16Z</time>
      </trkpt>
      <trkpt lat="45.98007" lon="4.84909">
        <ele>272</ele>
        <time>2018-07-10T09:42:17Z</time>
      </trkpt>
      <trkpt lat="45.98007" lon="4.849">
        <ele>272</ele>
        <time>2018-07-10T09:42:18Z</time>
      </trkpt>
      <trkpt lat="45.98006" lon="4.84892">
        <ele>272</ele>
        <time>2018-07-10T09:42:19Z</time>
      </trkpt>
      <trkpt lat="45.98005" lon="4.84884">
        <ele>272</ele>
        <time>2018-07-10T09:42:20Z</time>
      </trkpt>
      <trkpt lat="45.98005" lon="4.84876">
        <ele>272</ele>
        <time>2018-07-10T09:42:21Z</time>
      </trkpt>
      <trkpt lat="45.98004" lon="4.84868">
        <ele>272</ele>
        <time>2018-07-10T09:42:22Z</time>
      </trkpt>
      <trkpt lat="45.98004" lon="4.8486">
        <ele>272</ele>
        <time>2018-07-10T09:42:23Z</time>
      </trkpt>
      <trkpt lat="45.98003" lon="4.84853">
        <ele>272</ele>
        <time>2018-07-10T09:42:24Z</time>
      </trkpt>
      <trkpt lat="45.98004" lon="4.84845">
        <ele>272</ele>
        <time>2018-07-10T09:42:25Z</time>
      </trkpt>
      <trkpt lat="45.98004" lon="4.84836">
        <ele>272</ele>
        <time>2018-07-10T09:42:26Z</time>
      </trkpt>
      <trkpt lat="45.98001" lon="4.84829">
        <ele>272</ele>
        <time>2018-07-10T09:42:27Z</time>
      </trkpt>
      <trkpt lat="45.97998" lon="4.84822">
        <ele>273</ele>
        <time>2018-07-10T09:42:28Z</time>
      </trkpt>
      <trkpt lat="45.97997" lon="4.84813">
        <ele>273</ele>
        <time>2018-07-10T09:42:29Z</time>
      </trkpt>
      <trkpt lat="45.97996" lon="4.84804">
        <ele>274</ele>
        <time>2018-07-10T09:42:30Z</time>
      </trkpt>
      <trkpt lat="45.97995" lon="4.84796">
        <ele>274</ele>
        <time>2018-07-10T09:42:31Z</time>
      </trkpt>
      <trkpt lat="45.97994" lon="4.84787">
        <ele>274</ele>
        <time>2018-07-10T09:42:32Z</time>
      </trkpt>
      <trkpt lat="45.97992" lon="4.84779">
        <ele>274</ele>
        <time>2018-07-10T09:42:33Z</time>
      </trkpt>
      <trkpt lat="45.97991" lon="4.84771">
        <ele>274</ele>
        <time>2018-07-10T09:42:34Z</time>
      </trkpt>
      <trkpt lat="45.97993" lon="4.84764">
        <ele>275</ele>
        <time>2018-07-10T09:42:35Z</time>
      </trkpt>
      <trkpt lat="45.97994" lon="4.84756">
        <ele>275</ele>
        <time>2018-07-10T09:42:36Z</time>
      </trkpt>
      <trkpt lat="45.97994" lon="4.84748">
        <ele>275</ele>
        <time>2018-07-10T09:42:37Z</time>
      </trkpt>
      <trkpt lat="45.97995" lon="4.84741">
        <ele>275</ele>
        <time>2018-07-10T09:42:38Z</time>
      </trkpt>
      <trkpt lat="45.97993" lon="4.84731">
        <ele>275</ele>
        <time>2018-07-10T09:42:39Z</time>
      </trkpt>
      <trkpt lat="45.97991" lon="4.84723">
        <ele>275</ele>
        <time>2018-07-10T09:42:40Z</time>
      </trkpt>
      <trkpt lat="45.97993" lon="4.84716">
        <ele>275</ele>
        <time>2018-07-10T09:42:41Z</time>
      </trkpt>
      <trkpt lat="45.97991" lon="4.84707">
        <ele>275</ele>
        <time>2018-07-10T09:42:42Z</time>
      </trkpt>
      <trkpt lat="45.97991" lon="4.84698">
        <ele>275</ele>
        <time>2018-07-10T09:42:43Z</time>
      </trkpt>
      <trkpt lat="45.97991" lon="4.84689">
        <ele>275</ele>
        <time>2018-07-10T09:42:44Z</time>
      </trkpt>
      <trkpt lat="45.9799" lon="4.8468">
        <ele>275</ele>
        <time>2018-07-10T09:42:45Z</time>
      </trkpt>
      <trkpt lat="45.97989" lon="4.84671">
        <ele>275</ele>
        <time>2018-07-10T09:42:46Z</time>
      </trkpt>
      <trkpt lat="45.97986" lon="4.84663">
        <ele>274</ele>
        <time>2018-07-10T09:42:47Z</time>
      </trkpt>
      <trkpt lat="45.97987" lon="4.84655">
        <ele>274</ele>
        <time>2018-07-10T09:42:48Z</time>
      </trkpt>
      <trkpt lat="45.97986" lon="4.84648">
        <ele>274</ele>
        <time>2018-07-10T09:42:49Z</time>
      </trkpt>
      <trkpt lat="45.97986" lon="4.8464">
        <ele>275</ele>
        <time>2018-07-10T09:42:50Z</time>
      </trkpt>
      <trkpt lat="45.97986" lon="4.84633">
        <ele>275</ele>
        <time>2018-07-10T09:42:51Z</time>
      </trkpt>
      <trkpt lat="45.97984" lon="4.84625">
        <ele>275</ele>
        <time>2018-07-10T09:42:52Z</time>
      </trkpt>
      <trkpt lat="45.97982" lon="4.84616">
        <ele>275</ele>
        <time>2018-07-10T09:42:53Z</time>
      </trkpt>
      <trkpt lat="45.9798" lon="4.84607">
        <ele>275</ele>
        <time>2018-07-10T09:42:54Z</time>
      </trkpt>
      <trkpt lat="45.97979" lon="4.84599">
        <ele>274</ele>
        <time>2018-07-10T09:42:55Z</time>
      </trkpt>
      <trkpt lat="45.97977" lon="4.8459">
        <ele>274</ele>
        <time>2018-07-10T09:42:56Z</time>
      </trkpt>
      <trkpt lat="45.97974" lon="4.84582">
        <ele>275</ele>
        <time>2018-07-10T09:42:57Z</time>
      </trkpt>
      <trkpt lat="45.97972" lon="4.84574">
        <ele>275</ele>
        <time>2018-07-10T09:42:58Z</time>
      </trkpt>
      <trkpt lat="45.97971" lon="4.84567">
        <ele>275</ele>
        <time>2018-07-10T09:42:59Z</time>
      </trkpt>
      <trkpt lat="45.97968" lon="4.84559">
        <ele>275</ele>
        <time>2018-07-10T09:43:00Z</time>
      </trkpt>
      <trkpt lat="45.97967" lon="4.84553">
        <ele>275</ele>
        <time>2018-07-10T09:43:01Z</time>
      </trkpt>
      <trkpt lat="45.97968" lon="4.84546">
        <ele>275</ele>
        <time>2018-07-10T09:43:02Z</time>
      </trkpt>
      <trkpt lat="45.97966" lon="4.84539">
        <ele>275</ele>
        <time>2018-07-10T09:43:03Z</time>
      </trkpt>
      <trkpt lat="45.97964" lon="4.8453">
        <ele>275</ele>
        <time>2018-07-10T09:43:04Z</time>
      </trkpt>
      <trkpt lat="45.97963" lon="4.84523">
        <ele>275</ele>
        <time>2018-07-10T09:43:05Z</time>
      </trkpt>
      <trkpt lat="45.97961" lon="4.84515">
        <ele>275</ele>
        <time>2018-07-10T09:43:06Z</time>
      </trkpt>
      <trkpt lat="45.9796" lon="4.84508">
        <ele>275</ele>
        <time>2018-07-10T09:43:07Z</time>
      </trkpt>
      <trkpt lat="45.9796" lon="4.84501">
        <ele>275</ele>
        <time>2018-07-10T09:43:08Z</time>
      </trkpt>
      <trkpt lat="45.97959" lon="4.84493">
        <ele>275</ele>
        <time>2018-07-10T09:43:09Z</time>
      </trkpt>
      <trkpt lat="45.97957" lon="4.84486">
        <ele>275</ele>
        <time>2018-07-10T09:43:10Z</time>
      </trkpt>
      <trkpt lat="45.97956" lon="4.84479">
        <ele>275</ele>
        <time>2018-07-10T09:43:11Z</time>
      </trkpt>
      <trkpt lat="45.97953" lon="4.84473">
        <ele>275</ele>
        <time>2018-07-10T09:43:12Z</time>
      </trkpt>
      <trkpt lat="45.97952" lon="4.84466">
        <ele>275</ele>
        <time>2018-07-10T09:43:13Z</time>
      </trkpt>
      <trkpt lat="45.97952" lon="4.84458">
        <ele>275</ele>
        <time>2018-07-10T09:43:14Z</time>
      </trkpt>
      <trkpt lat="45.97951" lon="4.8445">
        <ele>275</ele>
        <time>2018-07-10T09:43:15Z</time>
      </trkpt>
      <trkpt lat="45.9795" lon="4.84443">
        <ele>275</ele>
        <time>2018-07-10T09:43:16Z</time>
      </trkpt>
      <trkpt lat="45.9795" lon="4.84435">
        <ele>275</ele>
        <time>2018-07-10T09:43:17Z</time>
      </trkpt>
      <trkpt lat="45.97948" lon="4.84427">
        <ele>275</ele>
        <time>2018-07-10T09:43:18Z</time>
      </trkpt>
      <trkpt lat="45.97946" lon="4.84419">
        <ele>275</ele>
        <time>2018-07-10T09:43:19Z</time>
      </trkpt>
      <trkpt lat="45.97945" lon="4.84411">
        <ele>275</ele>
        <time>2018-07-10T09:43:20Z</time>
      </trkpt>
      <trkpt lat="45.97945" lon="4.84403">
        <ele>275</ele>
        <time>2018-07-10T09:43:21Z</time>
      </trkpt>
      <trkpt lat="45.97944" lon="4.84395">
        <ele>275</ele>
        <time>2018-07-10T09:43:22Z</time>
      </trkpt>
      <trkpt lat="45.97941" lon="4.84389">
        <ele>275</ele>
        <time>2018-07-10T09:43:23Z</time>
      </trkpt>
      <trkpt lat="45.97941" lon="4.84382">
        <ele>275</ele>
        <time>2018-07-10T09:43:24Z</time>
      </trkpt>
      <trkpt lat="45.97939" lon="4.84375">
        <ele>275</ele>
        <time>2018-07-10T09:43:25Z</time>
      </trkpt>
      <trkpt lat="45.97937" lon="4.84368">
        <ele>275</ele>
        <time>2018-07-10T09:43:26Z</time>
      </trkpt>
      <trkpt lat="45.97936" lon="4.8436">
        <ele>275</ele>
        <time>2018-07-10T09:43:27Z</time>
      </trkpt>
      <trkpt lat="45.97935" lon="4.84353">
        <ele>275</ele>
        <time>2018-07-10T09:43:28Z</time>
      </trkpt>
      <trkpt lat="45.97934" lon="4.84346">
        <ele>275</ele>
        <time>2018-07-10T09:43:29Z</time>
      </trkpt>
      <trkpt lat="45.97933" lon="4.84337">
        <ele>275</ele>
        <time>2018-07-10T09:43:30Z</time>
      </trkpt>
      <trkpt lat="45.97932" lon="4.84331">
        <ele>275</ele>
        <time>2018-07-10T09:43:31Z</time>
      </trkpt>
      <trkpt lat="45.9793" lon="4.8432">
        <ele>275</ele>
        <time>2018-07-10T09:43:33Z</time>
      </trkpt>
      <trkpt lat="45.97929" lon="4.84315">
        <ele>275</ele>
        <time>2018-07-10T09:43:34Z</time>
      </trkpt>
      <trkpt lat="45.97928" lon="4.84308">
        <ele>275</ele>
        <time>2018-07-10T09:43:35Z</time>
      </trkpt>
      <trkpt lat="45.97927" lon="4.84301">
        <ele>275</ele>
        <time>2018-07-10T09:43:36Z</time>
      </trkpt>
      <trkpt lat="45.97924" lon="4.84295">
        <ele>275</ele>
        <time>2018-07-10T09:43:37Z</time>
      </trkpt>
      <trkpt lat="45.97922" lon="4.84286">
        <ele>275</ele>
        <time>2018-07-10T09:43:38Z</time>
      </trkpt>
      <trkpt lat="45.97923" lon="4.84279">
        <ele>275</ele>
        <time>2018-07-10T09:43:39Z</time>
      </trkpt>
      <trkpt lat="45.97925" lon="4.84273">
        <ele>275</ele>
        <time>2018-07-10T09:43:40Z</time>
      </trkpt>
      <trkpt lat="45.97928" lon="4.84267">
        <ele>275</ele>
        <time>2018-07-10T09:43:41Z</time>
      </trkpt>
      <trkpt lat="45.97931" lon="4.84261">
        <ele>275</ele>
        <time>2018-07-10T09:43:42Z</time>
      </trkpt>
      <trkpt lat="45.97936" lon="4.84257">
        <ele>275</ele>
        <time>2018-07-10T09:43:43Z</time>
      </trkpt>
      <trkpt lat="45.97941" lon="4.84252">
        <ele>275</ele>
        <time>2018-07-10T09:43:44Z</time>
      </trkpt>
      <trkpt lat="45.97946" lon="4.84247">
        <ele>275</ele>
        <time>2018-07-10T09:43:45Z</time>
      </trkpt>
      <trkpt lat="45.97951" lon="4.84242">
        <ele>275</ele>
        <time>2018-07-10T09:43:46Z</time>
      </trkpt>
      <trkpt lat="45.97957" lon="4.84237">
        <ele>275</ele>
        <time>2018-07-10T09:43:47Z</time>
      </trkpt>
      <trkpt lat="45.97962" lon="4.84233">
        <ele>274</ele>
        <time>2018-07-10T09:43:48Z</time>
      </trkpt>
      <trkpt lat="45.97966" lon="4.84227">
        <ele>274</ele>
        <time>2018-07-10T09:43:49Z</time>
      </trkpt>
      <trkpt lat="45.97972" lon="4.84224">
        <ele>274</ele>
        <time>2018-07-10T09:43:50Z</time>
      </trkpt>
      <trkpt lat="45.97976" lon="4.8422">
        <ele>274</ele>
        <time>2018-07-10T09:43:51Z</time>
      </trkpt>
      <trkpt lat="45.9798" lon="4.84216">
        <ele>274</ele>
        <time>2018-07-10T09:43:52Z</time>
      </trkpt>
      <trkpt lat="45.97985" lon="4.8421">
        <ele>274</ele>
        <time>2018-07-10T09:43:53Z</time>
      </trkpt>
      <trkpt lat="45.97989" lon="4.84206">
        <ele>274</ele>
        <time>2018-07-10T09:43:54Z</time>
      </trkpt>
      <trkpt lat="45.97996" lon="4.842">
        <ele>274</ele>
        <time>2018-07-10T09:43:56Z</time>
      </trkpt>
      <trkpt lat="45.98" lon="4.84196">
        <ele>274</ele>
        <time>2018-07-10T09:43:57Z</time>
      </trkpt>
      <trkpt lat="45.98004" lon="4.84193">
        <ele>274</ele>
        <time>2018-07-10T09:43:58Z</time>
      </trkpt>
      <trkpt lat="45.98009" lon="4.84189">
        <ele>274</ele>
        <time>2018-07-10T09:43:59Z</time>
      </trkpt>
      <trkpt lat="45.98013" lon="4.84185">
        <ele>274</ele>
        <time>2018-07-10T09:44:00Z</time>
      </trkpt>
      <trkpt lat="45.98018" lon="4.84181">
        <ele>274</ele>
        <time>2018-07-10T09:44:01Z</time>
      </trkpt>
      <trkpt lat="45.98022" lon="4.84176">
        <ele>274</ele>
        <time>2018-07-10T09:44:02Z</time>
      </trkpt>
      <trkpt lat="45.98027" lon="4.84171">
        <ele>274</ele>
        <time>2018-07-10T09:44:03Z</time>
      </trkpt>
      <trkpt lat="45.9803" lon="4.84167">
        <ele>273</ele>
        <time>2018-07-10T09:44:04Z</time>
      </trkpt>
      <trkpt lat="45.98035" lon="4.84163">
        <ele>273</ele>
        <time>2018-07-10T09:44:05Z</time>
      </trkpt>
      <trkpt lat="45.98037" lon="4.84159">
        <ele>273</ele>
        <time>2018-07-10T09:44:06Z</time>
      </trkpt>
      <trkpt lat="45.98041" lon="4.84154">
        <ele>273</ele>
        <time>2018-07-10T09:44:07Z</time>
      </trkpt>
      <trkpt lat="45.98047" lon="4.84149">
        <ele>273</ele>
        <time>2018-07-10T09:44:08Z</time>
      </trkpt>
      <trkpt lat="45.98052" lon="4.84144">
        <ele>273</ele>
        <time>2018-07-10T09:44:09Z</time>
      </trkpt>
      <trkpt lat="45.98059" lon="4.84138">
        <ele>273</ele>
        <time>2018-07-10T09:44:11Z</time>
      </trkpt>
      <trkpt lat="45.98064" lon="4.84134">
        <ele>273</ele>
        <time>2018-07-10T09:44:12Z</time>
      </trkpt>
      <trkpt lat="45.98069" lon="4.8413">
        <ele>273</ele>
        <time>2018-07-10T09:44:13Z</time>
      </trkpt>
      <trkpt lat="45.98073" lon="4.84127">
        <ele>273</ele>
        <time>2018-07-10T09:44:14Z</time>
      </trkpt>
      <trkpt lat="45.98078" lon="4.84123">
        <ele>273</ele>
        <time>2018-07-10T09:44:15Z</time>
      </trkpt>
      <trkpt lat="45.98083" lon="4.84118">
        <ele>273</ele>
        <time>2018-07-10T09:44:16Z</time>
      </trkpt>
      <trkpt lat="45.98087" lon="4.84114">
        <ele>273</ele>
        <time>2018-07-10T09:44:17Z</time>
      </trkpt>
      <trkpt lat="45.98092" lon="4.8411">
        <ele>273</ele>
        <time>2018-07-10T09:44:18Z</time>
      </trkpt>
      <trkpt lat="45.98096" lon="4.84107">
        <ele>273</ele>
        <time>2018-07-10T09:44:19Z</time>
      </trkpt>
      <trkpt lat="45.98101" lon="4.84103">
        <ele>273</ele>
        <time>2018-07-10T09:44:20Z</time>
      </trkpt>
      <trkpt lat="45.98105" lon="4.84099">
        <ele>273</ele>
        <time>2018-07-10T09:44:21Z</time>
      </trkpt>
      <trkpt lat="45.9811" lon="4.84096">
        <ele>273</ele>
        <time>2018-07-10T09:44:22Z</time>
      </trkpt>
      <trkpt lat="45.98114" lon="4.84092">
        <ele>273</ele>
        <time>2018-07-10T09:44:23Z</time>
      </trkpt>
      <trkpt lat="45.98119" lon="4.84087">
        <ele>273</ele>
        <time>2018-07-10T09:44:24Z</time>
      </trkpt>
      <trkpt lat="45.98123" lon="4.84083">
        <ele>273</ele>
        <time>2018-07-10T09:44:25Z</time>
      </trkpt>
      <trkpt lat="45.98128" lon="4.84078">
        <ele>273</ele>
        <time>2018-07-10T09:44:26Z</time>
      </trkpt>
      <trkpt lat="45.98132" lon="4.84073">
        <ele>273</ele>
        <time>2018-07-10T09:44:27Z</time>
      </trkpt>
      <trkpt lat="45.98136" lon="4.84068">
        <ele>273</ele>
        <time>2018-07-10T09:44:28Z</time>
      </trkpt>
      <trkpt lat="45.9814" lon="4.84061">
        <ele>273</ele>
        <time>2018-07-10T09:44:29Z</time>
      </trkpt>
      <trkpt lat="45.98144" lon="4.84056">
        <ele>273</ele>
        <time>2018-07-10T09:44:30Z</time>
      </trkpt>
      <trkpt lat="45.98148" lon="4.8405">
        <ele>273</ele>
        <time>2018-07-10T09:44:31Z</time>
      </trkpt>
      <trkpt lat="45.98151" lon="4.84045">
        <ele>273</ele>
        <time>2018-07-10T09:44:32Z</time>
      </trkpt>
      <trkpt lat="45.98154" lon="4.84039">
        <ele>273</ele>
        <time>2018-07-10T09:44:33Z</time>
      </trkpt>
      <trkpt lat="45.98157" lon="4.84034">
        <ele>273</ele>
        <time>2018-07-10T09:44:34Z</time>
      </trkpt>
      <trkpt lat="45.98161" lon="4.84029">
        <ele>273</ele>
        <time>2018-07-10T09:44:35Z</time>
      </trkpt>
      <trkpt lat="45.98164" lon="4.8402">
        <ele>273</ele>
        <time>2018-07-10T09:44:36Z</time>
      </trkpt>
      <trkpt lat="45.98168" lon="4.84013">
        <ele>273</ele>
        <time>2018-07-10T09:44:37Z</time>
      </trkpt>
      <trkpt lat="45.98171" lon="4.84006">
        <ele>273</ele>
        <time>2018-07-10T09:44:38Z</time>
      </trkpt>
      <trkpt lat="45.98174" lon="4.84">
        <ele>273</ele>
        <time>2018-07-10T09:44:39Z</time>
      </trkpt>
      <trkpt lat="45.98177" lon="4.83994">
        <ele>273</ele>
        <time>2018-07-10T09:44:40Z</time>
      </trkpt>
      <trkpt lat="45.98179" lon="4.83987">
        <ele>273</ele>
        <time>2018-07-10T09:44:41Z</time>
      </trkpt>
      <trkpt lat="45.98181" lon="4.83979">
        <ele>273</ele>
        <time>2018-07-10T09:44:42Z</time>
      </trkpt>
      <trkpt lat="45.98182" lon="4.83971">
        <ele>273</ele>
        <time>2018-07-10T09:44:43Z</time>
      </trkpt>
      <trkpt lat="45.98186" lon="4.83965">
        <ele>273</ele>
        <time>2018-07-10T09:44:44Z</time>
      </trkpt>
      <trkpt lat="45.98189" lon="4.83958">
        <ele>273</ele>
        <time>2018-07-10T09:44:45Z</time>
      </trkpt>
      <trkpt lat="45.98191" lon="4.83951">
        <ele>273</ele>
        <time>2018-07-10T09:44:46Z</time>
      </trkpt>
      <trkpt lat="45.98193" lon="4.83942">
        <ele>273</ele>
        <time>2018-07-10T09:44:47Z</time>
      </trkpt>
      <trkpt lat="45.98195" lon="4.83935">
        <ele>273</ele>
        <time>2018-07-10T09:44:48Z</time>
      </trkpt>
      <trkpt lat="45.98198" lon="4.83929">
        <ele>273</ele>
        <time>2018-07-10T09:44:49Z</time>
      </trkpt>
      <trkpt lat="45.982" lon="4.83921">
        <ele>273</ele>
        <time>2018-07-10T09:44:50Z</time>
      </trkpt>
      <trkpt lat="45.98203" lon="4.83916">
        <ele>273</ele>
        <time>2018-07-10T09:44:51Z</time>
      </trkpt>
      <trkpt lat="45.98205" lon="4.83909">
        <ele>273</ele>
        <time>2018-07-10T09:44:52Z</time>
      </trkpt>
      <trkpt lat="45.98208" lon="4.83902">
        <ele>273</ele>
        <time>2018-07-10T09:44:53Z</time>
      </trkpt>
      <trkpt lat="45.9821" lon="4.83894">
        <ele>273</ele>
        <time>2018-07-10T09:44:54Z</time>
      </trkpt>
      <trkpt lat="45.98213" lon="4.83887">
        <ele>273</ele>
        <time>2018-07-10T09:44:55Z</time>
      </trkpt>
      <trkpt lat="45.98216" lon="4.8388">
        <ele>272</ele>
        <time>2018-07-10T09:44:56Z</time>
      </trkpt>
      <trkpt lat="45.98218" lon="4.83873">
        <ele>272</ele>
        <time>2018-07-10T09:44:57Z</time>
      </trkpt>
      <trkpt lat="45.98221" lon="4.83867">
        <ele>272</ele>
        <time>2018-07-10T09:44:58Z</time>
      </trkpt>
      <trkpt lat="45.98223" lon="4.8386">
        <ele>272</ele>
        <time>2018-07-10T09:44:59Z</time>
      </trkpt>
      <trkpt lat="45.98225" lon="4.83853">
        <ele>272</ele>
        <time>2018-07-10T09:45:00Z</time>
      </trkpt>
      <trkpt lat="45.98227" lon="4.83846">
        <ele>272</ele>
        <time>2018-07-10T09:45:01Z</time>
      </trkpt>
      <trkpt lat="45.98227" lon="4.83838">
        <ele>272</ele>
        <time>2018-07-10T09:45:02Z</time>
      </trkpt>
      <trkpt lat="45.98228" lon="4.83831">
        <ele>272</ele>
        <time>2018-07-10T09:45:03Z</time>
      </trkpt>
      <trkpt lat="45.98229" lon="4.83823">
        <ele>272</ele>
        <time>2018-07-10T09:45:04Z</time>
      </trkpt>
      <trkpt lat="45.98231" lon="4.83817">
        <ele>272</ele>
        <time>2018-07-10T09:45:05Z</time>
      </trkpt>
      <trkpt lat="45.98235" lon="4.83811">
        <ele>272</ele>
        <time>2018-07-10T09:45:06Z</time>
      </trkpt>
      <trkpt lat="45.98237" lon="4.83805">
        <ele>272</ele>
        <time>2018-07-10T09:45:07Z</time>
      </trkpt>
      <trkpt lat="45.98239" lon="4.83798">
        <ele>272</ele>
        <time>2018-07-10T09:45:08Z</time>
      </trkpt>
      <trkpt lat="45.98243" lon="4.83792">
        <ele>272</ele>
        <time>2018-07-10T09:45:09Z</time>
      </trkpt>
      <trkpt lat="45.98245" lon="4.83784">
        <ele>272</ele>
        <time>2018-07-10T09:45:10Z</time>
      </trkpt>
      <trkpt lat="45.98248" lon="4.83775">
        <ele>272</ele>
        <time>2018-07-10T09:45:11Z</time>
      </trkpt>
      <trkpt lat="45.98251" lon="4.83768">
        <ele>272</ele>
        <time>2018-07-10T09:45:12Z</time>
      </trkpt>
      <trkpt lat="45.98254" lon="4.83761">
        <ele>272</ele>
        <time>2018-07-10T09:45:13Z</time>
      </trkpt>
      <trkpt lat="45.98257" lon="4.83755">
        <ele>272</ele>
        <time>2018-07-10T09:45:14Z</time>
      </trkpt>
      <trkpt lat="45.98259" lon="4.83748">
        <ele>272</ele>
        <time>2018-07-10T09:45:15Z</time>
      </trkpt>
      <trkpt lat="45.98262" lon="4.83742">
        <ele>272</ele>
        <time>2018-07-10T09:45:16Z</time>
      </trkpt>
      <trkpt lat="45.98266" lon="4.83734">
        <ele>272</ele>
        <time>2018-07-10T09:45:17Z</time>
      </trkpt>
      <trkpt lat="45.98268" lon="4.83727">
        <ele>272</ele>
        <time>2018-07-10T09:45:18Z</time>
      </trkpt>
      <trkpt lat="45.98272" lon="4.83721">
        <ele>272</ele>
        <time>2018-07-10T09:45:19Z</time>
      </trkpt>
      <trkpt lat="45.98273" lon="4.83712">
        <ele>272</ele>
        <time>2018-07-10T09:45:20Z</time>
      </trkpt>
      <trkpt lat="45.98276" lon="4.83704">
        <ele>272</ele>
        <time>2018-07-10T09:45:21Z</time>
      </trkpt>
      <trkpt lat="45.98279" lon="4.83697">
        <ele>272</ele>
        <time>2018-07-10T09:45:22Z</time>
      </trkpt>
      <trkpt lat="45.9828" lon="4.83692">
        <ele>272</ele>
        <time>2018-07-10T09:45:23Z</time>
      </trkpt>
      <trkpt lat="45.98283" lon="4.83685">
        <ele>272</ele>
        <time>2018-07-10T09:45:24Z</time>
      </trkpt>
      <trkpt lat="45.98285" lon="4.83676">
        <ele>272</ele>
        <time>2018-07-10T09:45:25Z</time>
      </trkpt>
      <trkpt lat="45.9829" lon="4.83669">
        <ele>272</ele>
        <time>2018-07-10T09:45:26Z</time>
      </trkpt>
      <trkpt lat="45.98288" lon="4.83662">
        <ele>272</ele>
        <time>2018-07-10T09:45:27Z</time>
      </trkpt>
      <trkpt lat="45.98291" lon="4.83655">
        <ele>272</ele>
        <time>2018-07-10T09:45:28Z</time>
      </trkpt>
      <trkpt lat="45.98294" lon="4.83649">
        <ele>271</ele>
        <time>2018-07-10T09:45:29Z</time>
      </trkpt>
      <trkpt lat="45.98297" lon="4.83643">
        <ele>271</ele>
        <time>2018-07-10T09:45:30Z</time>
      </trkpt>
      <trkpt lat="45.983" lon="4.83637">
        <ele>271</ele>
        <time>2018-07-10T09:45:31Z</time>
      </trkpt>
      <trkpt lat="45.98306" lon="4.83631">
        <ele>271</ele>
        <time>2018-07-10T09:45:32Z</time>
      </trkpt>
      <trkpt lat="45.9831" lon="4.83623">
        <ele>271</ele>
        <time>2018-07-10T09:45:33Z</time>
      </trkpt>
      <trkpt lat="45.98314" lon="4.83615">
        <ele>271</ele>
        <time>2018-07-10T09:45:34Z</time>
      </trkpt>
      <trkpt lat="45.98317" lon="4.83608">
        <ele>271</ele>
        <time>2018-07-10T09:45:35Z</time>
      </trkpt>
      <trkpt lat="45.9832" lon="4.83602">
        <ele>271</ele>
        <time>2018-07-10T09:45:36Z</time>
      </trkpt>
      <trkpt lat="45.98324" lon="4.83595">
        <ele>271</ele>
        <time>2018-07-10T09:45:37Z</time>
      </trkpt>
      <trkpt lat="45.98328" lon="4.83589">
        <ele>270</ele>
        <time>2018-07-10T09:45:38Z</time>
      </trkpt>
      <trkpt lat="45.98332" lon="4.83583">
        <ele>270</ele>
        <time>2018-07-10T09:45:39Z</time>
      </trkpt>
      <trkpt lat="45.98336" lon="4.83577">
        <ele>270</ele>
        <time>2018-07-10T09:45:40Z</time>
      </trkpt>
      <trkpt lat="45.9834" lon="4.83572">
        <ele>270</ele>
        <time>2018-07-10T09:45:41Z</time>
      </trkpt>
      <trkpt lat="45.98344" lon="4.83567">
        <ele>269</ele>
        <time>2018-07-10T09:45:42Z</time>
      </trkpt>
      <trkpt lat="45.98349" lon="4.83562">
        <ele>269</ele>
        <time>2018-07-10T09:45:43Z</time>
      </trkpt>
      <trkpt lat="45.98352" lon="4.83556">
        <ele>269</ele>
        <time>2018-07-10T09:45:44Z</time>
      </trkpt>
      <trkpt lat="45.98357" lon="4.8355">
        <ele>269</ele>
        <time>2018-07-10T09:45:45Z</time>
      </trkpt>
      <trkpt lat="45.98361" lon="4.83544">
        <ele>269</ele>
        <time>2018-07-10T09:45:46Z</time>
      </trkpt>
      <trkpt lat="45.98365" lon="4.83539">
        <ele>269</ele>
        <time>2018-07-10T09:45:47Z</time>
      </trkpt>
      <trkpt lat="45.98369" lon="4.83533">
        <ele>269</ele>
        <time>2018-07-10T09:45:48Z</time>
      </trkpt>
      <trkpt lat="45.98373" lon="4.83527">
        <ele>269</ele>
        <time>2018-07-10T09:45:49Z</time>
      </trkpt>
      <trkpt lat="45.98377" lon="4.83523">
        <ele>269</ele>
        <time>2018-07-10T09:45:50Z</time>
      </trkpt>
      <trkpt lat="45.9838" lon="4.83518">
        <ele>269</ele>
        <time>2018-07-10T09:45:51Z</time>
      </trkpt>
      <trkpt lat="45.98383" lon="4.83511">
        <ele>269</ele>
        <time>2018-07-10T09:45:52Z</time>
      </trkpt>
      <trkpt lat="45.98386" lon="4.83506">
        <ele>269</ele>
        <time>2018-07-10T09:45:53Z</time>
      </trkpt>
      <trkpt lat="45.98392" lon="4.83499">
        <ele>269</ele>
        <time>2018-07-10T09:45:54Z</time>
      </trkpt>
      <trkpt lat="45.98398" lon="4.8349">
        <ele>269</ele>
        <time>2018-07-10T09:45:56Z</time>
      </trkpt>
      <trkpt lat="45.98403" lon="4.83486">
        <ele>269</ele>
        <time>2018-07-10T09:45:57Z</time>
      </trkpt>
      <trkpt lat="45.98407" lon="4.8348">
        <ele>269</ele>
        <time>2018-07-10T09:45:58Z</time>
      </trkpt>
      <trkpt lat="45.98411" lon="4.83474">
        <ele>269</ele>
        <time>2018-07-10T09:45:59Z</time>
      </trkpt>
      <trkpt lat="45.98415" lon="4.83469">
        <ele>269</ele>
        <time>2018-07-10T09:46:00Z</time>
      </trkpt>
      <trkpt lat="45.9842" lon="4.83464">
        <ele>268</ele>
        <time>2018-07-10T09:46:01Z</time>
      </trkpt>
      <trkpt lat="45.98425" lon="4.83458">
        <ele>268</ele>
        <time>2018-07-10T09:46:02Z</time>
      </trkpt>
      <trkpt lat="45.9843" lon="4.83453">
        <ele>268</ele>
        <time>2018-07-10T09:46:03Z</time>
      </trkpt>
      <trkpt lat="45.98433" lon="4.83448">
        <ele>268</ele>
        <time>2018-07-10T09:46:04Z</time>
      </trkpt>
      <trkpt lat="45.98438" lon="4.83442">
        <ele>268</ele>
        <time>2018-07-10T09:46:05Z</time>
      </trkpt>
      <trkpt lat="45.98441" lon="4.83437">
        <ele>268</ele>
        <time>2018-07-10T09:46:06Z</time>
      </trkpt>
      <trkpt lat="45.98445" lon="4.83433">
        <ele>268</ele>
        <time>2018-07-10T09:46:07Z</time>
      </trkpt>
      <trkpt lat="45.98449" lon="4.83428">
        <ele>269</ele>
        <time>2018-07-10T09:46:08Z</time>
      </trkpt>
      <trkpt lat="45.98452" lon="4.83422">
        <ele>269</ele>
        <time>2018-07-10T09:46:09Z</time>
      </trkpt>
      <trkpt lat="45.9846" lon="4.83416">
        <ele>269</ele>
        <time>2018-07-10T09:46:11Z</time>
      </trkpt>
      <trkpt lat="45.98464" lon="4.83409">
        <ele>269</ele>
        <time>2018-07-10T09:46:12Z</time>
      </trkpt>
      <trkpt lat="45.98468" lon="4.83402">
        <ele>269</ele>
        <time>2018-07-10T09:46:13Z</time>
      </trkpt>
      <trkpt lat="45.98472" lon="4.83395">
        <ele>269</ele>
        <time>2018-07-10T09:46:14Z</time>
      </trkpt>
      <trkpt lat="45.98476" lon="4.83391">
        <ele>269</ele>
        <time>2018-07-10T09:46:15Z</time>
      </trkpt>
      <trkpt lat="45.9848" lon="4.83386">
        <ele>269</ele>
        <time>2018-07-10T09:46:16Z</time>
      </trkpt>
      <trkpt lat="45.98484" lon="4.83381">
        <ele>269</ele>
        <time>2018-07-10T09:46:17Z</time>
      </trkpt>
      <trkpt lat="45.98487" lon="4.83376">
        <ele>269</ele>
        <time>2018-07-10T09:46:18Z</time>
      </trkpt>
      <trkpt lat="45.9849" lon="4.83371">
        <ele>270</ele>
        <time>2018-07-10T09:46:19Z</time>
      </trkpt>
      <trkpt lat="45.98494" lon="4.83367">
        <ele>270</ele>
        <time>2018-07-10T09:46:20Z</time>
      </trkpt>
      <trkpt lat="45.98497" lon="4.83362">
        <ele>270</ele>
        <time>2018-07-10T09:46:21Z</time>
      </trkpt>
      <trkpt lat="45.98501" lon="4.83357">
        <ele>270</ele>
        <time>2018-07-10T09:46:22Z</time>
      </trkpt>
      <trkpt lat="45.98504" lon="4.83353">
        <ele>270</ele>
        <time>2018-07-10T09:46:23Z</time>
      </trkpt>
      <trkpt lat="45.98508" lon="4.83347">
        <ele>270</ele>
        <time>2018-07-10T09:46:24Z</time>
      </trkpt>
      <trkpt lat="45.98514" lon="4.83338">
        <ele>270</ele>
        <time>2018-07-10T09:46:26Z</time>
      </trkpt>
      <trkpt lat="45.98518" lon="4.83334">
        <ele>270</ele>
        <time>2018-07-10T09:46:27Z</time>
      </trkpt>
      <trkpt lat="45.98525" lon="4.83327">
        <ele>270</ele>
        <time>2018-07-10T09:46:29Z</time>
      </trkpt>
      <trkpt lat="45.98529" lon="4.83323">
        <ele>269</ele>
        <time>2018-07-10T09:46:30Z</time>
      </trkpt>
      <trkpt lat="45.98533" lon="4.83318">
        <ele>269</ele>
        <time>2018-07-10T09:46:31Z</time>
      </trkpt>
      <trkpt lat="45.98537" lon="4.83307">
        <ele>269</ele>
        <time>2018-07-10T09:46:32Z</time>
      </trkpt>
      <trkpt lat="45.9854" lon="4.83302">
        <ele>269</ele>
        <time>2018-07-10T09:46:33Z</time>
      </trkpt>
      <trkpt lat="45.98545" lon="4.83298">
        <ele>269</ele>
        <time>2018-07-10T09:46:34Z</time>
      </trkpt>
      <trkpt lat="45.98549" lon="4.83294">
        <ele>269</ele>
        <time>2018-07-10T09:46:35Z</time>
      </trkpt>
      <trkpt lat="45.98551" lon="4.83288">
        <ele>269</ele>
        <time>2018-07-10T09:46:36Z</time>
      </trkpt>
      <trkpt lat="45.98555" lon="4.83284">
        <ele>269</ele>
        <time>2018-07-10T09:46:37Z</time>
      </trkpt>
      <trkpt lat="45.98559" lon="4.83279">
        <ele>269</ele>
        <time>2018-07-10T09:46:38Z</time>
      </trkpt>
      <trkpt lat="45.98563" lon="4.83277">
        <ele>269</ele>
        <time>2018-07-10T09:46:39Z</time>
      </trkpt>
      <trkpt lat="45.98566" lon="4.83272">
        <ele>269</ele>
        <time>2018-07-10T09:46:40Z</time>
      </trkpt>
      <trkpt lat="45.9857" lon="4.83267">
        <ele>269</ele>
        <time>2018-07-10T09:46:41Z</time>
      </trkpt>
      <trkpt lat="45.9857" lon="4.8326">
        <ele>269</ele>
        <time>2018-07-10T09:46:42Z</time>
      </trkpt>
      <trkpt lat="45.98575" lon="4.83254">
        <ele>268</ele>
        <time>2018-07-10T09:46:43Z</time>
      </trkpt>
      <trkpt lat="45.9858" lon="4.83249">
        <ele>268</ele>
        <time>2018-07-10T09:46:44Z</time>
      </trkpt>
      <trkpt lat="45.98583" lon="4.83244">
        <ele>268</ele>
        <time>2018-07-10T09:46:45Z</time>
      </trkpt>
      <trkpt lat="45.98587" lon="4.83238">
        <ele>268</ele>
        <time>2018-07-10T09:46:46Z</time>
      </trkpt>
      <trkpt lat="45.98591" lon="4.83233">
        <ele>268</ele>
        <time>2018-07-10T09:46:47Z</time>
      </trkpt>
      <trkpt lat="45.98595" lon="4.83228">
        <ele>268</ele>
        <time>2018-07-10T09:46:48Z</time>
      </trkpt>
      <trkpt lat="45.986" lon="4.83223">
        <ele>268</ele>
        <time>2018-07-10T09:46:49Z</time>
      </trkpt>
      <trkpt lat="45.98604" lon="4.83219">
        <ele>267</ele>
        <time>2018-07-10T09:46:50Z</time>
      </trkpt>
      <trkpt lat="45.98608" lon="4.83214">
        <ele>267</ele>
        <time>2018-07-10T09:46:51Z</time>
      </trkpt>
      <trkpt lat="45.9861" lon="4.83203">
        <ele>267</ele>
        <time>2018-07-10T09:46:52Z</time>
      </trkpt>
      <trkpt lat="45.98614" lon="4.83197">
        <ele>267</ele>
        <time>2018-07-10T09:46:53Z</time>
      </trkpt>
      <trkpt lat="45.98618" lon="4.83192">
        <ele>267</ele>
        <time>2018-07-10T09:46:54Z</time>
      </trkpt>
      <trkpt lat="45.98623" lon="4.83188">
        <ele>267</ele>
        <time>2018-07-10T09:46:55Z</time>
      </trkpt>
      <trkpt lat="45.98628" lon="4.83182">
        <ele>267</ele>
        <time>2018-07-10T09:46:56Z</time>
      </trkpt>
      <trkpt lat="45.98634" lon="4.83178">
        <ele>267</ele>
        <time>2018-07-10T09:46:57Z</time>
      </trkpt>
      <trkpt lat="45.98639" lon="4.83173">
        <ele>267</ele>
        <time>2018-07-10T09:46:58Z</time>
      </trkpt>
      <trkpt lat="45.98645" lon="4.83168">
        <ele>267</ele>
        <time>2018-07-10T09:46:59Z</time>
      </trkpt>
      <trkpt lat="45.9865" lon="4.83165">
        <ele>267</ele>
        <time>2018-07-10T09:47:00Z</time>
      </trkpt>
      <trkpt lat="45.98655" lon="4.83162">
        <ele>267</ele>
        <time>2018-07-10T09:47:01Z</time>
      </trkpt>
      <trkpt lat="45.98661" lon="4.83156">
        <ele>267</ele>
        <time>2018-07-10T09:47:02Z</time>
      </trkpt>
      <trkpt lat="45.98666" lon="4.83153">
        <ele>267</ele>
        <time>2018-07-10T09:47:03Z</time>
      </trkpt>
      <trkpt lat="45.98672" lon="4.83149">
        <ele>266</ele>
        <time>2018-07-10T09:47:04Z</time>
      </trkpt>
      <trkpt lat="45.98677" lon="4.83146">
        <ele>266</ele>
        <time>2018-07-10T09:47:05Z</time>
      </trkpt>
      <trkpt lat="45.98682" lon="4.83143">
        <ele>266</ele>
        <time>2018-07-10T09:47:06Z</time>
      </trkpt>
      <trkpt lat="45.98687" lon="4.83139">
        <ele>266</ele>
        <time>2018-07-10T09:47:07Z</time>
      </trkpt>
      <trkpt lat="45.98692" lon="4.83133">
        <ele>266</ele>
        <time>2018-07-10T09:47:08Z</time>
      </trkpt>
      <trkpt lat="45.98698" lon="4.8313">
        <ele>267</ele>
        <time>2018-07-10T09:47:09Z</time>
      </trkpt>
      <trkpt lat="45.98702" lon="4.83126">
        <ele>267</ele>
        <time>2018-07-10T09:47:10Z</time>
      </trkpt>
      <trkpt lat="45.98708" lon="4.83122">
        <ele>267</ele>
        <time>2018-07-10T09:47:11Z</time>
      </trkpt>
      <trkpt lat="45.98714" lon="4.83118">
        <ele>267</ele>
        <time>2018-07-10T09:47:12Z</time>
      </trkpt>
      <trkpt lat="45.98719" lon="4.83114">
        <ele>267</ele>
        <time>2018-07-10T09:47:13Z</time>
      </trkpt>
      <trkpt lat="45.98724" lon="4.8311">
        <ele>267</ele>
        <time>2018-07-10T09:47:14Z</time>
      </trkpt>
      <trkpt lat="45.9873" lon="4.83103">
        <ele>267</ele>
        <time>2018-07-10T09:47:15Z</time>
      </trkpt>
      <trkpt lat="45.98735" lon="4.83099">
        <ele>267</ele>
        <time>2018-07-10T09:47:16Z</time>
      </trkpt>
      <trkpt lat="45.98741" lon="4.83095">
        <ele>267</ele>
        <time>2018-07-10T09:47:17Z</time>
      </trkpt>
      <trkpt lat="45.98747" lon="4.83091">
        <ele>267</ele>
        <time>2018-07-10T09:47:18Z</time>
      </trkpt>
      <trkpt lat="45.98752" lon="4.83087">
        <ele>266</ele>
        <time>2018-07-10T09:47:19Z</time>
      </trkpt>
      <trkpt lat="45.98757" lon="4.83082">
        <ele>266</ele>
        <time>2018-07-10T09:47:20Z</time>
      </trkpt>
      <trkpt lat="45.98762" lon="4.83079">
        <ele>266</ele>
        <time>2018-07-10T09:47:21Z</time>
      </trkpt>
      <trkpt lat="45.98766" lon="4.83075">
        <ele>266</ele>
        <time>2018-07-10T09:47:22Z</time>
      </trkpt>
      <trkpt lat="45.98772" lon="4.83071">
        <ele>265</ele>
        <time>2018-07-10T09:47:23Z</time>
      </trkpt>
      <trkpt lat="45.98778" lon="4.83066">
        <ele>265</ele>
        <time>2018-07-10T09:47:24Z</time>
      </trkpt>
      <trkpt lat="45.98783" lon="4.83063">
        <ele>265</ele>
        <time>2018-07-10T09:47:25Z</time>
      </trkpt>
      <trkpt lat="45.98789" lon="4.83058">
        <ele>265</ele>
        <time>2018-07-10T09:47:26Z</time>
      </trkpt>
      <trkpt lat="45.98794" lon="4.83053">
        <ele>265</ele>
        <time>2018-07-10T09:47:27Z</time>
      </trkpt>
      <trkpt lat="45.98799" lon="4.83048">
        <ele>264</ele>
        <time>2018-07-10T09:47:28Z</time>
      </trkpt>
      <trkpt lat="45.98804" lon="4.83043">
        <ele>264</ele>
        <time>2018-07-10T09:47:29Z</time>
      </trkpt>
      <trkpt lat="45.9881" lon="4.83038">
        <ele>264</ele>
        <time>2018-07-10T09:47:30Z</time>
      </trkpt>
      <trkpt lat="45.98817" lon="4.83034">
        <ele>264</ele>
        <time>2018-07-10T09:47:31Z</time>
      </trkpt>
      <trkpt lat="45.98822" lon="4.83031">
        <ele>264</ele>
        <time>2018-07-10T09:47:32Z</time>
      </trkpt>
      <trkpt lat="45.98829" lon="4.83026">
        <ele>264</ele>
        <time>2018-07-10T09:47:33Z</time>
      </trkpt>
      <trkpt lat="45.98835" lon="4.8302">
        <ele>261</ele>
        <time>2018-07-10T09:47:34Z</time>
      </trkpt>
      <trkpt lat="45.98842" lon="4.83016">
        <ele>261</ele>
        <time>2018-07-10T09:47:35Z</time>
      </trkpt>
      <trkpt lat="45.98849" lon="4.83011">
        <ele>261</ele>
        <time>2018-07-10T09:47:36Z</time>
      </trkpt>
      <trkpt lat="45.98855" lon="4.83007">
        <ele>261</ele>
        <time>2018-07-10T09:47:37Z</time>
      </trkpt>
      <trkpt lat="45.98863" lon="4.83002">
        <ele>260</ele>
        <time>2018-07-10T09:47:38Z</time>
      </trkpt>
      <trkpt lat="45.98871" lon="4.82997">
        <ele>260</ele>
        <time>2018-07-10T09:47:39Z</time>
      </trkpt>
      <trkpt lat="45.9888" lon="4.8299">
        <ele>260</ele>
        <time>2018-07-10T09:47:40Z</time>
      </trkpt>
      <trkpt lat="45.98888" lon="4.82984">
        <ele>259</ele>
        <time>2018-07-10T09:47:41Z</time>
      </trkpt>
      <trkpt lat="45.98897" lon="4.82979">
        <ele>259</ele>
        <time>2018-07-10T09:47:42Z</time>
      </trkpt>
      <trkpt lat="45.98905" lon="4.82972">
        <ele>259</ele>
        <time>2018-07-10T09:47:43Z</time>
      </trkpt>
      <trkpt lat="45.98911" lon="4.8296">
        <ele>258</ele>
        <time>2018-07-10T09:47:44Z</time>
      </trkpt>
      <trkpt lat="45.98919" lon="4.82949">
        <ele>255</ele>
        <time>2018-07-10T09:47:45Z</time>
      </trkpt>
      <trkpt lat="45.98925" lon="4.82935">
        <ele>255</ele>
        <time>2018-07-10T09:47:46Z</time>
      </trkpt>
      <trkpt lat="45.98932" lon="4.82922">
        <ele>255</ele>
        <time>2018-07-10T09:47:47Z</time>
      </trkpt>
      <trkpt lat="45.98938" lon="4.82908">
        <ele>254</ele>
        <time>2018-07-10T09:47:48Z</time>
      </trkpt>
      <trkpt lat="45.98944" lon="4.82893">
        <ele>253</ele>
        <time>2018-07-10T09:47:49Z</time>
      </trkpt>
      <trkpt lat="45.9895" lon="4.82879">
        <ele>253</ele>
        <time>2018-07-10T09:47:50Z</time>
      </trkpt>
      <trkpt lat="45.98956" lon="4.82865">
        <ele>252</ele>
        <time>2018-07-10T09:47:51Z</time>
      </trkpt>
      <trkpt lat="45.98963" lon="4.8285">
        <ele>252</ele>
        <time>2018-07-10T09:47:52Z</time>
      </trkpt>
      <trkpt lat="45.9897" lon="4.82834">
        <ele>251</ele>
        <time>2018-07-10T09:47:53Z</time>
      </trkpt>
      <trkpt lat="45.98976" lon="4.82818">
        <ele>248</ele>
        <time>2018-07-10T09:47:54Z</time>
      </trkpt>
      <trkpt lat="45.98981" lon="4.82801">
        <ele>248</ele>
        <time>2018-07-10T09:47:55Z</time>
      </trkpt>
      <trkpt lat="45.98988" lon="4.82785">
        <ele>247</ele>
        <time>2018-07-10T09:47:56Z</time>
      </trkpt>
      <trkpt lat="45.98996" lon="4.8277">
        <ele>245</ele>
        <time>2018-07-10T09:47:57Z</time>
      </trkpt>
      <trkpt lat="45.99003" lon="4.82754">
        <ele>241</ele>
        <time>2018-07-10T09:47:58Z</time>
      </trkpt>
      <trkpt lat="45.99013" lon="4.82741">
        <ele>240</ele>
        <time>2018-07-10T09:47:59Z</time>
      </trkpt>
      <trkpt lat="45.99019" lon="4.82725">
        <ele>239</ele>
        <time>2018-07-10T09:48:00Z</time>
      </trkpt>
      <trkpt lat="45.99025" lon="4.82712">
        <ele>238</ele>
        <time>2018-07-10T09:48:01Z</time>
      </trkpt>
      <trkpt lat="45.99029" lon="4.82697">
        <ele>238</ele>
        <time>2018-07-10T09:48:02Z</time>
      </trkpt>
      <trkpt lat="45.99033" lon="4.82684">
        <ele>238</ele>
        <time>2018-07-10T09:48:03Z</time>
      </trkpt>
      <trkpt lat="45.99038" lon="4.82673">
        <ele>238</ele>
        <time>2018-07-10T09:48:04Z</time>
      </trkpt>
      <trkpt lat="45.99042" lon="4.82661">
        <ele>236</ele>
        <time>2018-07-10T09:48:05Z</time>
      </trkpt>
      <trkpt lat="45.99048" lon="4.82652">
        <ele>236</ele>
        <time>2018-07-10T09:48:06Z</time>
      </trkpt>
      <trkpt lat="45.99052" lon="4.82642">
        <ele>236</ele>
        <time>2018-07-10T09:48:07Z</time>
      </trkpt>
      <trkpt lat="45.99056" lon="4.82632">
        <ele>236</ele>
        <time>2018-07-10T09:48:08Z</time>
      </trkpt>
      <trkpt lat="45.9906" lon="4.82624">
        <ele>236</ele>
        <time>2018-07-10T09:48:09Z</time>
      </trkpt>
      <trkpt lat="45.99064" lon="4.82616">
        <ele>236</ele>
        <time>2018-07-10T09:48:10Z</time>
      </trkpt>
      <trkpt lat="45.99069" lon="4.82607">
        <ele>236</ele>
        <time>2018-07-10T09:48:11Z</time>
      </trkpt>
      <trkpt lat="45.99072" lon="4.826">
        <ele>235</ele>
        <time>2018-07-10T09:48:12Z</time>
      </trkpt>
      <trkpt lat="45.99073" lon="4.82593">
        <ele>235</ele>
        <time>2018-07-10T09:48:13Z</time>
      </trkpt>
      <trkpt lat="45.99074" lon="4.82586">
        <ele>235</ele>
        <time>2018-07-10T09:48:14Z</time>
      </trkpt>
      <trkpt lat="45.99075" lon="4.82574">
        <ele>235</ele>
        <time>2018-07-10T09:48:16Z</time>
      </trkpt>
      <trkpt lat="45.99073" lon="4.82569">
        <ele>235</ele>
        <time>2018-07-10T09:48:17Z</time>
      </trkpt>
      <trkpt lat="45.99069" lon="4.82566">
        <ele>235</ele>
        <time>2018-07-10T09:48:18Z</time>
      </trkpt>
      <trkpt lat="45.99063" lon="4.82564">
        <ele>235</ele>
        <time>2018-07-10T09:48:19Z</time>
      </trkpt>
      <trkpt lat="45.99057" lon="4.82564">
        <ele>235</ele>
        <time>2018-07-10T09:48:20Z</time>
      </trkpt>
      <trkpt lat="45.99051" lon="4.8256">
        <ele>235</ele>
        <time>2018-07-10T09:48:21Z</time>
      </trkpt>
      <trkpt lat="45.99047" lon="4.82558">
        <ele>235</ele>
        <time>2018-07-10T09:48:22Z</time>
      </trkpt>
      <trkpt lat="45.9904" lon="4.82556">
        <ele>235</ele>
        <time>2018-07-10T09:48:23Z</time>
      </trkpt>
      <trkpt lat="45.99035" lon="4.82552">
        <ele>235</ele>
        <time>2018-07-10T09:48:24Z</time>
      </trkpt>
      <trkpt lat="45.99029" lon="4.82548">
        <ele>235</ele>
        <time>2018-07-10T09:48:25Z</time>
      </trkpt>
      <trkpt lat="45.99025" lon="4.82545">
        <ele>235</ele>
        <time>2018-07-10T09:48:26Z</time>
      </trkpt>
      <trkpt lat="45.9902" lon="4.82541">
        <ele>235</ele>
        <time>2018-07-10T09:48:27Z</time>
      </trkpt>
      <trkpt lat="45.99016" lon="4.82536">
        <ele>235</ele>
        <time>2018-07-10T09:48:28Z</time>
      </trkpt>
      <trkpt lat="45.99012" lon="4.82529">
        <ele>235</ele>
        <time>2018-07-10T09:48:29Z</time>
      </trkpt>
      <trkpt lat="45.99007" lon="4.82522">
        <ele>235</ele>
        <time>2018-07-10T09:48:30Z</time>
      </trkpt>
      <trkpt lat="45.99003" lon="4.82514">
        <ele>235</ele>
        <time>2018-07-10T09:48:31Z</time>
      </trkpt>
      <trkpt lat="45.99001" lon="4.82508">
        <ele>235</ele>
        <time>2018-07-10T09:48:32Z</time>
      </trkpt>
      <trkpt lat="45.98997" lon="4.82501">
        <ele>235</ele>
        <time>2018-07-10T09:48:33Z</time>
      </trkpt>
      <trkpt lat="45.98995" lon="4.82494">
        <ele>235</ele>
        <time>2018-07-10T09:48:34Z</time>
      </trkpt>
      <trkpt lat="45.98992" lon="4.82488">
        <ele>236</ele>
        <time>2018-07-10T09:48:35Z</time>
      </trkpt>
      <trkpt lat="45.9899" lon="4.82481">
        <ele>236</ele>
        <time>2018-07-10T09:48:36Z</time>
      </trkpt>
      <trkpt lat="45.98988" lon="4.82474">
        <ele>236</ele>
        <time>2018-07-10T09:48:37Z</time>
      </trkpt>
      <trkpt lat="45.98987" lon="4.82467">
        <ele>236</ele>
        <time>2018-07-10T09:48:38Z</time>
      </trkpt>
      <trkpt lat="45.98985" lon="4.8246">
        <ele>236</ele>
        <time>2018-07-10T09:48:39Z</time>
      </trkpt>
      <trkpt lat="45.98983" lon="4.82454">
        <ele>236</ele>
        <time>2018-07-10T09:48:40Z</time>
      </trkpt>
      <trkpt lat="45.98981" lon="4.82447">
        <ele>236</ele>
        <time>2018-07-10T09:48:41Z</time>
      </trkpt>
      <trkpt lat="45.9898" lon="4.8244">
        <ele>236</ele>
        <time>2018-07-10T09:48:42Z</time>
      </trkpt>
      <trkpt lat="45.98978" lon="4.82432">
        <ele>236</ele>
        <time>2018-07-10T09:48:43Z</time>
      </trkpt>
      <trkpt lat="45.98976" lon="4.82423">
        <ele>236</ele>
        <time>2018-07-10T09:48:44Z</time>
      </trkpt>
      <trkpt lat="45.98974" lon="4.82416">
        <ele>235</ele>
        <time>2018-07-10T09:48:45Z</time>
      </trkpt>
      <trkpt lat="45.98972" lon="4.82409">
        <ele>235</ele>
        <time>2018-07-10T09:48:46Z</time>
      </trkpt>
      <trkpt lat="45.98971" lon="4.82401">
        <ele>235</ele>
        <time>2018-07-10T09:48:47Z</time>
      </trkpt>
      <trkpt lat="45.98969" lon="4.82392">
        <ele>235</ele>
        <time>2018-07-10T09:48:48Z</time>
      </trkpt>
      <trkpt lat="45.98967" lon="4.82385">
        <ele>235</ele>
        <time>2018-07-10T09:48:49Z</time>
      </trkpt>
      <trkpt lat="45.98965" lon="4.82377">
        <ele>235</ele>
        <time>2018-07-10T09:48:50Z</time>
      </trkpt>
      <trkpt lat="45.98963" lon="4.82369">
        <ele>235</ele>
        <time>2018-07-10T09:48:51Z</time>
      </trkpt>
      <trkpt lat="45.9896" lon="4.82361">
        <ele>235</ele>
        <time>2018-07-10T09:48:52Z</time>
      </trkpt>
      <trkpt lat="45.98958" lon="4.82353">
        <ele>235</ele>
        <time>2018-07-10T09:48:53Z</time>
      </trkpt>
      <trkpt lat="45.98955" lon="4.82345">
        <ele>235</ele>
        <time>2018-07-10T09:48:54Z</time>
      </trkpt>
      <trkpt lat="45.98952" lon="4.82339">
        <ele>235</ele>
        <time>2018-07-10T09:48:55Z</time>
      </trkpt>
      <trkpt lat="45.98949" lon="4.82333">
        <ele>234</ele>
        <time>2018-07-10T09:48:56Z</time>
      </trkpt>
      <trkpt lat="45.98945" lon="4.82327">
        <ele>234</ele>
        <time>2018-07-10T09:48:57Z</time>
      </trkpt>
      <trkpt lat="45.98941" lon="4.82321">
        <ele>234</ele>
        <time>2018-07-10T09:48:58Z</time>
      </trkpt>
      <trkpt lat="45.98936" lon="4.82316">
        <ele>234</ele>
        <time>2018-07-10T09:48:59Z</time>
      </trkpt>
      <trkpt lat="45.98932" lon="4.82311">
        <ele>234</ele>
        <time>2018-07-10T09:49:00Z</time>
      </trkpt>
      <trkpt lat="45.98927" lon="4.82306">
        <ele>234</ele>
        <time>2018-07-10T09:49:01Z</time>
      </trkpt>
      <trkpt lat="45.98925" lon="4.823">
        <ele>234</ele>
        <time>2018-07-10T09:49:02Z</time>
      </trkpt>
      <trkpt lat="45.98921" lon="4.82295">
        <ele>234</ele>
        <time>2018-07-10T09:49:03Z</time>
      </trkpt>
      <trkpt lat="45.98915" lon="4.82287">
        <ele>236</ele>
        <time>2018-07-10T09:49:05Z</time>
      </trkpt>
      <trkpt lat="45.98911" lon="4.82282">
        <ele>236</ele>
        <time>2018-07-10T09:49:06Z</time>
      </trkpt>
      <trkpt lat="45.98908" lon="4.82279">
        <ele>236</ele>
        <time>2018-07-10T09:49:07Z</time>
      </trkpt>
      <trkpt lat="45.98904" lon="4.82274">
        <ele>236</ele>
        <time>2018-07-10T09:49:08Z</time>
      </trkpt>
      <trkpt lat="45.98901" lon="4.8227">
        <ele>236</ele>
        <time>2018-07-10T09:49:09Z</time>
      </trkpt>
      <trkpt lat="45.98896" lon="4.82264">
        <ele>236</ele>
        <time>2018-07-10T09:49:10Z</time>
      </trkpt>
      <trkpt lat="45.98893" lon="4.82259">
        <ele>236</ele>
        <time>2018-07-10T09:49:11Z</time>
      </trkpt>
      <trkpt lat="45.98887" lon="4.82253">
        <ele>236</ele>
        <time>2018-07-10T09:49:12Z</time>
      </trkpt>
      <trkpt lat="45.98884" lon="4.82247">
        <ele>236</ele>
        <time>2018-07-10T09:49:13Z</time>
      </trkpt>
      <trkpt lat="45.98881" lon="4.82241">
        <ele>236</ele>
        <time>2018-07-10T09:49:14Z</time>
      </trkpt>
      <trkpt lat="45.98879" lon="4.82235">
        <ele>236</ele>
        <time>2018-07-10T09:49:15Z</time>
      </trkpt>
      <trkpt lat="45.98876" lon="4.82227">
        <ele>236</ele>
        <time>2018-07-10T09:49:16Z</time>
      </trkpt>
      <trkpt lat="45.98874" lon="4.82221">
        <ele>236</ele>
        <time>2018-07-10T09:49:17Z</time>
      </trkpt>
      <trkpt lat="45.9887" lon="4.82214">
        <ele>236</ele>
        <time>2018-07-10T09:49:18Z</time>
      </trkpt>
      <trkpt lat="45.98868" lon="4.82207">
        <ele>236</ele>
        <time>2018-07-10T09:49:19Z</time>
      </trkpt>
      <trkpt lat="45.98865" lon="4.822">
        <ele>236</ele>
        <time>2018-07-10T09:49:20Z</time>
      </trkpt>
      <trkpt lat="45.98862" lon="4.82193">
        <ele>236</ele>
        <time>2018-07-10T09:49:21Z</time>
      </trkpt>
      <trkpt lat="45.98857" lon="4.82185">
        <ele>236</ele>
        <time>2018-07-10T09:49:22Z</time>
      </trkpt>
      <trkpt lat="45.98855" lon="4.82177">
        <ele>236</ele>
        <time>2018-07-10T09:49:23Z</time>
      </trkpt>
      <trkpt lat="45.98852" lon="4.82168">
        <ele>236</ele>
        <time>2018-07-10T09:49:24Z</time>
      </trkpt>
      <trkpt lat="45.9885" lon="4.82159">
        <ele>236</ele>
        <time>2018-07-10T09:49:25Z</time>
      </trkpt>
      <trkpt lat="45.98848" lon="4.82151">
        <ele>236</ele>
        <time>2018-07-10T09:49:26Z</time>
      </trkpt>
      <trkpt lat="45.98845" lon="4.82143">
        <ele>236</ele>
        <time>2018-07-10T09:49:27Z</time>
      </trkpt>
      <trkpt lat="45.98843" lon="4.82134">
        <ele>236</ele>
        <time>2018-07-10T09:49:28Z</time>
      </trkpt>
      <trkpt lat="45.98841" lon="4.82126">
        <ele>236</ele>
        <time>2018-07-10T09:49:29Z</time>
      </trkpt>
      <trkpt lat="45.98841" lon="4.82118">
        <ele>235</ele>
        <time>2018-07-10T09:49:30Z</time>
      </trkpt>
      <trkpt lat="45.9884" lon="4.82109">
        <ele>235</ele>
        <time>2018-07-10T09:49:31Z</time>
      </trkpt>
      <trkpt lat="45.98838" lon="4.821">
        <ele>236</ele>
        <time>2018-07-10T09:49:32Z</time>
      </trkpt>
      <trkpt lat="45.98835" lon="4.82091">
        <ele>236</ele>
        <time>2018-07-10T09:49:33Z</time>
      </trkpt>
      <trkpt lat="45.98834" lon="4.82082">
        <ele>236</ele>
        <time>2018-07-10T09:49:34Z</time>
      </trkpt>
      <trkpt lat="45.98833" lon="4.82074">
        <ele>237</ele>
        <time>2018-07-10T09:49:35Z</time>
      </trkpt>
      <trkpt lat="45.98831" lon="4.82066">
        <ele>237</ele>
        <time>2018-07-10T09:49:36Z</time>
      </trkpt>
      <trkpt lat="45.98829" lon="4.82058">
        <ele>237</ele>
        <time>2018-07-10T09:49:37Z</time>
      </trkpt>
      <trkpt lat="45.98828" lon="4.8205">
        <ele>237</ele>
        <time>2018-07-10T09:49:38Z</time>
      </trkpt>
      <trkpt lat="45.98827" lon="4.82043">
        <ele>238</ele>
        <time>2018-07-10T09:49:39Z</time>
      </trkpt>
      <trkpt lat="45.98826" lon="4.82036">
        <ele>238</ele>
        <time>2018-07-10T09:49:40Z</time>
      </trkpt>
      <trkpt lat="45.98825" lon="4.82029">
        <ele>238</ele>
        <time>2018-07-10T09:49:41Z</time>
      </trkpt>
      <trkpt lat="45.98825" lon="4.82022">
        <ele>238</ele>
        <time>2018-07-10T09:49:42Z</time>
      </trkpt>
      <trkpt lat="45.98824" lon="4.82015">
        <ele>238</ele>
        <time>2018-07-10T09:49:43Z</time>
      </trkpt>
      <trkpt lat="45.98823" lon="4.82005">
        <ele>238</ele>
        <time>2018-07-10T09:49:44Z</time>
      </trkpt>
      <trkpt lat="45.98822" lon="4.81998">
        <ele>238</ele>
        <time>2018-07-10T09:49:45Z</time>
      </trkpt>
      <trkpt lat="45.9882" lon="4.81992">
        <ele>238</ele>
        <time>2018-07-10T09:49:46Z</time>
      </trkpt>
      <trkpt lat="45.98818" lon="4.81983">
        <ele>238</ele>
        <time>2018-07-10T09:49:47Z</time>
      </trkpt>
      <trkpt lat="45.98819" lon="4.81974">
        <ele>239</ele>
        <time>2018-07-10T09:49:48Z</time>
      </trkpt>
      <trkpt lat="45.98818" lon="4.81966">
        <ele>239</ele>
        <time>2018-07-10T09:49:49Z</time>
      </trkpt>
      <trkpt lat="45.98816" lon="4.81958">
        <ele>239</ele>
        <time>2018-07-10T09:49:50Z</time>
      </trkpt>
      <trkpt lat="45.98815" lon="4.8195">
        <ele>239</ele>
        <time>2018-07-10T09:49:51Z</time>
      </trkpt>
      <trkpt lat="45.98814" lon="4.81942">
        <ele>239</ele>
        <time>2018-07-10T09:49:52Z</time>
      </trkpt>
      <trkpt lat="45.98811" lon="4.8193">
        <ele>239</ele>
        <time>2018-07-10T09:49:54Z</time>
      </trkpt>
      <trkpt lat="45.9881" lon="4.81924">
        <ele>239</ele>
        <time>2018-07-10T09:49:55Z</time>
      </trkpt>
      <trkpt lat="45.98808" lon="4.81916">
        <ele>239</ele>
        <time>2018-07-10T09:49:56Z</time>
      </trkpt>
      <trkpt lat="45.98806" lon="4.81909">
        <ele>239</ele>
        <time>2018-07-10T09:49:57Z</time>
      </trkpt>
      <trkpt lat="45.98803" lon="4.819">
        <ele>239</ele>
        <time>2018-07-10T09:49:58Z</time>
      </trkpt>
      <trkpt lat="45.98802" lon="4.81893">
        <ele>239</ele>
        <time>2018-07-10T09:49:59Z</time>
      </trkpt>
      <trkpt lat="45.98801" lon="4.81886">
        <ele>239</ele>
        <time>2018-07-10T09:50:00Z</time>
      </trkpt>
      <trkpt lat="45.988" lon="4.8188">
        <ele>239</ele>
        <time>2018-07-10T09:50:01Z</time>
      </trkpt>
      <trkpt lat="45.98795" lon="4.81873">
        <ele>239</ele>
        <time>2018-07-10T09:50:02Z</time>
      </trkpt>
      <trkpt lat="45.98792" lon="4.81868">
        <ele>239</ele>
        <time>2018-07-10T09:50:03Z</time>
      </trkpt>
      <trkpt lat="45.9879" lon="4.81862">
        <ele>239</ele>
        <time>2018-07-10T09:50:04Z</time>
      </trkpt>
      <trkpt lat="45.98787" lon="4.81855">
        <ele>239</ele>
        <time>2018-07-10T09:50:05Z</time>
      </trkpt>
      <trkpt lat="45.98785" lon="4.81849">
        <ele>239</ele>
        <time>2018-07-10T09:50:06Z</time>
      </trkpt>
      <trkpt lat="45.9878" lon="4.81843">
        <ele>239</ele>
        <time>2018-07-10T09:50:07Z</time>
      </trkpt>
      <trkpt lat="45.98777" lon="4.81836">
        <ele>239</ele>
        <time>2018-07-10T09:50:08Z</time>
      </trkpt>
      <trkpt lat="45.98775" lon="4.81831">
        <ele>240</ele>
        <time>2018-07-10T09:50:09Z</time>
      </trkpt>
      <trkpt lat="45.98772" lon="4.81825">
        <ele>240</ele>
        <time>2018-07-10T09:50:10Z</time>
      </trkpt>
      <trkpt lat="45.98768" lon="4.81818">
        <ele>240</ele>
        <time>2018-07-10T09:50:11Z</time>
      </trkpt>
      <trkpt lat="45.98767" lon="4.81811">
        <ele>240</ele>
        <time>2018-07-10T09:50:12Z</time>
      </trkpt>
      <trkpt lat="45.98764" lon="4.81805">
        <ele>240</ele>
        <time>2018-07-10T09:50:13Z</time>
      </trkpt>
      <trkpt lat="45.98761" lon="4.818">
        <ele>240</ele>
        <time>2018-07-10T09:50:14Z</time>
      </trkpt>
      <trkpt lat="45.9876" lon="4.81794">
        <ele>240</ele>
        <time>2018-07-10T09:50:15Z</time>
      </trkpt>
      <trkpt lat="45.98757" lon="4.81784">
        <ele>241</ele>
        <time>2018-07-10T09:50:17Z</time>
      </trkpt>
      <trkpt lat="45.98754" lon="4.81778">
        <ele>241</ele>
        <time>2018-07-10T09:50:18Z</time>
      </trkpt>
      <trkpt lat="45.9875" lon="4.81768">
        <ele>241</ele>
        <time>2018-07-10T09:50:20Z</time>
      </trkpt>
      <trkpt lat="45.98747" lon="4.81763">
        <ele>240</ele>
        <time>2018-07-10T09:50:21Z</time>
      </trkpt>
      <trkpt lat="45.98742" lon="4.81756">
        <ele>240</ele>
        <time>2018-07-10T09:50:22Z</time>
      </trkpt>
      <trkpt lat="45.98739" lon="4.81751">
        <ele>240</ele>
        <time>2018-07-10T09:50:23Z</time>
      </trkpt>
      <trkpt lat="45.98739" lon="4.81743">
        <ele>240</ele>
        <time>2018-07-10T09:50:24Z</time>
      </trkpt>
      <trkpt lat="45.98736" lon="4.81737">
        <ele>240</ele>
        <time>2018-07-10T09:50:25Z</time>
      </trkpt>
      <trkpt lat="45.98731" lon="4.81727">
        <ele>239</ele>
        <time>2018-07-10T09:50:27Z</time>
      </trkpt>
      <trkpt lat="45.98726" lon="4.81725">
        <ele>239</ele>
        <time>2018-07-10T09:50:28Z</time>
      </trkpt>
      <trkpt lat="45.98718" lon="4.81724">
        <ele>239</ele>
        <time>2018-07-10T09:50:30Z</time>
      </trkpt>
      <trkpt lat="45.98711" lon="4.81725">
        <ele>239</ele>
        <time>2018-07-10T09:50:31Z</time>
      </trkpt>
      <trkpt lat="45.98705" lon="4.81726">
        <ele>239</ele>
        <time>2018-07-10T09:50:32Z</time>
      </trkpt>
      <trkpt lat="45.98699" lon="4.81728">
        <ele>239</ele>
        <time>2018-07-10T09:50:33Z</time>
      </trkpt>
      <trkpt lat="45.98696" lon="4.81728">
        <ele>238</ele>
        <time>2018-07-10T09:50:34Z</time>
      </trkpt>
      <trkpt lat="45.9869" lon="4.81729">
        <ele>238</ele>
        <time>2018-07-10T09:50:35Z</time>
      </trkpt>
      <trkpt lat="45.98683" lon="4.81731">
        <ele>238</ele>
        <time>2018-07-10T09:50:36Z</time>
      </trkpt>
      <trkpt lat="45.98678" lon="4.81732">
        <ele>238</ele>
        <time>2018-07-10T09:50:37Z</time>
      </trkpt>
      <trkpt lat="45.98672" lon="4.81732">
        <ele>238</ele>
        <time>2018-07-10T09:50:38Z</time>
      </trkpt>
      <trkpt lat="45.98664" lon="4.81734">
        <ele>237</ele>
        <time>2018-07-10T09:50:39Z</time>
      </trkpt>
      <trkpt lat="45.98658" lon="4.81736">
        <ele>237</ele>
        <time>2018-07-10T09:50:40Z</time>
      </trkpt>
      <trkpt lat="45.98653" lon="4.81738">
        <ele>237</ele>
        <time>2018-07-10T09:50:41Z</time>
      </trkpt>
      <trkpt lat="45.98649" lon="4.8174">
        <ele>237</ele>
        <time>2018-07-10T09:50:42Z</time>
      </trkpt>
      <trkpt lat="45.98644" lon="4.81742">
        <ele>237</ele>
        <time>2018-07-10T09:50:43Z</time>
      </trkpt>
      <trkpt lat="45.98639" lon="4.81743">
        <ele>237</ele>
        <time>2018-07-10T09:50:44Z</time>
      </trkpt>
      <trkpt lat="45.98634" lon="4.81746">
        <ele>237</ele>
        <time>2018-07-10T09:50:45Z</time>
      </trkpt>
      <trkpt lat="45.98629" lon="4.81747">
        <ele>237</ele>
        <time>2018-07-10T09:50:46Z</time>
      </trkpt>
      <trkpt lat="45.98624" lon="4.81748">
        <ele>237</ele>
        <time>2018-07-10T09:50:47Z</time>
      </trkpt>
      <trkpt lat="45.9862" lon="4.81749">
        <ele>237</ele>
        <time>2018-07-10T09:50:48Z</time>
      </trkpt>
      <trkpt lat="45.98614" lon="4.8175">
        <ele>238</ele>
        <time>2018-07-10T09:50:49Z</time>
      </trkpt>
      <trkpt lat="45.98606" lon="4.81753">
        <ele>238</ele>
        <time>2018-07-10T09:50:51Z</time>
      </trkpt>
      <trkpt lat="45.986" lon="4.81757">
        <ele>238</ele>
        <time>2018-07-10T09:50:52Z</time>
      </trkpt>
      <trkpt lat="45.98595" lon="4.8176">
        <ele>237</ele>
        <time>2018-07-10T09:50:53Z</time>
      </trkpt>
      <trkpt lat="45.98589" lon="4.81763">
        <ele>237</ele>
        <time>2018-07-10T09:50:54Z</time>
      </trkpt>
      <trkpt lat="45.98585" lon="4.81767">
        <ele>237</ele>
        <time>2018-07-10T09:50:55Z</time>
      </trkpt>
      <trkpt lat="45.98579" lon="4.81772">
        <ele>237</ele>
        <time>2018-07-10T09:50:56Z</time>
      </trkpt>
      <trkpt lat="45.98575" lon="4.81775">
        <ele>237</ele>
        <time>2018-07-10T09:50:57Z</time>
      </trkpt>
      <trkpt lat="45.9857" lon="4.81781">
        <ele>238</ele>
        <time>2018-07-10T09:50:58Z</time>
      </trkpt>
      <trkpt lat="45.98566" lon="4.81788">
        <ele>238</ele>
        <time>2018-07-10T09:50:59Z</time>
      </trkpt>
      <trkpt lat="45.98564" lon="4.81792">
        <ele>238</ele>
        <time>2018-07-10T09:51:00Z</time>
      </trkpt>
      <trkpt lat="45.98559" lon="4.81796">
        <ele>238</ele>
        <time>2018-07-10T09:51:01Z</time>
      </trkpt>
      <trkpt lat="45.98556" lon="4.81799">
        <ele>238</ele>
        <time>2018-07-10T09:51:02Z</time>
      </trkpt>
      <trkpt lat="45.98551" lon="4.81801">
        <ele>238</ele>
        <time>2018-07-10T09:51:03Z</time>
      </trkpt>
      <trkpt lat="45.98546" lon="4.81799">
        <ele>238</ele>
        <time>2018-07-10T09:51:04Z</time>
      </trkpt>
      <trkpt lat="45.98539" lon="4.81797">
        <ele>238</ele>
        <time>2018-07-10T09:51:05Z</time>
      </trkpt>
      <trkpt lat="45.98535" lon="4.81794">
        <ele>238</ele>
        <time>2018-07-10T09:51:06Z</time>
      </trkpt>
      <trkpt lat="45.9853" lon="4.81789">
        <ele>238</ele>
        <time>2018-07-10T09:51:07Z</time>
      </trkpt>
      <trkpt lat="45.98526" lon="4.81783">
        <ele>238</ele>
        <time>2018-07-10T09:51:08Z</time>
      </trkpt>
      <trkpt lat="45.98521" lon="4.81779">
        <ele>238</ele>
        <time>2018-07-10T09:51:09Z</time>
      </trkpt>
      <trkpt lat="45.98516" lon="4.81774">
        <ele>238</ele>
        <time>2018-07-10T09:51:10Z</time>
      </trkpt>
      <trkpt lat="45.98512" lon="4.81768">
        <ele>237</ele>
        <time>2018-07-10T09:51:11Z</time>
      </trkpt>
      <trkpt lat="45.98508" lon="4.81763">
        <ele>237</ele>
        <time>2018-07-10T09:51:12Z</time>
      </trkpt>
      <trkpt lat="45.98505" lon="4.81753">
        <ele>237</ele>
        <time>2018-07-10T09:51:14Z</time>
      </trkpt>
      <trkpt lat="45.98499" lon="4.8175">
        <ele>237</ele>
        <time>2018-07-10T09:51:15Z</time>
      </trkpt>
      <trkpt lat="45.98495" lon="4.81746">
        <ele>237</ele>
        <time>2018-07-10T09:51:16Z</time>
      </trkpt>
      <trkpt lat="45.9849" lon="4.81744">
        <ele>238</ele>
        <time>2018-07-10T09:51:17Z</time>
      </trkpt>
      <trkpt lat="45.98488" lon="4.81742">
        <ele>238</ele>
        <time>2018-07-10T09:51:18Z</time>
      </trkpt>
      <trkpt lat="45.98481" lon="4.81739">
        <ele>238</ele>
        <time>2018-07-10T09:51:19Z</time>
      </trkpt>
      <trkpt lat="45.98476" lon="4.81736">
        <ele>238</ele>
        <time>2018-07-10T09:51:20Z</time>
      </trkpt>
      <trkpt lat="45.98473" lon="4.81731">
        <ele>239</ele>
        <time>2018-07-10T09:51:21Z</time>
      </trkpt>
      <trkpt lat="45.98469" lon="4.81728">
        <ele>239</ele>
        <time>2018-07-10T09:51:22Z</time>
      </trkpt>
      <trkpt lat="45.98465" lon="4.81724">
        <ele>239</ele>
        <time>2018-07-10T09:51:23Z</time>
      </trkpt>
      <trkpt lat="45.98461" lon="4.81715">
        <ele>239</ele>
        <time>2018-07-10T09:51:25Z</time>
      </trkpt>
      <trkpt lat="45.9846" lon="4.81708">
        <ele>239</ele>
        <time>2018-07-10T09:51:26Z</time>
      </trkpt>
      <trkpt lat="45.98455" lon="4.81699">
        <ele>239</ele>
        <time>2018-07-10T09:51:28Z</time>
      </trkpt>
      <trkpt lat="45.98452" lon="4.81694">
        <ele>239</ele>
        <time>2018-07-10T09:51:29Z</time>
      </trkpt>
      <trkpt lat="45.98447" lon="4.81684">
        <ele>239</ele>
        <time>2018-07-10T09:51:31Z</time>
      </trkpt>
      <trkpt lat="45.98445" lon="4.8168">
        <ele>239</ele>
        <time>2018-07-10T09:51:32Z</time>
      </trkpt>
      <trkpt lat="45.98441" lon="4.81675">
        <ele>240</ele>
        <time>2018-07-10T09:51:33Z</time>
      </trkpt>
      <trkpt lat="45.98436" lon="4.81672">
        <ele>240</ele>
        <time>2018-07-10T09:51:34Z</time>
      </trkpt>
      <trkpt lat="45.98432" lon="4.81669">
        <ele>240</ele>
        <time>2018-07-10T09:51:35Z</time>
      </trkpt>
      <trkpt lat="45.98428" lon="4.81665">
        <ele>239</ele>
        <time>2018-07-10T09:51:36Z</time>
      </trkpt>
      <trkpt lat="45.98421" lon="4.81661">
        <ele>240</ele>
        <time>2018-07-10T09:51:38Z</time>
      </trkpt>
      <trkpt lat="45.98418" lon="4.81661">
        <ele>240</ele>
        <time>2018-07-10T09:51:39Z</time>
      </trkpt>
      <trkpt lat="45.98412" lon="4.81661">
        <ele>241</ele>
        <time>2018-07-10T09:51:41Z</time>
      </trkpt>
      <trkpt lat="45.98407" lon="4.81662">
        <ele>241</ele>
        <time>2018-07-10T09:51:42Z</time>
      </trkpt>
      <trkpt lat="45.98397" lon="4.81667">
        <ele>242</ele>
        <time>2018-07-10T09:51:43Z</time>
      </trkpt>
      <trkpt lat="45.98392" lon="4.81668">
        <ele>243</ele>
        <time>2018-07-10T09:51:45Z</time>
      </trkpt>
      <trkpt lat="45.98387" lon="4.8167">
        <ele>243</ele>
        <time>2018-07-10T09:51:46Z</time>
      </trkpt>
      <trkpt lat="45.98383" lon="4.81672">
        <ele>243</ele>
        <time>2018-07-10T09:51:47Z</time>
      </trkpt>
      <trkpt lat="45.98377" lon="4.81674">
        <ele>244</ele>
        <time>2018-07-10T09:51:48Z</time>
      </trkpt>
      <trkpt lat="45.98372" lon="4.81674">
        <ele>244</ele>
        <time>2018-07-10T09:51:49Z</time>
      </trkpt>
      <trkpt lat="45.98366" lon="4.81676">
        <ele>244</ele>
        <time>2018-07-10T09:51:50Z</time>
      </trkpt>
      <trkpt lat="45.98361" lon="4.81676">
        <ele>244</ele>
        <time>2018-07-10T09:51:51Z</time>
      </trkpt>
      <trkpt lat="45.98356" lon="4.81674">
        <ele>245</ele>
        <time>2018-07-10T09:51:52Z</time>
      </trkpt>
      <trkpt lat="45.98351" lon="4.81674">
        <ele>245</ele>
        <time>2018-07-10T09:51:53Z</time>
      </trkpt>
      <trkpt lat="45.98346" lon="4.81672">
        <ele>245</ele>
        <time>2018-07-10T09:51:54Z</time>
      </trkpt>
      <trkpt lat="45.9834" lon="4.81672">
        <ele>245</ele>
        <time>2018-07-10T09:51:55Z</time>
      </trkpt>
      <trkpt lat="45.98336" lon="4.81669">
        <ele>246</ele>
        <time>2018-07-10T09:51:56Z</time>
      </trkpt>
      <trkpt lat="45.98331" lon="4.81667">
        <ele>246</ele>
        <time>2018-07-10T09:51:57Z</time>
      </trkpt>
      <trkpt lat="45.98327" lon="4.81664">
        <ele>246</ele>
        <time>2018-07-10T09:51:58Z</time>
      </trkpt>
      <trkpt lat="45.98323" lon="4.81661">
        <ele>246</ele>
        <time>2018-07-10T09:51:59Z</time>
      </trkpt>
      <trkpt lat="45.98319" lon="4.81658">
        <ele>246</ele>
        <time>2018-07-10T09:52:00Z</time>
      </trkpt>
      <trkpt lat="45.98314" lon="4.81653">
        <ele>246</ele>
        <time>2018-07-10T09:52:01Z</time>
      </trkpt>
      <trkpt lat="45.9831" lon="4.81649">
        <ele>246</ele>
        <time>2018-07-10T09:52:02Z</time>
      </trkpt>
      <trkpt lat="45.98306" lon="4.81645">
        <ele>246</ele>
        <time>2018-07-10T09:52:03Z</time>
      </trkpt>
      <trkpt lat="45.98301" lon="4.81641">
        <ele>246</ele>
        <time>2018-07-10T09:52:04Z</time>
      </trkpt>
      <trkpt lat="45.98294" lon="4.81634">
        <ele>247</ele>
        <time>2018-07-10T09:52:06Z</time>
      </trkpt>
      <trkpt lat="45.98291" lon="4.81631">
        <ele>247</ele>
        <time>2018-07-10T09:52:07Z</time>
      </trkpt>
      <trkpt lat="45.98288" lon="4.81627">
        <ele>247</ele>
        <time>2018-07-10T09:52:08Z</time>
      </trkpt>
      <trkpt lat="45.98284" lon="4.81622">
        <ele>247</ele>
        <time>2018-07-10T09:52:09Z</time>
      </trkpt>
      <trkpt lat="45.98281" lon="4.81617">
        <ele>247</ele>
        <time>2018-07-10T09:52:10Z</time>
      </trkpt>
      <trkpt lat="45.9828" lon="4.81609">
        <ele>247</ele>
        <time>2018-07-10T09:52:11Z</time>
      </trkpt>
      <trkpt lat="45.98278" lon="4.81603">
        <ele>247</ele>
        <time>2018-07-10T09:52:12Z</time>
      </trkpt>
      <trkpt lat="45.98273" lon="4.81597">
        <ele>247</ele>
        <time>2018-07-10T09:52:13Z</time>
      </trkpt>
      <trkpt lat="45.98271" lon="4.81591">
        <ele>247</ele>
        <time>2018-07-10T09:52:14Z</time>
      </trkpt>
      <trkpt lat="45.98268" lon="4.81584">
        <ele>247</ele>
        <time>2018-07-10T09:52:15Z</time>
      </trkpt>
      <trkpt lat="45.98266" lon="4.81578">
        <ele>247</ele>
        <time>2018-07-10T09:52:16Z</time>
      </trkpt>
      <trkpt lat="45.98265" lon="4.81571">
        <ele>247</ele>
        <time>2018-07-10T09:52:17Z</time>
      </trkpt>
      <trkpt lat="45.98262" lon="4.81564">
        <ele>247</ele>
        <time>2018-07-10T09:52:18Z</time>
      </trkpt>
      <trkpt lat="45.9826" lon="4.81555">
        <ele>247</ele>
        <time>2018-07-10T09:52:19Z</time>
      </trkpt>
      <trkpt lat="45.98257" lon="4.81549">
        <ele>247</ele>
        <time>2018-07-10T09:52:20Z</time>
      </trkpt>
      <trkpt lat="45.98255" lon="4.81543">
        <ele>247</ele>
        <time>2018-07-10T09:52:21Z</time>
      </trkpt>
      <trkpt lat="45.98253" lon="4.81536">
        <ele>247</ele>
        <time>2018-07-10T09:52:22Z</time>
      </trkpt>
      <trkpt lat="45.9825" lon="4.8153">
        <ele>247</ele>
        <time>2018-07-10T09:52:23Z</time>
      </trkpt>
      <trkpt lat="45.98247" lon="4.81523">
        <ele>249</ele>
        <time>2018-07-10T09:52:24Z</time>
      </trkpt>
      <trkpt lat="45.98244" lon="4.81517">
        <ele>249</ele>
        <time>2018-07-10T09:52:25Z</time>
      </trkpt>
      <trkpt lat="45.98241" lon="4.8151">
        <ele>249</ele>
        <time>2018-07-10T09:52:26Z</time>
      </trkpt>
      <trkpt lat="45.98239" lon="4.81503">
        <ele>249</ele>
        <time>2018-07-10T09:52:27Z</time>
      </trkpt>
      <trkpt lat="45.98237" lon="4.81497">
        <ele>249</ele>
        <time>2018-07-10T09:52:28Z</time>
      </trkpt>
      <trkpt lat="45.98235" lon="4.8149">
        <ele>249</ele>
        <time>2018-07-10T09:52:29Z</time>
      </trkpt>
      <trkpt lat="45.98232" lon="4.81483">
        <ele>249</ele>
        <time>2018-07-10T09:52:30Z</time>
      </trkpt>
      <trkpt lat="45.9823" lon="4.81477">
        <ele>249</ele>
        <time>2018-07-10T09:52:31Z</time>
      </trkpt>
      <trkpt lat="45.98227" lon="4.81467">
        <ele>249</ele>
        <time>2018-07-10T09:52:33Z</time>
      </trkpt>
      <trkpt lat="45.98225" lon="4.81461">
        <ele>249</ele>
        <time>2018-07-10T09:52:34Z</time>
      </trkpt>
      <trkpt lat="45.98223" lon="4.81455">
        <ele>249</ele>
        <time>2018-07-10T09:52:35Z</time>
      </trkpt>
      <trkpt lat="45.9822" lon="4.8145">
        <ele>249</ele>
        <time>2018-07-10T09:52:36Z</time>
      </trkpt>
      <trkpt lat="45.98218" lon="4.81443">
        <ele>249</ele>
        <time>2018-07-10T09:52:37Z</time>
      </trkpt>
      <trkpt lat="45.98217" lon="4.81437">
        <ele>249</ele>
        <time>2018-07-10T09:52:38Z</time>
      </trkpt>
      <trkpt lat="45.98215" lon="4.81431">
        <ele>249</ele>
        <time>2018-07-10T09:52:39Z</time>
      </trkpt>
      <trkpt lat="45.98213" lon="4.81424">
        <ele>249</ele>
        <time>2018-07-10T09:52:40Z</time>
      </trkpt>
      <trkpt lat="45.98211" lon="4.81418">
        <ele>249</ele>
        <time>2018-07-10T09:52:41Z</time>
      </trkpt>
      <trkpt lat="45.98209" lon="4.81412">
        <ele>248</ele>
        <time>2018-07-10T09:52:42Z</time>
      </trkpt>
      <trkpt lat="45.98205" lon="4.81402">
        <ele>248</ele>
        <time>2018-07-10T09:52:44Z</time>
      </trkpt>
      <trkpt lat="45.98204" lon="4.81395">
        <ele>248</ele>
        <time>2018-07-10T09:52:45Z</time>
      </trkpt>
      <trkpt lat="45.98202" lon="4.81389">
        <ele>248</ele>
        <time>2018-07-10T09:52:46Z</time>
      </trkpt>
      <trkpt lat="45.982" lon="4.81382">
        <ele>248</ele>
        <time>2018-07-10T09:52:47Z</time>
      </trkpt>
      <trkpt lat="45.98198" lon="4.81376">
        <ele>248</ele>
        <time>2018-07-10T09:52:48Z</time>
      </trkpt>
      <trkpt lat="45.98196" lon="4.81369">
        <ele>248</ele>
        <time>2018-07-10T09:52:49Z</time>
      </trkpt>
      <trkpt lat="45.98194" lon="4.81363">
        <ele>248</ele>
        <time>2018-07-10T09:52:50Z</time>
      </trkpt>
      <trkpt lat="45.98192" lon="4.81356">
        <ele>248</ele>
        <time>2018-07-10T09:52:51Z</time>
      </trkpt>
      <trkpt lat="45.98191" lon="4.8135">
        <ele>248</ele>
        <time>2018-07-10T09:52:52Z</time>
      </trkpt>
      <trkpt lat="45.98189" lon="4.81343">
        <ele>248</ele>
        <time>2018-07-10T09:52:53Z</time>
      </trkpt>
      <trkpt lat="45.98188" lon="4.81335">
        <ele>248</ele>
        <time>2018-07-10T09:52:54Z</time>
      </trkpt>
      <trkpt lat="45.98188" lon="4.81328">
        <ele>247</ele>
        <time>2018-07-10T09:52:55Z</time>
      </trkpt>
      <trkpt lat="45.98187" lon="4.81321">
        <ele>247</ele>
        <time>2018-07-10T09:52:56Z</time>
      </trkpt>
      <trkpt lat="45.98185" lon="4.81314">
        <ele>247</ele>
        <time>2018-07-10T09:52:57Z</time>
      </trkpt>
      <trkpt lat="45.98184" lon="4.81306">
        <ele>247</ele>
        <time>2018-07-10T09:52:58Z</time>
      </trkpt>
      <trkpt lat="45.98183" lon="4.81299">
        <ele>247</ele>
        <time>2018-07-10T09:52:59Z</time>
      </trkpt>
      <trkpt lat="45.98181" lon="4.81292">
        <ele>247</ele>
        <time>2018-07-10T09:53:00Z</time>
      </trkpt>
      <trkpt lat="45.9818" lon="4.81285">
        <ele>247</ele>
        <time>2018-07-10T09:53:01Z</time>
      </trkpt>
      <trkpt lat="45.98178" lon="4.81277">
        <ele>247</ele>
        <time>2018-07-10T09:53:02Z</time>
      </trkpt>
      <trkpt lat="45.98177" lon="4.81269">
        <ele>247</ele>
        <time>2018-07-10T09:53:03Z</time>
      </trkpt>
      <trkpt lat="45.98175" lon="4.81262">
        <ele>247</ele>
        <time>2018-07-10T09:53:04Z</time>
      </trkpt>
      <trkpt lat="45.98173" lon="4.81255">
        <ele>248</ele>
        <time>2018-07-10T09:53:05Z</time>
      </trkpt>
      <trkpt lat="45.98172" lon="4.81247">
        <ele>247</ele>
        <time>2018-07-10T09:53:06Z</time>
      </trkpt>
      <trkpt lat="45.98172" lon="4.81239">
        <ele>247</ele>
        <time>2018-07-10T09:53:07Z</time>
      </trkpt>
      <trkpt lat="45.9817" lon="4.81232">
        <ele>246</ele>
        <time>2018-07-10T09:53:08Z</time>
      </trkpt>
      <trkpt lat="45.98171" lon="4.81225">
        <ele>246</ele>
        <time>2018-07-10T09:53:09Z</time>
      </trkpt>
      <trkpt lat="45.98169" lon="4.81218">
        <ele>246</ele>
        <time>2018-07-10T09:53:10Z</time>
      </trkpt>
      <trkpt lat="45.9817" lon="4.8121">
        <ele>246</ele>
        <time>2018-07-10T09:53:11Z</time>
      </trkpt>
      <trkpt lat="45.98169" lon="4.81202">
        <ele>245</ele>
        <time>2018-07-10T09:53:12Z</time>
      </trkpt>
      <trkpt lat="45.98171" lon="4.81195">
        <ele>245</ele>
        <time>2018-07-10T09:53:13Z</time>
      </trkpt>
      <trkpt lat="45.98171" lon="4.81188">
        <ele>245</ele>
        <time>2018-07-10T09:53:14Z</time>
      </trkpt>
      <trkpt lat="45.9817" lon="4.8118">
        <ele>245</ele>
        <time>2018-07-10T09:53:15Z</time>
      </trkpt>
      <trkpt lat="45.98169" lon="4.81172">
        <ele>245</ele>
        <time>2018-07-10T09:53:16Z</time>
      </trkpt>
      <trkpt lat="45.98167" lon="4.81164">
        <ele>245</ele>
        <time>2018-07-10T09:53:17Z</time>
      </trkpt>
      <trkpt lat="45.98161" lon="4.81155">
        <ele>245</ele>
        <time>2018-07-10T09:53:18Z</time>
      </trkpt>
      <trkpt lat="45.98159" lon="4.81147">
        <ele>245</ele>
        <time>2018-07-10T09:53:19Z</time>
      </trkpt>
      <trkpt lat="45.98156" lon="4.81139">
        <ele>245</ele>
        <time>2018-07-10T09:53:20Z</time>
      </trkpt>
      <trkpt lat="45.98153" lon="4.81132">
        <ele>245</ele>
        <time>2018-07-10T09:53:21Z</time>
      </trkpt>
      <trkpt lat="45.98149" lon="4.81125">
        <ele>245</ele>
        <time>2018-07-10T09:53:22Z</time>
      </trkpt>
      <trkpt lat="45.98146" lon="4.81116">
        <ele>245</ele>
        <time>2018-07-10T09:53:23Z</time>
      </trkpt>
      <trkpt lat="45.98143" lon="4.81109">
        <ele>245</ele>
        <time>2018-07-10T09:53:24Z</time>
      </trkpt>
      <trkpt lat="45.98141" lon="4.81102">
        <ele>245</ele>
        <time>2018-07-10T09:53:25Z</time>
      </trkpt>
      <trkpt lat="45.98137" lon="4.81094">
        <ele>245</ele>
        <time>2018-07-10T09:53:26Z</time>
      </trkpt>
      <trkpt lat="45.98132" lon="4.81086">
        <ele>245</ele>
        <time>2018-07-10T09:53:27Z</time>
      </trkpt>
      <trkpt lat="45.98129" lon="4.81079">
        <ele>243</ele>
        <time>2018-07-10T09:53:28Z</time>
      </trkpt>
      <trkpt lat="45.98125" lon="4.81072">
        <ele>243</ele>
        <time>2018-07-10T09:53:29Z</time>
      </trkpt>
      <trkpt lat="45.98123" lon="4.81065">
        <ele>243</ele>
        <time>2018-07-10T09:53:30Z</time>
      </trkpt>
      <trkpt lat="45.9812" lon="4.81058">
        <ele>243</ele>
        <time>2018-07-10T09:53:31Z</time>
      </trkpt>
      <trkpt lat="45.98118" lon="4.8105">
        <ele>243</ele>
        <time>2018-07-10T09:53:32Z</time>
      </trkpt>
      <trkpt lat="45.98116" lon="4.81043">
        <ele>242</ele>
        <time>2018-07-10T09:53:33Z</time>
      </trkpt>
      <trkpt lat="45.98113" lon="4.81036">
        <ele>242</ele>
        <time>2018-07-10T09:53:34Z</time>
      </trkpt>
      <trkpt lat="45.98111" lon="4.81029">
        <ele>242</ele>
        <time>2018-07-10T09:53:35Z</time>
      </trkpt>
      <trkpt lat="45.98109" lon="4.81022">
        <ele>242</ele>
        <time>2018-07-10T09:53:36Z</time>
      </trkpt>
      <trkpt lat="45.98107" lon="4.81015">
        <ele>242</ele>
        <time>2018-07-10T09:53:37Z</time>
      </trkpt>
      <trkpt lat="45.98104" lon="4.81009">
        <ele>242</ele>
        <time>2018-07-10T09:53:38Z</time>
      </trkpt>
      <trkpt lat="45.98101" lon="4.81003">
        <ele>242</ele>
        <time>2018-07-10T09:53:39Z</time>
      </trkpt>
      <trkpt lat="45.98099" lon="4.80997">
        <ele>240</ele>
        <time>2018-07-10T09:53:40Z</time>
      </trkpt>
      <trkpt lat="45.98098" lon="4.80991">
        <ele>240</ele>
        <time>2018-07-10T09:53:41Z</time>
      </trkpt>
      <trkpt lat="45.98094" lon="4.80979">
        <ele>239</ele>
        <time>2018-07-10T09:53:43Z</time>
      </trkpt>
      <trkpt lat="45.98093" lon="4.80972">
        <ele>239</ele>
        <time>2018-07-10T09:53:44Z</time>
      </trkpt>
      <trkpt lat="45.98092" lon="4.80965">
        <ele>239</ele>
        <time>2018-07-10T09:53:45Z</time>
      </trkpt>
      <trkpt lat="45.9809" lon="4.80957">
        <ele>239</ele>
        <time>2018-07-10T09:53:46Z</time>
      </trkpt>
      <trkpt lat="45.98089" lon="4.80949">
        <ele>238</ele>
        <time>2018-07-10T09:53:47Z</time>
      </trkpt>
      <trkpt lat="45.98087" lon="4.80938">
        <ele>238</ele>
        <time>2018-07-10T09:53:48Z</time>
      </trkpt>
      <trkpt lat="45.98084" lon="4.80928">
        <ele>238</ele>
        <time>2018-07-10T09:53:49Z</time>
      </trkpt>
      <trkpt lat="45.98076" lon="4.80917">
        <ele>240</ele>
        <time>2018-07-10T09:53:50Z</time>
      </trkpt>
      <trkpt lat="45.98073" lon="4.80906">
        <ele>238</ele>
        <time>2018-07-10T09:53:51Z</time>
      </trkpt>
      <trkpt lat="45.9807" lon="4.80895">
        <ele>238</ele>
        <time>2018-07-10T09:53:52Z</time>
      </trkpt>
      <trkpt lat="45.98068" lon="4.80884">
        <ele>237</ele>
        <time>2018-07-10T09:53:53Z</time>
      </trkpt>
      <trkpt lat="45.98066" lon="4.80874">
        <ele>237</ele>
        <time>2018-07-10T09:53:54Z</time>
      </trkpt>
      <trkpt lat="45.98065" lon="4.80865">
        <ele>237</ele>
        <time>2018-07-10T09:53:55Z</time>
      </trkpt>
      <trkpt lat="45.98063" lon="4.80855">
        <ele>236</ele>
        <time>2018-07-10T09:53:56Z</time>
      </trkpt>
      <trkpt lat="45.9806" lon="4.80844">
        <ele>236</ele>
        <time>2018-07-10T09:53:57Z</time>
      </trkpt>
      <trkpt lat="45.98058" lon="4.80834">
        <ele>236</ele>
        <time>2018-07-10T09:53:58Z</time>
      </trkpt>
      <trkpt lat="45.98057" lon="4.80823">
        <ele>234</ele>
        <time>2018-07-10T09:53:59Z</time>
      </trkpt>
      <trkpt lat="45.98055" lon="4.80814">
        <ele>234</ele>
        <time>2018-07-10T09:54:00Z</time>
      </trkpt>
      <trkpt lat="45.98052" lon="4.80805">
        <ele>234</ele>
        <time>2018-07-10T09:54:01Z</time>
      </trkpt>
      <trkpt lat="45.98051" lon="4.80796">
        <ele>233</ele>
        <time>2018-07-10T09:54:02Z</time>
      </trkpt>
      <trkpt lat="45.98049" lon="4.80787">
        <ele>233</ele>
        <time>2018-07-10T09:54:03Z</time>
      </trkpt>
      <trkpt lat="45.98048" lon="4.80779">
        <ele>233</ele>
        <time>2018-07-10T09:54:04Z</time>
      </trkpt>
      <trkpt lat="45.98046" lon="4.80771">
        <ele>233</ele>
        <time>2018-07-10T09:54:05Z</time>
      </trkpt>
      <trkpt lat="45.98044" lon="4.80764">
        <ele>233</ele>
        <time>2018-07-10T09:54:06Z</time>
      </trkpt>
      <trkpt lat="45.98041" lon="4.80756">
        <ele>233</ele>
        <time>2018-07-10T09:54:07Z</time>
      </trkpt>
      <trkpt lat="45.9804" lon="4.80749">
        <ele>231</ele>
        <time>2018-07-10T09:54:08Z</time>
      </trkpt>
      <trkpt lat="45.98038" lon="4.80742">
        <ele>231</ele>
        <time>2018-07-10T09:54:09Z</time>
      </trkpt>
      <trkpt lat="45.98037" lon="4.80737">
        <ele>231</ele>
        <time>2018-07-10T09:54:10Z</time>
      </trkpt>
      <trkpt lat="45.98035" lon="4.80726">
        <ele>231</ele>
        <time>2018-07-10T09:54:12Z</time>
      </trkpt>
      <trkpt lat="45.98035" lon="4.80723">
        <ele>231</ele>
        <time>2018-07-10T09:54:13Z</time>
      </trkpt>
      <trkpt lat="45.98034" lon="4.80711">
        <ele>231</ele>
        <time>2018-07-10T09:54:15Z</time>
      </trkpt>
      <trkpt lat="45.98034" lon="4.80705">
        <ele>231</ele>
        <time>2018-07-10T09:54:16Z</time>
      </trkpt>
      <trkpt lat="45.98039" lon="4.80696">
        <ele>230</ele>
        <time>2018-07-10T09:54:18Z</time>
      </trkpt>
      <trkpt lat="45.98043" lon="4.80692">
        <ele>230</ele>
        <time>2018-07-10T09:54:19Z</time>
      </trkpt>
      <trkpt lat="45.98051" lon="4.80697">
        <ele>230</ele>
        <time>2018-07-10T09:54:20Z</time>
      </trkpt>
      <trkpt lat="45.98059" lon="4.80698">
        <ele>230</ele>
        <time>2018-07-10T09:54:21Z</time>
      </trkpt>
      <trkpt lat="45.98064" lon="4.80698">
        <ele>230</ele>
        <time>2018-07-10T09:54:22Z</time>
      </trkpt>
      <trkpt lat="45.98069" lon="4.80697">
        <ele>230</ele>
        <time>2018-07-10T09:54:23Z</time>
      </trkpt>
      <trkpt lat="45.98076" lon="4.80694">
        <ele>230</ele>
        <time>2018-07-10T09:54:24Z</time>
      </trkpt>
      <trkpt lat="45.98082" lon="4.80693">
        <ele>230</ele>
        <time>2018-07-10T09:54:25Z</time>
      </trkpt>
      <trkpt lat="45.98088" lon="4.80692">
        <ele>228</ele>
        <time>2018-07-10T09:54:26Z</time>
      </trkpt>
      <trkpt lat="45.98095" lon="4.80693">
        <ele>228</ele>
        <time>2018-07-10T09:54:27Z</time>
      </trkpt>
      <trkpt lat="45.98101" lon="4.80693">
        <ele>228</ele>
        <time>2018-07-10T09:54:28Z</time>
      </trkpt>
      <trkpt lat="45.98107" lon="4.80693">
        <ele>228</ele>
        <time>2018-07-10T09:54:29Z</time>
      </trkpt>
      <trkpt lat="45.98112" lon="4.80692">
        <ele>228</ele>
        <time>2018-07-10T09:54:30Z</time>
      </trkpt>
      <trkpt lat="45.98119" lon="4.80691">
        <ele>228</ele>
        <time>2018-07-10T09:54:31Z</time>
      </trkpt>
      <trkpt lat="45.98125" lon="4.80691">
        <ele>228</ele>
        <time>2018-07-10T09:54:32Z</time>
      </trkpt>
      <trkpt lat="45.98131" lon="4.80692">
        <ele>228</ele>
        <time>2018-07-10T09:54:33Z</time>
      </trkpt>
      <trkpt lat="45.98137" lon="4.80691">
        <ele>228</ele>
        <time>2018-07-10T09:54:34Z</time>
      </trkpt>
      <trkpt lat="45.98144" lon="4.80689">
        <ele>228</ele>
        <time>2018-07-10T09:54:35Z</time>
      </trkpt>
      <trkpt lat="45.98149" lon="4.80688">
        <ele>227</ele>
        <time>2018-07-10T09:54:36Z</time>
      </trkpt>
      <trkpt lat="45.98156" lon="4.80688">
        <ele>227</ele>
        <time>2018-07-10T09:54:37Z</time>
      </trkpt>
      <trkpt lat="45.98161" lon="4.80687">
        <ele>227</ele>
        <time>2018-07-10T09:54:38Z</time>
      </trkpt>
      <trkpt lat="45.98168" lon="4.80687">
        <ele>225</ele>
        <time>2018-07-10T09:54:39Z</time>
      </trkpt>
      <trkpt lat="45.98175" lon="4.80684">
        <ele>225</ele>
        <time>2018-07-10T09:54:40Z</time>
      </trkpt>
      <trkpt lat="45.98182" lon="4.80683">
        <ele>225</ele>
        <time>2018-07-10T09:54:41Z</time>
      </trkpt>
      <trkpt lat="45.98188" lon="4.80682">
        <ele>225</ele>
        <time>2018-07-10T09:54:42Z</time>
      </trkpt>
      <trkpt lat="45.98193" lon="4.8068">
        <ele>225</ele>
        <time>2018-07-10T09:54:43Z</time>
      </trkpt>
      <trkpt lat="45.98199" lon="4.80678">
        <ele>225</ele>
        <time>2018-07-10T09:54:44Z</time>
      </trkpt>
      <trkpt lat="45.98204" lon="4.80674">
        <ele>224</ele>
        <time>2018-07-10T09:54:45Z</time>
      </trkpt>
      <trkpt lat="45.98214" lon="4.80668">
        <ele>224</ele>
        <time>2018-07-10T09:54:46Z</time>
      </trkpt>
      <trkpt lat="45.9822" lon="4.80662">
        <ele>224</ele>
        <time>2018-07-10T09:54:47Z</time>
      </trkpt>
      <trkpt lat="45.98224" lon="4.80657">
        <ele>224</ele>
        <time>2018-07-10T09:54:48Z</time>
      </trkpt>
      <trkpt lat="45.98228" lon="4.8065">
        <ele>223</ele>
        <time>2018-07-10T09:54:49Z</time>
      </trkpt>
      <trkpt lat="45.98231" lon="4.8064">
        <ele>224</ele>
        <time>2018-07-10T09:54:50Z</time>
      </trkpt>
      <trkpt lat="45.98234" lon="4.80632">
        <ele>224</ele>
        <time>2018-07-10T09:54:51Z</time>
      </trkpt>
      <trkpt lat="45.98237" lon="4.80622">
        <ele>224</ele>
        <time>2018-07-10T09:54:52Z</time>
      </trkpt>
      <trkpt lat="45.9824" lon="4.80613">
        <ele>224</ele>
        <time>2018-07-10T09:54:53Z</time>
      </trkpt>
      <trkpt lat="45.98243" lon="4.80604">
        <ele>224</ele>
        <time>2018-07-10T09:54:54Z</time>
      </trkpt>
      <trkpt lat="45.98246" lon="4.80595">
        <ele>224</ele>
        <time>2018-07-10T09:54:55Z</time>
      </trkpt>
      <trkpt lat="45.98249" lon="4.80584">
        <ele>224</ele>
        <time>2018-07-10T09:54:56Z</time>
      </trkpt>
      <trkpt lat="45.98252" lon="4.80575">
        <ele>224</ele>
        <time>2018-07-10T09:54:57Z</time>
      </trkpt>
      <trkpt lat="45.98255" lon="4.80567">
        <ele>224</ele>
        <time>2018-07-10T09:54:58Z</time>
      </trkpt>
      <trkpt lat="45.98258" lon="4.80557">
        <ele>224</ele>
        <time>2018-07-10T09:54:59Z</time>
      </trkpt>
      <trkpt lat="45.98261" lon="4.80549">
        <ele>224</ele>
        <time>2018-07-10T09:55:00Z</time>
      </trkpt>
      <trkpt lat="45.98264" lon="4.80541">
        <ele>224</ele>
        <time>2018-07-10T09:55:01Z</time>
      </trkpt>
      <trkpt lat="45.98266" lon="4.80533">
        <ele>224</ele>
        <time>2018-07-10T09:55:02Z</time>
      </trkpt>
      <trkpt lat="45.98268" lon="4.80526">
        <ele>224</ele>
        <time>2018-07-10T09:55:03Z</time>
      </trkpt>
      <trkpt lat="45.9827" lon="4.80518">
        <ele>224</ele>
        <time>2018-07-10T09:55:04Z</time>
      </trkpt>
      <trkpt lat="45.9827" lon="4.80511">
        <ele>223</ele>
        <time>2018-07-10T09:55:05Z</time>
      </trkpt>
      <trkpt lat="45.98273" lon="4.80505">
        <ele>223</ele>
        <time>2018-07-10T09:55:06Z</time>
      </trkpt>
      <trkpt lat="45.98276" lon="4.80498">
        <ele>223</ele>
        <time>2018-07-10T09:55:07Z</time>
      </trkpt>
      <trkpt lat="45.98279" lon="4.80491">
        <ele>223</ele>
        <time>2018-07-10T09:55:08Z</time>
      </trkpt>
      <trkpt lat="45.98282" lon="4.80485">
        <ele>223</ele>
        <time>2018-07-10T09:55:09Z</time>
      </trkpt>
      <trkpt lat="45.98287" lon="4.80477">
        <ele>224</ele>
        <time>2018-07-10T09:55:10Z</time>
      </trkpt>
      <trkpt lat="45.98289" lon="4.8047">
        <ele>224</ele>
        <time>2018-07-10T09:55:11Z</time>
      </trkpt>
      <trkpt lat="45.98288" lon="4.80463">
        <ele>224</ele>
        <time>2018-07-10T09:55:12Z</time>
      </trkpt>
      <trkpt lat="45.9829" lon="4.80455">
        <ele>224</ele>
        <time>2018-07-10T09:55:13Z</time>
      </trkpt>
      <trkpt lat="45.98291" lon="4.80447">
        <ele>224</ele>
        <time>2018-07-10T09:55:14Z</time>
      </trkpt>
      <trkpt lat="45.98292" lon="4.80438">
        <ele>224</ele>
        <time>2018-07-10T09:55:15Z</time>
      </trkpt>
      <trkpt lat="45.98294" lon="4.8043">
        <ele>224</ele>
        <time>2018-07-10T09:55:16Z</time>
      </trkpt>
      <trkpt lat="45.98294" lon="4.80422">
        <ele>224</ele>
        <time>2018-07-10T09:55:17Z</time>
      </trkpt>
      <trkpt lat="45.98294" lon="4.80415">
        <ele>224</ele>
        <time>2018-07-10T09:55:18Z</time>
      </trkpt>
      <trkpt lat="45.98295" lon="4.80408">
        <ele>224</ele>
        <time>2018-07-10T09:55:19Z</time>
      </trkpt>
      <trkpt lat="45.98298" lon="4.80402">
        <ele>225</ele>
        <time>2018-07-10T09:55:20Z</time>
      </trkpt>
      <trkpt lat="45.983" lon="4.80396">
        <ele>225</ele>
        <time>2018-07-10T09:55:21Z</time>
      </trkpt>
      <trkpt lat="45.98302" lon="4.8039">
        <ele>225</ele>
        <time>2018-07-10T09:55:22Z</time>
      </trkpt>
      <trkpt lat="45.98303" lon="4.80383">
        <ele>225</ele>
        <time>2018-07-10T09:55:23Z</time>
      </trkpt>
      <trkpt lat="45.98302" lon="4.80375">
        <ele>225</ele>
        <time>2018-07-10T09:55:24Z</time>
      </trkpt>
      <trkpt lat="45.98303" lon="4.80369">
        <ele>225</ele>
        <time>2018-07-10T09:55:25Z</time>
      </trkpt>
      <trkpt lat="45.98305" lon="4.80361">
        <ele>225</ele>
        <time>2018-07-10T09:55:26Z</time>
      </trkpt>
      <trkpt lat="45.98306" lon="4.80358">
        <ele>225</ele>
        <time>2018-07-10T09:55:27Z</time>
      </trkpt>
      <trkpt lat="45.98309" lon="4.80348">
        <ele>226</ele>
        <time>2018-07-10T09:55:28Z</time>
      </trkpt>
      <trkpt lat="45.98311" lon="4.80338">
        <ele>226</ele>
        <time>2018-07-10T09:55:30Z</time>
      </trkpt>
      <trkpt lat="45.98311" lon="4.80329">
        <ele>227</ele>
        <time>2018-07-10T09:55:31Z</time>
      </trkpt>
      <trkpt lat="45.98314" lon="4.80317">
        <ele>227</ele>
        <time>2018-07-10T09:55:33Z</time>
      </trkpt>
      <trkpt lat="45.98317" lon="4.80313">
        <ele>227</ele>
        <time>2018-07-10T09:55:34Z</time>
      </trkpt>
      <trkpt lat="45.98319" lon="4.80305">
        <ele>227</ele>
        <time>2018-07-10T09:55:35Z</time>
      </trkpt>
      <trkpt lat="45.9832" lon="4.80299">
        <ele>227</ele>
        <time>2018-07-10T09:55:36Z</time>
      </trkpt>
      <trkpt lat="45.98322" lon="4.80291">
        <ele>227</ele>
        <time>2018-07-10T09:55:38Z</time>
      </trkpt>
      <trkpt lat="45.98323" lon="4.80281">
        <ele>227</ele>
        <time>2018-07-10T09:55:39Z</time>
      </trkpt>
      <trkpt lat="45.98324" lon="4.80269">
        <ele>227</ele>
        <time>2018-07-10T09:55:41Z</time>
      </trkpt>
      <trkpt lat="45.98326" lon="4.80263">
        <ele>228</ele>
        <time>2018-07-10T09:55:42Z</time>
      </trkpt>
      <trkpt lat="45.98327" lon="4.80256">
        <ele>229</ele>
        <time>2018-07-10T09:55:44Z</time>
      </trkpt>
      <trkpt lat="45.98332" lon="4.80247">
        <ele>230</ele>
        <time>2018-07-10T09:55:45Z</time>
      </trkpt>
      <trkpt lat="45.98331" lon="4.80238">
        <ele>228</ele>
        <time>2018-07-10T09:55:47Z</time>
      </trkpt>
      <trkpt lat="45.98333" lon="4.80232">
        <ele>228</ele>
        <time>2018-07-10T09:55:48Z</time>
      </trkpt>
      <trkpt lat="45.98334" lon="4.80226">
        <ele>230</ele>
        <time>2018-07-10T09:55:49Z</time>
      </trkpt>
      <trkpt lat="45.98334" lon="4.80219">
        <ele>230</ele>
        <time>2018-07-10T09:55:50Z</time>
      </trkpt>
      <trkpt lat="45.98331" lon="4.80212">
        <ele>227</ele>
        <time>2018-07-10T09:55:51Z</time>
      </trkpt>
      <trkpt lat="45.98329" lon="4.80206">
        <ele>227</ele>
        <time>2018-07-10T09:55:52Z</time>
      </trkpt>
      <trkpt lat="45.98327" lon="4.80195">
        <ele>227</ele>
        <time>2018-07-10T09:55:54Z</time>
      </trkpt>
      <trkpt lat="45.98325" lon="4.8019">
        <ele>227</ele>
        <time>2018-07-10T09:55:55Z</time>
      </trkpt>
      <trkpt lat="45.98321" lon="4.8018">
        <ele>227</ele>
        <time>2018-07-10T09:55:57Z</time>
      </trkpt>
      <trkpt lat="45.9832" lon="4.80174">
        <ele>227</ele>
        <time>2018-07-10T09:55:58Z</time>
      </trkpt>
      <trkpt lat="45.98318" lon="4.80167">
        <ele>227</ele>
        <time>2018-07-10T09:55:59Z</time>
      </trkpt>
      <trkpt lat="45.98315" lon="4.80161">
        <ele>228</ele>
        <time>2018-07-10T09:56:00Z</time>
      </trkpt>
      <trkpt lat="45.98311" lon="4.80153">
        <ele>228</ele>
        <time>2018-07-10T09:56:01Z</time>
      </trkpt>
      <trkpt lat="45.98308" lon="4.80146">
        <ele>228</ele>
        <time>2018-07-10T09:56:02Z</time>
      </trkpt>
      <trkpt lat="45.98306" lon="4.80139">
        <ele>228</ele>
        <time>2018-07-10T09:56:03Z</time>
      </trkpt>
      <trkpt lat="45.98304" lon="4.80133">
        <ele>228</ele>
        <time>2018-07-10T09:56:04Z</time>
      </trkpt>
      <trkpt lat="45.98302" lon="4.80127">
        <ele>228</ele>
        <time>2018-07-10T09:56:05Z</time>
      </trkpt>
      <trkpt lat="45.983" lon="4.80121">
        <ele>228</ele>
        <time>2018-07-10T09:56:06Z</time>
      </trkpt>
      <trkpt lat="45.98297" lon="4.80113">
        <ele>228</ele>
        <time>2018-07-10T09:56:07Z</time>
      </trkpt>
      <trkpt lat="45.98295" lon="4.80106">
        <ele>228</ele>
        <time>2018-07-10T09:56:08Z</time>
      </trkpt>
      <trkpt lat="45.98293" lon="4.801">
        <ele>228</ele>
        <time>2018-07-10T09:56:09Z</time>
      </trkpt>
      <trkpt lat="45.98291" lon="4.80093">
        <ele>228</ele>
        <time>2018-07-10T09:56:10Z</time>
      </trkpt>
      <trkpt lat="45.98288" lon="4.80088">
        <ele>228</ele>
        <time>2018-07-10T09:56:11Z</time>
      </trkpt>
      <trkpt lat="45.98285" lon="4.80082">
        <ele>229</ele>
        <time>2018-07-10T09:56:12Z</time>
      </trkpt>
      <trkpt lat="45.98283" lon="4.80076">
        <ele>229</ele>
        <time>2018-07-10T09:56:13Z</time>
      </trkpt>
      <trkpt lat="45.9828" lon="4.80071">
        <ele>229</ele>
        <time>2018-07-10T09:56:14Z</time>
      </trkpt>
      <trkpt lat="45.98278" lon="4.80064">
        <ele>229</ele>
        <time>2018-07-10T09:56:15Z</time>
      </trkpt>
      <trkpt lat="45.98276" lon="4.80058">
        <ele>229</ele>
        <time>2018-07-10T09:56:16Z</time>
      </trkpt>
      <trkpt lat="45.98274" lon="4.80051">
        <ele>229</ele>
        <time>2018-07-10T09:56:17Z</time>
      </trkpt>
      <trkpt lat="45.98273" lon="4.80045">
        <ele>229</ele>
        <time>2018-07-10T09:56:18Z</time>
      </trkpt>
      <trkpt lat="45.98272" lon="4.80039">
        <ele>229</ele>
        <time>2018-07-10T09:56:19Z</time>
      </trkpt>
      <trkpt lat="45.9827" lon="4.80032">
        <ele>229</ele>
        <time>2018-07-10T09:56:20Z</time>
      </trkpt>
      <trkpt lat="45.98267" lon="4.80026">
        <ele>228</ele>
        <time>2018-07-10T09:56:21Z</time>
      </trkpt>
      <trkpt lat="45.98266" lon="4.8002">
        <ele>228</ele>
        <time>2018-07-10T09:56:22Z</time>
      </trkpt>
      <trkpt lat="45.98262" lon="4.8001">
        <ele>228</ele>
        <time>2018-07-10T09:56:24Z</time>
      </trkpt>
      <trkpt lat="45.98259" lon="4.80005">
        <ele>227</ele>
        <time>2018-07-10T09:56:25Z</time>
      </trkpt>
      <trkpt lat="45.98257" lon="4.79994">
        <ele>227</ele>
        <time>2018-07-10T09:56:27Z</time>
      </trkpt>
      <trkpt lat="45.98256" lon="4.79989">
        <ele>227</ele>
        <time>2018-07-10T09:56:28Z</time>
      </trkpt>
      <trkpt lat="45.98253" lon="4.79983">
        <ele>228</ele>
        <time>2018-07-10T09:56:29Z</time>
      </trkpt>
      <trkpt lat="45.98251" lon="4.79977">
        <ele>228</ele>
        <time>2018-07-10T09:56:30Z</time>
      </trkpt>
      <trkpt lat="45.98248" lon="4.79966">
        <ele>225</ele>
        <time>2018-07-10T09:56:32Z</time>
      </trkpt>
      <trkpt lat="45.98246" lon="4.79961">
        <ele>225</ele>
        <time>2018-07-10T09:56:33Z</time>
      </trkpt>
      <trkpt lat="45.98242" lon="4.79949">
        <ele>225</ele>
        <time>2018-07-10T09:56:35Z</time>
      </trkpt>
      <trkpt lat="45.9824" lon="4.79942">
        <ele>225</ele>
        <time>2018-07-10T09:56:36Z</time>
      </trkpt>
      <trkpt lat="45.98238" lon="4.79935">
        <ele>225</ele>
        <time>2018-07-10T09:56:37Z</time>
      </trkpt>
      <trkpt lat="45.98236" lon="4.79928">
        <ele>225</ele>
        <time>2018-07-10T09:56:38Z</time>
      </trkpt>
      <trkpt lat="45.98233" lon="4.79921">
        <ele>225</ele>
        <time>2018-07-10T09:56:39Z</time>
      </trkpt>
      <trkpt lat="45.98231" lon="4.79914">
        <ele>225</ele>
        <time>2018-07-10T09:56:40Z</time>
      </trkpt>
      <trkpt lat="45.98229" lon="4.79907">
        <ele>225</ele>
        <time>2018-07-10T09:56:41Z</time>
      </trkpt>
      <trkpt lat="45.98227" lon="4.79901">
        <ele>225</ele>
        <time>2018-07-10T09:56:42Z</time>
      </trkpt>
      <trkpt lat="45.98224" lon="4.79894">
        <ele>225</ele>
        <time>2018-07-10T09:56:43Z</time>
      </trkpt>
      <trkpt lat="45.98221" lon="4.79888">
        <ele>225</ele>
        <time>2018-07-10T09:56:44Z</time>
      </trkpt>
      <trkpt lat="45.98218" lon="4.79877">
        <ele>225</ele>
        <time>2018-07-10T09:56:46Z</time>
      </trkpt>
      <trkpt lat="45.98215" lon="4.7987">
        <ele>225</ele>
        <time>2018-07-10T09:56:47Z</time>
      </trkpt>
      <trkpt lat="45.98213" lon="4.79859">
        <ele>225</ele>
        <time>2018-07-10T09:56:49Z</time>
      </trkpt>
      <trkpt lat="45.98209" lon="4.79853">
        <ele>225</ele>
        <time>2018-07-10T09:56:50Z</time>
      </trkpt>
      <trkpt lat="45.98206" lon="4.79846">
        <ele>225</ele>
        <time>2018-07-10T09:56:51Z</time>
      </trkpt>
      <trkpt lat="45.98204" lon="4.7984">
        <ele>225</ele>
        <time>2018-07-10T09:56:52Z</time>
      </trkpt>
      <trkpt lat="45.98201" lon="4.79828">
        <ele>226</ele>
        <time>2018-07-10T09:56:54Z</time>
      </trkpt>
      <trkpt lat="45.982" lon="4.79823">
        <ele>226</ele>
        <time>2018-07-10T09:56:55Z</time>
      </trkpt>
      <trkpt lat="45.98196" lon="4.79812">
        <ele>226</ele>
        <time>2018-07-10T09:56:57Z</time>
      </trkpt>
      <trkpt lat="45.98194" lon="4.79807">
        <ele>226</ele>
        <time>2018-07-10T09:56:58Z</time>
      </trkpt>
      <trkpt lat="45.98191" lon="4.79796">
        <ele>226</ele>
        <time>2018-07-10T09:57:00Z</time>
      </trkpt>
      <trkpt lat="45.9819" lon="4.7979">
        <ele>226</ele>
        <time>2018-07-10T09:57:01Z</time>
      </trkpt>
      <trkpt lat="45.98187" lon="4.79778">
        <ele>226</ele>
        <time>2018-07-10T09:57:03Z</time>
      </trkpt>
      <trkpt lat="45.98187" lon="4.79773">
        <ele>226</ele>
        <time>2018-07-10T09:57:04Z</time>
      </trkpt>
      <trkpt lat="45.98188" lon="4.79764">
        <ele>226</ele>
        <time>2018-07-10T09:57:07Z</time>
      </trkpt>
      <trkpt lat="45.98192" lon="4.79757">
        <ele>226</ele>
        <time>2018-07-10T09:57:08Z</time>
      </trkpt>
      <trkpt lat="45.98199" lon="4.79752">
        <ele>226</ele>
        <time>2018-07-10T09:57:11Z</time>
      </trkpt>
      <trkpt lat="45.98201" lon="4.79751">
        <ele>226</ele>
        <time>2018-07-10T09:57:12Z</time>
      </trkpt>
      <trkpt lat="45.98207" lon="4.79749">
        <ele>228</ele>
        <time>2018-07-10T09:57:14Z</time>
      </trkpt>
      <trkpt lat="45.9821" lon="4.79748">
        <ele>228</ele>
        <time>2018-07-10T09:57:15Z</time>
      </trkpt>
      <trkpt lat="45.98217" lon="4.79747">
        <ele>228</ele>
        <time>2018-07-10T09:57:17Z</time>
      </trkpt>
      <trkpt lat="45.98227" lon="4.79747">
        <ele>228</ele>
        <time>2018-07-10T09:57:18Z</time>
      </trkpt>
      <trkpt lat="45.98235" lon="4.79747">
        <ele>228</ele>
        <time>2018-07-10T09:57:20Z</time>
      </trkpt>
      <trkpt lat="45.98236" lon="4.79746">
        <ele>228</ele>
        <time>2018-07-10T09:57:21Z</time>
      </trkpt>
      <trkpt lat="45.98245" lon="4.79745">
        <ele>228</ele>
        <time>2018-07-10T09:57:23Z</time>
      </trkpt>
      <trkpt lat="45.98248" lon="4.79744">
        <ele>228</ele>
        <time>2018-07-10T09:57:24Z</time>
      </trkpt>
      <trkpt lat="45.98257" lon="4.79742">
        <ele>230</ele>
        <time>2018-07-10T09:57:28Z</time>
      </trkpt>
      <trkpt lat="45.98259" lon="4.79741">
        <ele>231</ele>
        <time>2018-07-10T09:57:29Z</time>
      </trkpt>
      <trkpt lat="45.98268" lon="4.79739">
        <ele>232</ele>
        <time>2018-07-10T09:57:32Z</time>
      </trkpt>
      <trkpt lat="45.98271" lon="4.79738">
        <ele>233</ele>
        <time>2018-07-10T09:57:33Z</time>
      </trkpt>
      <trkpt lat="45.98277" lon="4.79737">
        <ele>233</ele>
        <time>2018-07-10T09:57:35Z</time>
      </trkpt>
      <trkpt lat="45.98281" lon="4.79737">
        <ele>234</ele>
        <time>2018-07-10T09:57:36Z</time>
      </trkpt>
      <trkpt lat="45.9829" lon="4.79735">
        <ele>234</ele>
        <time>2018-07-10T09:57:37Z</time>
      </trkpt>
      <trkpt lat="45.98297" lon="4.79735">
        <ele>235</ele>
        <time>2018-07-10T09:57:40Z</time>
      </trkpt>
      <trkpt lat="45.98299" lon="4.79735">
        <ele>235</ele>
        <time>2018-07-10T09:57:41Z</time>
      </trkpt>
      <trkpt lat="45.98308" lon="4.79735">
        <ele>235</ele>
        <time>2018-07-10T09:57:44Z</time>
      </trkpt>
      <trkpt lat="45.98311" lon="4.79734">
        <ele>236</ele>
        <time>2018-07-10T09:57:45Z</time>
      </trkpt>
      <trkpt lat="45.98317" lon="4.79734">
        <ele>236</ele>
        <time>2018-07-10T09:57:47Z</time>
      </trkpt>
      <trkpt lat="45.9832" lon="4.79733">
        <ele>236</ele>
        <time>2018-07-10T09:57:48Z</time>
      </trkpt>
      <trkpt lat="45.98326" lon="4.79732">
        <ele>236</ele>
        <time>2018-07-10T09:57:50Z</time>
      </trkpt>
      <trkpt lat="45.98329" lon="4.79732">
        <ele>236</ele>
        <time>2018-07-10T09:57:51Z</time>
      </trkpt>
      <trkpt lat="45.98335" lon="4.79731">
        <ele>239</ele>
        <time>2018-07-10T09:57:53Z</time>
      </trkpt>
      <trkpt lat="45.98338" lon="4.79731">
        <ele>239</ele>
        <time>2018-07-10T09:57:54Z</time>
      </trkpt>
      <trkpt lat="45.98344" lon="4.7973">
        <ele>240</ele>
        <time>2018-07-10T09:57:56Z</time>
      </trkpt>
      <trkpt lat="45.98348" lon="4.79729">
        <ele>240</ele>
        <time>2018-07-10T09:57:57Z</time>
      </trkpt>
      <trkpt lat="45.98354" lon="4.79728">
        <ele>240</ele>
        <time>2018-07-10T09:57:59Z</time>
      </trkpt>
      <trkpt lat="45.98357" lon="4.79727">
        <ele>240</ele>
        <time>2018-07-10T09:58:00Z</time>
      </trkpt>
      <trkpt lat="45.98363" lon="4.79726">
        <ele>240</ele>
        <time>2018-07-10T09:58:02Z</time>
      </trkpt>
      <trkpt lat="45.98366" lon="4.79725">
        <ele>240</ele>
        <time>2018-07-10T09:58:03Z</time>
      </trkpt>
      <trkpt lat="45.98372" lon="4.79724">
        <ele>241</ele>
        <time>2018-07-10T09:58:05Z</time>
      </trkpt>
      <trkpt lat="45.98376" lon="4.79724">
        <ele>241</ele>
        <time>2018-07-10T09:58:06Z</time>
      </trkpt>
      <trkpt lat="45.98382" lon="4.79723">
        <ele>241</ele>
        <time>2018-07-10T09:58:08Z</time>
      </trkpt>
      <trkpt lat="45.98385" lon="4.79722">
        <ele>241</ele>
        <time>2018-07-10T09:58:09Z</time>
      </trkpt>
      <trkpt lat="45.98391" lon="4.79721">
        <ele>241</ele>
        <time>2018-07-10T09:58:11Z</time>
      </trkpt>
      <trkpt lat="45.98394" lon="4.7972">
        <ele>241</ele>
        <time>2018-07-10T09:58:12Z</time>
      </trkpt>
      <trkpt lat="45.984" lon="4.79719">
        <ele>241</ele>
        <time>2018-07-10T09:58:14Z</time>
      </trkpt>
      <trkpt lat="45.98403" lon="4.79719">
        <ele>241</ele>
        <time>2018-07-10T09:58:15Z</time>
      </trkpt>
      <trkpt lat="45.98412" lon="4.79718">
        <ele>241</ele>
        <time>2018-07-10T09:58:18Z</time>
      </trkpt>
      <trkpt lat="45.98415" lon="4.79718">
        <ele>241</ele>
        <time>2018-07-10T09:58:19Z</time>
      </trkpt>
      <trkpt lat="45.98421" lon="4.79717">
        <ele>242</ele>
        <time>2018-07-10T09:58:21Z</time>
      </trkpt>
      <trkpt lat="45.98424" lon="4.79717">
        <ele>242</ele>
        <time>2018-07-10T09:58:22Z</time>
      </trkpt>
      <trkpt lat="45.98431" lon="4.79716">
        <ele>242</ele>
        <time>2018-07-10T09:58:24Z</time>
      </trkpt>
      <trkpt lat="45.98434" lon="4.79716">
        <ele>242</ele>
        <time>2018-07-10T09:58:25Z</time>
      </trkpt>
      <trkpt lat="45.9844" lon="4.79715">
        <ele>243</ele>
        <time>2018-07-10T09:58:27Z</time>
      </trkpt>
      <trkpt lat="45.98443" lon="4.79715">
        <ele>243</ele>
        <time>2018-07-10T09:58:28Z</time>
      </trkpt>
      <trkpt lat="45.9845" lon="4.79715">
        <ele>243</ele>
        <time>2018-07-10T09:58:30Z</time>
      </trkpt>
      <trkpt lat="45.9846" lon="4.79715">
        <ele>243</ele>
        <time>2018-07-10T09:58:31Z</time>
      </trkpt>
      <trkpt lat="45.98468" lon="4.79714">
        <ele>243</ele>
        <time>2018-07-10T09:58:35Z</time>
      </trkpt>
      <trkpt lat="45.98471" lon="4.79714">
        <ele>243</ele>
        <time>2018-07-10T09:58:36Z</time>
      </trkpt>
      <trkpt lat="45.98479" lon="4.79714">
        <ele>243</ele>
        <time>2018-07-10T09:58:39Z</time>
      </trkpt>
      <trkpt lat="45.98482" lon="4.79714">
        <ele>243</ele>
        <time>2018-07-10T09:58:40Z</time>
      </trkpt>
      <trkpt lat="45.98488" lon="4.79714">
        <ele>243</ele>
        <time>2018-07-10T09:58:42Z</time>
      </trkpt>
      <trkpt lat="45.98491" lon="4.79714">
        <ele>243</ele>
        <time>2018-07-10T09:58:43Z</time>
      </trkpt>
      <trkpt lat="45.98497" lon="4.79714">
        <ele>243</ele>
        <time>2018-07-10T09:58:45Z</time>
      </trkpt>
      <trkpt lat="45.985" lon="4.79714">
        <ele>243</ele>
        <time>2018-07-10T09:58:46Z</time>
      </trkpt>
      <trkpt lat="45.98506" lon="4.79714">
        <ele>244</ele>
        <time>2018-07-10T09:58:48Z</time>
      </trkpt>
      <trkpt lat="45.98509" lon="4.79714">
        <ele>244</ele>
        <time>2018-07-10T09:58:49Z</time>
      </trkpt>
      <trkpt lat="45.98515" lon="4.79713">
        <ele>244</ele>
        <time>2018-07-10T09:58:51Z</time>
      </trkpt>
      <trkpt lat="45.98519" lon="4.79713">
        <ele>244</ele>
        <time>2018-07-10T09:58:52Z</time>
      </trkpt>
      <trkpt lat="45.98525" lon="4.79711">
        <ele>244</ele>
        <time>2018-07-10T09:58:54Z</time>
      </trkpt>
      <trkpt lat="45.98528" lon="4.79709">
        <ele>244</ele>
        <time>2018-07-10T09:58:55Z</time>
      </trkpt>
      <trkpt lat="45.98535" lon="4.79706">
        <ele>244</ele>
        <time>2018-07-10T09:58:57Z</time>
      </trkpt>
      <trkpt lat="45.98538" lon="4.79705">
        <ele>244</ele>
        <time>2018-07-10T09:58:58Z</time>
      </trkpt>
      <trkpt lat="45.98547" lon="4.79698">
        <ele>244</ele>
        <time>2018-07-10T09:58:59Z</time>
      </trkpt>
      <trkpt lat="45.98554" lon="4.79692">
        <ele>244</ele>
        <time>2018-07-10T09:59:03Z</time>
      </trkpt>
      <trkpt lat="45.98556" lon="4.7969">
        <ele>244</ele>
        <time>2018-07-10T09:59:04Z</time>
      </trkpt>
      <trkpt lat="45.98563" lon="4.79683">
        <ele>244</ele>
        <time>2018-07-10T09:59:07Z</time>
      </trkpt>
      <trkpt lat="45.98566" lon="4.79681">
        <ele>244</ele>
        <time>2018-07-10T09:59:08Z</time>
      </trkpt>
      <trkpt lat="45.98568" lon="4.79678">
        <ele>244</ele>
        <time>2018-07-10T09:59:09Z</time>
      </trkpt>
      <trkpt lat="45.98575" lon="4.79668">
        <ele>245</ele>
        <time>2018-07-10T09:59:10Z</time>
      </trkpt>
      <trkpt lat="45.98578" lon="4.79663">
        <ele>245</ele>
        <time>2018-07-10T09:59:12Z</time>
      </trkpt>
      <trkpt lat="45.98582" lon="4.79654">
        <ele>245</ele>
        <time>2018-07-10T09:59:13Z</time>
      </trkpt>
      <trkpt lat="45.98586" lon="4.79648">
        <ele>245</ele>
        <time>2018-07-10T09:59:15Z</time>
      </trkpt>
      <trkpt lat="45.98589" lon="4.79641">
        <ele>245</ele>
        <time>2018-07-10T09:59:16Z</time>
      </trkpt>
      <trkpt lat="45.98592" lon="4.79636">
        <ele>245</ele>
        <time>2018-07-10T09:59:18Z</time>
      </trkpt>
      <trkpt lat="45.98597" lon="4.79629">
        <ele>245</ele>
        <time>2018-07-10T09:59:19Z</time>
      </trkpt>
      <trkpt lat="45.98601" lon="4.79626">
        <ele>245</ele>
        <time>2018-07-10T09:59:21Z</time>
      </trkpt>
      <trkpt lat="45.98607" lon="4.79623">
        <ele>245</ele>
        <time>2018-07-10T09:59:22Z</time>
      </trkpt>
      <trkpt lat="45.98613" lon="4.79621">
        <ele>245</ele>
        <time>2018-07-10T09:59:24Z</time>
      </trkpt>
      <trkpt lat="45.98618" lon="4.79618">
        <ele>245</ele>
        <time>2018-07-10T09:59:25Z</time>
      </trkpt>
      <trkpt lat="45.98624" lon="4.79611">
        <ele>245</ele>
        <time>2018-07-10T09:59:27Z</time>
      </trkpt>
      <trkpt lat="45.98626" lon="4.79606">
        <ele>245</ele>
        <time>2018-07-10T09:59:28Z</time>
      </trkpt>
      <trkpt lat="45.98625" lon="4.79599">
        <ele>245</ele>
        <time>2018-07-10T09:59:29Z</time>
      </trkpt>
      <trkpt lat="45.98625" lon="4.79592">
        <ele>245</ele>
        <time>2018-07-10T09:59:30Z</time>
      </trkpt>
      <trkpt lat="45.9862" lon="4.79583">
        <ele>245</ele>
        <time>2018-07-10T09:59:32Z</time>
      </trkpt>
      <trkpt lat="45.98616" lon="4.7958">
        <ele>245</ele>
        <time>2018-07-10T09:59:33Z</time>
      </trkpt>
      <trkpt lat="45.98611" lon="4.79577">
        <ele>245</ele>
        <time>2018-07-10T09:59:34Z</time>
      </trkpt>
      <trkpt lat="45.98606" lon="4.79577">
        <ele>245</ele>
        <time>2018-07-10T09:59:35Z</time>
      </trkpt>
      <trkpt lat="45.98602" lon="4.79578">
        <ele>245</ele>
        <time>2018-07-10T09:59:36Z</time>
      </trkpt>
      <trkpt lat="45.98597" lon="4.79579">
        <ele>245</ele>
        <time>2018-07-10T09:59:37Z</time>
      </trkpt>
      <trkpt lat="45.98591" lon="4.7958">
        <ele>245</ele>
        <time>2018-07-10T09:59:38Z</time>
      </trkpt>
      <trkpt lat="45.98585" lon="4.79578">
        <ele>245</ele>
        <time>2018-07-10T09:59:39Z</time>
      </trkpt>
      <trkpt lat="45.98579" lon="4.79575">
        <ele>245</ele>
        <time>2018-07-10T09:59:40Z</time>
      </trkpt>
      <trkpt lat="45.98573" lon="4.79574">
        <ele>245</ele>
        <time>2018-07-10T09:59:41Z</time>
      </trkpt>
      <trkpt lat="45.98567" lon="4.79572">
        <ele>244</ele>
        <time>2018-07-10T09:59:42Z</time>
      </trkpt>
      <trkpt lat="45.98562" lon="4.79568">
        <ele>244</ele>
        <time>2018-07-10T09:59:43Z</time>
      </trkpt>
      <trkpt lat="45.98557" lon="4.79563">
        <ele>244</ele>
        <time>2018-07-10T09:59:44Z</time>
      </trkpt>
      <trkpt lat="45.98553" lon="4.79557">
        <ele>244</ele>
        <time>2018-07-10T09:59:45Z</time>
      </trkpt>
      <trkpt lat="45.98549" lon="4.7955">
        <ele>244</ele>
        <time>2018-07-10T09:59:46Z</time>
      </trkpt>
      <trkpt lat="45.98545" lon="4.79543">
        <ele>244</ele>
        <time>2018-07-10T09:59:47Z</time>
      </trkpt>
      <trkpt lat="45.98542" lon="4.79537">
        <ele>244</ele>
        <time>2018-07-10T09:59:48Z</time>
      </trkpt>
      <trkpt lat="45.98539" lon="4.79529">
        <ele>244</ele>
        <time>2018-07-10T09:59:49Z</time>
      </trkpt>
      <trkpt lat="45.98536" lon="4.79521">
        <ele>244</ele>
        <time>2018-07-10T09:59:50Z</time>
      </trkpt>
      <trkpt lat="45.98534" lon="4.79513">
        <ele>244</ele>
        <time>2018-07-10T09:59:51Z</time>
      </trkpt>
      <trkpt lat="45.98532" lon="4.79505">
        <ele>244</ele>
        <time>2018-07-10T09:59:52Z</time>
      </trkpt>
      <trkpt lat="45.9853" lon="4.79497">
        <ele>244</ele>
        <time>2018-07-10T09:59:53Z</time>
      </trkpt>
      <trkpt lat="45.98528" lon="4.79489">
        <ele>244</ele>
        <time>2018-07-10T09:59:54Z</time>
      </trkpt>
      <trkpt lat="45.98527" lon="4.7948">
        <ele>244</ele>
        <time>2018-07-10T09:59:55Z</time>
      </trkpt>
      <trkpt lat="45.98526" lon="4.79471">
        <ele>244</ele>
        <time>2018-07-10T09:59:56Z</time>
      </trkpt>
      <trkpt lat="45.98525" lon="4.79462">
        <ele>244</ele>
        <time>2018-07-10T09:59:57Z</time>
      </trkpt>
      <trkpt lat="45.98525" lon="4.79453">
        <ele>244</ele>
        <time>2018-07-10T09:59:58Z</time>
      </trkpt>
      <trkpt lat="45.98524" lon="4.79446">
        <ele>244</ele>
        <time>2018-07-10T09:59:59Z</time>
      </trkpt>
      <trkpt lat="45.98523" lon="4.79436">
        <ele>244</ele>
        <time>2018-07-10T10:00:00Z</time>
      </trkpt>
      <trkpt lat="45.98523" lon="4.79428">
        <ele>244</ele>
        <time>2018-07-10T10:00:01Z</time>
      </trkpt>
      <trkpt lat="45.98523" lon="4.7942">
        <ele>244</ele>
        <time>2018-07-10T10:00:02Z</time>
      </trkpt>
      <trkpt lat="45.98522" lon="4.79412">
        <ele>244</ele>
        <time>2018-07-10T10:00:03Z</time>
      </trkpt>
      <trkpt lat="45.98521" lon="4.79403">
        <ele>244</ele>
        <time>2018-07-10T10:00:04Z</time>
      </trkpt>
      <trkpt lat="45.9852" lon="4.79397">
        <ele>244</ele>
        <time>2018-07-10T10:00:05Z</time>
      </trkpt>
      <trkpt lat="45.9852" lon="4.79389">
        <ele>244</ele>
        <time>2018-07-10T10:00:06Z</time>
      </trkpt>
      <trkpt lat="45.98519" lon="4.79381">
        <ele>244</ele>
        <time>2018-07-10T10:00:07Z</time>
      </trkpt>
      <trkpt lat="45.98518" lon="4.79373">
        <ele>243</ele>
        <time>2018-07-10T10:00:08Z</time>
      </trkpt>
      <trkpt lat="45.98516" lon="4.79366">
        <ele>243</ele>
        <time>2018-07-10T10:00:09Z</time>
      </trkpt>
      <trkpt lat="45.98517" lon="4.79353">
        <ele>243</ele>
        <time>2018-07-10T10:00:11Z</time>
      </trkpt>
      <trkpt lat="45.98516" lon="4.79346">
        <ele>243</ele>
        <time>2018-07-10T10:00:12Z</time>
      </trkpt>
      <trkpt lat="45.98513" lon="4.79338">
        <ele>243</ele>
        <time>2018-07-10T10:00:13Z</time>
      </trkpt>
      <trkpt lat="45.9851" lon="4.7933">
        <ele>243</ele>
        <time>2018-07-10T10:00:14Z</time>
      </trkpt>
      <trkpt lat="45.98507" lon="4.79322">
        <ele>243</ele>
        <time>2018-07-10T10:00:15Z</time>
      </trkpt>
      <trkpt lat="45.98505" lon="4.79313">
        <ele>243</ele>
        <time>2018-07-10T10:00:16Z</time>
      </trkpt>
      <trkpt lat="45.98499" lon="4.79306">
        <ele>243</ele>
        <time>2018-07-10T10:00:17Z</time>
      </trkpt>
      <trkpt lat="45.98496" lon="4.79298">
        <ele>243</ele>
        <time>2018-07-10T10:00:18Z</time>
      </trkpt>
      <trkpt lat="45.98493" lon="4.7929">
        <ele>243</ele>
        <time>2018-07-10T10:00:19Z</time>
      </trkpt>
      <trkpt lat="45.98489" lon="4.79281">
        <ele>243</ele>
        <time>2018-07-10T10:00:20Z</time>
      </trkpt>
      <trkpt lat="45.98486" lon="4.79274">
        <ele>243</ele>
        <time>2018-07-10T10:00:21Z</time>
      </trkpt>
      <trkpt lat="45.98482" lon="4.79266">
        <ele>243</ele>
        <time>2018-07-10T10:00:22Z</time>
      </trkpt>
      <trkpt lat="45.98478" lon="4.79259">
        <ele>243</ele>
        <time>2018-07-10T10:00:23Z</time>
      </trkpt>
      <trkpt lat="45.98476" lon="4.79252">
        <ele>243</ele>
        <time>2018-07-10T10:00:24Z</time>
      </trkpt>
      <trkpt lat="45.98471" lon="4.79245">
        <ele>243</ele>
        <time>2018-07-10T10:00:25Z</time>
      </trkpt>
      <trkpt lat="45.9847" lon="4.79237">
        <ele>243</ele>
        <time>2018-07-10T10:00:26Z</time>
      </trkpt>
      <trkpt lat="45.98467" lon="4.79229">
        <ele>243</ele>
        <time>2018-07-10T10:00:27Z</time>
      </trkpt>
      <trkpt lat="45.98465" lon="4.79223">
        <ele>243</ele>
        <time>2018-07-10T10:00:28Z</time>
      </trkpt>
      <trkpt lat="45.9846" lon="4.79215">
        <ele>243</ele>
        <time>2018-07-10T10:00:29Z</time>
      </trkpt>
      <trkpt lat="45.98456" lon="4.79207">
        <ele>242</ele>
        <time>2018-07-10T10:00:30Z</time>
      </trkpt>
      <trkpt lat="45.98452" lon="4.792">
        <ele>242</ele>
        <time>2018-07-10T10:00:31Z</time>
      </trkpt>
      <trkpt lat="45.98448" lon="4.79194">
        <ele>242</ele>
        <time>2018-07-10T10:00:32Z</time>
      </trkpt>
      <trkpt lat="45.98444" lon="4.79188">
        <ele>242</ele>
        <time>2018-07-10T10:00:33Z</time>
      </trkpt>
      <trkpt lat="45.9844" lon="4.79182">
        <ele>242</ele>
        <time>2018-07-10T10:00:34Z</time>
      </trkpt>
      <trkpt lat="45.98435" lon="4.79171">
        <ele>242</ele>
        <time>2018-07-10T10:00:36Z</time>
      </trkpt>
      <trkpt lat="45.98433" lon="4.79164">
        <ele>242</ele>
        <time>2018-07-10T10:00:37Z</time>
      </trkpt>
      <trkpt lat="45.9843" lon="4.79158">
        <ele>242</ele>
        <time>2018-07-10T10:00:38Z</time>
      </trkpt>
      <trkpt lat="45.98427" lon="4.79151">
        <ele>242</ele>
        <time>2018-07-10T10:00:39Z</time>
      </trkpt>
      <trkpt lat="45.98424" lon="4.79144">
        <ele>242</ele>
        <time>2018-07-10T10:00:40Z</time>
      </trkpt>
      <trkpt lat="45.98419" lon="4.79138">
        <ele>242</ele>
        <time>2018-07-10T10:00:41Z</time>
      </trkpt>
      <trkpt lat="45.98415" lon="4.79129">
        <ele>242</ele>
        <time>2018-07-10T10:00:42Z</time>
      </trkpt>
      <trkpt lat="45.98411" lon="4.79121">
        <ele>242</ele>
        <time>2018-07-10T10:00:43Z</time>
      </trkpt>
      <trkpt lat="45.98407" lon="4.79114">
        <ele>242</ele>
        <time>2018-07-10T10:00:44Z</time>
      </trkpt>
      <trkpt lat="45.98403" lon="4.79107">
        <ele>242</ele>
        <time>2018-07-10T10:00:45Z</time>
      </trkpt>
      <trkpt lat="45.98394" lon="4.79097">
        <ele>242</ele>
        <time>2018-07-10T10:00:46Z</time>
      </trkpt>
      <trkpt lat="45.9839" lon="4.7909">
        <ele>242</ele>
        <time>2018-07-10T10:00:47Z</time>
      </trkpt>
      <trkpt lat="45.98388" lon="4.79083">
        <ele>242</ele>
        <time>2018-07-10T10:00:48Z</time>
      </trkpt>
      <trkpt lat="45.98383" lon="4.79076">
        <ele>242</ele>
        <time>2018-07-10T10:00:49Z</time>
      </trkpt>
      <trkpt lat="45.98379" lon="4.7907">
        <ele>242</ele>
        <time>2018-07-10T10:00:50Z</time>
      </trkpt>
      <trkpt lat="45.98375" lon="4.79062">
        <ele>242</ele>
        <time>2018-07-10T10:00:51Z</time>
      </trkpt>
      <trkpt lat="45.98371" lon="4.79055">
        <ele>242</ele>
        <time>2018-07-10T10:00:52Z</time>
      </trkpt>
      <trkpt lat="45.98368" lon="4.79049">
        <ele>242</ele>
        <time>2018-07-10T10:00:53Z</time>
      </trkpt>
      <trkpt lat="45.98365" lon="4.79043">
        <ele>242</ele>
        <time>2018-07-10T10:00:54Z</time>
      </trkpt>
      <trkpt lat="45.98362" lon="4.79036">
        <ele>242</ele>
        <time>2018-07-10T10:00:55Z</time>
      </trkpt>
      <trkpt lat="45.98357" lon="4.7903">
        <ele>242</ele>
        <time>2018-07-10T10:00:56Z</time>
      </trkpt>
      <trkpt lat="45.98352" lon="4.79024">
        <ele>242</ele>
        <time>2018-07-10T10:00:57Z</time>
      </trkpt>
      <trkpt lat="45.98344" lon="4.79018">
        <ele>242</ele>
        <time>2018-07-10T10:00:58Z</time>
      </trkpt>
      <trkpt lat="45.98339" lon="4.79014">
        <ele>242</ele>
        <time>2018-07-10T10:00:59Z</time>
      </trkpt>
      <trkpt lat="45.98332" lon="4.79009">
        <ele>242</ele>
        <time>2018-07-10T10:01:00Z</time>
      </trkpt>
      <trkpt lat="45.98325" lon="4.79003">
        <ele>242</ele>
        <time>2018-07-10T10:01:01Z</time>
      </trkpt>
      <trkpt lat="45.98318" lon="4.78999">
        <ele>242</ele>
        <time>2018-07-10T10:01:02Z</time>
      </trkpt>
      <trkpt lat="45.98312" lon="4.78995">
        <ele>241</ele>
        <time>2018-07-10T10:01:03Z</time>
      </trkpt>
      <trkpt lat="45.98305" lon="4.7899">
        <ele>241</ele>
        <time>2018-07-10T10:01:04Z</time>
      </trkpt>
      <trkpt lat="45.98299" lon="4.78986">
        <ele>241</ele>
        <time>2018-07-10T10:01:05Z</time>
      </trkpt>
      <trkpt lat="45.98293" lon="4.78983">
        <ele>241</ele>
        <time>2018-07-10T10:01:06Z</time>
      </trkpt>
      <trkpt lat="45.98285" lon="4.7898">
        <ele>241</ele>
        <time>2018-07-10T10:01:07Z</time>
      </trkpt>
      <trkpt lat="45.98278" lon="4.78975">
        <ele>241</ele>
        <time>2018-07-10T10:01:08Z</time>
      </trkpt>
      <trkpt lat="45.98271" lon="4.7897">
        <ele>241</ele>
        <time>2018-07-10T10:01:09Z</time>
      </trkpt>
      <trkpt lat="45.98264" lon="4.78966">
        <ele>241</ele>
        <time>2018-07-10T10:01:10Z</time>
      </trkpt>
      <trkpt lat="45.98257" lon="4.78965">
        <ele>241</ele>
        <time>2018-07-10T10:01:11Z</time>
      </trkpt>
      <trkpt lat="45.98248" lon="4.78961">
        <ele>241</ele>
        <time>2018-07-10T10:01:12Z</time>
      </trkpt>
      <trkpt lat="45.98241" lon="4.78958">
        <ele>241</ele>
        <time>2018-07-10T10:01:13Z</time>
      </trkpt>
      <trkpt lat="45.98234" lon="4.78955">
        <ele>241</ele>
        <time>2018-07-10T10:01:14Z</time>
      </trkpt>
      <trkpt lat="45.98228" lon="4.7895">
        <ele>241</ele>
        <time>2018-07-10T10:01:15Z</time>
      </trkpt>
      <trkpt lat="45.98223" lon="4.78947">
        <ele>241</ele>
        <time>2018-07-10T10:01:16Z</time>
      </trkpt>
      <trkpt lat="45.98216" lon="4.78943">
        <ele>241</ele>
        <time>2018-07-10T10:01:17Z</time>
      </trkpt>
      <trkpt lat="45.98209" lon="4.78939">
        <ele>241</ele>
        <time>2018-07-10T10:01:18Z</time>
      </trkpt>
      <trkpt lat="45.98202" lon="4.78935">
        <ele>241</ele>
        <time>2018-07-10T10:01:19Z</time>
      </trkpt>
      <trkpt lat="45.98196" lon="4.78932">
        <ele>241</ele>
        <time>2018-07-10T10:01:20Z</time>
      </trkpt>
      <trkpt lat="45.9819" lon="4.78929">
        <ele>241</ele>
        <time>2018-07-10T10:01:21Z</time>
      </trkpt>
      <trkpt lat="45.98186" lon="4.78925">
        <ele>241</ele>
        <time>2018-07-10T10:01:22Z</time>
      </trkpt>
      <trkpt lat="45.98181" lon="4.7892">
        <ele>240</ele>
        <time>2018-07-10T10:01:23Z</time>
      </trkpt>
      <trkpt lat="45.98173" lon="4.78916">
        <ele>240</ele>
        <time>2018-07-10T10:01:24Z</time>
      </trkpt>
      <trkpt lat="45.98167" lon="4.78913">
        <ele>240</ele>
        <time>2018-07-10T10:01:25Z</time>
      </trkpt>
      <trkpt lat="45.98162" lon="4.78909">
        <ele>240</ele>
        <time>2018-07-10T10:01:26Z</time>
      </trkpt>
      <trkpt lat="45.98156" lon="4.78905">
        <ele>240</ele>
        <time>2018-07-10T10:01:27Z</time>
      </trkpt>
      <trkpt lat="45.98148" lon="4.78902">
        <ele>240</ele>
        <time>2018-07-10T10:01:28Z</time>
      </trkpt>
      <trkpt lat="45.98142" lon="4.78899">
        <ele>240</ele>
        <time>2018-07-10T10:01:29Z</time>
      </trkpt>
      <trkpt lat="45.98136" lon="4.78896">
        <ele>240</ele>
        <time>2018-07-10T10:01:30Z</time>
      </trkpt>
      <trkpt lat="45.98128" lon="4.78892">
        <ele>240</ele>
        <time>2018-07-10T10:01:31Z</time>
      </trkpt>
      <trkpt lat="45.98123" lon="4.78889">
        <ele>240</ele>
        <time>2018-07-10T10:01:32Z</time>
      </trkpt>
      <trkpt lat="45.98117" lon="4.78885">
        <ele>240</ele>
        <time>2018-07-10T10:01:33Z</time>
      </trkpt>
      <trkpt lat="45.98111" lon="4.78881">
        <ele>240</ele>
        <time>2018-07-10T10:01:34Z</time>
      </trkpt>
      <trkpt lat="45.98104" lon="4.78878">
        <ele>240</ele>
        <time>2018-07-10T10:01:35Z</time>
      </trkpt>
      <trkpt lat="45.98099" lon="4.78873">
        <ele>239</ele>
        <time>2018-07-10T10:01:36Z</time>
      </trkpt>
      <trkpt lat="45.98095" lon="4.7887">
        <ele>239</ele>
        <time>2018-07-10T10:01:37Z</time>
      </trkpt>
      <trkpt lat="45.98088" lon="4.78865">
        <ele>239</ele>
        <time>2018-07-10T10:01:38Z</time>
      </trkpt>
      <trkpt lat="45.98082" lon="4.78862">
        <ele>239</ele>
        <time>2018-07-10T10:01:39Z</time>
      </trkpt>
      <trkpt lat="45.98074" lon="4.78858">
        <ele>239</ele>
        <time>2018-07-10T10:01:40Z</time>
      </trkpt>
      <trkpt lat="45.98066" lon="4.78855">
        <ele>239</ele>
        <time>2018-07-10T10:01:41Z</time>
      </trkpt>
      <trkpt lat="45.9806" lon="4.78851">
        <ele>239</ele>
        <time>2018-07-10T10:01:42Z</time>
      </trkpt>
      <trkpt lat="45.98054" lon="4.78847">
        <ele>239</ele>
        <time>2018-07-10T10:01:43Z</time>
      </trkpt>
      <trkpt lat="45.98047" lon="4.78842">
        <ele>239</ele>
        <time>2018-07-10T10:01:44Z</time>
      </trkpt>
      <trkpt lat="45.98042" lon="4.78837">
        <ele>238</ele>
        <time>2018-07-10T10:01:45Z</time>
      </trkpt>
      <trkpt lat="45.98035" lon="4.78832">
        <ele>238</ele>
        <time>2018-07-10T10:01:46Z</time>
      </trkpt>
      <trkpt lat="45.9803" lon="4.78829">
        <ele>238</ele>
        <time>2018-07-10T10:01:47Z</time>
      </trkpt>
      <trkpt lat="45.98023" lon="4.78825">
        <ele>238</ele>
        <time>2018-07-10T10:01:48Z</time>
      </trkpt>
      <trkpt lat="45.98017" lon="4.7882">
        <ele>238</ele>
        <time>2018-07-10T10:01:49Z</time>
      </trkpt>
      <trkpt lat="45.98011" lon="4.78816">
        <ele>238</ele>
        <time>2018-07-10T10:01:50Z</time>
      </trkpt>
      <trkpt lat="45.98005" lon="4.78812">
        <ele>238</ele>
        <time>2018-07-10T10:01:51Z</time>
      </trkpt>
      <trkpt lat="45.97999" lon="4.78808">
        <ele>238</ele>
        <time>2018-07-10T10:01:52Z</time>
      </trkpt>
      <trkpt lat="45.97993" lon="4.78802">
        <ele>238</ele>
        <time>2018-07-10T10:01:53Z</time>
      </trkpt>
      <trkpt lat="45.97987" lon="4.78798">
        <ele>238</ele>
        <time>2018-07-10T10:01:54Z</time>
      </trkpt>
      <trkpt lat="45.97977" lon="4.78792">
        <ele>238</ele>
        <time>2018-07-10T10:01:55Z</time>
      </trkpt>
      <trkpt lat="45.97971" lon="4.78788">
        <ele>238</ele>
        <time>2018-07-10T10:01:56Z</time>
      </trkpt>
      <trkpt lat="45.97963" lon="4.78784">
        <ele>238</ele>
        <time>2018-07-10T10:01:57Z</time>
      </trkpt>
      <trkpt lat="45.97956" lon="4.78779">
        <ele>238</ele>
        <time>2018-07-10T10:01:58Z</time>
      </trkpt>
      <trkpt lat="45.9795" lon="4.78773">
        <ele>238</ele>
        <time>2018-07-10T10:01:59Z</time>
      </trkpt>
      <trkpt lat="45.97942" lon="4.78768">
        <ele>238</ele>
        <time>2018-07-10T10:02:00Z</time>
      </trkpt>
      <trkpt lat="45.97936" lon="4.78764">
        <ele>238</ele>
        <time>2018-07-10T10:02:01Z</time>
      </trkpt>
      <trkpt lat="45.97929" lon="4.78759">
        <ele>237</ele>
        <time>2018-07-10T10:02:02Z</time>
      </trkpt>
      <trkpt lat="45.97923" lon="4.78755">
        <ele>237</ele>
        <time>2018-07-10T10:02:03Z</time>
      </trkpt>
      <trkpt lat="45.97918" lon="4.78751">
        <ele>237</ele>
        <time>2018-07-10T10:02:04Z</time>
      </trkpt>
      <trkpt lat="45.97911" lon="4.78745">
        <ele>237</ele>
        <time>2018-07-10T10:02:05Z</time>
      </trkpt>
      <trkpt lat="45.97906" lon="4.78741">
        <ele>237</ele>
        <time>2018-07-10T10:02:06Z</time>
      </trkpt>
      <trkpt lat="45.97899" lon="4.78736">
        <ele>237</ele>
        <time>2018-07-10T10:02:07Z</time>
      </trkpt>
      <trkpt lat="45.97894" lon="4.78731">
        <ele>236</ele>
        <time>2018-07-10T10:02:08Z</time>
      </trkpt>
      <trkpt lat="45.97888" lon="4.78725">
        <ele>236</ele>
        <time>2018-07-10T10:02:09Z</time>
      </trkpt>
      <trkpt lat="45.97881" lon="4.7872">
        <ele>236</ele>
        <time>2018-07-10T10:02:10Z</time>
      </trkpt>
      <trkpt lat="45.97875" lon="4.78716">
        <ele>236</ele>
        <time>2018-07-10T10:02:11Z</time>
      </trkpt>
      <trkpt lat="45.97871" lon="4.78712">
        <ele>236</ele>
        <time>2018-07-10T10:02:12Z</time>
      </trkpt>
      <trkpt lat="45.97864" lon="4.78708">
        <ele>236</ele>
        <time>2018-07-10T10:02:13Z</time>
      </trkpt>
      <trkpt lat="45.97858" lon="4.78704">
        <ele>236</ele>
        <time>2018-07-10T10:02:14Z</time>
      </trkpt>
      <trkpt lat="45.97852" lon="4.787">
        <ele>236</ele>
        <time>2018-07-10T10:02:15Z</time>
      </trkpt>
      <trkpt lat="45.97846" lon="4.78696">
        <ele>236</ele>
        <time>2018-07-10T10:02:16Z</time>
      </trkpt>
      <trkpt lat="45.9784" lon="4.78693">
        <ele>236</ele>
        <time>2018-07-10T10:02:17Z</time>
      </trkpt>
      <trkpt lat="45.97833" lon="4.7869">
        <ele>235</ele>
        <time>2018-07-10T10:02:18Z</time>
      </trkpt>
      <trkpt lat="45.97828" lon="4.78687">
        <ele>235</ele>
        <time>2018-07-10T10:02:19Z</time>
      </trkpt>
      <trkpt lat="45.97821" lon="4.78683">
        <ele>235</ele>
        <time>2018-07-10T10:02:20Z</time>
      </trkpt>
      <trkpt lat="45.97815" lon="4.7868">
        <ele>235</ele>
        <time>2018-07-10T10:02:21Z</time>
      </trkpt>
      <trkpt lat="45.97809" lon="4.78677">
        <ele>235</ele>
        <time>2018-07-10T10:02:22Z</time>
      </trkpt>
      <trkpt lat="45.97803" lon="4.78676">
        <ele>235</ele>
        <time>2018-07-10T10:02:23Z</time>
      </trkpt>
      <trkpt lat="45.97797" lon="4.78674">
        <ele>235</ele>
        <time>2018-07-10T10:02:24Z</time>
      </trkpt>
      <trkpt lat="45.97791" lon="4.7867">
        <ele>235</ele>
        <time>2018-07-10T10:02:25Z</time>
      </trkpt>
      <trkpt lat="45.97784" lon="4.78666">
        <ele>235</ele>
        <time>2018-07-10T10:02:26Z</time>
      </trkpt>
      <trkpt lat="45.97778" lon="4.78662">
        <ele>235</ele>
        <time>2018-07-10T10:02:27Z</time>
      </trkpt>
      <trkpt lat="45.97772" lon="4.78657">
        <ele>235</ele>
        <time>2018-07-10T10:02:28Z</time>
      </trkpt>
      <trkpt lat="45.97765" lon="4.78655">
        <ele>235</ele>
        <time>2018-07-10T10:02:29Z</time>
      </trkpt>
      <trkpt lat="45.97758" lon="4.78652">
        <ele>235</ele>
        <time>2018-07-10T10:02:30Z</time>
      </trkpt>
      <trkpt lat="45.97751" lon="4.78649">
        <ele>235</ele>
        <time>2018-07-10T10:02:31Z</time>
      </trkpt>
      <trkpt lat="45.97745" lon="4.78646">
        <ele>234</ele>
        <time>2018-07-10T10:02:32Z</time>
      </trkpt>
      <trkpt lat="45.97737" lon="4.78644">
        <ele>234</ele>
        <time>2018-07-10T10:02:33Z</time>
      </trkpt>
      <trkpt lat="45.9773" lon="4.78641">
        <ele>234</ele>
        <time>2018-07-10T10:02:34Z</time>
      </trkpt>
      <trkpt lat="45.97724" lon="4.78637">
        <ele>234</ele>
        <time>2018-07-10T10:02:35Z</time>
      </trkpt>
      <trkpt lat="45.97717" lon="4.78633">
        <ele>234</ele>
        <time>2018-07-10T10:02:36Z</time>
      </trkpt>
      <trkpt lat="45.97709" lon="4.7863">
        <ele>234</ele>
        <time>2018-07-10T10:02:37Z</time>
      </trkpt>
      <trkpt lat="45.97703" lon="4.78627">
        <ele>234</ele>
        <time>2018-07-10T10:02:38Z</time>
      </trkpt>
      <trkpt lat="45.97697" lon="4.78624">
        <ele>234</ele>
        <time>2018-07-10T10:02:39Z</time>
      </trkpt>
      <trkpt lat="45.9769" lon="4.78622">
        <ele>234</ele>
        <time>2018-07-10T10:02:40Z</time>
      </trkpt>
      <trkpt lat="45.97681" lon="4.7862">
        <ele>234</ele>
        <time>2018-07-10T10:02:41Z</time>
      </trkpt>
      <trkpt lat="45.97673" lon="4.78617">
        <ele>234</ele>
        <time>2018-07-10T10:02:42Z</time>
      </trkpt>
      <trkpt lat="45.97666" lon="4.78615">
        <ele>233</ele>
        <time>2018-07-10T10:02:43Z</time>
      </trkpt>
      <trkpt lat="45.97659" lon="4.78613">
        <ele>233</ele>
        <time>2018-07-10T10:02:44Z</time>
      </trkpt>
      <trkpt lat="45.97652" lon="4.78611">
        <ele>233</ele>
        <time>2018-07-10T10:02:45Z</time>
      </trkpt>
      <trkpt lat="45.97644" lon="4.78608">
        <ele>233</ele>
        <time>2018-07-10T10:02:46Z</time>
      </trkpt>
      <trkpt lat="45.97637" lon="4.78605">
        <ele>233</ele>
        <time>2018-07-10T10:02:47Z</time>
      </trkpt>
      <trkpt lat="45.97629" lon="4.78602">
        <ele>233</ele>
        <time>2018-07-10T10:02:48Z</time>
      </trkpt>
      <trkpt lat="45.97622" lon="4.78599">
        <ele>233</ele>
        <time>2018-07-10T10:02:49Z</time>
      </trkpt>
      <trkpt lat="45.97614" lon="4.78596">
        <ele>233</ele>
        <time>2018-07-10T10:02:50Z</time>
      </trkpt>
      <trkpt lat="45.97608" lon="4.78593">
        <ele>233</ele>
        <time>2018-07-10T10:02:51Z</time>
      </trkpt>
      <trkpt lat="45.97602" lon="4.78591">
        <ele>233</ele>
        <time>2018-07-10T10:02:52Z</time>
      </trkpt>
      <trkpt lat="45.97596" lon="4.78588">
        <ele>233</ele>
        <time>2018-07-10T10:02:53Z</time>
      </trkpt>
      <trkpt lat="45.97588" lon="4.78585">
        <ele>233</ele>
        <time>2018-07-10T10:02:54Z</time>
      </trkpt>
      <trkpt lat="45.97581" lon="4.78582">
        <ele>233</ele>
        <time>2018-07-10T10:02:55Z</time>
      </trkpt>
      <trkpt lat="45.97574" lon="4.78581">
        <ele>233</ele>
        <time>2018-07-10T10:02:56Z</time>
      </trkpt>
      <trkpt lat="45.97566" lon="4.78579">
        <ele>233</ele>
        <time>2018-07-10T10:02:57Z</time>
      </trkpt>
      <trkpt lat="45.97559" lon="4.78575">
        <ele>233</ele>
        <time>2018-07-10T10:02:58Z</time>
      </trkpt>
      <trkpt lat="45.97551" lon="4.7857">
        <ele>234</ele>
        <time>2018-07-10T10:02:59Z</time>
      </trkpt>
      <trkpt lat="45.97544" lon="4.78567">
        <ele>234</ele>
        <time>2018-07-10T10:03:00Z</time>
      </trkpt>
      <trkpt lat="45.97537" lon="4.78563">
        <ele>234</ele>
        <time>2018-07-10T10:03:01Z</time>
      </trkpt>
      <trkpt lat="45.9753" lon="4.78559">
        <ele>234</ele>
        <time>2018-07-10T10:03:02Z</time>
      </trkpt>
      <trkpt lat="45.97523" lon="4.78555">
        <ele>234</ele>
        <time>2018-07-10T10:03:03Z</time>
      </trkpt>
      <trkpt lat="45.97516" lon="4.78552">
        <ele>234</ele>
        <time>2018-07-10T10:03:04Z</time>
      </trkpt>
      <trkpt lat="45.97507" lon="4.78548">
        <ele>234</ele>
        <time>2018-07-10T10:03:05Z</time>
      </trkpt>
      <trkpt lat="45.97499" lon="4.7854">
        <ele>233</ele>
        <time>2018-07-10T10:03:06Z</time>
      </trkpt>
      <trkpt lat="45.97493" lon="4.78535">
        <ele>233</ele>
        <time>2018-07-10T10:03:07Z</time>
      </trkpt>
      <trkpt lat="45.97487" lon="4.78531">
        <ele>233</ele>
        <time>2018-07-10T10:03:08Z</time>
      </trkpt>
      <trkpt lat="45.97482" lon="4.78527">
        <ele>233</ele>
        <time>2018-07-10T10:03:09Z</time>
      </trkpt>
      <trkpt lat="45.97474" lon="4.78522">
        <ele>233</ele>
        <time>2018-07-10T10:03:10Z</time>
      </trkpt>
      <trkpt lat="45.97468" lon="4.78517">
        <ele>233</ele>
        <time>2018-07-10T10:03:11Z</time>
      </trkpt>
      <trkpt lat="45.97462" lon="4.78512">
        <ele>233</ele>
        <time>2018-07-10T10:03:12Z</time>
      </trkpt>
      <trkpt lat="45.97454" lon="4.78506">
        <ele>234</ele>
        <time>2018-07-10T10:03:13Z</time>
      </trkpt>
      <trkpt lat="45.97445" lon="4.785">
        <ele>234</ele>
        <time>2018-07-10T10:03:14Z</time>
      </trkpt>
      <trkpt lat="45.97439" lon="4.78494">
        <ele>234</ele>
        <time>2018-07-10T10:03:15Z</time>
      </trkpt>
      <trkpt lat="45.97433" lon="4.78489">
        <ele>234</ele>
        <time>2018-07-10T10:03:16Z</time>
      </trkpt>
      <trkpt lat="45.97427" lon="4.78483">
        <ele>234</ele>
        <time>2018-07-10T10:03:17Z</time>
      </trkpt>
      <trkpt lat="45.97422" lon="4.78477">
        <ele>234</ele>
        <time>2018-07-10T10:03:18Z</time>
      </trkpt>
      <trkpt lat="45.97416" lon="4.78471">
        <ele>233</ele>
        <time>2018-07-10T10:03:19Z</time>
      </trkpt>
      <trkpt lat="45.97409" lon="4.78465">
        <ele>233</ele>
        <time>2018-07-10T10:03:20Z</time>
      </trkpt>
      <trkpt lat="45.97404" lon="4.78459">
        <ele>233</ele>
        <time>2018-07-10T10:03:21Z</time>
      </trkpt>
      <trkpt lat="45.97399" lon="4.78454">
        <ele>233</ele>
        <time>2018-07-10T10:03:22Z</time>
      </trkpt>
      <trkpt lat="45.97393" lon="4.78448">
        <ele>233</ele>
        <time>2018-07-10T10:03:23Z</time>
      </trkpt>
      <trkpt lat="45.97387" lon="4.78442">
        <ele>233</ele>
        <time>2018-07-10T10:03:24Z</time>
      </trkpt>
      <trkpt lat="45.97382" lon="4.78438">
        <ele>233</ele>
        <time>2018-07-10T10:03:25Z</time>
      </trkpt>
      <trkpt lat="45.97377" lon="4.78432">
        <ele>233</ele>
        <time>2018-07-10T10:03:26Z</time>
      </trkpt>
      <trkpt lat="45.97371" lon="4.78427">
        <ele>233</ele>
        <time>2018-07-10T10:03:27Z</time>
      </trkpt>
      <trkpt lat="45.97366" lon="4.78421">
        <ele>233</ele>
        <time>2018-07-10T10:03:28Z</time>
      </trkpt>
      <trkpt lat="45.97361" lon="4.78415">
        <ele>233</ele>
        <time>2018-07-10T10:03:29Z</time>
      </trkpt>
      <trkpt lat="45.97356" lon="4.78411">
        <ele>232</ele>
        <time>2018-07-10T10:03:30Z</time>
      </trkpt>
      <trkpt lat="45.97351" lon="4.78406">
        <ele>232</ele>
        <time>2018-07-10T10:03:31Z</time>
      </trkpt>
      <trkpt lat="45.97347" lon="4.78401">
        <ele>232</ele>
        <time>2018-07-10T10:03:32Z</time>
      </trkpt>
      <trkpt lat="45.9734" lon="4.78396">
        <ele>232</ele>
        <time>2018-07-10T10:03:33Z</time>
      </trkpt>
      <trkpt lat="45.97336" lon="4.7839">
        <ele>233</ele>
        <time>2018-07-10T10:03:34Z</time>
      </trkpt>
      <trkpt lat="45.97331" lon="4.78385">
        <ele>232</ele>
        <time>2018-07-10T10:03:35Z</time>
      </trkpt>
      <trkpt lat="45.97325" lon="4.78379">
        <ele>232</ele>
        <time>2018-07-10T10:03:36Z</time>
      </trkpt>
      <trkpt lat="45.97319" lon="4.78373">
        <ele>232</ele>
        <time>2018-07-10T10:03:37Z</time>
      </trkpt>
      <trkpt lat="45.97314" lon="4.78366">
        <ele>232</ele>
        <time>2018-07-10T10:03:38Z</time>
      </trkpt>
      <trkpt lat="45.97308" lon="4.78358">
        <ele>232</ele>
        <time>2018-07-10T10:03:39Z</time>
      </trkpt>
      <trkpt lat="45.97302" lon="4.7835">
        <ele>232</ele>
        <time>2018-07-10T10:03:40Z</time>
      </trkpt>
      <trkpt lat="45.97298" lon="4.78344">
        <ele>232</ele>
        <time>2018-07-10T10:03:41Z</time>
      </trkpt>
      <trkpt lat="45.97292" lon="4.78336">
        <ele>232</ele>
        <time>2018-07-10T10:03:42Z</time>
      </trkpt>
      <trkpt lat="45.97288" lon="4.78331">
        <ele>232</ele>
        <time>2018-07-10T10:03:43Z</time>
      </trkpt>
      <trkpt lat="45.97284" lon="4.78324">
        <ele>232</ele>
        <time>2018-07-10T10:03:44Z</time>
      </trkpt>
      <trkpt lat="45.9728" lon="4.78317">
        <ele>232</ele>
        <time>2018-07-10T10:03:45Z</time>
      </trkpt>
      <trkpt lat="45.97276" lon="4.78309">
        <ele>232</ele>
        <time>2018-07-10T10:03:46Z</time>
      </trkpt>
      <trkpt lat="45.97271" lon="4.78302">
        <ele>232</ele>
        <time>2018-07-10T10:03:47Z</time>
      </trkpt>
      <trkpt lat="45.97266" lon="4.78296">
        <ele>232</ele>
        <time>2018-07-10T10:03:48Z</time>
      </trkpt>
      <trkpt lat="45.97262" lon="4.78289">
        <ele>232</ele>
        <time>2018-07-10T10:03:49Z</time>
      </trkpt>
      <trkpt lat="45.97258" lon="4.78281">
        <ele>232</ele>
        <time>2018-07-10T10:03:50Z</time>
      </trkpt>
      <trkpt lat="45.97252" lon="4.78275">
        <ele>232</ele>
        <time>2018-07-10T10:03:51Z</time>
      </trkpt>
      <trkpt lat="45.97248" lon="4.78269">
        <ele>231</ele>
        <time>2018-07-10T10:03:52Z</time>
      </trkpt>
      <trkpt lat="45.97243" lon="4.78263">
        <ele>231</ele>
        <time>2018-07-10T10:03:53Z</time>
      </trkpt>
      <trkpt lat="45.9724" lon="4.78258">
        <ele>231</ele>
        <time>2018-07-10T10:03:54Z</time>
      </trkpt>
      <trkpt lat="45.97235" lon="4.78252">
        <ele>231</ele>
        <time>2018-07-10T10:03:55Z</time>
      </trkpt>
      <trkpt lat="45.97232" lon="4.78245">
        <ele>231</ele>
        <time>2018-07-10T10:03:56Z</time>
      </trkpt>
      <trkpt lat="45.97228" lon="4.78238">
        <ele>231</ele>
        <time>2018-07-10T10:03:57Z</time>
      </trkpt>
      <trkpt lat="45.97224" lon="4.7823">
        <ele>231</ele>
        <time>2018-07-10T10:03:58Z</time>
      </trkpt>
      <trkpt lat="45.97219" lon="4.78224">
        <ele>231</ele>
        <time>2018-07-10T10:03:59Z</time>
      </trkpt>
      <trkpt lat="45.97215" lon="4.78216">
        <ele>231</ele>
        <time>2018-07-10T10:04:00Z</time>
      </trkpt>
      <trkpt lat="45.97211" lon="4.78208">
        <ele>231</ele>
        <time>2018-07-10T10:04:01Z</time>
      </trkpt>
      <trkpt lat="45.97206" lon="4.78201">
        <ele>231</ele>
        <time>2018-07-10T10:04:02Z</time>
      </trkpt>
      <trkpt lat="45.97202" lon="4.78191">
        <ele>231</ele>
        <time>2018-07-10T10:04:03Z</time>
      </trkpt>
      <trkpt lat="45.97198" lon="4.78183">
        <ele>231</ele>
        <time>2018-07-10T10:04:04Z</time>
      </trkpt>
      <trkpt lat="45.97194" lon="4.78174">
        <ele>231</ele>
        <time>2018-07-10T10:04:05Z</time>
      </trkpt>
      <trkpt lat="45.9719" lon="4.78168">
        <ele>231</ele>
        <time>2018-07-10T10:04:06Z</time>
      </trkpt>
      <trkpt lat="45.97183" lon="4.78159">
        <ele>231</ele>
        <time>2018-07-10T10:04:07Z</time>
      </trkpt>
      <trkpt lat="45.97179" lon="4.78149">
        <ele>231</ele>
        <time>2018-07-10T10:04:08Z</time>
      </trkpt>
      <trkpt lat="45.97174" lon="4.78141">
        <ele>231</ele>
        <time>2018-07-10T10:04:09Z</time>
      </trkpt>
      <trkpt lat="45.9717" lon="4.78132">
        <ele>231</ele>
        <time>2018-07-10T10:04:10Z</time>
      </trkpt>
      <trkpt lat="45.97165" lon="4.78122">
        <ele>230</ele>
        <time>2018-07-10T10:04:11Z</time>
      </trkpt>
      <trkpt lat="45.9716" lon="4.78113">
        <ele>230</ele>
        <time>2018-07-10T10:04:12Z</time>
      </trkpt>
      <trkpt lat="45.97155" lon="4.78104">
        <ele>230</ele>
        <time>2018-07-10T10:04:13Z</time>
      </trkpt>
      <trkpt lat="45.97151" lon="4.78096">
        <ele>230</ele>
        <time>2018-07-10T10:04:14Z</time>
      </trkpt>
      <trkpt lat="45.97146" lon="4.78088">
        <ele>230</ele>
        <time>2018-07-10T10:04:15Z</time>
      </trkpt>
      <trkpt lat="45.97141" lon="4.7808">
        <ele>230</ele>
        <time>2018-07-10T10:04:16Z</time>
      </trkpt>
      <trkpt lat="45.97135" lon="4.78072">
        <ele>230</ele>
        <time>2018-07-10T10:04:17Z</time>
      </trkpt>
      <trkpt lat="45.97135" lon="4.78068">
        <ele>230</ele>
        <time>2018-07-10T10:04:18Z</time>
      </trkpt>
      <trkpt lat="45.9713" lon="4.78062">
        <ele>230</ele>
        <time>2018-07-10T10:04:19Z</time>
      </trkpt>
      <trkpt lat="45.97122" lon="4.78056">
        <ele>229</ele>
        <time>2018-07-10T10:04:20Z</time>
      </trkpt>
      <trkpt lat="45.97116" lon="4.78049">
        <ele>229</ele>
        <time>2018-07-10T10:04:21Z</time>
      </trkpt>
      <trkpt lat="45.97111" lon="4.78044">
        <ele>229</ele>
        <time>2018-07-10T10:04:22Z</time>
      </trkpt>
      <trkpt lat="45.97105" lon="4.78038">
        <ele>229</ele>
        <time>2018-07-10T10:04:23Z</time>
      </trkpt>
      <trkpt lat="45.97099" lon="4.78032">
        <ele>229</ele>
        <time>2018-07-10T10:04:24Z</time>
      </trkpt>
      <trkpt lat="45.97093" lon="4.78026">
        <ele>229</ele>
        <time>2018-07-10T10:04:25Z</time>
      </trkpt>
      <trkpt lat="45.97086" lon="4.78021">
        <ele>229</ele>
        <time>2018-07-10T10:04:26Z</time>
      </trkpt>
      <trkpt lat="45.97079" lon="4.78015">
        <ele>229</ele>
        <time>2018-07-10T10:04:27Z</time>
      </trkpt>
      <trkpt lat="45.97072" lon="4.7801">
        <ele>229</ele>
        <time>2018-07-10T10:04:28Z</time>
      </trkpt>
      <trkpt lat="45.97065" lon="4.78004">
        <ele>229</ele>
        <time>2018-07-10T10:04:29Z</time>
      </trkpt>
      <trkpt lat="45.9706" lon="4.77997">
        <ele>229</ele>
        <time>2018-07-10T10:04:30Z</time>
      </trkpt>
      <trkpt lat="45.97053" lon="4.77991">
        <ele>229</ele>
        <time>2018-07-10T10:04:31Z</time>
      </trkpt>
      <trkpt lat="45.97047" lon="4.77984">
        <ele>229</ele>
        <time>2018-07-10T10:04:32Z</time>
      </trkpt>
      <trkpt lat="45.97041" lon="4.77978">
        <ele>229</ele>
        <time>2018-07-10T10:04:33Z</time>
      </trkpt>
      <trkpt lat="45.97036" lon="4.77971">
        <ele>229</ele>
        <time>2018-07-10T10:04:34Z</time>
      </trkpt>
      <trkpt lat="45.97031" lon="4.77964">
        <ele>228</ele>
        <time>2018-07-10T10:04:35Z</time>
      </trkpt>
      <trkpt lat="45.97026" lon="4.77959">
        <ele>228</ele>
        <time>2018-07-10T10:04:36Z</time>
      </trkpt>
      <trkpt lat="45.97021" lon="4.77953">
        <ele>228</ele>
        <time>2018-07-10T10:04:37Z</time>
      </trkpt>
      <trkpt lat="45.97017" lon="4.77946">
        <ele>228</ele>
        <time>2018-07-10T10:04:38Z</time>
      </trkpt>
      <trkpt lat="45.97012" lon="4.7794">
        <ele>228</ele>
        <time>2018-07-10T10:04:39Z</time>
      </trkpt>
      <trkpt lat="45.97008" lon="4.77934">
        <ele>228</ele>
        <time>2018-07-10T10:04:40Z</time>
      </trkpt>
      <trkpt lat="45.97003" lon="4.77927">
        <ele>228</ele>
        <time>2018-07-10T10:04:41Z</time>
      </trkpt>
      <trkpt lat="45.96998" lon="4.77921">
        <ele>227</ele>
        <time>2018-07-10T10:04:42Z</time>
      </trkpt>
      <trkpt lat="45.96993" lon="4.77914">
        <ele>227</ele>
        <time>2018-07-10T10:04:43Z</time>
      </trkpt>
      <trkpt lat="45.96988" lon="4.77908">
        <ele>227</ele>
        <time>2018-07-10T10:04:44Z</time>
      </trkpt>
      <trkpt lat="45.96983" lon="4.77902">
        <ele>227</ele>
        <time>2018-07-10T10:04:45Z</time>
      </trkpt>
      <trkpt lat="45.96977" lon="4.77896">
        <ele>228</ele>
        <time>2018-07-10T10:04:46Z</time>
      </trkpt>
      <trkpt lat="45.9697" lon="4.7789">
        <ele>228</ele>
        <time>2018-07-10T10:04:47Z</time>
      </trkpt>
      <trkpt lat="45.96964" lon="4.77881">
        <ele>228</ele>
        <time>2018-07-10T10:04:48Z</time>
      </trkpt>
      <trkpt lat="45.96958" lon="4.77874">
        <ele>228</ele>
        <time>2018-07-10T10:04:49Z</time>
      </trkpt>
      <trkpt lat="45.96952" lon="4.77867">
        <ele>228</ele>
        <time>2018-07-10T10:04:50Z</time>
      </trkpt>
      <trkpt lat="45.96946" lon="4.7786">
        <ele>228</ele>
        <time>2018-07-10T10:04:51Z</time>
      </trkpt>
      <trkpt lat="45.9694" lon="4.77852">
        <ele>228</ele>
        <time>2018-07-10T10:04:52Z</time>
      </trkpt>
      <trkpt lat="45.96934" lon="4.77845">
        <ele>228</ele>
        <time>2018-07-10T10:04:53Z</time>
      </trkpt>
      <trkpt lat="45.96928" lon="4.77839">
        <ele>228</ele>
        <time>2018-07-10T10:04:54Z</time>
      </trkpt>
      <trkpt lat="45.96922" lon="4.77832">
        <ele>228</ele>
        <time>2018-07-10T10:04:55Z</time>
      </trkpt>
      <trkpt lat="45.96916" lon="4.77825">
        <ele>228</ele>
        <time>2018-07-10T10:04:56Z</time>
      </trkpt>
      <trkpt lat="45.9691" lon="4.77816">
        <ele>228</ele>
        <time>2018-07-10T10:04:57Z</time>
      </trkpt>
      <trkpt lat="45.96905" lon="4.77809">
        <ele>228</ele>
        <time>2018-07-10T10:04:58Z</time>
      </trkpt>
      <trkpt lat="45.96899" lon="4.77803">
        <ele>228</ele>
        <time>2018-07-10T10:04:59Z</time>
      </trkpt>
      <trkpt lat="45.96893" lon="4.77796">
        <ele>228</ele>
        <time>2018-07-10T10:05:00Z</time>
      </trkpt>
      <trkpt lat="45.96887" lon="4.7779">
        <ele>228</ele>
        <time>2018-07-10T10:05:01Z</time>
      </trkpt>
      <trkpt lat="45.9688" lon="4.77785">
        <ele>228</ele>
        <time>2018-07-10T10:05:02Z</time>
      </trkpt>
      <trkpt lat="45.96873" lon="4.7778">
        <ele>228</ele>
        <time>2018-07-10T10:05:03Z</time>
      </trkpt>
      <trkpt lat="45.96866" lon="4.77775">
        <ele>228</ele>
        <time>2018-07-10T10:05:04Z</time>
      </trkpt>
      <trkpt lat="45.96861" lon="4.77768">
        <ele>228</ele>
        <time>2018-07-10T10:05:05Z</time>
      </trkpt>
      <trkpt lat="45.96856" lon="4.77762">
        <ele>228</ele>
        <time>2018-07-10T10:05:06Z</time>
      </trkpt>
      <trkpt lat="45.96851" lon="4.77755">
        <ele>228</ele>
        <time>2018-07-10T10:05:07Z</time>
      </trkpt>
      <trkpt lat="45.96844" lon="4.77749">
        <ele>228</ele>
        <time>2018-07-10T10:05:08Z</time>
      </trkpt>
      <trkpt lat="45.96837" lon="4.77745">
        <ele>228</ele>
        <time>2018-07-10T10:05:09Z</time>
      </trkpt>
      <trkpt lat="45.96831" lon="4.77739">
        <ele>228</ele>
        <time>2018-07-10T10:05:10Z</time>
      </trkpt>
      <trkpt lat="45.96827" lon="4.77734">
        <ele>228</ele>
        <time>2018-07-10T10:05:11Z</time>
      </trkpt>
      <trkpt lat="45.96822" lon="4.77728">
        <ele>228</ele>
        <time>2018-07-10T10:05:12Z</time>
      </trkpt>
      <trkpt lat="45.96816" lon="4.77722">
        <ele>228</ele>
        <time>2018-07-10T10:05:13Z</time>
      </trkpt>
      <trkpt lat="45.9681" lon="4.77715">
        <ele>228</ele>
        <time>2018-07-10T10:05:14Z</time>
      </trkpt>
      <trkpt lat="45.96805" lon="4.77708">
        <ele>228</ele>
        <time>2018-07-10T10:05:15Z</time>
      </trkpt>
      <trkpt lat="45.96799" lon="4.77702">
        <ele>228</ele>
        <time>2018-07-10T10:05:16Z</time>
      </trkpt>
      <trkpt lat="45.96794" lon="4.77695">
        <ele>228</ele>
        <time>2018-07-10T10:05:17Z</time>
      </trkpt>
      <trkpt lat="45.96788" lon="4.77689">
        <ele>227</ele>
        <time>2018-07-10T10:05:18Z</time>
      </trkpt>
      <trkpt lat="45.96782" lon="4.77682">
        <ele>227</ele>
        <time>2018-07-10T10:05:19Z</time>
      </trkpt>
      <trkpt lat="45.96777" lon="4.77675">
        <ele>227</ele>
        <time>2018-07-10T10:05:20Z</time>
      </trkpt>
      <trkpt lat="45.96772" lon="4.77668">
        <ele>227</ele>
        <time>2018-07-10T10:05:21Z</time>
      </trkpt>
      <trkpt lat="45.96766" lon="4.7766">
        <ele>227</ele>
        <time>2018-07-10T10:05:22Z</time>
      </trkpt>
      <trkpt lat="45.9676" lon="4.77653">
        <ele>227</ele>
        <time>2018-07-10T10:05:23Z</time>
      </trkpt>
      <trkpt lat="45.96754" lon="4.77646">
        <ele>227</ele>
        <time>2018-07-10T10:05:24Z</time>
      </trkpt>
      <trkpt lat="45.96748" lon="4.7764">
        <ele>227</ele>
        <time>2018-07-10T10:05:25Z</time>
      </trkpt>
      <trkpt lat="45.96743" lon="4.77633">
        <ele>227</ele>
        <time>2018-07-10T10:05:26Z</time>
      </trkpt>
      <trkpt lat="45.96737" lon="4.77627">
        <ele>226</ele>
        <time>2018-07-10T10:05:27Z</time>
      </trkpt>
      <trkpt lat="45.96731" lon="4.7762">
        <ele>226</ele>
        <time>2018-07-10T10:05:28Z</time>
      </trkpt>
      <trkpt lat="45.96726" lon="4.77613">
        <ele>226</ele>
        <time>2018-07-10T10:05:29Z</time>
      </trkpt>
      <trkpt lat="45.9672" lon="4.77607">
        <ele>226</ele>
        <time>2018-07-10T10:05:30Z</time>
      </trkpt>
      <trkpt lat="45.96715" lon="4.776">
        <ele>226</ele>
        <time>2018-07-10T10:05:31Z</time>
      </trkpt>
      <trkpt lat="45.96708" lon="4.77592">
        <ele>226</ele>
        <time>2018-07-10T10:05:32Z</time>
      </trkpt>
      <trkpt lat="45.96702" lon="4.77586">
        <ele>226</ele>
        <time>2018-07-10T10:05:33Z</time>
      </trkpt>
      <trkpt lat="45.96696" lon="4.77579">
        <ele>225</ele>
        <time>2018-07-10T10:05:34Z</time>
      </trkpt>
      <trkpt lat="45.9669" lon="4.77573">
        <ele>225</ele>
        <time>2018-07-10T10:05:35Z</time>
      </trkpt>
      <trkpt lat="45.96683" lon="4.77567">
        <ele>225</ele>
        <time>2018-07-10T10:05:36Z</time>
      </trkpt>
      <trkpt lat="45.96676" lon="4.77561">
        <ele>225</ele>
        <time>2018-07-10T10:05:37Z</time>
      </trkpt>
      <trkpt lat="45.96669" lon="4.77556">
        <ele>225</ele>
        <time>2018-07-10T10:05:38Z</time>
      </trkpt>
      <trkpt lat="45.96662" lon="4.7755">
        <ele>224</ele>
        <time>2018-07-10T10:05:39Z</time>
      </trkpt>
      <trkpt lat="45.96656" lon="4.77545">
        <ele>224</ele>
        <time>2018-07-10T10:05:40Z</time>
      </trkpt>
      <trkpt lat="45.96649" lon="4.7754">
        <ele>224</ele>
        <time>2018-07-10T10:05:41Z</time>
      </trkpt>
      <trkpt lat="45.96641" lon="4.77536">
        <ele>224</ele>
        <time>2018-07-10T10:05:42Z</time>
      </trkpt>
      <trkpt lat="45.96634" lon="4.7753">
        <ele>224</ele>
        <time>2018-07-10T10:05:43Z</time>
      </trkpt>
      <trkpt lat="45.96627" lon="4.77526">
        <ele>224</ele>
        <time>2018-07-10T10:05:44Z</time>
      </trkpt>
      <trkpt lat="45.96619" lon="4.7752">
        <ele>224</ele>
        <time>2018-07-10T10:05:45Z</time>
      </trkpt>
      <trkpt lat="45.96613" lon="4.77517">
        <ele>224</ele>
        <time>2018-07-10T10:05:46Z</time>
      </trkpt>
      <trkpt lat="45.96605" lon="4.77512">
        <ele>224</ele>
        <time>2018-07-10T10:05:47Z</time>
      </trkpt>
      <trkpt lat="45.96598" lon="4.77508">
        <ele>224</ele>
        <time>2018-07-10T10:05:48Z</time>
      </trkpt>
      <trkpt lat="45.96591" lon="4.77503">
        <ele>224</ele>
        <time>2018-07-10T10:05:49Z</time>
      </trkpt>
      <trkpt lat="45.96584" lon="4.77499">
        <ele>224</ele>
        <time>2018-07-10T10:05:50Z</time>
      </trkpt>
      <trkpt lat="45.96577" lon="4.77494">
        <ele>224</ele>
        <time>2018-07-10T10:05:51Z</time>
      </trkpt>
      <trkpt lat="45.9657" lon="4.77489">
        <ele>224</ele>
        <time>2018-07-10T10:05:52Z</time>
      </trkpt>
      <trkpt lat="45.96561" lon="4.77484">
        <ele>224</ele>
        <time>2018-07-10T10:05:53Z</time>
      </trkpt>
      <trkpt lat="45.96555" lon="4.7748">
        <ele>224</ele>
        <time>2018-07-10T10:05:54Z</time>
      </trkpt>
      <trkpt lat="45.96548" lon="4.77477">
        <ele>223</ele>
        <time>2018-07-10T10:05:55Z</time>
      </trkpt>
      <trkpt lat="45.96543" lon="4.77471">
        <ele>223</ele>
        <time>2018-07-10T10:05:56Z</time>
      </trkpt>
      <trkpt lat="45.96534" lon="4.77466">
        <ele>223</ele>
        <time>2018-07-10T10:05:57Z</time>
      </trkpt>
      <trkpt lat="45.96527" lon="4.77461">
        <ele>223</ele>
        <time>2018-07-10T10:05:58Z</time>
      </trkpt>
      <trkpt lat="45.9652" lon="4.77456">
        <ele>223</ele>
        <time>2018-07-10T10:05:59Z</time>
      </trkpt>
      <trkpt lat="45.96513" lon="4.77451">
        <ele>223</ele>
        <time>2018-07-10T10:06:00Z</time>
      </trkpt>
      <trkpt lat="45.96506" lon="4.77445">
        <ele>223</ele>
        <time>2018-07-10T10:06:01Z</time>
      </trkpt>
      <trkpt lat="45.96498" lon="4.7744">
        <ele>222</ele>
        <time>2018-07-10T10:06:02Z</time>
      </trkpt>
      <trkpt lat="45.96491" lon="4.77436">
        <ele>222</ele>
        <time>2018-07-10T10:06:03Z</time>
      </trkpt>
      <trkpt lat="45.96483" lon="4.77431">
        <ele>222</ele>
        <time>2018-07-10T10:06:04Z</time>
      </trkpt>
      <trkpt lat="45.96475" lon="4.77427">
        <ele>222</ele>
        <time>2018-07-10T10:06:05Z</time>
      </trkpt>
      <trkpt lat="45.96468" lon="4.77422">
        <ele>221</ele>
        <time>2018-07-10T10:06:06Z</time>
      </trkpt>
      <trkpt lat="45.96461" lon="4.77416">
        <ele>222</ele>
        <time>2018-07-10T10:06:07Z</time>
      </trkpt>
      <trkpt lat="45.96453" lon="4.77411">
        <ele>222</ele>
        <time>2018-07-10T10:06:08Z</time>
      </trkpt>
      <trkpt lat="45.96446" lon="4.77407">
        <ele>222</ele>
        <time>2018-07-10T10:06:09Z</time>
      </trkpt>
      <trkpt lat="45.96438" lon="4.77403">
        <ele>222</ele>
        <time>2018-07-10T10:06:10Z</time>
      </trkpt>
      <trkpt lat="45.96431" lon="4.77398">
        <ele>222</ele>
        <time>2018-07-10T10:06:11Z</time>
      </trkpt>
      <trkpt lat="45.96423" lon="4.77394">
        <ele>222</ele>
        <time>2018-07-10T10:06:12Z</time>
      </trkpt>
      <trkpt lat="45.96415" lon="4.7739">
        <ele>220</ele>
        <time>2018-07-10T10:06:13Z</time>
      </trkpt>
      <trkpt lat="45.96406" lon="4.77385">
        <ele>220</ele>
        <time>2018-07-10T10:06:14Z</time>
      </trkpt>
      <trkpt lat="45.96398" lon="4.7738">
        <ele>220</ele>
        <time>2018-07-10T10:06:15Z</time>
      </trkpt>
      <trkpt lat="45.96391" lon="4.77376">
        <ele>220</ele>
        <time>2018-07-10T10:06:16Z</time>
      </trkpt>
      <trkpt lat="45.96384" lon="4.77371">
        <ele>220</ele>
        <time>2018-07-10T10:06:17Z</time>
      </trkpt>
      <trkpt lat="45.96373" lon="4.77369">
        <ele>220</ele>
        <time>2018-07-10T10:06:18Z</time>
      </trkpt>
      <trkpt lat="45.96367" lon="4.77364">
        <ele>220</ele>
        <time>2018-07-10T10:06:19Z</time>
      </trkpt>
      <trkpt lat="45.96357" lon="4.77358">
        <ele>220</ele>
        <time>2018-07-10T10:06:20Z</time>
      </trkpt>
      <trkpt lat="45.96349" lon="4.77355">
        <ele>220</ele>
        <time>2018-07-10T10:06:21Z</time>
      </trkpt>
      <trkpt lat="45.96342" lon="4.7735">
        <ele>220</ele>
        <time>2018-07-10T10:06:22Z</time>
      </trkpt>
      <trkpt lat="45.96333" lon="4.77346">
        <ele>220</ele>
        <time>2018-07-10T10:06:23Z</time>
      </trkpt>
      <trkpt lat="45.96326" lon="4.77341">
        <ele>218</ele>
        <time>2018-07-10T10:06:24Z</time>
      </trkpt>
      <trkpt lat="45.96318" lon="4.77337">
        <ele>218</ele>
        <time>2018-07-10T10:06:25Z</time>
      </trkpt>
      <trkpt lat="45.9631" lon="4.77333">
        <ele>219</ele>
        <time>2018-07-10T10:06:26Z</time>
      </trkpt>
      <trkpt lat="45.96301" lon="4.7733">
        <ele>219</ele>
        <time>2018-07-10T10:06:27Z</time>
      </trkpt>
      <trkpt lat="45.96293" lon="4.77327">
        <ele>219</ele>
        <time>2018-07-10T10:06:28Z</time>
      </trkpt>
      <trkpt lat="45.96286" lon="4.77323">
        <ele>219</ele>
        <time>2018-07-10T10:06:29Z</time>
      </trkpt>
      <trkpt lat="45.96278" lon="4.77319">
        <ele>219</ele>
        <time>2018-07-10T10:06:30Z</time>
      </trkpt>
      <trkpt lat="45.96271" lon="4.77315">
        <ele>218</ele>
        <time>2018-07-10T10:06:31Z</time>
      </trkpt>
      <trkpt lat="45.96264" lon="4.77311">
        <ele>218</ele>
        <time>2018-07-10T10:06:32Z</time>
      </trkpt>
      <trkpt lat="45.96255" lon="4.77308">
        <ele>218</ele>
        <time>2018-07-10T10:06:33Z</time>
      </trkpt>
      <trkpt lat="45.96247" lon="4.77304">
        <ele>217</ele>
        <time>2018-07-10T10:06:34Z</time>
      </trkpt>
      <trkpt lat="45.96239" lon="4.77299">
        <ele>217</ele>
        <time>2018-07-10T10:06:35Z</time>
      </trkpt>
      <trkpt lat="45.96232" lon="4.77296">
        <ele>217</ele>
        <time>2018-07-10T10:06:36Z</time>
      </trkpt>
      <trkpt lat="45.96224" lon="4.77292">
        <ele>217</ele>
        <time>2018-07-10T10:06:37Z</time>
      </trkpt>
      <trkpt lat="45.96216" lon="4.77286">
        <ele>217</ele>
        <time>2018-07-10T10:06:38Z</time>
      </trkpt>
      <trkpt lat="45.96208" lon="4.77281">
        <ele>217</ele>
        <time>2018-07-10T10:06:39Z</time>
      </trkpt>
      <trkpt lat="45.96201" lon="4.77276">
        <ele>216</ele>
        <time>2018-07-10T10:06:40Z</time>
      </trkpt>
      <trkpt lat="45.96194" lon="4.77271">
        <ele>216</ele>
        <time>2018-07-10T10:06:41Z</time>
      </trkpt>
      <trkpt lat="45.96186" lon="4.77267">
        <ele>216</ele>
        <time>2018-07-10T10:06:42Z</time>
      </trkpt>
      <trkpt lat="45.96177" lon="4.77262">
        <ele>216</ele>
        <time>2018-07-10T10:06:43Z</time>
      </trkpt>
      <trkpt lat="45.96169" lon="4.77258">
        <ele>216</ele>
        <time>2018-07-10T10:06:44Z</time>
      </trkpt>
      <trkpt lat="45.96163" lon="4.77253">
        <ele>215</ele>
        <time>2018-07-10T10:06:45Z</time>
      </trkpt>
      <trkpt lat="45.96156" lon="4.7725">
        <ele>216</ele>
        <time>2018-07-10T10:06:46Z</time>
      </trkpt>
      <trkpt lat="45.96147" lon="4.77246">
        <ele>215</ele>
        <time>2018-07-10T10:06:47Z</time>
      </trkpt>
      <trkpt lat="45.96139" lon="4.77242">
        <ele>215</ele>
        <time>2018-07-10T10:06:48Z</time>
      </trkpt>
      <trkpt lat="45.96131" lon="4.77239">
        <ele>215</ele>
        <time>2018-07-10T10:06:49Z</time>
      </trkpt>
      <trkpt lat="45.96124" lon="4.77238">
        <ele>214</ele>
        <time>2018-07-10T10:06:50Z</time>
      </trkpt>
      <trkpt lat="45.96114" lon="4.77239">
        <ele>214</ele>
        <time>2018-07-10T10:06:51Z</time>
      </trkpt>
      <trkpt lat="45.96105" lon="4.7724">
        <ele>213</ele>
        <time>2018-07-10T10:06:52Z</time>
      </trkpt>
      <trkpt lat="45.96097" lon="4.7724">
        <ele>213</ele>
        <time>2018-07-10T10:06:53Z</time>
      </trkpt>
      <trkpt lat="45.96087" lon="4.7724">
        <ele>212</ele>
        <time>2018-07-10T10:06:54Z</time>
      </trkpt>
      <trkpt lat="45.96079" lon="4.7724">
        <ele>210</ele>
        <time>2018-07-10T10:06:55Z</time>
      </trkpt>
      <trkpt lat="45.9607" lon="4.77242">
        <ele>210</ele>
        <time>2018-07-10T10:06:56Z</time>
      </trkpt>
      <trkpt lat="45.9606" lon="4.77243">
        <ele>209</ele>
        <time>2018-07-10T10:06:57Z</time>
      </trkpt>
      <trkpt lat="45.9605" lon="4.77242">
        <ele>209</ele>
        <time>2018-07-10T10:06:58Z</time>
      </trkpt>
      <trkpt lat="45.96042" lon="4.7724">
        <ele>208</ele>
        <time>2018-07-10T10:06:59Z</time>
      </trkpt>
      <trkpt lat="45.96033" lon="4.77241">
        <ele>208</ele>
        <time>2018-07-10T10:07:00Z</time>
      </trkpt>
      <trkpt lat="45.96023" lon="4.77242">
        <ele>207</ele>
        <time>2018-07-10T10:07:01Z</time>
      </trkpt>
      <trkpt lat="45.96013" lon="4.77242">
        <ele>206</ele>
        <time>2018-07-10T10:07:02Z</time>
      </trkpt>
      <trkpt lat="45.96002" lon="4.77242">
        <ele>205</ele>
        <time>2018-07-10T10:07:03Z</time>
      </trkpt>
      <trkpt lat="45.95993" lon="4.77237">
        <ele>202</ele>
        <time>2018-07-10T10:07:04Z</time>
      </trkpt>
      <trkpt lat="45.95983" lon="4.77233">
        <ele>202</ele>
        <time>2018-07-10T10:07:05Z</time>
      </trkpt>
      <trkpt lat="45.95974" lon="4.77228">
        <ele>202</ele>
        <time>2018-07-10T10:07:06Z</time>
      </trkpt>
      <trkpt lat="45.95965" lon="4.77219">
        <ele>201</ele>
        <time>2018-07-10T10:07:07Z</time>
      </trkpt>
      <trkpt lat="45.95957" lon="4.77209">
        <ele>201</ele>
        <time>2018-07-10T10:07:08Z</time>
      </trkpt>
      <trkpt lat="45.95951" lon="4.77197">
        <ele>201</ele>
        <time>2018-07-10T10:07:09Z</time>
      </trkpt>
      <trkpt lat="45.95946" lon="4.77182">
        <ele>200</ele>
        <time>2018-07-10T10:07:10Z</time>
      </trkpt>
      <trkpt lat="45.95944" lon="4.77167">
        <ele>200</ele>
        <time>2018-07-10T10:07:11Z</time>
      </trkpt>
      <trkpt lat="45.95942" lon="4.77152">
        <ele>201</ele>
        <time>2018-07-10T10:07:12Z</time>
      </trkpt>
      <trkpt lat="45.9594" lon="4.77138">
        <ele>201</ele>
        <time>2018-07-10T10:07:13Z</time>
      </trkpt>
      <trkpt lat="45.9594" lon="4.77122">
        <ele>201</ele>
        <time>2018-07-10T10:07:14Z</time>
      </trkpt>
      <trkpt lat="45.95941" lon="4.77107">
        <ele>201</ele>
        <time>2018-07-10T10:07:15Z</time>
      </trkpt>
      <trkpt lat="45.95945" lon="4.77092">
        <ele>201</ele>
        <time>2018-07-10T10:07:16Z</time>
      </trkpt>
      <trkpt lat="45.95947" lon="4.77077">
        <ele>200</ele>
        <time>2018-07-10T10:07:17Z</time>
      </trkpt>
      <trkpt lat="45.95952" lon="4.77064">
        <ele>200</ele>
        <time>2018-07-10T10:07:18Z</time>
      </trkpt>
      <trkpt lat="45.95956" lon="4.77051">
        <ele>200</ele>
        <time>2018-07-10T10:07:19Z</time>
      </trkpt>
      <trkpt lat="45.9596" lon="4.77038">
        <ele>200</ele>
        <time>2018-07-10T10:07:20Z</time>
      </trkpt>
      <trkpt lat="45.95966" lon="4.77026">
        <ele>200</ele>
        <time>2018-07-10T10:07:21Z</time>
      </trkpt>
      <trkpt lat="45.95969" lon="4.77012">
        <ele>200</ele>
        <time>2018-07-10T10:07:22Z</time>
      </trkpt>
      <trkpt lat="45.95974" lon="4.77">
        <ele>197</ele>
        <time>2018-07-10T10:07:23Z</time>
      </trkpt>
      <trkpt lat="45.95978" lon="4.76986">
        <ele>197</ele>
        <time>2018-07-10T10:07:24Z</time>
      </trkpt>
      <trkpt lat="45.9598" lon="4.76974">
        <ele>197</ele>
        <time>2018-07-10T10:07:25Z</time>
      </trkpt>
      <trkpt lat="45.9598" lon="4.76962">
        <ele>196</ele>
        <time>2018-07-10T10:07:26Z</time>
      </trkpt>
      <trkpt lat="45.95977" lon="4.76947">
        <ele>196</ele>
        <time>2018-07-10T10:07:27Z</time>
      </trkpt>
      <trkpt lat="45.95971" lon="4.76936">
        <ele>195</ele>
        <time>2018-07-10T10:07:28Z</time>
      </trkpt>
      <trkpt lat="45.95966" lon="4.76926">
        <ele>195</ele>
        <time>2018-07-10T10:07:29Z</time>
      </trkpt>
      <trkpt lat="45.95958" lon="4.76917">
        <ele>195</ele>
        <time>2018-07-10T10:07:30Z</time>
      </trkpt>
      <trkpt lat="45.95952" lon="4.7691">
        <ele>193</ele>
        <time>2018-07-10T10:07:31Z</time>
      </trkpt>
      <trkpt lat="45.95943" lon="4.769">
        <ele>192</ele>
        <time>2018-07-10T10:07:32Z</time>
      </trkpt>
      <trkpt lat="45.95936" lon="4.76892">
        <ele>192</ele>
        <time>2018-07-10T10:07:33Z</time>
      </trkpt>
      <trkpt lat="45.95929" lon="4.76884">
        <ele>192</ele>
        <time>2018-07-10T10:07:34Z</time>
      </trkpt>
      <trkpt lat="45.95921" lon="4.76875">
        <ele>192</ele>
        <time>2018-07-10T10:07:35Z</time>
      </trkpt>
      <trkpt lat="45.95912" lon="4.76865">
        <ele>191</ele>
        <time>2018-07-10T10:07:36Z</time>
      </trkpt>
      <trkpt lat="45.95904" lon="4.76857">
        <ele>191</ele>
        <time>2018-07-10T10:07:37Z</time>
      </trkpt>
      <trkpt lat="45.95896" lon="4.76849">
        <ele>191</ele>
        <time>2018-07-10T10:07:38Z</time>
      </trkpt>
      <trkpt lat="45.95887" lon="4.76841">
        <ele>191</ele>
        <time>2018-07-10T10:07:39Z</time>
      </trkpt>
      <trkpt lat="45.95879" lon="4.76833">
        <ele>191</ele>
        <time>2018-07-10T10:07:40Z</time>
      </trkpt>
      <trkpt lat="45.95872" lon="4.76824">
        <ele>191</ele>
        <time>2018-07-10T10:07:41Z</time>
      </trkpt>
      <trkpt lat="45.95865" lon="4.76816">
        <ele>191</ele>
        <time>2018-07-10T10:07:42Z</time>
      </trkpt>
      <trkpt lat="45.95858" lon="4.76809">
        <ele>191</ele>
        <time>2018-07-10T10:07:43Z</time>
      </trkpt>
      <trkpt lat="45.95851" lon="4.76801">
        <ele>191</ele>
        <time>2018-07-10T10:07:44Z</time>
      </trkpt>
      <trkpt lat="45.95846" lon="4.76797">
        <ele>191</ele>
        <time>2018-07-10T10:07:45Z</time>
      </trkpt>
      <trkpt lat="45.9584" lon="4.76789">
        <ele>191</ele>
        <time>2018-07-10T10:07:46Z</time>
      </trkpt>
      <trkpt lat="45.95832" lon="4.7678">
        <ele>190</ele>
        <time>2018-07-10T10:07:47Z</time>
      </trkpt>
      <trkpt lat="45.95828" lon="4.76771">
        <ele>190</ele>
        <time>2018-07-10T10:07:48Z</time>
      </trkpt>
      <trkpt lat="45.95825" lon="4.7676">
        <ele>190</ele>
        <time>2018-07-10T10:07:49Z</time>
      </trkpt>
      <trkpt lat="45.95822" lon="4.76749">
        <ele>190</ele>
        <time>2018-07-10T10:07:50Z</time>
      </trkpt>
      <trkpt lat="45.95821" lon="4.76738">
        <ele>190</ele>
        <time>2018-07-10T10:07:51Z</time>
      </trkpt>
      <trkpt lat="45.95819" lon="4.76727">
        <ele>190</ele>
        <time>2018-07-10T10:07:52Z</time>
      </trkpt>
      <trkpt lat="45.95815" lon="4.76717">
        <ele>189</ele>
        <time>2018-07-10T10:07:53Z</time>
      </trkpt>
      <trkpt lat="45.95814" lon="4.76706">
        <ele>189</ele>
        <time>2018-07-10T10:07:54Z</time>
      </trkpt>
      <trkpt lat="45.95813" lon="4.76696">
        <ele>189</ele>
        <time>2018-07-10T10:07:55Z</time>
      </trkpt>
      <trkpt lat="45.95812" lon="4.76686">
        <ele>189</ele>
        <time>2018-07-10T10:07:56Z</time>
      </trkpt>
      <trkpt lat="45.9581" lon="4.76676">
        <ele>189</ele>
        <time>2018-07-10T10:07:57Z</time>
      </trkpt>
      <trkpt lat="45.95808" lon="4.76667">
        <ele>188</ele>
        <time>2018-07-10T10:07:58Z</time>
      </trkpt>
      <trkpt lat="45.95807" lon="4.76655">
        <ele>188</ele>
        <time>2018-07-10T10:07:59Z</time>
      </trkpt>
      <trkpt lat="45.95806" lon="4.76646">
        <ele>188</ele>
        <time>2018-07-10T10:08:00Z</time>
      </trkpt>
      <trkpt lat="45.95804" lon="4.76636">
        <ele>188</ele>
        <time>2018-07-10T10:08:01Z</time>
      </trkpt>
      <trkpt lat="45.95803" lon="4.76627">
        <ele>188</ele>
        <time>2018-07-10T10:08:02Z</time>
      </trkpt>
      <trkpt lat="45.95802" lon="4.76617">
        <ele>188</ele>
        <time>2018-07-10T10:08:03Z</time>
      </trkpt>
      <trkpt lat="45.95803" lon="4.76608">
        <ele>188</ele>
        <time>2018-07-10T10:08:04Z</time>
      </trkpt>
      <trkpt lat="45.95802" lon="4.766">
        <ele>187</ele>
        <time>2018-07-10T10:08:05Z</time>
      </trkpt>
      <trkpt lat="45.95803" lon="4.7659">
        <ele>187</ele>
        <time>2018-07-10T10:08:06Z</time>
      </trkpt>
      <trkpt lat="45.95801" lon="4.76581">
        <ele>187</ele>
        <time>2018-07-10T10:08:07Z</time>
      </trkpt>
      <trkpt lat="45.95802" lon="4.76571">
        <ele>187</ele>
        <time>2018-07-10T10:08:08Z</time>
      </trkpt>
      <trkpt lat="45.95803" lon="4.76562">
        <ele>187</ele>
        <time>2018-07-10T10:08:09Z</time>
      </trkpt>
      <trkpt lat="45.95802" lon="4.76553">
        <ele>187</ele>
        <time>2018-07-10T10:08:10Z</time>
      </trkpt>
      <trkpt lat="45.95799" lon="4.76542">
        <ele>187</ele>
        <time>2018-07-10T10:08:11Z</time>
      </trkpt>
      <trkpt lat="45.95797" lon="4.76533">
        <ele>187</ele>
        <time>2018-07-10T10:08:12Z</time>
      </trkpt>
      <trkpt lat="45.95794" lon="4.76521">
        <ele>187</ele>
        <time>2018-07-10T10:08:13Z</time>
      </trkpt>
      <trkpt lat="45.95792" lon="4.76511">
        <ele>187</ele>
        <time>2018-07-10T10:08:14Z</time>
      </trkpt>
      <trkpt lat="45.95792" lon="4.76503">
        <ele>187</ele>
        <time>2018-07-10T10:08:15Z</time>
      </trkpt>
      <trkpt lat="45.9579" lon="4.76492">
        <ele>186</ele>
        <time>2018-07-10T10:08:16Z</time>
      </trkpt>
      <trkpt lat="45.95787" lon="4.76482">
        <ele>186</ele>
        <time>2018-07-10T10:08:17Z</time>
      </trkpt>
      <trkpt lat="45.95787" lon="4.76472">
        <ele>186</ele>
        <time>2018-07-10T10:08:18Z</time>
      </trkpt>
      <trkpt lat="45.95786" lon="4.76462">
        <ele>186</ele>
        <time>2018-07-10T10:08:19Z</time>
      </trkpt>
      <trkpt lat="45.95782" lon="4.76448">
        <ele>186</ele>
        <time>2018-07-10T10:08:20Z</time>
      </trkpt>
      <trkpt lat="45.95781" lon="4.76438">
        <ele>186</ele>
        <time>2018-07-10T10:08:21Z</time>
      </trkpt>
      <trkpt lat="45.9578" lon="4.76431">
        <ele>186</ele>
        <time>2018-07-10T10:08:22Z</time>
      </trkpt>
      <trkpt lat="45.95777" lon="4.76421">
        <ele>186</ele>
        <time>2018-07-10T10:08:23Z</time>
      </trkpt>
      <trkpt lat="45.95776" lon="4.76411">
        <ele>186</ele>
        <time>2018-07-10T10:08:24Z</time>
      </trkpt>
      <trkpt lat="45.95773" lon="4.76402">
        <ele>186</ele>
        <time>2018-07-10T10:08:25Z</time>
      </trkpt>
      <trkpt lat="45.95773" lon="4.76392">
        <ele>186</ele>
        <time>2018-07-10T10:08:26Z</time>
      </trkpt>
      <trkpt lat="45.95772" lon="4.76383">
        <ele>186</ele>
        <time>2018-07-10T10:08:27Z</time>
      </trkpt>
      <trkpt lat="45.95771" lon="4.76374">
        <ele>186</ele>
        <time>2018-07-10T10:08:28Z</time>
      </trkpt>
      <trkpt lat="45.95772" lon="4.76366">
        <ele>186</ele>
        <time>2018-07-10T10:08:29Z</time>
      </trkpt>
      <trkpt lat="45.9577" lon="4.76356">
        <ele>186</ele>
        <time>2018-07-10T10:08:30Z</time>
      </trkpt>
      <trkpt lat="45.9577" lon="4.76348">
        <ele>186</ele>
        <time>2018-07-10T10:08:31Z</time>
      </trkpt>
      <trkpt lat="45.95771" lon="4.76339">
        <ele>186</ele>
        <time>2018-07-10T10:08:32Z</time>
      </trkpt>
      <trkpt lat="45.95771" lon="4.7633">
        <ele>185</ele>
        <time>2018-07-10T10:08:33Z</time>
      </trkpt>
      <trkpt lat="45.9577" lon="4.76321">
        <ele>185</ele>
        <time>2018-07-10T10:08:34Z</time>
      </trkpt>
      <trkpt lat="45.9577" lon="4.76312">
        <ele>185</ele>
        <time>2018-07-10T10:08:35Z</time>
      </trkpt>
      <trkpt lat="45.95769" lon="4.76302">
        <ele>186</ele>
        <time>2018-07-10T10:08:36Z</time>
      </trkpt>
      <trkpt lat="45.95769" lon="4.76293">
        <ele>186</ele>
        <time>2018-07-10T10:08:37Z</time>
      </trkpt>
      <trkpt lat="45.95769" lon="4.76285">
        <ele>186</ele>
        <time>2018-07-10T10:08:38Z</time>
      </trkpt>
      <trkpt lat="45.95766" lon="4.76276">
        <ele>186</ele>
        <time>2018-07-10T10:08:39Z</time>
      </trkpt>
      <trkpt lat="45.95766" lon="4.76267">
        <ele>185</ele>
        <time>2018-07-10T10:08:40Z</time>
      </trkpt>
      <trkpt lat="45.95765" lon="4.76258">
        <ele>185</ele>
        <time>2018-07-10T10:08:41Z</time>
      </trkpt>
      <trkpt lat="45.95764" lon="4.7625">
        <ele>185</ele>
        <time>2018-07-10T10:08:42Z</time>
      </trkpt>
      <trkpt lat="45.95764" lon="4.7624">
        <ele>185</ele>
        <time>2018-07-10T10:08:43Z</time>
      </trkpt>
      <trkpt lat="45.95764" lon="4.76231">
        <ele>186</ele>
        <time>2018-07-10T10:08:44Z</time>
      </trkpt>
      <trkpt lat="45.95764" lon="4.76221">
        <ele>186</ele>
        <time>2018-07-10T10:08:45Z</time>
      </trkpt>
      <trkpt lat="45.95764" lon="4.76212">
        <ele>186</ele>
        <time>2018-07-10T10:08:46Z</time>
      </trkpt>
      <trkpt lat="45.95764" lon="4.76203">
        <ele>186</ele>
        <time>2018-07-10T10:08:47Z</time>
      </trkpt>
      <trkpt lat="45.95763" lon="4.76193">
        <ele>186</ele>
        <time>2018-07-10T10:08:48Z</time>
      </trkpt>
      <trkpt lat="45.95763" lon="4.76184">
        <ele>186</ele>
        <time>2018-07-10T10:08:49Z</time>
      </trkpt>
      <trkpt lat="45.95761" lon="4.76174">
        <ele>185</ele>
        <time>2018-07-10T10:08:50Z</time>
      </trkpt>
      <trkpt lat="45.95761" lon="4.76164">
        <ele>186</ele>
        <time>2018-07-10T10:08:51Z</time>
      </trkpt>
      <trkpt lat="45.9576" lon="4.76155">
        <ele>186</ele>
        <time>2018-07-10T10:08:52Z</time>
      </trkpt>
      <trkpt lat="45.95758" lon="4.76145">
        <ele>186</ele>
        <time>2018-07-10T10:08:53Z</time>
      </trkpt>
      <trkpt lat="45.95754" lon="4.76136">
        <ele>186</ele>
        <time>2018-07-10T10:08:54Z</time>
      </trkpt>
      <trkpt lat="45.95754" lon="4.76127">
        <ele>186</ele>
        <time>2018-07-10T10:08:55Z</time>
      </trkpt>
      <trkpt lat="45.95752" lon="4.76117">
        <ele>186</ele>
        <time>2018-07-10T10:08:56Z</time>
      </trkpt>
      <trkpt lat="45.9575" lon="4.76109">
        <ele>186</ele>
        <time>2018-07-10T10:08:57Z</time>
      </trkpt>
      <trkpt lat="45.9575" lon="4.761">
        <ele>184</ele>
        <time>2018-07-10T10:08:58Z</time>
      </trkpt>
      <trkpt lat="45.95747" lon="4.76091">
        <ele>185</ele>
        <time>2018-07-10T10:08:59Z</time>
      </trkpt>
      <trkpt lat="45.95745" lon="4.76082">
        <ele>185</ele>
        <time>2018-07-10T10:09:00Z</time>
      </trkpt>
      <trkpt lat="45.95743" lon="4.76073">
        <ele>185</ele>
        <time>2018-07-10T10:09:01Z</time>
      </trkpt>
      <trkpt lat="45.95741" lon="4.76064">
        <ele>184</ele>
        <time>2018-07-10T10:09:02Z</time>
      </trkpt>
      <trkpt lat="45.95738" lon="4.76056">
        <ele>184</ele>
        <time>2018-07-10T10:09:03Z</time>
      </trkpt>
      <trkpt lat="45.95734" lon="4.76047">
        <ele>184</ele>
        <time>2018-07-10T10:09:04Z</time>
      </trkpt>
      <trkpt lat="45.95732" lon="4.76039">
        <ele>184</ele>
        <time>2018-07-10T10:09:05Z</time>
      </trkpt>
      <trkpt lat="45.95728" lon="4.76031">
        <ele>184</ele>
        <time>2018-07-10T10:09:06Z</time>
      </trkpt>
      <trkpt lat="45.95725" lon="4.76023">
        <ele>184</ele>
        <time>2018-07-10T10:09:07Z</time>
      </trkpt>
      <trkpt lat="45.95721" lon="4.76015">
        <ele>184</ele>
        <time>2018-07-10T10:09:08Z</time>
      </trkpt>
      <trkpt lat="45.95718" lon="4.76006">
        <ele>184</ele>
        <time>2018-07-10T10:09:09Z</time>
      </trkpt>
      <trkpt lat="45.95714" lon="4.75998">
        <ele>185</ele>
        <time>2018-07-10T10:09:10Z</time>
      </trkpt>
      <trkpt lat="45.95711" lon="4.75989">
        <ele>185</ele>
        <time>2018-07-10T10:09:11Z</time>
      </trkpt>
      <trkpt lat="45.95706" lon="4.75982">
        <ele>185</ele>
        <time>2018-07-10T10:09:12Z</time>
      </trkpt>
      <trkpt lat="45.95701" lon="4.75972">
        <ele>185</ele>
        <time>2018-07-10T10:09:13Z</time>
      </trkpt>
      <trkpt lat="45.95697" lon="4.75962">
        <ele>185</ele>
        <time>2018-07-10T10:09:14Z</time>
      </trkpt>
      <trkpt lat="45.95692" lon="4.75953">
        <ele>185</ele>
        <time>2018-07-10T10:09:15Z</time>
      </trkpt>
      <trkpt lat="45.95687" lon="4.75944">
        <ele>185</ele>
        <time>2018-07-10T10:09:16Z</time>
      </trkpt>
      <trkpt lat="45.95684" lon="4.75935">
        <ele>185</ele>
        <time>2018-07-10T10:09:17Z</time>
      </trkpt>
      <trkpt lat="45.95679" lon="4.75925">
        <ele>185</ele>
        <time>2018-07-10T10:09:18Z</time>
      </trkpt>
      <trkpt lat="45.95676" lon="4.75915">
        <ele>185</ele>
        <time>2018-07-10T10:09:19Z</time>
      </trkpt>
      <trkpt lat="45.95672" lon="4.75906">
        <ele>185</ele>
        <time>2018-07-10T10:09:20Z</time>
      </trkpt>
      <trkpt lat="45.95669" lon="4.75897">
        <ele>185</ele>
        <time>2018-07-10T10:09:21Z</time>
      </trkpt>
      <trkpt lat="45.95666" lon="4.75887">
        <ele>184</ele>
        <time>2018-07-10T10:09:22Z</time>
      </trkpt>
      <trkpt lat="45.95663" lon="4.75878">
        <ele>184</ele>
        <time>2018-07-10T10:09:23Z</time>
      </trkpt>
      <trkpt lat="45.9566" lon="4.75869">
        <ele>184</ele>
        <time>2018-07-10T10:09:24Z</time>
      </trkpt>
      <trkpt lat="45.95657" lon="4.75861">
        <ele>184</ele>
        <time>2018-07-10T10:09:25Z</time>
      </trkpt>
      <trkpt lat="45.95655" lon="4.75852">
        <ele>185</ele>
        <time>2018-07-10T10:09:26Z</time>
      </trkpt>
      <trkpt lat="45.95652" lon="4.75845">
        <ele>185</ele>
        <time>2018-07-10T10:09:27Z</time>
      </trkpt>
      <trkpt lat="45.9565" lon="4.75836">
        <ele>185</ele>
        <time>2018-07-10T10:09:28Z</time>
      </trkpt>
      <trkpt lat="45.95649" lon="4.75827">
        <ele>185</ele>
        <time>2018-07-10T10:09:29Z</time>
      </trkpt>
      <trkpt lat="45.95648" lon="4.75818">
        <ele>185</ele>
        <time>2018-07-10T10:09:30Z</time>
      </trkpt>
      <trkpt lat="45.95647" lon="4.75809">
        <ele>185</ele>
        <time>2018-07-10T10:09:31Z</time>
      </trkpt>
      <trkpt lat="45.95644" lon="4.758">
        <ele>185</ele>
        <time>2018-07-10T10:09:32Z</time>
      </trkpt>
      <trkpt lat="45.95643" lon="4.75791">
        <ele>185</ele>
        <time>2018-07-10T10:09:33Z</time>
      </trkpt>
      <trkpt lat="45.95642" lon="4.75783">
        <ele>186</ele>
        <time>2018-07-10T10:09:34Z</time>
      </trkpt>
      <trkpt lat="45.95642" lon="4.75774">
        <ele>186</ele>
        <time>2018-07-10T10:09:35Z</time>
      </trkpt>
      <trkpt lat="45.95641" lon="4.75764">
        <ele>186</ele>
        <time>2018-07-10T10:09:36Z</time>
      </trkpt>
      <trkpt lat="45.9564" lon="4.75756">
        <ele>186</ele>
        <time>2018-07-10T10:09:37Z</time>
      </trkpt>
      <trkpt lat="45.95639" lon="4.75748">
        <ele>187</ele>
        <time>2018-07-10T10:09:38Z</time>
      </trkpt>
      <trkpt lat="45.95637" lon="4.75738">
        <ele>187</ele>
        <time>2018-07-10T10:09:39Z</time>
      </trkpt>
      <trkpt lat="45.95636" lon="4.7573">
        <ele>187</ele>
        <time>2018-07-10T10:09:40Z</time>
      </trkpt>
      <trkpt lat="45.95636" lon="4.75722">
        <ele>187</ele>
        <time>2018-07-10T10:09:41Z</time>
      </trkpt>
      <trkpt lat="45.95635" lon="4.75713">
        <ele>187</ele>
        <time>2018-07-10T10:09:42Z</time>
      </trkpt>
      <trkpt lat="45.95634" lon="4.75704">
        <ele>187</ele>
        <time>2018-07-10T10:09:43Z</time>
      </trkpt>
      <trkpt lat="45.95632" lon="4.75696">
        <ele>187</ele>
        <time>2018-07-10T10:09:44Z</time>
      </trkpt>
      <trkpt lat="45.9563" lon="4.75687">
        <ele>187</ele>
        <time>2018-07-10T10:09:45Z</time>
      </trkpt>
      <trkpt lat="45.95629" lon="4.75678">
        <ele>187</ele>
        <time>2018-07-10T10:09:46Z</time>
      </trkpt>
      <trkpt lat="45.95626" lon="4.75668">
        <ele>187</ele>
        <time>2018-07-10T10:09:47Z</time>
      </trkpt>
      <trkpt lat="45.95625" lon="4.75658">
        <ele>188</ele>
        <time>2018-07-10T10:09:48Z</time>
      </trkpt>
      <trkpt lat="45.95623" lon="4.7565">
        <ele>188</ele>
        <time>2018-07-10T10:09:49Z</time>
      </trkpt>
      <trkpt lat="45.95622" lon="4.75642">
        <ele>188</ele>
        <time>2018-07-10T10:09:50Z</time>
      </trkpt>
      <trkpt lat="45.95619" lon="4.75634">
        <ele>188</ele>
        <time>2018-07-10T10:09:51Z</time>
      </trkpt>
      <trkpt lat="45.95617" lon="4.75626">
        <ele>188</ele>
        <time>2018-07-10T10:09:52Z</time>
      </trkpt>
      <trkpt lat="45.95615" lon="4.75618">
        <ele>188</ele>
        <time>2018-07-10T10:09:53Z</time>
      </trkpt>
      <trkpt lat="45.95613" lon="4.7561">
        <ele>188</ele>
        <time>2018-07-10T10:09:54Z</time>
      </trkpt>
      <trkpt lat="45.9561" lon="4.75603">
        <ele>188</ele>
        <time>2018-07-10T10:09:55Z</time>
      </trkpt>
      <trkpt lat="45.95604" lon="4.75595">
        <ele>187</ele>
        <time>2018-07-10T10:09:56Z</time>
      </trkpt>
      <trkpt lat="45.956" lon="4.75586">
        <ele>187</ele>
        <time>2018-07-10T10:09:57Z</time>
      </trkpt>
      <trkpt lat="45.95596" lon="4.75579">
        <ele>187</ele>
        <time>2018-07-10T10:09:58Z</time>
      </trkpt>
      <trkpt lat="45.95592" lon="4.75571">
        <ele>188</ele>
        <time>2018-07-10T10:09:59Z</time>
      </trkpt>
      <trkpt lat="45.95589" lon="4.75565">
        <ele>188</ele>
        <time>2018-07-10T10:10:00Z</time>
      </trkpt>
      <trkpt lat="45.95586" lon="4.75558">
        <ele>188</ele>
        <time>2018-07-10T10:10:01Z</time>
      </trkpt>
      <trkpt lat="45.95581" lon="4.75551">
        <ele>186</ele>
        <time>2018-07-10T10:10:02Z</time>
      </trkpt>
      <trkpt lat="45.95577" lon="4.75547">
        <ele>186</ele>
        <time>2018-07-10T10:10:03Z</time>
      </trkpt>
      <trkpt lat="45.95572" lon="4.7554">
        <ele>186</ele>
        <time>2018-07-10T10:10:04Z</time>
      </trkpt>
      <trkpt lat="45.95565" lon="4.75534">
        <ele>186</ele>
        <time>2018-07-10T10:10:05Z</time>
      </trkpt>
      <trkpt lat="45.9556" lon="4.75529">
        <ele>186</ele>
        <time>2018-07-10T10:10:06Z</time>
      </trkpt>
      <trkpt lat="45.95555" lon="4.75524">
        <ele>186</ele>
        <time>2018-07-10T10:10:07Z</time>
      </trkpt>
      <trkpt lat="45.9555" lon="4.75517">
        <ele>186</ele>
        <time>2018-07-10T10:10:08Z</time>
      </trkpt>
      <trkpt lat="45.95546" lon="4.7551">
        <ele>186</ele>
        <time>2018-07-10T10:10:09Z</time>
      </trkpt>
      <trkpt lat="45.95542" lon="4.75505">
        <ele>186</ele>
        <time>2018-07-10T10:10:10Z</time>
      </trkpt>
      <trkpt lat="45.95541" lon="4.75497">
        <ele>187</ele>
        <time>2018-07-10T10:10:13Z</time>
      </trkpt>
      <trkpt lat="45.95542" lon="4.75486">
        <ele>187</ele>
        <time>2018-07-10T10:10:14Z</time>
      </trkpt>
      <trkpt lat="45.95542" lon="4.75475">
        <ele>187</ele>
        <time>2018-07-10T10:10:16Z</time>
      </trkpt>
      <trkpt lat="45.95541" lon="4.7547">
        <ele>187</ele>
        <time>2018-07-10T10:10:17Z</time>
      </trkpt>
      <trkpt lat="45.95538" lon="4.75458">
        <ele>187</ele>
        <time>2018-07-10T10:10:19Z</time>
      </trkpt>
      <trkpt lat="45.95532" lon="4.75452">
        <ele>187</ele>
        <time>2018-07-10T10:10:20Z</time>
      </trkpt>
      <trkpt lat="45.95529" lon="4.75447">
        <ele>187</ele>
        <time>2018-07-10T10:10:21Z</time>
      </trkpt>
      <trkpt lat="45.95525" lon="4.75441">
        <ele>187</ele>
        <time>2018-07-10T10:10:22Z</time>
      </trkpt>
      <trkpt lat="45.95521" lon="4.75435">
        <ele>187</ele>
        <time>2018-07-10T10:10:23Z</time>
      </trkpt>
      <trkpt lat="45.95517" lon="4.75426">
        <ele>186</ele>
        <time>2018-07-10T10:10:24Z</time>
      </trkpt>
      <trkpt lat="45.95514" lon="4.75421">
        <ele>186</ele>
        <time>2018-07-10T10:10:25Z</time>
      </trkpt>
      <trkpt lat="45.95511" lon="4.75415">
        <ele>187</ele>
        <time>2018-07-10T10:10:26Z</time>
      </trkpt>
      <trkpt lat="45.95508" lon="4.75406">
        <ele>187</ele>
        <time>2018-07-10T10:10:27Z</time>
      </trkpt>
      <trkpt lat="45.95506" lon="4.75398">
        <ele>187</ele>
        <time>2018-07-10T10:10:28Z</time>
      </trkpt>
      <trkpt lat="45.95503" lon="4.7539">
        <ele>188</ele>
        <time>2018-07-10T10:10:29Z</time>
      </trkpt>
      <trkpt lat="45.95501" lon="4.75383">
        <ele>188</ele>
        <time>2018-07-10T10:10:30Z</time>
      </trkpt>
      <trkpt lat="45.95498" lon="4.75376">
        <ele>185</ele>
        <time>2018-07-10T10:10:31Z</time>
      </trkpt>
      <trkpt lat="45.95495" lon="4.75369">
        <ele>186</ele>
        <time>2018-07-10T10:10:32Z</time>
      </trkpt>
      <trkpt lat="45.95491" lon="4.75361">
        <ele>186</ele>
        <time>2018-07-10T10:10:33Z</time>
      </trkpt>
      <trkpt lat="45.95487" lon="4.75354">
        <ele>186</ele>
        <time>2018-07-10T10:10:34Z</time>
      </trkpt>
      <trkpt lat="45.95485" lon="4.75346">
        <ele>186</ele>
        <time>2018-07-10T10:10:35Z</time>
      </trkpt>
      <trkpt lat="45.95481" lon="4.75341">
        <ele>186</ele>
        <time>2018-07-10T10:10:36Z</time>
      </trkpt>
      <trkpt lat="45.95478" lon="4.75335">
        <ele>186</ele>
        <time>2018-07-10T10:10:37Z</time>
      </trkpt>
      <trkpt lat="45.95474" lon="4.75328">
        <ele>188</ele>
        <time>2018-07-10T10:10:38Z</time>
      </trkpt>
      <trkpt lat="45.95469" lon="4.75322">
        <ele>188</ele>
        <time>2018-07-10T10:10:39Z</time>
      </trkpt>
      <trkpt lat="45.95465" lon="4.75315">
        <ele>188</ele>
        <time>2018-07-10T10:10:40Z</time>
      </trkpt>
      <trkpt lat="45.95463" lon="4.75308">
        <ele>188</ele>
        <time>2018-07-10T10:10:41Z</time>
      </trkpt>
      <trkpt lat="45.95459" lon="4.75302">
        <ele>188</ele>
        <time>2018-07-10T10:10:42Z</time>
      </trkpt>
      <trkpt lat="45.95456" lon="4.75295">
        <ele>188</ele>
        <time>2018-07-10T10:10:43Z</time>
      </trkpt>
      <trkpt lat="45.95451" lon="4.75288">
        <ele>188</ele>
        <time>2018-07-10T10:10:44Z</time>
      </trkpt>
      <trkpt lat="45.95447" lon="4.75283">
        <ele>188</ele>
        <time>2018-07-10T10:10:45Z</time>
      </trkpt>
      <trkpt lat="45.95444" lon="4.75278">
        <ele>189</ele>
        <time>2018-07-10T10:10:46Z</time>
      </trkpt>
      <trkpt lat="45.95441" lon="4.75271">
        <ele>189</ele>
        <time>2018-07-10T10:10:47Z</time>
      </trkpt>
      <trkpt lat="45.95438" lon="4.75263">
        <ele>189</ele>
        <time>2018-07-10T10:10:48Z</time>
      </trkpt>
      <trkpt lat="45.95434" lon="4.75256">
        <ele>189</ele>
        <time>2018-07-10T10:10:49Z</time>
      </trkpt>
      <trkpt lat="45.95431" lon="4.7525">
        <ele>189</ele>
        <time>2018-07-10T10:10:50Z</time>
      </trkpt>
      <trkpt lat="45.95429" lon="4.75244">
        <ele>190</ele>
        <time>2018-07-10T10:10:51Z</time>
      </trkpt>
      <trkpt lat="45.95426" lon="4.75237">
        <ele>190</ele>
        <time>2018-07-10T10:10:52Z</time>
      </trkpt>
      <trkpt lat="45.95421" lon="4.7523">
        <ele>190</ele>
        <time>2018-07-10T10:10:53Z</time>
      </trkpt>
      <trkpt lat="45.95417" lon="4.75223">
        <ele>191</ele>
        <time>2018-07-10T10:10:54Z</time>
      </trkpt>
      <trkpt lat="45.95414" lon="4.75216">
        <ele>189</ele>
        <time>2018-07-10T10:10:55Z</time>
      </trkpt>
      <trkpt lat="45.95411" lon="4.7521">
        <ele>189</ele>
        <time>2018-07-10T10:10:56Z</time>
      </trkpt>
      <trkpt lat="45.95407" lon="4.75203">
        <ele>189</ele>
        <time>2018-07-10T10:10:57Z</time>
      </trkpt>
      <trkpt lat="45.95403" lon="4.75196">
        <ele>189</ele>
        <time>2018-07-10T10:10:58Z</time>
      </trkpt>
      <trkpt lat="45.95399" lon="4.7519">
        <ele>189</ele>
        <time>2018-07-10T10:10:59Z</time>
      </trkpt>
      <trkpt lat="45.95398" lon="4.75183">
        <ele>189</ele>
        <time>2018-07-10T10:11:00Z</time>
      </trkpt>
      <trkpt lat="45.95394" lon="4.75178">
        <ele>189</ele>
        <time>2018-07-10T10:11:01Z</time>
      </trkpt>
      <trkpt lat="45.9539" lon="4.75172">
        <ele>189</ele>
        <time>2018-07-10T10:11:02Z</time>
      </trkpt>
      <trkpt lat="45.95387" lon="4.75167">
        <ele>191</ele>
        <time>2018-07-10T10:11:03Z</time>
      </trkpt>
      <trkpt lat="45.95383" lon="4.75161">
        <ele>191</ele>
        <time>2018-07-10T10:11:04Z</time>
      </trkpt>
      <trkpt lat="45.95381" lon="4.75156">
        <ele>191</ele>
        <time>2018-07-10T10:11:05Z</time>
      </trkpt>
      <trkpt lat="45.95378" lon="4.7515">
        <ele>191</ele>
        <time>2018-07-10T10:11:06Z</time>
      </trkpt>
      <trkpt lat="45.95374" lon="4.75143">
        <ele>191</ele>
        <time>2018-07-10T10:11:07Z</time>
      </trkpt>
      <trkpt lat="45.95371" lon="4.75138">
        <ele>191</ele>
        <time>2018-07-10T10:11:08Z</time>
      </trkpt>
      <trkpt lat="45.95367" lon="4.75131">
        <ele>191</ele>
        <time>2018-07-10T10:11:09Z</time>
      </trkpt>
      <trkpt lat="45.95364" lon="4.75124">
        <ele>191</ele>
        <time>2018-07-10T10:11:10Z</time>
      </trkpt>
      <trkpt lat="45.9536" lon="4.75118">
        <ele>192</ele>
        <time>2018-07-10T10:11:11Z</time>
      </trkpt>
      <trkpt lat="45.95356" lon="4.75113">
        <ele>192</ele>
        <time>2018-07-10T10:11:12Z</time>
      </trkpt>
      <trkpt lat="45.95352" lon="4.75107">
        <ele>192</ele>
        <time>2018-07-10T10:11:13Z</time>
      </trkpt>
      <trkpt lat="45.95348" lon="4.75101">
        <ele>192</ele>
        <time>2018-07-10T10:11:14Z</time>
      </trkpt>
      <trkpt lat="45.95344" lon="4.75096">
        <ele>192</ele>
        <time>2018-07-10T10:11:15Z</time>
      </trkpt>
      <trkpt lat="45.95341" lon="4.7509">
        <ele>192</ele>
        <time>2018-07-10T10:11:16Z</time>
      </trkpt>
      <trkpt lat="45.95336" lon="4.75084">
        <ele>193</ele>
        <time>2018-07-10T10:11:17Z</time>
      </trkpt>
      <trkpt lat="45.95331" lon="4.75077">
        <ele>193</ele>
        <time>2018-07-10T10:11:18Z</time>
      </trkpt>
      <trkpt lat="45.95327" lon="4.75071">
        <ele>192</ele>
        <time>2018-07-10T10:11:19Z</time>
      </trkpt>
      <trkpt lat="45.95324" lon="4.75065">
        <ele>192</ele>
        <time>2018-07-10T10:11:20Z</time>
      </trkpt>
      <trkpt lat="45.9532" lon="4.75058">
        <ele>192</ele>
        <time>2018-07-10T10:11:21Z</time>
      </trkpt>
      <trkpt lat="45.95315" lon="4.7505">
        <ele>192</ele>
        <time>2018-07-10T10:11:22Z</time>
      </trkpt>
      <trkpt lat="45.95311" lon="4.75043">
        <ele>192</ele>
        <time>2018-07-10T10:11:23Z</time>
      </trkpt>
      <trkpt lat="45.95306" lon="4.75037">
        <ele>192</ele>
        <time>2018-07-10T10:11:24Z</time>
      </trkpt>
      <trkpt lat="45.95301" lon="4.75031">
        <ele>192</ele>
        <time>2018-07-10T10:11:25Z</time>
      </trkpt>
      <trkpt lat="45.95298" lon="4.75025">
        <ele>192</ele>
        <time>2018-07-10T10:11:26Z</time>
      </trkpt>
      <trkpt lat="45.95294" lon="4.75019">
        <ele>191</ele>
        <time>2018-07-10T10:11:27Z</time>
      </trkpt>
      <trkpt lat="45.9529" lon="4.75013">
        <ele>191</ele>
        <time>2018-07-10T10:11:28Z</time>
      </trkpt>
      <trkpt lat="45.95287" lon="4.75008">
        <ele>191</ele>
        <time>2018-07-10T10:11:29Z</time>
      </trkpt>
      <trkpt lat="45.95284" lon="4.75001">
        <ele>191</ele>
        <time>2018-07-10T10:11:30Z</time>
      </trkpt>
      <trkpt lat="45.9528" lon="4.74993">
        <ele>192</ele>
        <time>2018-07-10T10:11:31Z</time>
      </trkpt>
      <trkpt lat="45.95277" lon="4.74987">
        <ele>192</ele>
        <time>2018-07-10T10:11:32Z</time>
      </trkpt>
      <trkpt lat="45.95274" lon="4.7498">
        <ele>192</ele>
        <time>2018-07-10T10:11:33Z</time>
      </trkpt>
      <trkpt lat="45.95269" lon="4.74973">
        <ele>192</ele>
        <time>2018-07-10T10:11:34Z</time>
      </trkpt>
      <trkpt lat="45.95264" lon="4.74966">
        <ele>192</ele>
        <time>2018-07-10T10:11:35Z</time>
      </trkpt>
      <trkpt lat="45.9526" lon="4.74959">
        <ele>192</ele>
        <time>2018-07-10T10:11:36Z</time>
      </trkpt>
      <trkpt lat="45.95257" lon="4.74953">
        <ele>192</ele>
        <time>2018-07-10T10:11:37Z</time>
      </trkpt>
      <trkpt lat="45.95252" lon="4.74948">
        <ele>192</ele>
        <time>2018-07-10T10:11:38Z</time>
      </trkpt>
      <trkpt lat="45.95249" lon="4.74943">
        <ele>192</ele>
        <time>2018-07-10T10:11:39Z</time>
      </trkpt>
      <trkpt lat="45.95245" lon="4.74939">
        <ele>192</ele>
        <time>2018-07-10T10:11:40Z</time>
      </trkpt>
      <trkpt lat="45.95241" lon="4.74932">
        <ele>192</ele>
        <time>2018-07-10T10:11:41Z</time>
      </trkpt>
      <trkpt lat="45.95237" lon="4.74926">
        <ele>192</ele>
        <time>2018-07-10T10:11:42Z</time>
      </trkpt>
      <trkpt lat="45.95232" lon="4.7492">
        <ele>192</ele>
        <time>2018-07-10T10:11:43Z</time>
      </trkpt>
      <trkpt lat="45.95228" lon="4.74913">
        <ele>193</ele>
        <time>2018-07-10T10:11:44Z</time>
      </trkpt>
      <trkpt lat="45.95224" lon="4.74908">
        <ele>193</ele>
        <time>2018-07-10T10:11:45Z</time>
      </trkpt>
      <trkpt lat="45.95219" lon="4.74901">
        <ele>193</ele>
        <time>2018-07-10T10:11:46Z</time>
      </trkpt>
      <trkpt lat="45.95216" lon="4.74894">
        <ele>193</ele>
        <time>2018-07-10T10:11:47Z</time>
      </trkpt>
      <trkpt lat="45.95211" lon="4.74888">
        <ele>193</ele>
        <time>2018-07-10T10:11:48Z</time>
      </trkpt>
      <trkpt lat="45.95205" lon="4.7488">
        <ele>194</ele>
        <time>2018-07-10T10:11:49Z</time>
      </trkpt>
      <trkpt lat="45.952" lon="4.74874">
        <ele>194</ele>
        <time>2018-07-10T10:11:50Z</time>
      </trkpt>
      <trkpt lat="45.95196" lon="4.74867">
        <ele>194</ele>
        <time>2018-07-10T10:11:51Z</time>
      </trkpt>
      <trkpt lat="45.95193" lon="4.74858">
        <ele>194</ele>
        <time>2018-07-10T10:11:52Z</time>
      </trkpt>
      <trkpt lat="45.95188" lon="4.74852">
        <ele>194</ele>
        <time>2018-07-10T10:11:53Z</time>
      </trkpt>
      <trkpt lat="45.95182" lon="4.74846">
        <ele>194</ele>
        <time>2018-07-10T10:11:54Z</time>
      </trkpt>
      <trkpt lat="45.95176" lon="4.74841">
        <ele>194</ele>
        <time>2018-07-10T10:11:55Z</time>
      </trkpt>
      <trkpt lat="45.95172" lon="4.74834">
        <ele>194</ele>
        <time>2018-07-10T10:11:56Z</time>
      </trkpt>
      <trkpt lat="45.95168" lon="4.74828">
        <ele>194</ele>
        <time>2018-07-10T10:11:57Z</time>
      </trkpt>
      <trkpt lat="45.95161" lon="4.74821">
        <ele>194</ele>
        <time>2018-07-10T10:11:58Z</time>
      </trkpt>
      <trkpt lat="45.95156" lon="4.74815">
        <ele>194</ele>
        <time>2018-07-10T10:11:59Z</time>
      </trkpt>
      <trkpt lat="45.95153" lon="4.74809">
        <ele>194</ele>
        <time>2018-07-10T10:12:00Z</time>
      </trkpt>
      <trkpt lat="45.95149" lon="4.74802">
        <ele>194</ele>
        <time>2018-07-10T10:12:01Z</time>
      </trkpt>
      <trkpt lat="45.95146" lon="4.74796">
        <ele>194</ele>
        <time>2018-07-10T10:12:02Z</time>
      </trkpt>
      <trkpt lat="45.95142" lon="4.74789">
        <ele>194</ele>
        <time>2018-07-10T10:12:03Z</time>
      </trkpt>
      <trkpt lat="45.95137" lon="4.74781">
        <ele>194</ele>
        <time>2018-07-10T10:12:04Z</time>
      </trkpt>
      <trkpt lat="45.95133" lon="4.74774">
        <ele>194</ele>
        <time>2018-07-10T10:12:05Z</time>
      </trkpt>
      <trkpt lat="45.95128" lon="4.74769">
        <ele>194</ele>
        <time>2018-07-10T10:12:06Z</time>
      </trkpt>
      <trkpt lat="45.95124" lon="4.74763">
        <ele>194</ele>
        <time>2018-07-10T10:12:07Z</time>
      </trkpt>
      <trkpt lat="45.95121" lon="4.74756">
        <ele>194</ele>
        <time>2018-07-10T10:12:08Z</time>
      </trkpt>
      <trkpt lat="45.95118" lon="4.74748">
        <ele>194</ele>
        <time>2018-07-10T10:12:09Z</time>
      </trkpt>
      <trkpt lat="45.95114" lon="4.74741">
        <ele>194</ele>
        <time>2018-07-10T10:12:10Z</time>
      </trkpt>
      <trkpt lat="45.95111" lon="4.74734">
        <ele>194</ele>
        <time>2018-07-10T10:12:11Z</time>
      </trkpt>
      <trkpt lat="45.95108" lon="4.74726">
        <ele>194</ele>
        <time>2018-07-10T10:12:12Z</time>
      </trkpt>
      <trkpt lat="45.95105" lon="4.74719">
        <ele>194</ele>
        <time>2018-07-10T10:12:13Z</time>
      </trkpt>
      <trkpt lat="45.95103" lon="4.74713">
        <ele>194</ele>
        <time>2018-07-10T10:12:14Z</time>
      </trkpt>
      <trkpt lat="45.95098" lon="4.74708">
        <ele>194</ele>
        <time>2018-07-10T10:12:15Z</time>
      </trkpt>
      <trkpt lat="45.95095" lon="4.74702">
        <ele>194</ele>
        <time>2018-07-10T10:12:16Z</time>
      </trkpt>
      <trkpt lat="45.9509" lon="4.74696">
        <ele>194</ele>
        <time>2018-07-10T10:12:17Z</time>
      </trkpt>
      <trkpt lat="45.95087" lon="4.74691">
        <ele>195</ele>
        <time>2018-07-10T10:12:18Z</time>
      </trkpt>
      <trkpt lat="45.95082" lon="4.74684">
        <ele>194</ele>
        <time>2018-07-10T10:12:19Z</time>
      </trkpt>
      <trkpt lat="45.95078" lon="4.74679">
        <ele>194</ele>
        <time>2018-07-10T10:12:20Z</time>
      </trkpt>
      <trkpt lat="45.95076" lon="4.74671">
        <ele>195</ele>
        <time>2018-07-10T10:12:21Z</time>
      </trkpt>
      <trkpt lat="45.95073" lon="4.74666">
        <ele>195</ele>
        <time>2018-07-10T10:12:22Z</time>
      </trkpt>
      <trkpt lat="45.95069" lon="4.74661">
        <ele>195</ele>
        <time>2018-07-10T10:12:23Z</time>
      </trkpt>
      <trkpt lat="45.95066" lon="4.74655">
        <ele>195</ele>
        <time>2018-07-10T10:12:24Z</time>
      </trkpt>
      <trkpt lat="45.95064" lon="4.74649">
        <ele>195</ele>
        <time>2018-07-10T10:12:25Z</time>
      </trkpt>
      <trkpt lat="45.95061" lon="4.74643">
        <ele>194</ele>
        <time>2018-07-10T10:12:26Z</time>
      </trkpt>
      <trkpt lat="45.95057" lon="4.74638">
        <ele>194</ele>
        <time>2018-07-10T10:12:27Z</time>
      </trkpt>
      <trkpt lat="45.95053" lon="4.74631">
        <ele>194</ele>
        <time>2018-07-10T10:12:28Z</time>
      </trkpt>
      <trkpt lat="45.95049" lon="4.74624">
        <ele>194</ele>
        <time>2018-07-10T10:12:29Z</time>
      </trkpt>
      <trkpt lat="45.95042" lon="4.74617">
        <ele>194</ele>
        <time>2018-07-10T10:12:30Z</time>
      </trkpt>
      <trkpt lat="45.95038" lon="4.7461">
        <ele>194</ele>
        <time>2018-07-10T10:12:31Z</time>
      </trkpt>
      <trkpt lat="45.95035" lon="4.74602">
        <ele>194</ele>
        <time>2018-07-10T10:12:32Z</time>
      </trkpt>
      <trkpt lat="45.95031" lon="4.74594">
        <ele>194</ele>
        <time>2018-07-10T10:12:33Z</time>
      </trkpt>
      <trkpt lat="45.95027" lon="4.74585">
        <ele>194</ele>
        <time>2018-07-10T10:12:34Z</time>
      </trkpt>
      <trkpt lat="45.95024" lon="4.74578">
        <ele>194</ele>
        <time>2018-07-10T10:12:35Z</time>
      </trkpt>
      <trkpt lat="45.95019" lon="4.7457">
        <ele>194</ele>
        <time>2018-07-10T10:12:36Z</time>
      </trkpt>
      <trkpt lat="45.95016" lon="4.74563">
        <ele>194</ele>
        <time>2018-07-10T10:12:37Z</time>
      </trkpt>
      <trkpt lat="45.95011" lon="4.74554">
        <ele>194</ele>
        <time>2018-07-10T10:12:38Z</time>
      </trkpt>
      <trkpt lat="45.95005" lon="4.74546">
        <ele>194</ele>
        <time>2018-07-10T10:12:39Z</time>
      </trkpt>
      <trkpt lat="45.95001" lon="4.74538">
        <ele>194</ele>
        <time>2018-07-10T10:12:40Z</time>
      </trkpt>
      <trkpt lat="45.94997" lon="4.74529">
        <ele>193</ele>
        <time>2018-07-10T10:12:41Z</time>
      </trkpt>
      <trkpt lat="45.94992" lon="4.7452">
        <ele>193</ele>
        <time>2018-07-10T10:12:42Z</time>
      </trkpt>
      <trkpt lat="45.94988" lon="4.74513">
        <ele>193</ele>
        <time>2018-07-10T10:12:43Z</time>
      </trkpt>
      <trkpt lat="45.94983" lon="4.74503">
        <ele>193</ele>
        <time>2018-07-10T10:12:44Z</time>
      </trkpt>
      <trkpt lat="45.94979" lon="4.74494">
        <ele>193</ele>
        <time>2018-07-10T10:12:45Z</time>
      </trkpt>
      <trkpt lat="45.94976" lon="4.74485">
        <ele>193</ele>
        <time>2018-07-10T10:12:46Z</time>
      </trkpt>
      <trkpt lat="45.94971" lon="4.74476">
        <ele>193</ele>
        <time>2018-07-10T10:12:47Z</time>
      </trkpt>
      <trkpt lat="45.94969" lon="4.74469">
        <ele>193</ele>
        <time>2018-07-10T10:12:48Z</time>
      </trkpt>
      <trkpt lat="45.94965" lon="4.7446">
        <ele>193</ele>
        <time>2018-07-10T10:12:49Z</time>
      </trkpt>
      <trkpt lat="45.94961" lon="4.74451">
        <ele>192</ele>
        <time>2018-07-10T10:12:50Z</time>
      </trkpt>
      <trkpt lat="45.94956" lon="4.74442">
        <ele>192</ele>
        <time>2018-07-10T10:12:51Z</time>
      </trkpt>
      <trkpt lat="45.94951" lon="4.74433">
        <ele>192</ele>
        <time>2018-07-10T10:12:52Z</time>
      </trkpt>
      <trkpt lat="45.94946" lon="4.74423">
        <ele>192</ele>
        <time>2018-07-10T10:12:53Z</time>
      </trkpt>
      <trkpt lat="45.94939" lon="4.74412">
        <ele>192</ele>
        <time>2018-07-10T10:12:54Z</time>
      </trkpt>
      <trkpt lat="45.94935" lon="4.74402">
        <ele>192</ele>
        <time>2018-07-10T10:12:55Z</time>
      </trkpt>
      <trkpt lat="45.94931" lon="4.74392">
        <ele>192</ele>
        <time>2018-07-10T10:12:56Z</time>
      </trkpt>
      <trkpt lat="45.94928" lon="4.74383">
        <ele>192</ele>
        <time>2018-07-10T10:12:57Z</time>
      </trkpt>
      <trkpt lat="45.94923" lon="4.74373">
        <ele>192</ele>
        <time>2018-07-10T10:12:58Z</time>
      </trkpt>
      <trkpt lat="45.94918" lon="4.74363">
        <ele>192</ele>
        <time>2018-07-10T10:12:59Z</time>
      </trkpt>
      <trkpt lat="45.94913" lon="4.74353">
        <ele>191</ele>
        <time>2018-07-10T10:13:00Z</time>
      </trkpt>
      <trkpt lat="45.94905" lon="4.74343">
        <ele>191</ele>
        <time>2018-07-10T10:13:01Z</time>
      </trkpt>
      <trkpt lat="45.949" lon="4.74333">
        <ele>191</ele>
        <time>2018-07-10T10:13:02Z</time>
      </trkpt>
      <trkpt lat="45.94895" lon="4.74325">
        <ele>191</ele>
        <time>2018-07-10T10:13:03Z</time>
      </trkpt>
      <trkpt lat="45.94891" lon="4.74316">
        <ele>191</ele>
        <time>2018-07-10T10:13:04Z</time>
      </trkpt>
      <trkpt lat="45.94886" lon="4.74308">
        <ele>191</ele>
        <time>2018-07-10T10:13:05Z</time>
      </trkpt>
      <trkpt lat="45.94881" lon="4.743">
        <ele>191</ele>
        <time>2018-07-10T10:13:06Z</time>
      </trkpt>
      <trkpt lat="45.94878" lon="4.74293">
        <ele>191</ele>
        <time>2018-07-10T10:13:07Z</time>
      </trkpt>
      <trkpt lat="45.94874" lon="4.74285">
        <ele>191</ele>
        <time>2018-07-10T10:13:08Z</time>
      </trkpt>
      <trkpt lat="45.94869" lon="4.74277">
        <ele>191</ele>
        <time>2018-07-10T10:13:09Z</time>
      </trkpt>
      <trkpt lat="45.94864" lon="4.7427">
        <ele>190</ele>
        <time>2018-07-10T10:13:10Z</time>
      </trkpt>
      <trkpt lat="45.94859" lon="4.74262">
        <ele>190</ele>
        <time>2018-07-10T10:13:11Z</time>
      </trkpt>
      <trkpt lat="45.94856" lon="4.74254">
        <ele>190</ele>
        <time>2018-07-10T10:13:12Z</time>
      </trkpt>
      <trkpt lat="45.94852" lon="4.74246">
        <ele>190</ele>
        <time>2018-07-10T10:13:13Z</time>
      </trkpt>
      <trkpt lat="45.9485" lon="4.74239">
        <ele>190</ele>
        <time>2018-07-10T10:13:14Z</time>
      </trkpt>
      <trkpt lat="45.94846" lon="4.7423">
        <ele>190</ele>
        <time>2018-07-10T10:13:15Z</time>
      </trkpt>
      <trkpt lat="45.94842" lon="4.74222">
        <ele>190</ele>
        <time>2018-07-10T10:13:16Z</time>
      </trkpt>
      <trkpt lat="45.94838" lon="4.74212">
        <ele>190</ele>
        <time>2018-07-10T10:13:17Z</time>
      </trkpt>
      <trkpt lat="45.94833" lon="4.74203">
        <ele>190</ele>
        <time>2018-07-10T10:13:18Z</time>
      </trkpt>
      <trkpt lat="45.94828" lon="4.74195">
        <ele>189</ele>
        <time>2018-07-10T10:13:19Z</time>
      </trkpt>
      <trkpt lat="45.94825" lon="4.74187">
        <ele>189</ele>
        <time>2018-07-10T10:13:20Z</time>
      </trkpt>
      <trkpt lat="45.94821" lon="4.74178">
        <ele>189</ele>
        <time>2018-07-10T10:13:21Z</time>
      </trkpt>
      <trkpt lat="45.94816" lon="4.74172">
        <ele>189</ele>
        <time>2018-07-10T10:13:22Z</time>
      </trkpt>
      <trkpt lat="45.9481" lon="4.74164">
        <ele>189</ele>
        <time>2018-07-10T10:13:23Z</time>
      </trkpt>
      <trkpt lat="45.94805" lon="4.74157">
        <ele>189</ele>
        <time>2018-07-10T10:13:24Z</time>
      </trkpt>
      <trkpt lat="45.94801" lon="4.74148">
        <ele>189</ele>
        <time>2018-07-10T10:13:25Z</time>
      </trkpt>
      <trkpt lat="45.94794" lon="4.74141">
        <ele>189</ele>
        <time>2018-07-10T10:13:26Z</time>
      </trkpt>
      <trkpt lat="45.94787" lon="4.74132">
        <ele>189</ele>
        <time>2018-07-10T10:13:27Z</time>
      </trkpt>
      <trkpt lat="45.94782" lon="4.74126">
        <ele>189</ele>
        <time>2018-07-10T10:13:28Z</time>
      </trkpt>
      <trkpt lat="45.94779" lon="4.7412">
        <ele>189</ele>
        <time>2018-07-10T10:13:29Z</time>
      </trkpt>
      <trkpt lat="45.94774" lon="4.74113">
        <ele>189</ele>
        <time>2018-07-10T10:13:30Z</time>
      </trkpt>
      <trkpt lat="45.94769" lon="4.74107">
        <ele>189</ele>
        <time>2018-07-10T10:13:31Z</time>
      </trkpt>
      <trkpt lat="45.94766" lon="4.741">
        <ele>189</ele>
        <time>2018-07-10T10:13:32Z</time>
      </trkpt>
      <trkpt lat="45.94759" lon="4.74093">
        <ele>189</ele>
        <time>2018-07-10T10:13:33Z</time>
      </trkpt>
      <trkpt lat="45.94754" lon="4.74086">
        <ele>189</ele>
        <time>2018-07-10T10:13:34Z</time>
      </trkpt>
      <trkpt lat="45.94748" lon="4.74077">
        <ele>189</ele>
        <time>2018-07-10T10:13:35Z</time>
      </trkpt>
      <trkpt lat="45.94743" lon="4.74069">
        <ele>188</ele>
        <time>2018-07-10T10:13:36Z</time>
      </trkpt>
      <trkpt lat="45.94737" lon="4.74063">
        <ele>188</ele>
        <time>2018-07-10T10:13:37Z</time>
      </trkpt>
      <trkpt lat="45.94732" lon="4.74056">
        <ele>188</ele>
        <time>2018-07-10T10:13:38Z</time>
      </trkpt>
      <trkpt lat="45.94727" lon="4.7405">
        <ele>188</ele>
        <time>2018-07-10T10:13:39Z</time>
      </trkpt>
      <trkpt lat="45.94723" lon="4.74043">
        <ele>187</ele>
        <time>2018-07-10T10:13:40Z</time>
      </trkpt>
      <trkpt lat="45.94718" lon="4.74036">
        <ele>187</ele>
        <time>2018-07-10T10:13:41Z</time>
      </trkpt>
      <trkpt lat="45.94713" lon="4.7403">
        <ele>187</ele>
        <time>2018-07-10T10:13:42Z</time>
      </trkpt>
      <trkpt lat="45.94709" lon="4.74025">
        <ele>187</ele>
        <time>2018-07-10T10:13:43Z</time>
      </trkpt>
      <trkpt lat="45.94705" lon="4.74018">
        <ele>187</ele>
        <time>2018-07-10T10:13:44Z</time>
      </trkpt>
      <trkpt lat="45.94701" lon="4.74012">
        <ele>187</ele>
        <time>2018-07-10T10:13:45Z</time>
      </trkpt>
      <trkpt lat="45.94697" lon="4.74005">
        <ele>187</ele>
        <time>2018-07-10T10:13:46Z</time>
      </trkpt>
      <trkpt lat="45.94693" lon="4.74">
        <ele>187</ele>
        <time>2018-07-10T10:13:47Z</time>
      </trkpt>
      <trkpt lat="45.94688" lon="4.73995">
        <ele>187</ele>
        <time>2018-07-10T10:13:48Z</time>
      </trkpt>
      <trkpt lat="45.94683" lon="4.73988">
        <ele>187</ele>
        <time>2018-07-10T10:13:49Z</time>
      </trkpt>
      <trkpt lat="45.9468" lon="4.73981">
        <ele>187</ele>
        <time>2018-07-10T10:13:50Z</time>
      </trkpt>
      <trkpt lat="45.94676" lon="4.73974">
        <ele>187</ele>
        <time>2018-07-10T10:13:51Z</time>
      </trkpt>
      <trkpt lat="45.94671" lon="4.73968">
        <ele>187</ele>
        <time>2018-07-10T10:13:52Z</time>
      </trkpt>
      <trkpt lat="45.94664" lon="4.73962">
        <ele>187</ele>
        <time>2018-07-10T10:13:53Z</time>
      </trkpt>
      <trkpt lat="45.94659" lon="4.73956">
        <ele>187</ele>
        <time>2018-07-10T10:13:54Z</time>
      </trkpt>
      <trkpt lat="45.94653" lon="4.73948">
        <ele>187</ele>
        <time>2018-07-10T10:13:55Z</time>
      </trkpt>
      <trkpt lat="45.94647" lon="4.73941">
        <ele>187</ele>
        <time>2018-07-10T10:13:56Z</time>
      </trkpt>
      <trkpt lat="45.94642" lon="4.73934">
        <ele>187</ele>
        <time>2018-07-10T10:13:57Z</time>
      </trkpt>
      <trkpt lat="45.94637" lon="4.73928">
        <ele>187</ele>
        <time>2018-07-10T10:13:58Z</time>
      </trkpt>
      <trkpt lat="45.94632" lon="4.73921">
        <ele>187</ele>
        <time>2018-07-10T10:13:59Z</time>
      </trkpt>
      <trkpt lat="45.94627" lon="4.73915">
        <ele>187</ele>
        <time>2018-07-10T10:14:00Z</time>
      </trkpt>
      <trkpt lat="45.94622" lon="4.73909">
        <ele>187</ele>
        <time>2018-07-10T10:14:01Z</time>
      </trkpt>
      <trkpt lat="45.94617" lon="4.73902">
        <ele>187</ele>
        <time>2018-07-10T10:14:02Z</time>
      </trkpt>
      <trkpt lat="45.94612" lon="4.73896">
        <ele>187</ele>
        <time>2018-07-10T10:14:03Z</time>
      </trkpt>
      <trkpt lat="45.94607" lon="4.73891">
        <ele>187</ele>
        <time>2018-07-10T10:14:04Z</time>
      </trkpt>
      <trkpt lat="45.94602" lon="4.73883">
        <ele>187</ele>
        <time>2018-07-10T10:14:05Z</time>
      </trkpt>
      <trkpt lat="45.94598" lon="4.73877">
        <ele>187</ele>
        <time>2018-07-10T10:14:06Z</time>
      </trkpt>
      <trkpt lat="45.94592" lon="4.73871">
        <ele>187</ele>
        <time>2018-07-10T10:14:07Z</time>
      </trkpt>
      <trkpt lat="45.94587" lon="4.73868">
        <ele>187</ele>
        <time>2018-07-10T10:14:08Z</time>
      </trkpt>
      <trkpt lat="45.94581" lon="4.73863">
        <ele>186</ele>
        <time>2018-07-10T10:14:09Z</time>
      </trkpt>
      <trkpt lat="45.94576" lon="4.73858">
        <ele>186</ele>
        <time>2018-07-10T10:14:10Z</time>
      </trkpt>
      <trkpt lat="45.94569" lon="4.73851">
        <ele>186</ele>
        <time>2018-07-10T10:14:11Z</time>
      </trkpt>
      <trkpt lat="45.94564" lon="4.73845">
        <ele>186</ele>
        <time>2018-07-10T10:14:12Z</time>
      </trkpt>
      <trkpt lat="45.94558" lon="4.73839">
        <ele>186</ele>
        <time>2018-07-10T10:14:13Z</time>
      </trkpt>
      <trkpt lat="45.94553" lon="4.73834">
        <ele>186</ele>
        <time>2018-07-10T10:14:14Z</time>
      </trkpt>
      <trkpt lat="45.94548" lon="4.73828">
        <ele>186</ele>
        <time>2018-07-10T10:14:15Z</time>
      </trkpt>
      <trkpt lat="45.94542" lon="4.73824">
        <ele>186</ele>
        <time>2018-07-10T10:14:16Z</time>
      </trkpt>
      <trkpt lat="45.94537" lon="4.7382">
        <ele>186</ele>
        <time>2018-07-10T10:14:17Z</time>
      </trkpt>
      <trkpt lat="45.94529" lon="4.73816">
        <ele>186</ele>
        <time>2018-07-10T10:14:18Z</time>
      </trkpt>
      <trkpt lat="45.94522" lon="4.73809">
        <ele>186</ele>
        <time>2018-07-10T10:14:19Z</time>
      </trkpt>
      <trkpt lat="45.94515" lon="4.73803">
        <ele>186</ele>
        <time>2018-07-10T10:14:20Z</time>
      </trkpt>
      <trkpt lat="45.9451" lon="4.73797">
        <ele>186</ele>
        <time>2018-07-10T10:14:21Z</time>
      </trkpt>
      <trkpt lat="45.94505" lon="4.73791">
        <ele>186</ele>
        <time>2018-07-10T10:14:22Z</time>
      </trkpt>
      <trkpt lat="45.945" lon="4.73784">
        <ele>186</ele>
        <time>2018-07-10T10:14:23Z</time>
      </trkpt>
      <trkpt lat="45.94495" lon="4.73778">
        <ele>186</ele>
        <time>2018-07-10T10:14:24Z</time>
      </trkpt>
      <trkpt lat="45.94491" lon="4.73772">
        <ele>186</ele>
        <time>2018-07-10T10:14:25Z</time>
      </trkpt>
      <trkpt lat="45.94486" lon="4.73766">
        <ele>186</ele>
        <time>2018-07-10T10:14:26Z</time>
      </trkpt>
      <trkpt lat="45.94482" lon="4.73758">
        <ele>186</ele>
        <time>2018-07-10T10:14:27Z</time>
      </trkpt>
      <trkpt lat="45.94479" lon="4.7375">
        <ele>186</ele>
        <time>2018-07-10T10:14:28Z</time>
      </trkpt>
      <trkpt lat="45.9448" lon="4.73741">
        <ele>186</ele>
        <time>2018-07-10T10:14:29Z</time>
      </trkpt>
      <trkpt lat="45.94481" lon="4.73732">
        <ele>186</ele>
        <time>2018-07-10T10:14:30Z</time>
      </trkpt>
      <trkpt lat="45.94481" lon="4.73723">
        <ele>186</ele>
        <time>2018-07-10T10:14:31Z</time>
      </trkpt>
      <trkpt lat="45.94483" lon="4.73714">
        <ele>186</ele>
        <time>2018-07-10T10:14:32Z</time>
      </trkpt>
      <trkpt lat="45.94484" lon="4.73705">
        <ele>186</ele>
        <time>2018-07-10T10:14:33Z</time>
      </trkpt>
      <trkpt lat="45.94484" lon="4.73695">
        <ele>186</ele>
        <time>2018-07-10T10:14:34Z</time>
      </trkpt>
      <trkpt lat="45.94488" lon="4.73684">
        <ele>186</ele>
        <time>2018-07-10T10:14:35Z</time>
      </trkpt>
      <trkpt lat="45.94488" lon="4.73676">
        <ele>185</ele>
        <time>2018-07-10T10:14:36Z</time>
      </trkpt>
      <trkpt lat="45.94488" lon="4.73666">
        <ele>185</ele>
        <time>2018-07-10T10:14:37Z</time>
      </trkpt>
      <trkpt lat="45.94489" lon="4.73656">
        <ele>185</ele>
        <time>2018-07-10T10:14:38Z</time>
      </trkpt>
      <trkpt lat="45.9449" lon="4.73648">
        <ele>186</ele>
        <time>2018-07-10T10:14:39Z</time>
      </trkpt>
      <trkpt lat="45.94491" lon="4.73638">
        <ele>186</ele>
        <time>2018-07-10T10:14:40Z</time>
      </trkpt>
      <trkpt lat="45.94492" lon="4.73629">
        <ele>186</ele>
        <time>2018-07-10T10:14:41Z</time>
      </trkpt>
      <trkpt lat="45.94494" lon="4.7362">
        <ele>186</ele>
        <time>2018-07-10T10:14:42Z</time>
      </trkpt>
      <trkpt lat="45.94495" lon="4.73611">
        <ele>186</ele>
        <time>2018-07-10T10:14:43Z</time>
      </trkpt>
      <trkpt lat="45.94496" lon="4.736">
        <ele>185</ele>
        <time>2018-07-10T10:14:44Z</time>
      </trkpt>
      <trkpt lat="45.94498" lon="4.73591">
        <ele>185</ele>
        <time>2018-07-10T10:14:45Z</time>
      </trkpt>
      <trkpt lat="45.94499" lon="4.73583">
        <ele>185</ele>
        <time>2018-07-10T10:14:46Z</time>
      </trkpt>
      <trkpt lat="45.94502" lon="4.73575">
        <ele>184</ele>
        <time>2018-07-10T10:14:47Z</time>
      </trkpt>
      <trkpt lat="45.945" lon="4.73566">
        <ele>185</ele>
        <time>2018-07-10T10:14:48Z</time>
      </trkpt>
      <trkpt lat="45.945" lon="4.73557">
        <ele>184</ele>
        <time>2018-07-10T10:14:49Z</time>
      </trkpt>
      <trkpt lat="45.945" lon="4.73547">
        <ele>183</ele>
        <time>2018-07-10T10:14:50Z</time>
      </trkpt>
      <trkpt lat="45.94501" lon="4.73537">
        <ele>183</ele>
        <time>2018-07-10T10:14:51Z</time>
      </trkpt>
      <trkpt lat="45.94502" lon="4.73527">
        <ele>183</ele>
        <time>2018-07-10T10:14:52Z</time>
      </trkpt>
      <trkpt lat="45.94502" lon="4.73517">
        <ele>183</ele>
        <time>2018-07-10T10:14:53Z</time>
      </trkpt>
      <trkpt lat="45.94501" lon="4.73508">
        <ele>183</ele>
        <time>2018-07-10T10:14:54Z</time>
      </trkpt>
      <trkpt lat="45.94501" lon="4.73498">
        <ele>183</ele>
        <time>2018-07-10T10:14:55Z</time>
      </trkpt>
      <trkpt lat="45.94501" lon="4.73487">
        <ele>182</ele>
        <time>2018-07-10T10:14:56Z</time>
      </trkpt>
      <trkpt lat="45.94501" lon="4.73476">
        <ele>182</ele>
        <time>2018-07-10T10:14:57Z</time>
      </trkpt>
      <trkpt lat="45.94502" lon="4.73467">
        <ele>181</ele>
        <time>2018-07-10T10:14:58Z</time>
      </trkpt>
      <trkpt lat="45.94502" lon="4.73457">
        <ele>181</ele>
        <time>2018-07-10T10:14:59Z</time>
      </trkpt>
      <trkpt lat="45.94503" lon="4.73447">
        <ele>181</ele>
        <time>2018-07-10T10:15:00Z</time>
      </trkpt>
      <trkpt lat="45.94502" lon="4.73436">
        <ele>181</ele>
        <time>2018-07-10T10:15:01Z</time>
      </trkpt>
      <trkpt lat="45.94502" lon="4.73425">
        <ele>180</ele>
        <time>2018-07-10T10:15:02Z</time>
      </trkpt>
      <trkpt lat="45.94501" lon="4.73415">
        <ele>180</ele>
        <time>2018-07-10T10:15:03Z</time>
      </trkpt>
      <trkpt lat="45.94501" lon="4.73404">
        <ele>179</ele>
        <time>2018-07-10T10:15:04Z</time>
      </trkpt>
      <trkpt lat="45.945" lon="4.73394">
        <ele>179</ele>
        <time>2018-07-10T10:15:05Z</time>
      </trkpt>
      <trkpt lat="45.94497" lon="4.73384">
        <ele>179</ele>
        <time>2018-07-10T10:15:06Z</time>
      </trkpt>
      <trkpt lat="45.94496" lon="4.73374">
        <ele>179</ele>
        <time>2018-07-10T10:15:07Z</time>
      </trkpt>
      <trkpt lat="45.94495" lon="4.73365">
        <ele>179</ele>
        <time>2018-07-10T10:15:08Z</time>
      </trkpt>
      <trkpt lat="45.94494" lon="4.73354">
        <ele>178</ele>
        <time>2018-07-10T10:15:09Z</time>
      </trkpt>
      <trkpt lat="45.94495" lon="4.73345">
        <ele>178</ele>
        <time>2018-07-10T10:15:10Z</time>
      </trkpt>
      <trkpt lat="45.94494" lon="4.73334">
        <ele>177</ele>
        <time>2018-07-10T10:15:11Z</time>
      </trkpt>
      <trkpt lat="45.94492" lon="4.73324">
        <ele>177</ele>
        <time>2018-07-10T10:15:12Z</time>
      </trkpt>
      <trkpt lat="45.94491" lon="4.73314">
        <ele>177</ele>
        <time>2018-07-10T10:15:13Z</time>
      </trkpt>
      <trkpt lat="45.94491" lon="4.73303">
        <ele>177</ele>
        <time>2018-07-10T10:15:14Z</time>
      </trkpt>
      <trkpt lat="45.9449" lon="4.73293">
        <ele>177</ele>
        <time>2018-07-10T10:15:15Z</time>
      </trkpt>
      <trkpt lat="45.94489" lon="4.73282">
        <ele>177</ele>
        <time>2018-07-10T10:15:16Z</time>
      </trkpt>
      <trkpt lat="45.94487" lon="4.73272">
        <ele>177</ele>
        <time>2018-07-10T10:15:17Z</time>
      </trkpt>
      <trkpt lat="45.94484" lon="4.7326">
        <ele>176</ele>
        <time>2018-07-10T10:15:18Z</time>
      </trkpt>
      <trkpt lat="45.94483" lon="4.73248">
        <ele>175</ele>
        <time>2018-07-10T10:15:19Z</time>
      </trkpt>
      <trkpt lat="45.94482" lon="4.73237">
        <ele>175</ele>
        <time>2018-07-10T10:15:20Z</time>
      </trkpt>
      <trkpt lat="45.94481" lon="4.73227">
        <ele>175</ele>
        <time>2018-07-10T10:15:21Z</time>
      </trkpt>
      <trkpt lat="45.9448" lon="4.73216">
        <ele>175</ele>
        <time>2018-07-10T10:15:22Z</time>
      </trkpt>
      <trkpt lat="45.94479" lon="4.73205">
        <ele>175</ele>
        <time>2018-07-10T10:15:23Z</time>
      </trkpt>
      <trkpt lat="45.94477" lon="4.73194">
        <ele>174</ele>
        <time>2018-07-10T10:15:24Z</time>
      </trkpt>
      <trkpt lat="45.94476" lon="4.73183">
        <ele>174</ele>
        <time>2018-07-10T10:15:25Z</time>
      </trkpt>
      <trkpt lat="45.94475" lon="4.73171">
        <ele>174</ele>
        <time>2018-07-10T10:15:26Z</time>
      </trkpt>
      <trkpt lat="45.94475" lon="4.73159">
        <ele>173</ele>
        <time>2018-07-10T10:15:27Z</time>
      </trkpt>
      <trkpt lat="45.94473" lon="4.73148">
        <ele>172</ele>
        <time>2018-07-10T10:15:28Z</time>
      </trkpt>
      <trkpt lat="45.94472" lon="4.73138">
        <ele>172</ele>
        <time>2018-07-10T10:15:29Z</time>
      </trkpt>
      <trkpt lat="45.9447" lon="4.73127">
        <ele>172</ele>
        <time>2018-07-10T10:15:30Z</time>
      </trkpt>
      <trkpt lat="45.94468" lon="4.73115">
        <ele>172</ele>
        <time>2018-07-10T10:15:31Z</time>
      </trkpt>
      <trkpt lat="45.94466" lon="4.73104">
        <ele>172</ele>
        <time>2018-07-10T10:15:32Z</time>
      </trkpt>
      <trkpt lat="45.94465" lon="4.73092">
        <ele>171</ele>
        <time>2018-07-10T10:15:33Z</time>
      </trkpt>
      <trkpt lat="45.94465" lon="4.73082">
        <ele>170</ele>
        <time>2018-07-10T10:15:34Z</time>
      </trkpt>
      <trkpt lat="45.94461" lon="4.73071">
        <ele>170</ele>
        <time>2018-07-10T10:15:35Z</time>
      </trkpt>
      <trkpt lat="45.94462" lon="4.73061">
        <ele>170</ele>
        <time>2018-07-10T10:15:36Z</time>
      </trkpt>
      <trkpt lat="45.9446" lon="4.7305">
        <ele>170</ele>
        <time>2018-07-10T10:15:37Z</time>
      </trkpt>
      <trkpt lat="45.94459" lon="4.73039">
        <ele>169</ele>
        <time>2018-07-10T10:15:38Z</time>
      </trkpt>
      <trkpt lat="45.94457" lon="4.73029">
        <ele>169</ele>
        <time>2018-07-10T10:15:39Z</time>
      </trkpt>
      <trkpt lat="45.94456" lon="4.7302">
        <ele>169</ele>
        <time>2018-07-10T10:15:40Z</time>
      </trkpt>
      <trkpt lat="45.94454" lon="4.73011">
        <ele>169</ele>
        <time>2018-07-10T10:15:41Z</time>
      </trkpt>
      <trkpt lat="45.94453" lon="4.73003">
        <ele>169</ele>
        <time>2018-07-10T10:15:42Z</time>
      </trkpt>
      <trkpt lat="45.94452" lon="4.72995">
        <ele>167</ele>
        <time>2018-07-10T10:15:43Z</time>
      </trkpt>
      <trkpt lat="45.94449" lon="4.72988">
        <ele>167</ele>
        <time>2018-07-10T10:15:44Z</time>
      </trkpt>
      <trkpt lat="45.94448" lon="4.7298">
        <ele>167</ele>
        <time>2018-07-10T10:15:45Z</time>
      </trkpt>
      <trkpt lat="45.94448" lon="4.72972">
        <ele>167</ele>
        <time>2018-07-10T10:15:46Z</time>
      </trkpt>
      <trkpt lat="45.94447" lon="4.72965">
        <ele>167</ele>
        <time>2018-07-10T10:15:47Z</time>
      </trkpt>
      <trkpt lat="45.94446" lon="4.72958">
        <ele>167</ele>
        <time>2018-07-10T10:15:48Z</time>
      </trkpt>
      <trkpt lat="45.94446" lon="4.72952">
        <ele>167</ele>
        <time>2018-07-10T10:15:49Z</time>
      </trkpt>
      <trkpt lat="45.94444" lon="4.72945">
        <ele>167</ele>
        <time>2018-07-10T10:15:50Z</time>
      </trkpt>
      <trkpt lat="45.94443" lon="4.72937">
        <ele>167</ele>
        <time>2018-07-10T10:15:51Z</time>
      </trkpt>
      <trkpt lat="45.94442" lon="4.7293">
        <ele>167</ele>
        <time>2018-07-10T10:15:52Z</time>
      </trkpt>
      <trkpt lat="45.94442" lon="4.72923">
        <ele>167</ele>
        <time>2018-07-10T10:15:53Z</time>
      </trkpt>
      <trkpt lat="45.94439" lon="4.72916">
        <ele>166</ele>
        <time>2018-07-10T10:15:54Z</time>
      </trkpt>
      <trkpt lat="45.94439" lon="4.72909">
        <ele>166</ele>
        <time>2018-07-10T10:15:55Z</time>
      </trkpt>
      <trkpt lat="45.94439" lon="4.72903">
        <ele>166</ele>
        <time>2018-07-10T10:15:56Z</time>
      </trkpt>
      <trkpt lat="45.94434" lon="4.72895">
        <ele>166</ele>
        <time>2018-07-10T10:15:57Z</time>
      </trkpt>
      <trkpt lat="45.94433" lon="4.72888">
        <ele>166</ele>
        <time>2018-07-10T10:15:58Z</time>
      </trkpt>
      <trkpt lat="45.94432" lon="4.7288">
        <ele>166</ele>
        <time>2018-07-10T10:15:59Z</time>
      </trkpt>
      <trkpt lat="45.94431" lon="4.72872">
        <ele>166</ele>
        <time>2018-07-10T10:16:00Z</time>
      </trkpt>
      <trkpt lat="45.9443" lon="4.72865">
        <ele>166</ele>
        <time>2018-07-10T10:16:01Z</time>
      </trkpt>
      <trkpt lat="45.94429" lon="4.72857">
        <ele>166</ele>
        <time>2018-07-10T10:16:02Z</time>
      </trkpt>
      <trkpt lat="45.94429" lon="4.72849">
        <ele>166</ele>
        <time>2018-07-10T10:16:03Z</time>
      </trkpt>
      <trkpt lat="45.94428" lon="4.7284">
        <ele>166</ele>
        <time>2018-07-10T10:16:04Z</time>
      </trkpt>
      <trkpt lat="45.94427" lon="4.72831">
        <ele>166</ele>
        <time>2018-07-10T10:16:05Z</time>
      </trkpt>
      <trkpt lat="45.94426" lon="4.72821">
        <ele>167</ele>
        <time>2018-07-10T10:16:06Z</time>
      </trkpt>
      <trkpt lat="45.94425" lon="4.72812">
        <ele>167</ele>
        <time>2018-07-10T10:16:07Z</time>
      </trkpt>
      <trkpt lat="45.94424" lon="4.72803">
        <ele>167</ele>
        <time>2018-07-10T10:16:08Z</time>
      </trkpt>
      <trkpt lat="45.94423" lon="4.72793">
        <ele>168</ele>
        <time>2018-07-10T10:16:09Z</time>
      </trkpt>
      <trkpt lat="45.94421" lon="4.72783">
        <ele>168</ele>
        <time>2018-07-10T10:16:10Z</time>
      </trkpt>
      <trkpt lat="45.9442" lon="4.72773">
        <ele>169</ele>
        <time>2018-07-10T10:16:11Z</time>
      </trkpt>
      <trkpt lat="45.94419" lon="4.72763">
        <ele>169</ele>
        <time>2018-07-10T10:16:12Z</time>
      </trkpt>
      <trkpt lat="45.94417" lon="4.72753">
        <ele>171</ele>
        <time>2018-07-10T10:16:13Z</time>
      </trkpt>
      <trkpt lat="45.94416" lon="4.72743">
        <ele>171</ele>
        <time>2018-07-10T10:16:14Z</time>
      </trkpt>
      <trkpt lat="45.94414" lon="4.72733">
        <ele>172</ele>
        <time>2018-07-10T10:16:15Z</time>
      </trkpt>
      <trkpt lat="45.94413" lon="4.72723">
        <ele>172</ele>
        <time>2018-07-10T10:16:16Z</time>
      </trkpt>
      <trkpt lat="45.94412" lon="4.72714">
        <ele>172</ele>
        <time>2018-07-10T10:16:17Z</time>
      </trkpt>
      <trkpt lat="45.94411" lon="4.72704">
        <ele>172</ele>
        <time>2018-07-10T10:16:18Z</time>
      </trkpt>
      <trkpt lat="45.9441" lon="4.72694">
        <ele>173</ele>
        <time>2018-07-10T10:16:19Z</time>
      </trkpt>
      <trkpt lat="45.9441" lon="4.72685">
        <ele>173</ele>
        <time>2018-07-10T10:16:20Z</time>
      </trkpt>
      <trkpt lat="45.9441" lon="4.72676">
        <ele>173</ele>
        <time>2018-07-10T10:16:21Z</time>
      </trkpt>
      <trkpt lat="45.94408" lon="4.72665">
        <ele>174</ele>
        <time>2018-07-10T10:16:22Z</time>
      </trkpt>
      <trkpt lat="45.94406" lon="4.72656">
        <ele>174</ele>
        <time>2018-07-10T10:16:23Z</time>
      </trkpt>
      <trkpt lat="45.94405" lon="4.72647">
        <ele>174</ele>
        <time>2018-07-10T10:16:24Z</time>
      </trkpt>
      <trkpt lat="45.94404" lon="4.72638">
        <ele>174</ele>
        <time>2018-07-10T10:16:25Z</time>
      </trkpt>
      <trkpt lat="45.94402" lon="4.72628">
        <ele>174</ele>
        <time>2018-07-10T10:16:26Z</time>
      </trkpt>
      <trkpt lat="45.94401" lon="4.72619">
        <ele>173</ele>
        <time>2018-07-10T10:16:27Z</time>
      </trkpt>
      <trkpt lat="45.944" lon="4.7261">
        <ele>173</ele>
        <time>2018-07-10T10:16:28Z</time>
      </trkpt>
      <trkpt lat="45.94398" lon="4.726">
        <ele>173</ele>
        <time>2018-07-10T10:16:29Z</time>
      </trkpt>
      <trkpt lat="45.94396" lon="4.72591">
        <ele>173</ele>
        <time>2018-07-10T10:16:30Z</time>
      </trkpt>
      <trkpt lat="45.94394" lon="4.72582">
        <ele>173</ele>
        <time>2018-07-10T10:16:31Z</time>
      </trkpt>
      <trkpt lat="45.94392" lon="4.72573">
        <ele>173</ele>
        <time>2018-07-10T10:16:32Z</time>
      </trkpt>
      <trkpt lat="45.94393" lon="4.72564">
        <ele>173</ele>
        <time>2018-07-10T10:16:33Z</time>
      </trkpt>
      <trkpt lat="45.94391" lon="4.72556">
        <ele>173</ele>
        <time>2018-07-10T10:16:34Z</time>
      </trkpt>
      <trkpt lat="45.94389" lon="4.72546">
        <ele>173</ele>
        <time>2018-07-10T10:16:35Z</time>
      </trkpt>
      <trkpt lat="45.94386" lon="4.72537">
        <ele>174</ele>
        <time>2018-07-10T10:16:36Z</time>
      </trkpt>
      <trkpt lat="45.94386" lon="4.72529">
        <ele>174</ele>
        <time>2018-07-10T10:16:37Z</time>
      </trkpt>
      <trkpt lat="45.94384" lon="4.7252">
        <ele>174</ele>
        <time>2018-07-10T10:16:38Z</time>
      </trkpt>
      <trkpt lat="45.94381" lon="4.72512">
        <ele>174</ele>
        <time>2018-07-10T10:16:39Z</time>
      </trkpt>
      <trkpt lat="45.94378" lon="4.72504">
        <ele>174</ele>
        <time>2018-07-10T10:16:40Z</time>
      </trkpt>
      <trkpt lat="45.94375" lon="4.72495">
        <ele>173</ele>
        <time>2018-07-10T10:16:41Z</time>
      </trkpt>
      <trkpt lat="45.94374" lon="4.72488">
        <ele>173</ele>
        <time>2018-07-10T10:16:42Z</time>
      </trkpt>
      <trkpt lat="45.94372" lon="4.72482">
        <ele>173</ele>
        <time>2018-07-10T10:16:43Z</time>
      </trkpt>
      <trkpt lat="45.9437" lon="4.72474">
        <ele>173</ele>
        <time>2018-07-10T10:16:44Z</time>
      </trkpt>
      <trkpt lat="45.94365" lon="4.72466">
        <ele>173</ele>
        <time>2018-07-10T10:16:45Z</time>
      </trkpt>
      <trkpt lat="45.94362" lon="4.72458">
        <ele>173</ele>
        <time>2018-07-10T10:16:46Z</time>
      </trkpt>
      <trkpt lat="45.94358" lon="4.7245">
        <ele>173</ele>
        <time>2018-07-10T10:16:47Z</time>
      </trkpt>
      <trkpt lat="45.94355" lon="4.72441">
        <ele>173</ele>
        <time>2018-07-10T10:16:48Z</time>
      </trkpt>
      <trkpt lat="45.94351" lon="4.72432">
        <ele>173</ele>
        <time>2018-07-10T10:16:49Z</time>
      </trkpt>
      <trkpt lat="45.94348" lon="4.72424">
        <ele>173</ele>
        <time>2018-07-10T10:16:50Z</time>
      </trkpt>
      <trkpt lat="45.94344" lon="4.72415">
        <ele>173</ele>
        <time>2018-07-10T10:16:51Z</time>
      </trkpt>
      <trkpt lat="45.9434" lon="4.72407">
        <ele>173</ele>
        <time>2018-07-10T10:16:52Z</time>
      </trkpt>
      <trkpt lat="45.94336" lon="4.724">
        <ele>173</ele>
        <time>2018-07-10T10:16:53Z</time>
      </trkpt>
      <trkpt lat="45.94332" lon="4.72393">
        <ele>172</ele>
        <time>2018-07-10T10:16:54Z</time>
      </trkpt>
      <trkpt lat="45.94328" lon="4.72385">
        <ele>172</ele>
        <time>2018-07-10T10:16:55Z</time>
      </trkpt>
      <trkpt lat="45.94323" lon="4.72377">
        <ele>172</ele>
        <time>2018-07-10T10:16:56Z</time>
      </trkpt>
      <trkpt lat="45.94319" lon="4.72369">
        <ele>172</ele>
        <time>2018-07-10T10:16:57Z</time>
      </trkpt>
      <trkpt lat="45.94315" lon="4.7236">
        <ele>172</ele>
        <time>2018-07-10T10:16:58Z</time>
      </trkpt>
      <trkpt lat="45.94311" lon="4.72351">
        <ele>172</ele>
        <time>2018-07-10T10:16:59Z</time>
      </trkpt>
      <trkpt lat="45.94309" lon="4.72342">
        <ele>172</ele>
        <time>2018-07-10T10:17:00Z</time>
      </trkpt>
      <trkpt lat="45.94306" lon="4.72334">
        <ele>172</ele>
        <time>2018-07-10T10:17:01Z</time>
      </trkpt>
      <trkpt lat="45.94303" lon="4.72325">
        <ele>171</ele>
        <time>2018-07-10T10:17:02Z</time>
      </trkpt>
      <trkpt lat="45.943" lon="4.72318">
        <ele>171</ele>
        <time>2018-07-10T10:17:03Z</time>
      </trkpt>
      <trkpt lat="45.94296" lon="4.72311">
        <ele>171</ele>
        <time>2018-07-10T10:17:04Z</time>
      </trkpt>
      <trkpt lat="45.94293" lon="4.72304">
        <ele>171</ele>
        <time>2018-07-10T10:17:05Z</time>
      </trkpt>
      <trkpt lat="45.9429" lon="4.72296">
        <ele>171</ele>
        <time>2018-07-10T10:17:06Z</time>
      </trkpt>
      <trkpt lat="45.94287" lon="4.72288">
        <ele>171</ele>
        <time>2018-07-10T10:17:07Z</time>
      </trkpt>
      <trkpt lat="45.94282" lon="4.72277">
        <ele>171</ele>
        <time>2018-07-10T10:17:09Z</time>
      </trkpt>
      <trkpt lat="45.94282" lon="4.72275">
        <ele>171</ele>
        <time>2018-07-10T10:17:10Z</time>
      </trkpt>
      <trkpt lat="45.94277" lon="4.72267">
        <ele>171</ele>
        <time>2018-07-10T10:17:13Z</time>
      </trkpt>
      <trkpt lat="45.9427" lon="4.72263">
        <ele>171</ele>
        <time>2018-07-10T10:17:14Z</time>
      </trkpt>
      <trkpt lat="45.94264" lon="4.72269">
        <ele>171</ele>
        <time>2018-07-10T10:17:16Z</time>
      </trkpt>
      <trkpt lat="45.94261" lon="4.72272">
        <ele>171</ele>
        <time>2018-07-10T10:17:17Z</time>
      </trkpt>
      <trkpt lat="45.94255" lon="4.72277">
        <ele>171</ele>
        <time>2018-07-10T10:17:19Z</time>
      </trkpt>
      <trkpt lat="45.9425" lon="4.72277">
        <ele>171</ele>
        <time>2018-07-10T10:17:20Z</time>
      </trkpt>
      <trkpt lat="45.94246" lon="4.7228">
        <ele>171</ele>
        <time>2018-07-10T10:17:21Z</time>
      </trkpt>
      <trkpt lat="45.94241" lon="4.72281">
        <ele>171</ele>
        <time>2018-07-10T10:17:22Z</time>
      </trkpt>
      <trkpt lat="45.94236" lon="4.72283">
        <ele>171</ele>
        <time>2018-07-10T10:17:23Z</time>
      </trkpt>
      <trkpt lat="45.94232" lon="4.72284">
        <ele>171</ele>
        <time>2018-07-10T10:17:24Z</time>
      </trkpt>
      <trkpt lat="45.94225" lon="4.72285">
        <ele>171</ele>
        <time>2018-07-10T10:17:25Z</time>
      </trkpt>
      <trkpt lat="45.94219" lon="4.72285">
        <ele>171</ele>
        <time>2018-07-10T10:17:26Z</time>
      </trkpt>
      <trkpt lat="45.94213" lon="4.72285">
        <ele>171</ele>
        <time>2018-07-10T10:17:27Z</time>
      </trkpt>
      <trkpt lat="45.94206" lon="4.72286">
        <ele>171</ele>
        <time>2018-07-10T10:17:28Z</time>
      </trkpt>
      <trkpt lat="45.94199" lon="4.72284">
        <ele>171</ele>
        <time>2018-07-10T10:17:29Z</time>
      </trkpt>
      <trkpt lat="45.94191" lon="4.72284">
        <ele>171</ele>
        <time>2018-07-10T10:17:30Z</time>
      </trkpt>
      <trkpt lat="45.94185" lon="4.72284">
        <ele>171</ele>
        <time>2018-07-10T10:17:31Z</time>
      </trkpt>
      <trkpt lat="45.94178" lon="4.72284">
        <ele>171</ele>
        <time>2018-07-10T10:17:32Z</time>
      </trkpt>
      <trkpt lat="45.94172" lon="4.72286">
        <ele>171</ele>
        <time>2018-07-10T10:17:33Z</time>
      </trkpt>
      <trkpt lat="45.94166" lon="4.72283">
        <ele>171</ele>
        <time>2018-07-10T10:17:34Z</time>
      </trkpt>
      <trkpt lat="45.9416" lon="4.72281">
        <ele>171</ele>
        <time>2018-07-10T10:17:35Z</time>
      </trkpt>
      <trkpt lat="45.94154" lon="4.7228">
        <ele>171</ele>
        <time>2018-07-10T10:17:36Z</time>
      </trkpt>
      <trkpt lat="45.94148" lon="4.72277">
        <ele>171</ele>
        <time>2018-07-10T10:17:37Z</time>
      </trkpt>
      <trkpt lat="45.94142" lon="4.72275">
        <ele>171</ele>
        <time>2018-07-10T10:17:38Z</time>
      </trkpt>
      <trkpt lat="45.94137" lon="4.72272">
        <ele>171</ele>
        <time>2018-07-10T10:17:39Z</time>
      </trkpt>
      <trkpt lat="45.94131" lon="4.72268">
        <ele>171</ele>
        <time>2018-07-10T10:17:40Z</time>
      </trkpt>
      <trkpt lat="45.94125" lon="4.72267">
        <ele>171</ele>
        <time>2018-07-10T10:17:41Z</time>
      </trkpt>
      <trkpt lat="45.94119" lon="4.72264">
        <ele>171</ele>
        <time>2018-07-10T10:17:42Z</time>
      </trkpt>
      <trkpt lat="45.94114" lon="4.72263">
        <ele>171</ele>
        <time>2018-07-10T10:17:43Z</time>
      </trkpt>
      <trkpt lat="45.94109" lon="4.72261">
        <ele>171</ele>
        <time>2018-07-10T10:17:44Z</time>
      </trkpt>
      <trkpt lat="45.94101" lon="4.7226">
        <ele>171</ele>
        <time>2018-07-10T10:17:45Z</time>
      </trkpt>
      <trkpt lat="45.94094" lon="4.72261">
        <ele>171</ele>
        <time>2018-07-10T10:17:46Z</time>
      </trkpt>
      <trkpt lat="45.94089" lon="4.72263">
        <ele>171</ele>
        <time>2018-07-10T10:17:47Z</time>
      </trkpt>
      <trkpt lat="45.94082" lon="4.72265">
        <ele>171</ele>
        <time>2018-07-10T10:17:48Z</time>
      </trkpt>
      <trkpt lat="45.94076" lon="4.72267">
        <ele>171</ele>
        <time>2018-07-10T10:17:49Z</time>
      </trkpt>
      <trkpt lat="45.94071" lon="4.7227">
        <ele>171</ele>
        <time>2018-07-10T10:17:50Z</time>
      </trkpt>
      <trkpt lat="45.94065" lon="4.72275">
        <ele>171</ele>
        <time>2018-07-10T10:17:51Z</time>
      </trkpt>
      <trkpt lat="45.94058" lon="4.7228">
        <ele>171</ele>
        <time>2018-07-10T10:17:52Z</time>
      </trkpt>
      <trkpt lat="45.94054" lon="4.72287">
        <ele>171</ele>
        <time>2018-07-10T10:17:53Z</time>
      </trkpt>
      <trkpt lat="45.94051" lon="4.72296">
        <ele>171</ele>
        <time>2018-07-10T10:17:54Z</time>
      </trkpt>
      <trkpt lat="45.94045" lon="4.72301">
        <ele>171</ele>
        <time>2018-07-10T10:17:55Z</time>
      </trkpt>
      <trkpt lat="45.94041" lon="4.72309">
        <ele>171</ele>
        <time>2018-07-10T10:17:56Z</time>
      </trkpt>
      <trkpt lat="45.94037" lon="4.72315">
        <ele>171</ele>
        <time>2018-07-10T10:17:57Z</time>
      </trkpt>
      <trkpt lat="45.94031" lon="4.7232">
        <ele>171</ele>
        <time>2018-07-10T10:17:58Z</time>
      </trkpt>
      <trkpt lat="45.94026" lon="4.72327">
        <ele>171</ele>
        <time>2018-07-10T10:17:59Z</time>
      </trkpt>
      <trkpt lat="45.94021" lon="4.72334">
        <ele>171</ele>
        <time>2018-07-10T10:18:00Z</time>
      </trkpt>
      <trkpt lat="45.94015" lon="4.72342">
        <ele>171</ele>
        <time>2018-07-10T10:18:01Z</time>
      </trkpt>
      <trkpt lat="45.9401" lon="4.72349">
        <ele>171</ele>
        <time>2018-07-10T10:18:02Z</time>
      </trkpt>
      <trkpt lat="45.94005" lon="4.72356">
        <ele>171</ele>
        <time>2018-07-10T10:18:03Z</time>
      </trkpt>
      <trkpt lat="45.93999" lon="4.72362">
        <ele>171</ele>
        <time>2018-07-10T10:18:04Z</time>
      </trkpt>
      <trkpt lat="45.93994" lon="4.72369">
        <ele>171</ele>
        <time>2018-07-10T10:18:05Z</time>
      </trkpt>
      <trkpt lat="45.93988" lon="4.72375">
        <ele>171</ele>
        <time>2018-07-10T10:18:06Z</time>
      </trkpt>
      <trkpt lat="45.93983" lon="4.7238">
        <ele>171</ele>
        <time>2018-07-10T10:18:07Z</time>
      </trkpt>
      <trkpt lat="45.93979" lon="4.72386">
        <ele>171</ele>
        <time>2018-07-10T10:18:08Z</time>
      </trkpt>
      <trkpt lat="45.93975" lon="4.72391">
        <ele>171</ele>
        <time>2018-07-10T10:18:09Z</time>
      </trkpt>
      <trkpt lat="45.9397" lon="4.72397">
        <ele>171</ele>
        <time>2018-07-10T10:18:10Z</time>
      </trkpt>
      <trkpt lat="45.93965" lon="4.72403">
        <ele>171</ele>
        <time>2018-07-10T10:18:11Z</time>
      </trkpt>
      <trkpt lat="45.93958" lon="4.72402">
        <ele>171</ele>
        <time>2018-07-10T10:18:12Z</time>
      </trkpt>
      <trkpt lat="45.93954" lon="4.72412">
        <ele>171</ele>
        <time>2018-07-10T10:18:13Z</time>
      </trkpt>
      <trkpt lat="45.93951" lon="4.72422">
        <ele>171</ele>
        <time>2018-07-10T10:18:14Z</time>
      </trkpt>
      <trkpt lat="45.93946" lon="4.72426">
        <ele>171</ele>
        <time>2018-07-10T10:18:15Z</time>
      </trkpt>
      <trkpt lat="45.93942" lon="4.72431">
        <ele>171</ele>
        <time>2018-07-10T10:18:16Z</time>
      </trkpt>
      <trkpt lat="45.93939" lon="4.72438">
        <ele>171</ele>
        <time>2018-07-10T10:18:17Z</time>
      </trkpt>
      <trkpt lat="45.93934" lon="4.72444">
        <ele>171</ele>
        <time>2018-07-10T10:18:18Z</time>
      </trkpt>
      <trkpt lat="45.93929" lon="4.72449">
        <ele>171</ele>
        <time>2018-07-10T10:18:19Z</time>
      </trkpt>
      <trkpt lat="45.93926" lon="4.72454">
        <ele>171</ele>
        <time>2018-07-10T10:18:20Z</time>
      </trkpt>
      <trkpt lat="45.93921" lon="4.7246">
        <ele>171</ele>
        <time>2018-07-10T10:18:21Z</time>
      </trkpt>
      <trkpt lat="45.93916" lon="4.72466">
        <ele>172</ele>
        <time>2018-07-10T10:18:22Z</time>
      </trkpt>
      <trkpt lat="45.93912" lon="4.72469">
        <ele>172</ele>
        <time>2018-07-10T10:18:23Z</time>
      </trkpt>
      <trkpt lat="45.93907" lon="4.72474">
        <ele>172</ele>
        <time>2018-07-10T10:18:24Z</time>
      </trkpt>
      <trkpt lat="45.93902" lon="4.72479">
        <ele>172</ele>
        <time>2018-07-10T10:18:25Z</time>
      </trkpt>
      <trkpt lat="45.93898" lon="4.72485">
        <ele>172</ele>
        <time>2018-07-10T10:18:26Z</time>
      </trkpt>
      <trkpt lat="45.93894" lon="4.72491">
        <ele>172</ele>
        <time>2018-07-10T10:18:27Z</time>
      </trkpt>
      <trkpt lat="45.9389" lon="4.72496">
        <ele>172</ele>
        <time>2018-07-10T10:18:28Z</time>
      </trkpt>
      <trkpt lat="45.93885" lon="4.72501">
        <ele>173</ele>
        <time>2018-07-10T10:18:29Z</time>
      </trkpt>
      <trkpt lat="45.93882" lon="4.72506">
        <ele>173</ele>
        <time>2018-07-10T10:18:30Z</time>
      </trkpt>
      <trkpt lat="45.93878" lon="4.7251">
        <ele>173</ele>
        <time>2018-07-10T10:18:31Z</time>
      </trkpt>
      <trkpt lat="45.93872" lon="4.72509">
        <ele>173</ele>
        <time>2018-07-10T10:18:32Z</time>
      </trkpt>
      <trkpt lat="45.93866" lon="4.7251">
        <ele>173</ele>
        <time>2018-07-10T10:18:33Z</time>
      </trkpt>
      <trkpt lat="45.9386" lon="4.7251">
        <ele>173</ele>
        <time>2018-07-10T10:18:34Z</time>
      </trkpt>
      <trkpt lat="45.93857" lon="4.72506">
        <ele>173</ele>
        <time>2018-07-10T10:18:35Z</time>
      </trkpt>
      <trkpt lat="45.93822" lon="4.72478">
        <ele>173</ele>
        <time>2018-07-10T10:18:41Z</time>
      </trkpt>
      <trkpt lat="45.93818" lon="4.72471">
        <ele>172</ele>
        <time>2018-07-10T10:18:42Z</time>
      </trkpt>
      <trkpt lat="45.93811" lon="4.7247">
        <ele>172</ele>
        <time>2018-07-10T10:18:43Z</time>
      </trkpt>
      <trkpt lat="45.93805" lon="4.72462">
        <ele>172</ele>
        <time>2018-07-10T10:18:45Z</time>
      </trkpt>
      <trkpt lat="45.93801" lon="4.72457">
        <ele>172</ele>
        <time>2018-07-10T10:18:46Z</time>
      </trkpt>
      <trkpt lat="45.93796" lon="4.72449">
        <ele>172</ele>
        <time>2018-07-10T10:18:47Z</time>
      </trkpt>
      <trkpt lat="45.93791" lon="4.72445">
        <ele>172</ele>
        <time>2018-07-10T10:18:48Z</time>
      </trkpt>
      <trkpt lat="45.93784" lon="4.72438">
        <ele>172</ele>
        <time>2018-07-10T10:18:50Z</time>
      </trkpt>
      <trkpt lat="45.9378" lon="4.72434">
        <ele>172</ele>
        <time>2018-07-10T10:18:51Z</time>
      </trkpt>
      <trkpt lat="45.93775" lon="4.72428">
        <ele>171</ele>
        <time>2018-07-10T10:18:52Z</time>
      </trkpt>
      <trkpt lat="45.93771" lon="4.72423">
        <ele>171</ele>
        <time>2018-07-10T10:18:53Z</time>
      </trkpt>
      <trkpt lat="45.93764" lon="4.72416">
        <ele>171</ele>
        <time>2018-07-10T10:18:55Z</time>
      </trkpt>
      <trkpt lat="45.9376" lon="4.72412">
        <ele>171</ele>
        <time>2018-07-10T10:18:56Z</time>
      </trkpt>
      <trkpt lat="45.93756" lon="4.72407">
        <ele>171</ele>
        <time>2018-07-10T10:18:57Z</time>
      </trkpt>
      <trkpt lat="45.93751" lon="4.72403">
        <ele>171</ele>
        <time>2018-07-10T10:18:58Z</time>
      </trkpt>
      <trkpt lat="45.93747" lon="4.72398">
        <ele>171</ele>
        <time>2018-07-10T10:18:59Z</time>
      </trkpt>
      <trkpt lat="45.93743" lon="4.72393">
        <ele>171</ele>
        <time>2018-07-10T10:19:00Z</time>
      </trkpt>
      <trkpt lat="45.93739" lon="4.72388">
        <ele>171</ele>
        <time>2018-07-10T10:19:01Z</time>
      </trkpt>
      <trkpt lat="45.93735" lon="4.72385">
        <ele>171</ele>
        <time>2018-07-10T10:19:02Z</time>
      </trkpt>
      <trkpt lat="45.93731" lon="4.7238">
        <ele>171</ele>
        <time>2018-07-10T10:19:03Z</time>
      </trkpt>
      <trkpt lat="45.93727" lon="4.72377">
        <ele>171</ele>
        <time>2018-07-10T10:19:04Z</time>
      </trkpt>
      <trkpt lat="45.9372" lon="4.7237">
        <ele>172</ele>
        <time>2018-07-10T10:19:05Z</time>
      </trkpt>
      <trkpt lat="45.93716" lon="4.72366">
        <ele>172</ele>
        <time>2018-07-10T10:19:06Z</time>
      </trkpt>
      <trkpt lat="45.9371" lon="4.72362">
        <ele>172</ele>
        <time>2018-07-10T10:19:07Z</time>
      </trkpt>
      <trkpt lat="45.93706" lon="4.72357">
        <ele>171</ele>
        <time>2018-07-10T10:19:08Z</time>
      </trkpt>
      <trkpt lat="45.93701" lon="4.72353">
        <ele>171</ele>
        <time>2018-07-10T10:19:09Z</time>
      </trkpt>
      <trkpt lat="45.93697" lon="4.72347">
        <ele>171</ele>
        <time>2018-07-10T10:19:10Z</time>
      </trkpt>
      <trkpt lat="45.93693" lon="4.72342">
        <ele>171</ele>
        <time>2018-07-10T10:19:11Z</time>
      </trkpt>
      <trkpt lat="45.93689" lon="4.72339">
        <ele>171</ele>
        <time>2018-07-10T10:19:12Z</time>
      </trkpt>
      <trkpt lat="45.93684" lon="4.72337">
        <ele>171</ele>
        <time>2018-07-10T10:19:13Z</time>
      </trkpt>
      <trkpt lat="45.9368" lon="4.72334">
        <ele>171</ele>
        <time>2018-07-10T10:19:14Z</time>
      </trkpt>
      <trkpt lat="45.93674" lon="4.72328">
        <ele>171</ele>
        <time>2018-07-10T10:19:15Z</time>
      </trkpt>
      <trkpt lat="45.93668" lon="4.72324">
        <ele>171</ele>
        <time>2018-07-10T10:19:16Z</time>
      </trkpt>
      <trkpt lat="45.93665" lon="4.72319">
        <ele>172</ele>
        <time>2018-07-10T10:19:17Z</time>
      </trkpt>
      <trkpt lat="45.93661" lon="4.72315">
        <ele>172</ele>
        <time>2018-07-10T10:19:18Z</time>
      </trkpt>
      <trkpt lat="45.93657" lon="4.7231">
        <ele>172</ele>
        <time>2018-07-10T10:19:19Z</time>
      </trkpt>
      <trkpt lat="45.93653" lon="4.72306">
        <ele>172</ele>
        <time>2018-07-10T10:19:20Z</time>
      </trkpt>
      <trkpt lat="45.93649" lon="4.72303">
        <ele>172</ele>
        <time>2018-07-10T10:19:21Z</time>
      </trkpt>
      <trkpt lat="45.93643" lon="4.72299">
        <ele>172</ele>
        <time>2018-07-10T10:19:22Z</time>
      </trkpt>
      <trkpt lat="45.93639" lon="4.72296">
        <ele>172</ele>
        <time>2018-07-10T10:19:23Z</time>
      </trkpt>
      <trkpt lat="45.93634" lon="4.72293">
        <ele>172</ele>
        <time>2018-07-10T10:19:24Z</time>
      </trkpt>
      <trkpt lat="45.93629" lon="4.72288">
        <ele>172</ele>
        <time>2018-07-10T10:19:25Z</time>
      </trkpt>
      <trkpt lat="45.93626" lon="4.72283">
        <ele>172</ele>
        <time>2018-07-10T10:19:26Z</time>
      </trkpt>
      <trkpt lat="45.93622" lon="4.72278">
        <ele>172</ele>
        <time>2018-07-10T10:19:27Z</time>
      </trkpt>
      <trkpt lat="45.93617" lon="4.72273">
        <ele>172</ele>
        <time>2018-07-10T10:19:28Z</time>
      </trkpt>
      <trkpt lat="45.93613" lon="4.72267">
        <ele>172</ele>
        <time>2018-07-10T10:19:29Z</time>
      </trkpt>
      <trkpt lat="45.93609" lon="4.72262">
        <ele>172</ele>
        <time>2018-07-10T10:19:30Z</time>
      </trkpt>
      <trkpt lat="45.93605" lon="4.72258">
        <ele>173</ele>
        <time>2018-07-10T10:19:31Z</time>
      </trkpt>
      <trkpt lat="45.93602" lon="4.72254">
        <ele>173</ele>
        <time>2018-07-10T10:19:32Z</time>
      </trkpt>
      <trkpt lat="45.93599" lon="4.72249">
        <ele>173</ele>
        <time>2018-07-10T10:19:33Z</time>
      </trkpt>
      <trkpt lat="45.93595" lon="4.72244">
        <ele>173</ele>
        <time>2018-07-10T10:19:34Z</time>
      </trkpt>
      <trkpt lat="45.9359" lon="4.7224">
        <ele>173</ele>
        <time>2018-07-10T10:19:35Z</time>
      </trkpt>
      <trkpt lat="45.93586" lon="4.72236">
        <ele>173</ele>
        <time>2018-07-10T10:19:36Z</time>
      </trkpt>
      <trkpt lat="45.93582" lon="4.72233">
        <ele>173</ele>
        <time>2018-07-10T10:19:37Z</time>
      </trkpt>
      <trkpt lat="45.93579" lon="4.72228">
        <ele>173</ele>
        <time>2018-07-10T10:19:38Z</time>
      </trkpt>
      <trkpt lat="45.93572" lon="4.72223">
        <ele>173</ele>
        <time>2018-07-10T10:19:40Z</time>
      </trkpt>
      <trkpt lat="45.9357" lon="4.72222">
        <ele>173</ele>
        <time>2018-07-10T10:19:41Z</time>
      </trkpt>
      <trkpt lat="45.93562" lon="4.72216">
        <ele>173</ele>
        <time>2018-07-10T10:19:49Z</time>
      </trkpt>
      <trkpt lat="45.93562" lon="4.72216">
        <ele>173</ele>
        <time>2018-07-10T10:19:50Z</time>
      </trkpt>
      <trkpt lat="45.93554" lon="4.72215">
        <ele>173</ele>
        <time>2018-07-10T10:20:24Z</time>
      </trkpt>
      <trkpt lat="45.93552" lon="4.72216">
        <ele>173</ele>
        <time>2018-07-10T10:20:25Z</time>
      </trkpt>
      <trkpt lat="45.93545" lon="4.72221">
        <ele>172</ele>
        <time>2018-07-10T10:20:29Z</time>
      </trkpt>
      <trkpt lat="45.93544" lon="4.72224">
        <ele>172</ele>
        <time>2018-07-10T10:20:30Z</time>
      </trkpt>
      <trkpt lat="45.93541" lon="4.72236">
        <ele>172</ele>
        <time>2018-07-10T10:20:39Z</time>
      </trkpt>
      <trkpt lat="45.9354" lon="4.72236">
        <ele>172</ele>
        <time>2018-07-10T10:20:40Z</time>
      </trkpt>
      <trkpt lat="45.93537" lon="4.72245">
        <ele>172</ele>
        <time>2018-07-10T10:20:47Z</time>
      </trkpt>
      <trkpt lat="45.93536" lon="4.72248">
        <ele>172</ele>
        <time>2018-07-10T10:20:48Z</time>
      </trkpt>
      <trkpt lat="45.93534" lon="4.72256">
        <ele>172</ele>
        <time>2018-07-10T10:20:50.458Z</time>
      </trkpt>
      <trkpt lat="45.9353" lon="4.72266">
        <ele>172</ele>
        <time>2018-07-10T10:20:51Z</time>
      </trkpt>
      <trkpt lat="45.93528" lon="4.72272">
        <ele>172</ele>
        <time>2018-07-10T10:20:52Z</time>
      </trkpt>
      <trkpt lat="45.93527" lon="4.72278">
        <ele>172</ele>
        <time>2018-07-10T10:20:53Z</time>
      </trkpt>
      <trkpt lat="45.93524" lon="4.72285">
        <ele>172</ele>
        <time>2018-07-10T10:20:54Z</time>
      </trkpt>
      <trkpt lat="45.9352" lon="4.7229">
        <ele>172</ele>
        <time>2018-07-10T10:20:55Z</time>
      </trkpt>
      <trkpt lat="45.93516" lon="4.72297">
        <ele>172</ele>
        <time>2018-07-10T10:20:56Z</time>
      </trkpt>
      <trkpt lat="45.93513" lon="4.72303">
        <ele>172</ele>
        <time>2018-07-10T10:20:57Z</time>
      </trkpt>
      <trkpt lat="45.93509" lon="4.72308">
        <ele>173</ele>
        <time>2018-07-10T10:20:58Z</time>
      </trkpt>
      <trkpt lat="45.93505" lon="4.72315">
        <ele>173</ele>
        <time>2018-07-10T10:20:59Z</time>
      </trkpt>
      <trkpt lat="45.935" lon="4.72322">
        <ele>173</ele>
        <time>2018-07-10T10:21:00Z</time>
      </trkpt>
      <trkpt lat="45.93497" lon="4.72329">
        <ele>173</ele>
        <time>2018-07-10T10:21:01Z</time>
      </trkpt>
      <trkpt lat="45.93493" lon="4.72336">
        <ele>173</ele>
        <time>2018-07-10T10:21:02Z</time>
      </trkpt>
      <trkpt lat="45.93488" lon="4.72341">
        <ele>173</ele>
        <time>2018-07-10T10:21:03Z</time>
      </trkpt>
      <trkpt lat="45.93484" lon="4.72346">
        <ele>173</ele>
        <time>2018-07-10T10:21:04Z</time>
      </trkpt>
      <trkpt lat="45.93478" lon="4.7235">
        <ele>173</ele>
        <time>2018-07-10T10:21:05Z</time>
      </trkpt>
      <trkpt lat="45.93473" lon="4.72355">
        <ele>173</ele>
        <time>2018-07-10T10:21:06Z</time>
      </trkpt>
      <trkpt lat="45.93469" lon="4.72361">
        <ele>173</ele>
        <time>2018-07-10T10:21:07Z</time>
      </trkpt>
      <trkpt lat="45.93465" lon="4.72367">
        <ele>173</ele>
        <time>2018-07-10T10:21:08Z</time>
      </trkpt>
      <trkpt lat="45.93462" lon="4.72373">
        <ele>173</ele>
        <time>2018-07-10T10:21:09Z</time>
      </trkpt>
      <trkpt lat="45.93458" lon="4.72376">
        <ele>173</ele>
        <time>2018-07-10T10:21:10Z</time>
      </trkpt>
      <trkpt lat="45.93453" lon="4.72382">
        <ele>173</ele>
        <time>2018-07-10T10:21:11Z</time>
      </trkpt>
      <trkpt lat="45.93449" lon="4.72386">
        <ele>173</ele>
        <time>2018-07-10T10:21:12Z</time>
      </trkpt>
      <trkpt lat="45.93443" lon="4.7239">
        <ele>173</ele>
        <time>2018-07-10T10:21:13Z</time>
      </trkpt>
      <trkpt lat="45.93437" lon="4.72393">
        <ele>173</ele>
        <time>2018-07-10T10:21:14Z</time>
      </trkpt>
      <trkpt lat="45.93433" lon="4.72396">
        <ele>173</ele>
        <time>2018-07-10T10:21:15Z</time>
      </trkpt>
      <trkpt lat="45.93427" lon="4.72397">
        <ele>174</ele>
        <time>2018-07-10T10:21:16Z</time>
      </trkpt>
      <trkpt lat="45.93423" lon="4.72398">
        <ele>174</ele>
        <time>2018-07-10T10:21:17Z</time>
      </trkpt>
      <trkpt lat="45.93417" lon="4.724">
        <ele>174</ele>
        <time>2018-07-10T10:21:18Z</time>
      </trkpt>
      <trkpt lat="45.93412" lon="4.72402">
        <ele>174</ele>
        <time>2018-07-10T10:21:19Z</time>
      </trkpt>
      <trkpt lat="45.93407" lon="4.724">
        <ele>174</ele>
        <time>2018-07-10T10:21:20Z</time>
      </trkpt>
      <trkpt lat="45.93401" lon="4.724">
        <ele>174</ele>
        <time>2018-07-10T10:21:21Z</time>
      </trkpt>
      <trkpt lat="45.93392" lon="4.72403">
        <ele>174</ele>
        <time>2018-07-10T10:21:23Z</time>
      </trkpt>
      <trkpt lat="45.93389" lon="4.72409">
        <ele>174</ele>
        <time>2018-07-10T10:21:24Z</time>
      </trkpt>
      <trkpt lat="45.93387" lon="4.72415">
        <ele>174</ele>
        <time>2018-07-10T10:21:25Z</time>
      </trkpt>
      <trkpt lat="45.93388" lon="4.72422">
        <ele>173</ele>
        <time>2018-07-10T10:21:26Z</time>
      </trkpt>
      <trkpt lat="45.93389" lon="4.72429">
        <ele>173</ele>
        <time>2018-07-10T10:21:27Z</time>
      </trkpt>
      <trkpt lat="45.93391" lon="4.72436">
        <ele>173</ele>
        <time>2018-07-10T10:21:28Z</time>
      </trkpt>
      <trkpt lat="45.93393" lon="4.72443">
        <ele>173</ele>
        <time>2018-07-10T10:21:29Z</time>
      </trkpt>
      <trkpt lat="45.93395" lon="4.72451">
        <ele>173</ele>
        <time>2018-07-10T10:21:30Z</time>
      </trkpt>
      <trkpt lat="45.93391" lon="4.72457">
        <ele>173</ele>
        <time>2018-07-10T10:21:31Z</time>
      </trkpt>
      <trkpt lat="45.93389" lon="4.72463">
        <ele>173</ele>
        <time>2018-07-10T10:21:32Z</time>
      </trkpt>
      <trkpt lat="45.93385" lon="4.72468">
        <ele>173</ele>
        <time>2018-07-10T10:21:33Z</time>
      </trkpt>
      <trkpt lat="45.9338" lon="4.72472">
        <ele>173</ele>
        <time>2018-07-10T10:21:34Z</time>
      </trkpt>
      <trkpt lat="45.93376" lon="4.72476">
        <ele>173</ele>
        <time>2018-07-10T10:21:35Z</time>
      </trkpt>
      <trkpt lat="45.93371" lon="4.72481">
        <ele>173</ele>
        <time>2018-07-10T10:21:36Z</time>
      </trkpt>
      <trkpt lat="45.93368" lon="4.72486">
        <ele>173</ele>
        <time>2018-07-10T10:21:37Z</time>
      </trkpt>
      <trkpt lat="45.93364" lon="4.72492">
        <ele>173</ele>
        <time>2018-07-10T10:21:38Z</time>
      </trkpt>
      <trkpt lat="45.93359" lon="4.72497">
        <ele>173</ele>
        <time>2018-07-10T10:21:39Z</time>
      </trkpt>
      <trkpt lat="45.93354" lon="4.72502">
        <ele>172</ele>
        <time>2018-07-10T10:21:40Z</time>
      </trkpt>
      <trkpt lat="45.93351" lon="4.72508">
        <ele>172</ele>
        <time>2018-07-10T10:21:41Z</time>
      </trkpt>
      <trkpt lat="45.93347" lon="4.72513">
        <ele>172</ele>
        <time>2018-07-10T10:21:42Z</time>
      </trkpt>
      <trkpt lat="45.93341" lon="4.72519">
        <ele>172</ele>
        <time>2018-07-10T10:21:43Z</time>
      </trkpt>
      <trkpt lat="45.93337" lon="4.72525">
        <ele>172</ele>
        <time>2018-07-10T10:21:44Z</time>
      </trkpt>
      <trkpt lat="45.93332" lon="4.7253">
        <ele>172</ele>
        <time>2018-07-10T10:21:45Z</time>
      </trkpt>
      <trkpt lat="45.93326" lon="4.72537">
        <ele>172</ele>
        <time>2018-07-10T10:21:46Z</time>
      </trkpt>
      <trkpt lat="45.93321" lon="4.72542">
        <ele>172</ele>
        <time>2018-07-10T10:21:47Z</time>
      </trkpt>
      <trkpt lat="45.93317" lon="4.72548">
        <ele>172</ele>
        <time>2018-07-10T10:21:48Z</time>
      </trkpt>
      <trkpt lat="45.93311" lon="4.72551">
        <ele>172</ele>
        <time>2018-07-10T10:21:49Z</time>
      </trkpt>
      <trkpt lat="45.93308" lon="4.72555">
        <ele>172</ele>
        <time>2018-07-10T10:21:50Z</time>
      </trkpt>
      <trkpt lat="45.93303" lon="4.72561">
        <ele>172</ele>
        <time>2018-07-10T10:21:51Z</time>
      </trkpt>
      <trkpt lat="45.93297" lon="4.72567">
        <ele>172</ele>
        <time>2018-07-10T10:21:52Z</time>
      </trkpt>
      <trkpt lat="45.93292" lon="4.72575">
        <ele>171</ele>
        <time>2018-07-10T10:21:53Z</time>
      </trkpt>
      <trkpt lat="45.93287" lon="4.7258">
        <ele>171</ele>
        <time>2018-07-10T10:21:54Z</time>
      </trkpt>
      <trkpt lat="45.93283" lon="4.72583">
        <ele>171</ele>
        <time>2018-07-10T10:21:55Z</time>
      </trkpt>
      <trkpt lat="45.93278" lon="4.72589">
        <ele>170</ele>
        <time>2018-07-10T10:21:56Z</time>
      </trkpt>
      <trkpt lat="45.93274" lon="4.72594">
        <ele>170</ele>
        <time>2018-07-10T10:21:57Z</time>
      </trkpt>
      <trkpt lat="45.9327" lon="4.72599">
        <ele>170</ele>
        <time>2018-07-10T10:21:58Z</time>
      </trkpt>
      <trkpt lat="45.93265" lon="4.72605">
        <ele>170</ele>
        <time>2018-07-10T10:21:59Z</time>
      </trkpt>
      <trkpt lat="45.93261" lon="4.72611">
        <ele>170</ele>
        <time>2018-07-10T10:22:00Z</time>
      </trkpt>
      <trkpt lat="45.93257" lon="4.72617">
        <ele>170</ele>
        <time>2018-07-10T10:22:01Z</time>
      </trkpt>
      <trkpt lat="45.93252" lon="4.72623">
        <ele>170</ele>
        <time>2018-07-10T10:22:02Z</time>
      </trkpt>
      <trkpt lat="45.93246" lon="4.72629">
        <ele>170</ele>
        <time>2018-07-10T10:22:03Z</time>
      </trkpt>
      <trkpt lat="45.93241" lon="4.72634">
        <ele>170</ele>
        <time>2018-07-10T10:22:04Z</time>
      </trkpt>
      <trkpt lat="45.93236" lon="4.7264">
        <ele>170</ele>
        <time>2018-07-10T10:22:05Z</time>
      </trkpt>
      <trkpt lat="45.93232" lon="4.72646">
        <ele>170</ele>
        <time>2018-07-10T10:22:06Z</time>
      </trkpt>
      <trkpt lat="45.93227" lon="4.72651">
        <ele>170</ele>
        <time>2018-07-10T10:22:07Z</time>
      </trkpt>
      <trkpt lat="45.93221" lon="4.72656">
        <ele>170</ele>
        <time>2018-07-10T10:22:08Z</time>
      </trkpt>
      <trkpt lat="45.93216" lon="4.72662">
        <ele>170</ele>
        <time>2018-07-10T10:22:09Z</time>
      </trkpt>
      <trkpt lat="45.93214" lon="4.72666">
        <ele>170</ele>
        <time>2018-07-10T10:22:10Z</time>
      </trkpt>
      <trkpt lat="45.93211" lon="4.72673">
        <ele>169</ele>
        <time>2018-07-10T10:22:11Z</time>
      </trkpt>
      <trkpt lat="45.93206" lon="4.72681">
        <ele>169</ele>
        <time>2018-07-10T10:22:12Z</time>
      </trkpt>
      <trkpt lat="45.93201" lon="4.72687">
        <ele>169</ele>
        <time>2018-07-10T10:22:13Z</time>
      </trkpt>
      <trkpt lat="45.93196" lon="4.72693">
        <ele>169</ele>
        <time>2018-07-10T10:22:14Z</time>
      </trkpt>
      <trkpt lat="45.9319" lon="4.72697">
        <ele>169</ele>
        <time>2018-07-10T10:22:15Z</time>
      </trkpt>
      <trkpt lat="45.93184" lon="4.72702">
        <ele>169</ele>
        <time>2018-07-10T10:22:16Z</time>
      </trkpt>
      <trkpt lat="45.93179" lon="4.72708">
        <ele>169</ele>
        <time>2018-07-10T10:22:17Z</time>
      </trkpt>
      <trkpt lat="45.93174" lon="4.72715">
        <ele>170</ele>
        <time>2018-07-10T10:22:18Z</time>
      </trkpt>
      <trkpt lat="45.93169" lon="4.72719">
        <ele>170</ele>
        <time>2018-07-10T10:22:19Z</time>
      </trkpt>
      <trkpt lat="45.93163" lon="4.72725">
        <ele>170</ele>
        <time>2018-07-10T10:22:20Z</time>
      </trkpt>
      <trkpt lat="45.93157" lon="4.7273">
        <ele>170</ele>
        <time>2018-07-10T10:22:21Z</time>
      </trkpt>
      <trkpt lat="45.93151" lon="4.72737">
        <ele>170</ele>
        <time>2018-07-10T10:22:22Z</time>
      </trkpt>
      <trkpt lat="45.93146" lon="4.72745">
        <ele>170</ele>
        <time>2018-07-10T10:22:23Z</time>
      </trkpt>
      <trkpt lat="45.9314" lon="4.72751">
        <ele>171</ele>
        <time>2018-07-10T10:22:24Z</time>
      </trkpt>
      <trkpt lat="45.93134" lon="4.72756">
        <ele>171</ele>
        <time>2018-07-10T10:22:25Z</time>
      </trkpt>
      <trkpt lat="45.93129" lon="4.72763">
        <ele>171</ele>
        <time>2018-07-10T10:22:26Z</time>
      </trkpt>
      <trkpt lat="45.93124" lon="4.72769">
        <ele>171</ele>
        <time>2018-07-10T10:22:27Z</time>
      </trkpt>
      <trkpt lat="45.93119" lon="4.72775">
        <ele>171</ele>
        <time>2018-07-10T10:22:28Z</time>
      </trkpt>
      <trkpt lat="45.93115" lon="4.72785">
        <ele>171</ele>
        <time>2018-07-10T10:22:29Z</time>
      </trkpt>
      <trkpt lat="45.9311" lon="4.72792">
        <ele>171</ele>
        <time>2018-07-10T10:22:30Z</time>
      </trkpt>
      <trkpt lat="45.93105" lon="4.72799">
        <ele>171</ele>
        <time>2018-07-10T10:22:31Z</time>
      </trkpt>
      <trkpt lat="45.93099" lon="4.72804">
        <ele>171</ele>
        <time>2018-07-10T10:22:32Z</time>
      </trkpt>
      <trkpt lat="45.93095" lon="4.72809">
        <ele>172</ele>
        <time>2018-07-10T10:22:33Z</time>
      </trkpt>
      <trkpt lat="45.93089" lon="4.72814">
        <ele>172</ele>
        <time>2018-07-10T10:22:34Z</time>
      </trkpt>
      <trkpt lat="45.93085" lon="4.72821">
        <ele>172</ele>
        <time>2018-07-10T10:22:35Z</time>
      </trkpt>
      <trkpt lat="45.9308" lon="4.72827">
        <ele>173</ele>
        <time>2018-07-10T10:22:36Z</time>
      </trkpt>
      <trkpt lat="45.93044" lon="4.72864">
        <ele>172</ele>
        <time>2018-07-10T10:22:42Z</time>
      </trkpt>
      <trkpt lat="45.93041" lon="4.72861">
        <ele>172</ele>
        <time>2018-07-10T10:22:44Z</time>
      </trkpt>
      <trkpt lat="45.93035" lon="4.72872">
        <ele>172</ele>
        <time>2018-07-10T10:22:45Z</time>
      </trkpt>
      <trkpt lat="45.93031" lon="4.72877">
        <ele>172</ele>
        <time>2018-07-10T10:22:46Z</time>
      </trkpt>
      <trkpt lat="45.93027" lon="4.72883">
        <ele>172</ele>
        <time>2018-07-10T10:22:47Z</time>
      </trkpt>
      <trkpt lat="45.93022" lon="4.72888">
        <ele>172</ele>
        <time>2018-07-10T10:22:48Z</time>
      </trkpt>
      <trkpt lat="45.93018" lon="4.72893">
        <ele>172</ele>
        <time>2018-07-10T10:22:49Z</time>
      </trkpt>
      <trkpt lat="45.93013" lon="4.729">
        <ele>172</ele>
        <time>2018-07-10T10:22:50Z</time>
      </trkpt>
      <trkpt lat="45.93008" lon="4.72906">
        <ele>171</ele>
        <time>2018-07-10T10:22:51Z</time>
      </trkpt>
      <trkpt lat="45.93004" lon="4.72911">
        <ele>171</ele>
        <time>2018-07-10T10:22:52Z</time>
      </trkpt>
      <trkpt lat="45.92999" lon="4.72917">
        <ele>171</ele>
        <time>2018-07-10T10:22:53Z</time>
      </trkpt>
      <trkpt lat="45.92994" lon="4.72923">
        <ele>171</ele>
        <time>2018-07-10T10:22:54Z</time>
      </trkpt>
      <trkpt lat="45.9299" lon="4.72928">
        <ele>171</ele>
        <time>2018-07-10T10:22:55Z</time>
      </trkpt>
      <trkpt lat="45.92985" lon="4.72934">
        <ele>171</ele>
        <time>2018-07-10T10:22:56Z</time>
      </trkpt>
      <trkpt lat="45.92981" lon="4.72939">
        <ele>171</ele>
        <time>2018-07-10T10:22:57Z</time>
      </trkpt>
      <trkpt lat="45.92976" lon="4.72944">
        <ele>171</ele>
        <time>2018-07-10T10:22:58Z</time>
      </trkpt>
      <trkpt lat="45.92971" lon="4.7295">
        <ele>171</ele>
        <time>2018-07-10T10:22:59Z</time>
      </trkpt>
      <trkpt lat="45.92967" lon="4.72956">
        <ele>171</ele>
        <time>2018-07-10T10:23:00Z</time>
      </trkpt>
      <trkpt lat="45.92963" lon="4.72961">
        <ele>171</ele>
        <time>2018-07-10T10:23:01Z</time>
      </trkpt>
      <trkpt lat="45.92958" lon="4.72966">
        <ele>171</ele>
        <time>2018-07-10T10:23:02Z</time>
      </trkpt>
      <trkpt lat="45.92953" lon="4.7297">
        <ele>171</ele>
        <time>2018-07-10T10:23:03Z</time>
      </trkpt>
      <trkpt lat="45.92948" lon="4.72975">
        <ele>171</ele>
        <time>2018-07-10T10:23:04Z</time>
      </trkpt>
      <trkpt lat="45.92944" lon="4.72981">
        <ele>171</ele>
        <time>2018-07-10T10:23:05Z</time>
      </trkpt>
      <trkpt lat="45.92941" lon="4.72985">
        <ele>171</ele>
        <time>2018-07-10T10:23:06Z</time>
      </trkpt>
      <trkpt lat="45.92937" lon="4.72991">
        <ele>171</ele>
        <time>2018-07-10T10:23:07Z</time>
      </trkpt>
      <trkpt lat="45.92932" lon="4.72996">
        <ele>172</ele>
        <time>2018-07-10T10:23:08Z</time>
      </trkpt>
      <trkpt lat="45.92928" lon="4.73002">
        <ele>172</ele>
        <time>2018-07-10T10:23:09Z</time>
      </trkpt>
      <trkpt lat="45.92923" lon="4.73008">
        <ele>172</ele>
        <time>2018-07-10T10:23:10Z</time>
      </trkpt>
      <trkpt lat="45.92919" lon="4.73017">
        <ele>172</ele>
        <time>2018-07-10T10:23:11Z</time>
      </trkpt>
      <trkpt lat="45.92914" lon="4.73023">
        <ele>172</ele>
        <time>2018-07-10T10:23:12Z</time>
      </trkpt>
      <trkpt lat="45.92909" lon="4.73029">
        <ele>172</ele>
        <time>2018-07-10T10:23:13Z</time>
      </trkpt>
      <trkpt lat="45.92905" lon="4.73035">
        <ele>172</ele>
        <time>2018-07-10T10:23:14Z</time>
      </trkpt>
      <trkpt lat="45.929" lon="4.73043">
        <ele>172</ele>
        <time>2018-07-10T10:23:15Z</time>
      </trkpt>
      <trkpt lat="45.92896" lon="4.73049">
        <ele>172</ele>
        <time>2018-07-10T10:23:16Z</time>
      </trkpt>
      <trkpt lat="45.92892" lon="4.73055">
        <ele>172</ele>
        <time>2018-07-10T10:23:17Z</time>
      </trkpt>
      <trkpt lat="45.92889" lon="4.73061">
        <ele>172</ele>
        <time>2018-07-10T10:23:18Z</time>
      </trkpt>
      <trkpt lat="45.92885" lon="4.73067">
        <ele>172</ele>
        <time>2018-07-10T10:23:19Z</time>
      </trkpt>
      <trkpt lat="45.92882" lon="4.73072">
        <ele>172</ele>
        <time>2018-07-10T10:23:20Z</time>
      </trkpt>
      <trkpt lat="45.92878" lon="4.73078">
        <ele>172</ele>
        <time>2018-07-10T10:23:21Z</time>
      </trkpt>
      <trkpt lat="45.92874" lon="4.73085">
        <ele>172</ele>
        <time>2018-07-10T10:23:22Z</time>
      </trkpt>
      <trkpt lat="45.92871" lon="4.73092">
        <ele>172</ele>
        <time>2018-07-10T10:23:23Z</time>
      </trkpt>
      <trkpt lat="45.92867" lon="4.73096">
        <ele>172</ele>
        <time>2018-07-10T10:23:24Z</time>
      </trkpt>
      <trkpt lat="45.92863" lon="4.731">
        <ele>171</ele>
        <time>2018-07-10T10:23:25Z</time>
      </trkpt>
      <trkpt lat="45.92859" lon="4.73101">
        <ele>171</ele>
        <time>2018-07-10T10:23:27Z</time>
      </trkpt>
      <trkpt lat="45.92852" lon="4.73096">
        <ele>171</ele>
        <time>2018-07-10T10:23:28Z</time>
      </trkpt>
      <trkpt lat="45.92851" lon="4.73084">
        <ele>171</ele>
        <time>2018-07-10T10:23:30Z</time>
      </trkpt>
      <trkpt lat="45.9285" lon="4.73078">
        <ele>171</ele>
        <time>2018-07-10T10:23:31Z</time>
      </trkpt>
      <trkpt lat="45.92848" lon="4.7307">
        <ele>171</ele>
        <time>2018-07-10T10:23:32Z</time>
      </trkpt>
      <trkpt lat="45.92847" lon="4.73061">
        <ele>171</ele>
        <time>2018-07-10T10:23:33Z</time>
      </trkpt>
      <trkpt lat="45.92846" lon="4.73055">
        <ele>171</ele>
        <time>2018-07-10T10:23:34Z</time>
      </trkpt>
      <trkpt lat="45.92844" lon="4.73048">
        <ele>171</ele>
        <time>2018-07-10T10:23:35Z</time>
      </trkpt>
      <trkpt lat="45.92843" lon="4.73041">
        <ele>171</ele>
        <time>2018-07-10T10:23:36Z</time>
      </trkpt>
      <trkpt lat="45.92842" lon="4.73032">
        <ele>171</ele>
        <time>2018-07-10T10:23:37Z</time>
      </trkpt>
      <trkpt lat="45.9284" lon="4.73026">
        <ele>171</ele>
        <time>2018-07-10T10:23:38Z</time>
      </trkpt>
      <trkpt lat="45.92839" lon="4.7302">
        <ele>171</ele>
        <time>2018-07-10T10:23:39Z</time>
      </trkpt>
      <trkpt lat="45.92838" lon="4.73013">
        <ele>171</ele>
        <time>2018-07-10T10:23:40Z</time>
      </trkpt>
      <trkpt lat="45.92837" lon="4.73005">
        <ele>170</ele>
        <time>2018-07-10T10:23:41Z</time>
      </trkpt>
      <trkpt lat="45.92835" lon="4.72999">
        <ele>170</ele>
        <time>2018-07-10T10:23:42Z</time>
      </trkpt>
      <trkpt lat="45.92834" lon="4.72991">
        <ele>170</ele>
        <time>2018-07-10T10:23:43Z</time>
      </trkpt>
      <trkpt lat="45.92833" lon="4.72984">
        <ele>171</ele>
        <time>2018-07-10T10:23:44Z</time>
      </trkpt>
      <trkpt lat="45.92834" lon="4.72977">
        <ele>171</ele>
        <time>2018-07-10T10:23:45Z</time>
      </trkpt>
      <trkpt lat="45.92831" lon="4.72964">
        <ele>170</ele>
        <time>2018-07-10T10:23:47Z</time>
      </trkpt>
      <trkpt lat="45.92831" lon="4.72959">
        <ele>170</ele>
        <time>2018-07-10T10:23:48Z</time>
      </trkpt>
      <trkpt lat="45.92829" lon="4.72952">
        <ele>170</ele>
        <time>2018-07-10T10:23:49Z</time>
      </trkpt>
      <trkpt lat="45.92828" lon="4.72946">
        <ele>170</ele>
        <time>2018-07-10T10:23:50Z</time>
      </trkpt>
      <trkpt lat="45.92826" lon="4.72941">
        <ele>170</ele>
        <time>2018-07-10T10:23:51Z</time>
      </trkpt>
      <trkpt lat="45.92825" lon="4.72934">
        <ele>170</ele>
        <time>2018-07-10T10:23:52Z</time>
      </trkpt>
      <trkpt lat="45.92825" lon="4.72922">
        <ele>170</ele>
        <time>2018-07-10T10:23:54Z</time>
      </trkpt>
      <trkpt lat="45.92825" lon="4.72917">
        <ele>170</ele>
        <time>2018-07-10T10:23:55Z</time>
      </trkpt>
      <trkpt lat="45.92824" lon="4.72911">
        <ele>170</ele>
        <time>2018-07-10T10:23:56Z</time>
      </trkpt>
      <trkpt lat="45.92823" lon="4.72904">
        <ele>170</ele>
        <time>2018-07-10T10:23:57Z</time>
      </trkpt>
      <trkpt lat="45.92822" lon="4.72898">
        <ele>170</ele>
        <time>2018-07-10T10:23:58Z</time>
      </trkpt>
      <trkpt lat="45.92821" lon="4.72891">
        <ele>170</ele>
        <time>2018-07-10T10:23:59Z</time>
      </trkpt>
      <trkpt lat="45.92821" lon="4.72884">
        <ele>170</ele>
        <time>2018-07-10T10:24:00Z</time>
      </trkpt>
      <trkpt lat="45.9282" lon="4.72878">
        <ele>170</ele>
        <time>2018-07-10T10:24:01Z</time>
      </trkpt>
      <trkpt lat="45.92818" lon="4.72871">
        <ele>170</ele>
        <time>2018-07-10T10:24:02Z</time>
      </trkpt>
      <trkpt lat="45.92817" lon="4.72863">
        <ele>170</ele>
        <time>2018-07-10T10:24:03Z</time>
      </trkpt>
      <trkpt lat="45.92815" lon="4.72856">
        <ele>170</ele>
        <time>2018-07-10T10:24:04Z</time>
      </trkpt>
      <trkpt lat="45.92812" lon="4.72849">
        <ele>170</ele>
        <time>2018-07-10T10:24:05Z</time>
      </trkpt>
      <trkpt lat="45.92811" lon="4.72841">
        <ele>170</ele>
        <time>2018-07-10T10:24:06Z</time>
      </trkpt>
      <trkpt lat="45.92808" lon="4.72833">
        <ele>171</ele>
        <time>2018-07-10T10:24:07Z</time>
      </trkpt>
      <trkpt lat="45.92807" lon="4.72825">
        <ele>171</ele>
        <time>2018-07-10T10:24:08Z</time>
      </trkpt>
      <trkpt lat="45.92804" lon="4.72819">
        <ele>171</ele>
        <time>2018-07-10T10:24:09Z</time>
      </trkpt>
      <trkpt lat="45.92802" lon="4.72811">
        <ele>171</ele>
        <time>2018-07-10T10:24:10Z</time>
      </trkpt>
      <trkpt lat="45.92802" lon="4.72804">
        <ele>171</ele>
        <time>2018-07-10T10:24:11Z</time>
      </trkpt>
      <trkpt lat="45.928" lon="4.72797">
        <ele>171</ele>
        <time>2018-07-10T10:24:12Z</time>
      </trkpt>
      <trkpt lat="45.92799" lon="4.72792">
        <ele>171</ele>
        <time>2018-07-10T10:24:13Z</time>
      </trkpt>
      <trkpt lat="45.92796" lon="4.72786">
        <ele>171</ele>
        <time>2018-07-10T10:24:15Z</time>
      </trkpt>
      <trkpt lat="45.92789" lon="4.72784">
        <ele>171</ele>
        <time>2018-07-10T10:24:16Z</time>
      </trkpt>
      <trkpt lat="45.92783" lon="4.72789">
        <ele>170</ele>
        <time>2018-07-10T10:24:18Z</time>
      </trkpt>
      <trkpt lat="45.9278" lon="4.72792">
        <ele>170</ele>
        <time>2018-07-10T10:24:19Z</time>
      </trkpt>
      <trkpt lat="45.92772" lon="4.72797">
        <ele>170</ele>
        <time>2018-07-10T10:24:21Z</time>
      </trkpt>
      <trkpt lat="45.92768" lon="4.728">
        <ele>170</ele>
        <time>2018-07-10T10:24:22Z</time>
      </trkpt>
      <trkpt lat="45.9276" lon="4.72805">
        <ele>170</ele>
        <time>2018-07-10T10:24:24Z</time>
      </trkpt>
      <trkpt lat="45.92756" lon="4.72807">
        <ele>170</ele>
        <time>2018-07-10T10:24:25Z</time>
      </trkpt>
      <trkpt lat="45.9275" lon="4.72813">
        <ele>170</ele>
        <time>2018-07-10T10:24:26Z</time>
      </trkpt>
      <trkpt lat="45.92746" lon="4.72817">
        <ele>170</ele>
        <time>2018-07-10T10:24:27Z</time>
      </trkpt>
      <trkpt lat="45.92741" lon="4.7282">
        <ele>169</ele>
        <time>2018-07-10T10:24:28Z</time>
      </trkpt>
      <trkpt lat="45.92737" lon="4.72825">
        <ele>169</ele>
        <time>2018-07-10T10:24:29Z</time>
      </trkpt>
      <trkpt lat="45.92732" lon="4.7283">
        <ele>169</ele>
        <time>2018-07-10T10:24:30Z</time>
      </trkpt>
      <trkpt lat="45.92727" lon="4.72837">
        <ele>169</ele>
        <time>2018-07-10T10:24:31Z</time>
      </trkpt>
      <trkpt lat="45.92722" lon="4.72842">
        <ele>169</ele>
        <time>2018-07-10T10:24:32Z</time>
      </trkpt>
      <trkpt lat="45.92716" lon="4.72846">
        <ele>169</ele>
        <time>2018-07-10T10:24:33Z</time>
      </trkpt>
      <trkpt lat="45.92711" lon="4.7285">
        <ele>169</ele>
        <time>2018-07-10T10:24:34Z</time>
      </trkpt>
      <trkpt lat="45.92705" lon="4.72854">
        <ele>169</ele>
        <time>2018-07-10T10:24:35Z</time>
      </trkpt>
      <trkpt lat="45.927" lon="4.72859">
        <ele>169</ele>
        <time>2018-07-10T10:24:36Z</time>
      </trkpt>
      <trkpt lat="45.92697" lon="4.72863">
        <ele>169</ele>
        <time>2018-07-10T10:24:37Z</time>
      </trkpt>
      <trkpt lat="45.92692" lon="4.72867">
        <ele>169</ele>
        <time>2018-07-10T10:24:38Z</time>
      </trkpt>
      <trkpt lat="45.92687" lon="4.7287">
        <ele>169</ele>
        <time>2018-07-10T10:24:39Z</time>
      </trkpt>
      <trkpt lat="45.92683" lon="4.72873">
        <ele>169</ele>
        <time>2018-07-10T10:24:40Z</time>
      </trkpt>
      <trkpt lat="45.92678" lon="4.72877">
        <ele>170</ele>
        <time>2018-07-10T10:24:41Z</time>
      </trkpt>
      <trkpt lat="45.92673" lon="4.7288">
        <ele>170</ele>
        <time>2018-07-10T10:24:42Z</time>
      </trkpt>
      <trkpt lat="45.92668" lon="4.72884">
        <ele>170</ele>
        <time>2018-07-10T10:24:43Z</time>
      </trkpt>
      <trkpt lat="45.92663" lon="4.7289">
        <ele>169</ele>
        <time>2018-07-10T10:24:44Z</time>
      </trkpt>
      <trkpt lat="45.92657" lon="4.72895">
        <ele>170</ele>
        <time>2018-07-10T10:24:45Z</time>
      </trkpt>
      <trkpt lat="45.92651" lon="4.729">
        <ele>170</ele>
        <time>2018-07-10T10:24:46Z</time>
      </trkpt>
      <trkpt lat="45.92645" lon="4.72904">
        <ele>170</ele>
        <time>2018-07-10T10:24:47Z</time>
      </trkpt>
      <trkpt lat="45.9264" lon="4.72909">
        <ele>169</ele>
        <time>2018-07-10T10:24:48Z</time>
      </trkpt>
      <trkpt lat="45.92635" lon="4.72913">
        <ele>169</ele>
        <time>2018-07-10T10:24:49Z</time>
      </trkpt>
      <trkpt lat="45.92629" lon="4.72917">
        <ele>170</ele>
        <time>2018-07-10T10:24:50Z</time>
      </trkpt>
      <trkpt lat="45.92622" lon="4.72921">
        <ele>169</ele>
        <time>2018-07-10T10:24:51Z</time>
      </trkpt>
      <trkpt lat="45.92617" lon="4.72925">
        <ele>169</ele>
        <time>2018-07-10T10:24:52Z</time>
      </trkpt>
      <trkpt lat="45.9261" lon="4.72933">
        <ele>169</ele>
        <time>2018-07-10T10:24:53Z</time>
      </trkpt>
      <trkpt lat="45.92605" lon="4.72939">
        <ele>169</ele>
        <time>2018-07-10T10:24:54Z</time>
      </trkpt>
      <trkpt lat="45.92599" lon="4.72945">
        <ele>169</ele>
        <time>2018-07-10T10:24:55Z</time>
      </trkpt>
      <trkpt lat="45.92593" lon="4.72952">
        <ele>169</ele>
        <time>2018-07-10T10:24:56Z</time>
      </trkpt>
      <trkpt lat="45.92587" lon="4.72959">
        <ele>169</ele>
        <time>2018-07-10T10:24:57Z</time>
      </trkpt>
      <trkpt lat="45.92582" lon="4.72965">
        <ele>169</ele>
        <time>2018-07-10T10:24:58Z</time>
      </trkpt>
      <trkpt lat="45.92576" lon="4.72971">
        <ele>169</ele>
        <time>2018-07-10T10:24:59Z</time>
      </trkpt>
      <trkpt lat="45.92571" lon="4.72978">
        <ele>169</ele>
        <time>2018-07-10T10:25:00Z</time>
      </trkpt>
      <trkpt lat="45.92565" lon="4.72985">
        <ele>169</ele>
        <time>2018-07-10T10:25:01Z</time>
      </trkpt>
      <trkpt lat="45.9256" lon="4.7299">
        <ele>169</ele>
        <time>2018-07-10T10:25:02Z</time>
      </trkpt>
      <trkpt lat="45.92555" lon="4.72995">
        <ele>169</ele>
        <time>2018-07-10T10:25:03Z</time>
      </trkpt>
      <trkpt lat="45.9255" lon="4.73001">
        <ele>169</ele>
        <time>2018-07-10T10:25:04Z</time>
      </trkpt>
      <trkpt lat="45.92545" lon="4.73006">
        <ele>169</ele>
        <time>2018-07-10T10:25:05Z</time>
      </trkpt>
      <trkpt lat="45.9254" lon="4.73013">
        <ele>169</ele>
        <time>2018-07-10T10:25:06Z</time>
      </trkpt>
      <trkpt lat="45.92534" lon="4.73018">
        <ele>169</ele>
        <time>2018-07-10T10:25:07Z</time>
      </trkpt>
      <trkpt lat="45.92529" lon="4.73023">
        <ele>169</ele>
        <time>2018-07-10T10:25:08Z</time>
      </trkpt>
      <trkpt lat="45.92523" lon="4.73028">
        <ele>169</ele>
        <time>2018-07-10T10:25:09Z</time>
      </trkpt>
      <trkpt lat="45.92518" lon="4.73032">
        <ele>169</ele>
        <time>2018-07-10T10:25:10Z</time>
      </trkpt>
      <trkpt lat="45.92511" lon="4.73033">
        <ele>169</ele>
        <time>2018-07-10T10:25:11Z</time>
      </trkpt>
      <trkpt lat="45.92506" lon="4.73038">
        <ele>169</ele>
        <time>2018-07-10T10:25:12Z</time>
      </trkpt>
      <trkpt lat="45.925" lon="4.73041">
        <ele>170</ele>
        <time>2018-07-10T10:25:13Z</time>
      </trkpt>
      <trkpt lat="45.92495" lon="4.73046">
        <ele>170</ele>
        <time>2018-07-10T10:25:14Z</time>
      </trkpt>
      <trkpt lat="45.92491" lon="4.73051">
        <ele>170</ele>
        <time>2018-07-10T10:25:15Z</time>
      </trkpt>
      <trkpt lat="45.92486" lon="4.73056">
        <ele>170</ele>
        <time>2018-07-10T10:25:16Z</time>
      </trkpt>
      <trkpt lat="45.92482" lon="4.73061">
        <ele>170</ele>
        <time>2018-07-10T10:25:17Z</time>
      </trkpt>
      <trkpt lat="45.92476" lon="4.73066">
        <ele>170</ele>
        <time>2018-07-10T10:25:18Z</time>
      </trkpt>
      <trkpt lat="45.92471" lon="4.73071">
        <ele>170</ele>
        <time>2018-07-10T10:25:19Z</time>
      </trkpt>
      <trkpt lat="45.92466" lon="4.73075">
        <ele>170</ele>
        <time>2018-07-10T10:25:20Z</time>
      </trkpt>
      <trkpt lat="45.9246" lon="4.73081">
        <ele>170</ele>
        <time>2018-07-10T10:25:21Z</time>
      </trkpt>
      <trkpt lat="45.92455" lon="4.73085">
        <ele>170</ele>
        <time>2018-07-10T10:25:22Z</time>
      </trkpt>
      <trkpt lat="45.92449" lon="4.7309">
        <ele>170</ele>
        <time>2018-07-10T10:25:23Z</time>
      </trkpt>
      <trkpt lat="45.92444" lon="4.73095">
        <ele>170</ele>
        <time>2018-07-10T10:25:24Z</time>
      </trkpt>
      <trkpt lat="45.92439" lon="4.73099">
        <ele>170</ele>
        <time>2018-07-10T10:25:25Z</time>
      </trkpt>
      <trkpt lat="45.92433" lon="4.73101">
        <ele>171</ele>
        <time>2018-07-10T10:25:26Z</time>
      </trkpt>
      <trkpt lat="45.92429" lon="4.73106">
        <ele>170</ele>
        <time>2018-07-10T10:25:27Z</time>
      </trkpt>
      <trkpt lat="45.92424" lon="4.73109">
        <ele>170</ele>
        <time>2018-07-10T10:25:28Z</time>
      </trkpt>
      <trkpt lat="45.92419" lon="4.73113">
        <ele>170</ele>
        <time>2018-07-10T10:25:29Z</time>
      </trkpt>
      <trkpt lat="45.92415" lon="4.73118">
        <ele>171</ele>
        <time>2018-07-10T10:25:30Z</time>
      </trkpt>
      <trkpt lat="45.92413" lon="4.73127">
        <ele>171</ele>
        <time>2018-07-10T10:25:31Z</time>
      </trkpt>
      <trkpt lat="45.92411" lon="4.73133">
        <ele>171</ele>
        <time>2018-07-10T10:25:32Z</time>
      </trkpt>
      <trkpt lat="45.92411" lon="4.73141">
        <ele>171</ele>
        <time>2018-07-10T10:25:33Z</time>
      </trkpt>
      <trkpt lat="45.9241" lon="4.73148">
        <ele>171</ele>
        <time>2018-07-10T10:25:34Z</time>
      </trkpt>
      <trkpt lat="45.9241" lon="4.73156">
        <ele>170</ele>
        <time>2018-07-10T10:25:35Z</time>
      </trkpt>
      <trkpt lat="45.9241" lon="4.73164">
        <ele>170</ele>
        <time>2018-07-10T10:25:36Z</time>
      </trkpt>
      <trkpt lat="45.9241" lon="4.73172">
        <ele>170</ele>
        <time>2018-07-10T10:25:37Z</time>
      </trkpt>
      <trkpt lat="45.92411" lon="4.73181">
        <ele>171</ele>
        <time>2018-07-10T10:25:38Z</time>
      </trkpt>
      <trkpt lat="45.92411" lon="4.7319">
        <ele>171</ele>
        <time>2018-07-10T10:25:39Z</time>
      </trkpt>
      <trkpt lat="45.9241" lon="4.73198">
        <ele>171</ele>
        <time>2018-07-10T10:25:40Z</time>
      </trkpt>
      <trkpt lat="45.9241" lon="4.73207">
        <ele>171</ele>
        <time>2018-07-10T10:25:41Z</time>
      </trkpt>
      <trkpt lat="45.92411" lon="4.73217">
        <ele>171</ele>
        <time>2018-07-10T10:25:42Z</time>
      </trkpt>
      <trkpt lat="45.9241" lon="4.73226">
        <ele>171</ele>
        <time>2018-07-10T10:25:43Z</time>
      </trkpt>
      <trkpt lat="45.92411" lon="4.73234">
        <ele>171</ele>
        <time>2018-07-10T10:25:44Z</time>
      </trkpt>
      <trkpt lat="45.92412" lon="4.73243">
        <ele>171</ele>
        <time>2018-07-10T10:25:45Z</time>
      </trkpt>
      <trkpt lat="45.92411" lon="4.73253">
        <ele>171</ele>
        <time>2018-07-10T10:25:46Z</time>
      </trkpt>
      <trkpt lat="45.92412" lon="4.73261">
        <ele>171</ele>
        <time>2018-07-10T10:25:47Z</time>
      </trkpt>
      <trkpt lat="45.92413" lon="4.73271">
        <ele>171</ele>
        <time>2018-07-10T10:25:48Z</time>
      </trkpt>
      <trkpt lat="45.92413" lon="4.73278">
        <ele>171</ele>
        <time>2018-07-10T10:25:49Z</time>
      </trkpt>
      <trkpt lat="45.92413" lon="4.73287">
        <ele>171</ele>
        <time>2018-07-10T10:25:50Z</time>
      </trkpt>
      <trkpt lat="45.92413" lon="4.73296">
        <ele>171</ele>
        <time>2018-07-10T10:25:51Z</time>
      </trkpt>
      <trkpt lat="45.92413" lon="4.73305">
        <ele>171</ele>
        <time>2018-07-10T10:25:52Z</time>
      </trkpt>
      <trkpt lat="45.92414" lon="4.73314">
        <ele>171</ele>
        <time>2018-07-10T10:25:53Z</time>
      </trkpt>
      <trkpt lat="45.92415" lon="4.73323">
        <ele>171</ele>
        <time>2018-07-10T10:25:54Z</time>
      </trkpt>
      <trkpt lat="45.92416" lon="4.73332">
        <ele>171</ele>
        <time>2018-07-10T10:25:55Z</time>
      </trkpt>
      <trkpt lat="45.92417" lon="4.73341">
        <ele>171</ele>
        <time>2018-07-10T10:25:56Z</time>
      </trkpt>
      <trkpt lat="45.92418" lon="4.7335">
        <ele>171</ele>
        <time>2018-07-10T10:25:57Z</time>
      </trkpt>
      <trkpt lat="45.92419" lon="4.73358">
        <ele>171</ele>
        <time>2018-07-10T10:25:58Z</time>
      </trkpt>
      <trkpt lat="45.92421" lon="4.73367">
        <ele>172</ele>
        <time>2018-07-10T10:25:59Z</time>
      </trkpt>
      <trkpt lat="45.92422" lon="4.73375">
        <ele>172</ele>
        <time>2018-07-10T10:26:00Z</time>
      </trkpt>
      <trkpt lat="45.92424" lon="4.73384">
        <ele>172</ele>
        <time>2018-07-10T10:26:01Z</time>
      </trkpt>
      <trkpt lat="45.92426" lon="4.73393">
        <ele>172</ele>
        <time>2018-07-10T10:26:02Z</time>
      </trkpt>
      <trkpt lat="45.92431" lon="4.73399">
        <ele>172</ele>
        <time>2018-07-10T10:26:03Z</time>
      </trkpt>
      <trkpt lat="45.92434" lon="4.73406">
        <ele>172</ele>
        <time>2018-07-10T10:26:04Z</time>
      </trkpt>
      <trkpt lat="45.92439" lon="4.73409">
        <ele>172</ele>
        <time>2018-07-10T10:26:05Z</time>
      </trkpt>
      <trkpt lat="45.92444" lon="4.73413">
        <ele>172</ele>
        <time>2018-07-10T10:26:06Z</time>
      </trkpt>
      <trkpt lat="45.92448" lon="4.73415">
        <ele>172</ele>
        <time>2018-07-10T10:26:07Z</time>
      </trkpt>
      <trkpt lat="45.92452" lon="4.73419">
        <ele>173</ele>
        <time>2018-07-10T10:26:08Z</time>
      </trkpt>
      <trkpt lat="45.92457" lon="4.73424">
        <ele>173</ele>
        <time>2018-07-10T10:26:09Z</time>
      </trkpt>
      <trkpt lat="45.92461" lon="4.7343">
        <ele>173</ele>
        <time>2018-07-10T10:26:10Z</time>
      </trkpt>
      <trkpt lat="45.92464" lon="4.73435">
        <ele>173</ele>
        <time>2018-07-10T10:26:11Z</time>
      </trkpt>
      <trkpt lat="45.92465" lon="4.73443">
        <ele>173</ele>
        <time>2018-07-10T10:26:12Z</time>
      </trkpt>
      <trkpt lat="45.92466" lon="4.73451">
        <ele>173</ele>
        <time>2018-07-10T10:26:13Z</time>
      </trkpt>
      <trkpt lat="45.92467" lon="4.7346">
        <ele>173</ele>
        <time>2018-07-10T10:26:14Z</time>
      </trkpt>
      <trkpt lat="45.92467" lon="4.73468">
        <ele>173</ele>
        <time>2018-07-10T10:26:15Z</time>
      </trkpt>
      <trkpt lat="45.92467" lon="4.73476">
        <ele>173</ele>
        <time>2018-07-10T10:26:16Z</time>
      </trkpt>
      <trkpt lat="45.92467" lon="4.73484">
        <ele>173</ele>
        <time>2018-07-10T10:26:17Z</time>
      </trkpt>
      <trkpt lat="45.92467" lon="4.73492">
        <ele>173</ele>
        <time>2018-07-10T10:26:18Z</time>
      </trkpt>
      <trkpt lat="45.92467" lon="4.73499">
        <ele>173</ele>
        <time>2018-07-10T10:26:19Z</time>
      </trkpt>
      <trkpt lat="45.92467" lon="4.73506">
        <ele>174</ele>
        <time>2018-07-10T10:26:20Z</time>
      </trkpt>
      <trkpt lat="45.92467" lon="4.73515">
        <ele>174</ele>
        <time>2018-07-10T10:26:21Z</time>
      </trkpt>
      <trkpt lat="45.92467" lon="4.73522">
        <ele>174</ele>
        <time>2018-07-10T10:26:22Z</time>
      </trkpt>
      <trkpt lat="45.92466" lon="4.73529">
        <ele>174</ele>
        <time>2018-07-10T10:26:23Z</time>
      </trkpt>
      <trkpt lat="45.92466" lon="4.73541">
        <ele>174</ele>
        <time>2018-07-10T10:26:25Z</time>
      </trkpt>
      <trkpt lat="45.92465" lon="4.73548">
        <ele>173</ele>
        <time>2018-07-10T10:26:26Z</time>
      </trkpt>
      <trkpt lat="45.92465" lon="4.73557">
        <ele>173</ele>
        <time>2018-07-10T10:26:27Z</time>
      </trkpt>
      <trkpt lat="45.92465" lon="4.73564">
        <ele>173</ele>
        <time>2018-07-10T10:26:28Z</time>
      </trkpt>
      <trkpt lat="45.92465" lon="4.73571">
        <ele>173</ele>
        <time>2018-07-10T10:26:29Z</time>
      </trkpt>
      <trkpt lat="45.92466" lon="4.73579">
        <ele>173</ele>
        <time>2018-07-10T10:26:30Z</time>
      </trkpt>
      <trkpt lat="45.92466" lon="4.73587">
        <ele>174</ele>
        <time>2018-07-10T10:26:31Z</time>
      </trkpt>
      <trkpt lat="45.92467" lon="4.73594">
        <ele>174</ele>
        <time>2018-07-10T10:26:32Z</time>
      </trkpt>
      <trkpt lat="45.92468" lon="4.73606">
        <ele>174</ele>
        <time>2018-07-10T10:26:35Z</time>
      </trkpt>
      <trkpt lat="45.92468" lon="4.73609">
        <ele>174</ele>
        <time>2018-07-10T10:26:36Z</time>
      </trkpt>
      <trkpt lat="45.9247" lon="4.7362">
        <ele>174</ele>
        <time>2018-07-10T10:26:40Z</time>
      </trkpt>
      <trkpt lat="45.92472" lon="4.73631">
        <ele>174</ele>
        <time>2018-07-10T10:26:41Z</time>
      </trkpt>
      <trkpt lat="45.92471" lon="4.73643">
        <ele>174</ele>
        <time>2018-07-10T10:26:43Z</time>
      </trkpt>
      <trkpt lat="45.9247" lon="4.7365">
        <ele>174</ele>
        <time>2018-07-10T10:26:44Z</time>
      </trkpt>
      <trkpt lat="45.92469" lon="4.73656">
        <ele>174</ele>
        <time>2018-07-10T10:26:45Z</time>
      </trkpt>
      <trkpt lat="45.92469" lon="4.73663">
        <ele>174</ele>
        <time>2018-07-10T10:26:46Z</time>
      </trkpt>
      <trkpt lat="45.92467" lon="4.73669">
        <ele>174</ele>
        <time>2018-07-10T10:26:47Z</time>
      </trkpt>
      <trkpt lat="45.92467" lon="4.73675">
        <ele>174</ele>
        <time>2018-07-10T10:26:48Z</time>
      </trkpt>
      <trkpt lat="45.92468" lon="4.73684">
        <ele>174</ele>
        <time>2018-07-10T10:26:49Z</time>
      </trkpt>
      <trkpt lat="45.92467" lon="4.73691">
        <ele>174</ele>
        <time>2018-07-10T10:26:50Z</time>
      </trkpt>
      <trkpt lat="45.92465" lon="4.73704">
        <ele>174</ele>
        <time>2018-07-10T10:26:56Z</time>
      </trkpt>
      <trkpt lat="45.92465" lon="4.73704">
        <ele>174</ele>
        <time>2018-07-10T10:26:57Z</time>
      </trkpt>
      <trkpt lat="45.9246" lon="4.73706">
        <ele>174</ele>
        <time>2018-07-10T10:27:30.153Z</time>
      </trkpt>
    </trkseg>
  </trk>
</gpx>